<?xml version="1.0" encoding="UTF-8" standalone="no" ?>
<gpx xmlns="http://www.topografix.com/GPX/1/1" xmlns:xsi="http://www.w3.org/2001/XMLSchema-instance" xsi:schemaLocation="http://www.topografix.com/GPX/1/1 http://www.topografix.com/GPX/1/1/gpx.xsd" version="1.1" creator="VisuGPX - https://www.visugpx.com">
  <metadata>
    <name>Le Grand Duc</name>
    <desc><![CDATA[[b]8ème édition du Trail des Ducs - 2ème édition de la Duchesse[/b]
Dimanche 12 mars 2023 - Départ 9h00
Trail 28km Chronométré]]></desc>
  </metadata>
  <wpt lat="48.79299" lon="5.15146">
    <ele>226.8</ele>
    <name><![CDATA[Ravitaillement 1]]></name>
    <type><![CDATA[restaurant]]></type>
  </wpt>
  <wpt lat="48.81927" lon="5.16207">
    <ele>219.9</ele>
    <name><![CDATA[Ravitaillement 2]]></name>
    <type><![CDATA[restaurant]]></type>
  </wpt>
  <trk>
    <name><![CDATA[Le Grand Duc]]></name>
    <extensions>
      <line xmlns="http://www.topografix.com/GPX/gpx_style/0/2">
        <color>0000FF</color>
        <width>4</width>
          <extensions>
            <sens>1</sens>
          </extensions>
      </line>
    </extensions>
    <trkseg>
      <trkpt lat="48.79261" lon="5.15255">
        <ele>220</ele>
        <time>2023-01-06T08:06:23.000Z</time>
      </trkpt>
      <trkpt lat="48.79261" lon="5.15257">
        <ele>220</ele>
        <time>2023-01-06T08:06:24.000Z</time>
      </trkpt>
      <trkpt lat="48.79261" lon="5.15259">
        <ele>220</ele>
        <time>2023-01-06T08:06:25.000Z</time>
      </trkpt>
      <trkpt lat="48.7926" lon="5.15261">
        <ele>220</ele>
        <time>2023-01-06T08:06:26.000Z</time>
      </trkpt>
      <trkpt lat="48.7926" lon="5.15263">
        <ele>220.3</ele>
        <time>2023-01-06T08:06:27.000Z</time>
      </trkpt>
      <trkpt lat="48.79259" lon="5.15264">
        <ele>220.7</ele>
        <time>2023-01-06T08:06:28.000Z</time>
      </trkpt>
      <trkpt lat="48.79259" lon="5.15266">
        <ele>221</ele>
        <time>2023-01-06T08:06:29.000Z</time>
      </trkpt>
      <trkpt lat="48.79258" lon="5.15268">
        <ele>221</ele>
        <time>2023-01-06T08:06:30.000Z</time>
      </trkpt>
      <trkpt lat="48.79258" lon="5.15269">
        <ele>221</ele>
        <time>2023-01-06T08:06:31.000Z</time>
      </trkpt>
      <trkpt lat="48.79257" lon="5.1527">
        <ele>221</ele>
        <time>2023-01-06T08:06:32.000Z</time>
      </trkpt>
      <trkpt lat="48.79256" lon="5.15272">
        <ele>221</ele>
        <time>2023-01-06T08:06:33.000Z</time>
      </trkpt>
      <trkpt lat="48.79256" lon="5.15273">
        <ele>221</ele>
        <time>2023-01-06T08:06:34.000Z</time>
      </trkpt>
      <trkpt lat="48.79255" lon="5.15274">
        <ele>221</ele>
        <time>2023-01-06T08:06:35.000Z</time>
      </trkpt>
      <trkpt lat="48.79255" lon="5.15275">
        <ele>221</ele>
        <time>2023-01-06T08:06:36.000Z</time>
      </trkpt>
      <trkpt lat="48.79254" lon="5.15277">
        <ele>221</ele>
        <time>2023-01-06T08:06:37.000Z</time>
      </trkpt>
      <trkpt lat="48.79254" lon="5.15278">
        <ele>222</ele>
        <time>2023-01-06T08:06:38.000Z</time>
      </trkpt>
      <trkpt lat="48.79254" lon="5.15279">
        <ele>222</ele>
        <time>2023-01-06T08:06:39.000Z</time>
      </trkpt>
      <trkpt lat="48.79253" lon="5.1528">
        <ele>222</ele>
        <time>2023-01-06T08:06:40.000Z</time>
      </trkpt>
      <trkpt lat="48.79253" lon="5.15281">
        <ele>222</ele>
        <time>2023-01-06T08:06:41.000Z</time>
      </trkpt>
      <trkpt lat="48.79253" lon="5.15282">
        <ele>222</ele>
        <time>2023-01-06T08:06:42.000Z</time>
      </trkpt>
      <trkpt lat="48.79252" lon="5.15283">
        <ele>222</ele>
        <time>2023-01-06T08:06:43.000Z</time>
      </trkpt>
      <trkpt lat="48.79252" lon="5.15284">
        <ele>222</ele>
        <time>2023-01-06T08:06:44.000Z</time>
      </trkpt>
      <trkpt lat="48.79252" lon="5.15285">
        <ele>222</ele>
        <time>2023-01-06T08:06:45.000Z</time>
      </trkpt>
      <trkpt lat="48.79251" lon="5.15286">
        <ele>222</ele>
        <time>2023-01-06T08:06:46.000Z</time>
      </trkpt>
      <trkpt lat="48.79251" lon="5.15287">
        <ele>222</ele>
        <time>2023-01-06T08:06:47.000Z</time>
      </trkpt>
      <trkpt lat="48.7925" lon="5.15288">
        <ele>222</ele>
        <time>2023-01-06T08:06:48.000Z</time>
      </trkpt>
      <trkpt lat="48.7925" lon="5.15289">
        <ele>222</ele>
        <time>2023-01-06T08:06:49.000Z</time>
      </trkpt>
      <trkpt lat="48.7925" lon="5.1529">
        <ele>222.5</ele>
        <time>2023-01-06T08:06:50.000Z</time>
      </trkpt>
      <trkpt lat="48.79249" lon="5.15291">
        <ele>223</ele>
        <time>2023-01-06T08:06:51.000Z</time>
      </trkpt>
      <trkpt lat="48.79249" lon="5.15292">
        <ele>223</ele>
        <time>2023-01-06T08:06:52.000Z</time>
      </trkpt>
      <trkpt lat="48.79248" lon="5.15293">
        <ele>223</ele>
        <time>2023-01-06T08:06:53.000Z</time>
      </trkpt>
      <trkpt lat="48.79248" lon="5.15294">
        <ele>223</ele>
        <time>2023-01-06T08:06:54.000Z</time>
      </trkpt>
      <trkpt lat="48.79248" lon="5.15295">
        <ele>223</ele>
        <time>2023-01-06T08:06:55.000Z</time>
      </trkpt>
      <trkpt lat="48.79248" lon="5.15295">
        <ele>223</ele>
        <time>2023-01-06T08:06:56.000Z</time>
      </trkpt>
      <trkpt lat="48.79247" lon="5.15296">
        <ele>223</ele>
        <time>2023-01-06T08:06:57.000Z</time>
      </trkpt>
      <trkpt lat="48.79247" lon="5.15296">
        <ele>223</ele>
        <time>2023-01-06T08:06:58.000Z</time>
      </trkpt>
      <trkpt lat="48.79247" lon="5.15296">
        <ele>223</ele>
        <time>2023-01-06T08:06:59.000Z</time>
      </trkpt>
      <trkpt lat="48.79247" lon="5.15296">
        <ele>223.5</ele>
        <time>2023-01-06T08:07:00.000Z</time>
      </trkpt>
      <trkpt lat="48.79247" lon="5.15296">
        <ele>224</ele>
        <time>2023-01-06T08:07:01.000Z</time>
      </trkpt>
      <trkpt lat="48.79247" lon="5.15296">
        <ele>224</ele>
        <time>2023-01-06T08:07:02.000Z</time>
      </trkpt>
      <trkpt lat="48.79247" lon="5.15297">
        <ele>224</ele>
        <time>2023-01-06T08:07:03.000Z</time>
      </trkpt>
      <trkpt lat="48.79247" lon="5.15298">
        <ele>224</ele>
        <time>2023-01-06T08:07:04.000Z</time>
      </trkpt>
      <trkpt lat="48.79247" lon="5.15298">
        <ele>224</ele>
        <time>2023-01-06T08:07:05.000Z</time>
      </trkpt>
      <trkpt lat="48.79247" lon="5.15299">
        <ele>224</ele>
        <time>2023-01-06T08:07:06.000Z</time>
      </trkpt>
      <trkpt lat="48.79247" lon="5.15299">
        <ele>224</ele>
        <time>2023-01-06T08:07:07.000Z</time>
      </trkpt>
      <trkpt lat="48.79247" lon="5.153">
        <ele>224</ele>
        <time>2023-01-06T08:07:08.000Z</time>
      </trkpt>
      <trkpt lat="48.79247" lon="5.153">
        <ele>224</ele>
        <time>2023-01-06T08:07:09.000Z</time>
      </trkpt>
      <trkpt lat="48.79247" lon="5.153">
        <ele>224</ele>
        <time>2023-01-06T08:07:10.000Z</time>
      </trkpt>
      <trkpt lat="48.79247" lon="5.153">
        <ele>224</ele>
        <time>2023-01-06T08:07:11.000Z</time>
      </trkpt>
      <trkpt lat="48.79247" lon="5.153">
        <ele>225</ele>
        <time>2023-01-06T08:07:12.000Z</time>
      </trkpt>
      <trkpt lat="48.79247" lon="5.153">
        <ele>224.5</ele>
        <time>2023-01-06T08:07:13.000Z</time>
      </trkpt>
      <trkpt lat="48.79247" lon="5.153">
        <ele>224</ele>
        <time>2023-01-06T08:07:14.000Z</time>
      </trkpt>
      <trkpt lat="48.79247" lon="5.153">
        <ele>224.3</ele>
        <time>2023-01-06T08:07:15.000Z</time>
      </trkpt>
      <trkpt lat="48.79247" lon="5.153">
        <ele>224.7</ele>
        <time>2023-01-06T08:07:16.000Z</time>
      </trkpt>
      <trkpt lat="48.79247" lon="5.153">
        <ele>225</ele>
        <time>2023-01-06T08:07:17.000Z</time>
      </trkpt>
      <trkpt lat="48.79247" lon="5.153">
        <ele>225</ele>
        <time>2023-01-06T08:07:18.000Z</time>
      </trkpt>
      <trkpt lat="48.79247" lon="5.153">
        <ele>225</ele>
        <time>2023-01-06T08:07:19.000Z</time>
      </trkpt>
      <trkpt lat="48.79247" lon="5.153">
        <ele>225</ele>
        <time>2023-01-06T08:07:20.000Z</time>
      </trkpt>
      <trkpt lat="48.79247" lon="5.153">
        <ele>225</ele>
        <time>2023-01-06T08:07:21.000Z</time>
      </trkpt>
      <trkpt lat="48.79247" lon="5.153">
        <ele>225</ele>
        <time>2023-01-06T08:07:22.000Z</time>
      </trkpt>
      <trkpt lat="48.79247" lon="5.153">
        <ele>225</ele>
        <time>2023-01-06T08:07:23.000Z</time>
      </trkpt>
      <trkpt lat="48.79247" lon="5.153">
        <ele>225</ele>
        <time>2023-01-06T08:07:24.000Z</time>
      </trkpt>
      <trkpt lat="48.79247" lon="5.153">
        <ele>225</ele>
        <time>2023-01-06T08:07:25.000Z</time>
      </trkpt>
      <trkpt lat="48.79247" lon="5.153">
        <ele>225</ele>
        <time>2023-01-06T08:07:26.000Z</time>
      </trkpt>
      <trkpt lat="48.79247" lon="5.153">
        <ele>225.3</ele>
        <time>2023-01-06T08:07:27.000Z</time>
      </trkpt>
      <trkpt lat="48.79247" lon="5.153">
        <ele>225.7</ele>
        <time>2023-01-06T08:07:28.000Z</time>
      </trkpt>
      <trkpt lat="48.79247" lon="5.15301">
        <ele>226</ele>
        <time>2023-01-06T08:07:29.000Z</time>
      </trkpt>
      <trkpt lat="48.79247" lon="5.15301">
        <ele>226</ele>
        <time>2023-01-06T08:07:30.000Z</time>
      </trkpt>
      <trkpt lat="48.79247" lon="5.15301">
        <ele>226</ele>
        <time>2023-01-06T08:07:31.000Z</time>
      </trkpt>
      <trkpt lat="48.79247" lon="5.15301">
        <ele>226</ele>
        <time>2023-01-06T08:07:32.000Z</time>
      </trkpt>
      <trkpt lat="48.79248" lon="5.15302">
        <ele>226</ele>
        <time>2023-01-06T08:07:33.000Z</time>
      </trkpt>
      <trkpt lat="48.79248" lon="5.15303">
        <ele>226</ele>
        <time>2023-01-06T08:07:34.000Z</time>
      </trkpt>
      <trkpt lat="48.79248" lon="5.15304">
        <ele>226</ele>
        <time>2023-01-06T08:07:35.000Z</time>
      </trkpt>
      <trkpt lat="48.79248" lon="5.15305">
        <ele>226</ele>
        <time>2023-01-06T08:07:36.000Z</time>
      </trkpt>
      <trkpt lat="48.79248" lon="5.15306">
        <ele>226</ele>
        <time>2023-01-06T08:07:37.000Z</time>
      </trkpt>
      <trkpt lat="48.79248" lon="5.15307">
        <ele>226</ele>
        <time>2023-01-06T08:07:38.000Z</time>
      </trkpt>
      <trkpt lat="48.79248" lon="5.15309">
        <ele>226</ele>
        <time>2023-01-06T08:07:39.000Z</time>
      </trkpt>
      <trkpt lat="48.79247" lon="5.1531">
        <ele>226</ele>
        <time>2023-01-06T08:07:40.000Z</time>
      </trkpt>
      <trkpt lat="48.79247" lon="5.15312">
        <ele>226</ele>
        <time>2023-01-06T08:07:41.000Z</time>
      </trkpt>
      <trkpt lat="48.79246" lon="5.15313">
        <ele>226</ele>
        <time>2023-01-06T08:07:42.000Z</time>
      </trkpt>
      <trkpt lat="48.79246" lon="5.15315">
        <ele>226</ele>
        <time>2023-01-06T08:07:43.000Z</time>
      </trkpt>
      <trkpt lat="48.79246" lon="5.15317">
        <ele>226</ele>
        <time>2023-01-06T08:07:44.000Z</time>
      </trkpt>
      <trkpt lat="48.79246" lon="5.15319">
        <ele>226.3</ele>
        <time>2023-01-06T08:07:45.000Z</time>
      </trkpt>
      <trkpt lat="48.79246" lon="5.15321">
        <ele>226.7</ele>
        <time>2023-01-06T08:07:46.000Z</time>
      </trkpt>
      <trkpt lat="48.79247" lon="5.15322">
        <ele>227</ele>
        <time>2023-01-06T08:07:47.000Z</time>
      </trkpt>
      <trkpt lat="48.79247" lon="5.15324">
        <ele>227</ele>
        <time>2023-01-06T08:07:48.000Z</time>
      </trkpt>
      <trkpt lat="48.79247" lon="5.15326">
        <ele>227</ele>
        <time>2023-01-06T08:07:49.000Z</time>
      </trkpt>
      <trkpt lat="48.79247" lon="5.15327">
        <ele>227</ele>
        <time>2023-01-06T08:07:50.000Z</time>
      </trkpt>
      <trkpt lat="48.79248" lon="5.15328">
        <ele>227</ele>
        <time>2023-01-06T08:07:51.000Z</time>
      </trkpt>
      <trkpt lat="48.79248" lon="5.15328">
        <ele>227</ele>
        <time>2023-01-06T08:07:52.000Z</time>
      </trkpt>
      <trkpt lat="48.79248" lon="5.15328">
        <ele>227</ele>
        <time>2023-01-06T08:07:53.000Z</time>
      </trkpt>
      <trkpt lat="48.79248" lon="5.15328">
        <ele>227</ele>
        <time>2023-01-06T08:07:54.000Z</time>
      </trkpt>
      <trkpt lat="48.79248" lon="5.15329">
        <ele>227</ele>
        <time>2023-01-06T08:07:55.000Z</time>
      </trkpt>
      <trkpt lat="48.79248" lon="5.1533">
        <ele>227</ele>
        <time>2023-01-06T08:07:56.000Z</time>
      </trkpt>
      <trkpt lat="48.79249" lon="5.15332">
        <ele>227</ele>
        <time>2023-01-06T08:07:57.000Z</time>
      </trkpt>
      <trkpt lat="48.79249" lon="5.15334">
        <ele>227</ele>
        <time>2023-01-06T08:07:58.000Z</time>
      </trkpt>
      <trkpt lat="48.79249" lon="5.15335">
        <ele>227</ele>
        <time>2023-01-06T08:07:59.000Z</time>
      </trkpt>
      <trkpt lat="48.79249" lon="5.15337">
        <ele>227</ele>
        <time>2023-01-06T08:08:00.000Z</time>
      </trkpt>
      <trkpt lat="48.79249" lon="5.15339">
        <ele>227</ele>
        <time>2023-01-06T08:08:01.000Z</time>
      </trkpt>
      <trkpt lat="48.79249" lon="5.1534">
        <ele>228</ele>
        <time>2023-01-06T08:08:02.000Z</time>
      </trkpt>
      <trkpt lat="48.79249" lon="5.15342">
        <ele>228</ele>
        <time>2023-01-06T08:08:03.000Z</time>
      </trkpt>
      <trkpt lat="48.79249" lon="5.15343">
        <ele>228</ele>
        <time>2023-01-06T08:08:04.000Z</time>
      </trkpt>
      <trkpt lat="48.79249" lon="5.15345">
        <ele>228</ele>
        <time>2023-01-06T08:08:05.000Z</time>
      </trkpt>
      <trkpt lat="48.79249" lon="5.15346">
        <ele>228</ele>
        <time>2023-01-06T08:08:06.000Z</time>
      </trkpt>
      <trkpt lat="48.79249" lon="5.15347">
        <ele>228</ele>
        <time>2023-01-06T08:08:07.000Z</time>
      </trkpt>
      <trkpt lat="48.79249" lon="5.15348">
        <ele>227</ele>
        <time>2023-01-06T08:08:08.000Z</time>
      </trkpt>
      <trkpt lat="48.79249" lon="5.15349">
        <ele>227</ele>
        <time>2023-01-06T08:08:09.000Z</time>
      </trkpt>
      <trkpt lat="48.79249" lon="5.1535">
        <ele>227</ele>
        <time>2023-01-06T08:08:10.000Z</time>
      </trkpt>
      <trkpt lat="48.79249" lon="5.1535">
        <ele>227</ele>
        <time>2023-01-06T08:08:11.000Z</time>
      </trkpt>
      <trkpt lat="48.79249" lon="5.15351">
        <ele>227</ele>
        <time>2023-01-06T08:08:12.000Z</time>
      </trkpt>
      <trkpt lat="48.79249" lon="5.15351">
        <ele>227</ele>
        <time>2023-01-06T08:08:13.000Z</time>
      </trkpt>
      <trkpt lat="48.79248" lon="5.15351">
        <ele>227</ele>
        <time>2023-01-06T08:08:14.000Z</time>
      </trkpt>
      <trkpt lat="48.79248" lon="5.15351">
        <ele>227</ele>
        <time>2023-01-06T08:08:15.000Z</time>
      </trkpt>
      <trkpt lat="48.79248" lon="5.15351">
        <ele>227</ele>
        <time>2023-01-06T08:08:16.000Z</time>
      </trkpt>
      <trkpt lat="48.79248" lon="5.15351">
        <ele>227</ele>
        <time>2023-01-06T08:08:17.000Z</time>
      </trkpt>
      <trkpt lat="48.79248" lon="5.15352">
        <ele>227</ele>
        <time>2023-01-06T08:08:18.000Z</time>
      </trkpt>
      <trkpt lat="48.79248" lon="5.15352">
        <ele>227</ele>
        <time>2023-01-06T08:08:19.000Z</time>
      </trkpt>
      <trkpt lat="48.79248" lon="5.15353">
        <ele>227</ele>
        <time>2023-01-06T08:08:20.000Z</time>
      </trkpt>
      <trkpt lat="48.79248" lon="5.15353">
        <ele>227</ele>
        <time>2023-01-06T08:08:21.000Z</time>
      </trkpt>
      <trkpt lat="48.79248" lon="5.15353">
        <ele>227</ele>
        <time>2023-01-06T08:08:22.000Z</time>
      </trkpt>
      <trkpt lat="48.79248" lon="5.15354">
        <ele>227</ele>
        <time>2023-01-06T08:08:23.000Z</time>
      </trkpt>
      <trkpt lat="48.79248" lon="5.15354">
        <ele>227</ele>
        <time>2023-01-06T08:08:24.000Z</time>
      </trkpt>
      <trkpt lat="48.79248" lon="5.15354">
        <ele>227</ele>
        <time>2023-01-06T08:08:25.000Z</time>
      </trkpt>
      <trkpt lat="48.79248" lon="5.15354">
        <ele>226.5</ele>
        <time>2023-01-06T08:08:26.000Z</time>
      </trkpt>
      <trkpt lat="48.79248" lon="5.15354">
        <ele>226</ele>
        <time>2023-01-06T08:08:27.000Z</time>
      </trkpt>
      <trkpt lat="48.79248" lon="5.15354">
        <ele>226</ele>
        <time>2023-01-06T08:08:28.000Z</time>
      </trkpt>
      <trkpt lat="48.79248" lon="5.15354">
        <ele>226</ele>
        <time>2023-01-06T08:08:29.000Z</time>
      </trkpt>
      <trkpt lat="48.79248" lon="5.15354">
        <ele>226</ele>
        <time>2023-01-06T08:08:30.000Z</time>
      </trkpt>
      <trkpt lat="48.79248" lon="5.15354">
        <ele>226</ele>
        <time>2023-01-06T08:08:31.000Z</time>
      </trkpt>
      <trkpt lat="48.79248" lon="5.15354">
        <ele>226</ele>
        <time>2023-01-06T08:08:32.000Z</time>
      </trkpt>
      <trkpt lat="48.79248" lon="5.15354">
        <ele>226</ele>
        <time>2023-01-06T08:08:33.000Z</time>
      </trkpt>
      <trkpt lat="48.79248" lon="5.15354">
        <ele>226</ele>
        <time>2023-01-06T08:08:34.000Z</time>
      </trkpt>
      <trkpt lat="48.79248" lon="5.15354">
        <ele>226</ele>
        <time>2023-01-06T08:08:35.000Z</time>
      </trkpt>
      <trkpt lat="48.79248" lon="5.15354">
        <ele>226</ele>
        <time>2023-01-06T08:08:36.000Z</time>
      </trkpt>
      <trkpt lat="48.79248" lon="5.15354">
        <ele>226</ele>
        <time>2023-01-06T08:08:37.000Z</time>
      </trkpt>
      <trkpt lat="48.79248" lon="5.15354">
        <ele>226</ele>
        <time>2023-01-06T08:08:38.000Z</time>
      </trkpt>
      <trkpt lat="48.79248" lon="5.15354">
        <ele>226</ele>
        <time>2023-01-06T08:08:39.000Z</time>
      </trkpt>
      <trkpt lat="48.79248" lon="5.15354">
        <ele>226</ele>
        <time>2023-01-06T08:08:40.000Z</time>
      </trkpt>
      <trkpt lat="48.79248" lon="5.15354">
        <ele>226</ele>
        <time>2023-01-06T08:08:41.000Z</time>
      </trkpt>
      <trkpt lat="48.79248" lon="5.15354">
        <ele>226</ele>
        <time>2023-01-06T08:08:42.000Z</time>
      </trkpt>
      <trkpt lat="48.79248" lon="5.15354">
        <ele>226</ele>
        <time>2023-01-06T08:08:43.000Z</time>
      </trkpt>
      <trkpt lat="48.79248" lon="5.15354">
        <ele>226</ele>
        <time>2023-01-06T08:08:44.000Z</time>
      </trkpt>
      <trkpt lat="48.79248" lon="5.15354">
        <ele>226</ele>
        <time>2023-01-06T08:08:45.000Z</time>
      </trkpt>
      <trkpt lat="48.79248" lon="5.15354">
        <ele>226</ele>
        <time>2023-01-06T08:08:46.000Z</time>
      </trkpt>
      <trkpt lat="48.79248" lon="5.15354">
        <ele>226</ele>
        <time>2023-01-06T08:08:47.000Z</time>
      </trkpt>
      <trkpt lat="48.79248" lon="5.15354">
        <ele>226</ele>
        <time>2023-01-06T08:08:48.000Z</time>
      </trkpt>
      <trkpt lat="48.79248" lon="5.15354">
        <ele>226</ele>
        <time>2023-01-06T08:08:49.000Z</time>
      </trkpt>
      <trkpt lat="48.79248" lon="5.15354">
        <ele>225.5</ele>
        <time>2023-01-06T08:08:50.000Z</time>
      </trkpt>
      <trkpt lat="48.79248" lon="5.15354">
        <ele>225</ele>
        <time>2023-01-06T08:08:51.000Z</time>
      </trkpt>
      <trkpt lat="48.79248" lon="5.15354">
        <ele>225</ele>
        <time>2023-01-06T08:08:52.000Z</time>
      </trkpt>
      <trkpt lat="48.79248" lon="5.15354">
        <ele>225</ele>
        <time>2023-01-06T08:08:53.000Z</time>
      </trkpt>
      <trkpt lat="48.79248" lon="5.15354">
        <ele>225</ele>
        <time>2023-01-06T08:08:54.000Z</time>
      </trkpt>
      <trkpt lat="48.79248" lon="5.15354">
        <ele>225</ele>
        <time>2023-01-06T08:08:55.000Z</time>
      </trkpt>
      <trkpt lat="48.79249" lon="5.15354">
        <ele>225</ele>
        <time>2023-01-06T08:08:56.000Z</time>
      </trkpt>
      <trkpt lat="48.79249" lon="5.15355">
        <ele>225</ele>
        <time>2023-01-06T08:08:57.000Z</time>
      </trkpt>
      <trkpt lat="48.7925" lon="5.15356">
        <ele>225</ele>
        <time>2023-01-06T08:08:58.000Z</time>
      </trkpt>
      <trkpt lat="48.79251" lon="5.15357">
        <ele>225</ele>
        <time>2023-01-06T08:08:59.000Z</time>
      </trkpt>
      <trkpt lat="48.79251" lon="5.15358">
        <ele>225</ele>
        <time>2023-01-06T08:09:00.000Z</time>
      </trkpt>
      <trkpt lat="48.79251" lon="5.1536">
        <ele>225</ele>
        <time>2023-01-06T08:09:01.000Z</time>
      </trkpt>
      <trkpt lat="48.79251" lon="5.15361">
        <ele>225</ele>
        <time>2023-01-06T08:09:02.000Z</time>
      </trkpt>
      <trkpt lat="48.79251" lon="5.15363">
        <ele>225</ele>
        <time>2023-01-06T08:09:03.000Z</time>
      </trkpt>
      <trkpt lat="48.7925" lon="5.15365">
        <ele>225</ele>
        <time>2023-01-06T08:09:04.000Z</time>
      </trkpt>
      <trkpt lat="48.7925" lon="5.15367">
        <ele>225</ele>
        <time>2023-01-06T08:09:05.000Z</time>
      </trkpt>
      <trkpt lat="48.7925" lon="5.15369">
        <ele>225</ele>
        <time>2023-01-06T08:09:06.000Z</time>
      </trkpt>
      <trkpt lat="48.79249" lon="5.1537">
        <ele>225</ele>
        <time>2023-01-06T08:09:07.000Z</time>
      </trkpt>
      <trkpt lat="48.79249" lon="5.15372">
        <ele>225.5</ele>
        <time>2023-01-06T08:09:08.000Z</time>
      </trkpt>
      <trkpt lat="48.79249" lon="5.15374">
        <ele>226</ele>
        <time>2023-01-06T08:09:09.000Z</time>
      </trkpt>
      <trkpt lat="48.79249" lon="5.15376">
        <ele>226</ele>
        <time>2023-01-06T08:09:10.000Z</time>
      </trkpt>
      <trkpt lat="48.79248" lon="5.15377">
        <ele>226</ele>
        <time>2023-01-06T08:09:11.000Z</time>
      </trkpt>
      <trkpt lat="48.79248" lon="5.15379">
        <ele>226</ele>
        <time>2023-01-06T08:09:12.000Z</time>
      </trkpt>
      <trkpt lat="48.79248" lon="5.1538">
        <ele>226</ele>
        <time>2023-01-06T08:09:13.000Z</time>
      </trkpt>
      <trkpt lat="48.79248" lon="5.15382">
        <ele>226</ele>
        <time>2023-01-06T08:09:14.000Z</time>
      </trkpt>
      <trkpt lat="48.79247" lon="5.15383">
        <ele>226</ele>
        <time>2023-01-06T08:09:15.000Z</time>
      </trkpt>
      <trkpt lat="48.79247" lon="5.15385">
        <ele>226</ele>
        <time>2023-01-06T08:09:16.000Z</time>
      </trkpt>
      <trkpt lat="48.79247" lon="5.15387">
        <ele>226</ele>
        <time>2023-01-06T08:09:17.000Z</time>
      </trkpt>
      <trkpt lat="48.79247" lon="5.15389">
        <ele>226.5</ele>
        <time>2023-01-06T08:09:18.000Z</time>
      </trkpt>
      <trkpt lat="48.79246" lon="5.15391">
        <ele>227</ele>
        <time>2023-01-06T08:09:19.000Z</time>
      </trkpt>
      <trkpt lat="48.79246" lon="5.15393">
        <ele>227</ele>
        <time>2023-01-06T08:09:20.000Z</time>
      </trkpt>
      <trkpt lat="48.79246" lon="5.15395">
        <ele>227</ele>
        <time>2023-01-06T08:09:21.000Z</time>
      </trkpt>
      <trkpt lat="48.79246" lon="5.15397">
        <ele>227</ele>
        <time>2023-01-06T08:09:22.000Z</time>
      </trkpt>
      <trkpt lat="48.79246" lon="5.15398">
        <ele>227</ele>
        <time>2023-01-06T08:09:23.000Z</time>
      </trkpt>
      <trkpt lat="48.79246" lon="5.154">
        <ele>227</ele>
        <time>2023-01-06T08:09:24.000Z</time>
      </trkpt>
      <trkpt lat="48.79246" lon="5.15402">
        <ele>227</ele>
        <time>2023-01-06T08:09:25.000Z</time>
      </trkpt>
      <trkpt lat="48.79245" lon="5.15404">
        <ele>227</ele>
        <time>2023-01-06T08:09:26.000Z</time>
      </trkpt>
      <trkpt lat="48.79245" lon="5.15406">
        <ele>227</ele>
        <time>2023-01-06T08:09:27.000Z</time>
      </trkpt>
      <trkpt lat="48.79245" lon="5.15408">
        <ele>228</ele>
        <time>2023-01-06T08:09:28.000Z</time>
      </trkpt>
      <trkpt lat="48.79245" lon="5.15409">
        <ele>228</ele>
        <time>2023-01-06T08:09:29.000Z</time>
      </trkpt>
      <trkpt lat="48.79245" lon="5.15411">
        <ele>228</ele>
        <time>2023-01-06T08:09:30.000Z</time>
      </trkpt>
      <trkpt lat="48.79244" lon="5.15413">
        <ele>228</ele>
        <time>2023-01-06T08:09:31.000Z</time>
      </trkpt>
      <trkpt lat="48.79244" lon="5.15414">
        <ele>228</ele>
        <time>2023-01-06T08:09:32.000Z</time>
      </trkpt>
      <trkpt lat="48.79244" lon="5.15416">
        <ele>228</ele>
        <time>2023-01-06T08:09:33.000Z</time>
      </trkpt>
      <trkpt lat="48.79243" lon="5.15418">
        <ele>228</ele>
        <time>2023-01-06T08:09:34.000Z</time>
      </trkpt>
      <trkpt lat="48.79243" lon="5.1542">
        <ele>228</ele>
        <time>2023-01-06T08:09:35.000Z</time>
      </trkpt>
      <trkpt lat="48.79242" lon="5.15422">
        <ele>228</ele>
        <time>2023-01-06T08:09:36.000Z</time>
      </trkpt>
      <trkpt lat="48.79242" lon="5.15424">
        <ele>228</ele>
        <time>2023-01-06T08:09:37.000Z</time>
      </trkpt>
      <trkpt lat="48.79242" lon="5.15427">
        <ele>229</ele>
        <time>2023-01-06T08:09:38.000Z</time>
      </trkpt>
      <trkpt lat="48.79241" lon="5.1543">
        <ele>229</ele>
        <time>2023-01-06T08:09:39.000Z</time>
      </trkpt>
      <trkpt lat="48.79241" lon="5.15432">
        <ele>229</ele>
        <time>2023-01-06T08:09:40.000Z</time>
      </trkpt>
      <trkpt lat="48.79241" lon="5.15434">
        <ele>229</ele>
        <time>2023-01-06T08:09:41.000Z</time>
      </trkpt>
      <trkpt lat="48.7924" lon="5.15436">
        <ele>229</ele>
        <time>2023-01-06T08:09:42.000Z</time>
      </trkpt>
      <trkpt lat="48.7924" lon="5.15438">
        <ele>229</ele>
        <time>2023-01-06T08:09:43.000Z</time>
      </trkpt>
      <trkpt lat="48.79239" lon="5.15439">
        <ele>229</ele>
        <time>2023-01-06T08:09:44.000Z</time>
      </trkpt>
      <trkpt lat="48.79238" lon="5.15441">
        <ele>229</ele>
        <time>2023-01-06T08:09:45.000Z</time>
      </trkpt>
      <trkpt lat="48.79238" lon="5.15443">
        <ele>229</ele>
        <time>2023-01-06T08:09:46.000Z</time>
      </trkpt>
      <trkpt lat="48.79237" lon="5.15445">
        <ele>229</ele>
        <time>2023-01-06T08:09:47.000Z</time>
      </trkpt>
      <trkpt lat="48.79236" lon="5.15447">
        <ele>229.5</ele>
        <time>2023-01-06T08:09:48.000Z</time>
      </trkpt>
      <trkpt lat="48.79235" lon="5.15449">
        <ele>230</ele>
        <time>2023-01-06T08:09:49.000Z</time>
      </trkpt>
      <trkpt lat="48.79235" lon="5.15451">
        <ele>230</ele>
        <time>2023-01-06T08:09:50.000Z</time>
      </trkpt>
      <trkpt lat="48.79234" lon="5.15453">
        <ele>230</ele>
        <time>2023-01-06T08:09:51.000Z</time>
      </trkpt>
      <trkpt lat="48.79234" lon="5.15455">
        <ele>230</ele>
        <time>2023-01-06T08:09:52.000Z</time>
      </trkpt>
      <trkpt lat="48.79233" lon="5.15458">
        <ele>230</ele>
        <time>2023-01-06T08:09:53.000Z</time>
      </trkpt>
      <trkpt lat="48.79233" lon="5.1546">
        <ele>230</ele>
        <time>2023-01-06T08:09:54.000Z</time>
      </trkpt>
      <trkpt lat="48.79232" lon="5.15462">
        <ele>230</ele>
        <time>2023-01-06T08:09:55.000Z</time>
      </trkpt>
      <trkpt lat="48.79232" lon="5.15465">
        <ele>230</ele>
        <time>2023-01-06T08:09:56.000Z</time>
      </trkpt>
      <trkpt lat="48.79231" lon="5.15467">
        <ele>230</ele>
        <time>2023-01-06T08:09:57.000Z</time>
      </trkpt>
      <trkpt lat="48.7923" lon="5.15468">
        <ele>230</ele>
        <time>2023-01-06T08:09:58.000Z</time>
      </trkpt>
      <trkpt lat="48.79229" lon="5.1547">
        <ele>230.3</ele>
        <time>2023-01-06T08:09:59.000Z</time>
      </trkpt>
      <trkpt lat="48.79228" lon="5.15471">
        <ele>230.7</ele>
        <time>2023-01-06T08:10:00.000Z</time>
      </trkpt>
      <trkpt lat="48.79227" lon="5.15473">
        <ele>231</ele>
        <time>2023-01-06T08:10:01.000Z</time>
      </trkpt>
      <trkpt lat="48.79226" lon="5.15474">
        <ele>231</ele>
        <time>2023-01-06T08:10:02.000Z</time>
      </trkpt>
      <trkpt lat="48.79225" lon="5.15476">
        <ele>231</ele>
        <time>2023-01-06T08:10:03.000Z</time>
      </trkpt>
      <trkpt lat="48.79224" lon="5.15477">
        <ele>231</ele>
        <time>2023-01-06T08:10:04.000Z</time>
      </trkpt>
      <trkpt lat="48.79223" lon="5.15479">
        <ele>231</ele>
        <time>2023-01-06T08:10:05.000Z</time>
      </trkpt>
      <trkpt lat="48.79222" lon="5.1548">
        <ele>231</ele>
        <time>2023-01-06T08:10:06.000Z</time>
      </trkpt>
      <trkpt lat="48.79221" lon="5.15482">
        <ele>231</ele>
        <time>2023-01-06T08:10:07.000Z</time>
      </trkpt>
      <trkpt lat="48.7922" lon="5.15484">
        <ele>231.5</ele>
        <time>2023-01-06T08:10:08.000Z</time>
      </trkpt>
      <trkpt lat="48.79219" lon="5.15485">
        <ele>232</ele>
        <time>2023-01-06T08:10:09.000Z</time>
      </trkpt>
      <trkpt lat="48.79218" lon="5.15487">
        <ele>232</ele>
        <time>2023-01-06T08:10:10.000Z</time>
      </trkpt>
      <trkpt lat="48.79217" lon="5.15488">
        <ele>232</ele>
        <time>2023-01-06T08:10:11.000Z</time>
      </trkpt>
      <trkpt lat="48.79216" lon="5.1549">
        <ele>232</ele>
        <time>2023-01-06T08:10:12.000Z</time>
      </trkpt>
      <trkpt lat="48.79215" lon="5.15491">
        <ele>232</ele>
        <time>2023-01-06T08:10:13.000Z</time>
      </trkpt>
      <trkpt lat="48.79214" lon="5.15492">
        <ele>232.5</ele>
        <time>2023-01-06T08:10:14.000Z</time>
      </trkpt>
      <trkpt lat="48.79212" lon="5.15494">
        <ele>233</ele>
        <time>2023-01-06T08:10:15.000Z</time>
      </trkpt>
      <trkpt lat="48.79211" lon="5.15495">
        <ele>233</ele>
        <time>2023-01-06T08:10:16.000Z</time>
      </trkpt>
      <trkpt lat="48.7921" lon="5.15496">
        <ele>233</ele>
        <time>2023-01-06T08:10:17.000Z</time>
      </trkpt>
      <trkpt lat="48.79209" lon="5.15498">
        <ele>233</ele>
        <time>2023-01-06T08:10:18.000Z</time>
      </trkpt>
      <trkpt lat="48.79207" lon="5.15499">
        <ele>233</ele>
        <time>2023-01-06T08:10:19.000Z</time>
      </trkpt>
      <trkpt lat="48.79206" lon="5.155">
        <ele>233</ele>
        <time>2023-01-06T08:10:20.000Z</time>
      </trkpt>
      <trkpt lat="48.79205" lon="5.15501">
        <ele>233</ele>
        <time>2023-01-06T08:10:21.000Z</time>
      </trkpt>
      <trkpt lat="48.79204" lon="5.15502">
        <ele>233</ele>
        <time>2023-01-06T08:10:22.000Z</time>
      </trkpt>
      <trkpt lat="48.79203" lon="5.15503">
        <ele>233</ele>
        <time>2023-01-06T08:10:23.000Z</time>
      </trkpt>
      <trkpt lat="48.79202" lon="5.15504">
        <ele>233.5</ele>
        <time>2023-01-06T08:10:24.000Z</time>
      </trkpt>
      <trkpt lat="48.79202" lon="5.15505">
        <ele>234</ele>
        <time>2023-01-06T08:10:25.000Z</time>
      </trkpt>
      <trkpt lat="48.79201" lon="5.15506">
        <ele>234</ele>
        <time>2023-01-06T08:10:26.000Z</time>
      </trkpt>
      <trkpt lat="48.79201" lon="5.15506">
        <ele>234</ele>
        <time>2023-01-06T08:10:27.000Z</time>
      </trkpt>
      <trkpt lat="48.79201" lon="5.15506">
        <ele>234</ele>
        <time>2023-01-06T08:10:28.000Z</time>
      </trkpt>
      <trkpt lat="48.79201" lon="5.15506">
        <ele>234</ele>
        <time>2023-01-06T08:10:29.000Z</time>
      </trkpt>
      <trkpt lat="48.79201" lon="5.15506">
        <ele>234</ele>
        <time>2023-01-06T08:10:30.000Z</time>
      </trkpt>
      <trkpt lat="48.79201" lon="5.15506">
        <ele>234</ele>
        <time>2023-01-06T08:10:31.000Z</time>
      </trkpt>
      <trkpt lat="48.79201" lon="5.15506">
        <ele>234</ele>
        <time>2023-01-06T08:10:32.000Z</time>
      </trkpt>
      <trkpt lat="48.79201" lon="5.15506">
        <ele>234</ele>
        <time>2023-01-06T08:10:33.000Z</time>
      </trkpt>
      <trkpt lat="48.79201" lon="5.15506">
        <ele>234</ele>
        <time>2023-01-06T08:10:34.000Z</time>
      </trkpt>
      <trkpt lat="48.79201" lon="5.15506">
        <ele>234</ele>
        <time>2023-01-06T08:10:35.000Z</time>
      </trkpt>
      <trkpt lat="48.79201" lon="5.15506">
        <ele>234</ele>
        <time>2023-01-06T08:10:36.000Z</time>
      </trkpt>
      <trkpt lat="48.79201" lon="5.15506">
        <ele>234</ele>
        <time>2023-01-06T08:10:37.000Z</time>
      </trkpt>
      <trkpt lat="48.79201" lon="5.15506">
        <ele>234</ele>
        <time>2023-01-06T08:10:38.000Z</time>
      </trkpt>
      <trkpt lat="48.792" lon="5.15506">
        <ele>234</ele>
        <time>2023-01-06T08:10:39.000Z</time>
      </trkpt>
      <trkpt lat="48.792" lon="5.15506">
        <ele>234</ele>
        <time>2023-01-06T08:10:40.000Z</time>
      </trkpt>
      <trkpt lat="48.792" lon="5.15506">
        <ele>234</ele>
        <time>2023-01-06T08:10:41.000Z</time>
      </trkpt>
      <trkpt lat="48.792" lon="5.15506">
        <ele>233</ele>
        <time>2023-01-06T08:10:42.000Z</time>
      </trkpt>
      <trkpt lat="48.792" lon="5.15507">
        <ele>234</ele>
        <time>2023-01-06T08:10:43.000Z</time>
      </trkpt>
      <trkpt lat="48.792" lon="5.15507">
        <ele>234</ele>
        <time>2023-01-06T08:10:44.000Z</time>
      </trkpt>
      <trkpt lat="48.79199" lon="5.15507">
        <ele>234</ele>
        <time>2023-01-06T08:10:45.000Z</time>
      </trkpt>
      <trkpt lat="48.79199" lon="5.15508">
        <ele>234</ele>
        <time>2023-01-06T08:10:46.000Z</time>
      </trkpt>
      <trkpt lat="48.79198" lon="5.15508">
        <ele>234</ele>
        <time>2023-01-06T08:10:47.000Z</time>
      </trkpt>
      <trkpt lat="48.79198" lon="5.15508">
        <ele>234</ele>
        <time>2023-01-06T08:10:48.000Z</time>
      </trkpt>
      <trkpt lat="48.79197" lon="5.15509">
        <ele>234</ele>
        <time>2023-01-06T08:10:49.000Z</time>
      </trkpt>
      <trkpt lat="48.79196" lon="5.15509">
        <ele>234</ele>
        <time>2023-01-06T08:10:50.000Z</time>
      </trkpt>
      <trkpt lat="48.79196" lon="5.1551">
        <ele>234</ele>
        <time>2023-01-06T08:10:51.000Z</time>
      </trkpt>
      <trkpt lat="48.79195" lon="5.1551">
        <ele>234</ele>
        <time>2023-01-06T08:10:52.000Z</time>
      </trkpt>
      <trkpt lat="48.79194" lon="5.15511">
        <ele>234</ele>
        <time>2023-01-06T08:10:53.000Z</time>
      </trkpt>
      <trkpt lat="48.79193" lon="5.15512">
        <ele>234</ele>
        <time>2023-01-06T08:10:54.000Z</time>
      </trkpt>
      <trkpt lat="48.79193" lon="5.15513">
        <ele>234</ele>
        <time>2023-01-06T08:10:55.000Z</time>
      </trkpt>
      <trkpt lat="48.79192" lon="5.15514">
        <ele>234</ele>
        <time>2023-01-06T08:10:56.000Z</time>
      </trkpt>
      <trkpt lat="48.79191" lon="5.15515">
        <ele>234</ele>
        <time>2023-01-06T08:10:57.000Z</time>
      </trkpt>
      <trkpt lat="48.7919" lon="5.15516">
        <ele>234</ele>
        <time>2023-01-06T08:10:58.000Z</time>
      </trkpt>
      <trkpt lat="48.79189" lon="5.15518">
        <ele>234</ele>
        <time>2023-01-06T08:10:59.000Z</time>
      </trkpt>
      <trkpt lat="48.79188" lon="5.15519">
        <ele>234</ele>
        <time>2023-01-06T08:11:00.000Z</time>
      </trkpt>
      <trkpt lat="48.79186" lon="5.15521">
        <ele>234</ele>
        <time>2023-01-06T08:11:01.000Z</time>
      </trkpt>
      <trkpt lat="48.79185" lon="5.15523">
        <ele>234</ele>
        <time>2023-01-06T08:11:02.000Z</time>
      </trkpt>
      <trkpt lat="48.79184" lon="5.15525">
        <ele>234</ele>
        <time>2023-01-06T08:11:03.000Z</time>
      </trkpt>
      <trkpt lat="48.79182" lon="5.15527">
        <ele>234</ele>
        <time>2023-01-06T08:11:04.000Z</time>
      </trkpt>
      <trkpt lat="48.79181" lon="5.15528">
        <ele>234</ele>
        <time>2023-01-06T08:11:05.000Z</time>
      </trkpt>
      <trkpt lat="48.7918" lon="5.1553">
        <ele>234</ele>
        <time>2023-01-06T08:11:06.000Z</time>
      </trkpt>
      <trkpt lat="48.79179" lon="5.15532">
        <ele>234</ele>
        <time>2023-01-06T08:11:07.000Z</time>
      </trkpt>
      <trkpt lat="48.79178" lon="5.15533">
        <ele>234</ele>
        <time>2023-01-06T08:11:08.000Z</time>
      </trkpt>
      <trkpt lat="48.79177" lon="5.15534">
        <ele>234</ele>
        <time>2023-01-06T08:11:09.000Z</time>
      </trkpt>
      <trkpt lat="48.79176" lon="5.15536">
        <ele>234</ele>
        <time>2023-01-06T08:11:10.000Z</time>
      </trkpt>
      <trkpt lat="48.79175" lon="5.15537">
        <ele>234</ele>
        <time>2023-01-06T08:11:11.000Z</time>
      </trkpt>
      <trkpt lat="48.79174" lon="5.15538">
        <ele>234</ele>
        <time>2023-01-06T08:11:12.000Z</time>
      </trkpt>
      <trkpt lat="48.79173" lon="5.15539">
        <ele>234</ele>
        <time>2023-01-06T08:11:13.000Z</time>
      </trkpt>
      <trkpt lat="48.79172" lon="5.1554">
        <ele>234</ele>
        <time>2023-01-06T08:11:14.000Z</time>
      </trkpt>
      <trkpt lat="48.79171" lon="5.15542">
        <ele>234</ele>
        <time>2023-01-06T08:11:15.000Z</time>
      </trkpt>
      <trkpt lat="48.7917" lon="5.15543">
        <ele>234</ele>
        <time>2023-01-06T08:11:16.000Z</time>
      </trkpt>
      <trkpt lat="48.79169" lon="5.15544">
        <ele>234</ele>
        <time>2023-01-06T08:11:17.000Z</time>
      </trkpt>
      <trkpt lat="48.79168" lon="5.15545">
        <ele>234</ele>
        <time>2023-01-06T08:11:18.000Z</time>
      </trkpt>
      <trkpt lat="48.79167" lon="5.15546">
        <ele>234</ele>
        <time>2023-01-06T08:11:19.000Z</time>
      </trkpt>
      <trkpt lat="48.79166" lon="5.15547">
        <ele>234</ele>
        <time>2023-01-06T08:11:20.000Z</time>
      </trkpt>
      <trkpt lat="48.79164" lon="5.15549">
        <ele>234</ele>
        <time>2023-01-06T08:11:21.000Z</time>
      </trkpt>
      <trkpt lat="48.79163" lon="5.1555">
        <ele>234</ele>
        <time>2023-01-06T08:11:22.000Z</time>
      </trkpt>
      <trkpt lat="48.79162" lon="5.15551">
        <ele>234</ele>
        <time>2023-01-06T08:11:23.000Z</time>
      </trkpt>
      <trkpt lat="48.79161" lon="5.15552">
        <ele>234</ele>
        <time>2023-01-06T08:11:24.000Z</time>
      </trkpt>
      <trkpt lat="48.79159" lon="5.15554">
        <ele>234</ele>
        <time>2023-01-06T08:11:25.000Z</time>
      </trkpt>
      <trkpt lat="48.79158" lon="5.15555">
        <ele>234</ele>
        <time>2023-01-06T08:11:26.000Z</time>
      </trkpt>
      <trkpt lat="48.79157" lon="5.15556">
        <ele>234</ele>
        <time>2023-01-06T08:11:27.000Z</time>
      </trkpt>
      <trkpt lat="48.79155" lon="5.15558">
        <ele>234</ele>
        <time>2023-01-06T08:11:28.000Z</time>
      </trkpt>
      <trkpt lat="48.79154" lon="5.15559">
        <ele>234</ele>
        <time>2023-01-06T08:11:29.000Z</time>
      </trkpt>
      <trkpt lat="48.79153" lon="5.1556">
        <ele>234</ele>
        <time>2023-01-06T08:11:30.000Z</time>
      </trkpt>
      <trkpt lat="48.79152" lon="5.15561">
        <ele>234</ele>
        <time>2023-01-06T08:11:31.000Z</time>
      </trkpt>
      <trkpt lat="48.7915" lon="5.15562">
        <ele>234</ele>
        <time>2023-01-06T08:11:32.000Z</time>
      </trkpt>
      <trkpt lat="48.79149" lon="5.15564">
        <ele>234</ele>
        <time>2023-01-06T08:11:33.000Z</time>
      </trkpt>
      <trkpt lat="48.79148" lon="5.15565">
        <ele>234</ele>
        <time>2023-01-06T08:11:34.000Z</time>
      </trkpt>
      <trkpt lat="48.79146" lon="5.15565">
        <ele>234</ele>
        <time>2023-01-06T08:11:35.000Z</time>
      </trkpt>
      <trkpt lat="48.79145" lon="5.15566">
        <ele>234</ele>
        <time>2023-01-06T08:11:36.000Z</time>
      </trkpt>
      <trkpt lat="48.79144" lon="5.15567">
        <ele>234</ele>
        <time>2023-01-06T08:11:37.000Z</time>
      </trkpt>
      <trkpt lat="48.79144" lon="5.15567">
        <ele>234</ele>
        <time>2023-01-06T08:11:38.000Z</time>
      </trkpt>
      <trkpt lat="48.79143" lon="5.15568">
        <ele>234</ele>
        <time>2023-01-06T08:11:39.000Z</time>
      </trkpt>
      <trkpt lat="48.79142" lon="5.15569">
        <ele>234</ele>
        <time>2023-01-06T08:11:40.000Z</time>
      </trkpt>
      <trkpt lat="48.79141" lon="5.1557">
        <ele>234</ele>
        <time>2023-01-06T08:11:41.000Z</time>
      </trkpt>
      <trkpt lat="48.7914" lon="5.15571">
        <ele>234</ele>
        <time>2023-01-06T08:11:42.000Z</time>
      </trkpt>
      <trkpt lat="48.79139" lon="5.15572">
        <ele>234</ele>
        <time>2023-01-06T08:11:43.000Z</time>
      </trkpt>
      <trkpt lat="48.79137" lon="5.15573">
        <ele>234</ele>
        <time>2023-01-06T08:11:44.000Z</time>
      </trkpt>
      <trkpt lat="48.79136" lon="5.15574">
        <ele>234</ele>
        <time>2023-01-06T08:11:45.000Z</time>
      </trkpt>
      <trkpt lat="48.79134" lon="5.15575">
        <ele>234</ele>
        <time>2023-01-06T08:11:46.000Z</time>
      </trkpt>
      <trkpt lat="48.79133" lon="5.15576">
        <ele>234</ele>
        <time>2023-01-06T08:11:47.000Z</time>
      </trkpt>
      <trkpt lat="48.79131" lon="5.15577">
        <ele>234</ele>
        <time>2023-01-06T08:11:48.000Z</time>
      </trkpt>
      <trkpt lat="48.7913" lon="5.15579">
        <ele>234</ele>
        <time>2023-01-06T08:11:49.000Z</time>
      </trkpt>
      <trkpt lat="48.79129" lon="5.1558">
        <ele>234</ele>
        <time>2023-01-06T08:11:50.000Z</time>
      </trkpt>
      <trkpt lat="48.79127" lon="5.15581">
        <ele>234</ele>
        <time>2023-01-06T08:11:51.000Z</time>
      </trkpt>
      <trkpt lat="48.79126" lon="5.15583">
        <ele>234</ele>
        <time>2023-01-06T08:11:52.000Z</time>
      </trkpt>
      <trkpt lat="48.79125" lon="5.15585">
        <ele>234</ele>
        <time>2023-01-06T08:11:53.000Z</time>
      </trkpt>
      <trkpt lat="48.79125" lon="5.15586">
        <ele>234.5</ele>
        <time>2023-01-06T08:11:54.000Z</time>
      </trkpt>
      <trkpt lat="48.79124" lon="5.15588">
        <ele>235</ele>
        <time>2023-01-06T08:11:55.000Z</time>
      </trkpt>
      <trkpt lat="48.79123" lon="5.15589">
        <ele>235</ele>
        <time>2023-01-06T08:11:56.000Z</time>
      </trkpt>
      <trkpt lat="48.79122" lon="5.1559">
        <ele>235</ele>
        <time>2023-01-06T08:11:57.000Z</time>
      </trkpt>
      <trkpt lat="48.79122" lon="5.15592">
        <ele>235</ele>
        <time>2023-01-06T08:11:58.000Z</time>
      </trkpt>
      <trkpt lat="48.79121" lon="5.15593">
        <ele>235</ele>
        <time>2023-01-06T08:11:59.000Z</time>
      </trkpt>
      <trkpt lat="48.7912" lon="5.15595">
        <ele>235</ele>
        <time>2023-01-06T08:12:00.000Z</time>
      </trkpt>
      <trkpt lat="48.79119" lon="5.15596">
        <ele>235</ele>
        <time>2023-01-06T08:12:01.000Z</time>
      </trkpt>
      <trkpt lat="48.79119" lon="5.15598">
        <ele>235</ele>
        <time>2023-01-06T08:12:02.000Z</time>
      </trkpt>
      <trkpt lat="48.79118" lon="5.15599">
        <ele>235</ele>
        <time>2023-01-06T08:12:03.000Z</time>
      </trkpt>
      <trkpt lat="48.79118" lon="5.15601">
        <ele>235.5</ele>
        <time>2023-01-06T08:12:04.000Z</time>
      </trkpt>
      <trkpt lat="48.79117" lon="5.15602">
        <ele>236</ele>
        <time>2023-01-06T08:12:05.000Z</time>
      </trkpt>
      <trkpt lat="48.79117" lon="5.15604">
        <ele>236</ele>
        <time>2023-01-06T08:12:06.000Z</time>
      </trkpt>
      <trkpt lat="48.79117" lon="5.15605">
        <ele>236</ele>
        <time>2023-01-06T08:12:07.000Z</time>
      </trkpt>
      <trkpt lat="48.79116" lon="5.15606">
        <ele>236</ele>
        <time>2023-01-06T08:12:08.000Z</time>
      </trkpt>
      <trkpt lat="48.79116" lon="5.15607">
        <ele>236</ele>
        <time>2023-01-06T08:12:09.000Z</time>
      </trkpt>
      <trkpt lat="48.79116" lon="5.15608">
        <ele>236</ele>
        <time>2023-01-06T08:12:10.000Z</time>
      </trkpt>
      <trkpt lat="48.79115" lon="5.15608">
        <ele>236</ele>
        <time>2023-01-06T08:12:11.000Z</time>
      </trkpt>
      <trkpt lat="48.79115" lon="5.15609">
        <ele>236</ele>
        <time>2023-01-06T08:12:12.000Z</time>
      </trkpt>
      <trkpt lat="48.79115" lon="5.1561">
        <ele>236</ele>
        <time>2023-01-06T08:12:13.000Z</time>
      </trkpt>
      <trkpt lat="48.79114" lon="5.1561">
        <ele>236</ele>
        <time>2023-01-06T08:12:14.000Z</time>
      </trkpt>
      <trkpt lat="48.79114" lon="5.1561">
        <ele>236</ele>
        <time>2023-01-06T08:12:15.000Z</time>
      </trkpt>
      <trkpt lat="48.79114" lon="5.15611">
        <ele>236</ele>
        <time>2023-01-06T08:12:16.000Z</time>
      </trkpt>
      <trkpt lat="48.79114" lon="5.15611">
        <ele>236</ele>
        <time>2023-01-06T08:12:17.000Z</time>
      </trkpt>
      <trkpt lat="48.79114" lon="5.15611">
        <ele>236</ele>
        <time>2023-01-06T08:12:18.000Z</time>
      </trkpt>
      <trkpt lat="48.79113" lon="5.15611">
        <ele>236</ele>
        <time>2023-01-06T08:12:19.000Z</time>
      </trkpt>
      <trkpt lat="48.79113" lon="5.15611">
        <ele>236</ele>
        <time>2023-01-06T08:12:20.000Z</time>
      </trkpt>
      <trkpt lat="48.79113" lon="5.15611">
        <ele>236</ele>
        <time>2023-01-06T08:12:21.000Z</time>
      </trkpt>
      <trkpt lat="48.79113" lon="5.15611">
        <ele>236</ele>
        <time>2023-01-06T08:12:22.000Z</time>
      </trkpt>
      <trkpt lat="48.79113" lon="5.15611">
        <ele>236</ele>
        <time>2023-01-06T08:12:23.000Z</time>
      </trkpt>
      <trkpt lat="48.79113" lon="5.15611">
        <ele>236</ele>
        <time>2023-01-06T08:12:24.000Z</time>
      </trkpt>
      <trkpt lat="48.79113" lon="5.15611">
        <ele>236</ele>
        <time>2023-01-06T08:12:25.000Z</time>
      </trkpt>
      <trkpt lat="48.79113" lon="5.15612">
        <ele>236</ele>
        <time>2023-01-06T08:12:26.000Z</time>
      </trkpt>
      <trkpt lat="48.79112" lon="5.15612">
        <ele>236</ele>
        <time>2023-01-06T08:12:27.000Z</time>
      </trkpt>
      <trkpt lat="48.79112" lon="5.15613">
        <ele>236</ele>
        <time>2023-01-06T08:12:28.000Z</time>
      </trkpt>
      <trkpt lat="48.79112" lon="5.15614">
        <ele>236</ele>
        <time>2023-01-06T08:12:29.000Z</time>
      </trkpt>
      <trkpt lat="48.79111" lon="5.15615">
        <ele>236</ele>
        <time>2023-01-06T08:12:30.000Z</time>
      </trkpt>
      <trkpt lat="48.79111" lon="5.15615">
        <ele>236</ele>
        <time>2023-01-06T08:12:31.000Z</time>
      </trkpt>
      <trkpt lat="48.79111" lon="5.15616">
        <ele>236</ele>
        <time>2023-01-06T08:12:32.000Z</time>
      </trkpt>
      <trkpt lat="48.79111" lon="5.15617">
        <ele>236</ele>
        <time>2023-01-06T08:12:33.000Z</time>
      </trkpt>
      <trkpt lat="48.79111" lon="5.15617">
        <ele>236</ele>
        <time>2023-01-06T08:12:34.000Z</time>
      </trkpt>
      <trkpt lat="48.79111" lon="5.15618">
        <ele>236</ele>
        <time>2023-01-06T08:12:35.000Z</time>
      </trkpt>
      <trkpt lat="48.79111" lon="5.15618">
        <ele>236</ele>
        <time>2023-01-06T08:12:36.000Z</time>
      </trkpt>
      <trkpt lat="48.79111" lon="5.15618">
        <ele>236</ele>
        <time>2023-01-06T08:12:37.000Z</time>
      </trkpt>
      <trkpt lat="48.79111" lon="5.15618">
        <ele>236</ele>
        <time>2023-01-06T08:12:38.000Z</time>
      </trkpt>
      <trkpt lat="48.79111" lon="5.15619">
        <ele>236</ele>
        <time>2023-01-06T08:12:39.000Z</time>
      </trkpt>
      <trkpt lat="48.79111" lon="5.15619">
        <ele>236</ele>
        <time>2023-01-06T08:12:40.000Z</time>
      </trkpt>
      <trkpt lat="48.79111" lon="5.15619">
        <ele>236</ele>
        <time>2023-01-06T08:12:41.000Z</time>
      </trkpt>
      <trkpt lat="48.79111" lon="5.15619">
        <ele>236</ele>
        <time>2023-01-06T08:12:42.000Z</time>
      </trkpt>
      <trkpt lat="48.79111" lon="5.15619">
        <ele>236</ele>
        <time>2023-01-06T08:12:43.000Z</time>
      </trkpt>
      <trkpt lat="48.79111" lon="5.15619">
        <ele>236</ele>
        <time>2023-01-06T08:12:44.000Z</time>
      </trkpt>
      <trkpt lat="48.7911" lon="5.15619">
        <ele>236</ele>
        <time>2023-01-06T08:12:45.000Z</time>
      </trkpt>
      <trkpt lat="48.7911" lon="5.15619">
        <ele>236</ele>
        <time>2023-01-06T08:12:46.000Z</time>
      </trkpt>
      <trkpt lat="48.7911" lon="5.15619">
        <ele>236</ele>
        <time>2023-01-06T08:12:47.000Z</time>
      </trkpt>
      <trkpt lat="48.7911" lon="5.1562">
        <ele>236</ele>
        <time>2023-01-06T08:12:48.000Z</time>
      </trkpt>
      <trkpt lat="48.7911" lon="5.1562">
        <ele>236</ele>
        <time>2023-01-06T08:12:49.000Z</time>
      </trkpt>
      <trkpt lat="48.7911" lon="5.1562">
        <ele>236</ele>
        <time>2023-01-06T08:12:50.000Z</time>
      </trkpt>
      <trkpt lat="48.7911" lon="5.15621">
        <ele>236</ele>
        <time>2023-01-06T08:12:51.000Z</time>
      </trkpt>
      <trkpt lat="48.7911" lon="5.15621">
        <ele>236</ele>
        <time>2023-01-06T08:12:52.000Z</time>
      </trkpt>
      <trkpt lat="48.7911" lon="5.15621">
        <ele>236</ele>
        <time>2023-01-06T08:12:53.000Z</time>
      </trkpt>
      <trkpt lat="48.7911" lon="5.15621">
        <ele>236</ele>
        <time>2023-01-06T08:12:54.000Z</time>
      </trkpt>
      <trkpt lat="48.7911" lon="5.15621">
        <ele>236</ele>
        <time>2023-01-06T08:12:55.000Z</time>
      </trkpt>
      <trkpt lat="48.7911" lon="5.15621">
        <ele>236</ele>
        <time>2023-01-06T08:12:56.000Z</time>
      </trkpt>
      <trkpt lat="48.7911" lon="5.15621">
        <ele>236</ele>
        <time>2023-01-06T08:12:57.000Z</time>
      </trkpt>
      <trkpt lat="48.7911" lon="5.15621">
        <ele>236</ele>
        <time>2023-01-06T08:12:58.000Z</time>
      </trkpt>
      <trkpt lat="48.7911" lon="5.15621">
        <ele>236</ele>
        <time>2023-01-06T08:12:59.000Z</time>
      </trkpt>
      <trkpt lat="48.7911" lon="5.15621">
        <ele>236</ele>
        <time>2023-01-06T08:13:00.000Z</time>
      </trkpt>
      <trkpt lat="48.7911" lon="5.15621">
        <ele>236</ele>
        <time>2023-01-06T08:13:01.000Z</time>
      </trkpt>
      <trkpt lat="48.7911" lon="5.15621">
        <ele>235.5</ele>
        <time>2023-01-06T08:13:02.000Z</time>
      </trkpt>
      <trkpt lat="48.7911" lon="5.15621">
        <ele>235</ele>
        <time>2023-01-06T08:13:03.000Z</time>
      </trkpt>
      <trkpt lat="48.7911" lon="5.15621">
        <ele>235</ele>
        <time>2023-01-06T08:13:04.000Z</time>
      </trkpt>
      <trkpt lat="48.7911" lon="5.15621">
        <ele>235</ele>
        <time>2023-01-06T08:13:05.000Z</time>
      </trkpt>
      <trkpt lat="48.7911" lon="5.15621">
        <ele>235</ele>
        <time>2023-01-06T08:13:06.000Z</time>
      </trkpt>
      <trkpt lat="48.7911" lon="5.15622">
        <ele>235</ele>
        <time>2023-01-06T08:13:07.000Z</time>
      </trkpt>
      <trkpt lat="48.7911" lon="5.15622">
        <ele>235.5</ele>
        <time>2023-01-06T08:13:08.000Z</time>
      </trkpt>
      <trkpt lat="48.7911" lon="5.15623">
        <ele>236</ele>
        <time>2023-01-06T08:13:09.000Z</time>
      </trkpt>
      <trkpt lat="48.7911" lon="5.15625">
        <ele>236</ele>
        <time>2023-01-06T08:13:10.000Z</time>
      </trkpt>
      <trkpt lat="48.7911" lon="5.15627">
        <ele>236</ele>
        <time>2023-01-06T08:13:11.000Z</time>
      </trkpt>
      <trkpt lat="48.7911" lon="5.15629">
        <ele>236</ele>
        <time>2023-01-06T08:13:12.000Z</time>
      </trkpt>
      <trkpt lat="48.79109" lon="5.15631">
        <ele>236</ele>
        <time>2023-01-06T08:13:13.000Z</time>
      </trkpt>
      <trkpt lat="48.79109" lon="5.15632">
        <ele>236</ele>
        <time>2023-01-06T08:13:14.000Z</time>
      </trkpt>
      <trkpt lat="48.79108" lon="5.15634">
        <ele>236</ele>
        <time>2023-01-06T08:13:15.000Z</time>
      </trkpt>
      <trkpt lat="48.79108" lon="5.15635">
        <ele>236</ele>
        <time>2023-01-06T08:13:16.000Z</time>
      </trkpt>
      <trkpt lat="48.79107" lon="5.15637">
        <ele>236</ele>
        <time>2023-01-06T08:13:17.000Z</time>
      </trkpt>
      <trkpt lat="48.79106" lon="5.15638">
        <ele>236</ele>
        <time>2023-01-06T08:13:18.000Z</time>
      </trkpt>
      <trkpt lat="48.79106" lon="5.1564">
        <ele>236</ele>
        <time>2023-01-06T08:13:19.000Z</time>
      </trkpt>
      <trkpt lat="48.79105" lon="5.15641">
        <ele>236</ele>
        <time>2023-01-06T08:13:20.000Z</time>
      </trkpt>
      <trkpt lat="48.79104" lon="5.15643">
        <ele>236</ele>
        <time>2023-01-06T08:13:21.000Z</time>
      </trkpt>
      <trkpt lat="48.79104" lon="5.15644">
        <ele>236</ele>
        <time>2023-01-06T08:13:22.000Z</time>
      </trkpt>
      <trkpt lat="48.79103" lon="5.15646">
        <ele>236.3</ele>
        <time>2023-01-06T08:13:23.000Z</time>
      </trkpt>
      <trkpt lat="48.79103" lon="5.15647">
        <ele>236.7</ele>
        <time>2023-01-06T08:13:24.000Z</time>
      </trkpt>
      <trkpt lat="48.79102" lon="5.15649">
        <ele>237</ele>
        <time>2023-01-06T08:13:25.000Z</time>
      </trkpt>
      <trkpt lat="48.79101" lon="5.15651">
        <ele>237</ele>
        <time>2023-01-06T08:13:26.000Z</time>
      </trkpt>
      <trkpt lat="48.79101" lon="5.15652">
        <ele>237</ele>
        <time>2023-01-06T08:13:27.000Z</time>
      </trkpt>
      <trkpt lat="48.791" lon="5.15654">
        <ele>237</ele>
        <time>2023-01-06T08:13:28.000Z</time>
      </trkpt>
      <trkpt lat="48.791" lon="5.15656">
        <ele>237</ele>
        <time>2023-01-06T08:13:29.000Z</time>
      </trkpt>
      <trkpt lat="48.79099" lon="5.15658">
        <ele>237</ele>
        <time>2023-01-06T08:13:30.000Z</time>
      </trkpt>
      <trkpt lat="48.79099" lon="5.1566">
        <ele>237</ele>
        <time>2023-01-06T08:13:31.000Z</time>
      </trkpt>
      <trkpt lat="48.79098" lon="5.15662">
        <ele>237</ele>
        <time>2023-01-06T08:13:32.000Z</time>
      </trkpt>
      <trkpt lat="48.79097" lon="5.15665">
        <ele>237</ele>
        <time>2023-01-06T08:13:33.000Z</time>
      </trkpt>
      <trkpt lat="48.79097" lon="5.15667">
        <ele>237</ele>
        <time>2023-01-06T08:13:34.000Z</time>
      </trkpt>
      <trkpt lat="48.79096" lon="5.15669">
        <ele>237</ele>
        <time>2023-01-06T08:13:35.000Z</time>
      </trkpt>
      <trkpt lat="48.79096" lon="5.15671">
        <ele>237</ele>
        <time>2023-01-06T08:13:36.000Z</time>
      </trkpt>
      <trkpt lat="48.79096" lon="5.15673">
        <ele>237</ele>
        <time>2023-01-06T08:13:37.000Z</time>
      </trkpt>
      <trkpt lat="48.79095" lon="5.15676">
        <ele>237.5</ele>
        <time>2023-01-06T08:13:38.000Z</time>
      </trkpt>
      <trkpt lat="48.79095" lon="5.15678">
        <ele>238</ele>
        <time>2023-01-06T08:13:39.000Z</time>
      </trkpt>
      <trkpt lat="48.79094" lon="5.1568">
        <ele>238</ele>
        <time>2023-01-06T08:13:40.000Z</time>
      </trkpt>
      <trkpt lat="48.79094" lon="5.15683">
        <ele>238</ele>
        <time>2023-01-06T08:13:41.000Z</time>
      </trkpt>
      <trkpt lat="48.79094" lon="5.15685">
        <ele>238</ele>
        <time>2023-01-06T08:13:42.000Z</time>
      </trkpt>
      <trkpt lat="48.79093" lon="5.15687">
        <ele>238</ele>
        <time>2023-01-06T08:13:43.000Z</time>
      </trkpt>
      <trkpt lat="48.79093" lon="5.15689">
        <ele>238</ele>
        <time>2023-01-06T08:13:44.000Z</time>
      </trkpt>
      <trkpt lat="48.79092" lon="5.15691">
        <ele>238</ele>
        <time>2023-01-06T08:13:45.000Z</time>
      </trkpt>
      <trkpt lat="48.79091" lon="5.15693">
        <ele>238</ele>
        <time>2023-01-06T08:13:46.000Z</time>
      </trkpt>
      <trkpt lat="48.7909" lon="5.15695">
        <ele>238</ele>
        <time>2023-01-06T08:13:47.000Z</time>
      </trkpt>
      <trkpt lat="48.79089" lon="5.15697">
        <ele>238</ele>
        <time>2023-01-06T08:13:48.000Z</time>
      </trkpt>
      <trkpt lat="48.79088" lon="5.15699">
        <ele>238</ele>
        <time>2023-01-06T08:13:49.000Z</time>
      </trkpt>
      <trkpt lat="48.79087" lon="5.15702">
        <ele>238</ele>
        <time>2023-01-06T08:13:50.000Z</time>
      </trkpt>
      <trkpt lat="48.79087" lon="5.15704">
        <ele>238</ele>
        <time>2023-01-06T08:13:51.000Z</time>
      </trkpt>
      <trkpt lat="48.79086" lon="5.15706">
        <ele>238.5</ele>
        <time>2023-01-06T08:13:52.000Z</time>
      </trkpt>
      <trkpt lat="48.79085" lon="5.15709">
        <ele>239</ele>
        <time>2023-01-06T08:13:53.000Z</time>
      </trkpt>
      <trkpt lat="48.79085" lon="5.15712">
        <ele>239</ele>
        <time>2023-01-06T08:13:54.000Z</time>
      </trkpt>
      <trkpt lat="48.79084" lon="5.15714">
        <ele>239</ele>
        <time>2023-01-06T08:13:55.000Z</time>
      </trkpt>
      <trkpt lat="48.79084" lon="5.15716">
        <ele>239</ele>
        <time>2023-01-06T08:13:56.000Z</time>
      </trkpt>
      <trkpt lat="48.79083" lon="5.15719">
        <ele>239</ele>
        <time>2023-01-06T08:13:57.000Z</time>
      </trkpt>
      <trkpt lat="48.79083" lon="5.15721">
        <ele>239</ele>
        <time>2023-01-06T08:13:58.000Z</time>
      </trkpt>
      <trkpt lat="48.79082" lon="5.15723">
        <ele>239</ele>
        <time>2023-01-06T08:13:59.000Z</time>
      </trkpt>
      <trkpt lat="48.79082" lon="5.15725">
        <ele>239</ele>
        <time>2023-01-06T08:14:00.000Z</time>
      </trkpt>
      <trkpt lat="48.79081" lon="5.15728">
        <ele>239</ele>
        <time>2023-01-06T08:14:01.000Z</time>
      </trkpt>
      <trkpt lat="48.7908" lon="5.1573">
        <ele>239</ele>
        <time>2023-01-06T08:14:02.000Z</time>
      </trkpt>
      <trkpt lat="48.79079" lon="5.15732">
        <ele>239</ele>
        <time>2023-01-06T08:14:03.000Z</time>
      </trkpt>
      <trkpt lat="48.79078" lon="5.15734">
        <ele>239</ele>
        <time>2023-01-06T08:14:04.000Z</time>
      </trkpt>
      <trkpt lat="48.79077" lon="5.15736">
        <ele>239</ele>
        <time>2023-01-06T08:14:05.000Z</time>
      </trkpt>
      <trkpt lat="48.79076" lon="5.15738">
        <ele>239</ele>
        <time>2023-01-06T08:14:06.000Z</time>
      </trkpt>
      <trkpt lat="48.79075" lon="5.1574">
        <ele>239</ele>
        <time>2023-01-06T08:14:07.000Z</time>
      </trkpt>
      <trkpt lat="48.79074" lon="5.15742">
        <ele>239</ele>
        <time>2023-01-06T08:14:08.000Z</time>
      </trkpt>
      <trkpt lat="48.79072" lon="5.15743">
        <ele>239</ele>
        <time>2023-01-06T08:14:09.000Z</time>
      </trkpt>
      <trkpt lat="48.79071" lon="5.15745">
        <ele>239.5</ele>
        <time>2023-01-06T08:14:10.000Z</time>
      </trkpt>
      <trkpt lat="48.7907" lon="5.15746">
        <ele>240</ele>
        <time>2023-01-06T08:14:11.000Z</time>
      </trkpt>
      <trkpt lat="48.79069" lon="5.15748">
        <ele>240</ele>
        <time>2023-01-06T08:14:12.000Z</time>
      </trkpt>
      <trkpt lat="48.79068" lon="5.15749">
        <ele>240</ele>
        <time>2023-01-06T08:14:13.000Z</time>
      </trkpt>
      <trkpt lat="48.79067" lon="5.15751">
        <ele>240</ele>
        <time>2023-01-06T08:14:14.000Z</time>
      </trkpt>
      <trkpt lat="48.79066" lon="5.15753">
        <ele>240</ele>
        <time>2023-01-06T08:14:15.000Z</time>
      </trkpt>
      <trkpt lat="48.79065" lon="5.15754">
        <ele>240</ele>
        <time>2023-01-06T08:14:16.000Z</time>
      </trkpt>
      <trkpt lat="48.79064" lon="5.15756">
        <ele>240</ele>
        <time>2023-01-06T08:14:17.000Z</time>
      </trkpt>
      <trkpt lat="48.79064" lon="5.15757">
        <ele>240</ele>
        <time>2023-01-06T08:14:18.000Z</time>
      </trkpt>
      <trkpt lat="48.79063" lon="5.15759">
        <ele>240</ele>
        <time>2023-01-06T08:14:19.000Z</time>
      </trkpt>
      <trkpt lat="48.79062" lon="5.1576">
        <ele>240</ele>
        <time>2023-01-06T08:14:20.000Z</time>
      </trkpt>
      <trkpt lat="48.79062" lon="5.15761">
        <ele>240</ele>
        <time>2023-01-06T08:14:21.000Z</time>
      </trkpt>
      <trkpt lat="48.79061" lon="5.15761">
        <ele>240</ele>
        <time>2023-01-06T08:14:22.000Z</time>
      </trkpt>
      <trkpt lat="48.79061" lon="5.15762">
        <ele>240</ele>
        <time>2023-01-06T08:14:23.000Z</time>
      </trkpt>
      <trkpt lat="48.79061" lon="5.15763">
        <ele>240</ele>
        <time>2023-01-06T08:14:24.000Z</time>
      </trkpt>
      <trkpt lat="48.7906" lon="5.15764">
        <ele>240</ele>
        <time>2023-01-06T08:14:25.000Z</time>
      </trkpt>
      <trkpt lat="48.79058" lon="5.15766">
        <ele>240</ele>
        <time>2023-01-06T08:14:26.000Z</time>
      </trkpt>
      <trkpt lat="48.79056" lon="5.15766">
        <ele>240</ele>
        <time>2023-01-06T08:14:27.000Z</time>
      </trkpt>
      <trkpt lat="48.79055" lon="5.15767">
        <ele>240</ele>
        <time>2023-01-06T08:14:28.000Z</time>
      </trkpt>
      <trkpt lat="48.79054" lon="5.15768">
        <ele>240</ele>
        <time>2023-01-06T08:14:29.000Z</time>
      </trkpt>
      <trkpt lat="48.79053" lon="5.15769">
        <ele>240</ele>
        <time>2023-01-06T08:14:30.000Z</time>
      </trkpt>
      <trkpt lat="48.79052" lon="5.15769">
        <ele>240</ele>
        <time>2023-01-06T08:14:31.000Z</time>
      </trkpt>
      <trkpt lat="48.79051" lon="5.1577">
        <ele>240</ele>
        <time>2023-01-06T08:14:32.000Z</time>
      </trkpt>
      <trkpt lat="48.7905" lon="5.1577">
        <ele>240</ele>
        <time>2023-01-06T08:14:33.000Z</time>
      </trkpt>
      <trkpt lat="48.79049" lon="5.15771">
        <ele>240</ele>
        <time>2023-01-06T08:14:34.000Z</time>
      </trkpt>
      <trkpt lat="48.79048" lon="5.15771">
        <ele>240</ele>
        <time>2023-01-06T08:14:35.000Z</time>
      </trkpt>
      <trkpt lat="48.79047" lon="5.15772">
        <ele>240</ele>
        <time>2023-01-06T08:14:36.000Z</time>
      </trkpt>
      <trkpt lat="48.79046" lon="5.15772">
        <ele>240</ele>
        <time>2023-01-06T08:14:37.000Z</time>
      </trkpt>
      <trkpt lat="48.79045" lon="5.15773">
        <ele>240</ele>
        <time>2023-01-06T08:14:38.000Z</time>
      </trkpt>
      <trkpt lat="48.79044" lon="5.15773">
        <ele>240</ele>
        <time>2023-01-06T08:14:39.000Z</time>
      </trkpt>
      <trkpt lat="48.79043" lon="5.15774">
        <ele>240</ele>
        <time>2023-01-06T08:14:40.000Z</time>
      </trkpt>
      <trkpt lat="48.79042" lon="5.15775">
        <ele>240</ele>
        <time>2023-01-06T08:14:41.000Z</time>
      </trkpt>
      <trkpt lat="48.79041" lon="5.15776">
        <ele>240</ele>
        <time>2023-01-06T08:14:42.000Z</time>
      </trkpt>
      <trkpt lat="48.7904" lon="5.15776">
        <ele>240</ele>
        <time>2023-01-06T08:14:43.000Z</time>
      </trkpt>
      <trkpt lat="48.79039" lon="5.15777">
        <ele>240</ele>
        <time>2023-01-06T08:14:44.000Z</time>
      </trkpt>
      <trkpt lat="48.79037" lon="5.15778">
        <ele>240</ele>
        <time>2023-01-06T08:14:45.000Z</time>
      </trkpt>
      <trkpt lat="48.79036" lon="5.15779">
        <ele>240</ele>
        <time>2023-01-06T08:14:46.000Z</time>
      </trkpt>
      <trkpt lat="48.79035" lon="5.1578">
        <ele>240</ele>
        <time>2023-01-06T08:14:47.000Z</time>
      </trkpt>
      <trkpt lat="48.79033" lon="5.1578">
        <ele>240</ele>
        <time>2023-01-06T08:14:48.000Z</time>
      </trkpt>
      <trkpt lat="48.79032" lon="5.15781">
        <ele>240</ele>
        <time>2023-01-06T08:14:49.000Z</time>
      </trkpt>
      <trkpt lat="48.79031" lon="5.15781">
        <ele>240</ele>
        <time>2023-01-06T08:14:50.000Z</time>
      </trkpt>
      <trkpt lat="48.79029" lon="5.1578">
        <ele>240</ele>
        <time>2023-01-06T08:14:51.000Z</time>
      </trkpt>
      <trkpt lat="48.79028" lon="5.1578">
        <ele>240</ele>
        <time>2023-01-06T08:14:52.000Z</time>
      </trkpt>
      <trkpt lat="48.79026" lon="5.1578">
        <ele>240</ele>
        <time>2023-01-06T08:14:53.000Z</time>
      </trkpt>
      <trkpt lat="48.79025" lon="5.1578">
        <ele>240</ele>
        <time>2023-01-06T08:14:54.000Z</time>
      </trkpt>
      <trkpt lat="48.79023" lon="5.15779">
        <ele>240</ele>
        <time>2023-01-06T08:14:55.000Z</time>
      </trkpt>
      <trkpt lat="48.79022" lon="5.15779">
        <ele>240</ele>
        <time>2023-01-06T08:14:56.000Z</time>
      </trkpt>
      <trkpt lat="48.7902" lon="5.1578">
        <ele>240</ele>
        <time>2023-01-06T08:14:57.000Z</time>
      </trkpt>
      <trkpt lat="48.79019" lon="5.1578">
        <ele>240</ele>
        <time>2023-01-06T08:14:58.000Z</time>
      </trkpt>
      <trkpt lat="48.79018" lon="5.1578">
        <ele>240</ele>
        <time>2023-01-06T08:14:59.000Z</time>
      </trkpt>
      <trkpt lat="48.79017" lon="5.15779">
        <ele>240</ele>
        <time>2023-01-06T08:15:00.000Z</time>
      </trkpt>
      <trkpt lat="48.79015" lon="5.15779">
        <ele>240</ele>
        <time>2023-01-06T08:15:01.000Z</time>
      </trkpt>
      <trkpt lat="48.79012" lon="5.15779">
        <ele>240</ele>
        <time>2023-01-06T08:15:02.000Z</time>
      </trkpt>
      <trkpt lat="48.79009" lon="5.15779">
        <ele>240</ele>
        <time>2023-01-06T08:15:03.000Z</time>
      </trkpt>
      <trkpt lat="48.79008" lon="5.15778">
        <ele>240</ele>
        <time>2023-01-06T08:15:04.000Z</time>
      </trkpt>
      <trkpt lat="48.79007" lon="5.15778">
        <ele>240</ele>
        <time>2023-01-06T08:15:05.000Z</time>
      </trkpt>
      <trkpt lat="48.79006" lon="5.15778">
        <ele>240</ele>
        <time>2023-01-06T08:15:06.000Z</time>
      </trkpt>
      <trkpt lat="48.79005" lon="5.15777">
        <ele>240</ele>
        <time>2023-01-06T08:15:07.000Z</time>
      </trkpt>
      <trkpt lat="48.79004" lon="5.15776">
        <ele>240</ele>
        <time>2023-01-06T08:15:08.000Z</time>
      </trkpt>
      <trkpt lat="48.79003" lon="5.15776">
        <ele>240</ele>
        <time>2023-01-06T08:15:09.000Z</time>
      </trkpt>
      <trkpt lat="48.79001" lon="5.15775">
        <ele>240</ele>
        <time>2023-01-06T08:15:10.000Z</time>
      </trkpt>
      <trkpt lat="48.79" lon="5.15774">
        <ele>240</ele>
        <time>2023-01-06T08:15:11.000Z</time>
      </trkpt>
      <trkpt lat="48.78999" lon="5.15774">
        <ele>240</ele>
        <time>2023-01-06T08:15:12.000Z</time>
      </trkpt>
      <trkpt lat="48.78997" lon="5.15773">
        <ele>240</ele>
        <time>2023-01-06T08:15:13.000Z</time>
      </trkpt>
      <trkpt lat="48.78996" lon="5.15773">
        <ele>239</ele>
        <time>2023-01-06T08:15:14.000Z</time>
      </trkpt>
      <trkpt lat="48.78994" lon="5.15772">
        <ele>239</ele>
        <time>2023-01-06T08:15:15.000Z</time>
      </trkpt>
      <trkpt lat="48.78993" lon="5.15772">
        <ele>239</ele>
        <time>2023-01-06T08:15:16.000Z</time>
      </trkpt>
      <trkpt lat="48.78991" lon="5.15772">
        <ele>239</ele>
        <time>2023-01-06T08:15:17.000Z</time>
      </trkpt>
      <trkpt lat="48.7899" lon="5.15771">
        <ele>239</ele>
        <time>2023-01-06T08:15:18.000Z</time>
      </trkpt>
      <trkpt lat="48.78989" lon="5.15771">
        <ele>239</ele>
        <time>2023-01-06T08:15:19.000Z</time>
      </trkpt>
      <trkpt lat="48.78987" lon="5.15771">
        <ele>239</ele>
        <time>2023-01-06T08:15:20.000Z</time>
      </trkpt>
      <trkpt lat="48.78985" lon="5.15771">
        <ele>239</ele>
        <time>2023-01-06T08:15:21.000Z</time>
      </trkpt>
      <trkpt lat="48.78982" lon="5.15772">
        <ele>239</ele>
        <time>2023-01-06T08:15:22.000Z</time>
      </trkpt>
      <trkpt lat="48.78979" lon="5.15772">
        <ele>239</ele>
        <time>2023-01-06T08:15:23.000Z</time>
      </trkpt>
      <trkpt lat="48.78978" lon="5.15772">
        <ele>239</ele>
        <time>2023-01-06T08:15:24.000Z</time>
      </trkpt>
      <trkpt lat="48.78977" lon="5.15772">
        <ele>239</ele>
        <time>2023-01-06T08:15:25.000Z</time>
      </trkpt>
      <trkpt lat="48.78975" lon="5.15772">
        <ele>239</ele>
        <time>2023-01-06T08:15:26.000Z</time>
      </trkpt>
      <trkpt lat="48.78972" lon="5.15772">
        <ele>239</ele>
        <time>2023-01-06T08:15:27.000Z</time>
      </trkpt>
      <trkpt lat="48.78971" lon="5.15773">
        <ele>239</ele>
        <time>2023-01-06T08:15:28.000Z</time>
      </trkpt>
      <trkpt lat="48.78969" lon="5.15773">
        <ele>239.3</ele>
        <time>2023-01-06T08:15:29.000Z</time>
      </trkpt>
      <trkpt lat="48.78967" lon="5.15773">
        <ele>239.7</ele>
        <time>2023-01-06T08:15:30.000Z</time>
      </trkpt>
      <trkpt lat="48.78966" lon="5.15773">
        <ele>240</ele>
        <time>2023-01-06T08:15:31.000Z</time>
      </trkpt>
      <trkpt lat="48.78965" lon="5.15773">
        <ele>240</ele>
        <time>2023-01-06T08:15:32.000Z</time>
      </trkpt>
      <trkpt lat="48.78963" lon="5.15773">
        <ele>240</ele>
        <time>2023-01-06T08:15:33.000Z</time>
      </trkpt>
      <trkpt lat="48.78962" lon="5.15773">
        <ele>240</ele>
        <time>2023-01-06T08:15:34.000Z</time>
      </trkpt>
      <trkpt lat="48.78961" lon="5.15774">
        <ele>240</ele>
        <time>2023-01-06T08:15:35.000Z</time>
      </trkpt>
      <trkpt lat="48.78961" lon="5.15774">
        <ele>240</ele>
        <time>2023-01-06T08:15:36.000Z</time>
      </trkpt>
      <trkpt lat="48.7896" lon="5.15775">
        <ele>240</ele>
        <time>2023-01-06T08:15:37.000Z</time>
      </trkpt>
      <trkpt lat="48.78959" lon="5.15775">
        <ele>240</ele>
        <time>2023-01-06T08:15:38.000Z</time>
      </trkpt>
      <trkpt lat="48.78958" lon="5.15776">
        <ele>240</ele>
        <time>2023-01-06T08:15:39.000Z</time>
      </trkpt>
      <trkpt lat="48.78957" lon="5.15777">
        <ele>240</ele>
        <time>2023-01-06T08:15:40.000Z</time>
      </trkpt>
      <trkpt lat="48.78956" lon="5.15777">
        <ele>240</ele>
        <time>2023-01-06T08:15:41.000Z</time>
      </trkpt>
      <trkpt lat="48.78954" lon="5.15778">
        <ele>240</ele>
        <time>2023-01-06T08:15:42.000Z</time>
      </trkpt>
      <trkpt lat="48.78952" lon="5.15778">
        <ele>240</ele>
        <time>2023-01-06T08:15:43.000Z</time>
      </trkpt>
      <trkpt lat="48.7895" lon="5.15779">
        <ele>240</ele>
        <time>2023-01-06T08:15:44.000Z</time>
      </trkpt>
      <trkpt lat="48.78949" lon="5.15779">
        <ele>240</ele>
        <time>2023-01-06T08:15:45.000Z</time>
      </trkpt>
      <trkpt lat="48.78948" lon="5.15779">
        <ele>240</ele>
        <time>2023-01-06T08:15:46.000Z</time>
      </trkpt>
      <trkpt lat="48.78946" lon="5.15779">
        <ele>240</ele>
        <time>2023-01-06T08:15:47.000Z</time>
      </trkpt>
      <trkpt lat="48.78944" lon="5.1578">
        <ele>240</ele>
        <time>2023-01-06T08:15:48.000Z</time>
      </trkpt>
      <trkpt lat="48.78942" lon="5.15781">
        <ele>240</ele>
        <time>2023-01-06T08:15:49.000Z</time>
      </trkpt>
      <trkpt lat="48.78941" lon="5.15782">
        <ele>240</ele>
        <time>2023-01-06T08:15:50.000Z</time>
      </trkpt>
      <trkpt lat="48.78939" lon="5.15782">
        <ele>240</ele>
        <time>2023-01-06T08:15:51.000Z</time>
      </trkpt>
      <trkpt lat="48.78937" lon="5.15783">
        <ele>240</ele>
        <time>2023-01-06T08:15:52.000Z</time>
      </trkpt>
      <trkpt lat="48.78935" lon="5.15783">
        <ele>240</ele>
        <time>2023-01-06T08:15:53.000Z</time>
      </trkpt>
      <trkpt lat="48.78932" lon="5.15783">
        <ele>240</ele>
        <time>2023-01-06T08:15:54.000Z</time>
      </trkpt>
      <trkpt lat="48.78929" lon="5.15784">
        <ele>240</ele>
        <time>2023-01-06T08:15:55.000Z</time>
      </trkpt>
      <trkpt lat="48.78926" lon="5.15785">
        <ele>240</ele>
        <time>2023-01-06T08:15:56.000Z</time>
      </trkpt>
      <trkpt lat="48.78923" lon="5.15785">
        <ele>240</ele>
        <time>2023-01-06T08:15:57.000Z</time>
      </trkpt>
      <trkpt lat="48.7892" lon="5.15785">
        <ele>240</ele>
        <time>2023-01-06T08:15:58.000Z</time>
      </trkpt>
      <trkpt lat="48.78917" lon="5.15785">
        <ele>239</ele>
        <time>2023-01-06T08:15:59.000Z</time>
      </trkpt>
      <trkpt lat="48.78914" lon="5.15785">
        <ele>239</ele>
        <time>2023-01-06T08:16:00.000Z</time>
      </trkpt>
      <trkpt lat="48.78912" lon="5.15785">
        <ele>239</ele>
        <time>2023-01-06T08:16:01.000Z</time>
      </trkpt>
      <trkpt lat="48.78909" lon="5.15784">
        <ele>239</ele>
        <time>2023-01-06T08:16:02.000Z</time>
      </trkpt>
      <trkpt lat="48.78907" lon="5.15783">
        <ele>239</ele>
        <time>2023-01-06T08:16:03.000Z</time>
      </trkpt>
      <trkpt lat="48.78905" lon="5.15782">
        <ele>238</ele>
        <time>2023-01-06T08:16:04.000Z</time>
      </trkpt>
      <trkpt lat="48.78904" lon="5.1578">
        <ele>238</ele>
        <time>2023-01-06T08:16:05.000Z</time>
      </trkpt>
      <trkpt lat="48.78902" lon="5.15779">
        <ele>238</ele>
        <time>2023-01-06T08:16:06.000Z</time>
      </trkpt>
      <trkpt lat="48.78901" lon="5.15777">
        <ele>238</ele>
        <time>2023-01-06T08:16:07.000Z</time>
      </trkpt>
      <trkpt lat="48.789" lon="5.15776">
        <ele>238</ele>
        <time>2023-01-06T08:16:08.000Z</time>
      </trkpt>
      <trkpt lat="48.78899" lon="5.15774">
        <ele>238</ele>
        <time>2023-01-06T08:16:09.000Z</time>
      </trkpt>
      <trkpt lat="48.78897" lon="5.15773">
        <ele>237</ele>
        <time>2023-01-06T08:16:10.000Z</time>
      </trkpt>
      <trkpt lat="48.78896" lon="5.15771">
        <ele>237</ele>
        <time>2023-01-06T08:16:11.000Z</time>
      </trkpt>
      <trkpt lat="48.78895" lon="5.1577">
        <ele>237</ele>
        <time>2023-01-06T08:16:12.000Z</time>
      </trkpt>
      <trkpt lat="48.78894" lon="5.15768">
        <ele>237</ele>
        <time>2023-01-06T08:16:13.000Z</time>
      </trkpt>
      <trkpt lat="48.78893" lon="5.15767">
        <ele>237</ele>
        <time>2023-01-06T08:16:14.000Z</time>
      </trkpt>
      <trkpt lat="48.78892" lon="5.15765">
        <ele>237</ele>
        <time>2023-01-06T08:16:15.000Z</time>
      </trkpt>
      <trkpt lat="48.7889" lon="5.15764">
        <ele>236</ele>
        <time>2023-01-06T08:16:16.000Z</time>
      </trkpt>
      <trkpt lat="48.78889" lon="5.15762">
        <ele>236</ele>
        <time>2023-01-06T08:16:17.000Z</time>
      </trkpt>
      <trkpt lat="48.78888" lon="5.15761">
        <ele>236</ele>
        <time>2023-01-06T08:16:18.000Z</time>
      </trkpt>
      <trkpt lat="48.78887" lon="5.15759">
        <ele>236</ele>
        <time>2023-01-06T08:16:19.000Z</time>
      </trkpt>
      <trkpt lat="48.78886" lon="5.15758">
        <ele>236</ele>
        <time>2023-01-06T08:16:20.000Z</time>
      </trkpt>
      <trkpt lat="48.78885" lon="5.15756">
        <ele>236</ele>
        <time>2023-01-06T08:16:21.000Z</time>
      </trkpt>
      <trkpt lat="48.78884" lon="5.15754">
        <ele>236</ele>
        <time>2023-01-06T08:16:22.000Z</time>
      </trkpt>
      <trkpt lat="48.78883" lon="5.15752">
        <ele>235</ele>
        <time>2023-01-06T08:16:23.000Z</time>
      </trkpt>
      <trkpt lat="48.78882" lon="5.15751">
        <ele>235</ele>
        <time>2023-01-06T08:16:24.000Z</time>
      </trkpt>
      <trkpt lat="48.78881" lon="5.15749">
        <ele>235</ele>
        <time>2023-01-06T08:16:25.000Z</time>
      </trkpt>
      <trkpt lat="48.7888" lon="5.15747">
        <ele>235</ele>
        <time>2023-01-06T08:16:26.000Z</time>
      </trkpt>
      <trkpt lat="48.78879" lon="5.15746">
        <ele>235</ele>
        <time>2023-01-06T08:16:27.000Z</time>
      </trkpt>
      <trkpt lat="48.78878" lon="5.15745">
        <ele>235</ele>
        <time>2023-01-06T08:16:28.000Z</time>
      </trkpt>
      <trkpt lat="48.78877" lon="5.15744">
        <ele>234.7</ele>
        <time>2023-01-06T08:16:29.000Z</time>
      </trkpt>
      <trkpt lat="48.78876" lon="5.15743">
        <ele>234.3</ele>
        <time>2023-01-06T08:16:30.000Z</time>
      </trkpt>
      <trkpt lat="48.78875" lon="5.15743">
        <ele>234</ele>
        <time>2023-01-06T08:16:31.000Z</time>
      </trkpt>
      <trkpt lat="48.78875" lon="5.15743">
        <ele>234</ele>
        <time>2023-01-06T08:16:32.000Z</time>
      </trkpt>
      <trkpt lat="48.78874" lon="5.15743">
        <ele>234</ele>
        <time>2023-01-06T08:16:33.000Z</time>
      </trkpt>
      <trkpt lat="48.78873" lon="5.15743">
        <ele>234</ele>
        <time>2023-01-06T08:16:34.000Z</time>
      </trkpt>
      <trkpt lat="48.78872" lon="5.15743">
        <ele>234</ele>
        <time>2023-01-06T08:16:35.000Z</time>
      </trkpt>
      <trkpt lat="48.78872" lon="5.15743">
        <ele>234</ele>
        <time>2023-01-06T08:16:36.000Z</time>
      </trkpt>
      <trkpt lat="48.78871" lon="5.15744">
        <ele>234</ele>
        <time>2023-01-06T08:16:37.000Z</time>
      </trkpt>
      <trkpt lat="48.7887" lon="5.15745">
        <ele>234</ele>
        <time>2023-01-06T08:16:38.000Z</time>
      </trkpt>
      <trkpt lat="48.7887" lon="5.15746">
        <ele>234</ele>
        <time>2023-01-06T08:16:39.000Z</time>
      </trkpt>
      <trkpt lat="48.78869" lon="5.15747">
        <ele>234</ele>
        <time>2023-01-06T08:16:40.000Z</time>
      </trkpt>
      <trkpt lat="48.78869" lon="5.15749">
        <ele>234</ele>
        <time>2023-01-06T08:16:41.000Z</time>
      </trkpt>
      <trkpt lat="48.78868" lon="5.15751">
        <ele>234</ele>
        <time>2023-01-06T08:16:42.000Z</time>
      </trkpt>
      <trkpt lat="48.78868" lon="5.15753">
        <ele>234</ele>
        <time>2023-01-06T08:16:43.000Z</time>
      </trkpt>
      <trkpt lat="48.78867" lon="5.15754">
        <ele>234</ele>
        <time>2023-01-06T08:16:44.000Z</time>
      </trkpt>
      <trkpt lat="48.78867" lon="5.15756">
        <ele>234</ele>
        <time>2023-01-06T08:16:45.000Z</time>
      </trkpt>
      <trkpt lat="48.78866" lon="5.15757">
        <ele>234</ele>
        <time>2023-01-06T08:16:46.000Z</time>
      </trkpt>
      <trkpt lat="48.78865" lon="5.15759">
        <ele>234</ele>
        <time>2023-01-06T08:16:47.000Z</time>
      </trkpt>
      <trkpt lat="48.78865" lon="5.1576">
        <ele>234</ele>
        <time>2023-01-06T08:16:48.000Z</time>
      </trkpt>
      <trkpt lat="48.78865" lon="5.15762">
        <ele>234</ele>
        <time>2023-01-06T08:16:49.000Z</time>
      </trkpt>
      <trkpt lat="48.78865" lon="5.15763">
        <ele>234</ele>
        <time>2023-01-06T08:16:50.000Z</time>
      </trkpt>
      <trkpt lat="48.78865" lon="5.15764">
        <ele>234</ele>
        <time>2023-01-06T08:16:51.000Z</time>
      </trkpt>
      <trkpt lat="48.78865" lon="5.15766">
        <ele>234</ele>
        <time>2023-01-06T08:16:52.000Z</time>
      </trkpt>
      <trkpt lat="48.78864" lon="5.15768">
        <ele>234</ele>
        <time>2023-01-06T08:16:53.000Z</time>
      </trkpt>
      <trkpt lat="48.78864" lon="5.15769">
        <ele>234</ele>
        <time>2023-01-06T08:16:54.000Z</time>
      </trkpt>
      <trkpt lat="48.78863" lon="5.15771">
        <ele>234</ele>
        <time>2023-01-06T08:16:55.000Z</time>
      </trkpt>
      <trkpt lat="48.78862" lon="5.15773">
        <ele>234</ele>
        <time>2023-01-06T08:16:56.000Z</time>
      </trkpt>
      <trkpt lat="48.78861" lon="5.15775">
        <ele>234</ele>
        <time>2023-01-06T08:16:57.000Z</time>
      </trkpt>
      <trkpt lat="48.7886" lon="5.15777">
        <ele>234</ele>
        <time>2023-01-06T08:16:58.000Z</time>
      </trkpt>
      <trkpt lat="48.78859" lon="5.15779">
        <ele>234</ele>
        <time>2023-01-06T08:16:59.000Z</time>
      </trkpt>
      <trkpt lat="48.78858" lon="5.15781">
        <ele>234</ele>
        <time>2023-01-06T08:17:00.000Z</time>
      </trkpt>
      <trkpt lat="48.78858" lon="5.15782">
        <ele>234</ele>
        <time>2023-01-06T08:17:01.000Z</time>
      </trkpt>
      <trkpt lat="48.78857" lon="5.15784">
        <ele>234</ele>
        <time>2023-01-06T08:17:02.000Z</time>
      </trkpt>
      <trkpt lat="48.78856" lon="5.15785">
        <ele>234</ele>
        <time>2023-01-06T08:17:03.000Z</time>
      </trkpt>
      <trkpt lat="48.78855" lon="5.15786">
        <ele>234</ele>
        <time>2023-01-06T08:17:04.000Z</time>
      </trkpt>
      <trkpt lat="48.78855" lon="5.15788">
        <ele>234.3</ele>
        <time>2023-01-06T08:17:05.000Z</time>
      </trkpt>
      <trkpt lat="48.78854" lon="5.1579">
        <ele>234.7</ele>
        <time>2023-01-06T08:17:06.000Z</time>
      </trkpt>
      <trkpt lat="48.78853" lon="5.15791">
        <ele>235</ele>
        <time>2023-01-06T08:17:07.000Z</time>
      </trkpt>
      <trkpt lat="48.78853" lon="5.15793">
        <ele>235</ele>
        <time>2023-01-06T08:17:08.000Z</time>
      </trkpt>
      <trkpt lat="48.78853" lon="5.15795">
        <ele>235</ele>
        <time>2023-01-06T08:17:09.000Z</time>
      </trkpt>
      <trkpt lat="48.78853" lon="5.15797">
        <ele>235</ele>
        <time>2023-01-06T08:17:10.000Z</time>
      </trkpt>
      <trkpt lat="48.78852" lon="5.15799">
        <ele>235</ele>
        <time>2023-01-06T08:17:11.000Z</time>
      </trkpt>
      <trkpt lat="48.78852" lon="5.15801">
        <ele>235</ele>
        <time>2023-01-06T08:17:12.000Z</time>
      </trkpt>
      <trkpt lat="48.78852" lon="5.15803">
        <ele>235</ele>
        <time>2023-01-06T08:17:13.000Z</time>
      </trkpt>
      <trkpt lat="48.78852" lon="5.15805">
        <ele>235</ele>
        <time>2023-01-06T08:17:14.000Z</time>
      </trkpt>
      <trkpt lat="48.78852" lon="5.15807">
        <ele>235</ele>
        <time>2023-01-06T08:17:15.000Z</time>
      </trkpt>
      <trkpt lat="48.78851" lon="5.15809">
        <ele>235</ele>
        <time>2023-01-06T08:17:16.000Z</time>
      </trkpt>
      <trkpt lat="48.78851" lon="5.15811">
        <ele>235</ele>
        <time>2023-01-06T08:17:17.000Z</time>
      </trkpt>
      <trkpt lat="48.7885" lon="5.15812">
        <ele>235</ele>
        <time>2023-01-06T08:17:18.000Z</time>
      </trkpt>
      <trkpt lat="48.7885" lon="5.15814">
        <ele>235</ele>
        <time>2023-01-06T08:17:19.000Z</time>
      </trkpt>
      <trkpt lat="48.78849" lon="5.15815">
        <ele>235</ele>
        <time>2023-01-06T08:17:20.000Z</time>
      </trkpt>
      <trkpt lat="48.78849" lon="5.15817">
        <ele>235</ele>
        <time>2023-01-06T08:17:21.000Z</time>
      </trkpt>
      <trkpt lat="48.78849" lon="5.15818">
        <ele>235</ele>
        <time>2023-01-06T08:17:22.000Z</time>
      </trkpt>
      <trkpt lat="48.78848" lon="5.1582">
        <ele>235</ele>
        <time>2023-01-06T08:17:23.000Z</time>
      </trkpt>
      <trkpt lat="48.78848" lon="5.15822">
        <ele>235.5</ele>
        <time>2023-01-06T08:17:24.000Z</time>
      </trkpt>
      <trkpt lat="48.78848" lon="5.15824">
        <ele>236</ele>
        <time>2023-01-06T08:17:25.000Z</time>
      </trkpt>
      <trkpt lat="48.78848" lon="5.15826">
        <ele>236</ele>
        <time>2023-01-06T08:17:26.000Z</time>
      </trkpt>
      <trkpt lat="48.78848" lon="5.15828">
        <ele>236</ele>
        <time>2023-01-06T08:17:27.000Z</time>
      </trkpt>
      <trkpt lat="48.78848" lon="5.1583">
        <ele>236</ele>
        <time>2023-01-06T08:17:28.000Z</time>
      </trkpt>
      <trkpt lat="48.78848" lon="5.15832">
        <ele>236</ele>
        <time>2023-01-06T08:17:29.000Z</time>
      </trkpt>
      <trkpt lat="48.78848" lon="5.15835">
        <ele>236</ele>
        <time>2023-01-06T08:17:30.000Z</time>
      </trkpt>
      <trkpt lat="48.78848" lon="5.15837">
        <ele>236</ele>
        <time>2023-01-06T08:17:31.000Z</time>
      </trkpt>
      <trkpt lat="48.78848" lon="5.15839">
        <ele>236</ele>
        <time>2023-01-06T08:17:32.000Z</time>
      </trkpt>
      <trkpt lat="48.78848" lon="5.15841">
        <ele>236</ele>
        <time>2023-01-06T08:17:33.000Z</time>
      </trkpt>
      <trkpt lat="48.78849" lon="5.15843">
        <ele>236</ele>
        <time>2023-01-06T08:17:34.000Z</time>
      </trkpt>
      <trkpt lat="48.78849" lon="5.15845">
        <ele>236</ele>
        <time>2023-01-06T08:17:35.000Z</time>
      </trkpt>
      <trkpt lat="48.78849" lon="5.15847">
        <ele>236</ele>
        <time>2023-01-06T08:17:36.000Z</time>
      </trkpt>
      <trkpt lat="48.78849" lon="5.15849">
        <ele>236</ele>
        <time>2023-01-06T08:17:37.000Z</time>
      </trkpt>
      <trkpt lat="48.7885" lon="5.1585">
        <ele>236</ele>
        <time>2023-01-06T08:17:38.000Z</time>
      </trkpt>
      <trkpt lat="48.7885" lon="5.15852">
        <ele>236</ele>
        <time>2023-01-06T08:17:39.000Z</time>
      </trkpt>
      <trkpt lat="48.7885" lon="5.15853">
        <ele>236.5</ele>
        <time>2023-01-06T08:17:40.000Z</time>
      </trkpt>
      <trkpt lat="48.7885" lon="5.15855">
        <ele>237</ele>
        <time>2023-01-06T08:17:41.000Z</time>
      </trkpt>
      <trkpt lat="48.78851" lon="5.15857">
        <ele>237</ele>
        <time>2023-01-06T08:17:42.000Z</time>
      </trkpt>
      <trkpt lat="48.78851" lon="5.15859">
        <ele>237</ele>
        <time>2023-01-06T08:17:43.000Z</time>
      </trkpt>
      <trkpt lat="48.78851" lon="5.15861">
        <ele>237</ele>
        <time>2023-01-06T08:17:44.000Z</time>
      </trkpt>
      <trkpt lat="48.78851" lon="5.15863">
        <ele>237</ele>
        <time>2023-01-06T08:17:45.000Z</time>
      </trkpt>
      <trkpt lat="48.78852" lon="5.15865">
        <ele>237</ele>
        <time>2023-01-06T08:17:46.000Z</time>
      </trkpt>
      <trkpt lat="48.78852" lon="5.15867">
        <ele>237</ele>
        <time>2023-01-06T08:17:47.000Z</time>
      </trkpt>
      <trkpt lat="48.78853" lon="5.1587">
        <ele>237</ele>
        <time>2023-01-06T08:17:48.000Z</time>
      </trkpt>
      <trkpt lat="48.78853" lon="5.15872">
        <ele>237</ele>
        <time>2023-01-06T08:17:49.000Z</time>
      </trkpt>
      <trkpt lat="48.78854" lon="5.15875">
        <ele>237.5</ele>
        <time>2023-01-06T08:17:50.000Z</time>
      </trkpt>
      <trkpt lat="48.78855" lon="5.15877">
        <ele>238</ele>
        <time>2023-01-06T08:17:51.000Z</time>
      </trkpt>
      <trkpt lat="48.78855" lon="5.1588">
        <ele>238</ele>
        <time>2023-01-06T08:17:52.000Z</time>
      </trkpt>
      <trkpt lat="48.78856" lon="5.15883">
        <ele>238</ele>
        <time>2023-01-06T08:17:53.000Z</time>
      </trkpt>
      <trkpt lat="48.78857" lon="5.15885">
        <ele>238</ele>
        <time>2023-01-06T08:17:54.000Z</time>
      </trkpt>
      <trkpt lat="48.78858" lon="5.15888">
        <ele>238</ele>
        <time>2023-01-06T08:17:55.000Z</time>
      </trkpt>
      <trkpt lat="48.78859" lon="5.1589">
        <ele>238</ele>
        <time>2023-01-06T08:17:56.000Z</time>
      </trkpt>
      <trkpt lat="48.78859" lon="5.15892">
        <ele>238</ele>
        <time>2023-01-06T08:17:57.000Z</time>
      </trkpt>
      <trkpt lat="48.7886" lon="5.15895">
        <ele>238.5</ele>
        <time>2023-01-06T08:17:58.000Z</time>
      </trkpt>
      <trkpt lat="48.78861" lon="5.15897">
        <ele>239</ele>
        <time>2023-01-06T08:17:59.000Z</time>
      </trkpt>
      <trkpt lat="48.78861" lon="5.15899">
        <ele>239</ele>
        <time>2023-01-06T08:18:00.000Z</time>
      </trkpt>
      <trkpt lat="48.78862" lon="5.15901">
        <ele>239</ele>
        <time>2023-01-06T08:18:01.000Z</time>
      </trkpt>
      <trkpt lat="48.78862" lon="5.15902">
        <ele>239</ele>
        <time>2023-01-06T08:18:02.000Z</time>
      </trkpt>
      <trkpt lat="48.78863" lon="5.15905">
        <ele>239</ele>
        <time>2023-01-06T08:18:03.000Z</time>
      </trkpt>
      <trkpt lat="48.78864" lon="5.15907">
        <ele>239</ele>
        <time>2023-01-06T08:18:04.000Z</time>
      </trkpt>
      <trkpt lat="48.78865" lon="5.1591">
        <ele>239.3</ele>
        <time>2023-01-06T08:18:05.000Z</time>
      </trkpt>
      <trkpt lat="48.78866" lon="5.15912">
        <ele>239.7</ele>
        <time>2023-01-06T08:18:06.000Z</time>
      </trkpt>
      <trkpt lat="48.78866" lon="5.15913">
        <ele>240</ele>
        <time>2023-01-06T08:18:07.000Z</time>
      </trkpt>
      <trkpt lat="48.78867" lon="5.15914">
        <ele>240</ele>
        <time>2023-01-06T08:18:08.000Z</time>
      </trkpt>
      <trkpt lat="48.78868" lon="5.15915">
        <ele>240</ele>
        <time>2023-01-06T08:18:09.000Z</time>
      </trkpt>
      <trkpt lat="48.78868" lon="5.15916">
        <ele>240</ele>
        <time>2023-01-06T08:18:10.000Z</time>
      </trkpt>
      <trkpt lat="48.78869" lon="5.15917">
        <ele>240.3</ele>
        <time>2023-01-06T08:18:11.000Z</time>
      </trkpt>
      <trkpt lat="48.7887" lon="5.15918">
        <ele>240.7</ele>
        <time>2023-01-06T08:18:12.000Z</time>
      </trkpt>
      <trkpt lat="48.78871" lon="5.1592">
        <ele>241</ele>
        <time>2023-01-06T08:18:13.000Z</time>
      </trkpt>
      <trkpt lat="48.78871" lon="5.15921">
        <ele>241</ele>
        <time>2023-01-06T08:18:14.000Z</time>
      </trkpt>
      <trkpt lat="48.78872" lon="5.15922">
        <ele>241</ele>
        <time>2023-01-06T08:18:15.000Z</time>
      </trkpt>
      <trkpt lat="48.78873" lon="5.15923">
        <ele>241</ele>
        <time>2023-01-06T08:18:16.000Z</time>
      </trkpt>
      <trkpt lat="48.78874" lon="5.15924">
        <ele>241.3</ele>
        <time>2023-01-06T08:18:17.000Z</time>
      </trkpt>
      <trkpt lat="48.78875" lon="5.15925">
        <ele>241.7</ele>
        <time>2023-01-06T08:18:18.000Z</time>
      </trkpt>
      <trkpt lat="48.78876" lon="5.15926">
        <ele>242</ele>
        <time>2023-01-06T08:18:19.000Z</time>
      </trkpt>
      <trkpt lat="48.78876" lon="5.15927">
        <ele>242</ele>
        <time>2023-01-06T08:18:20.000Z</time>
      </trkpt>
      <trkpt lat="48.78877" lon="5.15929">
        <ele>242</ele>
        <time>2023-01-06T08:18:21.000Z</time>
      </trkpt>
      <trkpt lat="48.78878" lon="5.15931">
        <ele>242</ele>
        <time>2023-01-06T08:18:22.000Z</time>
      </trkpt>
      <trkpt lat="48.78879" lon="5.15933">
        <ele>242</ele>
        <time>2023-01-06T08:18:23.000Z</time>
      </trkpt>
      <trkpt lat="48.7888" lon="5.15934">
        <ele>242</ele>
        <time>2023-01-06T08:18:24.000Z</time>
      </trkpt>
      <trkpt lat="48.7888" lon="5.15936">
        <ele>242</ele>
        <time>2023-01-06T08:18:25.000Z</time>
      </trkpt>
      <trkpt lat="48.78881" lon="5.15937">
        <ele>242.5</ele>
        <time>2023-01-06T08:18:26.000Z</time>
      </trkpt>
      <trkpt lat="48.78882" lon="5.15939">
        <ele>243</ele>
        <time>2023-01-06T08:18:27.000Z</time>
      </trkpt>
      <trkpt lat="48.78883" lon="5.1594">
        <ele>243</ele>
        <time>2023-01-06T08:18:28.000Z</time>
      </trkpt>
      <trkpt lat="48.78884" lon="5.15942">
        <ele>243</ele>
        <time>2023-01-06T08:18:29.000Z</time>
      </trkpt>
      <trkpt lat="48.78885" lon="5.15943">
        <ele>243</ele>
        <time>2023-01-06T08:18:30.000Z</time>
      </trkpt>
      <trkpt lat="48.78885" lon="5.15944">
        <ele>243.3</ele>
        <time>2023-01-06T08:18:31.000Z</time>
      </trkpt>
      <trkpt lat="48.78885" lon="5.15945">
        <ele>243.7</ele>
        <time>2023-01-06T08:18:32.000Z</time>
      </trkpt>
      <trkpt lat="48.78886" lon="5.15947">
        <ele>244</ele>
        <time>2023-01-06T08:18:33.000Z</time>
      </trkpt>
      <trkpt lat="48.78887" lon="5.15948">
        <ele>244</ele>
        <time>2023-01-06T08:18:34.000Z</time>
      </trkpt>
      <trkpt lat="48.78888" lon="5.1595">
        <ele>244</ele>
        <time>2023-01-06T08:18:35.000Z</time>
      </trkpt>
      <trkpt lat="48.78889" lon="5.15952">
        <ele>245</ele>
        <time>2023-01-06T08:18:36.000Z</time>
      </trkpt>
      <trkpt lat="48.7889" lon="5.15953">
        <ele>245</ele>
        <time>2023-01-06T08:18:37.000Z</time>
      </trkpt>
      <trkpt lat="48.78891" lon="5.15954">
        <ele>245</ele>
        <time>2023-01-06T08:18:38.000Z</time>
      </trkpt>
      <trkpt lat="48.78892" lon="5.15955">
        <ele>245</ele>
        <time>2023-01-06T08:18:39.000Z</time>
      </trkpt>
      <trkpt lat="48.78893" lon="5.15956">
        <ele>245</ele>
        <time>2023-01-06T08:18:40.000Z</time>
      </trkpt>
      <trkpt lat="48.78893" lon="5.15956">
        <ele>245</ele>
        <time>2023-01-06T08:18:41.000Z</time>
      </trkpt>
      <trkpt lat="48.78894" lon="5.15957">
        <ele>245.5</ele>
        <time>2023-01-06T08:18:42.000Z</time>
      </trkpt>
      <trkpt lat="48.78895" lon="5.15958">
        <ele>246</ele>
        <time>2023-01-06T08:18:43.000Z</time>
      </trkpt>
      <trkpt lat="48.78896" lon="5.15959">
        <ele>246</ele>
        <time>2023-01-06T08:18:44.000Z</time>
      </trkpt>
      <trkpt lat="48.78897" lon="5.15961">
        <ele>246</ele>
        <time>2023-01-06T08:18:45.000Z</time>
      </trkpt>
      <trkpt lat="48.78898" lon="5.15962">
        <ele>246</ele>
        <time>2023-01-06T08:18:46.000Z</time>
      </trkpt>
      <trkpt lat="48.78899" lon="5.15964">
        <ele>246.3</ele>
        <time>2023-01-06T08:18:47.000Z</time>
      </trkpt>
      <trkpt lat="48.78899" lon="5.15965">
        <ele>246.7</ele>
        <time>2023-01-06T08:18:48.000Z</time>
      </trkpt>
      <trkpt lat="48.789" lon="5.15966">
        <ele>247</ele>
        <time>2023-01-06T08:18:49.000Z</time>
      </trkpt>
      <trkpt lat="48.789" lon="5.15967">
        <ele>247</ele>
        <time>2023-01-06T08:18:50.000Z</time>
      </trkpt>
      <trkpt lat="48.78901" lon="5.15968">
        <ele>247</ele>
        <time>2023-01-06T08:18:51.000Z</time>
      </trkpt>
      <trkpt lat="48.78902" lon="5.1597">
        <ele>247.5</ele>
        <time>2023-01-06T08:18:52.000Z</time>
      </trkpt>
      <trkpt lat="48.78903" lon="5.15972">
        <ele>248</ele>
        <time>2023-01-06T08:18:53.000Z</time>
      </trkpt>
      <trkpt lat="48.78903" lon="5.15974">
        <ele>248</ele>
        <time>2023-01-06T08:18:54.000Z</time>
      </trkpt>
      <trkpt lat="48.78904" lon="5.15976">
        <ele>248</ele>
        <time>2023-01-06T08:18:55.000Z</time>
      </trkpt>
      <trkpt lat="48.78904" lon="5.15978">
        <ele>248</ele>
        <time>2023-01-06T08:18:56.000Z</time>
      </trkpt>
      <trkpt lat="48.78905" lon="5.1598">
        <ele>248</ele>
        <time>2023-01-06T08:18:57.000Z</time>
      </trkpt>
      <trkpt lat="48.78906" lon="5.15981">
        <ele>248</ele>
        <time>2023-01-06T08:18:58.000Z</time>
      </trkpt>
      <trkpt lat="48.78907" lon="5.15983">
        <ele>248</ele>
        <time>2023-01-06T08:18:59.000Z</time>
      </trkpt>
      <trkpt lat="48.78908" lon="5.15985">
        <ele>248</ele>
        <time>2023-01-06T08:19:00.000Z</time>
      </trkpt>
      <trkpt lat="48.78909" lon="5.15986">
        <ele>248.3</ele>
        <time>2023-01-06T08:19:01.000Z</time>
      </trkpt>
      <trkpt lat="48.78909" lon="5.15988">
        <ele>248.7</ele>
        <time>2023-01-06T08:19:02.000Z</time>
      </trkpt>
      <trkpt lat="48.78911" lon="5.15989">
        <ele>249</ele>
        <time>2023-01-06T08:19:03.000Z</time>
      </trkpt>
      <trkpt lat="48.78912" lon="5.15991">
        <ele>249</ele>
        <time>2023-01-06T08:19:04.000Z</time>
      </trkpt>
      <trkpt lat="48.78913" lon="5.15992">
        <ele>249</ele>
        <time>2023-01-06T08:19:05.000Z</time>
      </trkpt>
      <trkpt lat="48.78914" lon="5.15994">
        <ele>249</ele>
        <time>2023-01-06T08:19:06.000Z</time>
      </trkpt>
      <trkpt lat="48.78915" lon="5.15995">
        <ele>249</ele>
        <time>2023-01-06T08:19:07.000Z</time>
      </trkpt>
      <trkpt lat="48.78916" lon="5.15996">
        <ele>249</ele>
        <time>2023-01-06T08:19:08.000Z</time>
      </trkpt>
      <trkpt lat="48.78917" lon="5.15998">
        <ele>249</ele>
        <time>2023-01-06T08:19:09.000Z</time>
      </trkpt>
      <trkpt lat="48.78917" lon="5.15999">
        <ele>249</ele>
        <time>2023-01-06T08:19:10.000Z</time>
      </trkpt>
      <trkpt lat="48.78918" lon="5.16">
        <ele>249</ele>
        <time>2023-01-06T08:19:11.000Z</time>
      </trkpt>
      <trkpt lat="48.78919" lon="5.16002">
        <ele>249.5</ele>
        <time>2023-01-06T08:19:12.000Z</time>
      </trkpt>
      <trkpt lat="48.7892" lon="5.16003">
        <ele>250</ele>
        <time>2023-01-06T08:19:13.000Z</time>
      </trkpt>
      <trkpt lat="48.78921" lon="5.16005">
        <ele>250</ele>
        <time>2023-01-06T08:19:14.000Z</time>
      </trkpt>
      <trkpt lat="48.78922" lon="5.16006">
        <ele>250</ele>
        <time>2023-01-06T08:19:15.000Z</time>
      </trkpt>
      <trkpt lat="48.78923" lon="5.16007">
        <ele>250</ele>
        <time>2023-01-06T08:19:16.000Z</time>
      </trkpt>
      <trkpt lat="48.78924" lon="5.16008">
        <ele>250</ele>
        <time>2023-01-06T08:19:17.000Z</time>
      </trkpt>
      <trkpt lat="48.78925" lon="5.16008">
        <ele>250</ele>
        <time>2023-01-06T08:19:18.000Z</time>
      </trkpt>
      <trkpt lat="48.78926" lon="5.16009">
        <ele>250</ele>
        <time>2023-01-06T08:19:19.000Z</time>
      </trkpt>
      <trkpt lat="48.78927" lon="5.1601">
        <ele>250</ele>
        <time>2023-01-06T08:19:20.000Z</time>
      </trkpt>
      <trkpt lat="48.78928" lon="5.1601">
        <ele>250.3</ele>
        <time>2023-01-06T08:19:21.000Z</time>
      </trkpt>
      <trkpt lat="48.78928" lon="5.16011">
        <ele>250.7</ele>
        <time>2023-01-06T08:19:22.000Z</time>
      </trkpt>
      <trkpt lat="48.78929" lon="5.16012">
        <ele>251</ele>
        <time>2023-01-06T08:19:23.000Z</time>
      </trkpt>
      <trkpt lat="48.7893" lon="5.16013">
        <ele>251</ele>
        <time>2023-01-06T08:19:24.000Z</time>
      </trkpt>
      <trkpt lat="48.78931" lon="5.16014">
        <ele>251</ele>
        <time>2023-01-06T08:19:25.000Z</time>
      </trkpt>
      <trkpt lat="48.78932" lon="5.16015">
        <ele>251</ele>
        <time>2023-01-06T08:19:26.000Z</time>
      </trkpt>
      <trkpt lat="48.78933" lon="5.16017">
        <ele>251</ele>
        <time>2023-01-06T08:19:27.000Z</time>
      </trkpt>
      <trkpt lat="48.78934" lon="5.16018">
        <ele>251</ele>
        <time>2023-01-06T08:19:28.000Z</time>
      </trkpt>
      <trkpt lat="48.78935" lon="5.1602">
        <ele>251</ele>
        <time>2023-01-06T08:19:29.000Z</time>
      </trkpt>
      <trkpt lat="48.78937" lon="5.16021">
        <ele>252</ele>
        <time>2023-01-06T08:19:30.000Z</time>
      </trkpt>
      <trkpt lat="48.78938" lon="5.16023">
        <ele>252</ele>
        <time>2023-01-06T08:19:31.000Z</time>
      </trkpt>
      <trkpt lat="48.78939" lon="5.16024">
        <ele>252</ele>
        <time>2023-01-06T08:19:32.000Z</time>
      </trkpt>
      <trkpt lat="48.7894" lon="5.16026">
        <ele>252</ele>
        <time>2023-01-06T08:19:33.000Z</time>
      </trkpt>
      <trkpt lat="48.78941" lon="5.16027">
        <ele>252</ele>
        <time>2023-01-06T08:19:34.000Z</time>
      </trkpt>
      <trkpt lat="48.78942" lon="5.16029">
        <ele>252</ele>
        <time>2023-01-06T08:19:35.000Z</time>
      </trkpt>
      <trkpt lat="48.78944" lon="5.16031">
        <ele>252</ele>
        <time>2023-01-06T08:19:36.000Z</time>
      </trkpt>
      <trkpt lat="48.78945" lon="5.16033">
        <ele>252</ele>
        <time>2023-01-06T08:19:37.000Z</time>
      </trkpt>
      <trkpt lat="48.78946" lon="5.16035">
        <ele>252</ele>
        <time>2023-01-06T08:19:38.000Z</time>
      </trkpt>
      <trkpt lat="48.78947" lon="5.16037">
        <ele>252.3</ele>
        <time>2023-01-06T08:19:39.000Z</time>
      </trkpt>
      <trkpt lat="48.78947" lon="5.16039">
        <ele>252.7</ele>
        <time>2023-01-06T08:19:40.000Z</time>
      </trkpt>
      <trkpt lat="48.78948" lon="5.1604">
        <ele>253</ele>
        <time>2023-01-06T08:19:41.000Z</time>
      </trkpt>
      <trkpt lat="48.78949" lon="5.16042">
        <ele>253</ele>
        <time>2023-01-06T08:19:42.000Z</time>
      </trkpt>
      <trkpt lat="48.7895" lon="5.16045">
        <ele>253</ele>
        <time>2023-01-06T08:19:43.000Z</time>
      </trkpt>
      <trkpt lat="48.78951" lon="5.16047">
        <ele>253</ele>
        <time>2023-01-06T08:19:44.000Z</time>
      </trkpt>
      <trkpt lat="48.78952" lon="5.16049">
        <ele>253</ele>
        <time>2023-01-06T08:19:45.000Z</time>
      </trkpt>
      <trkpt lat="48.78953" lon="5.1605">
        <ele>253</ele>
        <time>2023-01-06T08:19:46.000Z</time>
      </trkpt>
      <trkpt lat="48.78953" lon="5.16052">
        <ele>253</ele>
        <time>2023-01-06T08:19:47.000Z</time>
      </trkpt>
      <trkpt lat="48.78954" lon="5.16054">
        <ele>253.5</ele>
        <time>2023-01-06T08:19:48.000Z</time>
      </trkpt>
      <trkpt lat="48.78955" lon="5.16056">
        <ele>254</ele>
        <time>2023-01-06T08:19:49.000Z</time>
      </trkpt>
      <trkpt lat="48.78956" lon="5.16059">
        <ele>254</ele>
        <time>2023-01-06T08:19:50.000Z</time>
      </trkpt>
      <trkpt lat="48.78957" lon="5.16061">
        <ele>254</ele>
        <time>2023-01-06T08:19:51.000Z</time>
      </trkpt>
      <trkpt lat="48.78957" lon="5.16063">
        <ele>254</ele>
        <time>2023-01-06T08:19:52.000Z</time>
      </trkpt>
      <trkpt lat="48.78957" lon="5.16065">
        <ele>254</ele>
        <time>2023-01-06T08:19:53.000Z</time>
      </trkpt>
      <trkpt lat="48.78958" lon="5.16067">
        <ele>254</ele>
        <time>2023-01-06T08:19:54.000Z</time>
      </trkpt>
      <trkpt lat="48.78958" lon="5.16068">
        <ele>254</ele>
        <time>2023-01-06T08:19:55.000Z</time>
      </trkpt>
      <trkpt lat="48.78958" lon="5.1607">
        <ele>254</ele>
        <time>2023-01-06T08:19:56.000Z</time>
      </trkpt>
      <trkpt lat="48.78958" lon="5.16072">
        <ele>254</ele>
        <time>2023-01-06T08:19:57.000Z</time>
      </trkpt>
      <trkpt lat="48.78958" lon="5.16074">
        <ele>254</ele>
        <time>2023-01-06T08:19:58.000Z</time>
      </trkpt>
      <trkpt lat="48.78958" lon="5.16075">
        <ele>254</ele>
        <time>2023-01-06T08:19:59.000Z</time>
      </trkpt>
      <trkpt lat="48.78958" lon="5.16077">
        <ele>254</ele>
        <time>2023-01-06T08:20:00.000Z</time>
      </trkpt>
      <trkpt lat="48.78958" lon="5.16079">
        <ele>254</ele>
        <time>2023-01-06T08:20:01.000Z</time>
      </trkpt>
      <trkpt lat="48.78958" lon="5.16081">
        <ele>254.5</ele>
        <time>2023-01-06T08:20:02.000Z</time>
      </trkpt>
      <trkpt lat="48.78958" lon="5.16083">
        <ele>255</ele>
        <time>2023-01-06T08:20:03.000Z</time>
      </trkpt>
      <trkpt lat="48.78958" lon="5.16085">
        <ele>255</ele>
        <time>2023-01-06T08:20:04.000Z</time>
      </trkpt>
      <trkpt lat="48.78959" lon="5.16087">
        <ele>255</ele>
        <time>2023-01-06T08:20:05.000Z</time>
      </trkpt>
      <trkpt lat="48.78959" lon="5.16089">
        <ele>255</ele>
        <time>2023-01-06T08:20:06.000Z</time>
      </trkpt>
      <trkpt lat="48.78959" lon="5.16091">
        <ele>255</ele>
        <time>2023-01-06T08:20:07.000Z</time>
      </trkpt>
      <trkpt lat="48.7896" lon="5.16093">
        <ele>255</ele>
        <time>2023-01-06T08:20:08.000Z</time>
      </trkpt>
      <trkpt lat="48.7896" lon="5.16094">
        <ele>255</ele>
        <time>2023-01-06T08:20:09.000Z</time>
      </trkpt>
      <trkpt lat="48.78961" lon="5.16095">
        <ele>255</ele>
        <time>2023-01-06T08:20:10.000Z</time>
      </trkpt>
      <trkpt lat="48.78961" lon="5.16097">
        <ele>255</ele>
        <time>2023-01-06T08:20:11.000Z</time>
      </trkpt>
      <trkpt lat="48.78962" lon="5.16099">
        <ele>255</ele>
        <time>2023-01-06T08:20:12.000Z</time>
      </trkpt>
      <trkpt lat="48.78962" lon="5.16102">
        <ele>255</ele>
        <time>2023-01-06T08:20:13.000Z</time>
      </trkpt>
      <trkpt lat="48.78962" lon="5.16105">
        <ele>255</ele>
        <time>2023-01-06T08:20:14.000Z</time>
      </trkpt>
      <trkpt lat="48.78961" lon="5.16107">
        <ele>255</ele>
        <time>2023-01-06T08:20:15.000Z</time>
      </trkpt>
      <trkpt lat="48.78961" lon="5.16109">
        <ele>255</ele>
        <time>2023-01-06T08:20:16.000Z</time>
      </trkpt>
      <trkpt lat="48.7896" lon="5.16111">
        <ele>255</ele>
        <time>2023-01-06T08:20:17.000Z</time>
      </trkpt>
      <trkpt lat="48.7896" lon="5.16113">
        <ele>255</ele>
        <time>2023-01-06T08:20:18.000Z</time>
      </trkpt>
      <trkpt lat="48.7896" lon="5.16116">
        <ele>255</ele>
        <time>2023-01-06T08:20:19.000Z</time>
      </trkpt>
      <trkpt lat="48.7896" lon="5.16118">
        <ele>255</ele>
        <time>2023-01-06T08:20:20.000Z</time>
      </trkpt>
      <trkpt lat="48.7896" lon="5.1612">
        <ele>255</ele>
        <time>2023-01-06T08:20:21.000Z</time>
      </trkpt>
      <trkpt lat="48.7896" lon="5.16122">
        <ele>255</ele>
        <time>2023-01-06T08:20:22.000Z</time>
      </trkpt>
      <trkpt lat="48.7896" lon="5.16124">
        <ele>255</ele>
        <time>2023-01-06T08:20:23.000Z</time>
      </trkpt>
      <trkpt lat="48.7896" lon="5.16126">
        <ele>255</ele>
        <time>2023-01-06T08:20:24.000Z</time>
      </trkpt>
      <trkpt lat="48.7896" lon="5.16129">
        <ele>255</ele>
        <time>2023-01-06T08:20:25.000Z</time>
      </trkpt>
      <trkpt lat="48.7896" lon="5.16132">
        <ele>255</ele>
        <time>2023-01-06T08:20:26.000Z</time>
      </trkpt>
      <trkpt lat="48.78961" lon="5.16135">
        <ele>255</ele>
        <time>2023-01-06T08:20:27.000Z</time>
      </trkpt>
      <trkpt lat="48.78961" lon="5.16137">
        <ele>255</ele>
        <time>2023-01-06T08:20:28.000Z</time>
      </trkpt>
      <trkpt lat="48.78961" lon="5.16139">
        <ele>255</ele>
        <time>2023-01-06T08:20:29.000Z</time>
      </trkpt>
      <trkpt lat="48.78962" lon="5.16141">
        <ele>255</ele>
        <time>2023-01-06T08:20:30.000Z</time>
      </trkpt>
      <trkpt lat="48.78962" lon="5.16142">
        <ele>255</ele>
        <time>2023-01-06T08:20:31.000Z</time>
      </trkpt>
      <trkpt lat="48.78962" lon="5.16145">
        <ele>255</ele>
        <time>2023-01-06T08:20:32.000Z</time>
      </trkpt>
      <trkpt lat="48.78963" lon="5.16148">
        <ele>255</ele>
        <time>2023-01-06T08:20:33.000Z</time>
      </trkpt>
      <trkpt lat="48.78964" lon="5.16152">
        <ele>256</ele>
        <time>2023-01-06T08:20:34.000Z</time>
      </trkpt>
      <trkpt lat="48.78964" lon="5.16155">
        <ele>256</ele>
        <time>2023-01-06T08:20:35.000Z</time>
      </trkpt>
      <trkpt lat="48.78965" lon="5.16157">
        <ele>256</ele>
        <time>2023-01-06T08:20:36.000Z</time>
      </trkpt>
      <trkpt lat="48.78965" lon="5.1616">
        <ele>256</ele>
        <time>2023-01-06T08:20:37.000Z</time>
      </trkpt>
      <trkpt lat="48.78965" lon="5.16163">
        <ele>256</ele>
        <time>2023-01-06T08:20:38.000Z</time>
      </trkpt>
      <trkpt lat="48.78965" lon="5.16166">
        <ele>256</ele>
        <time>2023-01-06T08:20:39.000Z</time>
      </trkpt>
      <trkpt lat="48.78965" lon="5.16168">
        <ele>256</ele>
        <time>2023-01-06T08:20:40.000Z</time>
      </trkpt>
      <trkpt lat="48.78965" lon="5.1617">
        <ele>256</ele>
        <time>2023-01-06T08:20:41.000Z</time>
      </trkpt>
      <trkpt lat="48.78965" lon="5.16173">
        <ele>256</ele>
        <time>2023-01-06T08:20:42.000Z</time>
      </trkpt>
      <trkpt lat="48.78965" lon="5.16177">
        <ele>256</ele>
        <time>2023-01-06T08:20:43.000Z</time>
      </trkpt>
      <trkpt lat="48.78965" lon="5.1618">
        <ele>256</ele>
        <time>2023-01-06T08:20:44.000Z</time>
      </trkpt>
      <trkpt lat="48.78965" lon="5.16181">
        <ele>256</ele>
        <time>2023-01-06T08:20:45.000Z</time>
      </trkpt>
      <trkpt lat="48.78964" lon="5.16183">
        <ele>256</ele>
        <time>2023-01-06T08:20:46.000Z</time>
      </trkpt>
      <trkpt lat="48.78964" lon="5.16184">
        <ele>256</ele>
        <time>2023-01-06T08:20:47.000Z</time>
      </trkpt>
      <trkpt lat="48.78964" lon="5.16187">
        <ele>256</ele>
        <time>2023-01-06T08:20:48.000Z</time>
      </trkpt>
      <trkpt lat="48.78964" lon="5.16189">
        <ele>256</ele>
        <time>2023-01-06T08:20:49.000Z</time>
      </trkpt>
      <trkpt lat="48.78964" lon="5.16191">
        <ele>256.5</ele>
        <time>2023-01-06T08:20:50.000Z</time>
      </trkpt>
      <trkpt lat="48.78964" lon="5.16194">
        <ele>257</ele>
        <time>2023-01-06T08:20:51.000Z</time>
      </trkpt>
      <trkpt lat="48.78965" lon="5.16196">
        <ele>257</ele>
        <time>2023-01-06T08:20:52.000Z</time>
      </trkpt>
      <trkpt lat="48.78965" lon="5.16198">
        <ele>257</ele>
        <time>2023-01-06T08:20:53.000Z</time>
      </trkpt>
      <trkpt lat="48.78965" lon="5.162">
        <ele>257</ele>
        <time>2023-01-06T08:20:54.000Z</time>
      </trkpt>
      <trkpt lat="48.78966" lon="5.16202">
        <ele>257</ele>
        <time>2023-01-06T08:20:55.000Z</time>
      </trkpt>
      <trkpt lat="48.78966" lon="5.16204">
        <ele>257</ele>
        <time>2023-01-06T08:20:56.000Z</time>
      </trkpt>
      <trkpt lat="48.78966" lon="5.16206">
        <ele>257</ele>
        <time>2023-01-06T08:20:57.000Z</time>
      </trkpt>
      <trkpt lat="48.78967" lon="5.16208">
        <ele>257</ele>
        <time>2023-01-06T08:20:58.000Z</time>
      </trkpt>
      <trkpt lat="48.78967" lon="5.1621">
        <ele>257</ele>
        <time>2023-01-06T08:20:59.000Z</time>
      </trkpt>
      <trkpt lat="48.78967" lon="5.16211">
        <ele>257</ele>
        <time>2023-01-06T08:21:00.000Z</time>
      </trkpt>
      <trkpt lat="48.78967" lon="5.16213">
        <ele>257</ele>
        <time>2023-01-06T08:21:01.000Z</time>
      </trkpt>
      <trkpt lat="48.78967" lon="5.16215">
        <ele>257</ele>
        <time>2023-01-06T08:21:02.000Z</time>
      </trkpt>
      <trkpt lat="48.78967" lon="5.16217">
        <ele>257</ele>
        <time>2023-01-06T08:21:03.000Z</time>
      </trkpt>
      <trkpt lat="48.78967" lon="5.16219">
        <ele>257</ele>
        <time>2023-01-06T08:21:04.000Z</time>
      </trkpt>
      <trkpt lat="48.78968" lon="5.1622">
        <ele>257</ele>
        <time>2023-01-06T08:21:05.000Z</time>
      </trkpt>
      <trkpt lat="48.78968" lon="5.16222">
        <ele>258</ele>
        <time>2023-01-06T08:21:06.000Z</time>
      </trkpt>
      <trkpt lat="48.78968" lon="5.16224">
        <ele>258</ele>
        <time>2023-01-06T08:21:07.000Z</time>
      </trkpt>
      <trkpt lat="48.78968" lon="5.16226">
        <ele>258</ele>
        <time>2023-01-06T08:21:08.000Z</time>
      </trkpt>
      <trkpt lat="48.78968" lon="5.16228">
        <ele>258</ele>
        <time>2023-01-06T08:21:09.000Z</time>
      </trkpt>
      <trkpt lat="48.78969" lon="5.1623">
        <ele>258</ele>
        <time>2023-01-06T08:21:10.000Z</time>
      </trkpt>
      <trkpt lat="48.78969" lon="5.16233">
        <ele>258</ele>
        <time>2023-01-06T08:21:11.000Z</time>
      </trkpt>
      <trkpt lat="48.78969" lon="5.16235">
        <ele>258</ele>
        <time>2023-01-06T08:21:12.000Z</time>
      </trkpt>
      <trkpt lat="48.7897" lon="5.16237">
        <ele>258</ele>
        <time>2023-01-06T08:21:13.000Z</time>
      </trkpt>
      <trkpt lat="48.7897" lon="5.16239">
        <ele>258</ele>
        <time>2023-01-06T08:21:14.000Z</time>
      </trkpt>
      <trkpt lat="48.7897" lon="5.16241">
        <ele>258.5</ele>
        <time>2023-01-06T08:21:15.000Z</time>
      </trkpt>
      <trkpt lat="48.7897" lon="5.16243">
        <ele>259</ele>
        <time>2023-01-06T08:21:16.000Z</time>
      </trkpt>
      <trkpt lat="48.7897" lon="5.16245">
        <ele>259</ele>
        <time>2023-01-06T08:21:17.000Z</time>
      </trkpt>
      <trkpt lat="48.7897" lon="5.16247">
        <ele>259</ele>
        <time>2023-01-06T08:21:18.000Z</time>
      </trkpt>
      <trkpt lat="48.7897" lon="5.16249">
        <ele>259</ele>
        <time>2023-01-06T08:21:19.000Z</time>
      </trkpt>
      <trkpt lat="48.78971" lon="5.16251">
        <ele>259</ele>
        <time>2023-01-06T08:21:20.000Z</time>
      </trkpt>
      <trkpt lat="48.78972" lon="5.16253">
        <ele>259</ele>
        <time>2023-01-06T08:21:21.000Z</time>
      </trkpt>
      <trkpt lat="48.78972" lon="5.16255">
        <ele>259</ele>
        <time>2023-01-06T08:21:22.000Z</time>
      </trkpt>
      <trkpt lat="48.78973" lon="5.16258">
        <ele>259</ele>
        <time>2023-01-06T08:21:23.000Z</time>
      </trkpt>
      <trkpt lat="48.78974" lon="5.16259">
        <ele>259</ele>
        <time>2023-01-06T08:21:24.000Z</time>
      </trkpt>
      <trkpt lat="48.78974" lon="5.16261">
        <ele>259</ele>
        <time>2023-01-06T08:21:25.000Z</time>
      </trkpt>
      <trkpt lat="48.78975" lon="5.16262">
        <ele>259</ele>
        <time>2023-01-06T08:21:26.000Z</time>
      </trkpt>
      <trkpt lat="48.78975" lon="5.16264">
        <ele>259</ele>
        <time>2023-01-06T08:21:27.000Z</time>
      </trkpt>
      <trkpt lat="48.78976" lon="5.16266">
        <ele>259</ele>
        <time>2023-01-06T08:21:28.000Z</time>
      </trkpt>
      <trkpt lat="48.78976" lon="5.16268">
        <ele>259</ele>
        <time>2023-01-06T08:21:29.000Z</time>
      </trkpt>
      <trkpt lat="48.78976" lon="5.16271">
        <ele>259</ele>
        <time>2023-01-06T08:21:30.000Z</time>
      </trkpt>
      <trkpt lat="48.78976" lon="5.16273">
        <ele>259</ele>
        <time>2023-01-06T08:21:31.000Z</time>
      </trkpt>
      <trkpt lat="48.78975" lon="5.16275">
        <ele>259</ele>
        <time>2023-01-06T08:21:32.000Z</time>
      </trkpt>
      <trkpt lat="48.78975" lon="5.16277">
        <ele>259</ele>
        <time>2023-01-06T08:21:33.000Z</time>
      </trkpt>
      <trkpt lat="48.78975" lon="5.16279">
        <ele>259</ele>
        <time>2023-01-06T08:21:34.000Z</time>
      </trkpt>
      <trkpt lat="48.78975" lon="5.16281">
        <ele>259</ele>
        <time>2023-01-06T08:21:35.000Z</time>
      </trkpt>
      <trkpt lat="48.78975" lon="5.16283">
        <ele>259</ele>
        <time>2023-01-06T08:21:36.000Z</time>
      </trkpt>
      <trkpt lat="48.78975" lon="5.16284">
        <ele>259</ele>
        <time>2023-01-06T08:21:37.000Z</time>
      </trkpt>
      <trkpt lat="48.78975" lon="5.16286">
        <ele>259</ele>
        <time>2023-01-06T08:21:38.000Z</time>
      </trkpt>
      <trkpt lat="48.78976" lon="5.16288">
        <ele>259</ele>
        <time>2023-01-06T08:21:39.000Z</time>
      </trkpt>
      <trkpt lat="48.78976" lon="5.16291">
        <ele>259</ele>
        <time>2023-01-06T08:21:40.000Z</time>
      </trkpt>
      <trkpt lat="48.78977" lon="5.16293">
        <ele>259</ele>
        <time>2023-01-06T08:21:41.000Z</time>
      </trkpt>
      <trkpt lat="48.78978" lon="5.16295">
        <ele>259</ele>
        <time>2023-01-06T08:21:42.000Z</time>
      </trkpt>
      <trkpt lat="48.78979" lon="5.16297">
        <ele>259</ele>
        <time>2023-01-06T08:21:43.000Z</time>
      </trkpt>
      <trkpt lat="48.78979" lon="5.16299">
        <ele>259</ele>
        <time>2023-01-06T08:21:44.000Z</time>
      </trkpt>
      <trkpt lat="48.78979" lon="5.16301">
        <ele>259</ele>
        <time>2023-01-06T08:21:45.000Z</time>
      </trkpt>
      <trkpt lat="48.7898" lon="5.16303">
        <ele>259</ele>
        <time>2023-01-06T08:21:46.000Z</time>
      </trkpt>
      <trkpt lat="48.7898" lon="5.16305">
        <ele>259</ele>
        <time>2023-01-06T08:21:47.000Z</time>
      </trkpt>
      <trkpt lat="48.7898" lon="5.16307">
        <ele>259</ele>
        <time>2023-01-06T08:21:48.000Z</time>
      </trkpt>
      <trkpt lat="48.7898" lon="5.16309">
        <ele>259</ele>
        <time>2023-01-06T08:21:49.000Z</time>
      </trkpt>
      <trkpt lat="48.78981" lon="5.16311">
        <ele>259</ele>
        <time>2023-01-06T08:21:50.000Z</time>
      </trkpt>
      <trkpt lat="48.78981" lon="5.16314">
        <ele>259.3</ele>
        <time>2023-01-06T08:21:51.000Z</time>
      </trkpt>
      <trkpt lat="48.78981" lon="5.16316">
        <ele>259.7</ele>
        <time>2023-01-06T08:21:52.000Z</time>
      </trkpt>
      <trkpt lat="48.78982" lon="5.16318">
        <ele>260</ele>
        <time>2023-01-06T08:21:53.000Z</time>
      </trkpt>
      <trkpt lat="48.78982" lon="5.1632">
        <ele>260</ele>
        <time>2023-01-06T08:21:54.000Z</time>
      </trkpt>
      <trkpt lat="48.78983" lon="5.16322">
        <ele>260</ele>
        <time>2023-01-06T08:21:55.000Z</time>
      </trkpt>
      <trkpt lat="48.78983" lon="5.16325">
        <ele>260</ele>
        <time>2023-01-06T08:21:56.000Z</time>
      </trkpt>
      <trkpt lat="48.78984" lon="5.16328">
        <ele>260</ele>
        <time>2023-01-06T08:21:57.000Z</time>
      </trkpt>
      <trkpt lat="48.78984" lon="5.1633">
        <ele>260</ele>
        <time>2023-01-06T08:21:58.000Z</time>
      </trkpt>
      <trkpt lat="48.78985" lon="5.16333">
        <ele>260</ele>
        <time>2023-01-06T08:21:59.000Z</time>
      </trkpt>
      <trkpt lat="48.78986" lon="5.16337">
        <ele>260</ele>
        <time>2023-01-06T08:22:00.000Z</time>
      </trkpt>
      <trkpt lat="48.78987" lon="5.16341">
        <ele>260</ele>
        <time>2023-01-06T08:22:01.000Z</time>
      </trkpt>
      <trkpt lat="48.78988" lon="5.16344">
        <ele>260</ele>
        <time>2023-01-06T08:22:02.000Z</time>
      </trkpt>
      <trkpt lat="48.78989" lon="5.16346">
        <ele>260</ele>
        <time>2023-01-06T08:22:03.000Z</time>
      </trkpt>
      <trkpt lat="48.78989" lon="5.16348">
        <ele>260.5</ele>
        <time>2023-01-06T08:22:04.000Z</time>
      </trkpt>
      <trkpt lat="48.7899" lon="5.16349">
        <ele>261</ele>
        <time>2023-01-06T08:22:05.000Z</time>
      </trkpt>
      <trkpt lat="48.7899" lon="5.16352">
        <ele>261</ele>
        <time>2023-01-06T08:22:06.000Z</time>
      </trkpt>
      <trkpt lat="48.78991" lon="5.16354">
        <ele>261</ele>
        <time>2023-01-06T08:22:07.000Z</time>
      </trkpt>
      <trkpt lat="48.78991" lon="5.16356">
        <ele>261</ele>
        <time>2023-01-06T08:22:08.000Z</time>
      </trkpt>
      <trkpt lat="48.78992" lon="5.16358">
        <ele>261</ele>
        <time>2023-01-06T08:22:09.000Z</time>
      </trkpt>
      <trkpt lat="48.78993" lon="5.16361">
        <ele>261</ele>
        <time>2023-01-06T08:22:10.000Z</time>
      </trkpt>
      <trkpt lat="48.78994" lon="5.16363">
        <ele>261</ele>
        <time>2023-01-06T08:22:11.000Z</time>
      </trkpt>
      <trkpt lat="48.78996" lon="5.16365">
        <ele>261</ele>
        <time>2023-01-06T08:22:12.000Z</time>
      </trkpt>
      <trkpt lat="48.78997" lon="5.16367">
        <ele>261</ele>
        <time>2023-01-06T08:22:13.000Z</time>
      </trkpt>
      <trkpt lat="48.78999" lon="5.16368">
        <ele>261</ele>
        <time>2023-01-06T08:22:14.000Z</time>
      </trkpt>
      <trkpt lat="48.79" lon="5.16369">
        <ele>261</ele>
        <time>2023-01-06T08:22:15.000Z</time>
      </trkpt>
      <trkpt lat="48.79001" lon="5.1637">
        <ele>262</ele>
        <time>2023-01-06T08:22:16.000Z</time>
      </trkpt>
      <trkpt lat="48.79003" lon="5.16371">
        <ele>262</ele>
        <time>2023-01-06T08:22:17.000Z</time>
      </trkpt>
      <trkpt lat="48.79004" lon="5.16372">
        <ele>262</ele>
        <time>2023-01-06T08:22:18.000Z</time>
      </trkpt>
      <trkpt lat="48.79005" lon="5.16374">
        <ele>262</ele>
        <time>2023-01-06T08:22:19.000Z</time>
      </trkpt>
      <trkpt lat="48.79007" lon="5.16375">
        <ele>262</ele>
        <time>2023-01-06T08:22:20.000Z</time>
      </trkpt>
      <trkpt lat="48.79007" lon="5.16375">
        <ele>262</ele>
        <time>2023-01-06T08:22:21.000Z</time>
      </trkpt>
      <trkpt lat="48.79008" lon="5.16376">
        <ele>262</ele>
        <time>2023-01-06T08:22:22.000Z</time>
      </trkpt>
      <trkpt lat="48.79008" lon="5.16376">
        <ele>262</ele>
        <time>2023-01-06T08:22:23.000Z</time>
      </trkpt>
      <trkpt lat="48.79009" lon="5.16377">
        <ele>262</ele>
        <time>2023-01-06T08:22:24.000Z</time>
      </trkpt>
      <trkpt lat="48.7901" lon="5.16378">
        <ele>262</ele>
        <time>2023-01-06T08:22:25.000Z</time>
      </trkpt>
      <trkpt lat="48.7901" lon="5.16379">
        <ele>262.5</ele>
        <time>2023-01-06T08:22:26.000Z</time>
      </trkpt>
      <trkpt lat="48.79011" lon="5.1638">
        <ele>263</ele>
        <time>2023-01-06T08:22:27.000Z</time>
      </trkpt>
      <trkpt lat="48.79012" lon="5.16381">
        <ele>263</ele>
        <time>2023-01-06T08:22:28.000Z</time>
      </trkpt>
      <trkpt lat="48.79013" lon="5.16382">
        <ele>263</ele>
        <time>2023-01-06T08:22:29.000Z</time>
      </trkpt>
      <trkpt lat="48.79014" lon="5.16383">
        <ele>263</ele>
        <time>2023-01-06T08:22:30.000Z</time>
      </trkpt>
      <trkpt lat="48.79015" lon="5.16384">
        <ele>263</ele>
        <time>2023-01-06T08:22:31.000Z</time>
      </trkpt>
      <trkpt lat="48.79016" lon="5.16385">
        <ele>263</ele>
        <time>2023-01-06T08:22:32.000Z</time>
      </trkpt>
      <trkpt lat="48.79017" lon="5.16385">
        <ele>263</ele>
        <time>2023-01-06T08:22:33.000Z</time>
      </trkpt>
      <trkpt lat="48.79017" lon="5.16386">
        <ele>264</ele>
        <time>2023-01-06T08:22:34.000Z</time>
      </trkpt>
      <trkpt lat="48.79018" lon="5.16387">
        <ele>264</ele>
        <time>2023-01-06T08:22:35.000Z</time>
      </trkpt>
      <trkpt lat="48.79019" lon="5.16387">
        <ele>264</ele>
        <time>2023-01-06T08:22:36.000Z</time>
      </trkpt>
      <trkpt lat="48.79019" lon="5.16387">
        <ele>264</ele>
        <time>2023-01-06T08:22:37.000Z</time>
      </trkpt>
      <trkpt lat="48.7902" lon="5.16388">
        <ele>264</ele>
        <time>2023-01-06T08:22:38.000Z</time>
      </trkpt>
      <trkpt lat="48.79021" lon="5.16388">
        <ele>264</ele>
        <time>2023-01-06T08:22:39.000Z</time>
      </trkpt>
      <trkpt lat="48.79021" lon="5.16388">
        <ele>264</ele>
        <time>2023-01-06T08:22:40.000Z</time>
      </trkpt>
      <trkpt lat="48.79022" lon="5.16389">
        <ele>264</ele>
        <time>2023-01-06T08:22:41.000Z</time>
      </trkpt>
      <trkpt lat="48.79023" lon="5.16389">
        <ele>264</ele>
        <time>2023-01-06T08:22:42.000Z</time>
      </trkpt>
      <trkpt lat="48.79024" lon="5.1639">
        <ele>264</ele>
        <time>2023-01-06T08:22:43.000Z</time>
      </trkpt>
      <trkpt lat="48.79026" lon="5.1639">
        <ele>264.5</ele>
        <time>2023-01-06T08:22:44.000Z</time>
      </trkpt>
      <trkpt lat="48.79027" lon="5.1639">
        <ele>265</ele>
        <time>2023-01-06T08:22:45.000Z</time>
      </trkpt>
      <trkpt lat="48.79029" lon="5.16391">
        <ele>265</ele>
        <time>2023-01-06T08:22:46.000Z</time>
      </trkpt>
      <trkpt lat="48.7903" lon="5.16391">
        <ele>265</ele>
        <time>2023-01-06T08:22:47.000Z</time>
      </trkpt>
      <trkpt lat="48.79031" lon="5.16391">
        <ele>265</ele>
        <time>2023-01-06T08:22:48.000Z</time>
      </trkpt>
      <trkpt lat="48.79033" lon="5.16392">
        <ele>265</ele>
        <time>2023-01-06T08:22:49.000Z</time>
      </trkpt>
      <trkpt lat="48.79034" lon="5.16392">
        <ele>265</ele>
        <time>2023-01-06T08:22:50.000Z</time>
      </trkpt>
      <trkpt lat="48.79037" lon="5.16392">
        <ele>265</ele>
        <time>2023-01-06T08:22:51.000Z</time>
      </trkpt>
      <trkpt lat="48.79038" lon="5.16392">
        <ele>265</ele>
        <time>2023-01-06T08:22:52.000Z</time>
      </trkpt>
      <trkpt lat="48.7904" lon="5.16393">
        <ele>265</ele>
        <time>2023-01-06T08:22:53.000Z</time>
      </trkpt>
      <trkpt lat="48.79041" lon="5.16393">
        <ele>265</ele>
        <time>2023-01-06T08:22:54.000Z</time>
      </trkpt>
      <trkpt lat="48.79042" lon="5.16394">
        <ele>265</ele>
        <time>2023-01-06T08:22:55.000Z</time>
      </trkpt>
      <trkpt lat="48.79044" lon="5.16394">
        <ele>265</ele>
        <time>2023-01-06T08:22:56.000Z</time>
      </trkpt>
      <trkpt lat="48.79045" lon="5.16394">
        <ele>265</ele>
        <time>2023-01-06T08:22:57.000Z</time>
      </trkpt>
      <trkpt lat="48.79047" lon="5.16395">
        <ele>265</ele>
        <time>2023-01-06T08:22:58.000Z</time>
      </trkpt>
      <trkpt lat="48.79048" lon="5.16395">
        <ele>265</ele>
        <time>2023-01-06T08:22:59.000Z</time>
      </trkpt>
      <trkpt lat="48.79049" lon="5.16396">
        <ele>265</ele>
        <time>2023-01-06T08:23:00.000Z</time>
      </trkpt>
      <trkpt lat="48.7905" lon="5.16396">
        <ele>265</ele>
        <time>2023-01-06T08:23:01.000Z</time>
      </trkpt>
      <trkpt lat="48.79051" lon="5.16396">
        <ele>265</ele>
        <time>2023-01-06T08:23:02.000Z</time>
      </trkpt>
      <trkpt lat="48.79052" lon="5.16397">
        <ele>265</ele>
        <time>2023-01-06T08:23:03.000Z</time>
      </trkpt>
      <trkpt lat="48.79054" lon="5.16398">
        <ele>265</ele>
        <time>2023-01-06T08:23:04.000Z</time>
      </trkpt>
      <trkpt lat="48.79056" lon="5.16399">
        <ele>265</ele>
        <time>2023-01-06T08:23:05.000Z</time>
      </trkpt>
      <trkpt lat="48.79057" lon="5.16399">
        <ele>265</ele>
        <time>2023-01-06T08:23:06.000Z</time>
      </trkpt>
      <trkpt lat="48.79058" lon="5.164">
        <ele>265</ele>
        <time>2023-01-06T08:23:07.000Z</time>
      </trkpt>
      <trkpt lat="48.79059" lon="5.164">
        <ele>265</ele>
        <time>2023-01-06T08:23:08.000Z</time>
      </trkpt>
      <trkpt lat="48.7906" lon="5.16401">
        <ele>265</ele>
        <time>2023-01-06T08:23:09.000Z</time>
      </trkpt>
      <trkpt lat="48.79061" lon="5.16402">
        <ele>265</ele>
        <time>2023-01-06T08:23:10.000Z</time>
      </trkpt>
      <trkpt lat="48.79062" lon="5.16403">
        <ele>265</ele>
        <time>2023-01-06T08:23:11.000Z</time>
      </trkpt>
      <trkpt lat="48.79063" lon="5.16405">
        <ele>265</ele>
        <time>2023-01-06T08:23:12.000Z</time>
      </trkpt>
      <trkpt lat="48.79064" lon="5.16406">
        <ele>265</ele>
        <time>2023-01-06T08:23:13.000Z</time>
      </trkpt>
      <trkpt lat="48.79065" lon="5.16408">
        <ele>265</ele>
        <time>2023-01-06T08:23:14.000Z</time>
      </trkpt>
      <trkpt lat="48.79066" lon="5.1641">
        <ele>265</ele>
        <time>2023-01-06T08:23:15.000Z</time>
      </trkpt>
      <trkpt lat="48.79067" lon="5.16412">
        <ele>265</ele>
        <time>2023-01-06T08:23:16.000Z</time>
      </trkpt>
      <trkpt lat="48.79068" lon="5.16415">
        <ele>265</ele>
        <time>2023-01-06T08:23:17.000Z</time>
      </trkpt>
      <trkpt lat="48.79069" lon="5.16417">
        <ele>265</ele>
        <time>2023-01-06T08:23:18.000Z</time>
      </trkpt>
      <trkpt lat="48.7907" lon="5.16419">
        <ele>265</ele>
        <time>2023-01-06T08:23:19.000Z</time>
      </trkpt>
      <trkpt lat="48.79071" lon="5.16422">
        <ele>265</ele>
        <time>2023-01-06T08:23:20.000Z</time>
      </trkpt>
      <trkpt lat="48.79072" lon="5.16425">
        <ele>265</ele>
        <time>2023-01-06T08:23:21.000Z</time>
      </trkpt>
      <trkpt lat="48.79073" lon="5.16427">
        <ele>265</ele>
        <time>2023-01-06T08:23:22.000Z</time>
      </trkpt>
      <trkpt lat="48.79074" lon="5.1643">
        <ele>265</ele>
        <time>2023-01-06T08:23:23.000Z</time>
      </trkpt>
      <trkpt lat="48.79075" lon="5.16433">
        <ele>265</ele>
        <time>2023-01-06T08:23:24.000Z</time>
      </trkpt>
      <trkpt lat="48.79076" lon="5.16435">
        <ele>265</ele>
        <time>2023-01-06T08:23:25.000Z</time>
      </trkpt>
      <trkpt lat="48.79075" lon="5.16436">
        <ele>265</ele>
        <time>2023-01-06T08:23:26.000Z</time>
      </trkpt>
      <trkpt lat="48.79075" lon="5.16436">
        <ele>265.3</ele>
        <time>2023-01-06T08:23:27.000Z</time>
      </trkpt>
      <trkpt lat="48.79075" lon="5.16437">
        <ele>265.7</ele>
        <time>2023-01-06T08:23:28.000Z</time>
      </trkpt>
      <trkpt lat="48.79075" lon="5.16437">
        <ele>266</ele>
        <time>2023-01-06T08:23:29.000Z</time>
      </trkpt>
      <trkpt lat="48.79075" lon="5.16437">
        <ele>266</ele>
        <time>2023-01-06T08:23:30.000Z</time>
      </trkpt>
      <trkpt lat="48.79075" lon="5.16437">
        <ele>266</ele>
        <time>2023-01-06T08:23:31.000Z</time>
      </trkpt>
      <trkpt lat="48.79075" lon="5.16437">
        <ele>265.5</ele>
        <time>2023-01-06T08:23:32.000Z</time>
      </trkpt>
      <trkpt lat="48.79075" lon="5.16437">
        <ele>265</ele>
        <time>2023-01-06T08:23:33.000Z</time>
      </trkpt>
      <trkpt lat="48.79075" lon="5.16437">
        <ele>265</ele>
        <time>2023-01-06T08:23:34.000Z</time>
      </trkpt>
      <trkpt lat="48.79076" lon="5.16438">
        <ele>265</ele>
        <time>2023-01-06T08:23:35.000Z</time>
      </trkpt>
      <trkpt lat="48.79076" lon="5.16438">
        <ele>265</ele>
        <time>2023-01-06T08:23:36.000Z</time>
      </trkpt>
      <trkpt lat="48.79076" lon="5.16439">
        <ele>265.3</ele>
        <time>2023-01-06T08:23:37.000Z</time>
      </trkpt>
      <trkpt lat="48.79076" lon="5.16439">
        <ele>265.7</ele>
        <time>2023-01-06T08:23:38.000Z</time>
      </trkpt>
      <trkpt lat="48.79076" lon="5.16439">
        <ele>266</ele>
        <time>2023-01-06T08:23:39.000Z</time>
      </trkpt>
      <trkpt lat="48.79077" lon="5.16439">
        <ele>266</ele>
        <time>2023-01-06T08:23:40.000Z</time>
      </trkpt>
      <trkpt lat="48.79077" lon="5.16439">
        <ele>266</ele>
        <time>2023-01-06T08:23:41.000Z</time>
      </trkpt>
      <trkpt lat="48.79078" lon="5.1644">
        <ele>265</ele>
        <time>2023-01-06T08:23:42.000Z</time>
      </trkpt>
      <trkpt lat="48.79079" lon="5.1644">
        <ele>265</ele>
        <time>2023-01-06T08:23:43.000Z</time>
      </trkpt>
      <trkpt lat="48.7908" lon="5.16441">
        <ele>265</ele>
        <time>2023-01-06T08:23:44.000Z</time>
      </trkpt>
      <trkpt lat="48.7908" lon="5.16443">
        <ele>265</ele>
        <time>2023-01-06T08:23:45.000Z</time>
      </trkpt>
      <trkpt lat="48.79081" lon="5.16444">
        <ele>265</ele>
        <time>2023-01-06T08:23:46.000Z</time>
      </trkpt>
      <trkpt lat="48.79081" lon="5.16446">
        <ele>265</ele>
        <time>2023-01-06T08:23:47.000Z</time>
      </trkpt>
      <trkpt lat="48.79081" lon="5.16448">
        <ele>266</ele>
        <time>2023-01-06T08:23:48.000Z</time>
      </trkpt>
      <trkpt lat="48.79081" lon="5.1645">
        <ele>266</ele>
        <time>2023-01-06T08:23:49.000Z</time>
      </trkpt>
      <trkpt lat="48.79081" lon="5.16452">
        <ele>266</ele>
        <time>2023-01-06T08:23:50.000Z</time>
      </trkpt>
      <trkpt lat="48.79081" lon="5.16455">
        <ele>266</ele>
        <time>2023-01-06T08:23:51.000Z</time>
      </trkpt>
      <trkpt lat="48.7908" lon="5.16456">
        <ele>266</ele>
        <time>2023-01-06T08:23:52.000Z</time>
      </trkpt>
      <trkpt lat="48.7908" lon="5.16458">
        <ele>266</ele>
        <time>2023-01-06T08:23:53.000Z</time>
      </trkpt>
      <trkpt lat="48.7908" lon="5.1646">
        <ele>266</ele>
        <time>2023-01-06T08:23:54.000Z</time>
      </trkpt>
      <trkpt lat="48.79079" lon="5.16462">
        <ele>266</ele>
        <time>2023-01-06T08:23:55.000Z</time>
      </trkpt>
      <trkpt lat="48.79079" lon="5.16463">
        <ele>266</ele>
        <time>2023-01-06T08:23:56.000Z</time>
      </trkpt>
      <trkpt lat="48.79079" lon="5.16464">
        <ele>266</ele>
        <time>2023-01-06T08:23:57.000Z</time>
      </trkpt>
      <trkpt lat="48.79079" lon="5.16465">
        <ele>266</ele>
        <time>2023-01-06T08:23:58.000Z</time>
      </trkpt>
      <trkpt lat="48.79079" lon="5.16467">
        <ele>266</ele>
        <time>2023-01-06T08:23:59.000Z</time>
      </trkpt>
      <trkpt lat="48.79078" lon="5.16469">
        <ele>266</ele>
        <time>2023-01-06T08:24:00.000Z</time>
      </trkpt>
      <trkpt lat="48.79078" lon="5.16472">
        <ele>266</ele>
        <time>2023-01-06T08:24:01.000Z</time>
      </trkpt>
      <trkpt lat="48.79079" lon="5.16474">
        <ele>267</ele>
        <time>2023-01-06T08:24:02.000Z</time>
      </trkpt>
      <trkpt lat="48.79079" lon="5.16476">
        <ele>266.7</ele>
        <time>2023-01-06T08:24:03.000Z</time>
      </trkpt>
      <trkpt lat="48.79079" lon="5.16478">
        <ele>266.3</ele>
        <time>2023-01-06T08:24:04.000Z</time>
      </trkpt>
      <trkpt lat="48.79079" lon="5.1648">
        <ele>266</ele>
        <time>2023-01-06T08:24:05.000Z</time>
      </trkpt>
      <trkpt lat="48.79079" lon="5.16482">
        <ele>266</ele>
        <time>2023-01-06T08:24:06.000Z</time>
      </trkpt>
      <trkpt lat="48.79079" lon="5.16484">
        <ele>266</ele>
        <time>2023-01-06T08:24:07.000Z</time>
      </trkpt>
      <trkpt lat="48.79079" lon="5.16486">
        <ele>266</ele>
        <time>2023-01-06T08:24:08.000Z</time>
      </trkpt>
      <trkpt lat="48.79079" lon="5.16488">
        <ele>266</ele>
        <time>2023-01-06T08:24:09.000Z</time>
      </trkpt>
      <trkpt lat="48.79079" lon="5.1649">
        <ele>266</ele>
        <time>2023-01-06T08:24:10.000Z</time>
      </trkpt>
      <trkpt lat="48.79079" lon="5.16492">
        <ele>266</ele>
        <time>2023-01-06T08:24:11.000Z</time>
      </trkpt>
      <trkpt lat="48.79079" lon="5.16495">
        <ele>266</ele>
        <time>2023-01-06T08:24:12.000Z</time>
      </trkpt>
      <trkpt lat="48.79078" lon="5.16498">
        <ele>266</ele>
        <time>2023-01-06T08:24:13.000Z</time>
      </trkpt>
      <trkpt lat="48.79078" lon="5.165">
        <ele>266</ele>
        <time>2023-01-06T08:24:14.000Z</time>
      </trkpt>
      <trkpt lat="48.79077" lon="5.16502">
        <ele>266</ele>
        <time>2023-01-06T08:24:15.000Z</time>
      </trkpt>
      <trkpt lat="48.79077" lon="5.16505">
        <ele>266</ele>
        <time>2023-01-06T08:24:16.000Z</time>
      </trkpt>
      <trkpt lat="48.79077" lon="5.16507">
        <ele>266</ele>
        <time>2023-01-06T08:24:17.000Z</time>
      </trkpt>
      <trkpt lat="48.79076" lon="5.1651">
        <ele>266</ele>
        <time>2023-01-06T08:24:18.000Z</time>
      </trkpt>
      <trkpt lat="48.79076" lon="5.16512">
        <ele>266</ele>
        <time>2023-01-06T08:24:19.000Z</time>
      </trkpt>
      <trkpt lat="48.79076" lon="5.16515">
        <ele>266</ele>
        <time>2023-01-06T08:24:20.000Z</time>
      </trkpt>
      <trkpt lat="48.79076" lon="5.16518">
        <ele>266</ele>
        <time>2023-01-06T08:24:21.000Z</time>
      </trkpt>
      <trkpt lat="48.79076" lon="5.16521">
        <ele>266</ele>
        <time>2023-01-06T08:24:22.000Z</time>
      </trkpt>
      <trkpt lat="48.79076" lon="5.16523">
        <ele>266</ele>
        <time>2023-01-06T08:24:23.000Z</time>
      </trkpt>
      <trkpt lat="48.79077" lon="5.16526">
        <ele>266</ele>
        <time>2023-01-06T08:24:24.000Z</time>
      </trkpt>
      <trkpt lat="48.79077" lon="5.16528">
        <ele>266</ele>
        <time>2023-01-06T08:24:25.000Z</time>
      </trkpt>
      <trkpt lat="48.79077" lon="5.16531">
        <ele>266</ele>
        <time>2023-01-06T08:24:26.000Z</time>
      </trkpt>
      <trkpt lat="48.79078" lon="5.16533">
        <ele>266</ele>
        <time>2023-01-06T08:24:27.000Z</time>
      </trkpt>
      <trkpt lat="48.79078" lon="5.16535">
        <ele>266</ele>
        <time>2023-01-06T08:24:28.000Z</time>
      </trkpt>
      <trkpt lat="48.79078" lon="5.16537">
        <ele>266</ele>
        <time>2023-01-06T08:24:29.000Z</time>
      </trkpt>
      <trkpt lat="48.79078" lon="5.16539">
        <ele>266</ele>
        <time>2023-01-06T08:24:30.000Z</time>
      </trkpt>
      <trkpt lat="48.79079" lon="5.16542">
        <ele>266</ele>
        <time>2023-01-06T08:24:31.000Z</time>
      </trkpt>
      <trkpt lat="48.79078" lon="5.16545">
        <ele>266</ele>
        <time>2023-01-06T08:24:32.000Z</time>
      </trkpt>
      <trkpt lat="48.79078" lon="5.16549">
        <ele>266.3</ele>
        <time>2023-01-06T08:24:33.000Z</time>
      </trkpt>
      <trkpt lat="48.79078" lon="5.16551">
        <ele>266.7</ele>
        <time>2023-01-06T08:24:34.000Z</time>
      </trkpt>
      <trkpt lat="48.79077" lon="5.16554">
        <ele>267</ele>
        <time>2023-01-06T08:24:35.000Z</time>
      </trkpt>
      <trkpt lat="48.79077" lon="5.16556">
        <ele>267</ele>
        <time>2023-01-06T08:24:36.000Z</time>
      </trkpt>
      <trkpt lat="48.79077" lon="5.16558">
        <ele>267</ele>
        <time>2023-01-06T08:24:37.000Z</time>
      </trkpt>
      <trkpt lat="48.79077" lon="5.16561">
        <ele>267</ele>
        <time>2023-01-06T08:24:38.000Z</time>
      </trkpt>
      <trkpt lat="48.79077" lon="5.16563">
        <ele>267</ele>
        <time>2023-01-06T08:24:39.000Z</time>
      </trkpt>
      <trkpt lat="48.79077" lon="5.16566">
        <ele>267</ele>
        <time>2023-01-06T08:24:40.000Z</time>
      </trkpt>
      <trkpt lat="48.79077" lon="5.16569">
        <ele>267</ele>
        <time>2023-01-06T08:24:41.000Z</time>
      </trkpt>
      <trkpt lat="48.79076" lon="5.16572">
        <ele>266</ele>
        <time>2023-01-06T08:24:42.000Z</time>
      </trkpt>
      <trkpt lat="48.79076" lon="5.16574">
        <ele>266</ele>
        <time>2023-01-06T08:24:43.000Z</time>
      </trkpt>
      <trkpt lat="48.79076" lon="5.16576">
        <ele>266</ele>
        <time>2023-01-06T08:24:44.000Z</time>
      </trkpt>
      <trkpt lat="48.79075" lon="5.16578">
        <ele>266</ele>
        <time>2023-01-06T08:24:45.000Z</time>
      </trkpt>
      <trkpt lat="48.79075" lon="5.1658">
        <ele>266</ele>
        <time>2023-01-06T08:24:46.000Z</time>
      </trkpt>
      <trkpt lat="48.79075" lon="5.16583">
        <ele>266</ele>
        <time>2023-01-06T08:24:47.000Z</time>
      </trkpt>
      <trkpt lat="48.79075" lon="5.16585">
        <ele>266</ele>
        <time>2023-01-06T08:24:48.000Z</time>
      </trkpt>
      <trkpt lat="48.79075" lon="5.16588">
        <ele>266</ele>
        <time>2023-01-06T08:24:49.000Z</time>
      </trkpt>
      <trkpt lat="48.79075" lon="5.1659">
        <ele>266</ele>
        <time>2023-01-06T08:24:50.000Z</time>
      </trkpt>
      <trkpt lat="48.79074" lon="5.16593">
        <ele>266</ele>
        <time>2023-01-06T08:24:51.000Z</time>
      </trkpt>
      <trkpt lat="48.79074" lon="5.16596">
        <ele>266</ele>
        <time>2023-01-06T08:24:52.000Z</time>
      </trkpt>
      <trkpt lat="48.79074" lon="5.16598">
        <ele>266</ele>
        <time>2023-01-06T08:24:53.000Z</time>
      </trkpt>
      <trkpt lat="48.79073" lon="5.166">
        <ele>266</ele>
        <time>2023-01-06T08:24:54.000Z</time>
      </trkpt>
      <trkpt lat="48.79073" lon="5.16602">
        <ele>266</ele>
        <time>2023-01-06T08:24:55.000Z</time>
      </trkpt>
      <trkpt lat="48.79074" lon="5.16604">
        <ele>266</ele>
        <time>2023-01-06T08:24:56.000Z</time>
      </trkpt>
      <trkpt lat="48.79074" lon="5.16607">
        <ele>266</ele>
        <time>2023-01-06T08:24:57.000Z</time>
      </trkpt>
      <trkpt lat="48.79075" lon="5.16609">
        <ele>266</ele>
        <time>2023-01-06T08:24:58.000Z</time>
      </trkpt>
      <trkpt lat="48.79075" lon="5.16611">
        <ele>266</ele>
        <time>2023-01-06T08:24:59.000Z</time>
      </trkpt>
      <trkpt lat="48.79076" lon="5.16613">
        <ele>266</ele>
        <time>2023-01-06T08:25:00.000Z</time>
      </trkpt>
      <trkpt lat="48.79076" lon="5.16615">
        <ele>266</ele>
        <time>2023-01-06T08:25:01.000Z</time>
      </trkpt>
      <trkpt lat="48.79077" lon="5.16618">
        <ele>266</ele>
        <time>2023-01-06T08:25:02.000Z</time>
      </trkpt>
      <trkpt lat="48.79077" lon="5.16621">
        <ele>266</ele>
        <time>2023-01-06T08:25:03.000Z</time>
      </trkpt>
      <trkpt lat="48.79077" lon="5.16623">
        <ele>266</ele>
        <time>2023-01-06T08:25:04.000Z</time>
      </trkpt>
      <trkpt lat="48.79077" lon="5.16626">
        <ele>266</ele>
        <time>2023-01-06T08:25:05.000Z</time>
      </trkpt>
      <trkpt lat="48.79077" lon="5.16628">
        <ele>266.5</ele>
        <time>2023-01-06T08:25:06.000Z</time>
      </trkpt>
      <trkpt lat="48.79077" lon="5.1663">
        <ele>267</ele>
        <time>2023-01-06T08:25:07.000Z</time>
      </trkpt>
      <trkpt lat="48.79077" lon="5.16632">
        <ele>267</ele>
        <time>2023-01-06T08:25:08.000Z</time>
      </trkpt>
      <trkpt lat="48.79077" lon="5.16634">
        <ele>267</ele>
        <time>2023-01-06T08:25:09.000Z</time>
      </trkpt>
      <trkpt lat="48.79078" lon="5.16637">
        <ele>267</ele>
        <time>2023-01-06T08:25:10.000Z</time>
      </trkpt>
      <trkpt lat="48.79078" lon="5.16639">
        <ele>267</ele>
        <time>2023-01-06T08:25:11.000Z</time>
      </trkpt>
      <trkpt lat="48.79078" lon="5.16642">
        <ele>267</ele>
        <time>2023-01-06T08:25:12.000Z</time>
      </trkpt>
      <trkpt lat="48.79077" lon="5.16644">
        <ele>267</ele>
        <time>2023-01-06T08:25:13.000Z</time>
      </trkpt>
      <trkpt lat="48.79077" lon="5.16647">
        <ele>267</ele>
        <time>2023-01-06T08:25:14.000Z</time>
      </trkpt>
      <trkpt lat="48.79076" lon="5.16648">
        <ele>266.7</ele>
        <time>2023-01-06T08:25:15.000Z</time>
      </trkpt>
      <trkpt lat="48.79076" lon="5.1665">
        <ele>266.3</ele>
        <time>2023-01-06T08:25:16.000Z</time>
      </trkpt>
      <trkpt lat="48.79075" lon="5.16652">
        <ele>266</ele>
        <time>2023-01-06T08:25:17.000Z</time>
      </trkpt>
      <trkpt lat="48.79075" lon="5.16654">
        <ele>266.5</ele>
        <time>2023-01-06T08:25:18.000Z</time>
      </trkpt>
      <trkpt lat="48.79075" lon="5.16656">
        <ele>267</ele>
        <time>2023-01-06T08:25:19.000Z</time>
      </trkpt>
      <trkpt lat="48.79074" lon="5.16657">
        <ele>267</ele>
        <time>2023-01-06T08:25:20.000Z</time>
      </trkpt>
      <trkpt lat="48.79074" lon="5.16659">
        <ele>267</ele>
        <time>2023-01-06T08:25:21.000Z</time>
      </trkpt>
      <trkpt lat="48.79074" lon="5.1666">
        <ele>267</ele>
        <time>2023-01-06T08:25:22.000Z</time>
      </trkpt>
      <trkpt lat="48.79074" lon="5.16662">
        <ele>267</ele>
        <time>2023-01-06T08:25:23.000Z</time>
      </trkpt>
      <trkpt lat="48.79074" lon="5.16664">
        <ele>267</ele>
        <time>2023-01-06T08:25:24.000Z</time>
      </trkpt>
      <trkpt lat="48.79074" lon="5.16666">
        <ele>267</ele>
        <time>2023-01-06T08:25:25.000Z</time>
      </trkpt>
      <trkpt lat="48.79074" lon="5.16669">
        <ele>267</ele>
        <time>2023-01-06T08:25:26.000Z</time>
      </trkpt>
      <trkpt lat="48.79075" lon="5.16672">
        <ele>267</ele>
        <time>2023-01-06T08:25:27.000Z</time>
      </trkpt>
      <trkpt lat="48.79075" lon="5.16676">
        <ele>267</ele>
        <time>2023-01-06T08:25:28.000Z</time>
      </trkpt>
      <trkpt lat="48.79075" lon="5.16679">
        <ele>267</ele>
        <time>2023-01-06T08:25:29.000Z</time>
      </trkpt>
      <trkpt lat="48.79076" lon="5.16681">
        <ele>267</ele>
        <time>2023-01-06T08:25:30.000Z</time>
      </trkpt>
      <trkpt lat="48.79076" lon="5.16682">
        <ele>267</ele>
        <time>2023-01-06T08:25:31.000Z</time>
      </trkpt>
      <trkpt lat="48.79076" lon="5.16683">
        <ele>267</ele>
        <time>2023-01-06T08:25:32.000Z</time>
      </trkpt>
      <trkpt lat="48.79076" lon="5.16684">
        <ele>267</ele>
        <time>2023-01-06T08:25:33.000Z</time>
      </trkpt>
      <trkpt lat="48.79076" lon="5.16686">
        <ele>267</ele>
        <time>2023-01-06T08:25:34.000Z</time>
      </trkpt>
      <trkpt lat="48.79076" lon="5.16687">
        <ele>267</ele>
        <time>2023-01-06T08:25:35.000Z</time>
      </trkpt>
      <trkpt lat="48.79076" lon="5.16688">
        <ele>267</ele>
        <time>2023-01-06T08:25:36.000Z</time>
      </trkpt>
      <trkpt lat="48.79076" lon="5.1669">
        <ele>267</ele>
        <time>2023-01-06T08:25:37.000Z</time>
      </trkpt>
      <trkpt lat="48.79075" lon="5.16692">
        <ele>267</ele>
        <time>2023-01-06T08:25:38.000Z</time>
      </trkpt>
      <trkpt lat="48.79075" lon="5.16694">
        <ele>267</ele>
        <time>2023-01-06T08:25:39.000Z</time>
      </trkpt>
      <trkpt lat="48.79075" lon="5.16696">
        <ele>267</ele>
        <time>2023-01-06T08:25:40.000Z</time>
      </trkpt>
      <trkpt lat="48.79074" lon="5.16698">
        <ele>267</ele>
        <time>2023-01-06T08:25:41.000Z</time>
      </trkpt>
      <trkpt lat="48.79074" lon="5.167">
        <ele>267</ele>
        <time>2023-01-06T08:25:42.000Z</time>
      </trkpt>
      <trkpt lat="48.79074" lon="5.16702">
        <ele>267</ele>
        <time>2023-01-06T08:25:43.000Z</time>
      </trkpt>
      <trkpt lat="48.79073" lon="5.16706">
        <ele>267</ele>
        <time>2023-01-06T08:25:44.000Z</time>
      </trkpt>
      <trkpt lat="48.79073" lon="5.16708">
        <ele>267</ele>
        <time>2023-01-06T08:25:45.000Z</time>
      </trkpt>
      <trkpt lat="48.79072" lon="5.16711">
        <ele>267</ele>
        <time>2023-01-06T08:25:46.000Z</time>
      </trkpt>
      <trkpt lat="48.79071" lon="5.16713">
        <ele>267</ele>
        <time>2023-01-06T08:25:47.000Z</time>
      </trkpt>
      <trkpt lat="48.79071" lon="5.16716">
        <ele>267</ele>
        <time>2023-01-06T08:25:48.000Z</time>
      </trkpt>
      <trkpt lat="48.79071" lon="5.16718">
        <ele>267</ele>
        <time>2023-01-06T08:25:49.000Z</time>
      </trkpt>
      <trkpt lat="48.79071" lon="5.16721">
        <ele>267</ele>
        <time>2023-01-06T08:25:50.000Z</time>
      </trkpt>
      <trkpt lat="48.7907" lon="5.16723">
        <ele>267</ele>
        <time>2023-01-06T08:25:51.000Z</time>
      </trkpt>
      <trkpt lat="48.7907" lon="5.16726">
        <ele>267</ele>
        <time>2023-01-06T08:25:52.000Z</time>
      </trkpt>
      <trkpt lat="48.7907" lon="5.16728">
        <ele>267</ele>
        <time>2023-01-06T08:25:53.000Z</time>
      </trkpt>
      <trkpt lat="48.7907" lon="5.16731">
        <ele>267</ele>
        <time>2023-01-06T08:25:54.000Z</time>
      </trkpt>
      <trkpt lat="48.79069" lon="5.16733">
        <ele>267</ele>
        <time>2023-01-06T08:25:55.000Z</time>
      </trkpt>
      <trkpt lat="48.79069" lon="5.16736">
        <ele>267</ele>
        <time>2023-01-06T08:25:56.000Z</time>
      </trkpt>
      <trkpt lat="48.79068" lon="5.16738">
        <ele>267</ele>
        <time>2023-01-06T08:25:57.000Z</time>
      </trkpt>
      <trkpt lat="48.79068" lon="5.16741">
        <ele>267</ele>
        <time>2023-01-06T08:25:58.000Z</time>
      </trkpt>
      <trkpt lat="48.79068" lon="5.16744">
        <ele>267</ele>
        <time>2023-01-06T08:25:59.000Z</time>
      </trkpt>
      <trkpt lat="48.79068" lon="5.16747">
        <ele>267</ele>
        <time>2023-01-06T08:26:00.000Z</time>
      </trkpt>
      <trkpt lat="48.79067" lon="5.16751">
        <ele>267</ele>
        <time>2023-01-06T08:26:01.000Z</time>
      </trkpt>
      <trkpt lat="48.79067" lon="5.16754">
        <ele>267</ele>
        <time>2023-01-06T08:26:02.000Z</time>
      </trkpt>
      <trkpt lat="48.79067" lon="5.16757">
        <ele>267</ele>
        <time>2023-01-06T08:26:03.000Z</time>
      </trkpt>
      <trkpt lat="48.79067" lon="5.1676">
        <ele>267</ele>
        <time>2023-01-06T08:26:04.000Z</time>
      </trkpt>
      <trkpt lat="48.79067" lon="5.16763">
        <ele>267</ele>
        <time>2023-01-06T08:26:05.000Z</time>
      </trkpt>
      <trkpt lat="48.79067" lon="5.16765">
        <ele>267</ele>
        <time>2023-01-06T08:26:06.000Z</time>
      </trkpt>
      <trkpt lat="48.79066" lon="5.16768">
        <ele>267</ele>
        <time>2023-01-06T08:26:07.000Z</time>
      </trkpt>
      <trkpt lat="48.79066" lon="5.16771">
        <ele>267</ele>
        <time>2023-01-06T08:26:08.000Z</time>
      </trkpt>
      <trkpt lat="48.79066" lon="5.16774">
        <ele>267</ele>
        <time>2023-01-06T08:26:09.000Z</time>
      </trkpt>
      <trkpt lat="48.79066" lon="5.16777">
        <ele>267</ele>
        <time>2023-01-06T08:26:10.000Z</time>
      </trkpt>
      <trkpt lat="48.79066" lon="5.1678">
        <ele>267</ele>
        <time>2023-01-06T08:26:11.000Z</time>
      </trkpt>
      <trkpt lat="48.79066" lon="5.16783">
        <ele>267</ele>
        <time>2023-01-06T08:26:12.000Z</time>
      </trkpt>
      <trkpt lat="48.79066" lon="5.16786">
        <ele>267</ele>
        <time>2023-01-06T08:26:13.000Z</time>
      </trkpt>
      <trkpt lat="48.79065" lon="5.16789">
        <ele>267</ele>
        <time>2023-01-06T08:26:14.000Z</time>
      </trkpt>
      <trkpt lat="48.79065" lon="5.16791">
        <ele>267</ele>
        <time>2023-01-06T08:26:15.000Z</time>
      </trkpt>
      <trkpt lat="48.79064" lon="5.16793">
        <ele>267</ele>
        <time>2023-01-06T08:26:16.000Z</time>
      </trkpt>
      <trkpt lat="48.79064" lon="5.16796">
        <ele>267</ele>
        <time>2023-01-06T08:26:17.000Z</time>
      </trkpt>
      <trkpt lat="48.79063" lon="5.16798">
        <ele>267</ele>
        <time>2023-01-06T08:26:18.000Z</time>
      </trkpt>
      <trkpt lat="48.79063" lon="5.168">
        <ele>267</ele>
        <time>2023-01-06T08:26:19.000Z</time>
      </trkpt>
      <trkpt lat="48.79063" lon="5.16802">
        <ele>267</ele>
        <time>2023-01-06T08:26:20.000Z</time>
      </trkpt>
      <trkpt lat="48.79063" lon="5.16804">
        <ele>267</ele>
        <time>2023-01-06T08:26:21.000Z</time>
      </trkpt>
      <trkpt lat="48.79063" lon="5.16807">
        <ele>267</ele>
        <time>2023-01-06T08:26:22.000Z</time>
      </trkpt>
      <trkpt lat="48.79063" lon="5.16809">
        <ele>267</ele>
        <time>2023-01-06T08:26:23.000Z</time>
      </trkpt>
      <trkpt lat="48.79063" lon="5.16811">
        <ele>267</ele>
        <time>2023-01-06T08:26:24.000Z</time>
      </trkpt>
      <trkpt lat="48.79062" lon="5.16813">
        <ele>267</ele>
        <time>2023-01-06T08:26:25.000Z</time>
      </trkpt>
      <trkpt lat="48.79062" lon="5.16815">
        <ele>267</ele>
        <time>2023-01-06T08:26:26.000Z</time>
      </trkpt>
      <trkpt lat="48.79062" lon="5.16817">
        <ele>267</ele>
        <time>2023-01-06T08:26:27.000Z</time>
      </trkpt>
      <trkpt lat="48.79061" lon="5.1682">
        <ele>267.5</ele>
        <time>2023-01-06T08:26:28.000Z</time>
      </trkpt>
      <trkpt lat="48.79061" lon="5.16822">
        <ele>268</ele>
        <time>2023-01-06T08:26:29.000Z</time>
      </trkpt>
      <trkpt lat="48.79061" lon="5.16824">
        <ele>268</ele>
        <time>2023-01-06T08:26:30.000Z</time>
      </trkpt>
      <trkpt lat="48.79061" lon="5.16826">
        <ele>268</ele>
        <time>2023-01-06T08:26:31.000Z</time>
      </trkpt>
      <trkpt lat="48.79061" lon="5.16829">
        <ele>268</ele>
        <time>2023-01-06T08:26:32.000Z</time>
      </trkpt>
      <trkpt lat="48.79061" lon="5.16832">
        <ele>268</ele>
        <time>2023-01-06T08:26:33.000Z</time>
      </trkpt>
      <trkpt lat="48.79059" lon="5.16834">
        <ele>268</ele>
        <time>2023-01-06T08:26:34.000Z</time>
      </trkpt>
      <trkpt lat="48.79057" lon="5.16837">
        <ele>268</ele>
        <time>2023-01-06T08:26:35.000Z</time>
      </trkpt>
      <trkpt lat="48.79056" lon="5.16839">
        <ele>268</ele>
        <time>2023-01-06T08:26:36.000Z</time>
      </trkpt>
      <trkpt lat="48.79055" lon="5.16841">
        <ele>268</ele>
        <time>2023-01-06T08:26:37.000Z</time>
      </trkpt>
      <trkpt lat="48.79055" lon="5.16843">
        <ele>268</ele>
        <time>2023-01-06T08:26:38.000Z</time>
      </trkpt>
      <trkpt lat="48.79055" lon="5.16845">
        <ele>268</ele>
        <time>2023-01-06T08:26:39.000Z</time>
      </trkpt>
      <trkpt lat="48.79056" lon="5.16846">
        <ele>268</ele>
        <time>2023-01-06T08:26:40.000Z</time>
      </trkpt>
      <trkpt lat="48.79056" lon="5.16848">
        <ele>268</ele>
        <time>2023-01-06T08:26:41.000Z</time>
      </trkpt>
      <trkpt lat="48.79056" lon="5.16849">
        <ele>268</ele>
        <time>2023-01-06T08:26:42.000Z</time>
      </trkpt>
      <trkpt lat="48.79056" lon="5.16851">
        <ele>268</ele>
        <time>2023-01-06T08:26:43.000Z</time>
      </trkpt>
      <trkpt lat="48.79056" lon="5.16853">
        <ele>268</ele>
        <time>2023-01-06T08:26:44.000Z</time>
      </trkpt>
      <trkpt lat="48.79057" lon="5.16855">
        <ele>268</ele>
        <time>2023-01-06T08:26:45.000Z</time>
      </trkpt>
      <trkpt lat="48.79056" lon="5.16857">
        <ele>268</ele>
        <time>2023-01-06T08:26:46.000Z</time>
      </trkpt>
      <trkpt lat="48.79056" lon="5.16859">
        <ele>268</ele>
        <time>2023-01-06T08:26:47.000Z</time>
      </trkpt>
      <trkpt lat="48.79056" lon="5.1686">
        <ele>268</ele>
        <time>2023-01-06T08:26:48.000Z</time>
      </trkpt>
      <trkpt lat="48.79056" lon="5.16862">
        <ele>268</ele>
        <time>2023-01-06T08:26:49.000Z</time>
      </trkpt>
      <trkpt lat="48.79055" lon="5.16864">
        <ele>268</ele>
        <time>2023-01-06T08:26:50.000Z</time>
      </trkpt>
      <trkpt lat="48.79055" lon="5.16865">
        <ele>268</ele>
        <time>2023-01-06T08:26:51.000Z</time>
      </trkpt>
      <trkpt lat="48.79054" lon="5.16867">
        <ele>268.5</ele>
        <time>2023-01-06T08:26:52.000Z</time>
      </trkpt>
      <trkpt lat="48.79054" lon="5.16869">
        <ele>269</ele>
        <time>2023-01-06T08:26:53.000Z</time>
      </trkpt>
      <trkpt lat="48.79054" lon="5.16872">
        <ele>268.5</ele>
        <time>2023-01-06T08:26:54.000Z</time>
      </trkpt>
      <trkpt lat="48.79053" lon="5.16874">
        <ele>268</ele>
        <time>2023-01-06T08:26:55.000Z</time>
      </trkpt>
      <trkpt lat="48.79053" lon="5.16877">
        <ele>268</ele>
        <time>2023-01-06T08:26:56.000Z</time>
      </trkpt>
      <trkpt lat="48.79052" lon="5.16879">
        <ele>268</ele>
        <time>2023-01-06T08:26:57.000Z</time>
      </trkpt>
      <trkpt lat="48.79052" lon="5.16882">
        <ele>268</ele>
        <time>2023-01-06T08:26:58.000Z</time>
      </trkpt>
      <trkpt lat="48.79051" lon="5.16884">
        <ele>268</ele>
        <time>2023-01-06T08:26:59.000Z</time>
      </trkpt>
      <trkpt lat="48.79051" lon="5.16886">
        <ele>268</ele>
        <time>2023-01-06T08:27:00.000Z</time>
      </trkpt>
      <trkpt lat="48.79051" lon="5.16887">
        <ele>268</ele>
        <time>2023-01-06T08:27:01.000Z</time>
      </trkpt>
      <trkpt lat="48.7905" lon="5.16889">
        <ele>268</ele>
        <time>2023-01-06T08:27:02.000Z</time>
      </trkpt>
      <trkpt lat="48.7905" lon="5.16891">
        <ele>268</ele>
        <time>2023-01-06T08:27:03.000Z</time>
      </trkpt>
      <trkpt lat="48.79049" lon="5.16894">
        <ele>268</ele>
        <time>2023-01-06T08:27:04.000Z</time>
      </trkpt>
      <trkpt lat="48.79049" lon="5.16896">
        <ele>268</ele>
        <time>2023-01-06T08:27:05.000Z</time>
      </trkpt>
      <trkpt lat="48.79049" lon="5.16899">
        <ele>268</ele>
        <time>2023-01-06T08:27:06.000Z</time>
      </trkpt>
      <trkpt lat="48.79049" lon="5.16902">
        <ele>268</ele>
        <time>2023-01-06T08:27:07.000Z</time>
      </trkpt>
      <trkpt lat="48.79048" lon="5.16904">
        <ele>268</ele>
        <time>2023-01-06T08:27:08.000Z</time>
      </trkpt>
      <trkpt lat="48.79048" lon="5.16906">
        <ele>268</ele>
        <time>2023-01-06T08:27:09.000Z</time>
      </trkpt>
      <trkpt lat="48.79047" lon="5.16908">
        <ele>268.5</ele>
        <time>2023-01-06T08:27:10.000Z</time>
      </trkpt>
      <trkpt lat="48.79047" lon="5.1691">
        <ele>269</ele>
        <time>2023-01-06T08:27:11.000Z</time>
      </trkpt>
      <trkpt lat="48.79046" lon="5.16912">
        <ele>269</ele>
        <time>2023-01-06T08:27:12.000Z</time>
      </trkpt>
      <trkpt lat="48.79046" lon="5.16915">
        <ele>269</ele>
        <time>2023-01-06T08:27:13.000Z</time>
      </trkpt>
      <trkpt lat="48.79045" lon="5.16917">
        <ele>269</ele>
        <time>2023-01-06T08:27:14.000Z</time>
      </trkpt>
      <trkpt lat="48.79045" lon="5.16919">
        <ele>269</ele>
        <time>2023-01-06T08:27:15.000Z</time>
      </trkpt>
      <trkpt lat="48.79044" lon="5.16921">
        <ele>269</ele>
        <time>2023-01-06T08:27:16.000Z</time>
      </trkpt>
      <trkpt lat="48.79043" lon="5.16924">
        <ele>269</ele>
        <time>2023-01-06T08:27:17.000Z</time>
      </trkpt>
      <trkpt lat="48.79043" lon="5.16926">
        <ele>269</ele>
        <time>2023-01-06T08:27:18.000Z</time>
      </trkpt>
      <trkpt lat="48.79042" lon="5.16928">
        <ele>269</ele>
        <time>2023-01-06T08:27:19.000Z</time>
      </trkpt>
      <trkpt lat="48.79042" lon="5.16931">
        <ele>269</ele>
        <time>2023-01-06T08:27:20.000Z</time>
      </trkpt>
      <trkpt lat="48.79042" lon="5.16934">
        <ele>269</ele>
        <time>2023-01-06T08:27:21.000Z</time>
      </trkpt>
      <trkpt lat="48.79042" lon="5.16936">
        <ele>269</ele>
        <time>2023-01-06T08:27:22.000Z</time>
      </trkpt>
      <trkpt lat="48.79041" lon="5.16938">
        <ele>269</ele>
        <time>2023-01-06T08:27:23.000Z</time>
      </trkpt>
      <trkpt lat="48.79041" lon="5.16941">
        <ele>269</ele>
        <time>2023-01-06T08:27:24.000Z</time>
      </trkpt>
      <trkpt lat="48.79041" lon="5.16943">
        <ele>269</ele>
        <time>2023-01-06T08:27:25.000Z</time>
      </trkpt>
      <trkpt lat="48.7904" lon="5.16946">
        <ele>269</ele>
        <time>2023-01-06T08:27:26.000Z</time>
      </trkpt>
      <trkpt lat="48.7904" lon="5.16948">
        <ele>269</ele>
        <time>2023-01-06T08:27:27.000Z</time>
      </trkpt>
      <trkpt lat="48.7904" lon="5.16951">
        <ele>269</ele>
        <time>2023-01-06T08:27:28.000Z</time>
      </trkpt>
      <trkpt lat="48.7904" lon="5.16953">
        <ele>269</ele>
        <time>2023-01-06T08:27:29.000Z</time>
      </trkpt>
      <trkpt lat="48.7904" lon="5.16956">
        <ele>269</ele>
        <time>2023-01-06T08:27:30.000Z</time>
      </trkpt>
      <trkpt lat="48.7904" lon="5.16959">
        <ele>269</ele>
        <time>2023-01-06T08:27:31.000Z</time>
      </trkpt>
      <trkpt lat="48.7904" lon="5.16961">
        <ele>269</ele>
        <time>2023-01-06T08:27:32.000Z</time>
      </trkpt>
      <trkpt lat="48.7904" lon="5.16964">
        <ele>269</ele>
        <time>2023-01-06T08:27:33.000Z</time>
      </trkpt>
      <trkpt lat="48.79041" lon="5.16967">
        <ele>269</ele>
        <time>2023-01-06T08:27:34.000Z</time>
      </trkpt>
      <trkpt lat="48.79041" lon="5.1697">
        <ele>269</ele>
        <time>2023-01-06T08:27:35.000Z</time>
      </trkpt>
      <trkpt lat="48.79041" lon="5.16973">
        <ele>269.5</ele>
        <time>2023-01-06T08:27:36.000Z</time>
      </trkpt>
      <trkpt lat="48.79041" lon="5.16976">
        <ele>270</ele>
        <time>2023-01-06T08:27:37.000Z</time>
      </trkpt>
      <trkpt lat="48.79041" lon="5.16978">
        <ele>270</ele>
        <time>2023-01-06T08:27:38.000Z</time>
      </trkpt>
      <trkpt lat="48.79041" lon="5.16981">
        <ele>270</ele>
        <time>2023-01-06T08:27:39.000Z</time>
      </trkpt>
      <trkpt lat="48.79041" lon="5.16984">
        <ele>270</ele>
        <time>2023-01-06T08:27:40.000Z</time>
      </trkpt>
      <trkpt lat="48.7904" lon="5.16986">
        <ele>270</ele>
        <time>2023-01-06T08:27:41.000Z</time>
      </trkpt>
      <trkpt lat="48.7904" lon="5.16989">
        <ele>270</ele>
        <time>2023-01-06T08:27:42.000Z</time>
      </trkpt>
      <trkpt lat="48.7904" lon="5.16991">
        <ele>270</ele>
        <time>2023-01-06T08:27:43.000Z</time>
      </trkpt>
      <trkpt lat="48.79039" lon="5.16994">
        <ele>270</ele>
        <time>2023-01-06T08:27:44.000Z</time>
      </trkpt>
      <trkpt lat="48.79039" lon="5.16996">
        <ele>270</ele>
        <time>2023-01-06T08:27:45.000Z</time>
      </trkpt>
      <trkpt lat="48.79039" lon="5.16998">
        <ele>270</ele>
        <time>2023-01-06T08:27:46.000Z</time>
      </trkpt>
      <trkpt lat="48.79038" lon="5.17001">
        <ele>270</ele>
        <time>2023-01-06T08:27:47.000Z</time>
      </trkpt>
      <trkpt lat="48.79038" lon="5.17003">
        <ele>270</ele>
        <time>2023-01-06T08:27:48.000Z</time>
      </trkpt>
      <trkpt lat="48.79037" lon="5.17005">
        <ele>270</ele>
        <time>2023-01-06T08:27:49.000Z</time>
      </trkpt>
      <trkpt lat="48.79037" lon="5.17007">
        <ele>270</ele>
        <time>2023-01-06T08:27:50.000Z</time>
      </trkpt>
      <trkpt lat="48.79036" lon="5.17009">
        <ele>270</ele>
        <time>2023-01-06T08:27:51.000Z</time>
      </trkpt>
      <trkpt lat="48.79036" lon="5.17011">
        <ele>270</ele>
        <time>2023-01-06T08:27:52.000Z</time>
      </trkpt>
      <trkpt lat="48.79035" lon="5.17014">
        <ele>270</ele>
        <time>2023-01-06T08:27:53.000Z</time>
      </trkpt>
      <trkpt lat="48.79035" lon="5.17016">
        <ele>270.5</ele>
        <time>2023-01-06T08:27:54.000Z</time>
      </trkpt>
      <trkpt lat="48.79034" lon="5.17018">
        <ele>271</ele>
        <time>2023-01-06T08:27:55.000Z</time>
      </trkpt>
      <trkpt lat="48.79034" lon="5.17021">
        <ele>271</ele>
        <time>2023-01-06T08:27:56.000Z</time>
      </trkpt>
      <trkpt lat="48.79033" lon="5.17023">
        <ele>271</ele>
        <time>2023-01-06T08:27:57.000Z</time>
      </trkpt>
      <trkpt lat="48.79033" lon="5.17025">
        <ele>271</ele>
        <time>2023-01-06T08:27:58.000Z</time>
      </trkpt>
      <trkpt lat="48.79033" lon="5.17027">
        <ele>271</ele>
        <time>2023-01-06T08:27:59.000Z</time>
      </trkpt>
      <trkpt lat="48.79032" lon="5.1703">
        <ele>271</ele>
        <time>2023-01-06T08:28:00.000Z</time>
      </trkpt>
      <trkpt lat="48.79032" lon="5.17032">
        <ele>271</ele>
        <time>2023-01-06T08:28:01.000Z</time>
      </trkpt>
      <trkpt lat="48.79031" lon="5.17034">
        <ele>271</ele>
        <time>2023-01-06T08:28:02.000Z</time>
      </trkpt>
      <trkpt lat="48.7903" lon="5.17036">
        <ele>271</ele>
        <time>2023-01-06T08:28:03.000Z</time>
      </trkpt>
      <trkpt lat="48.7903" lon="5.17038">
        <ele>271</ele>
        <time>2023-01-06T08:28:04.000Z</time>
      </trkpt>
      <trkpt lat="48.7903" lon="5.1704">
        <ele>271</ele>
        <time>2023-01-06T08:28:05.000Z</time>
      </trkpt>
      <trkpt lat="48.7903" lon="5.17043">
        <ele>271</ele>
        <time>2023-01-06T08:28:06.000Z</time>
      </trkpt>
      <trkpt lat="48.79029" lon="5.17045">
        <ele>271</ele>
        <time>2023-01-06T08:28:07.000Z</time>
      </trkpt>
      <trkpt lat="48.79029" lon="5.17048">
        <ele>271</ele>
        <time>2023-01-06T08:28:08.000Z</time>
      </trkpt>
      <trkpt lat="48.79029" lon="5.1705">
        <ele>271</ele>
        <time>2023-01-06T08:28:09.000Z</time>
      </trkpt>
      <trkpt lat="48.79028" lon="5.17052">
        <ele>271</ele>
        <time>2023-01-06T08:28:10.000Z</time>
      </trkpt>
      <trkpt lat="48.79028" lon="5.17054">
        <ele>271</ele>
        <time>2023-01-06T08:28:11.000Z</time>
      </trkpt>
      <trkpt lat="48.79028" lon="5.17056">
        <ele>271</ele>
        <time>2023-01-06T08:28:12.000Z</time>
      </trkpt>
      <trkpt lat="48.79027" lon="5.17058">
        <ele>271</ele>
        <time>2023-01-06T08:28:13.000Z</time>
      </trkpt>
      <trkpt lat="48.79027" lon="5.1706">
        <ele>271</ele>
        <time>2023-01-06T08:28:14.000Z</time>
      </trkpt>
      <trkpt lat="48.79026" lon="5.17063">
        <ele>271</ele>
        <time>2023-01-06T08:28:15.000Z</time>
      </trkpt>
      <trkpt lat="48.79025" lon="5.17065">
        <ele>272</ele>
        <time>2023-01-06T08:28:16.000Z</time>
      </trkpt>
      <trkpt lat="48.79025" lon="5.17067">
        <ele>272</ele>
        <time>2023-01-06T08:28:17.000Z</time>
      </trkpt>
      <trkpt lat="48.79024" lon="5.17069">
        <ele>272</ele>
        <time>2023-01-06T08:28:18.000Z</time>
      </trkpt>
      <trkpt lat="48.79024" lon="5.17071">
        <ele>272</ele>
        <time>2023-01-06T08:28:19.000Z</time>
      </trkpt>
      <trkpt lat="48.79023" lon="5.17073">
        <ele>272</ele>
        <time>2023-01-06T08:28:20.000Z</time>
      </trkpt>
      <trkpt lat="48.79023" lon="5.17075">
        <ele>272</ele>
        <time>2023-01-06T08:28:21.000Z</time>
      </trkpt>
      <trkpt lat="48.79023" lon="5.17078">
        <ele>272</ele>
        <time>2023-01-06T08:28:22.000Z</time>
      </trkpt>
      <trkpt lat="48.79022" lon="5.1708">
        <ele>272</ele>
        <time>2023-01-06T08:28:23.000Z</time>
      </trkpt>
      <trkpt lat="48.79022" lon="5.17082">
        <ele>272</ele>
        <time>2023-01-06T08:28:24.000Z</time>
      </trkpt>
      <trkpt lat="48.79022" lon="5.17084">
        <ele>272</ele>
        <time>2023-01-06T08:28:25.000Z</time>
      </trkpt>
      <trkpt lat="48.79022" lon="5.17087">
        <ele>272</ele>
        <time>2023-01-06T08:28:26.000Z</time>
      </trkpt>
      <trkpt lat="48.79022" lon="5.17089">
        <ele>272</ele>
        <time>2023-01-06T08:28:27.000Z</time>
      </trkpt>
      <trkpt lat="48.79021" lon="5.17091">
        <ele>272</ele>
        <time>2023-01-06T08:28:28.000Z</time>
      </trkpt>
      <trkpt lat="48.79021" lon="5.17094">
        <ele>272</ele>
        <time>2023-01-06T08:28:29.000Z</time>
      </trkpt>
      <trkpt lat="48.79021" lon="5.17096">
        <ele>272</ele>
        <time>2023-01-06T08:28:30.000Z</time>
      </trkpt>
      <trkpt lat="48.79021" lon="5.17098">
        <ele>272</ele>
        <time>2023-01-06T08:28:31.000Z</time>
      </trkpt>
      <trkpt lat="48.7902" lon="5.17101">
        <ele>272</ele>
        <time>2023-01-06T08:28:32.000Z</time>
      </trkpt>
      <trkpt lat="48.7902" lon="5.17103">
        <ele>272</ele>
        <time>2023-01-06T08:28:33.000Z</time>
      </trkpt>
      <trkpt lat="48.7902" lon="5.17105">
        <ele>272</ele>
        <time>2023-01-06T08:28:34.000Z</time>
      </trkpt>
      <trkpt lat="48.7902" lon="5.17108">
        <ele>273</ele>
        <time>2023-01-06T08:28:35.000Z</time>
      </trkpt>
      <trkpt lat="48.79019" lon="5.1711">
        <ele>273</ele>
        <time>2023-01-06T08:28:36.000Z</time>
      </trkpt>
      <trkpt lat="48.79019" lon="5.17112">
        <ele>273</ele>
        <time>2023-01-06T08:28:37.000Z</time>
      </trkpt>
      <trkpt lat="48.79019" lon="5.17115">
        <ele>273</ele>
        <time>2023-01-06T08:28:38.000Z</time>
      </trkpt>
      <trkpt lat="48.79018" lon="5.17117">
        <ele>273</ele>
        <time>2023-01-06T08:28:39.000Z</time>
      </trkpt>
      <trkpt lat="48.79018" lon="5.17119">
        <ele>273</ele>
        <time>2023-01-06T08:28:40.000Z</time>
      </trkpt>
      <trkpt lat="48.79017" lon="5.17122">
        <ele>273</ele>
        <time>2023-01-06T08:28:41.000Z</time>
      </trkpt>
      <trkpt lat="48.79017" lon="5.17124">
        <ele>273</ele>
        <time>2023-01-06T08:28:42.000Z</time>
      </trkpt>
      <trkpt lat="48.79016" lon="5.17126">
        <ele>273</ele>
        <time>2023-01-06T08:28:43.000Z</time>
      </trkpt>
      <trkpt lat="48.79016" lon="5.17128">
        <ele>273</ele>
        <time>2023-01-06T08:28:44.000Z</time>
      </trkpt>
      <trkpt lat="48.79016" lon="5.1713">
        <ele>273</ele>
        <time>2023-01-06T08:28:45.000Z</time>
      </trkpt>
      <trkpt lat="48.79015" lon="5.17133">
        <ele>273</ele>
        <time>2023-01-06T08:28:46.000Z</time>
      </trkpt>
      <trkpt lat="48.79015" lon="5.17135">
        <ele>273</ele>
        <time>2023-01-06T08:28:47.000Z</time>
      </trkpt>
      <trkpt lat="48.79014" lon="5.17137">
        <ele>273</ele>
        <time>2023-01-06T08:28:48.000Z</time>
      </trkpt>
      <trkpt lat="48.79014" lon="5.17139">
        <ele>273</ele>
        <time>2023-01-06T08:28:49.000Z</time>
      </trkpt>
      <trkpt lat="48.79013" lon="5.17141">
        <ele>273</ele>
        <time>2023-01-06T08:28:50.000Z</time>
      </trkpt>
      <trkpt lat="48.79013" lon="5.17143">
        <ele>273</ele>
        <time>2023-01-06T08:28:51.000Z</time>
      </trkpt>
      <trkpt lat="48.79012" lon="5.17145">
        <ele>273</ele>
        <time>2023-01-06T08:28:52.000Z</time>
      </trkpt>
      <trkpt lat="48.79012" lon="5.17147">
        <ele>273</ele>
        <time>2023-01-06T08:28:53.000Z</time>
      </trkpt>
      <trkpt lat="48.79011" lon="5.1715">
        <ele>273</ele>
        <time>2023-01-06T08:28:54.000Z</time>
      </trkpt>
      <trkpt lat="48.79011" lon="5.17152">
        <ele>273</ele>
        <time>2023-01-06T08:28:55.000Z</time>
      </trkpt>
      <trkpt lat="48.7901" lon="5.17154">
        <ele>273</ele>
        <time>2023-01-06T08:28:56.000Z</time>
      </trkpt>
      <trkpt lat="48.7901" lon="5.17156">
        <ele>273</ele>
        <time>2023-01-06T08:28:57.000Z</time>
      </trkpt>
      <trkpt lat="48.79009" lon="5.17158">
        <ele>273</ele>
        <time>2023-01-06T08:28:58.000Z</time>
      </trkpt>
      <trkpt lat="48.79009" lon="5.1716">
        <ele>273</ele>
        <time>2023-01-06T08:28:59.000Z</time>
      </trkpt>
      <trkpt lat="48.79008" lon="5.17162">
        <ele>273</ele>
        <time>2023-01-06T08:29:00.000Z</time>
      </trkpt>
      <trkpt lat="48.79008" lon="5.17164">
        <ele>273</ele>
        <time>2023-01-06T08:29:01.000Z</time>
      </trkpt>
      <trkpt lat="48.79007" lon="5.17166">
        <ele>273</ele>
        <time>2023-01-06T08:29:02.000Z</time>
      </trkpt>
      <trkpt lat="48.79007" lon="5.17167">
        <ele>273.3</ele>
        <time>2023-01-06T08:29:03.000Z</time>
      </trkpt>
      <trkpt lat="48.79007" lon="5.17169">
        <ele>273.7</ele>
        <time>2023-01-06T08:29:04.000Z</time>
      </trkpt>
      <trkpt lat="48.79006" lon="5.17171">
        <ele>274</ele>
        <time>2023-01-06T08:29:05.000Z</time>
      </trkpt>
      <trkpt lat="48.79006" lon="5.17172">
        <ele>274</ele>
        <time>2023-01-06T08:29:06.000Z</time>
      </trkpt>
      <trkpt lat="48.79005" lon="5.17174">
        <ele>274</ele>
        <time>2023-01-06T08:29:07.000Z</time>
      </trkpt>
      <trkpt lat="48.79005" lon="5.17176">
        <ele>274</ele>
        <time>2023-01-06T08:29:08.000Z</time>
      </trkpt>
      <trkpt lat="48.79004" lon="5.17178">
        <ele>274</ele>
        <time>2023-01-06T08:29:09.000Z</time>
      </trkpt>
      <trkpt lat="48.79004" lon="5.1718">
        <ele>274</ele>
        <time>2023-01-06T08:29:10.000Z</time>
      </trkpt>
      <trkpt lat="48.79004" lon="5.17181">
        <ele>274</ele>
        <time>2023-01-06T08:29:11.000Z</time>
      </trkpt>
      <trkpt lat="48.79003" lon="5.17183">
        <ele>274</ele>
        <time>2023-01-06T08:29:12.000Z</time>
      </trkpt>
      <trkpt lat="48.79003" lon="5.17185">
        <ele>274</ele>
        <time>2023-01-06T08:29:13.000Z</time>
      </trkpt>
      <trkpt lat="48.79002" lon="5.17187">
        <ele>274</ele>
        <time>2023-01-06T08:29:14.000Z</time>
      </trkpt>
      <trkpt lat="48.79001" lon="5.17189">
        <ele>274</ele>
        <time>2023-01-06T08:29:15.000Z</time>
      </trkpt>
      <trkpt lat="48.79001" lon="5.17191">
        <ele>274</ele>
        <time>2023-01-06T08:29:16.000Z</time>
      </trkpt>
      <trkpt lat="48.79" lon="5.17192">
        <ele>274</ele>
        <time>2023-01-06T08:29:17.000Z</time>
      </trkpt>
      <trkpt lat="48.78999" lon="5.17194">
        <ele>274</ele>
        <time>2023-01-06T08:29:18.000Z</time>
      </trkpt>
      <trkpt lat="48.78998" lon="5.17194">
        <ele>274</ele>
        <time>2023-01-06T08:29:19.000Z</time>
      </trkpt>
      <trkpt lat="48.78998" lon="5.17195">
        <ele>274</ele>
        <time>2023-01-06T08:29:20.000Z</time>
      </trkpt>
      <trkpt lat="48.78997" lon="5.17195">
        <ele>274</ele>
        <time>2023-01-06T08:29:21.000Z</time>
      </trkpt>
      <trkpt lat="48.78996" lon="5.17195">
        <ele>274</ele>
        <time>2023-01-06T08:29:22.000Z</time>
      </trkpt>
      <trkpt lat="48.78995" lon="5.17194">
        <ele>274</ele>
        <time>2023-01-06T08:29:23.000Z</time>
      </trkpt>
      <trkpt lat="48.78994" lon="5.17193">
        <ele>274</ele>
        <time>2023-01-06T08:29:24.000Z</time>
      </trkpt>
      <trkpt lat="48.78994" lon="5.17192">
        <ele>274</ele>
        <time>2023-01-06T08:29:25.000Z</time>
      </trkpt>
      <trkpt lat="48.78993" lon="5.17191">
        <ele>274</ele>
        <time>2023-01-06T08:29:26.000Z</time>
      </trkpt>
      <trkpt lat="48.78992" lon="5.17191">
        <ele>274.3</ele>
        <time>2023-01-06T08:29:27.000Z</time>
      </trkpt>
      <trkpt lat="48.78992" lon="5.1719">
        <ele>274.7</ele>
        <time>2023-01-06T08:29:28.000Z</time>
      </trkpt>
      <trkpt lat="48.78991" lon="5.17189">
        <ele>275</ele>
        <time>2023-01-06T08:29:29.000Z</time>
      </trkpt>
      <trkpt lat="48.78991" lon="5.17188">
        <ele>274.5</ele>
        <time>2023-01-06T08:29:30.000Z</time>
      </trkpt>
      <trkpt lat="48.7899" lon="5.17187">
        <ele>274</ele>
        <time>2023-01-06T08:29:31.000Z</time>
      </trkpt>
      <trkpt lat="48.7899" lon="5.17186">
        <ele>274</ele>
        <time>2023-01-06T08:29:32.000Z</time>
      </trkpt>
      <trkpt lat="48.78989" lon="5.17186">
        <ele>274</ele>
        <time>2023-01-06T08:29:33.000Z</time>
      </trkpt>
      <trkpt lat="48.78988" lon="5.17185">
        <ele>274</ele>
        <time>2023-01-06T08:29:34.000Z</time>
      </trkpt>
      <trkpt lat="48.78988" lon="5.17185">
        <ele>274</ele>
        <time>2023-01-06T08:29:35.000Z</time>
      </trkpt>
      <trkpt lat="48.78988" lon="5.17185">
        <ele>274</ele>
        <time>2023-01-06T08:29:36.000Z</time>
      </trkpt>
      <trkpt lat="48.78988" lon="5.17186">
        <ele>274</ele>
        <time>2023-01-06T08:29:37.000Z</time>
      </trkpt>
      <trkpt lat="48.78988" lon="5.17186">
        <ele>274</ele>
        <time>2023-01-06T08:29:38.000Z</time>
      </trkpt>
      <trkpt lat="48.78988" lon="5.17186">
        <ele>274</ele>
        <time>2023-01-06T08:29:39.000Z</time>
      </trkpt>
      <trkpt lat="48.78987" lon="5.17186">
        <ele>275</ele>
        <time>2023-01-06T08:29:40.000Z</time>
      </trkpt>
      <trkpt lat="48.78987" lon="5.17186">
        <ele>275</ele>
        <time>2023-01-06T08:29:41.000Z</time>
      </trkpt>
      <trkpt lat="48.78987" lon="5.17186">
        <ele>275</ele>
        <time>2023-01-06T08:29:42.000Z</time>
      </trkpt>
      <trkpt lat="48.78986" lon="5.17185">
        <ele>275</ele>
        <time>2023-01-06T08:29:43.000Z</time>
      </trkpt>
      <trkpt lat="48.78986" lon="5.17185">
        <ele>274.5</ele>
        <time>2023-01-06T08:29:44.000Z</time>
      </trkpt>
      <trkpt lat="48.78985" lon="5.17185">
        <ele>274</ele>
        <time>2023-01-06T08:29:45.000Z</time>
      </trkpt>
      <trkpt lat="48.78984" lon="5.17183">
        <ele>274</ele>
        <time>2023-01-06T08:29:46.000Z</time>
      </trkpt>
      <trkpt lat="48.78983" lon="5.17181">
        <ele>274</ele>
        <time>2023-01-06T08:29:47.000Z</time>
      </trkpt>
      <trkpt lat="48.78982" lon="5.1718">
        <ele>274</ele>
        <time>2023-01-06T08:29:48.000Z</time>
      </trkpt>
      <trkpt lat="48.78981" lon="5.17178">
        <ele>274</ele>
        <time>2023-01-06T08:29:49.000Z</time>
      </trkpt>
      <trkpt lat="48.78979" lon="5.17176">
        <ele>274</ele>
        <time>2023-01-06T08:29:50.000Z</time>
      </trkpt>
      <trkpt lat="48.78978" lon="5.17174">
        <ele>274</ele>
        <time>2023-01-06T08:29:51.000Z</time>
      </trkpt>
      <trkpt lat="48.78976" lon="5.17171">
        <ele>274</ele>
        <time>2023-01-06T08:29:52.000Z</time>
      </trkpt>
      <trkpt lat="48.78975" lon="5.17169">
        <ele>274</ele>
        <time>2023-01-06T08:29:53.000Z</time>
      </trkpt>
      <trkpt lat="48.78974" lon="5.17167">
        <ele>274</ele>
        <time>2023-01-06T08:29:54.000Z</time>
      </trkpt>
      <trkpt lat="48.78972" lon="5.17165">
        <ele>274</ele>
        <time>2023-01-06T08:29:55.000Z</time>
      </trkpt>
      <trkpt lat="48.78971" lon="5.17164">
        <ele>274</ele>
        <time>2023-01-06T08:29:56.000Z</time>
      </trkpt>
      <trkpt lat="48.78969" lon="5.17162">
        <ele>274</ele>
        <time>2023-01-06T08:29:57.000Z</time>
      </trkpt>
      <trkpt lat="48.78968" lon="5.17161">
        <ele>274</ele>
        <time>2023-01-06T08:29:58.000Z</time>
      </trkpt>
      <trkpt lat="48.78967" lon="5.1716">
        <ele>274</ele>
        <time>2023-01-06T08:29:59.000Z</time>
      </trkpt>
      <trkpt lat="48.78966" lon="5.17159">
        <ele>274</ele>
        <time>2023-01-06T08:30:00.000Z</time>
      </trkpt>
      <trkpt lat="48.78964" lon="5.17158">
        <ele>273.7</ele>
        <time>2023-01-06T08:30:01.000Z</time>
      </trkpt>
      <trkpt lat="48.78963" lon="5.17157">
        <ele>273.3</ele>
        <time>2023-01-06T08:30:02.000Z</time>
      </trkpt>
      <trkpt lat="48.78962" lon="5.17157">
        <ele>273</ele>
        <time>2023-01-06T08:30:03.000Z</time>
      </trkpt>
      <trkpt lat="48.7896" lon="5.17156">
        <ele>273</ele>
        <time>2023-01-06T08:30:04.000Z</time>
      </trkpt>
      <trkpt lat="48.78959" lon="5.17156">
        <ele>273</ele>
        <time>2023-01-06T08:30:05.000Z</time>
      </trkpt>
      <trkpt lat="48.78958" lon="5.17155">
        <ele>273</ele>
        <time>2023-01-06T08:30:06.000Z</time>
      </trkpt>
      <trkpt lat="48.78957" lon="5.17155">
        <ele>272.7</ele>
        <time>2023-01-06T08:30:07.000Z</time>
      </trkpt>
      <trkpt lat="48.78956" lon="5.17155">
        <ele>272.3</ele>
        <time>2023-01-06T08:30:08.000Z</time>
      </trkpt>
      <trkpt lat="48.78955" lon="5.17155">
        <ele>272</ele>
        <time>2023-01-06T08:30:09.000Z</time>
      </trkpt>
      <trkpt lat="48.78954" lon="5.17155">
        <ele>272</ele>
        <time>2023-01-06T08:30:10.000Z</time>
      </trkpt>
      <trkpt lat="48.78953" lon="5.17154">
        <ele>272</ele>
        <time>2023-01-06T08:30:11.000Z</time>
      </trkpt>
      <trkpt lat="48.78952" lon="5.17154">
        <ele>272</ele>
        <time>2023-01-06T08:30:12.000Z</time>
      </trkpt>
      <trkpt lat="48.78951" lon="5.17154">
        <ele>271.5</ele>
        <time>2023-01-06T08:30:13.000Z</time>
      </trkpt>
      <trkpt lat="48.78951" lon="5.17154">
        <ele>271</ele>
        <time>2023-01-06T08:30:14.000Z</time>
      </trkpt>
      <trkpt lat="48.7895" lon="5.17154">
        <ele>271</ele>
        <time>2023-01-06T08:30:15.000Z</time>
      </trkpt>
      <trkpt lat="48.78949" lon="5.17154">
        <ele>271</ele>
        <time>2023-01-06T08:30:16.000Z</time>
      </trkpt>
      <trkpt lat="48.78947" lon="5.17154">
        <ele>271</ele>
        <time>2023-01-06T08:30:17.000Z</time>
      </trkpt>
      <trkpt lat="48.78946" lon="5.17153">
        <ele>271</ele>
        <time>2023-01-06T08:30:18.000Z</time>
      </trkpt>
      <trkpt lat="48.78945" lon="5.17153">
        <ele>271</ele>
        <time>2023-01-06T08:30:19.000Z</time>
      </trkpt>
      <trkpt lat="48.78942" lon="5.17153">
        <ele>270</ele>
        <time>2023-01-06T08:30:20.000Z</time>
      </trkpt>
      <trkpt lat="48.7894" lon="5.17152">
        <ele>270</ele>
        <time>2023-01-06T08:30:21.000Z</time>
      </trkpt>
      <trkpt lat="48.78938" lon="5.17152">
        <ele>270</ele>
        <time>2023-01-06T08:30:22.000Z</time>
      </trkpt>
      <trkpt lat="48.78937" lon="5.17152">
        <ele>270</ele>
        <time>2023-01-06T08:30:23.000Z</time>
      </trkpt>
      <trkpt lat="48.78935" lon="5.17152">
        <ele>270</ele>
        <time>2023-01-06T08:30:24.000Z</time>
      </trkpt>
      <trkpt lat="48.78934" lon="5.17152">
        <ele>270</ele>
        <time>2023-01-06T08:30:25.000Z</time>
      </trkpt>
      <trkpt lat="48.78932" lon="5.17151">
        <ele>269.5</ele>
        <time>2023-01-06T08:30:26.000Z</time>
      </trkpt>
      <trkpt lat="48.78931" lon="5.17151">
        <ele>269</ele>
        <time>2023-01-06T08:30:27.000Z</time>
      </trkpt>
      <trkpt lat="48.78929" lon="5.1715">
        <ele>269</ele>
        <time>2023-01-06T08:30:28.000Z</time>
      </trkpt>
      <trkpt lat="48.78927" lon="5.17149">
        <ele>268.7</ele>
        <time>2023-01-06T08:30:29.000Z</time>
      </trkpt>
      <trkpt lat="48.78926" lon="5.17148">
        <ele>268.3</ele>
        <time>2023-01-06T08:30:30.000Z</time>
      </trkpt>
      <trkpt lat="48.78924" lon="5.17146">
        <ele>268</ele>
        <time>2023-01-06T08:30:31.000Z</time>
      </trkpt>
      <trkpt lat="48.78922" lon="5.17145">
        <ele>268</ele>
        <time>2023-01-06T08:30:32.000Z</time>
      </trkpt>
      <trkpt lat="48.78919" lon="5.17143">
        <ele>268</ele>
        <time>2023-01-06T08:30:33.000Z</time>
      </trkpt>
      <trkpt lat="48.78917" lon="5.17141">
        <ele>268</ele>
        <time>2023-01-06T08:30:34.000Z</time>
      </trkpt>
      <trkpt lat="48.78914" lon="5.1714">
        <ele>268</ele>
        <time>2023-01-06T08:30:35.000Z</time>
      </trkpt>
      <trkpt lat="48.78912" lon="5.17139">
        <ele>267</ele>
        <time>2023-01-06T08:30:36.000Z</time>
      </trkpt>
      <trkpt lat="48.7891" lon="5.17137">
        <ele>267</ele>
        <time>2023-01-06T08:30:37.000Z</time>
      </trkpt>
      <trkpt lat="48.78908" lon="5.17136">
        <ele>267</ele>
        <time>2023-01-06T08:30:38.000Z</time>
      </trkpt>
      <trkpt lat="48.78906" lon="5.17135">
        <ele>267</ele>
        <time>2023-01-06T08:30:39.000Z</time>
      </trkpt>
      <trkpt lat="48.78904" lon="5.17134">
        <ele>267</ele>
        <time>2023-01-06T08:30:40.000Z</time>
      </trkpt>
      <trkpt lat="48.78902" lon="5.17133">
        <ele>267</ele>
        <time>2023-01-06T08:30:41.000Z</time>
      </trkpt>
      <trkpt lat="48.789" lon="5.17132">
        <ele>266</ele>
        <time>2023-01-06T08:30:42.000Z</time>
      </trkpt>
      <trkpt lat="48.78898" lon="5.17131">
        <ele>266</ele>
        <time>2023-01-06T08:30:43.000Z</time>
      </trkpt>
      <trkpt lat="48.78896" lon="5.1713">
        <ele>266</ele>
        <time>2023-01-06T08:30:44.000Z</time>
      </trkpt>
      <trkpt lat="48.78894" lon="5.1713">
        <ele>266</ele>
        <time>2023-01-06T08:30:45.000Z</time>
      </trkpt>
      <trkpt lat="48.78892" lon="5.17129">
        <ele>266</ele>
        <time>2023-01-06T08:30:46.000Z</time>
      </trkpt>
      <trkpt lat="48.78891" lon="5.17128">
        <ele>266</ele>
        <time>2023-01-06T08:30:47.000Z</time>
      </trkpt>
      <trkpt lat="48.78889" lon="5.17128">
        <ele>266</ele>
        <time>2023-01-06T08:30:48.000Z</time>
      </trkpt>
      <trkpt lat="48.78887" lon="5.17127">
        <ele>265.7</ele>
        <time>2023-01-06T08:30:49.000Z</time>
      </trkpt>
      <trkpt lat="48.78885" lon="5.17126">
        <ele>265.3</ele>
        <time>2023-01-06T08:30:50.000Z</time>
      </trkpt>
      <trkpt lat="48.78883" lon="5.17126">
        <ele>265</ele>
        <time>2023-01-06T08:30:51.000Z</time>
      </trkpt>
      <trkpt lat="48.78881" lon="5.17125">
        <ele>265</ele>
        <time>2023-01-06T08:30:52.000Z</time>
      </trkpt>
      <trkpt lat="48.78879" lon="5.17124">
        <ele>265</ele>
        <time>2023-01-06T08:30:53.000Z</time>
      </trkpt>
      <trkpt lat="48.78877" lon="5.17123">
        <ele>264</ele>
        <time>2023-01-06T08:30:54.000Z</time>
      </trkpt>
      <trkpt lat="48.78875" lon="5.17122">
        <ele>264</ele>
        <time>2023-01-06T08:30:55.000Z</time>
      </trkpt>
      <trkpt lat="48.78874" lon="5.17121">
        <ele>264</ele>
        <time>2023-01-06T08:30:56.000Z</time>
      </trkpt>
      <trkpt lat="48.78872" lon="5.1712">
        <ele>264</ele>
        <time>2023-01-06T08:30:57.000Z</time>
      </trkpt>
      <trkpt lat="48.78871" lon="5.17119">
        <ele>264</ele>
        <time>2023-01-06T08:30:58.000Z</time>
      </trkpt>
      <trkpt lat="48.7887" lon="5.17118">
        <ele>264</ele>
        <time>2023-01-06T08:30:59.000Z</time>
      </trkpt>
      <trkpt lat="48.78869" lon="5.17118">
        <ele>264</ele>
        <time>2023-01-06T08:31:00.000Z</time>
      </trkpt>
      <trkpt lat="48.78868" lon="5.17117">
        <ele>264</ele>
        <time>2023-01-06T08:31:01.000Z</time>
      </trkpt>
      <trkpt lat="48.78867" lon="5.17116">
        <ele>264</ele>
        <time>2023-01-06T08:31:02.000Z</time>
      </trkpt>
      <trkpt lat="48.78867" lon="5.17115">
        <ele>263.7</ele>
        <time>2023-01-06T08:31:03.000Z</time>
      </trkpt>
      <trkpt lat="48.78866" lon="5.17115">
        <ele>263.3</ele>
        <time>2023-01-06T08:31:04.000Z</time>
      </trkpt>
      <trkpt lat="48.78865" lon="5.17114">
        <ele>263</ele>
        <time>2023-01-06T08:31:05.000Z</time>
      </trkpt>
      <trkpt lat="48.78864" lon="5.17113">
        <ele>263</ele>
        <time>2023-01-06T08:31:06.000Z</time>
      </trkpt>
      <trkpt lat="48.78863" lon="5.17113">
        <ele>263</ele>
        <time>2023-01-06T08:31:07.000Z</time>
      </trkpt>
      <trkpt lat="48.78862" lon="5.17112">
        <ele>262.5</ele>
        <time>2023-01-06T08:31:08.000Z</time>
      </trkpt>
      <trkpt lat="48.7886" lon="5.17111">
        <ele>262</ele>
        <time>2023-01-06T08:31:09.000Z</time>
      </trkpt>
      <trkpt lat="48.78859" lon="5.17109">
        <ele>262</ele>
        <time>2023-01-06T08:31:10.000Z</time>
      </trkpt>
      <trkpt lat="48.78857" lon="5.17108">
        <ele>261.7</ele>
        <time>2023-01-06T08:31:11.000Z</time>
      </trkpt>
      <trkpt lat="48.78856" lon="5.17107">
        <ele>261.3</ele>
        <time>2023-01-06T08:31:12.000Z</time>
      </trkpt>
      <trkpt lat="48.78854" lon="5.17106">
        <ele>261</ele>
        <time>2023-01-06T08:31:13.000Z</time>
      </trkpt>
      <trkpt lat="48.78852" lon="5.17104">
        <ele>261</ele>
        <time>2023-01-06T08:31:14.000Z</time>
      </trkpt>
      <trkpt lat="48.7885" lon="5.17102">
        <ele>260.7</ele>
        <time>2023-01-06T08:31:15.000Z</time>
      </trkpt>
      <trkpt lat="48.78848" lon="5.171">
        <ele>260.3</ele>
        <time>2023-01-06T08:31:16.000Z</time>
      </trkpt>
      <trkpt lat="48.78846" lon="5.17098">
        <ele>260</ele>
        <time>2023-01-06T08:31:17.000Z</time>
      </trkpt>
      <trkpt lat="48.78845" lon="5.17097">
        <ele>260</ele>
        <time>2023-01-06T08:31:18.000Z</time>
      </trkpt>
      <trkpt lat="48.78844" lon="5.17096">
        <ele>260</ele>
        <time>2023-01-06T08:31:19.000Z</time>
      </trkpt>
      <trkpt lat="48.78843" lon="5.17096">
        <ele>259</ele>
        <time>2023-01-06T08:31:20.000Z</time>
      </trkpt>
      <trkpt lat="48.78843" lon="5.17096">
        <ele>258.7</ele>
        <time>2023-01-06T08:31:21.000Z</time>
      </trkpt>
      <trkpt lat="48.78842" lon="5.17096">
        <ele>258.3</ele>
        <time>2023-01-06T08:31:22.000Z</time>
      </trkpt>
      <trkpt lat="48.78842" lon="5.17096">
        <ele>258</ele>
        <time>2023-01-06T08:31:23.000Z</time>
      </trkpt>
      <trkpt lat="48.78842" lon="5.17096">
        <ele>258</ele>
        <time>2023-01-06T08:31:24.000Z</time>
      </trkpt>
      <trkpt lat="48.78841" lon="5.17095">
        <ele>258</ele>
        <time>2023-01-06T08:31:25.000Z</time>
      </trkpt>
      <trkpt lat="48.78841" lon="5.17095">
        <ele>258</ele>
        <time>2023-01-06T08:31:26.000Z</time>
      </trkpt>
      <trkpt lat="48.78841" lon="5.17094">
        <ele>257.7</ele>
        <time>2023-01-06T08:31:27.000Z</time>
      </trkpt>
      <trkpt lat="48.7884" lon="5.17094">
        <ele>257.3</ele>
        <time>2023-01-06T08:31:28.000Z</time>
      </trkpt>
      <trkpt lat="48.7884" lon="5.17093">
        <ele>257</ele>
        <time>2023-01-06T08:31:29.000Z</time>
      </trkpt>
      <trkpt lat="48.78839" lon="5.17093">
        <ele>257</ele>
        <time>2023-01-06T08:31:30.000Z</time>
      </trkpt>
      <trkpt lat="48.78839" lon="5.17092">
        <ele>257</ele>
        <time>2023-01-06T08:31:31.000Z</time>
      </trkpt>
      <trkpt lat="48.78838" lon="5.17091">
        <ele>257</ele>
        <time>2023-01-06T08:31:32.000Z</time>
      </trkpt>
      <trkpt lat="48.78837" lon="5.17089">
        <ele>257</ele>
        <time>2023-01-06T08:31:33.000Z</time>
      </trkpt>
      <trkpt lat="48.78835" lon="5.17088">
        <ele>257</ele>
        <time>2023-01-06T08:31:34.000Z</time>
      </trkpt>
      <trkpt lat="48.78834" lon="5.17087">
        <ele>257</ele>
        <time>2023-01-06T08:31:35.000Z</time>
      </trkpt>
      <trkpt lat="48.78833" lon="5.17086">
        <ele>257</ele>
        <time>2023-01-06T08:31:36.000Z</time>
      </trkpt>
      <trkpt lat="48.78832" lon="5.17085">
        <ele>257</ele>
        <time>2023-01-06T08:31:37.000Z</time>
      </trkpt>
      <trkpt lat="48.78831" lon="5.17083">
        <ele>257</ele>
        <time>2023-01-06T08:31:38.000Z</time>
      </trkpt>
      <trkpt lat="48.7883" lon="5.17082">
        <ele>257</ele>
        <time>2023-01-06T08:31:39.000Z</time>
      </trkpt>
      <trkpt lat="48.78829" lon="5.1708">
        <ele>257</ele>
        <time>2023-01-06T08:31:40.000Z</time>
      </trkpt>
      <trkpt lat="48.78828" lon="5.17078">
        <ele>257</ele>
        <time>2023-01-06T08:31:41.000Z</time>
      </trkpt>
      <trkpt lat="48.78827" lon="5.17076">
        <ele>257</ele>
        <time>2023-01-06T08:31:42.000Z</time>
      </trkpt>
      <trkpt lat="48.78827" lon="5.17074">
        <ele>257</ele>
        <time>2023-01-06T08:31:43.000Z</time>
      </trkpt>
      <trkpt lat="48.78826" lon="5.17072">
        <ele>257</ele>
        <time>2023-01-06T08:31:44.000Z</time>
      </trkpt>
      <trkpt lat="48.78825" lon="5.1707">
        <ele>257</ele>
        <time>2023-01-06T08:31:45.000Z</time>
      </trkpt>
      <trkpt lat="48.78824" lon="5.17067">
        <ele>257</ele>
        <time>2023-01-06T08:31:46.000Z</time>
      </trkpt>
      <trkpt lat="48.78823" lon="5.17065">
        <ele>257</ele>
        <time>2023-01-06T08:31:47.000Z</time>
      </trkpt>
      <trkpt lat="48.78822" lon="5.17063">
        <ele>257</ele>
        <time>2023-01-06T08:31:48.000Z</time>
      </trkpt>
      <trkpt lat="48.78821" lon="5.17061">
        <ele>257</ele>
        <time>2023-01-06T08:31:49.000Z</time>
      </trkpt>
      <trkpt lat="48.78821" lon="5.17058">
        <ele>257</ele>
        <time>2023-01-06T08:31:50.000Z</time>
      </trkpt>
      <trkpt lat="48.7882" lon="5.17056">
        <ele>257</ele>
        <time>2023-01-06T08:31:51.000Z</time>
      </trkpt>
      <trkpt lat="48.7882" lon="5.17054">
        <ele>257</ele>
        <time>2023-01-06T08:31:52.000Z</time>
      </trkpt>
      <trkpt lat="48.78819" lon="5.17052">
        <ele>257</ele>
        <time>2023-01-06T08:31:53.000Z</time>
      </trkpt>
      <trkpt lat="48.78819" lon="5.1705">
        <ele>257</ele>
        <time>2023-01-06T08:31:54.000Z</time>
      </trkpt>
      <trkpt lat="48.78818" lon="5.17049">
        <ele>257</ele>
        <time>2023-01-06T08:31:55.000Z</time>
      </trkpt>
      <trkpt lat="48.78818" lon="5.17047">
        <ele>257</ele>
        <time>2023-01-06T08:31:56.000Z</time>
      </trkpt>
      <trkpt lat="48.78818" lon="5.17046">
        <ele>257</ele>
        <time>2023-01-06T08:31:57.000Z</time>
      </trkpt>
      <trkpt lat="48.78817" lon="5.17044">
        <ele>257</ele>
        <time>2023-01-06T08:31:58.000Z</time>
      </trkpt>
      <trkpt lat="48.78817" lon="5.17041">
        <ele>257</ele>
        <time>2023-01-06T08:31:59.000Z</time>
      </trkpt>
      <trkpt lat="48.78817" lon="5.17039">
        <ele>257</ele>
        <time>2023-01-06T08:32:00.000Z</time>
      </trkpt>
      <trkpt lat="48.78816" lon="5.17037">
        <ele>257</ele>
        <time>2023-01-06T08:32:01.000Z</time>
      </trkpt>
      <trkpt lat="48.78816" lon="5.17034">
        <ele>257</ele>
        <time>2023-01-06T08:32:02.000Z</time>
      </trkpt>
      <trkpt lat="48.78815" lon="5.17032">
        <ele>257</ele>
        <time>2023-01-06T08:32:03.000Z</time>
      </trkpt>
      <trkpt lat="48.78815" lon="5.17029">
        <ele>257</ele>
        <time>2023-01-06T08:32:04.000Z</time>
      </trkpt>
      <trkpt lat="48.78814" lon="5.17027">
        <ele>257</ele>
        <time>2023-01-06T08:32:05.000Z</time>
      </trkpt>
      <trkpt lat="48.78814" lon="5.17025">
        <ele>256.5</ele>
        <time>2023-01-06T08:32:06.000Z</time>
      </trkpt>
      <trkpt lat="48.78814" lon="5.17023">
        <ele>256</ele>
        <time>2023-01-06T08:32:07.000Z</time>
      </trkpt>
      <trkpt lat="48.78813" lon="5.1702">
        <ele>256</ele>
        <time>2023-01-06T08:32:08.000Z</time>
      </trkpt>
      <trkpt lat="48.78813" lon="5.17018">
        <ele>256</ele>
        <time>2023-01-06T08:32:09.000Z</time>
      </trkpt>
      <trkpt lat="48.78813" lon="5.17015">
        <ele>256</ele>
        <time>2023-01-06T08:32:10.000Z</time>
      </trkpt>
      <trkpt lat="48.78813" lon="5.17013">
        <ele>256</ele>
        <time>2023-01-06T08:32:11.000Z</time>
      </trkpt>
      <trkpt lat="48.78813" lon="5.1701">
        <ele>256</ele>
        <time>2023-01-06T08:32:12.000Z</time>
      </trkpt>
      <trkpt lat="48.78813" lon="5.17007">
        <ele>256</ele>
        <time>2023-01-06T08:32:13.000Z</time>
      </trkpt>
      <trkpt lat="48.78814" lon="5.17005">
        <ele>256</ele>
        <time>2023-01-06T08:32:14.000Z</time>
      </trkpt>
      <trkpt lat="48.78815" lon="5.17003">
        <ele>256</ele>
        <time>2023-01-06T08:32:15.000Z</time>
      </trkpt>
      <trkpt lat="48.78816" lon="5.17001">
        <ele>256</ele>
        <time>2023-01-06T08:32:16.000Z</time>
      </trkpt>
      <trkpt lat="48.78816" lon="5.16999">
        <ele>256</ele>
        <time>2023-01-06T08:32:17.000Z</time>
      </trkpt>
      <trkpt lat="48.78817" lon="5.16997">
        <ele>256</ele>
        <time>2023-01-06T08:32:18.000Z</time>
      </trkpt>
      <trkpt lat="48.78817" lon="5.16995">
        <ele>256</ele>
        <time>2023-01-06T08:32:19.000Z</time>
      </trkpt>
      <trkpt lat="48.78817" lon="5.16992">
        <ele>255</ele>
        <time>2023-01-06T08:32:20.000Z</time>
      </trkpt>
      <trkpt lat="48.78816" lon="5.1699">
        <ele>255</ele>
        <time>2023-01-06T08:32:21.000Z</time>
      </trkpt>
      <trkpt lat="48.78816" lon="5.16988">
        <ele>255</ele>
        <time>2023-01-06T08:32:22.000Z</time>
      </trkpt>
      <trkpt lat="48.78815" lon="5.16985">
        <ele>255</ele>
        <time>2023-01-06T08:32:23.000Z</time>
      </trkpt>
      <trkpt lat="48.78815" lon="5.16983">
        <ele>255</ele>
        <time>2023-01-06T08:32:24.000Z</time>
      </trkpt>
      <trkpt lat="48.78814" lon="5.16981">
        <ele>255</ele>
        <time>2023-01-06T08:32:25.000Z</time>
      </trkpt>
      <trkpt lat="48.78814" lon="5.16979">
        <ele>255</ele>
        <time>2023-01-06T08:32:26.000Z</time>
      </trkpt>
      <trkpt lat="48.78813" lon="5.16978">
        <ele>255</ele>
        <time>2023-01-06T08:32:27.000Z</time>
      </trkpt>
      <trkpt lat="48.78813" lon="5.16977">
        <ele>254</ele>
        <time>2023-01-06T08:32:28.000Z</time>
      </trkpt>
      <trkpt lat="48.78813" lon="5.16976">
        <ele>254</ele>
        <time>2023-01-06T08:32:29.000Z</time>
      </trkpt>
      <trkpt lat="48.78813" lon="5.16975">
        <ele>254</ele>
        <time>2023-01-06T08:32:30.000Z</time>
      </trkpt>
      <trkpt lat="48.78813" lon="5.16974">
        <ele>254</ele>
        <time>2023-01-06T08:32:31.000Z</time>
      </trkpt>
      <trkpt lat="48.78813" lon="5.16972">
        <ele>254</ele>
        <time>2023-01-06T08:32:32.000Z</time>
      </trkpt>
      <trkpt lat="48.78812" lon="5.1697">
        <ele>254</ele>
        <time>2023-01-06T08:32:33.000Z</time>
      </trkpt>
      <trkpt lat="48.78812" lon="5.16969">
        <ele>254</ele>
        <time>2023-01-06T08:32:34.000Z</time>
      </trkpt>
      <trkpt lat="48.78812" lon="5.16967">
        <ele>253.7</ele>
        <time>2023-01-06T08:32:35.000Z</time>
      </trkpt>
      <trkpt lat="48.78812" lon="5.16965">
        <ele>253.3</ele>
        <time>2023-01-06T08:32:36.000Z</time>
      </trkpt>
      <trkpt lat="48.78812" lon="5.16964">
        <ele>253</ele>
        <time>2023-01-06T08:32:37.000Z</time>
      </trkpt>
      <trkpt lat="48.78812" lon="5.16963">
        <ele>253</ele>
        <time>2023-01-06T08:32:38.000Z</time>
      </trkpt>
      <trkpt lat="48.78812" lon="5.16961">
        <ele>253</ele>
        <time>2023-01-06T08:32:39.000Z</time>
      </trkpt>
      <trkpt lat="48.78811" lon="5.1696">
        <ele>253</ele>
        <time>2023-01-06T08:32:40.000Z</time>
      </trkpt>
      <trkpt lat="48.78811" lon="5.16958">
        <ele>253</ele>
        <time>2023-01-06T08:32:41.000Z</time>
      </trkpt>
      <trkpt lat="48.78811" lon="5.16957">
        <ele>253</ele>
        <time>2023-01-06T08:32:42.000Z</time>
      </trkpt>
      <trkpt lat="48.7881" lon="5.16955">
        <ele>252.7</ele>
        <time>2023-01-06T08:32:43.000Z</time>
      </trkpt>
      <trkpt lat="48.78809" lon="5.16953">
        <ele>252.3</ele>
        <time>2023-01-06T08:32:44.000Z</time>
      </trkpt>
      <trkpt lat="48.78809" lon="5.16951">
        <ele>252</ele>
        <time>2023-01-06T08:32:45.000Z</time>
      </trkpt>
      <trkpt lat="48.78808" lon="5.16948">
        <ele>252</ele>
        <time>2023-01-06T08:32:46.000Z</time>
      </trkpt>
      <trkpt lat="48.78808" lon="5.16945">
        <ele>252</ele>
        <time>2023-01-06T08:32:47.000Z</time>
      </trkpt>
      <trkpt lat="48.78808" lon="5.16941">
        <ele>252</ele>
        <time>2023-01-06T08:32:48.000Z</time>
      </trkpt>
      <trkpt lat="48.78807" lon="5.16937">
        <ele>252</ele>
        <time>2023-01-06T08:32:49.000Z</time>
      </trkpt>
      <trkpt lat="48.78807" lon="5.16933">
        <ele>252</ele>
        <time>2023-01-06T08:32:50.000Z</time>
      </trkpt>
      <trkpt lat="48.78806" lon="5.16929">
        <ele>252</ele>
        <time>2023-01-06T08:32:51.000Z</time>
      </trkpt>
      <trkpt lat="48.78806" lon="5.16926">
        <ele>251.5</ele>
        <time>2023-01-06T08:32:52.000Z</time>
      </trkpt>
      <trkpt lat="48.78806" lon="5.16923">
        <ele>251</ele>
        <time>2023-01-06T08:32:53.000Z</time>
      </trkpt>
      <trkpt lat="48.78806" lon="5.1692">
        <ele>251</ele>
        <time>2023-01-06T08:32:54.000Z</time>
      </trkpt>
      <trkpt lat="48.78806" lon="5.16918">
        <ele>251</ele>
        <time>2023-01-06T08:32:55.000Z</time>
      </trkpt>
      <trkpt lat="48.78806" lon="5.16915">
        <ele>251</ele>
        <time>2023-01-06T08:32:56.000Z</time>
      </trkpt>
      <trkpt lat="48.78806" lon="5.16913">
        <ele>251</ele>
        <time>2023-01-06T08:32:57.000Z</time>
      </trkpt>
      <trkpt lat="48.78807" lon="5.16911">
        <ele>250.5</ele>
        <time>2023-01-06T08:32:58.000Z</time>
      </trkpt>
      <trkpt lat="48.78807" lon="5.16909">
        <ele>250</ele>
        <time>2023-01-06T08:32:59.000Z</time>
      </trkpt>
      <trkpt lat="48.78808" lon="5.16907">
        <ele>250</ele>
        <time>2023-01-06T08:33:00.000Z</time>
      </trkpt>
      <trkpt lat="48.78808" lon="5.16905">
        <ele>250</ele>
        <time>2023-01-06T08:33:01.000Z</time>
      </trkpt>
      <trkpt lat="48.78809" lon="5.16903">
        <ele>250</ele>
        <time>2023-01-06T08:33:02.000Z</time>
      </trkpt>
      <trkpt lat="48.78809" lon="5.16901">
        <ele>250</ele>
        <time>2023-01-06T08:33:03.000Z</time>
      </trkpt>
      <trkpt lat="48.7881" lon="5.16899">
        <ele>250</ele>
        <time>2023-01-06T08:33:04.000Z</time>
      </trkpt>
      <trkpt lat="48.7881" lon="5.16897">
        <ele>250</ele>
        <time>2023-01-06T08:33:05.000Z</time>
      </trkpt>
      <trkpt lat="48.78811" lon="5.16895">
        <ele>250</ele>
        <time>2023-01-06T08:33:06.000Z</time>
      </trkpt>
      <trkpt lat="48.78811" lon="5.16892">
        <ele>250</ele>
        <time>2023-01-06T08:33:07.000Z</time>
      </trkpt>
      <trkpt lat="48.78812" lon="5.16891">
        <ele>250</ele>
        <time>2023-01-06T08:33:08.000Z</time>
      </trkpt>
      <trkpt lat="48.78813" lon="5.16889">
        <ele>250</ele>
        <time>2023-01-06T08:33:09.000Z</time>
      </trkpt>
      <trkpt lat="48.78813" lon="5.16886">
        <ele>249</ele>
        <time>2023-01-06T08:33:10.000Z</time>
      </trkpt>
      <trkpt lat="48.78813" lon="5.16884">
        <ele>249</ele>
        <time>2023-01-06T08:33:11.000Z</time>
      </trkpt>
      <trkpt lat="48.78813" lon="5.16883">
        <ele>249</ele>
        <time>2023-01-06T08:33:12.000Z</time>
      </trkpt>
      <trkpt lat="48.78814" lon="5.16881">
        <ele>249</ele>
        <time>2023-01-06T08:33:13.000Z</time>
      </trkpt>
      <trkpt lat="48.78814" lon="5.16879">
        <ele>249</ele>
        <time>2023-01-06T08:33:14.000Z</time>
      </trkpt>
      <trkpt lat="48.78814" lon="5.16877">
        <ele>249</ele>
        <time>2023-01-06T08:33:15.000Z</time>
      </trkpt>
      <trkpt lat="48.78814" lon="5.16875">
        <ele>249</ele>
        <time>2023-01-06T08:33:16.000Z</time>
      </trkpt>
      <trkpt lat="48.78814" lon="5.16874">
        <ele>249</ele>
        <time>2023-01-06T08:33:17.000Z</time>
      </trkpt>
      <trkpt lat="48.78814" lon="5.16872">
        <ele>248</ele>
        <time>2023-01-06T08:33:18.000Z</time>
      </trkpt>
      <trkpt lat="48.78815" lon="5.16871">
        <ele>248</ele>
        <time>2023-01-06T08:33:19.000Z</time>
      </trkpt>
      <trkpt lat="48.78815" lon="5.1687">
        <ele>248</ele>
        <time>2023-01-06T08:33:20.000Z</time>
      </trkpt>
      <trkpt lat="48.78815" lon="5.16869">
        <ele>248</ele>
        <time>2023-01-06T08:33:21.000Z</time>
      </trkpt>
      <trkpt lat="48.78815" lon="5.16868">
        <ele>248</ele>
        <time>2023-01-06T08:33:22.000Z</time>
      </trkpt>
      <trkpt lat="48.78816" lon="5.16867">
        <ele>248</ele>
        <time>2023-01-06T08:33:23.000Z</time>
      </trkpt>
      <trkpt lat="48.78816" lon="5.16866">
        <ele>247</ele>
        <time>2023-01-06T08:33:24.000Z</time>
      </trkpt>
      <trkpt lat="48.78816" lon="5.16864">
        <ele>247</ele>
        <time>2023-01-06T08:33:25.000Z</time>
      </trkpt>
      <trkpt lat="48.78817" lon="5.16862">
        <ele>247</ele>
        <time>2023-01-06T08:33:26.000Z</time>
      </trkpt>
      <trkpt lat="48.78817" lon="5.16859">
        <ele>247</ele>
        <time>2023-01-06T08:33:27.000Z</time>
      </trkpt>
      <trkpt lat="48.78818" lon="5.16857">
        <ele>247</ele>
        <time>2023-01-06T08:33:28.000Z</time>
      </trkpt>
      <trkpt lat="48.78818" lon="5.16855">
        <ele>247</ele>
        <time>2023-01-06T08:33:29.000Z</time>
      </trkpt>
      <trkpt lat="48.78819" lon="5.16853">
        <ele>247</ele>
        <time>2023-01-06T08:33:30.000Z</time>
      </trkpt>
      <trkpt lat="48.78819" lon="5.1685">
        <ele>247</ele>
        <time>2023-01-06T08:33:31.000Z</time>
      </trkpt>
      <trkpt lat="48.7882" lon="5.16848">
        <ele>246.5</ele>
        <time>2023-01-06T08:33:32.000Z</time>
      </trkpt>
      <trkpt lat="48.7882" lon="5.16844">
        <ele>246</ele>
        <time>2023-01-06T08:33:33.000Z</time>
      </trkpt>
      <trkpt lat="48.78819" lon="5.1684">
        <ele>246</ele>
        <time>2023-01-06T08:33:34.000Z</time>
      </trkpt>
      <trkpt lat="48.78819" lon="5.16837">
        <ele>246</ele>
        <time>2023-01-06T08:33:35.000Z</time>
      </trkpt>
      <trkpt lat="48.78819" lon="5.16833">
        <ele>246</ele>
        <time>2023-01-06T08:33:36.000Z</time>
      </trkpt>
      <trkpt lat="48.78819" lon="5.1683">
        <ele>246</ele>
        <time>2023-01-06T08:33:37.000Z</time>
      </trkpt>
      <trkpt lat="48.7882" lon="5.16825">
        <ele>245.5</ele>
        <time>2023-01-06T08:33:38.000Z</time>
      </trkpt>
      <trkpt lat="48.7882" lon="5.16821">
        <ele>245</ele>
        <time>2023-01-06T08:33:39.000Z</time>
      </trkpt>
      <trkpt lat="48.78821" lon="5.16816">
        <ele>245</ele>
        <time>2023-01-06T08:33:40.000Z</time>
      </trkpt>
      <trkpt lat="48.78821" lon="5.16812">
        <ele>245</ele>
        <time>2023-01-06T08:33:41.000Z</time>
      </trkpt>
      <trkpt lat="48.78821" lon="5.16809">
        <ele>245</ele>
        <time>2023-01-06T08:33:42.000Z</time>
      </trkpt>
      <trkpt lat="48.78822" lon="5.16805">
        <ele>245</ele>
        <time>2023-01-06T08:33:43.000Z</time>
      </trkpt>
      <trkpt lat="48.78822" lon="5.16802">
        <ele>244</ele>
        <time>2023-01-06T08:33:44.000Z</time>
      </trkpt>
      <trkpt lat="48.78823" lon="5.16799">
        <ele>244</ele>
        <time>2023-01-06T08:33:45.000Z</time>
      </trkpt>
      <trkpt lat="48.78823" lon="5.16796">
        <ele>244</ele>
        <time>2023-01-06T08:33:46.000Z</time>
      </trkpt>
      <trkpt lat="48.78824" lon="5.16794">
        <ele>244</ele>
        <time>2023-01-06T08:33:47.000Z</time>
      </trkpt>
      <trkpt lat="48.78824" lon="5.16792">
        <ele>244</ele>
        <time>2023-01-06T08:33:48.000Z</time>
      </trkpt>
      <trkpt lat="48.78825" lon="5.1679">
        <ele>244</ele>
        <time>2023-01-06T08:33:49.000Z</time>
      </trkpt>
      <trkpt lat="48.78825" lon="5.16789">
        <ele>244</ele>
        <time>2023-01-06T08:33:50.000Z</time>
      </trkpt>
      <trkpt lat="48.78825" lon="5.16787">
        <ele>244</ele>
        <time>2023-01-06T08:33:51.000Z</time>
      </trkpt>
      <trkpt lat="48.78825" lon="5.16786">
        <ele>244</ele>
        <time>2023-01-06T08:33:52.000Z</time>
      </trkpt>
      <trkpt lat="48.78825" lon="5.16784">
        <ele>244</ele>
        <time>2023-01-06T08:33:53.000Z</time>
      </trkpt>
      <trkpt lat="48.78825" lon="5.16782">
        <ele>244</ele>
        <time>2023-01-06T08:33:54.000Z</time>
      </trkpt>
      <trkpt lat="48.78825" lon="5.1678">
        <ele>244</ele>
        <time>2023-01-06T08:33:55.000Z</time>
      </trkpt>
      <trkpt lat="48.78825" lon="5.16778">
        <ele>243.5</ele>
        <time>2023-01-06T08:33:56.000Z</time>
      </trkpt>
      <trkpt lat="48.78825" lon="5.16776">
        <ele>243</ele>
        <time>2023-01-06T08:33:57.000Z</time>
      </trkpt>
      <trkpt lat="48.78825" lon="5.16774">
        <ele>243</ele>
        <time>2023-01-06T08:33:58.000Z</time>
      </trkpt>
      <trkpt lat="48.78825" lon="5.16773">
        <ele>243</ele>
        <time>2023-01-06T08:33:59.000Z</time>
      </trkpt>
      <trkpt lat="48.78825" lon="5.16772">
        <ele>243</ele>
        <time>2023-01-06T08:34:00.000Z</time>
      </trkpt>
      <trkpt lat="48.78825" lon="5.1677">
        <ele>243</ele>
        <time>2023-01-06T08:34:01.000Z</time>
      </trkpt>
      <trkpt lat="48.78825" lon="5.16769">
        <ele>243</ele>
        <time>2023-01-06T08:34:02.000Z</time>
      </trkpt>
      <trkpt lat="48.78825" lon="5.16768">
        <ele>243</ele>
        <time>2023-01-06T08:34:03.000Z</time>
      </trkpt>
      <trkpt lat="48.78825" lon="5.16767">
        <ele>243</ele>
        <time>2023-01-06T08:34:04.000Z</time>
      </trkpt>
      <trkpt lat="48.78825" lon="5.16766">
        <ele>243</ele>
        <time>2023-01-06T08:34:05.000Z</time>
      </trkpt>
      <trkpt lat="48.78825" lon="5.16764">
        <ele>243</ele>
        <time>2023-01-06T08:34:06.000Z</time>
      </trkpt>
      <trkpt lat="48.78826" lon="5.16763">
        <ele>243</ele>
        <time>2023-01-06T08:34:07.000Z</time>
      </trkpt>
      <trkpt lat="48.78826" lon="5.16761">
        <ele>243</ele>
        <time>2023-01-06T08:34:08.000Z</time>
      </trkpt>
      <trkpt lat="48.78826" lon="5.16759">
        <ele>243</ele>
        <time>2023-01-06T08:34:09.000Z</time>
      </trkpt>
      <trkpt lat="48.78826" lon="5.16757">
        <ele>243</ele>
        <time>2023-01-06T08:34:10.000Z</time>
      </trkpt>
      <trkpt lat="48.78826" lon="5.16755">
        <ele>243</ele>
        <time>2023-01-06T08:34:11.000Z</time>
      </trkpt>
      <trkpt lat="48.78826" lon="5.16753">
        <ele>243</ele>
        <time>2023-01-06T08:34:12.000Z</time>
      </trkpt>
      <trkpt lat="48.78825" lon="5.16751">
        <ele>243</ele>
        <time>2023-01-06T08:34:13.000Z</time>
      </trkpt>
      <trkpt lat="48.78825" lon="5.16749">
        <ele>242.5</ele>
        <time>2023-01-06T08:34:14.000Z</time>
      </trkpt>
      <trkpt lat="48.78825" lon="5.16746">
        <ele>242</ele>
        <time>2023-01-06T08:34:15.000Z</time>
      </trkpt>
      <trkpt lat="48.78825" lon="5.16743">
        <ele>242</ele>
        <time>2023-01-06T08:34:16.000Z</time>
      </trkpt>
      <trkpt lat="48.78824" lon="5.1674">
        <ele>242</ele>
        <time>2023-01-06T08:34:17.000Z</time>
      </trkpt>
      <trkpt lat="48.78824" lon="5.16737">
        <ele>242</ele>
        <time>2023-01-06T08:34:18.000Z</time>
      </trkpt>
      <trkpt lat="48.78824" lon="5.16735">
        <ele>242</ele>
        <time>2023-01-06T08:34:19.000Z</time>
      </trkpt>
      <trkpt lat="48.78824" lon="5.16734">
        <ele>242</ele>
        <time>2023-01-06T08:34:20.000Z</time>
      </trkpt>
      <trkpt lat="48.78824" lon="5.16733">
        <ele>242</ele>
        <time>2023-01-06T08:34:21.000Z</time>
      </trkpt>
      <trkpt lat="48.78824" lon="5.16731">
        <ele>242</ele>
        <time>2023-01-06T08:34:22.000Z</time>
      </trkpt>
      <trkpt lat="48.78824" lon="5.16728">
        <ele>242</ele>
        <time>2023-01-06T08:34:23.000Z</time>
      </trkpt>
      <trkpt lat="48.78823" lon="5.16725">
        <ele>242</ele>
        <time>2023-01-06T08:34:24.000Z</time>
      </trkpt>
      <trkpt lat="48.78823" lon="5.16722">
        <ele>242</ele>
        <time>2023-01-06T08:34:25.000Z</time>
      </trkpt>
      <trkpt lat="48.78823" lon="5.1672">
        <ele>242</ele>
        <time>2023-01-06T08:34:26.000Z</time>
      </trkpt>
      <trkpt lat="48.78822" lon="5.16718">
        <ele>242</ele>
        <time>2023-01-06T08:34:27.000Z</time>
      </trkpt>
      <trkpt lat="48.78822" lon="5.16716">
        <ele>241.5</ele>
        <time>2023-01-06T08:34:28.000Z</time>
      </trkpt>
      <trkpt lat="48.78822" lon="5.16714">
        <ele>241</ele>
        <time>2023-01-06T08:34:29.000Z</time>
      </trkpt>
      <trkpt lat="48.78822" lon="5.16712">
        <ele>241</ele>
        <time>2023-01-06T08:34:30.000Z</time>
      </trkpt>
      <trkpt lat="48.78822" lon="5.1671">
        <ele>241</ele>
        <time>2023-01-06T08:34:31.000Z</time>
      </trkpt>
      <trkpt lat="48.78821" lon="5.16708">
        <ele>241</ele>
        <time>2023-01-06T08:34:32.000Z</time>
      </trkpt>
      <trkpt lat="48.78821" lon="5.16705">
        <ele>241</ele>
        <time>2023-01-06T08:34:33.000Z</time>
      </trkpt>
      <trkpt lat="48.78821" lon="5.16703">
        <ele>241</ele>
        <time>2023-01-06T08:34:34.000Z</time>
      </trkpt>
      <trkpt lat="48.78821" lon="5.16701">
        <ele>241</ele>
        <time>2023-01-06T08:34:35.000Z</time>
      </trkpt>
      <trkpt lat="48.78821" lon="5.16699">
        <ele>241</ele>
        <time>2023-01-06T08:34:36.000Z</time>
      </trkpt>
      <trkpt lat="48.7882" lon="5.16697">
        <ele>241</ele>
        <time>2023-01-06T08:34:37.000Z</time>
      </trkpt>
      <trkpt lat="48.7882" lon="5.16695">
        <ele>240</ele>
        <time>2023-01-06T08:34:38.000Z</time>
      </trkpt>
      <trkpt lat="48.7882" lon="5.16693">
        <ele>240</ele>
        <time>2023-01-06T08:34:39.000Z</time>
      </trkpt>
      <trkpt lat="48.7882" lon="5.1669">
        <ele>240</ele>
        <time>2023-01-06T08:34:40.000Z</time>
      </trkpt>
      <trkpt lat="48.7882" lon="5.16685">
        <ele>240</ele>
        <time>2023-01-06T08:34:41.000Z</time>
      </trkpt>
      <trkpt lat="48.7882" lon="5.16683">
        <ele>240</ele>
        <time>2023-01-06T08:34:42.000Z</time>
      </trkpt>
      <trkpt lat="48.7882" lon="5.16681">
        <ele>240</ele>
        <time>2023-01-06T08:34:43.000Z</time>
      </trkpt>
      <trkpt lat="48.78819" lon="5.1668">
        <ele>240</ele>
        <time>2023-01-06T08:34:44.000Z</time>
      </trkpt>
      <trkpt lat="48.78819" lon="5.16679">
        <ele>240</ele>
        <time>2023-01-06T08:34:45.000Z</time>
      </trkpt>
      <trkpt lat="48.78818" lon="5.16677">
        <ele>239.5</ele>
        <time>2023-01-06T08:34:46.000Z</time>
      </trkpt>
      <trkpt lat="48.78818" lon="5.16675">
        <ele>239</ele>
        <time>2023-01-06T08:34:47.000Z</time>
      </trkpt>
      <trkpt lat="48.78818" lon="5.16672">
        <ele>239</ele>
        <time>2023-01-06T08:34:48.000Z</time>
      </trkpt>
      <trkpt lat="48.78818" lon="5.1667">
        <ele>239</ele>
        <time>2023-01-06T08:34:49.000Z</time>
      </trkpt>
      <trkpt lat="48.78818" lon="5.16668">
        <ele>239</ele>
        <time>2023-01-06T08:34:50.000Z</time>
      </trkpt>
      <trkpt lat="48.78817" lon="5.16665">
        <ele>239</ele>
        <time>2023-01-06T08:34:51.000Z</time>
      </trkpt>
      <trkpt lat="48.78817" lon="5.16663">
        <ele>238.5</ele>
        <time>2023-01-06T08:34:52.000Z</time>
      </trkpt>
      <trkpt lat="48.78817" lon="5.1666">
        <ele>238</ele>
        <time>2023-01-06T08:34:53.000Z</time>
      </trkpt>
      <trkpt lat="48.78817" lon="5.16658">
        <ele>238</ele>
        <time>2023-01-06T08:34:54.000Z</time>
      </trkpt>
      <trkpt lat="48.78816" lon="5.16656">
        <ele>238</ele>
        <time>2023-01-06T08:34:55.000Z</time>
      </trkpt>
      <trkpt lat="48.78816" lon="5.16654">
        <ele>238</ele>
        <time>2023-01-06T08:34:56.000Z</time>
      </trkpt>
      <trkpt lat="48.78816" lon="5.16652">
        <ele>238</ele>
        <time>2023-01-06T08:34:57.000Z</time>
      </trkpt>
      <trkpt lat="48.78815" lon="5.16649">
        <ele>238</ele>
        <time>2023-01-06T08:34:58.000Z</time>
      </trkpt>
      <trkpt lat="48.78814" lon="5.16647">
        <ele>238</ele>
        <time>2023-01-06T08:34:59.000Z</time>
      </trkpt>
      <trkpt lat="48.78813" lon="5.16644">
        <ele>238</ele>
        <time>2023-01-06T08:35:00.000Z</time>
      </trkpt>
      <trkpt lat="48.78812" lon="5.16641">
        <ele>238</ele>
        <time>2023-01-06T08:35:01.000Z</time>
      </trkpt>
      <trkpt lat="48.78812" lon="5.16639">
        <ele>237.5</ele>
        <time>2023-01-06T08:35:02.000Z</time>
      </trkpt>
      <trkpt lat="48.78811" lon="5.16636">
        <ele>237</ele>
        <time>2023-01-06T08:35:03.000Z</time>
      </trkpt>
      <trkpt lat="48.7881" lon="5.16633">
        <ele>237</ele>
        <time>2023-01-06T08:35:04.000Z</time>
      </trkpt>
      <trkpt lat="48.7881" lon="5.16631">
        <ele>237</ele>
        <time>2023-01-06T08:35:05.000Z</time>
      </trkpt>
      <trkpt lat="48.78809" lon="5.16628">
        <ele>237</ele>
        <time>2023-01-06T08:35:06.000Z</time>
      </trkpt>
      <trkpt lat="48.78809" lon="5.16625">
        <ele>237</ele>
        <time>2023-01-06T08:35:07.000Z</time>
      </trkpt>
      <trkpt lat="48.78808" lon="5.16623">
        <ele>237</ele>
        <time>2023-01-06T08:35:08.000Z</time>
      </trkpt>
      <trkpt lat="48.78808" lon="5.1662">
        <ele>237</ele>
        <time>2023-01-06T08:35:09.000Z</time>
      </trkpt>
      <trkpt lat="48.78807" lon="5.16618">
        <ele>237</ele>
        <time>2023-01-06T08:35:10.000Z</time>
      </trkpt>
      <trkpt lat="48.78807" lon="5.16616">
        <ele>237</ele>
        <time>2023-01-06T08:35:11.000Z</time>
      </trkpt>
      <trkpt lat="48.78806" lon="5.16613">
        <ele>237</ele>
        <time>2023-01-06T08:35:12.000Z</time>
      </trkpt>
      <trkpt lat="48.78806" lon="5.16611">
        <ele>237</ele>
        <time>2023-01-06T08:35:13.000Z</time>
      </trkpt>
      <trkpt lat="48.78805" lon="5.16609">
        <ele>237</ele>
        <time>2023-01-06T08:35:14.000Z</time>
      </trkpt>
      <trkpt lat="48.78805" lon="5.16606">
        <ele>237</ele>
        <time>2023-01-06T08:35:15.000Z</time>
      </trkpt>
      <trkpt lat="48.78805" lon="5.16604">
        <ele>237</ele>
        <time>2023-01-06T08:35:16.000Z</time>
      </trkpt>
      <trkpt lat="48.78805" lon="5.16602">
        <ele>237</ele>
        <time>2023-01-06T08:35:17.000Z</time>
      </trkpt>
      <trkpt lat="48.78805" lon="5.16601">
        <ele>237</ele>
        <time>2023-01-06T08:35:18.000Z</time>
      </trkpt>
      <trkpt lat="48.78805" lon="5.16599">
        <ele>237</ele>
        <time>2023-01-06T08:35:19.000Z</time>
      </trkpt>
      <trkpt lat="48.78806" lon="5.16595">
        <ele>237</ele>
        <time>2023-01-06T08:35:20.000Z</time>
      </trkpt>
      <trkpt lat="48.78806" lon="5.16592">
        <ele>237</ele>
        <time>2023-01-06T08:35:21.000Z</time>
      </trkpt>
      <trkpt lat="48.78806" lon="5.1659">
        <ele>237</ele>
        <time>2023-01-06T08:35:22.000Z</time>
      </trkpt>
      <trkpt lat="48.78807" lon="5.16588">
        <ele>237</ele>
        <time>2023-01-06T08:35:23.000Z</time>
      </trkpt>
      <trkpt lat="48.78807" lon="5.16586">
        <ele>237</ele>
        <time>2023-01-06T08:35:24.000Z</time>
      </trkpt>
      <trkpt lat="48.78807" lon="5.16583">
        <ele>237</ele>
        <time>2023-01-06T08:35:25.000Z</time>
      </trkpt>
      <trkpt lat="48.78807" lon="5.16581">
        <ele>237</ele>
        <time>2023-01-06T08:35:26.000Z</time>
      </trkpt>
      <trkpt lat="48.78808" lon="5.16578">
        <ele>237</ele>
        <time>2023-01-06T08:35:27.000Z</time>
      </trkpt>
      <trkpt lat="48.78808" lon="5.16576">
        <ele>237</ele>
        <time>2023-01-06T08:35:28.000Z</time>
      </trkpt>
      <trkpt lat="48.78809" lon="5.16575">
        <ele>237</ele>
        <time>2023-01-06T08:35:29.000Z</time>
      </trkpt>
      <trkpt lat="48.78811" lon="5.16573">
        <ele>237</ele>
        <time>2023-01-06T08:35:30.000Z</time>
      </trkpt>
      <trkpt lat="48.78811" lon="5.16571">
        <ele>237</ele>
        <time>2023-01-06T08:35:31.000Z</time>
      </trkpt>
      <trkpt lat="48.78812" lon="5.16568">
        <ele>237</ele>
        <time>2023-01-06T08:35:32.000Z</time>
      </trkpt>
      <trkpt lat="48.78813" lon="5.16565">
        <ele>237</ele>
        <time>2023-01-06T08:35:33.000Z</time>
      </trkpt>
      <trkpt lat="48.78813" lon="5.16562">
        <ele>236.5</ele>
        <time>2023-01-06T08:35:34.000Z</time>
      </trkpt>
      <trkpt lat="48.78813" lon="5.16559">
        <ele>236</ele>
        <time>2023-01-06T08:35:35.000Z</time>
      </trkpt>
      <trkpt lat="48.78813" lon="5.16556">
        <ele>236</ele>
        <time>2023-01-06T08:35:36.000Z</time>
      </trkpt>
      <trkpt lat="48.78813" lon="5.16553">
        <ele>236</ele>
        <time>2023-01-06T08:35:37.000Z</time>
      </trkpt>
      <trkpt lat="48.78813" lon="5.16551">
        <ele>236</ele>
        <time>2023-01-06T08:35:38.000Z</time>
      </trkpt>
      <trkpt lat="48.78813" lon="5.16548">
        <ele>236</ele>
        <time>2023-01-06T08:35:39.000Z</time>
      </trkpt>
      <trkpt lat="48.78813" lon="5.16546">
        <ele>236</ele>
        <time>2023-01-06T08:35:40.000Z</time>
      </trkpt>
      <trkpt lat="48.78813" lon="5.16544">
        <ele>235.7</ele>
        <time>2023-01-06T08:35:41.000Z</time>
      </trkpt>
      <trkpt lat="48.78813" lon="5.16542">
        <ele>235.3</ele>
        <time>2023-01-06T08:35:42.000Z</time>
      </trkpt>
      <trkpt lat="48.78813" lon="5.1654">
        <ele>235</ele>
        <time>2023-01-06T08:35:43.000Z</time>
      </trkpt>
      <trkpt lat="48.78813" lon="5.16538">
        <ele>235</ele>
        <time>2023-01-06T08:35:44.000Z</time>
      </trkpt>
      <trkpt lat="48.78813" lon="5.16536">
        <ele>235</ele>
        <time>2023-01-06T08:35:45.000Z</time>
      </trkpt>
      <trkpt lat="48.78813" lon="5.16534">
        <ele>235</ele>
        <time>2023-01-06T08:35:46.000Z</time>
      </trkpt>
      <trkpt lat="48.78813" lon="5.16533">
        <ele>235</ele>
        <time>2023-01-06T08:35:47.000Z</time>
      </trkpt>
      <trkpt lat="48.78813" lon="5.16531">
        <ele>235</ele>
        <time>2023-01-06T08:35:48.000Z</time>
      </trkpt>
      <trkpt lat="48.78813" lon="5.16529">
        <ele>235</ele>
        <time>2023-01-06T08:35:49.000Z</time>
      </trkpt>
      <trkpt lat="48.78813" lon="5.16528">
        <ele>234.5</ele>
        <time>2023-01-06T08:35:50.000Z</time>
      </trkpt>
      <trkpt lat="48.78813" lon="5.16526">
        <ele>234</ele>
        <time>2023-01-06T08:35:51.000Z</time>
      </trkpt>
      <trkpt lat="48.78812" lon="5.16525">
        <ele>234</ele>
        <time>2023-01-06T08:35:52.000Z</time>
      </trkpt>
      <trkpt lat="48.78812" lon="5.16524">
        <ele>234</ele>
        <time>2023-01-06T08:35:53.000Z</time>
      </trkpt>
      <trkpt lat="48.78812" lon="5.16523">
        <ele>234</ele>
        <time>2023-01-06T08:35:54.000Z</time>
      </trkpt>
      <trkpt lat="48.78812" lon="5.16522">
        <ele>234</ele>
        <time>2023-01-06T08:35:55.000Z</time>
      </trkpt>
      <trkpt lat="48.78811" lon="5.16521">
        <ele>233</ele>
        <time>2023-01-06T08:35:56.000Z</time>
      </trkpt>
      <trkpt lat="48.78811" lon="5.16519">
        <ele>233</ele>
        <time>2023-01-06T08:35:57.000Z</time>
      </trkpt>
      <trkpt lat="48.78811" lon="5.16518">
        <ele>233</ele>
        <time>2023-01-06T08:35:58.000Z</time>
      </trkpt>
      <trkpt lat="48.78811" lon="5.16516">
        <ele>233</ele>
        <time>2023-01-06T08:35:59.000Z</time>
      </trkpt>
      <trkpt lat="48.78812" lon="5.16515">
        <ele>233</ele>
        <time>2023-01-06T08:36:00.000Z</time>
      </trkpt>
      <trkpt lat="48.78812" lon="5.16513">
        <ele>233</ele>
        <time>2023-01-06T08:36:01.000Z</time>
      </trkpt>
      <trkpt lat="48.78812" lon="5.16512">
        <ele>233</ele>
        <time>2023-01-06T08:36:02.000Z</time>
      </trkpt>
      <trkpt lat="48.78812" lon="5.1651">
        <ele>233</ele>
        <time>2023-01-06T08:36:03.000Z</time>
      </trkpt>
      <trkpt lat="48.78812" lon="5.16509">
        <ele>232.5</ele>
        <time>2023-01-06T08:36:04.000Z</time>
      </trkpt>
      <trkpt lat="48.78812" lon="5.16509">
        <ele>232</ele>
        <time>2023-01-06T08:36:05.000Z</time>
      </trkpt>
      <trkpt lat="48.78812" lon="5.16507">
        <ele>232</ele>
        <time>2023-01-06T08:36:06.000Z</time>
      </trkpt>
      <trkpt lat="48.78812" lon="5.16504">
        <ele>232</ele>
        <time>2023-01-06T08:36:07.000Z</time>
      </trkpt>
      <trkpt lat="48.78812" lon="5.16501">
        <ele>232</ele>
        <time>2023-01-06T08:36:08.000Z</time>
      </trkpt>
      <trkpt lat="48.78812" lon="5.16498">
        <ele>232</ele>
        <time>2023-01-06T08:36:09.000Z</time>
      </trkpt>
      <trkpt lat="48.78812" lon="5.16496">
        <ele>232</ele>
        <time>2023-01-06T08:36:10.000Z</time>
      </trkpt>
      <trkpt lat="48.78812" lon="5.16493">
        <ele>232</ele>
        <time>2023-01-06T08:36:11.000Z</time>
      </trkpt>
      <trkpt lat="48.78813" lon="5.16491">
        <ele>232</ele>
        <time>2023-01-06T08:36:12.000Z</time>
      </trkpt>
      <trkpt lat="48.78813" lon="5.16488">
        <ele>232</ele>
        <time>2023-01-06T08:36:13.000Z</time>
      </trkpt>
      <trkpt lat="48.78812" lon="5.16484">
        <ele>231</ele>
        <time>2023-01-06T08:36:14.000Z</time>
      </trkpt>
      <trkpt lat="48.78812" lon="5.16481">
        <ele>231</ele>
        <time>2023-01-06T08:36:15.000Z</time>
      </trkpt>
      <trkpt lat="48.78812" lon="5.16478">
        <ele>231</ele>
        <time>2023-01-06T08:36:16.000Z</time>
      </trkpt>
      <trkpt lat="48.78811" lon="5.16476">
        <ele>231</ele>
        <time>2023-01-06T08:36:17.000Z</time>
      </trkpt>
      <trkpt lat="48.78811" lon="5.16473">
        <ele>231</ele>
        <time>2023-01-06T08:36:18.000Z</time>
      </trkpt>
      <trkpt lat="48.78811" lon="5.16471">
        <ele>231</ele>
        <time>2023-01-06T08:36:19.000Z</time>
      </trkpt>
      <trkpt lat="48.7881" lon="5.16469">
        <ele>231</ele>
        <time>2023-01-06T08:36:20.000Z</time>
      </trkpt>
      <trkpt lat="48.7881" lon="5.16466">
        <ele>231</ele>
        <time>2023-01-06T08:36:21.000Z</time>
      </trkpt>
      <trkpt lat="48.78809" lon="5.16464">
        <ele>231</ele>
        <time>2023-01-06T08:36:22.000Z</time>
      </trkpt>
      <trkpt lat="48.78809" lon="5.16461">
        <ele>231</ele>
        <time>2023-01-06T08:36:23.000Z</time>
      </trkpt>
      <trkpt lat="48.78809" lon="5.16459">
        <ele>230.5</ele>
        <time>2023-01-06T08:36:24.000Z</time>
      </trkpt>
      <trkpt lat="48.78809" lon="5.16456">
        <ele>230</ele>
        <time>2023-01-06T08:36:25.000Z</time>
      </trkpt>
      <trkpt lat="48.78808" lon="5.16454">
        <ele>230</ele>
        <time>2023-01-06T08:36:26.000Z</time>
      </trkpt>
      <trkpt lat="48.78808" lon="5.16451">
        <ele>230</ele>
        <time>2023-01-06T08:36:27.000Z</time>
      </trkpt>
      <trkpt lat="48.78808" lon="5.16448">
        <ele>230</ele>
        <time>2023-01-06T08:36:28.000Z</time>
      </trkpt>
      <trkpt lat="48.78807" lon="5.16446">
        <ele>230</ele>
        <time>2023-01-06T08:36:29.000Z</time>
      </trkpt>
      <trkpt lat="48.78807" lon="5.16444">
        <ele>230</ele>
        <time>2023-01-06T08:36:30.000Z</time>
      </trkpt>
      <trkpt lat="48.78807" lon="5.16442">
        <ele>230</ele>
        <time>2023-01-06T08:36:31.000Z</time>
      </trkpt>
      <trkpt lat="48.78807" lon="5.16439">
        <ele>230</ele>
        <time>2023-01-06T08:36:32.000Z</time>
      </trkpt>
      <trkpt lat="48.78807" lon="5.16435">
        <ele>230</ele>
        <time>2023-01-06T08:36:33.000Z</time>
      </trkpt>
      <trkpt lat="48.78807" lon="5.16431">
        <ele>230</ele>
        <time>2023-01-06T08:36:34.000Z</time>
      </trkpt>
      <trkpt lat="48.78807" lon="5.16426">
        <ele>229</ele>
        <time>2023-01-06T08:36:35.000Z</time>
      </trkpt>
      <trkpt lat="48.78806" lon="5.16422">
        <ele>229</ele>
        <time>2023-01-06T08:36:36.000Z</time>
      </trkpt>
      <trkpt lat="48.78806" lon="5.16419">
        <ele>229</ele>
        <time>2023-01-06T08:36:37.000Z</time>
      </trkpt>
      <trkpt lat="48.78806" lon="5.16417">
        <ele>229</ele>
        <time>2023-01-06T08:36:38.000Z</time>
      </trkpt>
      <trkpt lat="48.78806" lon="5.16414">
        <ele>229</ele>
        <time>2023-01-06T08:36:39.000Z</time>
      </trkpt>
      <trkpt lat="48.78805" lon="5.16412">
        <ele>229</ele>
        <time>2023-01-06T08:36:40.000Z</time>
      </trkpt>
      <trkpt lat="48.78805" lon="5.1641">
        <ele>229</ele>
        <time>2023-01-06T08:36:41.000Z</time>
      </trkpt>
      <trkpt lat="48.78804" lon="5.16407">
        <ele>229</ele>
        <time>2023-01-06T08:36:42.000Z</time>
      </trkpt>
      <trkpt lat="48.78804" lon="5.16405">
        <ele>229</ele>
        <time>2023-01-06T08:36:43.000Z</time>
      </trkpt>
      <trkpt lat="48.78804" lon="5.16402">
        <ele>228</ele>
        <time>2023-01-06T08:36:44.000Z</time>
      </trkpt>
      <trkpt lat="48.78803" lon="5.164">
        <ele>228</ele>
        <time>2023-01-06T08:36:45.000Z</time>
      </trkpt>
      <trkpt lat="48.78803" lon="5.16397">
        <ele>228</ele>
        <time>2023-01-06T08:36:46.000Z</time>
      </trkpt>
      <trkpt lat="48.78803" lon="5.16395">
        <ele>228</ele>
        <time>2023-01-06T08:36:47.000Z</time>
      </trkpt>
      <trkpt lat="48.78803" lon="5.16393">
        <ele>228</ele>
        <time>2023-01-06T08:36:48.000Z</time>
      </trkpt>
      <trkpt lat="48.78803" lon="5.1639">
        <ele>228</ele>
        <time>2023-01-06T08:36:49.000Z</time>
      </trkpt>
      <trkpt lat="48.78803" lon="5.16387">
        <ele>228</ele>
        <time>2023-01-06T08:36:50.000Z</time>
      </trkpt>
      <trkpt lat="48.78804" lon="5.16384">
        <ele>227.7</ele>
        <time>2023-01-06T08:36:51.000Z</time>
      </trkpt>
      <trkpt lat="48.78804" lon="5.16382">
        <ele>227.3</ele>
        <time>2023-01-06T08:36:52.000Z</time>
      </trkpt>
      <trkpt lat="48.78804" lon="5.16381">
        <ele>227</ele>
        <time>2023-01-06T08:36:53.000Z</time>
      </trkpt>
      <trkpt lat="48.78804" lon="5.16379">
        <ele>227</ele>
        <time>2023-01-06T08:36:54.000Z</time>
      </trkpt>
      <trkpt lat="48.78803" lon="5.16377">
        <ele>227</ele>
        <time>2023-01-06T08:36:55.000Z</time>
      </trkpt>
      <trkpt lat="48.78803" lon="5.16375">
        <ele>226</ele>
        <time>2023-01-06T08:36:56.000Z</time>
      </trkpt>
      <trkpt lat="48.78802" lon="5.16372">
        <ele>226</ele>
        <time>2023-01-06T08:36:57.000Z</time>
      </trkpt>
      <trkpt lat="48.78801" lon="5.1637">
        <ele>226</ele>
        <time>2023-01-06T08:36:58.000Z</time>
      </trkpt>
      <trkpt lat="48.788" lon="5.16368">
        <ele>226</ele>
        <time>2023-01-06T08:36:59.000Z</time>
      </trkpt>
      <trkpt lat="48.788" lon="5.16365">
        <ele>226</ele>
        <time>2023-01-06T08:37:00.000Z</time>
      </trkpt>
      <trkpt lat="48.78799" lon="5.16362">
        <ele>225.7</ele>
        <time>2023-01-06T08:37:01.000Z</time>
      </trkpt>
      <trkpt lat="48.78799" lon="5.16359">
        <ele>225.3</ele>
        <time>2023-01-06T08:37:02.000Z</time>
      </trkpt>
      <trkpt lat="48.78799" lon="5.16357">
        <ele>225</ele>
        <time>2023-01-06T08:37:03.000Z</time>
      </trkpt>
      <trkpt lat="48.78799" lon="5.16355">
        <ele>225</ele>
        <time>2023-01-06T08:37:04.000Z</time>
      </trkpt>
      <trkpt lat="48.78799" lon="5.16353">
        <ele>225</ele>
        <time>2023-01-06T08:37:05.000Z</time>
      </trkpt>
      <trkpt lat="48.78799" lon="5.16352">
        <ele>225</ele>
        <time>2023-01-06T08:37:06.000Z</time>
      </trkpt>
      <trkpt lat="48.78799" lon="5.16351">
        <ele>225</ele>
        <time>2023-01-06T08:37:07.000Z</time>
      </trkpt>
      <trkpt lat="48.78799" lon="5.16351">
        <ele>224</ele>
        <time>2023-01-06T08:37:08.000Z</time>
      </trkpt>
      <trkpt lat="48.78799" lon="5.1635">
        <ele>224</ele>
        <time>2023-01-06T08:37:09.000Z</time>
      </trkpt>
      <trkpt lat="48.78799" lon="5.16348">
        <ele>224</ele>
        <time>2023-01-06T08:37:10.000Z</time>
      </trkpt>
      <trkpt lat="48.78799" lon="5.16347">
        <ele>224</ele>
        <time>2023-01-06T08:37:11.000Z</time>
      </trkpt>
      <trkpt lat="48.78799" lon="5.16345">
        <ele>224</ele>
        <time>2023-01-06T08:37:12.000Z</time>
      </trkpt>
      <trkpt lat="48.78799" lon="5.16344">
        <ele>224</ele>
        <time>2023-01-06T08:37:13.000Z</time>
      </trkpt>
      <trkpt lat="48.78799" lon="5.16342">
        <ele>224</ele>
        <time>2023-01-06T08:37:14.000Z</time>
      </trkpt>
      <trkpt lat="48.78798" lon="5.16341">
        <ele>224</ele>
        <time>2023-01-06T08:37:15.000Z</time>
      </trkpt>
      <trkpt lat="48.78798" lon="5.1634">
        <ele>224</ele>
        <time>2023-01-06T08:37:16.000Z</time>
      </trkpt>
      <trkpt lat="48.78798" lon="5.16338">
        <ele>224</ele>
        <time>2023-01-06T08:37:17.000Z</time>
      </trkpt>
      <trkpt lat="48.78797" lon="5.16336">
        <ele>224</ele>
        <time>2023-01-06T08:37:18.000Z</time>
      </trkpt>
      <trkpt lat="48.78797" lon="5.16335">
        <ele>224</ele>
        <time>2023-01-06T08:37:19.000Z</time>
      </trkpt>
      <trkpt lat="48.78796" lon="5.16333">
        <ele>223.5</ele>
        <time>2023-01-06T08:37:20.000Z</time>
      </trkpt>
      <trkpt lat="48.78796" lon="5.16331">
        <ele>223</ele>
        <time>2023-01-06T08:37:21.000Z</time>
      </trkpt>
      <trkpt lat="48.78795" lon="5.16327">
        <ele>223</ele>
        <time>2023-01-06T08:37:22.000Z</time>
      </trkpt>
      <trkpt lat="48.78795" lon="5.16325">
        <ele>223</ele>
        <time>2023-01-06T08:37:23.000Z</time>
      </trkpt>
      <trkpt lat="48.78794" lon="5.16322">
        <ele>223</ele>
        <time>2023-01-06T08:37:24.000Z</time>
      </trkpt>
      <trkpt lat="48.78794" lon="5.1632">
        <ele>223</ele>
        <time>2023-01-06T08:37:25.000Z</time>
      </trkpt>
      <trkpt lat="48.78794" lon="5.16317">
        <ele>223</ele>
        <time>2023-01-06T08:37:26.000Z</time>
      </trkpt>
      <trkpt lat="48.78794" lon="5.16314">
        <ele>223</ele>
        <time>2023-01-06T08:37:27.000Z</time>
      </trkpt>
      <trkpt lat="48.78795" lon="5.16311">
        <ele>222.5</ele>
        <time>2023-01-06T08:37:28.000Z</time>
      </trkpt>
      <trkpt lat="48.78795" lon="5.16308">
        <ele>222</ele>
        <time>2023-01-06T08:37:29.000Z</time>
      </trkpt>
      <trkpt lat="48.78795" lon="5.16303">
        <ele>222</ele>
        <time>2023-01-06T08:37:30.000Z</time>
      </trkpt>
      <trkpt lat="48.78796" lon="5.16299">
        <ele>222</ele>
        <time>2023-01-06T08:37:31.000Z</time>
      </trkpt>
      <trkpt lat="48.78796" lon="5.16296">
        <ele>222</ele>
        <time>2023-01-06T08:37:32.000Z</time>
      </trkpt>
      <trkpt lat="48.78796" lon="5.16292">
        <ele>222</ele>
        <time>2023-01-06T08:37:33.000Z</time>
      </trkpt>
      <trkpt lat="48.78796" lon="5.16289">
        <ele>222</ele>
        <time>2023-01-06T08:37:34.000Z</time>
      </trkpt>
      <trkpt lat="48.78796" lon="5.16286">
        <ele>222</ele>
        <time>2023-01-06T08:37:35.000Z</time>
      </trkpt>
      <trkpt lat="48.78797" lon="5.16283">
        <ele>221.5</ele>
        <time>2023-01-06T08:37:36.000Z</time>
      </trkpt>
      <trkpt lat="48.78797" lon="5.1628">
        <ele>221</ele>
        <time>2023-01-06T08:37:37.000Z</time>
      </trkpt>
      <trkpt lat="48.78797" lon="5.16278">
        <ele>221</ele>
        <time>2023-01-06T08:37:38.000Z</time>
      </trkpt>
      <trkpt lat="48.78797" lon="5.16276">
        <ele>221</ele>
        <time>2023-01-06T08:37:39.000Z</time>
      </trkpt>
      <trkpt lat="48.78797" lon="5.16274">
        <ele>221</ele>
        <time>2023-01-06T08:37:40.000Z</time>
      </trkpt>
      <trkpt lat="48.78798" lon="5.16272">
        <ele>221</ele>
        <time>2023-01-06T08:37:41.000Z</time>
      </trkpt>
      <trkpt lat="48.78798" lon="5.1627">
        <ele>221</ele>
        <time>2023-01-06T08:37:42.000Z</time>
      </trkpt>
      <trkpt lat="48.78798" lon="5.16268">
        <ele>221</ele>
        <time>2023-01-06T08:37:43.000Z</time>
      </trkpt>
      <trkpt lat="48.78798" lon="5.16267">
        <ele>220</ele>
        <time>2023-01-06T08:37:44.000Z</time>
      </trkpt>
      <trkpt lat="48.78798" lon="5.16265">
        <ele>220</ele>
        <time>2023-01-06T08:37:45.000Z</time>
      </trkpt>
      <trkpt lat="48.78799" lon="5.16264">
        <ele>220</ele>
        <time>2023-01-06T08:37:46.000Z</time>
      </trkpt>
      <trkpt lat="48.78799" lon="5.16263">
        <ele>220</ele>
        <time>2023-01-06T08:37:47.000Z</time>
      </trkpt>
      <trkpt lat="48.78799" lon="5.16261">
        <ele>220</ele>
        <time>2023-01-06T08:37:48.000Z</time>
      </trkpt>
      <trkpt lat="48.78799" lon="5.1626">
        <ele>220</ele>
        <time>2023-01-06T08:37:49.000Z</time>
      </trkpt>
      <trkpt lat="48.78799" lon="5.16258">
        <ele>219.5</ele>
        <time>2023-01-06T08:37:50.000Z</time>
      </trkpt>
      <trkpt lat="48.78799" lon="5.16256">
        <ele>219</ele>
        <time>2023-01-06T08:37:51.000Z</time>
      </trkpt>
      <trkpt lat="48.78799" lon="5.16254">
        <ele>219</ele>
        <time>2023-01-06T08:37:52.000Z</time>
      </trkpt>
      <trkpt lat="48.78799" lon="5.16252">
        <ele>219</ele>
        <time>2023-01-06T08:37:53.000Z</time>
      </trkpt>
      <trkpt lat="48.78799" lon="5.1625">
        <ele>219</ele>
        <time>2023-01-06T08:37:54.000Z</time>
      </trkpt>
      <trkpt lat="48.78799" lon="5.16248">
        <ele>219</ele>
        <time>2023-01-06T08:37:55.000Z</time>
      </trkpt>
      <trkpt lat="48.78799" lon="5.16246">
        <ele>219</ele>
        <time>2023-01-06T08:37:56.000Z</time>
      </trkpt>
      <trkpt lat="48.788" lon="5.16244">
        <ele>219</ele>
        <time>2023-01-06T08:37:57.000Z</time>
      </trkpt>
      <trkpt lat="48.788" lon="5.16242">
        <ele>219</ele>
        <time>2023-01-06T08:37:58.000Z</time>
      </trkpt>
      <trkpt lat="48.788" lon="5.16241">
        <ele>218.7</ele>
        <time>2023-01-06T08:37:59.000Z</time>
      </trkpt>
      <trkpt lat="48.788" lon="5.1624">
        <ele>218.3</ele>
        <time>2023-01-06T08:38:00.000Z</time>
      </trkpt>
      <trkpt lat="48.788" lon="5.16239">
        <ele>218</ele>
        <time>2023-01-06T08:38:01.000Z</time>
      </trkpt>
      <trkpt lat="48.788" lon="5.16239">
        <ele>218</ele>
        <time>2023-01-06T08:38:02.000Z</time>
      </trkpt>
      <trkpt lat="48.78799" lon="5.16238">
        <ele>218</ele>
        <time>2023-01-06T08:38:03.000Z</time>
      </trkpt>
      <trkpt lat="48.78799" lon="5.16237">
        <ele>218</ele>
        <time>2023-01-06T08:38:04.000Z</time>
      </trkpt>
      <trkpt lat="48.78799" lon="5.16237">
        <ele>218</ele>
        <time>2023-01-06T08:38:05.000Z</time>
      </trkpt>
      <trkpt lat="48.78799" lon="5.16235">
        <ele>218</ele>
        <time>2023-01-06T08:38:06.000Z</time>
      </trkpt>
      <trkpt lat="48.78799" lon="5.16233">
        <ele>218</ele>
        <time>2023-01-06T08:38:07.000Z</time>
      </trkpt>
      <trkpt lat="48.788" lon="5.16231">
        <ele>218</ele>
        <time>2023-01-06T08:38:08.000Z</time>
      </trkpt>
      <trkpt lat="48.788" lon="5.16229">
        <ele>218</ele>
        <time>2023-01-06T08:38:09.000Z</time>
      </trkpt>
      <trkpt lat="48.788" lon="5.16226">
        <ele>218</ele>
        <time>2023-01-06T08:38:10.000Z</time>
      </trkpt>
      <trkpt lat="48.788" lon="5.16224">
        <ele>217.7</ele>
        <time>2023-01-06T08:38:11.000Z</time>
      </trkpt>
      <trkpt lat="48.78801" lon="5.16221">
        <ele>217.3</ele>
        <time>2023-01-06T08:38:12.000Z</time>
      </trkpt>
      <trkpt lat="48.78801" lon="5.16219">
        <ele>217</ele>
        <time>2023-01-06T08:38:13.000Z</time>
      </trkpt>
      <trkpt lat="48.78801" lon="5.16217">
        <ele>217</ele>
        <time>2023-01-06T08:38:14.000Z</time>
      </trkpt>
      <trkpt lat="48.788" lon="5.16215">
        <ele>217</ele>
        <time>2023-01-06T08:38:15.000Z</time>
      </trkpt>
      <trkpt lat="48.788" lon="5.16214">
        <ele>217</ele>
        <time>2023-01-06T08:38:16.000Z</time>
      </trkpt>
      <trkpt lat="48.788" lon="5.16212">
        <ele>217</ele>
        <time>2023-01-06T08:38:17.000Z</time>
      </trkpt>
      <trkpt lat="48.78799" lon="5.16211">
        <ele>216.5</ele>
        <time>2023-01-06T08:38:18.000Z</time>
      </trkpt>
      <trkpt lat="48.78799" lon="5.16209">
        <ele>216</ele>
        <time>2023-01-06T08:38:19.000Z</time>
      </trkpt>
      <trkpt lat="48.78799" lon="5.16208">
        <ele>216</ele>
        <time>2023-01-06T08:38:20.000Z</time>
      </trkpt>
      <trkpt lat="48.78798" lon="5.16207">
        <ele>216</ele>
        <time>2023-01-06T08:38:21.000Z</time>
      </trkpt>
      <trkpt lat="48.78798" lon="5.16206">
        <ele>216</ele>
        <time>2023-01-06T08:38:22.000Z</time>
      </trkpt>
      <trkpt lat="48.78798" lon="5.16205">
        <ele>216</ele>
        <time>2023-01-06T08:38:23.000Z</time>
      </trkpt>
      <trkpt lat="48.78799" lon="5.16204">
        <ele>216</ele>
        <time>2023-01-06T08:38:24.000Z</time>
      </trkpt>
      <trkpt lat="48.78799" lon="5.16203">
        <ele>216</ele>
        <time>2023-01-06T08:38:25.000Z</time>
      </trkpt>
      <trkpt lat="48.78799" lon="5.16201">
        <ele>216</ele>
        <time>2023-01-06T08:38:26.000Z</time>
      </trkpt>
      <trkpt lat="48.78799" lon="5.162">
        <ele>216</ele>
        <time>2023-01-06T08:38:27.000Z</time>
      </trkpt>
      <trkpt lat="48.78799" lon="5.16199">
        <ele>215.5</ele>
        <time>2023-01-06T08:38:28.000Z</time>
      </trkpt>
      <trkpt lat="48.78799" lon="5.16197">
        <ele>215</ele>
        <time>2023-01-06T08:38:29.000Z</time>
      </trkpt>
      <trkpt lat="48.78799" lon="5.16196">
        <ele>215</ele>
        <time>2023-01-06T08:38:30.000Z</time>
      </trkpt>
      <trkpt lat="48.78799" lon="5.16194">
        <ele>215</ele>
        <time>2023-01-06T08:38:31.000Z</time>
      </trkpt>
      <trkpt lat="48.78799" lon="5.16192">
        <ele>215</ele>
        <time>2023-01-06T08:38:32.000Z</time>
      </trkpt>
      <trkpt lat="48.78799" lon="5.1619">
        <ele>215</ele>
        <time>2023-01-06T08:38:33.000Z</time>
      </trkpt>
      <trkpt lat="48.78799" lon="5.16188">
        <ele>215</ele>
        <time>2023-01-06T08:38:34.000Z</time>
      </trkpt>
      <trkpt lat="48.78799" lon="5.16186">
        <ele>215</ele>
        <time>2023-01-06T08:38:35.000Z</time>
      </trkpt>
      <trkpt lat="48.78798" lon="5.16183">
        <ele>215</ele>
        <time>2023-01-06T08:38:36.000Z</time>
      </trkpt>
      <trkpt lat="48.78798" lon="5.16181">
        <ele>214.7</ele>
        <time>2023-01-06T08:38:37.000Z</time>
      </trkpt>
      <trkpt lat="48.78798" lon="5.16179">
        <ele>214.3</ele>
        <time>2023-01-06T08:38:38.000Z</time>
      </trkpt>
      <trkpt lat="48.78797" lon="5.16176">
        <ele>214</ele>
        <time>2023-01-06T08:38:39.000Z</time>
      </trkpt>
      <trkpt lat="48.78796" lon="5.16173">
        <ele>214</ele>
        <time>2023-01-06T08:38:40.000Z</time>
      </trkpt>
      <trkpt lat="48.78796" lon="5.1617">
        <ele>214</ele>
        <time>2023-01-06T08:38:41.000Z</time>
      </trkpt>
      <trkpt lat="48.78795" lon="5.16168">
        <ele>214</ele>
        <time>2023-01-06T08:38:42.000Z</time>
      </trkpt>
      <trkpt lat="48.78795" lon="5.16165">
        <ele>214</ele>
        <time>2023-01-06T08:38:43.000Z</time>
      </trkpt>
      <trkpt lat="48.78794" lon="5.16163">
        <ele>214</ele>
        <time>2023-01-06T08:38:44.000Z</time>
      </trkpt>
      <trkpt lat="48.78793" lon="5.1616">
        <ele>214</ele>
        <time>2023-01-06T08:38:45.000Z</time>
      </trkpt>
      <trkpt lat="48.78792" lon="5.16157">
        <ele>214</ele>
        <time>2023-01-06T08:38:46.000Z</time>
      </trkpt>
      <trkpt lat="48.78792" lon="5.16155">
        <ele>214</ele>
        <time>2023-01-06T08:38:47.000Z</time>
      </trkpt>
      <trkpt lat="48.78791" lon="5.16153">
        <ele>214</ele>
        <time>2023-01-06T08:38:48.000Z</time>
      </trkpt>
      <trkpt lat="48.78791" lon="5.16151">
        <ele>214</ele>
        <time>2023-01-06T08:38:49.000Z</time>
      </trkpt>
      <trkpt lat="48.7879" lon="5.16149">
        <ele>213.5</ele>
        <time>2023-01-06T08:38:50.000Z</time>
      </trkpt>
      <trkpt lat="48.7879" lon="5.16146">
        <ele>213</ele>
        <time>2023-01-06T08:38:51.000Z</time>
      </trkpt>
      <trkpt lat="48.78789" lon="5.16143">
        <ele>213</ele>
        <time>2023-01-06T08:38:52.000Z</time>
      </trkpt>
      <trkpt lat="48.78788" lon="5.1614">
        <ele>213</ele>
        <time>2023-01-06T08:38:53.000Z</time>
      </trkpt>
      <trkpt lat="48.78787" lon="5.16138">
        <ele>213</ele>
        <time>2023-01-06T08:38:54.000Z</time>
      </trkpt>
      <trkpt lat="48.78786" lon="5.16135">
        <ele>213</ele>
        <time>2023-01-06T08:38:55.000Z</time>
      </trkpt>
      <trkpt lat="48.78786" lon="5.16133">
        <ele>213</ele>
        <time>2023-01-06T08:38:56.000Z</time>
      </trkpt>
      <trkpt lat="48.78785" lon="5.16131">
        <ele>213</ele>
        <time>2023-01-06T08:38:57.000Z</time>
      </trkpt>
      <trkpt lat="48.78784" lon="5.16128">
        <ele>213</ele>
        <time>2023-01-06T08:38:58.000Z</time>
      </trkpt>
      <trkpt lat="48.78782" lon="5.16125">
        <ele>213</ele>
        <time>2023-01-06T08:38:59.000Z</time>
      </trkpt>
      <trkpt lat="48.78781" lon="5.16123">
        <ele>212</ele>
        <time>2023-01-06T08:39:00.000Z</time>
      </trkpt>
      <trkpt lat="48.7878" lon="5.1612">
        <ele>212</ele>
        <time>2023-01-06T08:39:01.000Z</time>
      </trkpt>
      <trkpt lat="48.78779" lon="5.16117">
        <ele>212</ele>
        <time>2023-01-06T08:39:02.000Z</time>
      </trkpt>
      <trkpt lat="48.78778" lon="5.16115">
        <ele>212</ele>
        <time>2023-01-06T08:39:03.000Z</time>
      </trkpt>
      <trkpt lat="48.78777" lon="5.16112">
        <ele>212</ele>
        <time>2023-01-06T08:39:04.000Z</time>
      </trkpt>
      <trkpt lat="48.78777" lon="5.1611">
        <ele>212</ele>
        <time>2023-01-06T08:39:05.000Z</time>
      </trkpt>
      <trkpt lat="48.78776" lon="5.16107">
        <ele>212</ele>
        <time>2023-01-06T08:39:06.000Z</time>
      </trkpt>
      <trkpt lat="48.78775" lon="5.16105">
        <ele>212</ele>
        <time>2023-01-06T08:39:07.000Z</time>
      </trkpt>
      <trkpt lat="48.78774" lon="5.16103">
        <ele>212</ele>
        <time>2023-01-06T08:39:08.000Z</time>
      </trkpt>
      <trkpt lat="48.78774" lon="5.161">
        <ele>212</ele>
        <time>2023-01-06T08:39:09.000Z</time>
      </trkpt>
      <trkpt lat="48.78773" lon="5.16098">
        <ele>212</ele>
        <time>2023-01-06T08:39:10.000Z</time>
      </trkpt>
      <trkpt lat="48.78772" lon="5.16096">
        <ele>212</ele>
        <time>2023-01-06T08:39:11.000Z</time>
      </trkpt>
      <trkpt lat="48.78771" lon="5.16094">
        <ele>212</ele>
        <time>2023-01-06T08:39:12.000Z</time>
      </trkpt>
      <trkpt lat="48.7877" lon="5.16092">
        <ele>212</ele>
        <time>2023-01-06T08:39:13.000Z</time>
      </trkpt>
      <trkpt lat="48.78769" lon="5.1609">
        <ele>211</ele>
        <time>2023-01-06T08:39:14.000Z</time>
      </trkpt>
      <trkpt lat="48.78768" lon="5.16088">
        <ele>211</ele>
        <time>2023-01-06T08:39:15.000Z</time>
      </trkpt>
      <trkpt lat="48.78767" lon="5.16087">
        <ele>211</ele>
        <time>2023-01-06T08:39:16.000Z</time>
      </trkpt>
      <trkpt lat="48.78766" lon="5.16085">
        <ele>211</ele>
        <time>2023-01-06T08:39:17.000Z</time>
      </trkpt>
      <trkpt lat="48.78765" lon="5.16083">
        <ele>211</ele>
        <time>2023-01-06T08:39:18.000Z</time>
      </trkpt>
      <trkpt lat="48.78764" lon="5.16081">
        <ele>211</ele>
        <time>2023-01-06T08:39:19.000Z</time>
      </trkpt>
      <trkpt lat="48.78763" lon="5.16079">
        <ele>211</ele>
        <time>2023-01-06T08:39:20.000Z</time>
      </trkpt>
      <trkpt lat="48.78763" lon="5.16077">
        <ele>211</ele>
        <time>2023-01-06T08:39:21.000Z</time>
      </trkpt>
      <trkpt lat="48.78762" lon="5.16075">
        <ele>211</ele>
        <time>2023-01-06T08:39:22.000Z</time>
      </trkpt>
      <trkpt lat="48.78762" lon="5.16073">
        <ele>211</ele>
        <time>2023-01-06T08:39:23.000Z</time>
      </trkpt>
      <trkpt lat="48.78761" lon="5.16071">
        <ele>211</ele>
        <time>2023-01-06T08:39:24.000Z</time>
      </trkpt>
      <trkpt lat="48.78761" lon="5.16069">
        <ele>211</ele>
        <time>2023-01-06T08:39:25.000Z</time>
      </trkpt>
      <trkpt lat="48.7876" lon="5.16067">
        <ele>211</ele>
        <time>2023-01-06T08:39:26.000Z</time>
      </trkpt>
      <trkpt lat="48.7876" lon="5.16065">
        <ele>211</ele>
        <time>2023-01-06T08:39:27.000Z</time>
      </trkpt>
      <trkpt lat="48.78759" lon="5.16063">
        <ele>210.5</ele>
        <time>2023-01-06T08:39:28.000Z</time>
      </trkpt>
      <trkpt lat="48.78758" lon="5.16061">
        <ele>210</ele>
        <time>2023-01-06T08:39:29.000Z</time>
      </trkpt>
      <trkpt lat="48.78757" lon="5.16058">
        <ele>210</ele>
        <time>2023-01-06T08:39:30.000Z</time>
      </trkpt>
      <trkpt lat="48.78756" lon="5.16056">
        <ele>210</ele>
        <time>2023-01-06T08:39:31.000Z</time>
      </trkpt>
      <trkpt lat="48.78755" lon="5.16054">
        <ele>210</ele>
        <time>2023-01-06T08:39:32.000Z</time>
      </trkpt>
      <trkpt lat="48.78755" lon="5.16052">
        <ele>210</ele>
        <time>2023-01-06T08:39:33.000Z</time>
      </trkpt>
      <trkpt lat="48.78754" lon="5.1605">
        <ele>210</ele>
        <time>2023-01-06T08:39:34.000Z</time>
      </trkpt>
      <trkpt lat="48.78753" lon="5.16047">
        <ele>210</ele>
        <time>2023-01-06T08:39:35.000Z</time>
      </trkpt>
      <trkpt lat="48.78752" lon="5.16045">
        <ele>210</ele>
        <time>2023-01-06T08:39:36.000Z</time>
      </trkpt>
      <trkpt lat="48.78751" lon="5.16042">
        <ele>210</ele>
        <time>2023-01-06T08:39:37.000Z</time>
      </trkpt>
      <trkpt lat="48.78751" lon="5.1604">
        <ele>210</ele>
        <time>2023-01-06T08:39:38.000Z</time>
      </trkpt>
      <trkpt lat="48.7875" lon="5.16037">
        <ele>210</ele>
        <time>2023-01-06T08:39:39.000Z</time>
      </trkpt>
      <trkpt lat="48.78749" lon="5.16034">
        <ele>210</ele>
        <time>2023-01-06T08:39:40.000Z</time>
      </trkpt>
      <trkpt lat="48.78748" lon="5.16031">
        <ele>210</ele>
        <time>2023-01-06T08:39:41.000Z</time>
      </trkpt>
      <trkpt lat="48.78748" lon="5.16029">
        <ele>209.5</ele>
        <time>2023-01-06T08:39:42.000Z</time>
      </trkpt>
      <trkpt lat="48.78747" lon="5.16026">
        <ele>209</ele>
        <time>2023-01-06T08:39:43.000Z</time>
      </trkpt>
      <trkpt lat="48.78747" lon="5.16024">
        <ele>209</ele>
        <time>2023-01-06T08:39:44.000Z</time>
      </trkpt>
      <trkpt lat="48.78747" lon="5.16022">
        <ele>209</ele>
        <time>2023-01-06T08:39:45.000Z</time>
      </trkpt>
      <trkpt lat="48.78747" lon="5.1602">
        <ele>209</ele>
        <time>2023-01-06T08:39:46.000Z</time>
      </trkpt>
      <trkpt lat="48.78747" lon="5.16017">
        <ele>209</ele>
        <time>2023-01-06T08:39:47.000Z</time>
      </trkpt>
      <trkpt lat="48.78747" lon="5.16015">
        <ele>209</ele>
        <time>2023-01-06T08:39:48.000Z</time>
      </trkpt>
      <trkpt lat="48.78747" lon="5.16013">
        <ele>208.7</ele>
        <time>2023-01-06T08:39:49.000Z</time>
      </trkpt>
      <trkpt lat="48.78747" lon="5.1601">
        <ele>208.3</ele>
        <time>2023-01-06T08:39:50.000Z</time>
      </trkpt>
      <trkpt lat="48.78747" lon="5.16007">
        <ele>208</ele>
        <time>2023-01-06T08:39:51.000Z</time>
      </trkpt>
      <trkpt lat="48.78747" lon="5.16005">
        <ele>208</ele>
        <time>2023-01-06T08:39:52.000Z</time>
      </trkpt>
      <trkpt lat="48.78746" lon="5.16002">
        <ele>208</ele>
        <time>2023-01-06T08:39:53.000Z</time>
      </trkpt>
      <trkpt lat="48.78746" lon="5.15999">
        <ele>208</ele>
        <time>2023-01-06T08:39:54.000Z</time>
      </trkpt>
      <trkpt lat="48.78746" lon="5.15996">
        <ele>208</ele>
        <time>2023-01-06T08:39:55.000Z</time>
      </trkpt>
      <trkpt lat="48.78746" lon="5.15993">
        <ele>208</ele>
        <time>2023-01-06T08:39:56.000Z</time>
      </trkpt>
      <trkpt lat="48.78746" lon="5.1599">
        <ele>208</ele>
        <time>2023-01-06T08:39:57.000Z</time>
      </trkpt>
      <trkpt lat="48.78745" lon="5.15987">
        <ele>208</ele>
        <time>2023-01-06T08:39:58.000Z</time>
      </trkpt>
      <trkpt lat="48.78745" lon="5.15984">
        <ele>208</ele>
        <time>2023-01-06T08:39:59.000Z</time>
      </trkpt>
      <trkpt lat="48.78745" lon="5.15982">
        <ele>207.5</ele>
        <time>2023-01-06T08:40:00.000Z</time>
      </trkpt>
      <trkpt lat="48.78744" lon="5.15979">
        <ele>207</ele>
        <time>2023-01-06T08:40:01.000Z</time>
      </trkpt>
      <trkpt lat="48.78744" lon="5.15976">
        <ele>207</ele>
        <time>2023-01-06T08:40:02.000Z</time>
      </trkpt>
      <trkpt lat="48.78744" lon="5.15974">
        <ele>207</ele>
        <time>2023-01-06T08:40:03.000Z</time>
      </trkpt>
      <trkpt lat="48.78744" lon="5.15971">
        <ele>207</ele>
        <time>2023-01-06T08:40:04.000Z</time>
      </trkpt>
      <trkpt lat="48.78743" lon="5.15968">
        <ele>207</ele>
        <time>2023-01-06T08:40:05.000Z</time>
      </trkpt>
      <trkpt lat="48.78743" lon="5.15965">
        <ele>207</ele>
        <time>2023-01-06T08:40:06.000Z</time>
      </trkpt>
      <trkpt lat="48.78743" lon="5.15962">
        <ele>207</ele>
        <time>2023-01-06T08:40:07.000Z</time>
      </trkpt>
      <trkpt lat="48.78742" lon="5.1596">
        <ele>207</ele>
        <time>2023-01-06T08:40:08.000Z</time>
      </trkpt>
      <trkpt lat="48.78742" lon="5.15958">
        <ele>207</ele>
        <time>2023-01-06T08:40:09.000Z</time>
      </trkpt>
      <trkpt lat="48.78742" lon="5.15955">
        <ele>207</ele>
        <time>2023-01-06T08:40:10.000Z</time>
      </trkpt>
      <trkpt lat="48.78741" lon="5.15953">
        <ele>207</ele>
        <time>2023-01-06T08:40:11.000Z</time>
      </trkpt>
      <trkpt lat="48.78741" lon="5.15951">
        <ele>207</ele>
        <time>2023-01-06T08:40:12.000Z</time>
      </trkpt>
      <trkpt lat="48.7874" lon="5.15949">
        <ele>207</ele>
        <time>2023-01-06T08:40:13.000Z</time>
      </trkpt>
      <trkpt lat="48.78739" lon="5.15947">
        <ele>207</ele>
        <time>2023-01-06T08:40:14.000Z</time>
      </trkpt>
      <trkpt lat="48.78739" lon="5.15945">
        <ele>206.7</ele>
        <time>2023-01-06T08:40:15.000Z</time>
      </trkpt>
      <trkpt lat="48.78738" lon="5.15942">
        <ele>206.3</ele>
        <time>2023-01-06T08:40:16.000Z</time>
      </trkpt>
      <trkpt lat="48.78738" lon="5.1594">
        <ele>206</ele>
        <time>2023-01-06T08:40:17.000Z</time>
      </trkpt>
      <trkpt lat="48.78738" lon="5.15937">
        <ele>206</ele>
        <time>2023-01-06T08:40:18.000Z</time>
      </trkpt>
      <trkpt lat="48.78737" lon="5.15935">
        <ele>206</ele>
        <time>2023-01-06T08:40:19.000Z</time>
      </trkpt>
      <trkpt lat="48.78737" lon="5.15933">
        <ele>206</ele>
        <time>2023-01-06T08:40:20.000Z</time>
      </trkpt>
      <trkpt lat="48.78737" lon="5.1593">
        <ele>206</ele>
        <time>2023-01-06T08:40:21.000Z</time>
      </trkpt>
      <trkpt lat="48.78737" lon="5.15928">
        <ele>206</ele>
        <time>2023-01-06T08:40:22.000Z</time>
      </trkpt>
      <trkpt lat="48.78737" lon="5.15926">
        <ele>206</ele>
        <time>2023-01-06T08:40:23.000Z</time>
      </trkpt>
      <trkpt lat="48.78737" lon="5.15924">
        <ele>206</ele>
        <time>2023-01-06T08:40:24.000Z</time>
      </trkpt>
      <trkpt lat="48.78736" lon="5.15922">
        <ele>206</ele>
        <time>2023-01-06T08:40:25.000Z</time>
      </trkpt>
      <trkpt lat="48.78736" lon="5.15921">
        <ele>206</ele>
        <time>2023-01-06T08:40:26.000Z</time>
      </trkpt>
      <trkpt lat="48.78736" lon="5.15919">
        <ele>206</ele>
        <time>2023-01-06T08:40:27.000Z</time>
      </trkpt>
      <trkpt lat="48.78735" lon="5.15918">
        <ele>205.5</ele>
        <time>2023-01-06T08:40:28.000Z</time>
      </trkpt>
      <trkpt lat="48.78735" lon="5.15917">
        <ele>205</ele>
        <time>2023-01-06T08:40:29.000Z</time>
      </trkpt>
      <trkpt lat="48.78734" lon="5.15916">
        <ele>205</ele>
        <time>2023-01-06T08:40:30.000Z</time>
      </trkpt>
      <trkpt lat="48.78734" lon="5.15915">
        <ele>205</ele>
        <time>2023-01-06T08:40:31.000Z</time>
      </trkpt>
      <trkpt lat="48.78734" lon="5.15915">
        <ele>205</ele>
        <time>2023-01-06T08:40:32.000Z</time>
      </trkpt>
      <trkpt lat="48.78733" lon="5.15914">
        <ele>205</ele>
        <time>2023-01-06T08:40:33.000Z</time>
      </trkpt>
      <trkpt lat="48.78733" lon="5.15913">
        <ele>205</ele>
        <time>2023-01-06T08:40:34.000Z</time>
      </trkpt>
      <trkpt lat="48.78732" lon="5.15912">
        <ele>205</ele>
        <time>2023-01-06T08:40:35.000Z</time>
      </trkpt>
      <trkpt lat="48.78732" lon="5.15912">
        <ele>205</ele>
        <time>2023-01-06T08:40:36.000Z</time>
      </trkpt>
      <trkpt lat="48.78731" lon="5.15911">
        <ele>205</ele>
        <time>2023-01-06T08:40:37.000Z</time>
      </trkpt>
      <trkpt lat="48.78731" lon="5.1591">
        <ele>205</ele>
        <time>2023-01-06T08:40:38.000Z</time>
      </trkpt>
      <trkpt lat="48.7873" lon="5.15909">
        <ele>205</ele>
        <time>2023-01-06T08:40:39.000Z</time>
      </trkpt>
      <trkpt lat="48.7873" lon="5.15908">
        <ele>204.5</ele>
        <time>2023-01-06T08:40:40.000Z</time>
      </trkpt>
      <trkpt lat="48.78729" lon="5.15907">
        <ele>204</ele>
        <time>2023-01-06T08:40:41.000Z</time>
      </trkpt>
      <trkpt lat="48.78729" lon="5.15905">
        <ele>204</ele>
        <time>2023-01-06T08:40:42.000Z</time>
      </trkpt>
      <trkpt lat="48.78728" lon="5.15902">
        <ele>204</ele>
        <time>2023-01-06T08:40:43.000Z</time>
      </trkpt>
      <trkpt lat="48.78728" lon="5.159">
        <ele>204</ele>
        <time>2023-01-06T08:40:44.000Z</time>
      </trkpt>
      <trkpt lat="48.78728" lon="5.15899">
        <ele>204</ele>
        <time>2023-01-06T08:40:45.000Z</time>
      </trkpt>
      <trkpt lat="48.78727" lon="5.15897">
        <ele>204</ele>
        <time>2023-01-06T08:40:46.000Z</time>
      </trkpt>
      <trkpt lat="48.78726" lon="5.15894">
        <ele>204</ele>
        <time>2023-01-06T08:40:47.000Z</time>
      </trkpt>
      <trkpt lat="48.78726" lon="5.15891">
        <ele>203</ele>
        <time>2023-01-06T08:40:48.000Z</time>
      </trkpt>
      <trkpt lat="48.78725" lon="5.15889">
        <ele>203</ele>
        <time>2023-01-06T08:40:49.000Z</time>
      </trkpt>
      <trkpt lat="48.78725" lon="5.15887">
        <ele>203</ele>
        <time>2023-01-06T08:40:50.000Z</time>
      </trkpt>
      <trkpt lat="48.78724" lon="5.15885">
        <ele>203</ele>
        <time>2023-01-06T08:40:51.000Z</time>
      </trkpt>
      <trkpt lat="48.78723" lon="5.15883">
        <ele>203</ele>
        <time>2023-01-06T08:40:52.000Z</time>
      </trkpt>
      <trkpt lat="48.78723" lon="5.1588">
        <ele>203</ele>
        <time>2023-01-06T08:40:53.000Z</time>
      </trkpt>
      <trkpt lat="48.78722" lon="5.15877">
        <ele>203</ele>
        <time>2023-01-06T08:40:54.000Z</time>
      </trkpt>
      <trkpt lat="48.78722" lon="5.15874">
        <ele>203</ele>
        <time>2023-01-06T08:40:55.000Z</time>
      </trkpt>
      <trkpt lat="48.78722" lon="5.15872">
        <ele>203</ele>
        <time>2023-01-06T08:40:56.000Z</time>
      </trkpt>
      <trkpt lat="48.78721" lon="5.15869">
        <ele>203</ele>
        <time>2023-01-06T08:40:57.000Z</time>
      </trkpt>
      <trkpt lat="48.78721" lon="5.15867">
        <ele>203</ele>
        <time>2023-01-06T08:40:58.000Z</time>
      </trkpt>
      <trkpt lat="48.78721" lon="5.15865">
        <ele>202.7</ele>
        <time>2023-01-06T08:40:59.000Z</time>
      </trkpt>
      <trkpt lat="48.7872" lon="5.15863">
        <ele>202.3</ele>
        <time>2023-01-06T08:41:00.000Z</time>
      </trkpt>
      <trkpt lat="48.7872" lon="5.15861">
        <ele>202</ele>
        <time>2023-01-06T08:41:01.000Z</time>
      </trkpt>
      <trkpt lat="48.78719" lon="5.15859">
        <ele>202</ele>
        <time>2023-01-06T08:41:02.000Z</time>
      </trkpt>
      <trkpt lat="48.78718" lon="5.15856">
        <ele>202</ele>
        <time>2023-01-06T08:41:03.000Z</time>
      </trkpt>
      <trkpt lat="48.78718" lon="5.15854">
        <ele>202</ele>
        <time>2023-01-06T08:41:04.000Z</time>
      </trkpt>
      <trkpt lat="48.78717" lon="5.15851">
        <ele>202</ele>
        <time>2023-01-06T08:41:05.000Z</time>
      </trkpt>
      <trkpt lat="48.78716" lon="5.15849">
        <ele>202</ele>
        <time>2023-01-06T08:41:06.000Z</time>
      </trkpt>
      <trkpt lat="48.78716" lon="5.15846">
        <ele>202</ele>
        <time>2023-01-06T08:41:07.000Z</time>
      </trkpt>
      <trkpt lat="48.78715" lon="5.15843">
        <ele>202</ele>
        <time>2023-01-06T08:41:08.000Z</time>
      </trkpt>
      <trkpt lat="48.78715" lon="5.1584">
        <ele>201.7</ele>
        <time>2023-01-06T08:41:09.000Z</time>
      </trkpt>
      <trkpt lat="48.78715" lon="5.15838">
        <ele>201.3</ele>
        <time>2023-01-06T08:41:10.000Z</time>
      </trkpt>
      <trkpt lat="48.78716" lon="5.15835">
        <ele>201</ele>
        <time>2023-01-06T08:41:11.000Z</time>
      </trkpt>
      <trkpt lat="48.78716" lon="5.15833">
        <ele>201</ele>
        <time>2023-01-06T08:41:12.000Z</time>
      </trkpt>
      <trkpt lat="48.78716" lon="5.1583">
        <ele>201</ele>
        <time>2023-01-06T08:41:13.000Z</time>
      </trkpt>
      <trkpt lat="48.78715" lon="5.15827">
        <ele>201</ele>
        <time>2023-01-06T08:41:14.000Z</time>
      </trkpt>
      <trkpt lat="48.78715" lon="5.15824">
        <ele>201</ele>
        <time>2023-01-06T08:41:15.000Z</time>
      </trkpt>
      <trkpt lat="48.78714" lon="5.1582">
        <ele>201</ele>
        <time>2023-01-06T08:41:16.000Z</time>
      </trkpt>
      <trkpt lat="48.78714" lon="5.15816">
        <ele>201</ele>
        <time>2023-01-06T08:41:17.000Z</time>
      </trkpt>
      <trkpt lat="48.78713" lon="5.15812">
        <ele>201</ele>
        <time>2023-01-06T08:41:18.000Z</time>
      </trkpt>
      <trkpt lat="48.78713" lon="5.15809">
        <ele>201</ele>
        <time>2023-01-06T08:41:19.000Z</time>
      </trkpt>
      <trkpt lat="48.78712" lon="5.15806">
        <ele>200</ele>
        <time>2023-01-06T08:41:20.000Z</time>
      </trkpt>
      <trkpt lat="48.78712" lon="5.15805">
        <ele>200</ele>
        <time>2023-01-06T08:41:21.000Z</time>
      </trkpt>
      <trkpt lat="48.78712" lon="5.15804">
        <ele>200</ele>
        <time>2023-01-06T08:41:22.000Z</time>
      </trkpt>
      <trkpt lat="48.78712" lon="5.15802">
        <ele>200</ele>
        <time>2023-01-06T08:41:23.000Z</time>
      </trkpt>
      <trkpt lat="48.78712" lon="5.15799">
        <ele>200</ele>
        <time>2023-01-06T08:41:24.000Z</time>
      </trkpt>
      <trkpt lat="48.78712" lon="5.15797">
        <ele>200</ele>
        <time>2023-01-06T08:41:25.000Z</time>
      </trkpt>
      <trkpt lat="48.78712" lon="5.15794">
        <ele>200</ele>
        <time>2023-01-06T08:41:26.000Z</time>
      </trkpt>
      <trkpt lat="48.78712" lon="5.15791">
        <ele>200</ele>
        <time>2023-01-06T08:41:27.000Z</time>
      </trkpt>
      <trkpt lat="48.78712" lon="5.15788">
        <ele>200</ele>
        <time>2023-01-06T08:41:28.000Z</time>
      </trkpt>
      <trkpt lat="48.78712" lon="5.15785">
        <ele>200</ele>
        <time>2023-01-06T08:41:29.000Z</time>
      </trkpt>
      <trkpt lat="48.78712" lon="5.15782">
        <ele>199</ele>
        <time>2023-01-06T08:41:30.000Z</time>
      </trkpt>
      <trkpt lat="48.78712" lon="5.15779">
        <ele>199</ele>
        <time>2023-01-06T08:41:31.000Z</time>
      </trkpt>
      <trkpt lat="48.78711" lon="5.15775">
        <ele>199</ele>
        <time>2023-01-06T08:41:32.000Z</time>
      </trkpt>
      <trkpt lat="48.78711" lon="5.15772">
        <ele>199</ele>
        <time>2023-01-06T08:41:33.000Z</time>
      </trkpt>
      <trkpt lat="48.7871" lon="5.15769">
        <ele>199</ele>
        <time>2023-01-06T08:41:34.000Z</time>
      </trkpt>
      <trkpt lat="48.7871" lon="5.15767">
        <ele>199</ele>
        <time>2023-01-06T08:41:35.000Z</time>
      </trkpt>
      <trkpt lat="48.78709" lon="5.15765">
        <ele>198.5</ele>
        <time>2023-01-06T08:41:36.000Z</time>
      </trkpt>
      <trkpt lat="48.78709" lon="5.15763">
        <ele>198</ele>
        <time>2023-01-06T08:41:37.000Z</time>
      </trkpt>
      <trkpt lat="48.78709" lon="5.15761">
        <ele>198</ele>
        <time>2023-01-06T08:41:38.000Z</time>
      </trkpt>
      <trkpt lat="48.78708" lon="5.15758">
        <ele>198</ele>
        <time>2023-01-06T08:41:39.000Z</time>
      </trkpt>
      <trkpt lat="48.78708" lon="5.15756">
        <ele>198</ele>
        <time>2023-01-06T08:41:40.000Z</time>
      </trkpt>
      <trkpt lat="48.78708" lon="5.15754">
        <ele>198</ele>
        <time>2023-01-06T08:41:41.000Z</time>
      </trkpt>
      <trkpt lat="48.78708" lon="5.15752">
        <ele>198</ele>
        <time>2023-01-06T08:41:42.000Z</time>
      </trkpt>
      <trkpt lat="48.78708" lon="5.15751">
        <ele>198</ele>
        <time>2023-01-06T08:41:43.000Z</time>
      </trkpt>
      <trkpt lat="48.78708" lon="5.15749">
        <ele>197</ele>
        <time>2023-01-06T08:41:44.000Z</time>
      </trkpt>
      <trkpt lat="48.78708" lon="5.15748">
        <ele>197</ele>
        <time>2023-01-06T08:41:45.000Z</time>
      </trkpt>
      <trkpt lat="48.78708" lon="5.15747">
        <ele>197</ele>
        <time>2023-01-06T08:41:46.000Z</time>
      </trkpt>
      <trkpt lat="48.78708" lon="5.15747">
        <ele>197</ele>
        <time>2023-01-06T08:41:47.000Z</time>
      </trkpt>
      <trkpt lat="48.78708" lon="5.15746">
        <ele>197</ele>
        <time>2023-01-06T08:41:48.000Z</time>
      </trkpt>
      <trkpt lat="48.78708" lon="5.15745">
        <ele>197</ele>
        <time>2023-01-06T08:41:49.000Z</time>
      </trkpt>
      <trkpt lat="48.78708" lon="5.15744">
        <ele>196</ele>
        <time>2023-01-06T08:41:50.000Z</time>
      </trkpt>
      <trkpt lat="48.78708" lon="5.15743">
        <ele>196</ele>
        <time>2023-01-06T08:41:51.000Z</time>
      </trkpt>
      <trkpt lat="48.78707" lon="5.15743">
        <ele>196</ele>
        <time>2023-01-06T08:41:52.000Z</time>
      </trkpt>
      <trkpt lat="48.78707" lon="5.15742">
        <ele>196</ele>
        <time>2023-01-06T08:41:53.000Z</time>
      </trkpt>
      <trkpt lat="48.78707" lon="5.1574">
        <ele>196</ele>
        <time>2023-01-06T08:41:54.000Z</time>
      </trkpt>
      <trkpt lat="48.78707" lon="5.15738">
        <ele>196</ele>
        <time>2023-01-06T08:41:55.000Z</time>
      </trkpt>
      <trkpt lat="48.78706" lon="5.15735">
        <ele>195</ele>
        <time>2023-01-06T08:41:56.000Z</time>
      </trkpt>
      <trkpt lat="48.78704" lon="5.15731">
        <ele>195</ele>
        <time>2023-01-06T08:41:57.000Z</time>
      </trkpt>
      <trkpt lat="48.78703" lon="5.15728">
        <ele>195</ele>
        <time>2023-01-06T08:41:58.000Z</time>
      </trkpt>
      <trkpt lat="48.78702" lon="5.15724">
        <ele>195</ele>
        <time>2023-01-06T08:41:59.000Z</time>
      </trkpt>
      <trkpt lat="48.78701" lon="5.1572">
        <ele>195</ele>
        <time>2023-01-06T08:42:00.000Z</time>
      </trkpt>
      <trkpt lat="48.787" lon="5.15716">
        <ele>195</ele>
        <time>2023-01-06T08:42:01.000Z</time>
      </trkpt>
      <trkpt lat="48.78699" lon="5.15713">
        <ele>194.5</ele>
        <time>2023-01-06T08:42:02.000Z</time>
      </trkpt>
      <trkpt lat="48.78698" lon="5.1571">
        <ele>194</ele>
        <time>2023-01-06T08:42:03.000Z</time>
      </trkpt>
      <trkpt lat="48.78698" lon="5.15706">
        <ele>194</ele>
        <time>2023-01-06T08:42:04.000Z</time>
      </trkpt>
      <trkpt lat="48.78699" lon="5.15703">
        <ele>194</ele>
        <time>2023-01-06T08:42:05.000Z</time>
      </trkpt>
      <trkpt lat="48.78699" lon="5.15699">
        <ele>194</ele>
        <time>2023-01-06T08:42:06.000Z</time>
      </trkpt>
      <trkpt lat="48.78699" lon="5.15696">
        <ele>194</ele>
        <time>2023-01-06T08:42:07.000Z</time>
      </trkpt>
      <trkpt lat="48.78699" lon="5.15693">
        <ele>193.5</ele>
        <time>2023-01-06T08:42:08.000Z</time>
      </trkpt>
      <trkpt lat="48.78699" lon="5.15689">
        <ele>193</ele>
        <time>2023-01-06T08:42:09.000Z</time>
      </trkpt>
      <trkpt lat="48.78699" lon="5.15687">
        <ele>193</ele>
        <time>2023-01-06T08:42:10.000Z</time>
      </trkpt>
      <trkpt lat="48.78699" lon="5.15684">
        <ele>193</ele>
        <time>2023-01-06T08:42:11.000Z</time>
      </trkpt>
      <trkpt lat="48.78699" lon="5.15681">
        <ele>193</ele>
        <time>2023-01-06T08:42:12.000Z</time>
      </trkpt>
      <trkpt lat="48.78698" lon="5.15679">
        <ele>193</ele>
        <time>2023-01-06T08:42:13.000Z</time>
      </trkpt>
      <trkpt lat="48.78698" lon="5.15677">
        <ele>193</ele>
        <time>2023-01-06T08:42:14.000Z</time>
      </trkpt>
      <trkpt lat="48.78698" lon="5.15676">
        <ele>192.5</ele>
        <time>2023-01-06T08:42:15.000Z</time>
      </trkpt>
      <trkpt lat="48.78698" lon="5.15674">
        <ele>192</ele>
        <time>2023-01-06T08:42:16.000Z</time>
      </trkpt>
      <trkpt lat="48.78698" lon="5.15673">
        <ele>192</ele>
        <time>2023-01-06T08:42:17.000Z</time>
      </trkpt>
      <trkpt lat="48.78698" lon="5.15672">
        <ele>192</ele>
        <time>2023-01-06T08:42:18.000Z</time>
      </trkpt>
      <trkpt lat="48.78698" lon="5.15671">
        <ele>192</ele>
        <time>2023-01-06T08:42:19.000Z</time>
      </trkpt>
      <trkpt lat="48.78699" lon="5.1567">
        <ele>192</ele>
        <time>2023-01-06T08:42:20.000Z</time>
      </trkpt>
      <trkpt lat="48.78699" lon="5.15669">
        <ele>192</ele>
        <time>2023-01-06T08:42:21.000Z</time>
      </trkpt>
      <trkpt lat="48.78699" lon="5.15668">
        <ele>192</ele>
        <time>2023-01-06T08:42:22.000Z</time>
      </trkpt>
      <trkpt lat="48.787" lon="5.15667">
        <ele>192</ele>
        <time>2023-01-06T08:42:23.000Z</time>
      </trkpt>
      <trkpt lat="48.787" lon="5.15666">
        <ele>192</ele>
        <time>2023-01-06T08:42:24.000Z</time>
      </trkpt>
      <trkpt lat="48.787" lon="5.15665">
        <ele>192</ele>
        <time>2023-01-06T08:42:25.000Z</time>
      </trkpt>
      <trkpt lat="48.787" lon="5.15664">
        <ele>192</ele>
        <time>2023-01-06T08:42:26.000Z</time>
      </trkpt>
      <trkpt lat="48.78701" lon="5.15663">
        <ele>192</ele>
        <time>2023-01-06T08:42:27.000Z</time>
      </trkpt>
      <trkpt lat="48.78701" lon="5.15663">
        <ele>192</ele>
        <time>2023-01-06T08:42:28.000Z</time>
      </trkpt>
      <trkpt lat="48.78701" lon="5.15662">
        <ele>192</ele>
        <time>2023-01-06T08:42:29.000Z</time>
      </trkpt>
      <trkpt lat="48.78701" lon="5.15662">
        <ele>191.5</ele>
        <time>2023-01-06T08:42:30.000Z</time>
      </trkpt>
      <trkpt lat="48.78701" lon="5.1566">
        <ele>191</ele>
        <time>2023-01-06T08:42:31.000Z</time>
      </trkpt>
      <trkpt lat="48.78701" lon="5.15658">
        <ele>191</ele>
        <time>2023-01-06T08:42:32.000Z</time>
      </trkpt>
      <trkpt lat="48.78701" lon="5.15655">
        <ele>191</ele>
        <time>2023-01-06T08:42:33.000Z</time>
      </trkpt>
      <trkpt lat="48.78701" lon="5.15652">
        <ele>191</ele>
        <time>2023-01-06T08:42:34.000Z</time>
      </trkpt>
      <trkpt lat="48.78701" lon="5.15649">
        <ele>191</ele>
        <time>2023-01-06T08:42:35.000Z</time>
      </trkpt>
      <trkpt lat="48.78701" lon="5.15646">
        <ele>191</ele>
        <time>2023-01-06T08:42:36.000Z</time>
      </trkpt>
      <trkpt lat="48.78701" lon="5.15643">
        <ele>191</ele>
        <time>2023-01-06T08:42:37.000Z</time>
      </trkpt>
      <trkpt lat="48.78701" lon="5.1564">
        <ele>191</ele>
        <time>2023-01-06T08:42:38.000Z</time>
      </trkpt>
      <trkpt lat="48.787" lon="5.15638">
        <ele>191</ele>
        <time>2023-01-06T08:42:39.000Z</time>
      </trkpt>
      <trkpt lat="48.787" lon="5.15635">
        <ele>191</ele>
        <time>2023-01-06T08:42:40.000Z</time>
      </trkpt>
      <trkpt lat="48.787" lon="5.15632">
        <ele>191</ele>
        <time>2023-01-06T08:42:41.000Z</time>
      </trkpt>
      <trkpt lat="48.787" lon="5.15629">
        <ele>191</ele>
        <time>2023-01-06T08:42:42.000Z</time>
      </trkpt>
      <trkpt lat="48.787" lon="5.15626">
        <ele>191</ele>
        <time>2023-01-06T08:42:43.000Z</time>
      </trkpt>
      <trkpt lat="48.787" lon="5.15624">
        <ele>191</ele>
        <time>2023-01-06T08:42:44.000Z</time>
      </trkpt>
      <trkpt lat="48.787" lon="5.15621">
        <ele>191</ele>
        <time>2023-01-06T08:42:45.000Z</time>
      </trkpt>
      <trkpt lat="48.78701" lon="5.15619">
        <ele>191</ele>
        <time>2023-01-06T08:42:46.000Z</time>
      </trkpt>
      <trkpt lat="48.78701" lon="5.15616">
        <ele>191</ele>
        <time>2023-01-06T08:42:47.000Z</time>
      </trkpt>
      <trkpt lat="48.78701" lon="5.15615">
        <ele>191</ele>
        <time>2023-01-06T08:42:48.000Z</time>
      </trkpt>
      <trkpt lat="48.78701" lon="5.15613">
        <ele>191</ele>
        <time>2023-01-06T08:42:49.000Z</time>
      </trkpt>
      <trkpt lat="48.78701" lon="5.15612">
        <ele>191</ele>
        <time>2023-01-06T08:42:50.000Z</time>
      </trkpt>
      <trkpt lat="48.78701" lon="5.15611">
        <ele>191</ele>
        <time>2023-01-06T08:42:51.000Z</time>
      </trkpt>
      <trkpt lat="48.787" lon="5.1561">
        <ele>190</ele>
        <time>2023-01-06T08:42:52.000Z</time>
      </trkpt>
      <trkpt lat="48.787" lon="5.15609">
        <ele>190</ele>
        <time>2023-01-06T08:42:53.000Z</time>
      </trkpt>
      <trkpt lat="48.787" lon="5.15609">
        <ele>190</ele>
        <time>2023-01-06T08:42:54.000Z</time>
      </trkpt>
      <trkpt lat="48.787" lon="5.15608">
        <ele>190</ele>
        <time>2023-01-06T08:42:55.000Z</time>
      </trkpt>
      <trkpt lat="48.787" lon="5.15608">
        <ele>190</ele>
        <time>2023-01-06T08:42:56.000Z</time>
      </trkpt>
      <trkpt lat="48.787" lon="5.15608">
        <ele>190</ele>
        <time>2023-01-06T08:42:57.000Z</time>
      </trkpt>
      <trkpt lat="48.78699" lon="5.15607">
        <ele>190</ele>
        <time>2023-01-06T08:42:58.000Z</time>
      </trkpt>
      <trkpt lat="48.78699" lon="5.15607">
        <ele>190</ele>
        <time>2023-01-06T08:42:59.000Z</time>
      </trkpt>
      <trkpt lat="48.78698" lon="5.15607">
        <ele>190</ele>
        <time>2023-01-06T08:43:00.000Z</time>
      </trkpt>
      <trkpt lat="48.78698" lon="5.15606">
        <ele>190</ele>
        <time>2023-01-06T08:43:01.000Z</time>
      </trkpt>
      <trkpt lat="48.78698" lon="5.15606">
        <ele>190</ele>
        <time>2023-01-06T08:43:02.000Z</time>
      </trkpt>
      <trkpt lat="48.78698" lon="5.15607">
        <ele>190</ele>
        <time>2023-01-06T08:43:03.000Z</time>
      </trkpt>
      <trkpt lat="48.78699" lon="5.15607">
        <ele>190</ele>
        <time>2023-01-06T08:43:04.000Z</time>
      </trkpt>
      <trkpt lat="48.787" lon="5.15608">
        <ele>190</ele>
        <time>2023-01-06T08:43:05.000Z</time>
      </trkpt>
      <trkpt lat="48.78701" lon="5.15608">
        <ele>190</ele>
        <time>2023-01-06T08:43:06.000Z</time>
      </trkpt>
      <trkpt lat="48.78702" lon="5.15609">
        <ele>190</ele>
        <time>2023-01-06T08:43:07.000Z</time>
      </trkpt>
      <trkpt lat="48.78702" lon="5.15608">
        <ele>190</ele>
        <time>2023-01-06T08:43:08.000Z</time>
      </trkpt>
      <trkpt lat="48.78703" lon="5.15608">
        <ele>190</ele>
        <time>2023-01-06T08:43:09.000Z</time>
      </trkpt>
      <trkpt lat="48.78704" lon="5.15608">
        <ele>190</ele>
        <time>2023-01-06T08:43:10.000Z</time>
      </trkpt>
      <trkpt lat="48.78704" lon="5.15607">
        <ele>190.3</ele>
        <time>2023-01-06T08:43:11.000Z</time>
      </trkpt>
      <trkpt lat="48.78705" lon="5.15607">
        <ele>190.7</ele>
        <time>2023-01-06T08:43:12.000Z</time>
      </trkpt>
      <trkpt lat="48.78705" lon="5.15606">
        <ele>191</ele>
        <time>2023-01-06T08:43:13.000Z</time>
      </trkpt>
      <trkpt lat="48.78705" lon="5.15606">
        <ele>191</ele>
        <time>2023-01-06T08:43:14.000Z</time>
      </trkpt>
      <trkpt lat="48.78705" lon="5.15606">
        <ele>191</ele>
        <time>2023-01-06T08:43:15.000Z</time>
      </trkpt>
      <trkpt lat="48.78705" lon="5.15606">
        <ele>191</ele>
        <time>2023-01-06T08:43:16.000Z</time>
      </trkpt>
      <trkpt lat="48.78705" lon="5.15606">
        <ele>191</ele>
        <time>2023-01-06T08:43:17.000Z</time>
      </trkpt>
      <trkpt lat="48.78705" lon="5.15606">
        <ele>191</ele>
        <time>2023-01-06T08:43:18.000Z</time>
      </trkpt>
      <trkpt lat="48.78705" lon="5.15606">
        <ele>191</ele>
        <time>2023-01-06T08:43:19.000Z</time>
      </trkpt>
      <trkpt lat="48.78705" lon="5.15606">
        <ele>191</ele>
        <time>2023-01-06T08:43:20.000Z</time>
      </trkpt>
      <trkpt lat="48.78705" lon="5.15606">
        <ele>191</ele>
        <time>2023-01-06T08:43:21.000Z</time>
      </trkpt>
      <trkpt lat="48.78706" lon="5.15606">
        <ele>191</ele>
        <time>2023-01-06T08:43:22.000Z</time>
      </trkpt>
      <trkpt lat="48.78706" lon="5.15606">
        <ele>191</ele>
        <time>2023-01-06T08:43:23.000Z</time>
      </trkpt>
      <trkpt lat="48.78706" lon="5.15606">
        <ele>191</ele>
        <time>2023-01-06T08:43:24.000Z</time>
      </trkpt>
      <trkpt lat="48.78706" lon="5.15605">
        <ele>191</ele>
        <time>2023-01-06T08:43:25.000Z</time>
      </trkpt>
      <trkpt lat="48.78706" lon="5.15605">
        <ele>191</ele>
        <time>2023-01-06T08:43:26.000Z</time>
      </trkpt>
      <trkpt lat="48.78706" lon="5.15605">
        <ele>191</ele>
        <time>2023-01-06T08:43:27.000Z</time>
      </trkpt>
      <trkpt lat="48.78706" lon="5.15605">
        <ele>191</ele>
        <time>2023-01-06T08:43:28.000Z</time>
      </trkpt>
      <trkpt lat="48.78706" lon="5.15605">
        <ele>191</ele>
        <time>2023-01-06T08:43:29.000Z</time>
      </trkpt>
      <trkpt lat="48.78706" lon="5.15605">
        <ele>190.5</ele>
        <time>2023-01-06T08:43:30.000Z</time>
      </trkpt>
      <trkpt lat="48.78706" lon="5.15605">
        <ele>190</ele>
        <time>2023-01-06T08:43:31.000Z</time>
      </trkpt>
      <trkpt lat="48.78705" lon="5.15604">
        <ele>190</ele>
        <time>2023-01-06T08:43:32.000Z</time>
      </trkpt>
      <trkpt lat="48.78704" lon="5.15604">
        <ele>190</ele>
        <time>2023-01-06T08:43:33.000Z</time>
      </trkpt>
      <trkpt lat="48.78703" lon="5.15604">
        <ele>190</ele>
        <time>2023-01-06T08:43:34.000Z</time>
      </trkpt>
      <trkpt lat="48.78702" lon="5.15604">
        <ele>190</ele>
        <time>2023-01-06T08:43:35.000Z</time>
      </trkpt>
      <trkpt lat="48.78701" lon="5.15605">
        <ele>190</ele>
        <time>2023-01-06T08:43:36.000Z</time>
      </trkpt>
      <trkpt lat="48.78701" lon="5.15605">
        <ele>189.7</ele>
        <time>2023-01-06T08:43:37.000Z</time>
      </trkpt>
      <trkpt lat="48.787" lon="5.15606">
        <ele>189.3</ele>
        <time>2023-01-06T08:43:38.000Z</time>
      </trkpt>
      <trkpt lat="48.78699" lon="5.15607">
        <ele>189</ele>
        <time>2023-01-06T08:43:39.000Z</time>
      </trkpt>
      <trkpt lat="48.78698" lon="5.15607">
        <ele>189</ele>
        <time>2023-01-06T08:43:40.000Z</time>
      </trkpt>
      <trkpt lat="48.78697" lon="5.15608">
        <ele>189</ele>
        <time>2023-01-06T08:43:41.000Z</time>
      </trkpt>
      <trkpt lat="48.78695" lon="5.15609">
        <ele>189</ele>
        <time>2023-01-06T08:43:42.000Z</time>
      </trkpt>
      <trkpt lat="48.78693" lon="5.15609">
        <ele>189</ele>
        <time>2023-01-06T08:43:43.000Z</time>
      </trkpt>
      <trkpt lat="48.78691" lon="5.15609">
        <ele>189</ele>
        <time>2023-01-06T08:43:44.000Z</time>
      </trkpt>
      <trkpt lat="48.7869" lon="5.15609">
        <ele>189</ele>
        <time>2023-01-06T08:43:45.000Z</time>
      </trkpt>
      <trkpt lat="48.78688" lon="5.15609">
        <ele>189</ele>
        <time>2023-01-06T08:43:46.000Z</time>
      </trkpt>
      <trkpt lat="48.78687" lon="5.15609">
        <ele>189.3</ele>
        <time>2023-01-06T08:43:47.000Z</time>
      </trkpt>
      <trkpt lat="48.78685" lon="5.15609">
        <ele>189.7</ele>
        <time>2023-01-06T08:43:48.000Z</time>
      </trkpt>
      <trkpt lat="48.78684" lon="5.15609">
        <ele>190</ele>
        <time>2023-01-06T08:43:49.000Z</time>
      </trkpt>
      <trkpt lat="48.78684" lon="5.15609">
        <ele>190</ele>
        <time>2023-01-06T08:43:50.000Z</time>
      </trkpt>
      <trkpt lat="48.78683" lon="5.15609">
        <ele>190.3</ele>
        <time>2023-01-06T08:43:51.000Z</time>
      </trkpt>
      <trkpt lat="48.78683" lon="5.15609">
        <ele>190.7</ele>
        <time>2023-01-06T08:43:52.000Z</time>
      </trkpt>
      <trkpt lat="48.78683" lon="5.15609">
        <ele>191</ele>
        <time>2023-01-06T08:43:53.000Z</time>
      </trkpt>
      <trkpt lat="48.78682" lon="5.1561">
        <ele>191</ele>
        <time>2023-01-06T08:43:54.000Z</time>
      </trkpt>
      <trkpt lat="48.78682" lon="5.1561">
        <ele>191.3</ele>
        <time>2023-01-06T08:43:55.000Z</time>
      </trkpt>
      <trkpt lat="48.78681" lon="5.1561">
        <ele>191.7</ele>
        <time>2023-01-06T08:43:56.000Z</time>
      </trkpt>
      <trkpt lat="48.7868" lon="5.15611">
        <ele>192</ele>
        <time>2023-01-06T08:43:57.000Z</time>
      </trkpt>
      <trkpt lat="48.78679" lon="5.15611">
        <ele>192</ele>
        <time>2023-01-06T08:43:58.000Z</time>
      </trkpt>
      <trkpt lat="48.78678" lon="5.15612">
        <ele>192.3</ele>
        <time>2023-01-06T08:43:59.000Z</time>
      </trkpt>
      <trkpt lat="48.78676" lon="5.15612">
        <ele>192.7</ele>
        <time>2023-01-06T08:44:00.000Z</time>
      </trkpt>
      <trkpt lat="48.78675" lon="5.15612">
        <ele>193</ele>
        <time>2023-01-06T08:44:01.000Z</time>
      </trkpt>
      <trkpt lat="48.78673" lon="5.15613">
        <ele>194</ele>
        <time>2023-01-06T08:44:02.000Z</time>
      </trkpt>
      <trkpt lat="48.78672" lon="5.15613">
        <ele>194</ele>
        <time>2023-01-06T08:44:03.000Z</time>
      </trkpt>
      <trkpt lat="48.7867" lon="5.15612">
        <ele>194</ele>
        <time>2023-01-06T08:44:04.000Z</time>
      </trkpt>
      <trkpt lat="48.78669" lon="5.15612">
        <ele>194</ele>
        <time>2023-01-06T08:44:05.000Z</time>
      </trkpt>
      <trkpt lat="48.78668" lon="5.15612">
        <ele>194.5</ele>
        <time>2023-01-06T08:44:06.000Z</time>
      </trkpt>
      <trkpt lat="48.78666" lon="5.15611">
        <ele>195</ele>
        <time>2023-01-06T08:44:07.000Z</time>
      </trkpt>
      <trkpt lat="48.78665" lon="5.15611">
        <ele>195</ele>
        <time>2023-01-06T08:44:08.000Z</time>
      </trkpt>
      <trkpt lat="48.78664" lon="5.1561">
        <ele>195.3</ele>
        <time>2023-01-06T08:44:09.000Z</time>
      </trkpt>
      <trkpt lat="48.78663" lon="5.1561">
        <ele>195.7</ele>
        <time>2023-01-06T08:44:10.000Z</time>
      </trkpt>
      <trkpt lat="48.78662" lon="5.15611">
        <ele>196</ele>
        <time>2023-01-06T08:44:11.000Z</time>
      </trkpt>
      <trkpt lat="48.78661" lon="5.15611">
        <ele>196.5</ele>
        <time>2023-01-06T08:44:12.000Z</time>
      </trkpt>
      <trkpt lat="48.7866" lon="5.15612">
        <ele>197</ele>
        <time>2023-01-06T08:44:13.000Z</time>
      </trkpt>
      <trkpt lat="48.7866" lon="5.15612">
        <ele>197</ele>
        <time>2023-01-06T08:44:14.000Z</time>
      </trkpt>
      <trkpt lat="48.78659" lon="5.15613">
        <ele>197</ele>
        <time>2023-01-06T08:44:15.000Z</time>
      </trkpt>
      <trkpt lat="48.78658" lon="5.15614">
        <ele>197.5</ele>
        <time>2023-01-06T08:44:16.000Z</time>
      </trkpt>
      <trkpt lat="48.78658" lon="5.15614">
        <ele>198</ele>
        <time>2023-01-06T08:44:17.000Z</time>
      </trkpt>
      <trkpt lat="48.78657" lon="5.15615">
        <ele>198</ele>
        <time>2023-01-06T08:44:18.000Z</time>
      </trkpt>
      <trkpt lat="48.78657" lon="5.15615">
        <ele>198.3</ele>
        <time>2023-01-06T08:44:19.000Z</time>
      </trkpt>
      <trkpt lat="48.78656" lon="5.15615">
        <ele>198.7</ele>
        <time>2023-01-06T08:44:20.000Z</time>
      </trkpt>
      <trkpt lat="48.78655" lon="5.15616">
        <ele>199</ele>
        <time>2023-01-06T08:44:21.000Z</time>
      </trkpt>
      <trkpt lat="48.78654" lon="5.15616">
        <ele>199</ele>
        <time>2023-01-06T08:44:22.000Z</time>
      </trkpt>
      <trkpt lat="48.78653" lon="5.15616">
        <ele>199</ele>
        <time>2023-01-06T08:44:23.000Z</time>
      </trkpt>
      <trkpt lat="48.78652" lon="5.15617">
        <ele>199</ele>
        <time>2023-01-06T08:44:24.000Z</time>
      </trkpt>
      <trkpt lat="48.78651" lon="5.15617">
        <ele>199</ele>
        <time>2023-01-06T08:44:25.000Z</time>
      </trkpt>
      <trkpt lat="48.7865" lon="5.15617">
        <ele>199</ele>
        <time>2023-01-06T08:44:26.000Z</time>
      </trkpt>
      <trkpt lat="48.78648" lon="5.15618">
        <ele>199</ele>
        <time>2023-01-06T08:44:27.000Z</time>
      </trkpt>
      <trkpt lat="48.78647" lon="5.15618">
        <ele>199.5</ele>
        <time>2023-01-06T08:44:28.000Z</time>
      </trkpt>
      <trkpt lat="48.78645" lon="5.15619">
        <ele>200</ele>
        <time>2023-01-06T08:44:29.000Z</time>
      </trkpt>
      <trkpt lat="48.78644" lon="5.15619">
        <ele>200</ele>
        <time>2023-01-06T08:44:30.000Z</time>
      </trkpt>
      <trkpt lat="48.78643" lon="5.1562">
        <ele>200</ele>
        <time>2023-01-06T08:44:31.000Z</time>
      </trkpt>
      <trkpt lat="48.78641" lon="5.1562">
        <ele>200</ele>
        <time>2023-01-06T08:44:32.000Z</time>
      </trkpt>
      <trkpt lat="48.7864" lon="5.15621">
        <ele>200.3</ele>
        <time>2023-01-06T08:44:33.000Z</time>
      </trkpt>
      <trkpt lat="48.78639" lon="5.15622">
        <ele>200.7</ele>
        <time>2023-01-06T08:44:34.000Z</time>
      </trkpt>
      <trkpt lat="48.78638" lon="5.15623">
        <ele>201</ele>
        <time>2023-01-06T08:44:35.000Z</time>
      </trkpt>
      <trkpt lat="48.78637" lon="5.15623">
        <ele>201</ele>
        <time>2023-01-06T08:44:36.000Z</time>
      </trkpt>
      <trkpt lat="48.78636" lon="5.15624">
        <ele>201.3</ele>
        <time>2023-01-06T08:44:37.000Z</time>
      </trkpt>
      <trkpt lat="48.78636" lon="5.15624">
        <ele>201.7</ele>
        <time>2023-01-06T08:44:38.000Z</time>
      </trkpt>
      <trkpt lat="48.78635" lon="5.15624">
        <ele>202</ele>
        <time>2023-01-06T08:44:39.000Z</time>
      </trkpt>
      <trkpt lat="48.78635" lon="5.15625">
        <ele>202</ele>
        <time>2023-01-06T08:44:40.000Z</time>
      </trkpt>
      <trkpt lat="48.78635" lon="5.15625">
        <ele>202</ele>
        <time>2023-01-06T08:44:41.000Z</time>
      </trkpt>
      <trkpt lat="48.78634" lon="5.15625">
        <ele>202</ele>
        <time>2023-01-06T08:44:42.000Z</time>
      </trkpt>
      <trkpt lat="48.78633" lon="5.15626">
        <ele>202</ele>
        <time>2023-01-06T08:44:43.000Z</time>
      </trkpt>
      <trkpt lat="48.78632" lon="5.15626">
        <ele>202</ele>
        <time>2023-01-06T08:44:44.000Z</time>
      </trkpt>
      <trkpt lat="48.78631" lon="5.15626">
        <ele>202.3</ele>
        <time>2023-01-06T08:44:45.000Z</time>
      </trkpt>
      <trkpt lat="48.7863" lon="5.15626">
        <ele>202.7</ele>
        <time>2023-01-06T08:44:46.000Z</time>
      </trkpt>
      <trkpt lat="48.78629" lon="5.15626">
        <ele>203</ele>
        <time>2023-01-06T08:44:47.000Z</time>
      </trkpt>
      <trkpt lat="48.78628" lon="5.15626">
        <ele>203</ele>
        <time>2023-01-06T08:44:48.000Z</time>
      </trkpt>
      <trkpt lat="48.78627" lon="5.15627">
        <ele>203</ele>
        <time>2023-01-06T08:44:49.000Z</time>
      </trkpt>
      <trkpt lat="48.78625" lon="5.15627">
        <ele>203</ele>
        <time>2023-01-06T08:44:50.000Z</time>
      </trkpt>
      <trkpt lat="48.78624" lon="5.15628">
        <ele>203</ele>
        <time>2023-01-06T08:44:51.000Z</time>
      </trkpt>
      <trkpt lat="48.78623" lon="5.15628">
        <ele>203</ele>
        <time>2023-01-06T08:44:52.000Z</time>
      </trkpt>
      <trkpt lat="48.78621" lon="5.15629">
        <ele>203</ele>
        <time>2023-01-06T08:44:53.000Z</time>
      </trkpt>
      <trkpt lat="48.7862" lon="5.15629">
        <ele>203</ele>
        <time>2023-01-06T08:44:54.000Z</time>
      </trkpt>
      <trkpt lat="48.7862" lon="5.15629">
        <ele>203</ele>
        <time>2023-01-06T08:44:55.000Z</time>
      </trkpt>
      <trkpt lat="48.78619" lon="5.1563">
        <ele>203</ele>
        <time>2023-01-06T08:44:56.000Z</time>
      </trkpt>
      <trkpt lat="48.78618" lon="5.1563">
        <ele>203</ele>
        <time>2023-01-06T08:44:57.000Z</time>
      </trkpt>
      <trkpt lat="48.78617" lon="5.1563">
        <ele>204</ele>
        <time>2023-01-06T08:44:58.000Z</time>
      </trkpt>
      <trkpt lat="48.78616" lon="5.1563">
        <ele>204</ele>
        <time>2023-01-06T08:44:59.000Z</time>
      </trkpt>
      <trkpt lat="48.78615" lon="5.1563">
        <ele>204</ele>
        <time>2023-01-06T08:45:00.000Z</time>
      </trkpt>
      <trkpt lat="48.78614" lon="5.15631">
        <ele>204</ele>
        <time>2023-01-06T08:45:01.000Z</time>
      </trkpt>
      <trkpt lat="48.78613" lon="5.15631">
        <ele>204</ele>
        <time>2023-01-06T08:45:02.000Z</time>
      </trkpt>
      <trkpt lat="48.78611" lon="5.15632">
        <ele>204</ele>
        <time>2023-01-06T08:45:03.000Z</time>
      </trkpt>
      <trkpt lat="48.7861" lon="5.15634">
        <ele>204</ele>
        <time>2023-01-06T08:45:04.000Z</time>
      </trkpt>
      <trkpt lat="48.78608" lon="5.15635">
        <ele>204.3</ele>
        <time>2023-01-06T08:45:05.000Z</time>
      </trkpt>
      <trkpt lat="48.78607" lon="5.15637">
        <ele>204.7</ele>
        <time>2023-01-06T08:45:06.000Z</time>
      </trkpt>
      <trkpt lat="48.78606" lon="5.15638">
        <ele>205</ele>
        <time>2023-01-06T08:45:07.000Z</time>
      </trkpt>
      <trkpt lat="48.78605" lon="5.15639">
        <ele>205</ele>
        <time>2023-01-06T08:45:08.000Z</time>
      </trkpt>
      <trkpt lat="48.78604" lon="5.15639">
        <ele>205</ele>
        <time>2023-01-06T08:45:09.000Z</time>
      </trkpt>
      <trkpt lat="48.78603" lon="5.1564">
        <ele>205</ele>
        <time>2023-01-06T08:45:10.000Z</time>
      </trkpt>
      <trkpt lat="48.78602" lon="5.15641">
        <ele>205</ele>
        <time>2023-01-06T08:45:11.000Z</time>
      </trkpt>
      <trkpt lat="48.78602" lon="5.15641">
        <ele>205</ele>
        <time>2023-01-06T08:45:12.000Z</time>
      </trkpt>
      <trkpt lat="48.78601" lon="5.15642">
        <ele>205</ele>
        <time>2023-01-06T08:45:13.000Z</time>
      </trkpt>
      <trkpt lat="48.786" lon="5.15642">
        <ele>205</ele>
        <time>2023-01-06T08:45:14.000Z</time>
      </trkpt>
      <trkpt lat="48.78599" lon="5.15643">
        <ele>205</ele>
        <time>2023-01-06T08:45:15.000Z</time>
      </trkpt>
      <trkpt lat="48.78598" lon="5.15644">
        <ele>205.5</ele>
        <time>2023-01-06T08:45:16.000Z</time>
      </trkpt>
      <trkpt lat="48.78596" lon="5.15645">
        <ele>206</ele>
        <time>2023-01-06T08:45:17.000Z</time>
      </trkpt>
      <trkpt lat="48.78595" lon="5.15645">
        <ele>206</ele>
        <time>2023-01-06T08:45:18.000Z</time>
      </trkpt>
      <trkpt lat="48.78593" lon="5.15646">
        <ele>206</ele>
        <time>2023-01-06T08:45:19.000Z</time>
      </trkpt>
      <trkpt lat="48.78592" lon="5.15647">
        <ele>206</ele>
        <time>2023-01-06T08:45:20.000Z</time>
      </trkpt>
      <trkpt lat="48.78591" lon="5.15648">
        <ele>206</ele>
        <time>2023-01-06T08:45:21.000Z</time>
      </trkpt>
      <trkpt lat="48.7859" lon="5.1565">
        <ele>206</ele>
        <time>2023-01-06T08:45:22.000Z</time>
      </trkpt>
      <trkpt lat="48.78588" lon="5.15651">
        <ele>206</ele>
        <time>2023-01-06T08:45:23.000Z</time>
      </trkpt>
      <trkpt lat="48.78587" lon="5.15652">
        <ele>206</ele>
        <time>2023-01-06T08:45:24.000Z</time>
      </trkpt>
      <trkpt lat="48.78585" lon="5.15653">
        <ele>206</ele>
        <time>2023-01-06T08:45:25.000Z</time>
      </trkpt>
      <trkpt lat="48.78583" lon="5.15654">
        <ele>206</ele>
        <time>2023-01-06T08:45:26.000Z</time>
      </trkpt>
      <trkpt lat="48.78581" lon="5.15655">
        <ele>206</ele>
        <time>2023-01-06T08:45:27.000Z</time>
      </trkpt>
      <trkpt lat="48.78579" lon="5.15656">
        <ele>206</ele>
        <time>2023-01-06T08:45:28.000Z</time>
      </trkpt>
      <trkpt lat="48.78577" lon="5.15657">
        <ele>206</ele>
        <time>2023-01-06T08:45:29.000Z</time>
      </trkpt>
      <trkpt lat="48.78576" lon="5.15658">
        <ele>206</ele>
        <time>2023-01-06T08:45:30.000Z</time>
      </trkpt>
      <trkpt lat="48.78574" lon="5.15659">
        <ele>206</ele>
        <time>2023-01-06T08:45:31.000Z</time>
      </trkpt>
      <trkpt lat="48.78572" lon="5.15661">
        <ele>206</ele>
        <time>2023-01-06T08:45:32.000Z</time>
      </trkpt>
      <trkpt lat="48.7857" lon="5.15662">
        <ele>206</ele>
        <time>2023-01-06T08:45:33.000Z</time>
      </trkpt>
      <trkpt lat="48.78568" lon="5.15663">
        <ele>206</ele>
        <time>2023-01-06T08:45:34.000Z</time>
      </trkpt>
      <trkpt lat="48.78567" lon="5.15663">
        <ele>206</ele>
        <time>2023-01-06T08:45:35.000Z</time>
      </trkpt>
      <trkpt lat="48.78565" lon="5.15664">
        <ele>206</ele>
        <time>2023-01-06T08:45:36.000Z</time>
      </trkpt>
      <trkpt lat="48.78564" lon="5.15664">
        <ele>206</ele>
        <time>2023-01-06T08:45:37.000Z</time>
      </trkpt>
      <trkpt lat="48.78562" lon="5.15664">
        <ele>206</ele>
        <time>2023-01-06T08:45:38.000Z</time>
      </trkpt>
      <trkpt lat="48.78561" lon="5.15665">
        <ele>206</ele>
        <time>2023-01-06T08:45:39.000Z</time>
      </trkpt>
      <trkpt lat="48.7856" lon="5.15666">
        <ele>206.5</ele>
        <time>2023-01-06T08:45:40.000Z</time>
      </trkpt>
      <trkpt lat="48.78558" lon="5.15668">
        <ele>207</ele>
        <time>2023-01-06T08:45:41.000Z</time>
      </trkpt>
      <trkpt lat="48.78557" lon="5.15669">
        <ele>207</ele>
        <time>2023-01-06T08:45:42.000Z</time>
      </trkpt>
      <trkpt lat="48.78556" lon="5.15669">
        <ele>207</ele>
        <time>2023-01-06T08:45:43.000Z</time>
      </trkpt>
      <trkpt lat="48.78556" lon="5.1567">
        <ele>207</ele>
        <time>2023-01-06T08:45:44.000Z</time>
      </trkpt>
      <trkpt lat="48.78555" lon="5.1567">
        <ele>207</ele>
        <time>2023-01-06T08:45:45.000Z</time>
      </trkpt>
      <trkpt lat="48.78554" lon="5.15671">
        <ele>207</ele>
        <time>2023-01-06T08:45:46.000Z</time>
      </trkpt>
      <trkpt lat="48.78554" lon="5.15671">
        <ele>207</ele>
        <time>2023-01-06T08:45:47.000Z</time>
      </trkpt>
      <trkpt lat="48.78553" lon="5.15672">
        <ele>207</ele>
        <time>2023-01-06T08:45:48.000Z</time>
      </trkpt>
      <trkpt lat="48.78552" lon="5.15673">
        <ele>207</ele>
        <time>2023-01-06T08:45:49.000Z</time>
      </trkpt>
      <trkpt lat="48.78551" lon="5.15674">
        <ele>207</ele>
        <time>2023-01-06T08:45:50.000Z</time>
      </trkpt>
      <trkpt lat="48.7855" lon="5.15675">
        <ele>207</ele>
        <time>2023-01-06T08:45:51.000Z</time>
      </trkpt>
      <trkpt lat="48.78549" lon="5.15677">
        <ele>208</ele>
        <time>2023-01-06T08:45:52.000Z</time>
      </trkpt>
      <trkpt lat="48.78548" lon="5.15679">
        <ele>208</ele>
        <time>2023-01-06T08:45:53.000Z</time>
      </trkpt>
      <trkpt lat="48.78547" lon="5.15681">
        <ele>208</ele>
        <time>2023-01-06T08:45:54.000Z</time>
      </trkpt>
      <trkpt lat="48.78547" lon="5.15682">
        <ele>208</ele>
        <time>2023-01-06T08:45:55.000Z</time>
      </trkpt>
      <trkpt lat="48.78546" lon="5.15684">
        <ele>208</ele>
        <time>2023-01-06T08:45:56.000Z</time>
      </trkpt>
      <trkpt lat="48.78545" lon="5.15685">
        <ele>208</ele>
        <time>2023-01-06T08:45:57.000Z</time>
      </trkpt>
      <trkpt lat="48.78545" lon="5.15686">
        <ele>208</ele>
        <time>2023-01-06T08:45:58.000Z</time>
      </trkpt>
      <trkpt lat="48.78544" lon="5.15687">
        <ele>208</ele>
        <time>2023-01-06T08:45:59.000Z</time>
      </trkpt>
      <trkpt lat="48.78543" lon="5.15688">
        <ele>208</ele>
        <time>2023-01-06T08:46:00.000Z</time>
      </trkpt>
      <trkpt lat="48.78542" lon="5.15689">
        <ele>208</ele>
        <time>2023-01-06T08:46:01.000Z</time>
      </trkpt>
      <trkpt lat="48.7854" lon="5.15691">
        <ele>208</ele>
        <time>2023-01-06T08:46:02.000Z</time>
      </trkpt>
      <trkpt lat="48.78538" lon="5.15691">
        <ele>208</ele>
        <time>2023-01-06T08:46:03.000Z</time>
      </trkpt>
      <trkpt lat="48.78537" lon="5.1569">
        <ele>208</ele>
        <time>2023-01-06T08:46:04.000Z</time>
      </trkpt>
      <trkpt lat="48.78536" lon="5.15689">
        <ele>208</ele>
        <time>2023-01-06T08:46:05.000Z</time>
      </trkpt>
      <trkpt lat="48.78535" lon="5.15687">
        <ele>208</ele>
        <time>2023-01-06T08:46:06.000Z</time>
      </trkpt>
      <trkpt lat="48.78534" lon="5.15686">
        <ele>208</ele>
        <time>2023-01-06T08:46:07.000Z</time>
      </trkpt>
      <trkpt lat="48.78532" lon="5.15685">
        <ele>207.5</ele>
        <time>2023-01-06T08:46:08.000Z</time>
      </trkpt>
      <trkpt lat="48.78531" lon="5.15684">
        <ele>207</ele>
        <time>2023-01-06T08:46:09.000Z</time>
      </trkpt>
      <trkpt lat="48.7853" lon="5.15683">
        <ele>207</ele>
        <time>2023-01-06T08:46:10.000Z</time>
      </trkpt>
      <trkpt lat="48.78529" lon="5.15682">
        <ele>207</ele>
        <time>2023-01-06T08:46:11.000Z</time>
      </trkpt>
      <trkpt lat="48.78527" lon="5.15681">
        <ele>207</ele>
        <time>2023-01-06T08:46:12.000Z</time>
      </trkpt>
      <trkpt lat="48.78526" lon="5.1568">
        <ele>207</ele>
        <time>2023-01-06T08:46:13.000Z</time>
      </trkpt>
      <trkpt lat="48.78524" lon="5.15678">
        <ele>207</ele>
        <time>2023-01-06T08:46:14.000Z</time>
      </trkpt>
      <trkpt lat="48.78522" lon="5.15677">
        <ele>207</ele>
        <time>2023-01-06T08:46:15.000Z</time>
      </trkpt>
      <trkpt lat="48.78521" lon="5.15677">
        <ele>206.5</ele>
        <time>2023-01-06T08:46:16.000Z</time>
      </trkpt>
      <trkpt lat="48.78519" lon="5.15676">
        <ele>206</ele>
        <time>2023-01-06T08:46:17.000Z</time>
      </trkpt>
      <trkpt lat="48.78518" lon="5.15675">
        <ele>206</ele>
        <time>2023-01-06T08:46:18.000Z</time>
      </trkpt>
      <trkpt lat="48.78517" lon="5.15674">
        <ele>205.7</ele>
        <time>2023-01-06T08:46:19.000Z</time>
      </trkpt>
      <trkpt lat="48.78516" lon="5.15673">
        <ele>205.3</ele>
        <time>2023-01-06T08:46:20.000Z</time>
      </trkpt>
      <trkpt lat="48.78516" lon="5.15672">
        <ele>205</ele>
        <time>2023-01-06T08:46:21.000Z</time>
      </trkpt>
      <trkpt lat="48.78515" lon="5.15672">
        <ele>205</ele>
        <time>2023-01-06T08:46:22.000Z</time>
      </trkpt>
      <trkpt lat="48.78515" lon="5.15671">
        <ele>205</ele>
        <time>2023-01-06T08:46:23.000Z</time>
      </trkpt>
      <trkpt lat="48.78514" lon="5.1567">
        <ele>205</ele>
        <time>2023-01-06T08:46:24.000Z</time>
      </trkpt>
      <trkpt lat="48.78514" lon="5.1567">
        <ele>205</ele>
        <time>2023-01-06T08:46:25.000Z</time>
      </trkpt>
      <trkpt lat="48.78513" lon="5.15669">
        <ele>204.5</ele>
        <time>2023-01-06T08:46:26.000Z</time>
      </trkpt>
      <trkpt lat="48.78513" lon="5.15669">
        <ele>204</ele>
        <time>2023-01-06T08:46:27.000Z</time>
      </trkpt>
      <trkpt lat="48.78512" lon="5.15668">
        <ele>204</ele>
        <time>2023-01-06T08:46:28.000Z</time>
      </trkpt>
      <trkpt lat="48.78511" lon="5.15667">
        <ele>204</ele>
        <time>2023-01-06T08:46:29.000Z</time>
      </trkpt>
      <trkpt lat="48.7851" lon="5.15667">
        <ele>204</ele>
        <time>2023-01-06T08:46:30.000Z</time>
      </trkpt>
      <trkpt lat="48.78509" lon="5.15666">
        <ele>204</ele>
        <time>2023-01-06T08:46:31.000Z</time>
      </trkpt>
      <trkpt lat="48.78508" lon="5.15665">
        <ele>204</ele>
        <time>2023-01-06T08:46:32.000Z</time>
      </trkpt>
      <trkpt lat="48.78507" lon="5.15664">
        <ele>204</ele>
        <time>2023-01-06T08:46:33.000Z</time>
      </trkpt>
      <trkpt lat="48.78506" lon="5.15663">
        <ele>203.5</ele>
        <time>2023-01-06T08:46:34.000Z</time>
      </trkpt>
      <trkpt lat="48.78505" lon="5.15661">
        <ele>203</ele>
        <time>2023-01-06T08:46:35.000Z</time>
      </trkpt>
      <trkpt lat="48.78504" lon="5.1566">
        <ele>203</ele>
        <time>2023-01-06T08:46:36.000Z</time>
      </trkpt>
      <trkpt lat="48.78502" lon="5.15658">
        <ele>203</ele>
        <time>2023-01-06T08:46:37.000Z</time>
      </trkpt>
      <trkpt lat="48.78501" lon="5.15657">
        <ele>203</ele>
        <time>2023-01-06T08:46:38.000Z</time>
      </trkpt>
      <trkpt lat="48.785" lon="5.15655">
        <ele>202.7</ele>
        <time>2023-01-06T08:46:39.000Z</time>
      </trkpt>
      <trkpt lat="48.78498" lon="5.15654">
        <ele>202.3</ele>
        <time>2023-01-06T08:46:40.000Z</time>
      </trkpt>
      <trkpt lat="48.78497" lon="5.15652">
        <ele>202</ele>
        <time>2023-01-06T08:46:41.000Z</time>
      </trkpt>
      <trkpt lat="48.78495" lon="5.15651">
        <ele>202</ele>
        <time>2023-01-06T08:46:42.000Z</time>
      </trkpt>
      <trkpt lat="48.78493" lon="5.15651">
        <ele>202</ele>
        <time>2023-01-06T08:46:43.000Z</time>
      </trkpt>
      <trkpt lat="48.78491" lon="5.1565">
        <ele>202</ele>
        <time>2023-01-06T08:46:44.000Z</time>
      </trkpt>
      <trkpt lat="48.78489" lon="5.15649">
        <ele>202</ele>
        <time>2023-01-06T08:46:45.000Z</time>
      </trkpt>
      <trkpt lat="48.78487" lon="5.15648">
        <ele>202</ele>
        <time>2023-01-06T08:46:46.000Z</time>
      </trkpt>
      <trkpt lat="48.78484" lon="5.15648">
        <ele>201.7</ele>
        <time>2023-01-06T08:46:47.000Z</time>
      </trkpt>
      <trkpt lat="48.78482" lon="5.15647">
        <ele>201.3</ele>
        <time>2023-01-06T08:46:48.000Z</time>
      </trkpt>
      <trkpt lat="48.7848" lon="5.15647">
        <ele>201</ele>
        <time>2023-01-06T08:46:49.000Z</time>
      </trkpt>
      <trkpt lat="48.78478" lon="5.15647">
        <ele>201</ele>
        <time>2023-01-06T08:46:50.000Z</time>
      </trkpt>
      <trkpt lat="48.78476" lon="5.15647">
        <ele>201</ele>
        <time>2023-01-06T08:46:51.000Z</time>
      </trkpt>
      <trkpt lat="48.78474" lon="5.15647">
        <ele>201</ele>
        <time>2023-01-06T08:46:52.000Z</time>
      </trkpt>
      <trkpt lat="48.78472" lon="5.15647">
        <ele>200.5</ele>
        <time>2023-01-06T08:46:53.000Z</time>
      </trkpt>
      <trkpt lat="48.7847" lon="5.15647">
        <ele>200</ele>
        <time>2023-01-06T08:46:54.000Z</time>
      </trkpt>
      <trkpt lat="48.78469" lon="5.15646">
        <ele>200</ele>
        <time>2023-01-06T08:46:55.000Z</time>
      </trkpt>
      <trkpt lat="48.78467" lon="5.15646">
        <ele>200</ele>
        <time>2023-01-06T08:46:56.000Z</time>
      </trkpt>
      <trkpt lat="48.78465" lon="5.15645">
        <ele>200</ele>
        <time>2023-01-06T08:46:57.000Z</time>
      </trkpt>
      <trkpt lat="48.78464" lon="5.15644">
        <ele>199.5</ele>
        <time>2023-01-06T08:46:58.000Z</time>
      </trkpt>
      <trkpt lat="48.78462" lon="5.15643">
        <ele>199</ele>
        <time>2023-01-06T08:46:59.000Z</time>
      </trkpt>
      <trkpt lat="48.7846" lon="5.15642">
        <ele>199</ele>
        <time>2023-01-06T08:47:00.000Z</time>
      </trkpt>
      <trkpt lat="48.78458" lon="5.15641">
        <ele>199</ele>
        <time>2023-01-06T08:47:01.000Z</time>
      </trkpt>
      <trkpt lat="48.78456" lon="5.1564">
        <ele>198</ele>
        <time>2023-01-06T08:47:02.000Z</time>
      </trkpt>
      <trkpt lat="48.78454" lon="5.15641">
        <ele>198</ele>
        <time>2023-01-06T08:47:03.000Z</time>
      </trkpt>
      <trkpt lat="48.78452" lon="5.15642">
        <ele>198</ele>
        <time>2023-01-06T08:47:04.000Z</time>
      </trkpt>
      <trkpt lat="48.78451" lon="5.15642">
        <ele>198</ele>
        <time>2023-01-06T08:47:05.000Z</time>
      </trkpt>
      <trkpt lat="48.7845" lon="5.15643">
        <ele>197</ele>
        <time>2023-01-06T08:47:06.000Z</time>
      </trkpt>
      <trkpt lat="48.78448" lon="5.15643">
        <ele>196.7</ele>
        <time>2023-01-06T08:47:07.000Z</time>
      </trkpt>
      <trkpt lat="48.78447" lon="5.15642">
        <ele>196.3</ele>
        <time>2023-01-06T08:47:08.000Z</time>
      </trkpt>
      <trkpt lat="48.78445" lon="5.15642">
        <ele>196</ele>
        <time>2023-01-06T08:47:09.000Z</time>
      </trkpt>
      <trkpt lat="48.78443" lon="5.15641">
        <ele>196</ele>
        <time>2023-01-06T08:47:10.000Z</time>
      </trkpt>
      <trkpt lat="48.78442" lon="5.15641">
        <ele>196</ele>
        <time>2023-01-06T08:47:11.000Z</time>
      </trkpt>
      <trkpt lat="48.78441" lon="5.1564">
        <ele>195.5</ele>
        <time>2023-01-06T08:47:12.000Z</time>
      </trkpt>
      <trkpt lat="48.78439" lon="5.1564">
        <ele>195</ele>
        <time>2023-01-06T08:47:13.000Z</time>
      </trkpt>
      <trkpt lat="48.78438" lon="5.1564">
        <ele>194.5</ele>
        <time>2023-01-06T08:47:14.000Z</time>
      </trkpt>
      <trkpt lat="48.78436" lon="5.1564">
        <ele>194</ele>
        <time>2023-01-06T08:47:15.000Z</time>
      </trkpt>
      <trkpt lat="48.78434" lon="5.1564">
        <ele>193.5</ele>
        <time>2023-01-06T08:47:16.000Z</time>
      </trkpt>
      <trkpt lat="48.78432" lon="5.1564">
        <ele>193</ele>
        <time>2023-01-06T08:47:17.000Z</time>
      </trkpt>
      <trkpt lat="48.7843" lon="5.1564">
        <ele>193</ele>
        <time>2023-01-06T08:47:18.000Z</time>
      </trkpt>
      <trkpt lat="48.78429" lon="5.15641">
        <ele>192.7</ele>
        <time>2023-01-06T08:47:19.000Z</time>
      </trkpt>
      <trkpt lat="48.78427" lon="5.15641">
        <ele>192.3</ele>
        <time>2023-01-06T08:47:20.000Z</time>
      </trkpt>
      <trkpt lat="48.78425" lon="5.15641">
        <ele>192</ele>
        <time>2023-01-06T08:47:21.000Z</time>
      </trkpt>
      <trkpt lat="48.78423" lon="5.15641">
        <ele>191.5</ele>
        <time>2023-01-06T08:47:22.000Z</time>
      </trkpt>
      <trkpt lat="48.78422" lon="5.1564">
        <ele>191</ele>
        <time>2023-01-06T08:47:23.000Z</time>
      </trkpt>
      <trkpt lat="48.7842" lon="5.1564">
        <ele>190.5</ele>
        <time>2023-01-06T08:47:24.000Z</time>
      </trkpt>
      <trkpt lat="48.78418" lon="5.1564">
        <ele>190</ele>
        <time>2023-01-06T08:47:25.000Z</time>
      </trkpt>
      <trkpt lat="48.78417" lon="5.1564">
        <ele>190</ele>
        <time>2023-01-06T08:47:26.000Z</time>
      </trkpt>
      <trkpt lat="48.78416" lon="5.15639">
        <ele>190</ele>
        <time>2023-01-06T08:47:27.000Z</time>
      </trkpt>
      <trkpt lat="48.78414" lon="5.15639">
        <ele>189</ele>
        <time>2023-01-06T08:47:28.000Z</time>
      </trkpt>
      <trkpt lat="48.78413" lon="5.15638">
        <ele>189</ele>
        <time>2023-01-06T08:47:29.000Z</time>
      </trkpt>
      <trkpt lat="48.78412" lon="5.15638">
        <ele>189</ele>
        <time>2023-01-06T08:47:30.000Z</time>
      </trkpt>
      <trkpt lat="48.78411" lon="5.15637">
        <ele>188.7</ele>
        <time>2023-01-06T08:47:31.000Z</time>
      </trkpt>
      <trkpt lat="48.78409" lon="5.15637">
        <ele>188.3</ele>
        <time>2023-01-06T08:47:32.000Z</time>
      </trkpt>
      <trkpt lat="48.78408" lon="5.15637">
        <ele>188</ele>
        <time>2023-01-06T08:47:33.000Z</time>
      </trkpt>
      <trkpt lat="48.78407" lon="5.15637">
        <ele>188</ele>
        <time>2023-01-06T08:47:34.000Z</time>
      </trkpt>
      <trkpt lat="48.78406" lon="5.15637">
        <ele>188</ele>
        <time>2023-01-06T08:47:35.000Z</time>
      </trkpt>
      <trkpt lat="48.78404" lon="5.15637">
        <ele>188</ele>
        <time>2023-01-06T08:47:36.000Z</time>
      </trkpt>
      <trkpt lat="48.78404" lon="5.15637">
        <ele>187.7</ele>
        <time>2023-01-06T08:47:37.000Z</time>
      </trkpt>
      <trkpt lat="48.78403" lon="5.15637">
        <ele>187.3</ele>
        <time>2023-01-06T08:47:38.000Z</time>
      </trkpt>
      <trkpt lat="48.78402" lon="5.15637">
        <ele>187</ele>
        <time>2023-01-06T08:47:39.000Z</time>
      </trkpt>
      <trkpt lat="48.78402" lon="5.15637">
        <ele>187</ele>
        <time>2023-01-06T08:47:40.000Z</time>
      </trkpt>
      <trkpt lat="48.78401" lon="5.15637">
        <ele>187</ele>
        <time>2023-01-06T08:47:41.000Z</time>
      </trkpt>
      <trkpt lat="48.78401" lon="5.15637">
        <ele>187</ele>
        <time>2023-01-06T08:47:42.000Z</time>
      </trkpt>
      <trkpt lat="48.78401" lon="5.15637">
        <ele>187</ele>
        <time>2023-01-06T08:47:43.000Z</time>
      </trkpt>
      <trkpt lat="48.78401" lon="5.15637">
        <ele>187</ele>
        <time>2023-01-06T08:47:44.000Z</time>
      </trkpt>
      <trkpt lat="48.784" lon="5.15637">
        <ele>187</ele>
        <time>2023-01-06T08:47:45.000Z</time>
      </trkpt>
      <trkpt lat="48.784" lon="5.15637">
        <ele>187</ele>
        <time>2023-01-06T08:47:46.000Z</time>
      </trkpt>
      <trkpt lat="48.784" lon="5.15637">
        <ele>187</ele>
        <time>2023-01-06T08:47:47.000Z</time>
      </trkpt>
      <trkpt lat="48.784" lon="5.15637">
        <ele>187</ele>
        <time>2023-01-06T08:47:48.000Z</time>
      </trkpt>
      <trkpt lat="48.784" lon="5.15637">
        <ele>187</ele>
        <time>2023-01-06T08:47:49.000Z</time>
      </trkpt>
      <trkpt lat="48.784" lon="5.15637">
        <ele>187</ele>
        <time>2023-01-06T08:47:50.000Z</time>
      </trkpt>
      <trkpt lat="48.784" lon="5.15637">
        <ele>187</ele>
        <time>2023-01-06T08:47:51.000Z</time>
      </trkpt>
      <trkpt lat="48.784" lon="5.15637">
        <ele>187</ele>
        <time>2023-01-06T08:47:52.000Z</time>
      </trkpt>
      <trkpt lat="48.784" lon="5.15637">
        <ele>187</ele>
        <time>2023-01-06T08:47:53.000Z</time>
      </trkpt>
      <trkpt lat="48.784" lon="5.15637">
        <ele>187</ele>
        <time>2023-01-06T08:47:54.000Z</time>
      </trkpt>
      <trkpt lat="48.784" lon="5.15637">
        <ele>187</ele>
        <time>2023-01-06T08:47:55.000Z</time>
      </trkpt>
      <trkpt lat="48.784" lon="5.15637">
        <ele>187</ele>
        <time>2023-01-06T08:47:56.000Z</time>
      </trkpt>
      <trkpt lat="48.784" lon="5.15637">
        <ele>187</ele>
        <time>2023-01-06T08:47:57.000Z</time>
      </trkpt>
      <trkpt lat="48.784" lon="5.15637">
        <ele>187</ele>
        <time>2023-01-06T08:47:58.000Z</time>
      </trkpt>
      <trkpt lat="48.784" lon="5.15637">
        <ele>187</ele>
        <time>2023-01-06T08:47:59.000Z</time>
      </trkpt>
      <trkpt lat="48.784" lon="5.15637">
        <ele>187</ele>
        <time>2023-01-06T08:48:00.000Z</time>
      </trkpt>
      <trkpt lat="48.784" lon="5.15636">
        <ele>187</ele>
        <time>2023-01-06T08:48:01.000Z</time>
      </trkpt>
      <trkpt lat="48.784" lon="5.15636">
        <ele>187</ele>
        <time>2023-01-06T08:48:02.000Z</time>
      </trkpt>
      <trkpt lat="48.784" lon="5.15636">
        <ele>187</ele>
        <time>2023-01-06T08:48:03.000Z</time>
      </trkpt>
      <trkpt lat="48.78399" lon="5.15636">
        <ele>187</ele>
        <time>2023-01-06T08:48:04.000Z</time>
      </trkpt>
      <trkpt lat="48.78399" lon="5.15636">
        <ele>187</ele>
        <time>2023-01-06T08:48:05.000Z</time>
      </trkpt>
      <trkpt lat="48.78399" lon="5.15636">
        <ele>187</ele>
        <time>2023-01-06T08:48:06.000Z</time>
      </trkpt>
      <trkpt lat="48.78399" lon="5.15635">
        <ele>187</ele>
        <time>2023-01-06T08:48:07.000Z</time>
      </trkpt>
      <trkpt lat="48.78399" lon="5.15635">
        <ele>187</ele>
        <time>2023-01-06T08:48:08.000Z</time>
      </trkpt>
      <trkpt lat="48.78399" lon="5.15635">
        <ele>187</ele>
        <time>2023-01-06T08:48:09.000Z</time>
      </trkpt>
      <trkpt lat="48.78399" lon="5.15634">
        <ele>187</ele>
        <time>2023-01-06T08:48:10.000Z</time>
      </trkpt>
      <trkpt lat="48.78399" lon="5.15634">
        <ele>187</ele>
        <time>2023-01-06T08:48:11.000Z</time>
      </trkpt>
      <trkpt lat="48.78399" lon="5.15633">
        <ele>187</ele>
        <time>2023-01-06T08:48:12.000Z</time>
      </trkpt>
      <trkpt lat="48.78399" lon="5.15633">
        <ele>187</ele>
        <time>2023-01-06T08:48:13.000Z</time>
      </trkpt>
      <trkpt lat="48.78399" lon="5.15633">
        <ele>187</ele>
        <time>2023-01-06T08:48:14.000Z</time>
      </trkpt>
      <trkpt lat="48.78399" lon="5.15633">
        <ele>187</ele>
        <time>2023-01-06T08:48:15.000Z</time>
      </trkpt>
      <trkpt lat="48.78399" lon="5.15632">
        <ele>187</ele>
        <time>2023-01-06T08:48:16.000Z</time>
      </trkpt>
      <trkpt lat="48.784" lon="5.1563">
        <ele>186.5</ele>
        <time>2023-01-06T08:48:17.000Z</time>
      </trkpt>
      <trkpt lat="48.78401" lon="5.15628">
        <ele>186</ele>
        <time>2023-01-06T08:48:18.000Z</time>
      </trkpt>
      <trkpt lat="48.78401" lon="5.15626">
        <ele>186</ele>
        <time>2023-01-06T08:48:19.000Z</time>
      </trkpt>
      <trkpt lat="48.78402" lon="5.15624">
        <ele>186</ele>
        <time>2023-01-06T08:48:20.000Z</time>
      </trkpt>
      <trkpt lat="48.78402" lon="5.15622">
        <ele>186</ele>
        <time>2023-01-06T08:48:21.000Z</time>
      </trkpt>
      <trkpt lat="48.78402" lon="5.15621">
        <ele>186</ele>
        <time>2023-01-06T08:48:22.000Z</time>
      </trkpt>
      <trkpt lat="48.78402" lon="5.1562">
        <ele>186</ele>
        <time>2023-01-06T08:48:23.000Z</time>
      </trkpt>
      <trkpt lat="48.78401" lon="5.1562">
        <ele>186</ele>
        <time>2023-01-06T08:48:24.000Z</time>
      </trkpt>
      <trkpt lat="48.784" lon="5.15618">
        <ele>186</ele>
        <time>2023-01-06T08:48:25.000Z</time>
      </trkpt>
      <trkpt lat="48.78399" lon="5.15615">
        <ele>186</ele>
        <time>2023-01-06T08:48:26.000Z</time>
      </trkpt>
      <trkpt lat="48.78398" lon="5.15612">
        <ele>185.7</ele>
        <time>2023-01-06T08:48:27.000Z</time>
      </trkpt>
      <trkpt lat="48.78398" lon="5.15607">
        <ele>185.3</ele>
        <time>2023-01-06T08:48:28.000Z</time>
      </trkpt>
      <trkpt lat="48.78397" lon="5.15603">
        <ele>185</ele>
        <time>2023-01-06T08:48:29.000Z</time>
      </trkpt>
      <trkpt lat="48.78397" lon="5.15598">
        <ele>185</ele>
        <time>2023-01-06T08:48:30.000Z</time>
      </trkpt>
      <trkpt lat="48.78397" lon="5.15594">
        <ele>185</ele>
        <time>2023-01-06T08:48:31.000Z</time>
      </trkpt>
      <trkpt lat="48.78397" lon="5.15591">
        <ele>185</ele>
        <time>2023-01-06T08:48:32.000Z</time>
      </trkpt>
      <trkpt lat="48.78396" lon="5.15588">
        <ele>185</ele>
        <time>2023-01-06T08:48:33.000Z</time>
      </trkpt>
      <trkpt lat="48.78396" lon="5.15586">
        <ele>185</ele>
        <time>2023-01-06T08:48:34.000Z</time>
      </trkpt>
      <trkpt lat="48.78396" lon="5.15585">
        <ele>184.7</ele>
        <time>2023-01-06T08:48:35.000Z</time>
      </trkpt>
      <trkpt lat="48.78396" lon="5.15585">
        <ele>184.3</ele>
        <time>2023-01-06T08:48:36.000Z</time>
      </trkpt>
      <trkpt lat="48.78396" lon="5.15585">
        <ele>184</ele>
        <time>2023-01-06T08:48:37.000Z</time>
      </trkpt>
      <trkpt lat="48.78396" lon="5.15584">
        <ele>184</ele>
        <time>2023-01-06T08:48:38.000Z</time>
      </trkpt>
      <trkpt lat="48.78395" lon="5.15582">
        <ele>184</ele>
        <time>2023-01-06T08:48:39.000Z</time>
      </trkpt>
      <trkpt lat="48.78395" lon="5.1558">
        <ele>184</ele>
        <time>2023-01-06T08:48:40.000Z</time>
      </trkpt>
      <trkpt lat="48.78395" lon="5.15577">
        <ele>184</ele>
        <time>2023-01-06T08:48:41.000Z</time>
      </trkpt>
      <trkpt lat="48.78394" lon="5.15571">
        <ele>183</ele>
        <time>2023-01-06T08:48:42.000Z</time>
      </trkpt>
      <trkpt lat="48.78393" lon="5.15566">
        <ele>183</ele>
        <time>2023-01-06T08:48:43.000Z</time>
      </trkpt>
      <trkpt lat="48.78392" lon="5.15562">
        <ele>183</ele>
        <time>2023-01-06T08:48:44.000Z</time>
      </trkpt>
      <trkpt lat="48.78392" lon="5.1556">
        <ele>183</ele>
        <time>2023-01-06T08:48:45.000Z</time>
      </trkpt>
      <trkpt lat="48.78391" lon="5.15558">
        <ele>183</ele>
        <time>2023-01-06T08:48:46.000Z</time>
      </trkpt>
      <trkpt lat="48.78391" lon="5.15557">
        <ele>183</ele>
        <time>2023-01-06T08:48:47.000Z</time>
      </trkpt>
      <trkpt lat="48.7839" lon="5.15556">
        <ele>182</ele>
        <time>2023-01-06T08:48:48.000Z</time>
      </trkpt>
      <trkpt lat="48.7839" lon="5.15555">
        <ele>182</ele>
        <time>2023-01-06T08:48:49.000Z</time>
      </trkpt>
      <trkpt lat="48.7839" lon="5.15554">
        <ele>182</ele>
        <time>2023-01-06T08:48:50.000Z</time>
      </trkpt>
      <trkpt lat="48.78389" lon="5.15552">
        <ele>182</ele>
        <time>2023-01-06T08:48:51.000Z</time>
      </trkpt>
      <trkpt lat="48.78387" lon="5.15548">
        <ele>182</ele>
        <time>2023-01-06T08:48:52.000Z</time>
      </trkpt>
      <trkpt lat="48.78386" lon="5.15544">
        <ele>181.7</ele>
        <time>2023-01-06T08:48:53.000Z</time>
      </trkpt>
      <trkpt lat="48.78385" lon="5.1554">
        <ele>181.3</ele>
        <time>2023-01-06T08:48:54.000Z</time>
      </trkpt>
      <trkpt lat="48.78384" lon="5.15535">
        <ele>181</ele>
        <time>2023-01-06T08:48:55.000Z</time>
      </trkpt>
      <trkpt lat="48.78383" lon="5.15531">
        <ele>181</ele>
        <time>2023-01-06T08:48:56.000Z</time>
      </trkpt>
      <trkpt lat="48.78383" lon="5.15528">
        <ele>181</ele>
        <time>2023-01-06T08:48:57.000Z</time>
      </trkpt>
      <trkpt lat="48.78382" lon="5.15526">
        <ele>181</ele>
        <time>2023-01-06T08:48:58.000Z</time>
      </trkpt>
      <trkpt lat="48.78382" lon="5.15525">
        <ele>180.5</ele>
        <time>2023-01-06T08:48:59.000Z</time>
      </trkpt>
      <trkpt lat="48.78382" lon="5.15524">
        <ele>180</ele>
        <time>2023-01-06T08:49:00.000Z</time>
      </trkpt>
      <trkpt lat="48.78382" lon="5.15523">
        <ele>180</ele>
        <time>2023-01-06T08:49:01.000Z</time>
      </trkpt>
      <trkpt lat="48.78381" lon="5.15522">
        <ele>180</ele>
        <time>2023-01-06T08:49:02.000Z</time>
      </trkpt>
      <trkpt lat="48.78381" lon="5.15521">
        <ele>179.7</ele>
        <time>2023-01-06T08:49:03.000Z</time>
      </trkpt>
      <trkpt lat="48.7838" lon="5.15519">
        <ele>179.3</ele>
        <time>2023-01-06T08:49:04.000Z</time>
      </trkpt>
      <trkpt lat="48.78379" lon="5.15516">
        <ele>179</ele>
        <time>2023-01-06T08:49:05.000Z</time>
      </trkpt>
      <trkpt lat="48.78378" lon="5.15513">
        <ele>179</ele>
        <time>2023-01-06T08:49:06.000Z</time>
      </trkpt>
      <trkpt lat="48.78377" lon="5.1551">
        <ele>179</ele>
        <time>2023-01-06T08:49:07.000Z</time>
      </trkpt>
      <trkpt lat="48.78376" lon="5.15506">
        <ele>179</ele>
        <time>2023-01-06T08:49:08.000Z</time>
      </trkpt>
      <trkpt lat="48.78376" lon="5.15502">
        <ele>179</ele>
        <time>2023-01-06T08:49:09.000Z</time>
      </trkpt>
      <trkpt lat="48.78375" lon="5.15499">
        <ele>178</ele>
        <time>2023-01-06T08:49:10.000Z</time>
      </trkpt>
      <trkpt lat="48.78374" lon="5.15496">
        <ele>178</ele>
        <time>2023-01-06T08:49:11.000Z</time>
      </trkpt>
      <trkpt lat="48.78373" lon="5.15494">
        <ele>178</ele>
        <time>2023-01-06T08:49:12.000Z</time>
      </trkpt>
      <trkpt lat="48.78372" lon="5.15492">
        <ele>178</ele>
        <time>2023-01-06T08:49:13.000Z</time>
      </trkpt>
      <trkpt lat="48.78371" lon="5.1549">
        <ele>178</ele>
        <time>2023-01-06T08:49:14.000Z</time>
      </trkpt>
      <trkpt lat="48.7837" lon="5.15487">
        <ele>178</ele>
        <time>2023-01-06T08:49:15.000Z</time>
      </trkpt>
      <trkpt lat="48.78369" lon="5.15486">
        <ele>178</ele>
        <time>2023-01-06T08:49:16.000Z</time>
      </trkpt>
      <trkpt lat="48.78368" lon="5.15483">
        <ele>178</ele>
        <time>2023-01-06T08:49:17.000Z</time>
      </trkpt>
      <trkpt lat="48.78367" lon="5.1548">
        <ele>178</ele>
        <time>2023-01-06T08:49:18.000Z</time>
      </trkpt>
      <trkpt lat="48.78366" lon="5.15478">
        <ele>178</ele>
        <time>2023-01-06T08:49:19.000Z</time>
      </trkpt>
      <trkpt lat="48.78365" lon="5.15475">
        <ele>178</ele>
        <time>2023-01-06T08:49:20.000Z</time>
      </trkpt>
      <trkpt lat="48.78364" lon="5.15472">
        <ele>178</ele>
        <time>2023-01-06T08:49:21.000Z</time>
      </trkpt>
      <trkpt lat="48.78363" lon="5.1547">
        <ele>177</ele>
        <time>2023-01-06T08:49:22.000Z</time>
      </trkpt>
      <trkpt lat="48.78362" lon="5.15468">
        <ele>177</ele>
        <time>2023-01-06T08:49:23.000Z</time>
      </trkpt>
      <trkpt lat="48.78361" lon="5.15465">
        <ele>177</ele>
        <time>2023-01-06T08:49:24.000Z</time>
      </trkpt>
      <trkpt lat="48.78361" lon="5.15463">
        <ele>177</ele>
        <time>2023-01-06T08:49:25.000Z</time>
      </trkpt>
      <trkpt lat="48.7836" lon="5.15461">
        <ele>177</ele>
        <time>2023-01-06T08:49:26.000Z</time>
      </trkpt>
      <trkpt lat="48.7836" lon="5.15459">
        <ele>177</ele>
        <time>2023-01-06T08:49:27.000Z</time>
      </trkpt>
      <trkpt lat="48.78359" lon="5.15458">
        <ele>177</ele>
        <time>2023-01-06T08:49:28.000Z</time>
      </trkpt>
      <trkpt lat="48.78359" lon="5.15457">
        <ele>177</ele>
        <time>2023-01-06T08:49:29.000Z</time>
      </trkpt>
      <trkpt lat="48.78359" lon="5.15457">
        <ele>177</ele>
        <time>2023-01-06T08:49:30.000Z</time>
      </trkpt>
      <trkpt lat="48.78359" lon="5.15457">
        <ele>177</ele>
        <time>2023-01-06T08:49:31.000Z</time>
      </trkpt>
      <trkpt lat="48.78359" lon="5.15457">
        <ele>177</ele>
        <time>2023-01-06T08:49:32.000Z</time>
      </trkpt>
      <trkpt lat="48.78359" lon="5.15457">
        <ele>177</ele>
        <time>2023-01-06T08:49:33.000Z</time>
      </trkpt>
      <trkpt lat="48.78359" lon="5.15456">
        <ele>177</ele>
        <time>2023-01-06T08:49:34.000Z</time>
      </trkpt>
      <trkpt lat="48.78359" lon="5.15456">
        <ele>177</ele>
        <time>2023-01-06T08:49:35.000Z</time>
      </trkpt>
      <trkpt lat="48.78359" lon="5.15456">
        <ele>177</ele>
        <time>2023-01-06T08:49:36.000Z</time>
      </trkpt>
      <trkpt lat="48.78359" lon="5.15456">
        <ele>177</ele>
        <time>2023-01-06T08:49:37.000Z</time>
      </trkpt>
      <trkpt lat="48.78359" lon="5.15456">
        <ele>177</ele>
        <time>2023-01-06T08:49:38.000Z</time>
      </trkpt>
      <trkpt lat="48.78359" lon="5.15456">
        <ele>177</ele>
        <time>2023-01-06T08:49:39.000Z</time>
      </trkpt>
      <trkpt lat="48.78359" lon="5.15456">
        <ele>177</ele>
        <time>2023-01-06T08:49:40.000Z</time>
      </trkpt>
      <trkpt lat="48.78359" lon="5.15456">
        <ele>177</ele>
        <time>2023-01-06T08:49:41.000Z</time>
      </trkpt>
      <trkpt lat="48.78359" lon="5.15455">
        <ele>177</ele>
        <time>2023-01-06T08:49:42.000Z</time>
      </trkpt>
      <trkpt lat="48.78358" lon="5.15454">
        <ele>177</ele>
        <time>2023-01-06T08:49:43.000Z</time>
      </trkpt>
      <trkpt lat="48.78358" lon="5.15454">
        <ele>177</ele>
        <time>2023-01-06T08:49:44.000Z</time>
      </trkpt>
      <trkpt lat="48.78357" lon="5.15453">
        <ele>177</ele>
        <time>2023-01-06T08:49:45.000Z</time>
      </trkpt>
      <trkpt lat="48.78356" lon="5.15453">
        <ele>177</ele>
        <time>2023-01-06T08:49:46.000Z</time>
      </trkpt>
      <trkpt lat="48.78356" lon="5.15453">
        <ele>177</ele>
        <time>2023-01-06T08:49:47.000Z</time>
      </trkpt>
      <trkpt lat="48.78356" lon="5.15453">
        <ele>177</ele>
        <time>2023-01-06T08:49:48.000Z</time>
      </trkpt>
      <trkpt lat="48.78355" lon="5.15453">
        <ele>177</ele>
        <time>2023-01-06T08:49:49.000Z</time>
      </trkpt>
      <trkpt lat="48.78355" lon="5.15453">
        <ele>177</ele>
        <time>2023-01-06T08:49:50.000Z</time>
      </trkpt>
      <trkpt lat="48.78355" lon="5.15453">
        <ele>177</ele>
        <time>2023-01-06T08:49:51.000Z</time>
      </trkpt>
      <trkpt lat="48.78355" lon="5.15453">
        <ele>177</ele>
        <time>2023-01-06T08:49:52.000Z</time>
      </trkpt>
      <trkpt lat="48.78355" lon="5.15453">
        <ele>177</ele>
        <time>2023-01-06T08:49:53.000Z</time>
      </trkpt>
      <trkpt lat="48.78355" lon="5.15453">
        <ele>177</ele>
        <time>2023-01-06T08:49:54.000Z</time>
      </trkpt>
      <trkpt lat="48.78355" lon="5.15453">
        <ele>176.7</ele>
        <time>2023-01-06T08:49:55.000Z</time>
      </trkpt>
      <trkpt lat="48.78355" lon="5.15453">
        <ele>176.3</ele>
        <time>2023-01-06T08:49:56.000Z</time>
      </trkpt>
      <trkpt lat="48.78355" lon="5.15453">
        <ele>176</ele>
        <time>2023-01-06T08:49:57.000Z</time>
      </trkpt>
      <trkpt lat="48.78354" lon="5.15452">
        <ele>176</ele>
        <time>2023-01-06T08:49:58.000Z</time>
      </trkpt>
      <trkpt lat="48.78354" lon="5.15451">
        <ele>176</ele>
        <time>2023-01-06T08:49:59.000Z</time>
      </trkpt>
      <trkpt lat="48.78353" lon="5.15451">
        <ele>176</ele>
        <time>2023-01-06T08:50:00.000Z</time>
      </trkpt>
      <trkpt lat="48.78353" lon="5.1545">
        <ele>176</ele>
        <time>2023-01-06T08:50:01.000Z</time>
      </trkpt>
      <trkpt lat="48.78352" lon="5.1545">
        <ele>176</ele>
        <time>2023-01-06T08:50:02.000Z</time>
      </trkpt>
      <trkpt lat="48.78352" lon="5.1545">
        <ele>176</ele>
        <time>2023-01-06T08:50:03.000Z</time>
      </trkpt>
      <trkpt lat="48.78351" lon="5.15449">
        <ele>176</ele>
        <time>2023-01-06T08:50:04.000Z</time>
      </trkpt>
      <trkpt lat="48.7835" lon="5.15449">
        <ele>176</ele>
        <time>2023-01-06T08:50:05.000Z</time>
      </trkpt>
      <trkpt lat="48.7835" lon="5.15449">
        <ele>177</ele>
        <time>2023-01-06T08:50:06.000Z</time>
      </trkpt>
      <trkpt lat="48.78349" lon="5.15449">
        <ele>176.5</ele>
        <time>2023-01-06T08:50:07.000Z</time>
      </trkpt>
      <trkpt lat="48.78348" lon="5.15449">
        <ele>176</ele>
        <time>2023-01-06T08:50:08.000Z</time>
      </trkpt>
      <trkpt lat="48.78347" lon="5.15449">
        <ele>176</ele>
        <time>2023-01-06T08:50:09.000Z</time>
      </trkpt>
      <trkpt lat="48.78347" lon="5.15449">
        <ele>176</ele>
        <time>2023-01-06T08:50:10.000Z</time>
      </trkpt>
      <trkpt lat="48.78346" lon="5.1545">
        <ele>176</ele>
        <time>2023-01-06T08:50:11.000Z</time>
      </trkpt>
      <trkpt lat="48.78346" lon="5.1545">
        <ele>176</ele>
        <time>2023-01-06T08:50:12.000Z</time>
      </trkpt>
      <trkpt lat="48.78345" lon="5.15451">
        <ele>176</ele>
        <time>2023-01-06T08:50:13.000Z</time>
      </trkpt>
      <trkpt lat="48.78344" lon="5.15451">
        <ele>176</ele>
        <time>2023-01-06T08:50:14.000Z</time>
      </trkpt>
      <trkpt lat="48.78343" lon="5.15452">
        <ele>176</ele>
        <time>2023-01-06T08:50:15.000Z</time>
      </trkpt>
      <trkpt lat="48.78341" lon="5.15454">
        <ele>176</ele>
        <time>2023-01-06T08:50:16.000Z</time>
      </trkpt>
      <trkpt lat="48.7834" lon="5.15455">
        <ele>176</ele>
        <time>2023-01-06T08:50:17.000Z</time>
      </trkpt>
      <trkpt lat="48.78339" lon="5.15456">
        <ele>176</ele>
        <time>2023-01-06T08:50:18.000Z</time>
      </trkpt>
      <trkpt lat="48.78337" lon="5.15457">
        <ele>176</ele>
        <time>2023-01-06T08:50:19.000Z</time>
      </trkpt>
      <trkpt lat="48.78336" lon="5.15459">
        <ele>176</ele>
        <time>2023-01-06T08:50:20.000Z</time>
      </trkpt>
      <trkpt lat="48.78334" lon="5.1546">
        <ele>176</ele>
        <time>2023-01-06T08:50:21.000Z</time>
      </trkpt>
      <trkpt lat="48.78333" lon="5.1546">
        <ele>176</ele>
        <time>2023-01-06T08:50:22.000Z</time>
      </trkpt>
      <trkpt lat="48.78332" lon="5.1546">
        <ele>176</ele>
        <time>2023-01-06T08:50:23.000Z</time>
      </trkpt>
      <trkpt lat="48.7833" lon="5.1546">
        <ele>176</ele>
        <time>2023-01-06T08:50:24.000Z</time>
      </trkpt>
      <trkpt lat="48.78329" lon="5.15461">
        <ele>176</ele>
        <time>2023-01-06T08:50:25.000Z</time>
      </trkpt>
      <trkpt lat="48.78327" lon="5.15462">
        <ele>176</ele>
        <time>2023-01-06T08:50:26.000Z</time>
      </trkpt>
      <trkpt lat="48.78326" lon="5.15462">
        <ele>176</ele>
        <time>2023-01-06T08:50:27.000Z</time>
      </trkpt>
      <trkpt lat="48.78324" lon="5.15462">
        <ele>176</ele>
        <time>2023-01-06T08:50:28.000Z</time>
      </trkpt>
      <trkpt lat="48.78323" lon="5.15463">
        <ele>176</ele>
        <time>2023-01-06T08:50:29.000Z</time>
      </trkpt>
      <trkpt lat="48.78322" lon="5.15464">
        <ele>176</ele>
        <time>2023-01-06T08:50:30.000Z</time>
      </trkpt>
      <trkpt lat="48.7832" lon="5.15466">
        <ele>176</ele>
        <time>2023-01-06T08:50:31.000Z</time>
      </trkpt>
      <trkpt lat="48.78319" lon="5.15467">
        <ele>176</ele>
        <time>2023-01-06T08:50:32.000Z</time>
      </trkpt>
      <trkpt lat="48.78317" lon="5.15468">
        <ele>176.3</ele>
        <time>2023-01-06T08:50:33.000Z</time>
      </trkpt>
      <trkpt lat="48.78316" lon="5.15469">
        <ele>176.7</ele>
        <time>2023-01-06T08:50:34.000Z</time>
      </trkpt>
      <trkpt lat="48.78314" lon="5.1547">
        <ele>177</ele>
        <time>2023-01-06T08:50:35.000Z</time>
      </trkpt>
      <trkpt lat="48.78312" lon="5.15472">
        <ele>177</ele>
        <time>2023-01-06T08:50:36.000Z</time>
      </trkpt>
      <trkpt lat="48.7831" lon="5.15473">
        <ele>177</ele>
        <time>2023-01-06T08:50:37.000Z</time>
      </trkpt>
      <trkpt lat="48.78308" lon="5.15475">
        <ele>177</ele>
        <time>2023-01-06T08:50:38.000Z</time>
      </trkpt>
      <trkpt lat="48.78307" lon="5.15476">
        <ele>177</ele>
        <time>2023-01-06T08:50:39.000Z</time>
      </trkpt>
      <trkpt lat="48.78305" lon="5.15477">
        <ele>177</ele>
        <time>2023-01-06T08:50:40.000Z</time>
      </trkpt>
      <trkpt lat="48.78304" lon="5.15477">
        <ele>177</ele>
        <time>2023-01-06T08:50:41.000Z</time>
      </trkpt>
      <trkpt lat="48.78303" lon="5.15478">
        <ele>177</ele>
        <time>2023-01-06T08:50:42.000Z</time>
      </trkpt>
      <trkpt lat="48.78302" lon="5.15479">
        <ele>177</ele>
        <time>2023-01-06T08:50:43.000Z</time>
      </trkpt>
      <trkpt lat="48.78301" lon="5.1548">
        <ele>177</ele>
        <time>2023-01-06T08:50:44.000Z</time>
      </trkpt>
      <trkpt lat="48.78299" lon="5.1548">
        <ele>177</ele>
        <time>2023-01-06T08:50:45.000Z</time>
      </trkpt>
      <trkpt lat="48.78298" lon="5.15481">
        <ele>177</ele>
        <time>2023-01-06T08:50:46.000Z</time>
      </trkpt>
      <trkpt lat="48.78297" lon="5.15481">
        <ele>177</ele>
        <time>2023-01-06T08:50:47.000Z</time>
      </trkpt>
      <trkpt lat="48.78296" lon="5.15482">
        <ele>177</ele>
        <time>2023-01-06T08:50:48.000Z</time>
      </trkpt>
      <trkpt lat="48.78295" lon="5.15482">
        <ele>177</ele>
        <time>2023-01-06T08:50:49.000Z</time>
      </trkpt>
      <trkpt lat="48.78294" lon="5.15483">
        <ele>177</ele>
        <time>2023-01-06T08:50:50.000Z</time>
      </trkpt>
      <trkpt lat="48.78294" lon="5.15483">
        <ele>177</ele>
        <time>2023-01-06T08:50:51.000Z</time>
      </trkpt>
      <trkpt lat="48.78293" lon="5.15483">
        <ele>177</ele>
        <time>2023-01-06T08:50:52.000Z</time>
      </trkpt>
      <trkpt lat="48.78292" lon="5.15484">
        <ele>177</ele>
        <time>2023-01-06T08:50:53.000Z</time>
      </trkpt>
      <trkpt lat="48.78291" lon="5.15484">
        <ele>177</ele>
        <time>2023-01-06T08:50:54.000Z</time>
      </trkpt>
      <trkpt lat="48.78291" lon="5.15485">
        <ele>177</ele>
        <time>2023-01-06T08:50:55.000Z</time>
      </trkpt>
      <trkpt lat="48.7829" lon="5.15486">
        <ele>177</ele>
        <time>2023-01-06T08:50:56.000Z</time>
      </trkpt>
      <trkpt lat="48.78289" lon="5.15487">
        <ele>177</ele>
        <time>2023-01-06T08:50:57.000Z</time>
      </trkpt>
      <trkpt lat="48.78288" lon="5.15488">
        <ele>177</ele>
        <time>2023-01-06T08:50:58.000Z</time>
      </trkpt>
      <trkpt lat="48.78288" lon="5.15488">
        <ele>177.3</ele>
        <time>2023-01-06T08:50:59.000Z</time>
      </trkpt>
      <trkpt lat="48.78287" lon="5.15489">
        <ele>177.7</ele>
        <time>2023-01-06T08:51:00.000Z</time>
      </trkpt>
      <trkpt lat="48.78287" lon="5.1549">
        <ele>178</ele>
        <time>2023-01-06T08:51:01.000Z</time>
      </trkpt>
      <trkpt lat="48.78285" lon="5.15491">
        <ele>178</ele>
        <time>2023-01-06T08:51:02.000Z</time>
      </trkpt>
      <trkpt lat="48.78283" lon="5.15492">
        <ele>178</ele>
        <time>2023-01-06T08:51:03.000Z</time>
      </trkpt>
      <trkpt lat="48.78282" lon="5.15494">
        <ele>178</ele>
        <time>2023-01-06T08:51:04.000Z</time>
      </trkpt>
      <trkpt lat="48.7828" lon="5.15495">
        <ele>178</ele>
        <time>2023-01-06T08:51:05.000Z</time>
      </trkpt>
      <trkpt lat="48.78279" lon="5.15496">
        <ele>178</ele>
        <time>2023-01-06T08:51:06.000Z</time>
      </trkpt>
      <trkpt lat="48.78277" lon="5.15498">
        <ele>178</ele>
        <time>2023-01-06T08:51:07.000Z</time>
      </trkpt>
      <trkpt lat="48.78276" lon="5.15499">
        <ele>178</ele>
        <time>2023-01-06T08:51:08.000Z</time>
      </trkpt>
      <trkpt lat="48.78275" lon="5.155">
        <ele>178</ele>
        <time>2023-01-06T08:51:09.000Z</time>
      </trkpt>
      <trkpt lat="48.78274" lon="5.155">
        <ele>178</ele>
        <time>2023-01-06T08:51:10.000Z</time>
      </trkpt>
      <trkpt lat="48.78273" lon="5.15501">
        <ele>178</ele>
        <time>2023-01-06T08:51:11.000Z</time>
      </trkpt>
      <trkpt lat="48.78272" lon="5.15502">
        <ele>178</ele>
        <time>2023-01-06T08:51:12.000Z</time>
      </trkpt>
      <trkpt lat="48.7827" lon="5.15502">
        <ele>178</ele>
        <time>2023-01-06T08:51:13.000Z</time>
      </trkpt>
      <trkpt lat="48.78269" lon="5.15503">
        <ele>178</ele>
        <time>2023-01-06T08:51:14.000Z</time>
      </trkpt>
      <trkpt lat="48.78268" lon="5.15504">
        <ele>178</ele>
        <time>2023-01-06T08:51:15.000Z</time>
      </trkpt>
      <trkpt lat="48.78266" lon="5.15505">
        <ele>178</ele>
        <time>2023-01-06T08:51:16.000Z</time>
      </trkpt>
      <trkpt lat="48.78265" lon="5.15506">
        <ele>178</ele>
        <time>2023-01-06T08:51:17.000Z</time>
      </trkpt>
      <trkpt lat="48.78263" lon="5.15508">
        <ele>178</ele>
        <time>2023-01-06T08:51:18.000Z</time>
      </trkpt>
      <trkpt lat="48.78262" lon="5.1551">
        <ele>178</ele>
        <time>2023-01-06T08:51:19.000Z</time>
      </trkpt>
      <trkpt lat="48.7826" lon="5.15511">
        <ele>178</ele>
        <time>2023-01-06T08:51:20.000Z</time>
      </trkpt>
      <trkpt lat="48.78259" lon="5.15512">
        <ele>178</ele>
        <time>2023-01-06T08:51:21.000Z</time>
      </trkpt>
      <trkpt lat="48.78258" lon="5.15513">
        <ele>178</ele>
        <time>2023-01-06T08:51:22.000Z</time>
      </trkpt>
      <trkpt lat="48.78256" lon="5.15513">
        <ele>178</ele>
        <time>2023-01-06T08:51:23.000Z</time>
      </trkpt>
      <trkpt lat="48.78255" lon="5.15514">
        <ele>178</ele>
        <time>2023-01-06T08:51:24.000Z</time>
      </trkpt>
      <trkpt lat="48.78254" lon="5.15515">
        <ele>178</ele>
        <time>2023-01-06T08:51:25.000Z</time>
      </trkpt>
      <trkpt lat="48.78253" lon="5.15516">
        <ele>178</ele>
        <time>2023-01-06T08:51:26.000Z</time>
      </trkpt>
      <trkpt lat="48.78252" lon="5.15517">
        <ele>178</ele>
        <time>2023-01-06T08:51:27.000Z</time>
      </trkpt>
      <trkpt lat="48.78252" lon="5.15517">
        <ele>178</ele>
        <time>2023-01-06T08:51:28.000Z</time>
      </trkpt>
      <trkpt lat="48.78251" lon="5.15518">
        <ele>178</ele>
        <time>2023-01-06T08:51:29.000Z</time>
      </trkpt>
      <trkpt lat="48.7825" lon="5.15519">
        <ele>177.5</ele>
        <time>2023-01-06T08:51:30.000Z</time>
      </trkpt>
      <trkpt lat="48.78249" lon="5.1552">
        <ele>177</ele>
        <time>2023-01-06T08:51:31.000Z</time>
      </trkpt>
      <trkpt lat="48.78248" lon="5.15521">
        <ele>177</ele>
        <time>2023-01-06T08:51:32.000Z</time>
      </trkpt>
      <trkpt lat="48.78248" lon="5.15522">
        <ele>177</ele>
        <time>2023-01-06T08:51:33.000Z</time>
      </trkpt>
      <trkpt lat="48.78247" lon="5.15523">
        <ele>177</ele>
        <time>2023-01-06T08:51:34.000Z</time>
      </trkpt>
      <trkpt lat="48.78246" lon="5.15524">
        <ele>177</ele>
        <time>2023-01-06T08:51:35.000Z</time>
      </trkpt>
      <trkpt lat="48.78245" lon="5.15525">
        <ele>177</ele>
        <time>2023-01-06T08:51:36.000Z</time>
      </trkpt>
      <trkpt lat="48.78244" lon="5.15526">
        <ele>177</ele>
        <time>2023-01-06T08:51:37.000Z</time>
      </trkpt>
      <trkpt lat="48.78243" lon="5.15527">
        <ele>177</ele>
        <time>2023-01-06T08:51:38.000Z</time>
      </trkpt>
      <trkpt lat="48.78242" lon="5.15528">
        <ele>177</ele>
        <time>2023-01-06T08:51:39.000Z</time>
      </trkpt>
      <trkpt lat="48.78241" lon="5.1553">
        <ele>177</ele>
        <time>2023-01-06T08:51:40.000Z</time>
      </trkpt>
      <trkpt lat="48.7824" lon="5.15531">
        <ele>177</ele>
        <time>2023-01-06T08:51:41.000Z</time>
      </trkpt>
      <trkpt lat="48.78239" lon="5.15532">
        <ele>177</ele>
        <time>2023-01-06T08:51:42.000Z</time>
      </trkpt>
      <trkpt lat="48.78238" lon="5.15532">
        <ele>177</ele>
        <time>2023-01-06T08:51:43.000Z</time>
      </trkpt>
      <trkpt lat="48.78237" lon="5.15533">
        <ele>177</ele>
        <time>2023-01-06T08:51:44.000Z</time>
      </trkpt>
      <trkpt lat="48.78236" lon="5.15535">
        <ele>177</ele>
        <time>2023-01-06T08:51:45.000Z</time>
      </trkpt>
      <trkpt lat="48.78235" lon="5.15536">
        <ele>177</ele>
        <time>2023-01-06T08:51:46.000Z</time>
      </trkpt>
      <trkpt lat="48.78234" lon="5.15537">
        <ele>177</ele>
        <time>2023-01-06T08:51:47.000Z</time>
      </trkpt>
      <trkpt lat="48.78233" lon="5.15538">
        <ele>177</ele>
        <time>2023-01-06T08:51:48.000Z</time>
      </trkpt>
      <trkpt lat="48.78231" lon="5.15539">
        <ele>177</ele>
        <time>2023-01-06T08:51:49.000Z</time>
      </trkpt>
      <trkpt lat="48.7823" lon="5.1554">
        <ele>177</ele>
        <time>2023-01-06T08:51:50.000Z</time>
      </trkpt>
      <trkpt lat="48.78229" lon="5.15541">
        <ele>177</ele>
        <time>2023-01-06T08:51:51.000Z</time>
      </trkpt>
      <trkpt lat="48.78227" lon="5.15543">
        <ele>177</ele>
        <time>2023-01-06T08:51:52.000Z</time>
      </trkpt>
      <trkpt lat="48.78225" lon="5.15545">
        <ele>177</ele>
        <time>2023-01-06T08:51:53.000Z</time>
      </trkpt>
      <trkpt lat="48.78223" lon="5.15547">
        <ele>177</ele>
        <time>2023-01-06T08:51:54.000Z</time>
      </trkpt>
      <trkpt lat="48.78222" lon="5.15549">
        <ele>177.5</ele>
        <time>2023-01-06T08:51:55.000Z</time>
      </trkpt>
      <trkpt lat="48.7822" lon="5.15551">
        <ele>178</ele>
        <time>2023-01-06T08:51:56.000Z</time>
      </trkpt>
      <trkpt lat="48.78219" lon="5.15553">
        <ele>178</ele>
        <time>2023-01-06T08:51:57.000Z</time>
      </trkpt>
      <trkpt lat="48.78218" lon="5.15555">
        <ele>178</ele>
        <time>2023-01-06T08:51:58.000Z</time>
      </trkpt>
      <trkpt lat="48.78217" lon="5.15557">
        <ele>178</ele>
        <time>2023-01-06T08:51:59.000Z</time>
      </trkpt>
      <trkpt lat="48.78215" lon="5.15559">
        <ele>178</ele>
        <time>2023-01-06T08:52:00.000Z</time>
      </trkpt>
      <trkpt lat="48.78214" lon="5.15561">
        <ele>178</ele>
        <time>2023-01-06T08:52:01.000Z</time>
      </trkpt>
      <trkpt lat="48.78212" lon="5.15563">
        <ele>177</ele>
        <time>2023-01-06T08:52:02.000Z</time>
      </trkpt>
      <trkpt lat="48.78211" lon="5.15565">
        <ele>177</ele>
        <time>2023-01-06T08:52:03.000Z</time>
      </trkpt>
      <trkpt lat="48.7821" lon="5.15567">
        <ele>177</ele>
        <time>2023-01-06T08:52:04.000Z</time>
      </trkpt>
      <trkpt lat="48.78209" lon="5.15568">
        <ele>177</ele>
        <time>2023-01-06T08:52:05.000Z</time>
      </trkpt>
      <trkpt lat="48.78208" lon="5.15569">
        <ele>177</ele>
        <time>2023-01-06T08:52:06.000Z</time>
      </trkpt>
      <trkpt lat="48.78207" lon="5.1557">
        <ele>177</ele>
        <time>2023-01-06T08:52:07.000Z</time>
      </trkpt>
      <trkpt lat="48.78206" lon="5.15572">
        <ele>177</ele>
        <time>2023-01-06T08:52:08.000Z</time>
      </trkpt>
      <trkpt lat="48.78205" lon="5.15573">
        <ele>177</ele>
        <time>2023-01-06T08:52:09.000Z</time>
      </trkpt>
      <trkpt lat="48.78203" lon="5.15574">
        <ele>177</ele>
        <time>2023-01-06T08:52:10.000Z</time>
      </trkpt>
      <trkpt lat="48.78202" lon="5.15575">
        <ele>177</ele>
        <time>2023-01-06T08:52:11.000Z</time>
      </trkpt>
      <trkpt lat="48.78201" lon="5.15577">
        <ele>177</ele>
        <time>2023-01-06T08:52:12.000Z</time>
      </trkpt>
      <trkpt lat="48.78199" lon="5.15579">
        <ele>177</ele>
        <time>2023-01-06T08:52:13.000Z</time>
      </trkpt>
      <trkpt lat="48.78198" lon="5.15581">
        <ele>177</ele>
        <time>2023-01-06T08:52:14.000Z</time>
      </trkpt>
      <trkpt lat="48.78196" lon="5.15584">
        <ele>177</ele>
        <time>2023-01-06T08:52:15.000Z</time>
      </trkpt>
      <trkpt lat="48.78194" lon="5.15586">
        <ele>177</ele>
        <time>2023-01-06T08:52:16.000Z</time>
      </trkpt>
      <trkpt lat="48.78193" lon="5.15588">
        <ele>177</ele>
        <time>2023-01-06T08:52:17.000Z</time>
      </trkpt>
      <trkpt lat="48.78192" lon="5.15589">
        <ele>177</ele>
        <time>2023-01-06T08:52:18.000Z</time>
      </trkpt>
      <trkpt lat="48.7819" lon="5.15591">
        <ele>177</ele>
        <time>2023-01-06T08:52:19.000Z</time>
      </trkpt>
      <trkpt lat="48.78189" lon="5.15593">
        <ele>177</ele>
        <time>2023-01-06T08:52:20.000Z</time>
      </trkpt>
      <trkpt lat="48.78187" lon="5.15595">
        <ele>177</ele>
        <time>2023-01-06T08:52:21.000Z</time>
      </trkpt>
      <trkpt lat="48.78186" lon="5.15597">
        <ele>177</ele>
        <time>2023-01-06T08:52:22.000Z</time>
      </trkpt>
      <trkpt lat="48.78185" lon="5.15599">
        <ele>177</ele>
        <time>2023-01-06T08:52:23.000Z</time>
      </trkpt>
      <trkpt lat="48.78183" lon="5.15601">
        <ele>177</ele>
        <time>2023-01-06T08:52:24.000Z</time>
      </trkpt>
      <trkpt lat="48.78182" lon="5.15602">
        <ele>177</ele>
        <time>2023-01-06T08:52:25.000Z</time>
      </trkpt>
      <trkpt lat="48.7818" lon="5.15604">
        <ele>177</ele>
        <time>2023-01-06T08:52:26.000Z</time>
      </trkpt>
      <trkpt lat="48.78179" lon="5.15606">
        <ele>177</ele>
        <time>2023-01-06T08:52:27.000Z</time>
      </trkpt>
      <trkpt lat="48.78178" lon="5.15608">
        <ele>177</ele>
        <time>2023-01-06T08:52:28.000Z</time>
      </trkpt>
      <trkpt lat="48.78176" lon="5.1561">
        <ele>177</ele>
        <time>2023-01-06T08:52:29.000Z</time>
      </trkpt>
      <trkpt lat="48.78175" lon="5.15612">
        <ele>177</ele>
        <time>2023-01-06T08:52:30.000Z</time>
      </trkpt>
      <trkpt lat="48.78173" lon="5.15614">
        <ele>177</ele>
        <time>2023-01-06T08:52:31.000Z</time>
      </trkpt>
      <trkpt lat="48.78172" lon="5.15616">
        <ele>177</ele>
        <time>2023-01-06T08:52:32.000Z</time>
      </trkpt>
      <trkpt lat="48.7817" lon="5.15618">
        <ele>177</ele>
        <time>2023-01-06T08:52:33.000Z</time>
      </trkpt>
      <trkpt lat="48.78168" lon="5.1562">
        <ele>177</ele>
        <time>2023-01-06T08:52:34.000Z</time>
      </trkpt>
      <trkpt lat="48.78167" lon="5.15621">
        <ele>177</ele>
        <time>2023-01-06T08:52:35.000Z</time>
      </trkpt>
      <trkpt lat="48.78165" lon="5.15623">
        <ele>177</ele>
        <time>2023-01-06T08:52:36.000Z</time>
      </trkpt>
      <trkpt lat="48.78164" lon="5.15625">
        <ele>177</ele>
        <time>2023-01-06T08:52:37.000Z</time>
      </trkpt>
      <trkpt lat="48.78163" lon="5.15626">
        <ele>177</ele>
        <time>2023-01-06T08:52:38.000Z</time>
      </trkpt>
      <trkpt lat="48.78161" lon="5.15628">
        <ele>177</ele>
        <time>2023-01-06T08:52:39.000Z</time>
      </trkpt>
      <trkpt lat="48.78159" lon="5.1563">
        <ele>177</ele>
        <time>2023-01-06T08:52:40.000Z</time>
      </trkpt>
      <trkpt lat="48.78158" lon="5.15632">
        <ele>177</ele>
        <time>2023-01-06T08:52:41.000Z</time>
      </trkpt>
      <trkpt lat="48.78156" lon="5.15634">
        <ele>177</ele>
        <time>2023-01-06T08:52:42.000Z</time>
      </trkpt>
      <trkpt lat="48.78154" lon="5.15636">
        <ele>177</ele>
        <time>2023-01-06T08:52:43.000Z</time>
      </trkpt>
      <trkpt lat="48.78153" lon="5.15639">
        <ele>177</ele>
        <time>2023-01-06T08:52:44.000Z</time>
      </trkpt>
      <trkpt lat="48.78151" lon="5.15641">
        <ele>177</ele>
        <time>2023-01-06T08:52:45.000Z</time>
      </trkpt>
      <trkpt lat="48.7815" lon="5.15643">
        <ele>177</ele>
        <time>2023-01-06T08:52:46.000Z</time>
      </trkpt>
      <trkpt lat="48.78148" lon="5.15645">
        <ele>177</ele>
        <time>2023-01-06T08:52:47.000Z</time>
      </trkpt>
      <trkpt lat="48.78147" lon="5.15647">
        <ele>177</ele>
        <time>2023-01-06T08:52:48.000Z</time>
      </trkpt>
      <trkpt lat="48.78145" lon="5.15649">
        <ele>177</ele>
        <time>2023-01-06T08:52:49.000Z</time>
      </trkpt>
      <trkpt lat="48.78143" lon="5.1565">
        <ele>177</ele>
        <time>2023-01-06T08:52:50.000Z</time>
      </trkpt>
      <trkpt lat="48.78142" lon="5.15652">
        <ele>177</ele>
        <time>2023-01-06T08:52:51.000Z</time>
      </trkpt>
      <trkpt lat="48.7814" lon="5.15653">
        <ele>177</ele>
        <time>2023-01-06T08:52:52.000Z</time>
      </trkpt>
      <trkpt lat="48.78139" lon="5.15655">
        <ele>177</ele>
        <time>2023-01-06T08:52:53.000Z</time>
      </trkpt>
      <trkpt lat="48.78137" lon="5.15656">
        <ele>177</ele>
        <time>2023-01-06T08:52:54.000Z</time>
      </trkpt>
      <trkpt lat="48.78136" lon="5.15657">
        <ele>177</ele>
        <time>2023-01-06T08:52:55.000Z</time>
      </trkpt>
      <trkpt lat="48.78136" lon="5.15659">
        <ele>177</ele>
        <time>2023-01-06T08:52:56.000Z</time>
      </trkpt>
      <trkpt lat="48.78135" lon="5.1566">
        <ele>177</ele>
        <time>2023-01-06T08:52:57.000Z</time>
      </trkpt>
      <trkpt lat="48.78133" lon="5.15662">
        <ele>177</ele>
        <time>2023-01-06T08:52:58.000Z</time>
      </trkpt>
      <trkpt lat="48.78132" lon="5.15664">
        <ele>177</ele>
        <time>2023-01-06T08:52:59.000Z</time>
      </trkpt>
      <trkpt lat="48.78131" lon="5.15665">
        <ele>177</ele>
        <time>2023-01-06T08:53:00.000Z</time>
      </trkpt>
      <trkpt lat="48.7813" lon="5.15666">
        <ele>177</ele>
        <time>2023-01-06T08:53:01.000Z</time>
      </trkpt>
      <trkpt lat="48.78129" lon="5.15668">
        <ele>177</ele>
        <time>2023-01-06T08:53:02.000Z</time>
      </trkpt>
      <trkpt lat="48.78127" lon="5.15669">
        <ele>177</ele>
        <time>2023-01-06T08:53:03.000Z</time>
      </trkpt>
      <trkpt lat="48.78126" lon="5.15671">
        <ele>177</ele>
        <time>2023-01-06T08:53:04.000Z</time>
      </trkpt>
      <trkpt lat="48.78124" lon="5.15672">
        <ele>177</ele>
        <time>2023-01-06T08:53:05.000Z</time>
      </trkpt>
      <trkpt lat="48.78123" lon="5.15674">
        <ele>177</ele>
        <time>2023-01-06T08:53:06.000Z</time>
      </trkpt>
      <trkpt lat="48.78122" lon="5.15676">
        <ele>177</ele>
        <time>2023-01-06T08:53:07.000Z</time>
      </trkpt>
      <trkpt lat="48.78121" lon="5.15678">
        <ele>177</ele>
        <time>2023-01-06T08:53:08.000Z</time>
      </trkpt>
      <trkpt lat="48.7812" lon="5.15679">
        <ele>177</ele>
        <time>2023-01-06T08:53:09.000Z</time>
      </trkpt>
      <trkpt lat="48.78119" lon="5.15681">
        <ele>177</ele>
        <time>2023-01-06T08:53:10.000Z</time>
      </trkpt>
      <trkpt lat="48.78118" lon="5.15683">
        <ele>177</ele>
        <time>2023-01-06T08:53:11.000Z</time>
      </trkpt>
      <trkpt lat="48.78117" lon="5.15684">
        <ele>177</ele>
        <time>2023-01-06T08:53:12.000Z</time>
      </trkpt>
      <trkpt lat="48.78115" lon="5.15686">
        <ele>177</ele>
        <time>2023-01-06T08:53:13.000Z</time>
      </trkpt>
      <trkpt lat="48.78114" lon="5.15688">
        <ele>177</ele>
        <time>2023-01-06T08:53:14.000Z</time>
      </trkpt>
      <trkpt lat="48.78113" lon="5.15689">
        <ele>177</ele>
        <time>2023-01-06T08:53:15.000Z</time>
      </trkpt>
      <trkpt lat="48.78111" lon="5.15691">
        <ele>177</ele>
        <time>2023-01-06T08:53:16.000Z</time>
      </trkpt>
      <trkpt lat="48.7811" lon="5.15693">
        <ele>177</ele>
        <time>2023-01-06T08:53:17.000Z</time>
      </trkpt>
      <trkpt lat="48.78109" lon="5.15695">
        <ele>177</ele>
        <time>2023-01-06T08:53:18.000Z</time>
      </trkpt>
      <trkpt lat="48.78107" lon="5.15696">
        <ele>177</ele>
        <time>2023-01-06T08:53:19.000Z</time>
      </trkpt>
      <trkpt lat="48.78106" lon="5.15697">
        <ele>177</ele>
        <time>2023-01-06T08:53:20.000Z</time>
      </trkpt>
      <trkpt lat="48.78105" lon="5.15698">
        <ele>177</ele>
        <time>2023-01-06T08:53:21.000Z</time>
      </trkpt>
      <trkpt lat="48.78104" lon="5.15699">
        <ele>178</ele>
        <time>2023-01-06T08:53:22.000Z</time>
      </trkpt>
      <trkpt lat="48.78103" lon="5.157">
        <ele>178</ele>
        <time>2023-01-06T08:53:23.000Z</time>
      </trkpt>
      <trkpt lat="48.78103" lon="5.15701">
        <ele>178</ele>
        <time>2023-01-06T08:53:24.000Z</time>
      </trkpt>
      <trkpt lat="48.78102" lon="5.15702">
        <ele>177.7</ele>
        <time>2023-01-06T08:53:25.000Z</time>
      </trkpt>
      <trkpt lat="48.78102" lon="5.15703">
        <ele>177.3</ele>
        <time>2023-01-06T08:53:26.000Z</time>
      </trkpt>
      <trkpt lat="48.78101" lon="5.15704">
        <ele>177</ele>
        <time>2023-01-06T08:53:27.000Z</time>
      </trkpt>
      <trkpt lat="48.781" lon="5.15706">
        <ele>178</ele>
        <time>2023-01-06T08:53:28.000Z</time>
      </trkpt>
      <trkpt lat="48.78099" lon="5.15708">
        <ele>178</ele>
        <time>2023-01-06T08:53:29.000Z</time>
      </trkpt>
      <trkpt lat="48.78098" lon="5.1571">
        <ele>178</ele>
        <time>2023-01-06T08:53:30.000Z</time>
      </trkpt>
      <trkpt lat="48.78098" lon="5.15711">
        <ele>178</ele>
        <time>2023-01-06T08:53:31.000Z</time>
      </trkpt>
      <trkpt lat="48.78097" lon="5.15713">
        <ele>178</ele>
        <time>2023-01-06T08:53:32.000Z</time>
      </trkpt>
      <trkpt lat="48.78096" lon="5.15714">
        <ele>178</ele>
        <time>2023-01-06T08:53:33.000Z</time>
      </trkpt>
      <trkpt lat="48.78095" lon="5.15716">
        <ele>178</ele>
        <time>2023-01-06T08:53:34.000Z</time>
      </trkpt>
      <trkpt lat="48.78094" lon="5.15717">
        <ele>178</ele>
        <time>2023-01-06T08:53:35.000Z</time>
      </trkpt>
      <trkpt lat="48.78093" lon="5.15719">
        <ele>178</ele>
        <time>2023-01-06T08:53:36.000Z</time>
      </trkpt>
      <trkpt lat="48.78093" lon="5.1572">
        <ele>178</ele>
        <time>2023-01-06T08:53:37.000Z</time>
      </trkpt>
      <trkpt lat="48.78092" lon="5.15721">
        <ele>178</ele>
        <time>2023-01-06T08:53:38.000Z</time>
      </trkpt>
      <trkpt lat="48.78091" lon="5.15722">
        <ele>178</ele>
        <time>2023-01-06T08:53:39.000Z</time>
      </trkpt>
      <trkpt lat="48.7809" lon="5.15723">
        <ele>178</ele>
        <time>2023-01-06T08:53:40.000Z</time>
      </trkpt>
      <trkpt lat="48.7809" lon="5.15724">
        <ele>178</ele>
        <time>2023-01-06T08:53:41.000Z</time>
      </trkpt>
      <trkpt lat="48.78089" lon="5.15725">
        <ele>178</ele>
        <time>2023-01-06T08:53:42.000Z</time>
      </trkpt>
      <trkpt lat="48.78088" lon="5.15726">
        <ele>178</ele>
        <time>2023-01-06T08:53:43.000Z</time>
      </trkpt>
      <trkpt lat="48.78087" lon="5.15727">
        <ele>178</ele>
        <time>2023-01-06T08:53:44.000Z</time>
      </trkpt>
      <trkpt lat="48.78086" lon="5.15728">
        <ele>178</ele>
        <time>2023-01-06T08:53:45.000Z</time>
      </trkpt>
      <trkpt lat="48.78085" lon="5.15729">
        <ele>178</ele>
        <time>2023-01-06T08:53:46.000Z</time>
      </trkpt>
      <trkpt lat="48.78084" lon="5.15731">
        <ele>178</ele>
        <time>2023-01-06T08:53:47.000Z</time>
      </trkpt>
      <trkpt lat="48.78083" lon="5.15732">
        <ele>178</ele>
        <time>2023-01-06T08:53:48.000Z</time>
      </trkpt>
      <trkpt lat="48.78082" lon="5.15734">
        <ele>178</ele>
        <time>2023-01-06T08:53:49.000Z</time>
      </trkpt>
      <trkpt lat="48.78081" lon="5.15734">
        <ele>178</ele>
        <time>2023-01-06T08:53:50.000Z</time>
      </trkpt>
      <trkpt lat="48.7808" lon="5.15735">
        <ele>178</ele>
        <time>2023-01-06T08:53:51.000Z</time>
      </trkpt>
      <trkpt lat="48.78079" lon="5.15736">
        <ele>178</ele>
        <time>2023-01-06T08:53:52.000Z</time>
      </trkpt>
      <trkpt lat="48.78078" lon="5.15737">
        <ele>178</ele>
        <time>2023-01-06T08:53:53.000Z</time>
      </trkpt>
      <trkpt lat="48.78077" lon="5.15738">
        <ele>178</ele>
        <time>2023-01-06T08:53:54.000Z</time>
      </trkpt>
      <trkpt lat="48.78076" lon="5.1574">
        <ele>178</ele>
        <time>2023-01-06T08:53:55.000Z</time>
      </trkpt>
      <trkpt lat="48.78075" lon="5.15741">
        <ele>178</ele>
        <time>2023-01-06T08:53:56.000Z</time>
      </trkpt>
      <trkpt lat="48.78074" lon="5.15742">
        <ele>178</ele>
        <time>2023-01-06T08:53:57.000Z</time>
      </trkpt>
      <trkpt lat="48.78074" lon="5.15743">
        <ele>178</ele>
        <time>2023-01-06T08:53:58.000Z</time>
      </trkpt>
      <trkpt lat="48.78073" lon="5.15744">
        <ele>178</ele>
        <time>2023-01-06T08:53:59.000Z</time>
      </trkpt>
      <trkpt lat="48.78073" lon="5.15745">
        <ele>178</ele>
        <time>2023-01-06T08:54:00.000Z</time>
      </trkpt>
      <trkpt lat="48.78073" lon="5.15745">
        <ele>178</ele>
        <time>2023-01-06T08:54:01.000Z</time>
      </trkpt>
      <trkpt lat="48.78073" lon="5.15746">
        <ele>178</ele>
        <time>2023-01-06T08:54:02.000Z</time>
      </trkpt>
      <trkpt lat="48.78073" lon="5.15746">
        <ele>178</ele>
        <time>2023-01-06T08:54:03.000Z</time>
      </trkpt>
      <trkpt lat="48.78073" lon="5.15746">
        <ele>178</ele>
        <time>2023-01-06T08:54:04.000Z</time>
      </trkpt>
      <trkpt lat="48.78073" lon="5.15746">
        <ele>178</ele>
        <time>2023-01-06T08:54:05.000Z</time>
      </trkpt>
      <trkpt lat="48.78073" lon="5.15746">
        <ele>178</ele>
        <time>2023-01-06T08:54:06.000Z</time>
      </trkpt>
      <trkpt lat="48.78073" lon="5.15746">
        <ele>178</ele>
        <time>2023-01-06T08:54:07.000Z</time>
      </trkpt>
      <trkpt lat="48.78073" lon="5.15746">
        <ele>178</ele>
        <time>2023-01-06T08:54:08.000Z</time>
      </trkpt>
      <trkpt lat="48.78073" lon="5.15746">
        <ele>178</ele>
        <time>2023-01-06T08:54:09.000Z</time>
      </trkpt>
      <trkpt lat="48.78073" lon="5.15746">
        <ele>178</ele>
        <time>2023-01-06T08:54:10.000Z</time>
      </trkpt>
      <trkpt lat="48.78073" lon="5.15746">
        <ele>178</ele>
        <time>2023-01-06T08:54:11.000Z</time>
      </trkpt>
      <trkpt lat="48.78073" lon="5.15746">
        <ele>178</ele>
        <time>2023-01-06T08:54:12.000Z</time>
      </trkpt>
      <trkpt lat="48.78073" lon="5.15746">
        <ele>178</ele>
        <time>2023-01-06T08:54:13.000Z</time>
      </trkpt>
      <trkpt lat="48.78073" lon="5.15746">
        <ele>178</ele>
        <time>2023-01-06T08:54:14.000Z</time>
      </trkpt>
      <trkpt lat="48.78073" lon="5.15746">
        <ele>178</ele>
        <time>2023-01-06T08:54:15.000Z</time>
      </trkpt>
      <trkpt lat="48.78073" lon="5.15746">
        <ele>178</ele>
        <time>2023-01-06T08:54:16.000Z</time>
      </trkpt>
      <trkpt lat="48.78073" lon="5.15746">
        <ele>178</ele>
        <time>2023-01-06T08:54:17.000Z</time>
      </trkpt>
      <trkpt lat="48.78073" lon="5.15746">
        <ele>178</ele>
        <time>2023-01-06T08:54:18.000Z</time>
      </trkpt>
      <trkpt lat="48.78073" lon="5.15747">
        <ele>178</ele>
        <time>2023-01-06T08:54:19.000Z</time>
      </trkpt>
      <trkpt lat="48.78072" lon="5.15747">
        <ele>178</ele>
        <time>2023-01-06T08:54:20.000Z</time>
      </trkpt>
      <trkpt lat="48.78072" lon="5.15748">
        <ele>178</ele>
        <time>2023-01-06T08:54:21.000Z</time>
      </trkpt>
      <trkpt lat="48.78072" lon="5.15748">
        <ele>178</ele>
        <time>2023-01-06T08:54:22.000Z</time>
      </trkpt>
      <trkpt lat="48.78072" lon="5.15749">
        <ele>178</ele>
        <time>2023-01-06T08:54:23.000Z</time>
      </trkpt>
      <trkpt lat="48.78072" lon="5.15749">
        <ele>178</ele>
        <time>2023-01-06T08:54:24.000Z</time>
      </trkpt>
      <trkpt lat="48.78072" lon="5.1575">
        <ele>178</ele>
        <time>2023-01-06T08:54:25.000Z</time>
      </trkpt>
      <trkpt lat="48.78071" lon="5.15751">
        <ele>178</ele>
        <time>2023-01-06T08:54:26.000Z</time>
      </trkpt>
      <trkpt lat="48.78071" lon="5.15752">
        <ele>178</ele>
        <time>2023-01-06T08:54:27.000Z</time>
      </trkpt>
      <trkpt lat="48.7807" lon="5.15754">
        <ele>178</ele>
        <time>2023-01-06T08:54:28.000Z</time>
      </trkpt>
      <trkpt lat="48.7807" lon="5.15755">
        <ele>178</ele>
        <time>2023-01-06T08:54:29.000Z</time>
      </trkpt>
      <trkpt lat="48.78069" lon="5.15756">
        <ele>178</ele>
        <time>2023-01-06T08:54:30.000Z</time>
      </trkpt>
      <trkpt lat="48.78068" lon="5.15757">
        <ele>177.5</ele>
        <time>2023-01-06T08:54:31.000Z</time>
      </trkpt>
      <trkpt lat="48.78068" lon="5.15757">
        <ele>177</ele>
        <time>2023-01-06T08:54:32.000Z</time>
      </trkpt>
      <trkpt lat="48.78068" lon="5.15757">
        <ele>177</ele>
        <time>2023-01-06T08:54:33.000Z</time>
      </trkpt>
      <trkpt lat="48.78068" lon="5.15757">
        <ele>177</ele>
        <time>2023-01-06T08:54:34.000Z</time>
      </trkpt>
      <trkpt lat="48.78067" lon="5.15758">
        <ele>177</ele>
        <time>2023-01-06T08:54:35.000Z</time>
      </trkpt>
      <trkpt lat="48.78067" lon="5.1576">
        <ele>177</ele>
        <time>2023-01-06T08:54:36.000Z</time>
      </trkpt>
      <trkpt lat="48.78066" lon="5.15763">
        <ele>177</ele>
        <time>2023-01-06T08:54:37.000Z</time>
      </trkpt>
      <trkpt lat="48.78064" lon="5.15765">
        <ele>177</ele>
        <time>2023-01-06T08:54:38.000Z</time>
      </trkpt>
      <trkpt lat="48.78063" lon="5.15768">
        <ele>177.3</ele>
        <time>2023-01-06T08:54:39.000Z</time>
      </trkpt>
      <trkpt lat="48.78062" lon="5.15771">
        <ele>177.7</ele>
        <time>2023-01-06T08:54:40.000Z</time>
      </trkpt>
      <trkpt lat="48.7806" lon="5.15774">
        <ele>178</ele>
        <time>2023-01-06T08:54:41.000Z</time>
      </trkpt>
      <trkpt lat="48.78059" lon="5.15777">
        <ele>177</ele>
        <time>2023-01-06T08:54:42.000Z</time>
      </trkpt>
      <trkpt lat="48.78058" lon="5.1578">
        <ele>177</ele>
        <time>2023-01-06T08:54:43.000Z</time>
      </trkpt>
      <trkpt lat="48.78057" lon="5.15782">
        <ele>177</ele>
        <time>2023-01-06T08:54:44.000Z</time>
      </trkpt>
      <trkpt lat="48.78056" lon="5.15783">
        <ele>177</ele>
        <time>2023-01-06T08:54:45.000Z</time>
      </trkpt>
      <trkpt lat="48.78056" lon="5.15785">
        <ele>177</ele>
        <time>2023-01-06T08:54:46.000Z</time>
      </trkpt>
      <trkpt lat="48.78055" lon="5.15787">
        <ele>177</ele>
        <time>2023-01-06T08:54:47.000Z</time>
      </trkpt>
      <trkpt lat="48.78055" lon="5.15789">
        <ele>177</ele>
        <time>2023-01-06T08:54:48.000Z</time>
      </trkpt>
      <trkpt lat="48.78054" lon="5.15791">
        <ele>177</ele>
        <time>2023-01-06T08:54:49.000Z</time>
      </trkpt>
      <trkpt lat="48.78053" lon="5.15792">
        <ele>177</ele>
        <time>2023-01-06T08:54:50.000Z</time>
      </trkpt>
      <trkpt lat="48.78052" lon="5.15793">
        <ele>177</ele>
        <time>2023-01-06T08:54:51.000Z</time>
      </trkpt>
      <trkpt lat="48.78052" lon="5.15794">
        <ele>177</ele>
        <time>2023-01-06T08:54:52.000Z</time>
      </trkpt>
      <trkpt lat="48.78051" lon="5.15795">
        <ele>177</ele>
        <time>2023-01-06T08:54:53.000Z</time>
      </trkpt>
      <trkpt lat="48.78049" lon="5.15797">
        <ele>178</ele>
        <time>2023-01-06T08:54:54.000Z</time>
      </trkpt>
      <trkpt lat="48.78048" lon="5.158">
        <ele>178</ele>
        <time>2023-01-06T08:54:55.000Z</time>
      </trkpt>
      <trkpt lat="48.78047" lon="5.15801">
        <ele>178</ele>
        <time>2023-01-06T08:54:56.000Z</time>
      </trkpt>
      <trkpt lat="48.78046" lon="5.15803">
        <ele>178</ele>
        <time>2023-01-06T08:54:57.000Z</time>
      </trkpt>
      <trkpt lat="48.78045" lon="5.15806">
        <ele>178</ele>
        <time>2023-01-06T08:54:58.000Z</time>
      </trkpt>
      <trkpt lat="48.78043" lon="5.15808">
        <ele>178</ele>
        <time>2023-01-06T08:54:59.000Z</time>
      </trkpt>
      <trkpt lat="48.78042" lon="5.1581">
        <ele>178</ele>
        <time>2023-01-06T08:55:00.000Z</time>
      </trkpt>
      <trkpt lat="48.78042" lon="5.15812">
        <ele>178</ele>
        <time>2023-01-06T08:55:01.000Z</time>
      </trkpt>
      <trkpt lat="48.78041" lon="5.15814">
        <ele>178</ele>
        <time>2023-01-06T08:55:02.000Z</time>
      </trkpt>
      <trkpt lat="48.7804" lon="5.15815">
        <ele>178</ele>
        <time>2023-01-06T08:55:03.000Z</time>
      </trkpt>
      <trkpt lat="48.78039" lon="5.15817">
        <ele>178</ele>
        <time>2023-01-06T08:55:04.000Z</time>
      </trkpt>
      <trkpt lat="48.78037" lon="5.15819">
        <ele>178</ele>
        <time>2023-01-06T08:55:05.000Z</time>
      </trkpt>
      <trkpt lat="48.78036" lon="5.15821">
        <ele>178</ele>
        <time>2023-01-06T08:55:06.000Z</time>
      </trkpt>
      <trkpt lat="48.78035" lon="5.15823">
        <ele>178</ele>
        <time>2023-01-06T08:55:07.000Z</time>
      </trkpt>
      <trkpt lat="48.78034" lon="5.15824">
        <ele>178</ele>
        <time>2023-01-06T08:55:08.000Z</time>
      </trkpt>
      <trkpt lat="48.78032" lon="5.15827">
        <ele>178</ele>
        <time>2023-01-06T08:55:09.000Z</time>
      </trkpt>
      <trkpt lat="48.78031" lon="5.15829">
        <ele>178</ele>
        <time>2023-01-06T08:55:10.000Z</time>
      </trkpt>
      <trkpt lat="48.7803" lon="5.15831">
        <ele>178</ele>
        <time>2023-01-06T08:55:11.000Z</time>
      </trkpt>
      <trkpt lat="48.78029" lon="5.15833">
        <ele>178</ele>
        <time>2023-01-06T08:55:12.000Z</time>
      </trkpt>
      <trkpt lat="48.78028" lon="5.15834">
        <ele>178</ele>
        <time>2023-01-06T08:55:13.000Z</time>
      </trkpt>
      <trkpt lat="48.78028" lon="5.15836">
        <ele>178</ele>
        <time>2023-01-06T08:55:14.000Z</time>
      </trkpt>
      <trkpt lat="48.78027" lon="5.15837">
        <ele>178</ele>
        <time>2023-01-06T08:55:15.000Z</time>
      </trkpt>
      <trkpt lat="48.78026" lon="5.15839">
        <ele>178</ele>
        <time>2023-01-06T08:55:16.000Z</time>
      </trkpt>
      <trkpt lat="48.78025" lon="5.15842">
        <ele>178</ele>
        <time>2023-01-06T08:55:17.000Z</time>
      </trkpt>
      <trkpt lat="48.78023" lon="5.15845">
        <ele>178</ele>
        <time>2023-01-06T08:55:18.000Z</time>
      </trkpt>
      <trkpt lat="48.78022" lon="5.15847">
        <ele>178</ele>
        <time>2023-01-06T08:55:19.000Z</time>
      </trkpt>
      <trkpt lat="48.78021" lon="5.1585">
        <ele>178</ele>
        <time>2023-01-06T08:55:20.000Z</time>
      </trkpt>
      <trkpt lat="48.78019" lon="5.15852">
        <ele>178</ele>
        <time>2023-01-06T08:55:21.000Z</time>
      </trkpt>
      <trkpt lat="48.78018" lon="5.15855">
        <ele>178</ele>
        <time>2023-01-06T08:55:22.000Z</time>
      </trkpt>
      <trkpt lat="48.78017" lon="5.15858">
        <ele>178</ele>
        <time>2023-01-06T08:55:23.000Z</time>
      </trkpt>
      <trkpt lat="48.78016" lon="5.1586">
        <ele>178</ele>
        <time>2023-01-06T08:55:24.000Z</time>
      </trkpt>
      <trkpt lat="48.78016" lon="5.15862">
        <ele>178</ele>
        <time>2023-01-06T08:55:25.000Z</time>
      </trkpt>
      <trkpt lat="48.78015" lon="5.15863">
        <ele>178</ele>
        <time>2023-01-06T08:55:26.000Z</time>
      </trkpt>
      <trkpt lat="48.78015" lon="5.15863">
        <ele>178</ele>
        <time>2023-01-06T08:55:27.000Z</time>
      </trkpt>
      <trkpt lat="48.78015" lon="5.15864">
        <ele>178</ele>
        <time>2023-01-06T08:55:28.000Z</time>
      </trkpt>
      <trkpt lat="48.78015" lon="5.15865">
        <ele>178</ele>
        <time>2023-01-06T08:55:29.000Z</time>
      </trkpt>
      <trkpt lat="48.78014" lon="5.15866">
        <ele>178</ele>
        <time>2023-01-06T08:55:30.000Z</time>
      </trkpt>
      <trkpt lat="48.78013" lon="5.15867">
        <ele>178</ele>
        <time>2023-01-06T08:55:31.000Z</time>
      </trkpt>
      <trkpt lat="48.78013" lon="5.15869">
        <ele>178</ele>
        <time>2023-01-06T08:55:32.000Z</time>
      </trkpt>
      <trkpt lat="48.78012" lon="5.1587">
        <ele>178</ele>
        <time>2023-01-06T08:55:33.000Z</time>
      </trkpt>
      <trkpt lat="48.78011" lon="5.15871">
        <ele>178</ele>
        <time>2023-01-06T08:55:34.000Z</time>
      </trkpt>
      <trkpt lat="48.7801" lon="5.15873">
        <ele>178</ele>
        <time>2023-01-06T08:55:35.000Z</time>
      </trkpt>
      <trkpt lat="48.7801" lon="5.15875">
        <ele>178</ele>
        <time>2023-01-06T08:55:36.000Z</time>
      </trkpt>
      <trkpt lat="48.78009" lon="5.15877">
        <ele>178</ele>
        <time>2023-01-06T08:55:37.000Z</time>
      </trkpt>
      <trkpt lat="48.78009" lon="5.15879">
        <ele>177</ele>
        <time>2023-01-06T08:55:38.000Z</time>
      </trkpt>
      <trkpt lat="48.78008" lon="5.15881">
        <ele>177.5</ele>
        <time>2023-01-06T08:55:39.000Z</time>
      </trkpt>
      <trkpt lat="48.78008" lon="5.15882">
        <ele>178</ele>
        <time>2023-01-06T08:55:40.000Z</time>
      </trkpt>
      <trkpt lat="48.78007" lon="5.15884">
        <ele>178</ele>
        <time>2023-01-06T08:55:41.000Z</time>
      </trkpt>
      <trkpt lat="48.78007" lon="5.15885">
        <ele>178</ele>
        <time>2023-01-06T08:55:42.000Z</time>
      </trkpt>
      <trkpt lat="48.78007" lon="5.15887">
        <ele>178</ele>
        <time>2023-01-06T08:55:43.000Z</time>
      </trkpt>
      <trkpt lat="48.78006" lon="5.1589">
        <ele>178</ele>
        <time>2023-01-06T08:55:44.000Z</time>
      </trkpt>
      <trkpt lat="48.78006" lon="5.15892">
        <ele>177.5</ele>
        <time>2023-01-06T08:55:45.000Z</time>
      </trkpt>
      <trkpt lat="48.78005" lon="5.15894">
        <ele>177</ele>
        <time>2023-01-06T08:55:46.000Z</time>
      </trkpt>
      <trkpt lat="48.78004" lon="5.15896">
        <ele>177</ele>
        <time>2023-01-06T08:55:47.000Z</time>
      </trkpt>
      <trkpt lat="48.78003" lon="5.15898">
        <ele>177</ele>
        <time>2023-01-06T08:55:48.000Z</time>
      </trkpt>
      <trkpt lat="48.78002" lon="5.15901">
        <ele>177</ele>
        <time>2023-01-06T08:55:49.000Z</time>
      </trkpt>
      <trkpt lat="48.78001" lon="5.15903">
        <ele>178</ele>
        <time>2023-01-06T08:55:50.000Z</time>
      </trkpt>
      <trkpt lat="48.78" lon="5.15904">
        <ele>178</ele>
        <time>2023-01-06T08:55:51.000Z</time>
      </trkpt>
      <trkpt lat="48.78" lon="5.15906">
        <ele>178</ele>
        <time>2023-01-06T08:55:52.000Z</time>
      </trkpt>
      <trkpt lat="48.77999" lon="5.15908">
        <ele>178</ele>
        <time>2023-01-06T08:55:53.000Z</time>
      </trkpt>
      <trkpt lat="48.77998" lon="5.1591">
        <ele>178</ele>
        <time>2023-01-06T08:55:54.000Z</time>
      </trkpt>
      <trkpt lat="48.77996" lon="5.15912">
        <ele>178</ele>
        <time>2023-01-06T08:55:55.000Z</time>
      </trkpt>
      <trkpt lat="48.77995" lon="5.15914">
        <ele>178</ele>
        <time>2023-01-06T08:55:56.000Z</time>
      </trkpt>
      <trkpt lat="48.77994" lon="5.15916">
        <ele>178</ele>
        <time>2023-01-06T08:55:57.000Z</time>
      </trkpt>
      <trkpt lat="48.77993" lon="5.15917">
        <ele>178</ele>
        <time>2023-01-06T08:55:58.000Z</time>
      </trkpt>
      <trkpt lat="48.77992" lon="5.15918">
        <ele>178</ele>
        <time>2023-01-06T08:55:59.000Z</time>
      </trkpt>
      <trkpt lat="48.77991" lon="5.15919">
        <ele>178</ele>
        <time>2023-01-06T08:56:00.000Z</time>
      </trkpt>
      <trkpt lat="48.77991" lon="5.1592">
        <ele>177.7</ele>
        <time>2023-01-06T08:56:01.000Z</time>
      </trkpt>
      <trkpt lat="48.7799" lon="5.15922">
        <ele>177.3</ele>
        <time>2023-01-06T08:56:02.000Z</time>
      </trkpt>
      <trkpt lat="48.77989" lon="5.15924">
        <ele>177</ele>
        <time>2023-01-06T08:56:03.000Z</time>
      </trkpt>
      <trkpt lat="48.77988" lon="5.15926">
        <ele>177</ele>
        <time>2023-01-06T08:56:04.000Z</time>
      </trkpt>
      <trkpt lat="48.77987" lon="5.15928">
        <ele>177</ele>
        <time>2023-01-06T08:56:05.000Z</time>
      </trkpt>
      <trkpt lat="48.77986" lon="5.1593">
        <ele>177</ele>
        <time>2023-01-06T08:56:06.000Z</time>
      </trkpt>
      <trkpt lat="48.77985" lon="5.15932">
        <ele>177</ele>
        <time>2023-01-06T08:56:07.000Z</time>
      </trkpt>
      <trkpt lat="48.77984" lon="5.15934">
        <ele>178</ele>
        <time>2023-01-06T08:56:08.000Z</time>
      </trkpt>
      <trkpt lat="48.77984" lon="5.15936">
        <ele>178</ele>
        <time>2023-01-06T08:56:09.000Z</time>
      </trkpt>
      <trkpt lat="48.77983" lon="5.15938">
        <ele>178</ele>
        <time>2023-01-06T08:56:10.000Z</time>
      </trkpt>
      <trkpt lat="48.77982" lon="5.1594">
        <ele>178</ele>
        <time>2023-01-06T08:56:11.000Z</time>
      </trkpt>
      <trkpt lat="48.77982" lon="5.15941">
        <ele>178</ele>
        <time>2023-01-06T08:56:12.000Z</time>
      </trkpt>
      <trkpt lat="48.77982" lon="5.15942">
        <ele>178</ele>
        <time>2023-01-06T08:56:13.000Z</time>
      </trkpt>
      <trkpt lat="48.77981" lon="5.15943">
        <ele>178</ele>
        <time>2023-01-06T08:56:14.000Z</time>
      </trkpt>
      <trkpt lat="48.77981" lon="5.15943">
        <ele>178</ele>
        <time>2023-01-06T08:56:15.000Z</time>
      </trkpt>
      <trkpt lat="48.77981" lon="5.15943">
        <ele>178</ele>
        <time>2023-01-06T08:56:16.000Z</time>
      </trkpt>
      <trkpt lat="48.77981" lon="5.15943">
        <ele>178</ele>
        <time>2023-01-06T08:56:17.000Z</time>
      </trkpt>
      <trkpt lat="48.77981" lon="5.15943">
        <ele>178</ele>
        <time>2023-01-06T08:56:18.000Z</time>
      </trkpt>
      <trkpt lat="48.77981" lon="5.15943">
        <ele>178</ele>
        <time>2023-01-06T08:56:19.000Z</time>
      </trkpt>
      <trkpt lat="48.77981" lon="5.15943">
        <ele>178</ele>
        <time>2023-01-06T08:56:20.000Z</time>
      </trkpt>
      <trkpt lat="48.77981" lon="5.15943">
        <ele>178</ele>
        <time>2023-01-06T08:56:21.000Z</time>
      </trkpt>
      <trkpt lat="48.77981" lon="5.15943">
        <ele>178</ele>
        <time>2023-01-06T08:56:22.000Z</time>
      </trkpt>
      <trkpt lat="48.77981" lon="5.15943">
        <ele>178</ele>
        <time>2023-01-06T08:56:23.000Z</time>
      </trkpt>
      <trkpt lat="48.77981" lon="5.15943">
        <ele>178</ele>
        <time>2023-01-06T08:56:24.000Z</time>
      </trkpt>
      <trkpt lat="48.77981" lon="5.15943">
        <ele>178</ele>
        <time>2023-01-06T08:56:25.000Z</time>
      </trkpt>
      <trkpt lat="48.77981" lon="5.15943">
        <ele>178</ele>
        <time>2023-01-06T08:56:26.000Z</time>
      </trkpt>
      <trkpt lat="48.77981" lon="5.15943">
        <ele>178</ele>
        <time>2023-01-06T08:56:27.000Z</time>
      </trkpt>
      <trkpt lat="48.77981" lon="5.15943">
        <ele>178</ele>
        <time>2023-01-06T08:56:28.000Z</time>
      </trkpt>
      <trkpt lat="48.77981" lon="5.15943">
        <ele>178</ele>
        <time>2023-01-06T08:56:29.000Z</time>
      </trkpt>
      <trkpt lat="48.77981" lon="5.15943">
        <ele>178</ele>
        <time>2023-01-06T08:56:30.000Z</time>
      </trkpt>
      <trkpt lat="48.77981" lon="5.15943">
        <ele>178</ele>
        <time>2023-01-06T08:56:31.000Z</time>
      </trkpt>
      <trkpt lat="48.77981" lon="5.15943">
        <ele>178</ele>
        <time>2023-01-06T08:56:32.000Z</time>
      </trkpt>
      <trkpt lat="48.77981" lon="5.15943">
        <ele>178</ele>
        <time>2023-01-06T08:56:33.000Z</time>
      </trkpt>
      <trkpt lat="48.77981" lon="5.15943">
        <ele>178</ele>
        <time>2023-01-06T08:56:34.000Z</time>
      </trkpt>
      <trkpt lat="48.77981" lon="5.15943">
        <ele>178</ele>
        <time>2023-01-06T08:56:35.000Z</time>
      </trkpt>
      <trkpt lat="48.77981" lon="5.15943">
        <ele>178</ele>
        <time>2023-01-06T08:56:36.000Z</time>
      </trkpt>
      <trkpt lat="48.77981" lon="5.15943">
        <ele>178</ele>
        <time>2023-01-06T08:56:37.000Z</time>
      </trkpt>
      <trkpt lat="48.77981" lon="5.15943">
        <ele>178</ele>
        <time>2023-01-06T08:56:38.000Z</time>
      </trkpt>
      <trkpt lat="48.77981" lon="5.15943">
        <ele>178</ele>
        <time>2023-01-06T08:56:39.000Z</time>
      </trkpt>
      <trkpt lat="48.77981" lon="5.15943">
        <ele>178</ele>
        <time>2023-01-06T08:56:40.000Z</time>
      </trkpt>
      <trkpt lat="48.77981" lon="5.15943">
        <ele>178</ele>
        <time>2023-01-06T08:56:41.000Z</time>
      </trkpt>
      <trkpt lat="48.77981" lon="5.15943">
        <ele>178</ele>
        <time>2023-01-06T08:56:42.000Z</time>
      </trkpt>
      <trkpt lat="48.77981" lon="5.15943">
        <ele>178</ele>
        <time>2023-01-06T08:56:43.000Z</time>
      </trkpt>
      <trkpt lat="48.77981" lon="5.15943">
        <ele>178</ele>
        <time>2023-01-06T08:56:44.000Z</time>
      </trkpt>
      <trkpt lat="48.7798" lon="5.15943">
        <ele>178</ele>
        <time>2023-01-06T08:56:45.000Z</time>
      </trkpt>
      <trkpt lat="48.7798" lon="5.15941">
        <ele>189.1</ele>
      </trkpt>
      <trkpt lat="48.77977" lon="5.15939">
        <ele>188.3</ele>
      </trkpt>
      <trkpt lat="48.77976" lon="5.15944">
        <ele>188.6</ele>
      </trkpt>
      <trkpt lat="48.77975" lon="5.15952">
        <ele>188.5</ele>
      </trkpt>
      <trkpt lat="48.77976" lon="5.15953">
        <ele>188.7</ele>
      </trkpt>
      <trkpt lat="48.77976" lon="5.15957">
        <ele>188.7</ele>
      </trkpt>
      <trkpt lat="48.77977" lon="5.15962">
        <ele>189</ele>
      </trkpt>
      <trkpt lat="48.77976" lon="5.15966">
        <ele>188.8</ele>
      </trkpt>
      <trkpt lat="48.77975" lon="5.1597">
        <ele>188.6</ele>
      </trkpt>
      <trkpt lat="48.77974" lon="5.15973">
        <ele>188.4</ele>
      </trkpt>
      <trkpt lat="48.77972" lon="5.15975">
        <ele>188.2</ele>
      </trkpt>
      <trkpt lat="48.77971" lon="5.15976">
        <ele>188.2</ele>
      </trkpt>
      <trkpt lat="48.77969" lon="5.15977">
        <ele>188.1</ele>
      </trkpt>
      <trkpt lat="48.77967" lon="5.15977">
        <ele>188</ele>
      </trkpt>
      <trkpt lat="48.77966" lon="5.15978">
        <ele>188</ele>
      </trkpt>
      <trkpt lat="48.77965" lon="5.15977">
        <ele>187.8</ele>
      </trkpt>
      <trkpt lat="48.77949" lon="5.16004">
        <ele>188.4</ele>
      </trkpt>
      <trkpt lat="48.77942" lon="5.16016">
        <ele>187.8</ele>
      </trkpt>
      <trkpt lat="48.77932" lon="5.16037">
        <ele>187.6</ele>
      </trkpt>
      <trkpt lat="48.77917" lon="5.16071">
        <ele>188.2</ele>
      </trkpt>
      <trkpt lat="48.77896" lon="5.16118">
        <ele>188.1</ele>
      </trkpt>
      <trkpt lat="48.77883" lon="5.16151">
        <ele>187.9</ele>
      </trkpt>
      <trkpt lat="48.77866" lon="5.16187">
        <ele>189</ele>
      </trkpt>
      <trkpt lat="48.7785" lon="5.16223">
        <ele>189.1</ele>
      </trkpt>
      <trkpt lat="48.77835" lon="5.16256">
        <ele>190.5</ele>
      </trkpt>
      <trkpt lat="48.7782" lon="5.16287">
        <ele>189.9</ele>
      </trkpt>
      <trkpt lat="48.77807" lon="5.16314">
        <ele>190</ele>
      </trkpt>
      <trkpt lat="48.77791" lon="5.16352">
        <ele>191</ele>
      </trkpt>
      <trkpt lat="48.77778" lon="5.16375">
        <ele>189.6</ele>
      </trkpt>
      <trkpt lat="48.77765" lon="5.16399">
        <ele>189.3</ele>
      </trkpt>
      <trkpt lat="48.77756" lon="5.16415">
        <ele>189.7</ele>
      </trkpt>
      <trkpt lat="48.77748" lon="5.16428">
        <ele>188.8</ele>
      </trkpt>
      <trkpt lat="48.77754" lon="5.16435">
        <ele>189.9</ele>
      </trkpt>
      <trkpt lat="48.77756" lon="5.16439">
        <ele>190.4</ele>
      </trkpt>
      <trkpt lat="48.77756" lon="5.16444">
        <ele>190.5</ele>
      </trkpt>
      <trkpt lat="48.77754" lon="5.1645">
        <ele>190.6</ele>
      </trkpt>
      <trkpt lat="48.77752" lon="5.16453">
        <ele>190.4</ele>
      </trkpt>
      <trkpt lat="48.77747" lon="5.16455">
        <ele>190.1</ele>
      </trkpt>
      <trkpt lat="48.77742" lon="5.16454">
        <ele>189.8</ele>
      </trkpt>
      <trkpt lat="48.77738" lon="5.16453">
        <ele>189.7</ele>
      </trkpt>
      <trkpt lat="48.77736" lon="5.16455">
        <ele>189.8</ele>
      </trkpt>
      <trkpt lat="48.77732" lon="5.1646">
        <ele>190</ele>
      </trkpt>
      <trkpt lat="48.77726" lon="5.16471">
        <ele>190.2</ele>
      </trkpt>
      <trkpt lat="48.77722" lon="5.1648">
        <ele>189.7</ele>
      </trkpt>
      <trkpt lat="48.77711" lon="5.16502">
        <ele>188.3</ele>
      </trkpt>
      <trkpt lat="48.77702" lon="5.16517">
        <ele>188.5</ele>
      </trkpt>
      <trkpt lat="48.77699" lon="5.16523">
        <ele>188.4</ele>
      </trkpt>
      <trkpt lat="48.77691" lon="5.16536">
        <ele>188.3</ele>
      </trkpt>
      <trkpt lat="48.77684" lon="5.16547">
        <ele>188.8</ele>
      </trkpt>
      <trkpt lat="48.77679" lon="5.16553">
        <ele>189.2</ele>
      </trkpt>
      <trkpt lat="48.77675" lon="5.16558">
        <ele>189.4</ele>
      </trkpt>
      <trkpt lat="48.77671" lon="5.16564">
        <ele>189.3</ele>
      </trkpt>
      <trkpt lat="48.77669" lon="5.16567">
        <ele>189.2</ele>
      </trkpt>
      <trkpt lat="48.77666" lon="5.16571">
        <ele>188.9</ele>
      </trkpt>
      <trkpt lat="48.77662" lon="5.16576">
        <ele>188.6</ele>
      </trkpt>
      <trkpt lat="48.77658" lon="5.16582">
        <ele>188.4</ele>
      </trkpt>
      <trkpt lat="48.77654" lon="5.16588">
        <ele>188.3</ele>
      </trkpt>
      <trkpt lat="48.77649" lon="5.16595">
        <ele>188.1</ele>
      </trkpt>
      <trkpt lat="48.77643" lon="5.16602">
        <ele>188</ele>
      </trkpt>
      <trkpt lat="48.77638" lon="5.16609">
        <ele>187.8</ele>
      </trkpt>
      <trkpt lat="48.77632" lon="5.16616">
        <ele>187.5</ele>
      </trkpt>
      <trkpt lat="48.77626" lon="5.16624">
        <ele>187.3</ele>
      </trkpt>
      <trkpt lat="48.7762" lon="5.16631">
        <ele>187.2</ele>
      </trkpt>
      <trkpt lat="48.77614" lon="5.16638">
        <ele>187.1</ele>
      </trkpt>
      <trkpt lat="48.77608" lon="5.16645">
        <ele>186.8</ele>
      </trkpt>
      <trkpt lat="48.77603" lon="5.16651">
        <ele>186.7</ele>
      </trkpt>
      <trkpt lat="48.77598" lon="5.16658">
        <ele>186.7</ele>
      </trkpt>
      <trkpt lat="48.77593" lon="5.16663">
        <ele>186.8</ele>
      </trkpt>
      <trkpt lat="48.77588" lon="5.1667">
        <ele>187.1</ele>
      </trkpt>
      <trkpt lat="48.77584" lon="5.16676">
        <ele>187</ele>
      </trkpt>
      <trkpt lat="48.77582" lon="5.1668">
        <ele>186.9</ele>
      </trkpt>
      <trkpt lat="48.77578" lon="5.16686">
        <ele>186.7</ele>
      </trkpt>
      <trkpt lat="48.77575" lon="5.16694">
        <ele>186.7</ele>
      </trkpt>
      <trkpt lat="48.77579" lon="5.16698">
        <ele>187.2</ele>
      </trkpt>
      <trkpt lat="48.77581" lon="5.16706">
        <ele>188.1</ele>
      </trkpt>
      <trkpt lat="48.7758" lon="5.16718">
        <ele>189.1</ele>
      </trkpt>
      <trkpt lat="48.77582" lon="5.16723">
        <ele>176</ele>
        <time>2023-01-06T09:08:27.000Z</time>
        <extensions>
          <visugpx:TrkExtension xmlns:visugpx="https://www.visugpx.com/editgpx/">
            <visugpx:node>1</visugpx:node>
            </visugpx:TrkExtension>
        </extensions>
      </trkpt>
      <trkpt lat="48.77582" lon="5.16725">
        <ele>176</ele>
        <time>2023-01-06T09:08:28.000Z</time>
      </trkpt>
      <trkpt lat="48.77581" lon="5.16727">
        <ele>176.3</ele>
        <time>2023-01-06T09:08:29.000Z</time>
      </trkpt>
      <trkpt lat="48.77581" lon="5.16728">
        <ele>176.7</ele>
        <time>2023-01-06T09:08:30.000Z</time>
      </trkpt>
      <trkpt lat="48.7758" lon="5.1673">
        <ele>177</ele>
        <time>2023-01-06T09:08:31.000Z</time>
      </trkpt>
      <trkpt lat="48.7758" lon="5.16731">
        <ele>177</ele>
        <time>2023-01-06T09:08:32.000Z</time>
      </trkpt>
      <trkpt lat="48.7758" lon="5.16733">
        <ele>177.3</ele>
        <time>2023-01-06T09:08:33.000Z</time>
      </trkpt>
      <trkpt lat="48.77579" lon="5.16734">
        <ele>177.7</ele>
        <time>2023-01-06T09:08:34.000Z</time>
      </trkpt>
      <trkpt lat="48.77579" lon="5.16736">
        <ele>178</ele>
        <time>2023-01-06T09:08:35.000Z</time>
      </trkpt>
      <trkpt lat="48.77579" lon="5.16737">
        <ele>178</ele>
        <time>2023-01-06T09:08:36.000Z</time>
      </trkpt>
      <trkpt lat="48.77579" lon="5.16738">
        <ele>178</ele>
        <time>2023-01-06T09:08:37.000Z</time>
      </trkpt>
      <trkpt lat="48.77579" lon="5.16739">
        <ele>178</ele>
        <time>2023-01-06T09:08:38.000Z</time>
      </trkpt>
      <trkpt lat="48.77578" lon="5.1674">
        <ele>178.3</ele>
        <time>2023-01-06T09:08:39.000Z</time>
      </trkpt>
      <trkpt lat="48.77578" lon="5.16741">
        <ele>178.7</ele>
        <time>2023-01-06T09:08:40.000Z</time>
      </trkpt>
      <trkpt lat="48.77578" lon="5.16742">
        <ele>179</ele>
        <time>2023-01-06T09:08:41.000Z</time>
      </trkpt>
      <trkpt lat="48.77577" lon="5.16744">
        <ele>179</ele>
        <time>2023-01-06T09:08:42.000Z</time>
      </trkpt>
      <trkpt lat="48.77577" lon="5.16745">
        <ele>179</ele>
        <time>2023-01-06T09:08:43.000Z</time>
      </trkpt>
      <trkpt lat="48.77576" lon="5.16747">
        <ele>179</ele>
        <time>2023-01-06T09:08:44.000Z</time>
      </trkpt>
      <trkpt lat="48.77576" lon="5.16748">
        <ele>179</ele>
        <time>2023-01-06T09:08:45.000Z</time>
      </trkpt>
      <trkpt lat="48.77575" lon="5.1675">
        <ele>180</ele>
        <time>2023-01-06T09:08:46.000Z</time>
      </trkpt>
      <trkpt lat="48.77575" lon="5.16752">
        <ele>180</ele>
        <time>2023-01-06T09:08:47.000Z</time>
      </trkpt>
      <trkpt lat="48.77574" lon="5.16754">
        <ele>180</ele>
        <time>2023-01-06T09:08:48.000Z</time>
      </trkpt>
      <trkpt lat="48.77574" lon="5.16756">
        <ele>180</ele>
        <time>2023-01-06T09:08:49.000Z</time>
      </trkpt>
      <trkpt lat="48.77574" lon="5.16758">
        <ele>180</ele>
        <time>2023-01-06T09:08:50.000Z</time>
      </trkpt>
      <trkpt lat="48.77573" lon="5.1676">
        <ele>180.3</ele>
        <time>2023-01-06T09:08:51.000Z</time>
      </trkpt>
      <trkpt lat="48.77573" lon="5.16761">
        <ele>180.7</ele>
        <time>2023-01-06T09:08:52.000Z</time>
      </trkpt>
      <trkpt lat="48.77572" lon="5.16763">
        <ele>181</ele>
        <time>2023-01-06T09:08:53.000Z</time>
      </trkpt>
      <trkpt lat="48.77572" lon="5.16765">
        <ele>181</ele>
        <time>2023-01-06T09:08:54.000Z</time>
      </trkpt>
      <trkpt lat="48.77572" lon="5.16767">
        <ele>181</ele>
        <time>2023-01-06T09:08:55.000Z</time>
      </trkpt>
      <trkpt lat="48.77571" lon="5.16769">
        <ele>182</ele>
        <time>2023-01-06T09:08:56.000Z</time>
      </trkpt>
      <trkpt lat="48.77571" lon="5.16771">
        <ele>182</ele>
        <time>2023-01-06T09:08:57.000Z</time>
      </trkpt>
      <trkpt lat="48.7757" lon="5.16773">
        <ele>182</ele>
        <time>2023-01-06T09:08:58.000Z</time>
      </trkpt>
      <trkpt lat="48.7757" lon="5.16776">
        <ele>182</ele>
        <time>2023-01-06T09:08:59.000Z</time>
      </trkpt>
      <trkpt lat="48.7757" lon="5.16778">
        <ele>182</ele>
        <time>2023-01-06T09:09:00.000Z</time>
      </trkpt>
      <trkpt lat="48.77569" lon="5.16781">
        <ele>182.3</ele>
        <time>2023-01-06T09:09:01.000Z</time>
      </trkpt>
      <trkpt lat="48.77569" lon="5.16783">
        <ele>182.7</ele>
        <time>2023-01-06T09:09:02.000Z</time>
      </trkpt>
      <trkpt lat="48.77569" lon="5.16786">
        <ele>183</ele>
        <time>2023-01-06T09:09:03.000Z</time>
      </trkpt>
      <trkpt lat="48.77568" lon="5.16788">
        <ele>183</ele>
        <time>2023-01-06T09:09:04.000Z</time>
      </trkpt>
      <trkpt lat="48.77568" lon="5.16789">
        <ele>183</ele>
        <time>2023-01-06T09:09:05.000Z</time>
      </trkpt>
      <trkpt lat="48.77568" lon="5.16791">
        <ele>183</ele>
        <time>2023-01-06T09:09:06.000Z</time>
      </trkpt>
      <trkpt lat="48.77567" lon="5.16794">
        <ele>183</ele>
        <time>2023-01-06T09:09:07.000Z</time>
      </trkpt>
      <trkpt lat="48.77567" lon="5.16796">
        <ele>183.5</ele>
        <time>2023-01-06T09:09:08.000Z</time>
      </trkpt>
      <trkpt lat="48.77567" lon="5.16798">
        <ele>184</ele>
        <time>2023-01-06T09:09:09.000Z</time>
      </trkpt>
      <trkpt lat="48.77566" lon="5.168">
        <ele>184</ele>
        <time>2023-01-06T09:09:10.000Z</time>
      </trkpt>
      <trkpt lat="48.77566" lon="5.16802">
        <ele>184.3</ele>
        <time>2023-01-06T09:09:11.000Z</time>
      </trkpt>
      <trkpt lat="48.77566" lon="5.16803">
        <ele>184.7</ele>
        <time>2023-01-06T09:09:12.000Z</time>
      </trkpt>
      <trkpt lat="48.77565" lon="5.16804">
        <ele>185</ele>
        <time>2023-01-06T09:09:13.000Z</time>
      </trkpt>
      <trkpt lat="48.77565" lon="5.16806">
        <ele>185</ele>
        <time>2023-01-06T09:09:14.000Z</time>
      </trkpt>
      <trkpt lat="48.77564" lon="5.16807">
        <ele>185.3</ele>
        <time>2023-01-06T09:09:15.000Z</time>
      </trkpt>
      <trkpt lat="48.77564" lon="5.16808">
        <ele>185.7</ele>
        <time>2023-01-06T09:09:16.000Z</time>
      </trkpt>
      <trkpt lat="48.77564" lon="5.1681">
        <ele>186</ele>
        <time>2023-01-06T09:09:17.000Z</time>
      </trkpt>
      <trkpt lat="48.77563" lon="5.16813">
        <ele>186</ele>
        <time>2023-01-06T09:09:18.000Z</time>
      </trkpt>
      <trkpt lat="48.77562" lon="5.16814">
        <ele>186</ele>
        <time>2023-01-06T09:09:19.000Z</time>
      </trkpt>
      <trkpt lat="48.77561" lon="5.16816">
        <ele>186</ele>
        <time>2023-01-06T09:09:20.000Z</time>
      </trkpt>
      <trkpt lat="48.77561" lon="5.16817">
        <ele>186</ele>
        <time>2023-01-06T09:09:21.000Z</time>
      </trkpt>
      <trkpt lat="48.7756" lon="5.16818">
        <ele>186</ele>
        <time>2023-01-06T09:09:22.000Z</time>
      </trkpt>
      <trkpt lat="48.7756" lon="5.1682">
        <ele>186</ele>
        <time>2023-01-06T09:09:23.000Z</time>
      </trkpt>
      <trkpt lat="48.7756" lon="5.16822">
        <ele>187</ele>
        <time>2023-01-06T09:09:24.000Z</time>
      </trkpt>
      <trkpt lat="48.77559" lon="5.16824">
        <ele>187</ele>
        <time>2023-01-06T09:09:25.000Z</time>
      </trkpt>
      <trkpt lat="48.77559" lon="5.16826">
        <ele>187</ele>
        <time>2023-01-06T09:09:26.000Z</time>
      </trkpt>
      <trkpt lat="48.77559" lon="5.16827">
        <ele>187</ele>
        <time>2023-01-06T09:09:27.000Z</time>
      </trkpt>
      <trkpt lat="48.77559" lon="5.1683">
        <ele>187</ele>
        <time>2023-01-06T09:09:28.000Z</time>
      </trkpt>
      <trkpt lat="48.77559" lon="5.16832">
        <ele>187</ele>
        <time>2023-01-06T09:09:29.000Z</time>
      </trkpt>
      <trkpt lat="48.77559" lon="5.16834">
        <ele>187</ele>
        <time>2023-01-06T09:09:30.000Z</time>
      </trkpt>
      <trkpt lat="48.77558" lon="5.16836">
        <ele>187</ele>
        <time>2023-01-06T09:09:31.000Z</time>
      </trkpt>
      <trkpt lat="48.77558" lon="5.16838">
        <ele>188</ele>
        <time>2023-01-06T09:09:32.000Z</time>
      </trkpt>
      <trkpt lat="48.77558" lon="5.16839">
        <ele>188</ele>
        <time>2023-01-06T09:09:33.000Z</time>
      </trkpt>
      <trkpt lat="48.77558" lon="5.16841">
        <ele>188</ele>
        <time>2023-01-06T09:09:34.000Z</time>
      </trkpt>
      <trkpt lat="48.77557" lon="5.16842">
        <ele>188</ele>
        <time>2023-01-06T09:09:35.000Z</time>
      </trkpt>
      <trkpt lat="48.77557" lon="5.16844">
        <ele>188</ele>
        <time>2023-01-06T09:09:36.000Z</time>
      </trkpt>
      <trkpt lat="48.77557" lon="5.16846">
        <ele>188</ele>
        <time>2023-01-06T09:09:37.000Z</time>
      </trkpt>
      <trkpt lat="48.77556" lon="5.16849">
        <ele>188</ele>
        <time>2023-01-06T09:09:38.000Z</time>
      </trkpt>
      <trkpt lat="48.77556" lon="5.16851">
        <ele>188</ele>
        <time>2023-01-06T09:09:39.000Z</time>
      </trkpt>
      <trkpt lat="48.77556" lon="5.16853">
        <ele>188</ele>
        <time>2023-01-06T09:09:40.000Z</time>
      </trkpt>
      <trkpt lat="48.77555" lon="5.16855">
        <ele>188</ele>
        <time>2023-01-06T09:09:41.000Z</time>
      </trkpt>
      <trkpt lat="48.77555" lon="5.16857">
        <ele>188</ele>
        <time>2023-01-06T09:09:42.000Z</time>
      </trkpt>
      <trkpt lat="48.77555" lon="5.16859">
        <ele>188</ele>
        <time>2023-01-06T09:09:43.000Z</time>
      </trkpt>
      <trkpt lat="48.77554" lon="5.16861">
        <ele>189</ele>
        <time>2023-01-06T09:09:44.000Z</time>
      </trkpt>
      <trkpt lat="48.77554" lon="5.16863">
        <ele>189</ele>
        <time>2023-01-06T09:09:45.000Z</time>
      </trkpt>
      <trkpt lat="48.77553" lon="5.16865">
        <ele>189</ele>
        <time>2023-01-06T09:09:46.000Z</time>
      </trkpt>
      <trkpt lat="48.77552" lon="5.16867">
        <ele>189</ele>
        <time>2023-01-06T09:09:47.000Z</time>
      </trkpt>
      <trkpt lat="48.77552" lon="5.16869">
        <ele>189</ele>
        <time>2023-01-06T09:09:48.000Z</time>
      </trkpt>
      <trkpt lat="48.77551" lon="5.16871">
        <ele>189</ele>
        <time>2023-01-06T09:09:49.000Z</time>
      </trkpt>
      <trkpt lat="48.77551" lon="5.16872">
        <ele>189</ele>
        <time>2023-01-06T09:09:50.000Z</time>
      </trkpt>
      <trkpt lat="48.7755" lon="5.16874">
        <ele>189</ele>
        <time>2023-01-06T09:09:51.000Z</time>
      </trkpt>
      <trkpt lat="48.7755" lon="5.16876">
        <ele>190</ele>
        <time>2023-01-06T09:09:52.000Z</time>
      </trkpt>
      <trkpt lat="48.7755" lon="5.16879">
        <ele>190</ele>
        <time>2023-01-06T09:09:53.000Z</time>
      </trkpt>
      <trkpt lat="48.7755" lon="5.16881">
        <ele>190</ele>
        <time>2023-01-06T09:09:54.000Z</time>
      </trkpt>
      <trkpt lat="48.77549" lon="5.16885">
        <ele>190</ele>
        <time>2023-01-06T09:09:55.000Z</time>
      </trkpt>
      <trkpt lat="48.77548" lon="5.16887">
        <ele>190</ele>
        <time>2023-01-06T09:09:56.000Z</time>
      </trkpt>
      <trkpt lat="48.77548" lon="5.1689">
        <ele>190</ele>
        <time>2023-01-06T09:09:57.000Z</time>
      </trkpt>
      <trkpt lat="48.77547" lon="5.16892">
        <ele>190</ele>
        <time>2023-01-06T09:09:58.000Z</time>
      </trkpt>
      <trkpt lat="48.77546" lon="5.16895">
        <ele>190</ele>
        <time>2023-01-06T09:09:59.000Z</time>
      </trkpt>
      <trkpt lat="48.77546" lon="5.16897">
        <ele>191</ele>
        <time>2023-01-06T09:10:00.000Z</time>
      </trkpt>
      <trkpt lat="48.77545" lon="5.16899">
        <ele>191</ele>
        <time>2023-01-06T09:10:01.000Z</time>
      </trkpt>
      <trkpt lat="48.77545" lon="5.16901">
        <ele>191</ele>
        <time>2023-01-06T09:10:02.000Z</time>
      </trkpt>
      <trkpt lat="48.77544" lon="5.16903">
        <ele>191</ele>
        <time>2023-01-06T09:10:03.000Z</time>
      </trkpt>
      <trkpt lat="48.77543" lon="5.16906">
        <ele>191</ele>
        <time>2023-01-06T09:10:04.000Z</time>
      </trkpt>
      <trkpt lat="48.77543" lon="5.16908">
        <ele>191</ele>
        <time>2023-01-06T09:10:05.000Z</time>
      </trkpt>
      <trkpt lat="48.77542" lon="5.1691">
        <ele>191</ele>
        <time>2023-01-06T09:10:06.000Z</time>
      </trkpt>
      <trkpt lat="48.77541" lon="5.16912">
        <ele>191</ele>
        <time>2023-01-06T09:10:07.000Z</time>
      </trkpt>
      <trkpt lat="48.77541" lon="5.16914">
        <ele>191</ele>
        <time>2023-01-06T09:10:08.000Z</time>
      </trkpt>
      <trkpt lat="48.7754" lon="5.16916">
        <ele>191</ele>
        <time>2023-01-06T09:10:09.000Z</time>
      </trkpt>
      <trkpt lat="48.77539" lon="5.16919">
        <ele>191</ele>
        <time>2023-01-06T09:10:10.000Z</time>
      </trkpt>
      <trkpt lat="48.77539" lon="5.16921">
        <ele>191</ele>
        <time>2023-01-06T09:10:11.000Z</time>
      </trkpt>
      <trkpt lat="48.77538" lon="5.16924">
        <ele>191</ele>
        <time>2023-01-06T09:10:12.000Z</time>
      </trkpt>
      <trkpt lat="48.77537" lon="5.16927">
        <ele>191.3</ele>
        <time>2023-01-06T09:10:13.000Z</time>
      </trkpt>
      <trkpt lat="48.77536" lon="5.16929">
        <ele>191.7</ele>
        <time>2023-01-06T09:10:14.000Z</time>
      </trkpt>
      <trkpt lat="48.77536" lon="5.16932">
        <ele>192</ele>
        <time>2023-01-06T09:10:15.000Z</time>
      </trkpt>
      <trkpt lat="48.77535" lon="5.16934">
        <ele>192</ele>
        <time>2023-01-06T09:10:16.000Z</time>
      </trkpt>
      <trkpt lat="48.77535" lon="5.16937">
        <ele>192</ele>
        <time>2023-01-06T09:10:17.000Z</time>
      </trkpt>
      <trkpt lat="48.77535" lon="5.1694">
        <ele>192</ele>
        <time>2023-01-06T09:10:18.000Z</time>
      </trkpt>
      <trkpt lat="48.77535" lon="5.16944">
        <ele>192</ele>
        <time>2023-01-06T09:10:19.000Z</time>
      </trkpt>
      <trkpt lat="48.77535" lon="5.16947">
        <ele>192</ele>
        <time>2023-01-06T09:10:20.000Z</time>
      </trkpt>
      <trkpt lat="48.77534" lon="5.1695">
        <ele>192</ele>
        <time>2023-01-06T09:10:21.000Z</time>
      </trkpt>
      <trkpt lat="48.77534" lon="5.16953">
        <ele>192</ele>
        <time>2023-01-06T09:10:22.000Z</time>
      </trkpt>
      <trkpt lat="48.77534" lon="5.16956">
        <ele>192</ele>
        <time>2023-01-06T09:10:23.000Z</time>
      </trkpt>
      <trkpt lat="48.77533" lon="5.16959">
        <ele>192</ele>
        <time>2023-01-06T09:10:24.000Z</time>
      </trkpt>
      <trkpt lat="48.77533" lon="5.16962">
        <ele>192</ele>
        <time>2023-01-06T09:10:25.000Z</time>
      </trkpt>
      <trkpt lat="48.77532" lon="5.16965">
        <ele>193</ele>
        <time>2023-01-06T09:10:26.000Z</time>
      </trkpt>
      <trkpt lat="48.77532" lon="5.16967">
        <ele>193</ele>
        <time>2023-01-06T09:10:27.000Z</time>
      </trkpt>
      <trkpt lat="48.77531" lon="5.1697">
        <ele>193</ele>
        <time>2023-01-06T09:10:28.000Z</time>
      </trkpt>
      <trkpt lat="48.77531" lon="5.16973">
        <ele>193</ele>
        <time>2023-01-06T09:10:29.000Z</time>
      </trkpt>
      <trkpt lat="48.77531" lon="5.16976">
        <ele>193</ele>
        <time>2023-01-06T09:10:30.000Z</time>
      </trkpt>
      <trkpt lat="48.77531" lon="5.16978">
        <ele>193</ele>
        <time>2023-01-06T09:10:31.000Z</time>
      </trkpt>
      <trkpt lat="48.77531" lon="5.16981">
        <ele>193</ele>
        <time>2023-01-06T09:10:32.000Z</time>
      </trkpt>
      <trkpt lat="48.7753" lon="5.16983">
        <ele>193.3</ele>
        <time>2023-01-06T09:10:33.000Z</time>
      </trkpt>
      <trkpt lat="48.7753" lon="5.16985">
        <ele>193.7</ele>
        <time>2023-01-06T09:10:34.000Z</time>
      </trkpt>
      <trkpt lat="48.7753" lon="5.16987">
        <ele>194</ele>
        <time>2023-01-06T09:10:35.000Z</time>
      </trkpt>
      <trkpt lat="48.77531" lon="5.16988">
        <ele>194</ele>
        <time>2023-01-06T09:10:36.000Z</time>
      </trkpt>
      <trkpt lat="48.77532" lon="5.16989">
        <ele>194</ele>
        <time>2023-01-06T09:10:37.000Z</time>
      </trkpt>
      <trkpt lat="48.77532" lon="5.1699">
        <ele>194</ele>
        <time>2023-01-06T09:10:38.000Z</time>
      </trkpt>
      <trkpt lat="48.77533" lon="5.1699">
        <ele>194</ele>
        <time>2023-01-06T09:10:39.000Z</time>
      </trkpt>
      <trkpt lat="48.77533" lon="5.1699">
        <ele>194</ele>
        <time>2023-01-06T09:10:40.000Z</time>
      </trkpt>
      <trkpt lat="48.77534" lon="5.1699">
        <ele>194</ele>
        <time>2023-01-06T09:10:41.000Z</time>
      </trkpt>
      <trkpt lat="48.77535" lon="5.1699">
        <ele>195</ele>
        <time>2023-01-06T09:10:42.000Z</time>
      </trkpt>
      <trkpt lat="48.77536" lon="5.16989">
        <ele>195</ele>
        <time>2023-01-06T09:10:43.000Z</time>
      </trkpt>
      <trkpt lat="48.77537" lon="5.16989">
        <ele>195</ele>
        <time>2023-01-06T09:10:44.000Z</time>
      </trkpt>
      <trkpt lat="48.77538" lon="5.16989">
        <ele>195</ele>
        <time>2023-01-06T09:10:45.000Z</time>
      </trkpt>
      <trkpt lat="48.77538" lon="5.16989">
        <ele>195.5</ele>
        <time>2023-01-06T09:10:46.000Z</time>
      </trkpt>
      <trkpt lat="48.77539" lon="5.16989">
        <ele>196</ele>
        <time>2023-01-06T09:10:47.000Z</time>
      </trkpt>
      <trkpt lat="48.7754" lon="5.16988">
        <ele>196</ele>
        <time>2023-01-06T09:10:48.000Z</time>
      </trkpt>
      <trkpt lat="48.77541" lon="5.16988">
        <ele>196</ele>
        <time>2023-01-06T09:10:49.000Z</time>
      </trkpt>
      <trkpt lat="48.77542" lon="5.16988">
        <ele>196</ele>
        <time>2023-01-06T09:10:50.000Z</time>
      </trkpt>
      <trkpt lat="48.77542" lon="5.16989">
        <ele>196</ele>
        <time>2023-01-06T09:10:51.000Z</time>
      </trkpt>
      <trkpt lat="48.77543" lon="5.16989">
        <ele>197</ele>
        <time>2023-01-06T09:10:52.000Z</time>
      </trkpt>
      <trkpt lat="48.77544" lon="5.16989">
        <ele>197.5</ele>
        <time>2023-01-06T09:10:53.000Z</time>
      </trkpt>
      <trkpt lat="48.77544" lon="5.16989">
        <ele>198</ele>
        <time>2023-01-06T09:10:54.000Z</time>
      </trkpt>
      <trkpt lat="48.77545" lon="5.1699">
        <ele>198</ele>
        <time>2023-01-06T09:10:55.000Z</time>
      </trkpt>
      <trkpt lat="48.77545" lon="5.1699">
        <ele>198</ele>
        <time>2023-01-06T09:10:56.000Z</time>
      </trkpt>
      <trkpt lat="48.77545" lon="5.1699">
        <ele>198</ele>
        <time>2023-01-06T09:10:57.000Z</time>
      </trkpt>
      <trkpt lat="48.77546" lon="5.1699">
        <ele>198.5</ele>
        <time>2023-01-06T09:10:58.000Z</time>
      </trkpt>
      <trkpt lat="48.77546" lon="5.1699">
        <ele>199</ele>
        <time>2023-01-06T09:10:59.000Z</time>
      </trkpt>
      <trkpt lat="48.77546" lon="5.16991">
        <ele>199</ele>
        <time>2023-01-06T09:11:00.000Z</time>
      </trkpt>
      <trkpt lat="48.77546" lon="5.16991">
        <ele>199</ele>
        <time>2023-01-06T09:11:01.000Z</time>
      </trkpt>
      <trkpt lat="48.77547" lon="5.16991">
        <ele>200</ele>
        <time>2023-01-06T09:11:02.000Z</time>
      </trkpt>
      <trkpt lat="48.77547" lon="5.16991">
        <ele>200.3</ele>
        <time>2023-01-06T09:11:03.000Z</time>
      </trkpt>
      <trkpt lat="48.77547" lon="5.16991">
        <ele>200.7</ele>
        <time>2023-01-06T09:11:04.000Z</time>
      </trkpt>
      <trkpt lat="48.77547" lon="5.16991">
        <ele>201</ele>
        <time>2023-01-06T09:11:05.000Z</time>
      </trkpt>
      <trkpt lat="48.77547" lon="5.16991">
        <ele>201</ele>
        <time>2023-01-06T09:11:06.000Z</time>
      </trkpt>
      <trkpt lat="48.77547" lon="5.16992">
        <ele>201.3</ele>
        <time>2023-01-06T09:11:07.000Z</time>
      </trkpt>
      <trkpt lat="48.77548" lon="5.16992">
        <ele>201.7</ele>
        <time>2023-01-06T09:11:08.000Z</time>
      </trkpt>
      <trkpt lat="48.77548" lon="5.16992">
        <ele>202</ele>
        <time>2023-01-06T09:11:09.000Z</time>
      </trkpt>
      <trkpt lat="48.77549" lon="5.16993">
        <ele>202.5</ele>
        <time>2023-01-06T09:11:10.000Z</time>
      </trkpt>
      <trkpt lat="48.77549" lon="5.16993">
        <ele>203</ele>
        <time>2023-01-06T09:11:11.000Z</time>
      </trkpt>
      <trkpt lat="48.7755" lon="5.16994">
        <ele>203</ele>
        <time>2023-01-06T09:11:12.000Z</time>
      </trkpt>
      <trkpt lat="48.77551" lon="5.16994">
        <ele>203.3</ele>
        <time>2023-01-06T09:11:13.000Z</time>
      </trkpt>
      <trkpt lat="48.77551" lon="5.16994">
        <ele>203.7</ele>
        <time>2023-01-06T09:11:14.000Z</time>
      </trkpt>
      <trkpt lat="48.77552" lon="5.16994">
        <ele>204</ele>
        <time>2023-01-06T09:11:15.000Z</time>
      </trkpt>
      <trkpt lat="48.77552" lon="5.16994">
        <ele>205</ele>
        <time>2023-01-06T09:11:16.000Z</time>
      </trkpt>
      <trkpt lat="48.77552" lon="5.16994">
        <ele>205</ele>
        <time>2023-01-06T09:11:17.000Z</time>
      </trkpt>
      <trkpt lat="48.77553" lon="5.16994">
        <ele>205</ele>
        <time>2023-01-06T09:11:18.000Z</time>
      </trkpt>
      <trkpt lat="48.77553" lon="5.16994">
        <ele>205</ele>
        <time>2023-01-06T09:11:19.000Z</time>
      </trkpt>
      <trkpt lat="48.77553" lon="5.16995">
        <ele>205.5</ele>
        <time>2023-01-06T09:11:20.000Z</time>
      </trkpt>
      <trkpt lat="48.77554" lon="5.16995">
        <ele>206</ele>
        <time>2023-01-06T09:11:21.000Z</time>
      </trkpt>
      <trkpt lat="48.77554" lon="5.16995">
        <ele>206</ele>
        <time>2023-01-06T09:11:22.000Z</time>
      </trkpt>
      <trkpt lat="48.77555" lon="5.16996">
        <ele>206.3</ele>
        <time>2023-01-06T09:11:23.000Z</time>
      </trkpt>
      <trkpt lat="48.77556" lon="5.16997">
        <ele>206.7</ele>
        <time>2023-01-06T09:11:24.000Z</time>
      </trkpt>
      <trkpt lat="48.77556" lon="5.16997">
        <ele>207</ele>
        <time>2023-01-06T09:11:25.000Z</time>
      </trkpt>
      <trkpt lat="48.77557" lon="5.16998">
        <ele>208</ele>
        <time>2023-01-06T09:11:26.000Z</time>
      </trkpt>
      <trkpt lat="48.77557" lon="5.16999">
        <ele>208</ele>
        <time>2023-01-06T09:11:27.000Z</time>
      </trkpt>
      <trkpt lat="48.77558" lon="5.16999">
        <ele>208</ele>
        <time>2023-01-06T09:11:28.000Z</time>
      </trkpt>
      <trkpt lat="48.77558" lon="5.17">
        <ele>208</ele>
        <time>2023-01-06T09:11:29.000Z</time>
      </trkpt>
      <trkpt lat="48.77559" lon="5.17">
        <ele>208.5</ele>
        <time>2023-01-06T09:11:30.000Z</time>
      </trkpt>
      <trkpt lat="48.77559" lon="5.17001">
        <ele>209</ele>
        <time>2023-01-06T09:11:31.000Z</time>
      </trkpt>
      <trkpt lat="48.77559" lon="5.17001">
        <ele>209</ele>
        <time>2023-01-06T09:11:32.000Z</time>
      </trkpt>
      <trkpt lat="48.7756" lon="5.17001">
        <ele>209</ele>
        <time>2023-01-06T09:11:33.000Z</time>
      </trkpt>
      <trkpt lat="48.77561" lon="5.17001">
        <ele>210</ele>
        <time>2023-01-06T09:11:34.000Z</time>
      </trkpt>
      <trkpt lat="48.77561" lon="5.17002">
        <ele>210.3</ele>
        <time>2023-01-06T09:11:35.000Z</time>
      </trkpt>
      <trkpt lat="48.77562" lon="5.17002">
        <ele>210.7</ele>
        <time>2023-01-06T09:11:36.000Z</time>
      </trkpt>
      <trkpt lat="48.77563" lon="5.17002">
        <ele>211</ele>
        <time>2023-01-06T09:11:37.000Z</time>
      </trkpt>
      <trkpt lat="48.77563" lon="5.17002">
        <ele>211</ele>
        <time>2023-01-06T09:11:38.000Z</time>
      </trkpt>
      <trkpt lat="48.77564" lon="5.17003">
        <ele>211.3</ele>
        <time>2023-01-06T09:11:39.000Z</time>
      </trkpt>
      <trkpt lat="48.77564" lon="5.17003">
        <ele>211.7</ele>
        <time>2023-01-06T09:11:40.000Z</time>
      </trkpt>
      <trkpt lat="48.77565" lon="5.17003">
        <ele>212</ele>
        <time>2023-01-06T09:11:41.000Z</time>
      </trkpt>
      <trkpt lat="48.77565" lon="5.17004">
        <ele>212</ele>
        <time>2023-01-06T09:11:42.000Z</time>
      </trkpt>
      <trkpt lat="48.77565" lon="5.17004">
        <ele>212.3</ele>
        <time>2023-01-06T09:11:43.000Z</time>
      </trkpt>
      <trkpt lat="48.77566" lon="5.17004">
        <ele>212.7</ele>
        <time>2023-01-06T09:11:44.000Z</time>
      </trkpt>
      <trkpt lat="48.77566" lon="5.17004">
        <ele>213</ele>
        <time>2023-01-06T09:11:45.000Z</time>
      </trkpt>
      <trkpt lat="48.77567" lon="5.17004">
        <ele>213.5</ele>
        <time>2023-01-06T09:11:46.000Z</time>
      </trkpt>
      <trkpt lat="48.77567" lon="5.17004">
        <ele>214</ele>
        <time>2023-01-06T09:11:47.000Z</time>
      </trkpt>
      <trkpt lat="48.77567" lon="5.17004">
        <ele>214</ele>
        <time>2023-01-06T09:11:48.000Z</time>
      </trkpt>
      <trkpt lat="48.77568" lon="5.17004">
        <ele>214.3</ele>
        <time>2023-01-06T09:11:49.000Z</time>
      </trkpt>
      <trkpt lat="48.77568" lon="5.17004">
        <ele>214.7</ele>
        <time>2023-01-06T09:11:50.000Z</time>
      </trkpt>
      <trkpt lat="48.77568" lon="5.17004">
        <ele>215</ele>
        <time>2023-01-06T09:11:51.000Z</time>
      </trkpt>
      <trkpt lat="48.77568" lon="5.17004">
        <ele>215</ele>
        <time>2023-01-06T09:11:52.000Z</time>
      </trkpt>
      <trkpt lat="48.77569" lon="5.17004">
        <ele>215</ele>
        <time>2023-01-06T09:11:53.000Z</time>
      </trkpt>
      <trkpt lat="48.77571" lon="5.17003">
        <ele>216</ele>
        <time>2023-01-06T09:11:54.000Z</time>
      </trkpt>
      <trkpt lat="48.77572" lon="5.17003">
        <ele>216.3</ele>
        <time>2023-01-06T09:11:55.000Z</time>
      </trkpt>
      <trkpt lat="48.77573" lon="5.17003">
        <ele>216.7</ele>
        <time>2023-01-06T09:11:56.000Z</time>
      </trkpt>
      <trkpt lat="48.77574" lon="5.17003">
        <ele>217</ele>
        <time>2023-01-06T09:11:57.000Z</time>
      </trkpt>
      <trkpt lat="48.77575" lon="5.17003">
        <ele>217</ele>
        <time>2023-01-06T09:11:58.000Z</time>
      </trkpt>
      <trkpt lat="48.77575" lon="5.17003">
        <ele>217.3</ele>
        <time>2023-01-06T09:11:59.000Z</time>
      </trkpt>
      <trkpt lat="48.77575" lon="5.17002">
        <ele>217.7</ele>
        <time>2023-01-06T09:12:00.000Z</time>
      </trkpt>
      <trkpt lat="48.77576" lon="5.17002">
        <ele>218</ele>
        <time>2023-01-06T09:12:01.000Z</time>
      </trkpt>
      <trkpt lat="48.77576" lon="5.17003">
        <ele>218</ele>
        <time>2023-01-06T09:12:02.000Z</time>
      </trkpt>
      <trkpt lat="48.77577" lon="5.17003">
        <ele>218.3</ele>
        <time>2023-01-06T09:12:03.000Z</time>
      </trkpt>
      <trkpt lat="48.77578" lon="5.17003">
        <ele>218.7</ele>
        <time>2023-01-06T09:12:04.000Z</time>
      </trkpt>
      <trkpt lat="48.77578" lon="5.17004">
        <ele>219</ele>
        <time>2023-01-06T09:12:05.000Z</time>
      </trkpt>
      <trkpt lat="48.77579" lon="5.17004">
        <ele>219.5</ele>
        <time>2023-01-06T09:12:06.000Z</time>
      </trkpt>
      <trkpt lat="48.77579" lon="5.17005">
        <ele>220</ele>
        <time>2023-01-06T09:12:07.000Z</time>
      </trkpt>
      <trkpt lat="48.7758" lon="5.17005">
        <ele>220</ele>
        <time>2023-01-06T09:12:08.000Z</time>
      </trkpt>
      <trkpt lat="48.77581" lon="5.17005">
        <ele>220.3</ele>
        <time>2023-01-06T09:12:09.000Z</time>
      </trkpt>
      <trkpt lat="48.77581" lon="5.17005">
        <ele>220.7</ele>
        <time>2023-01-06T09:12:10.000Z</time>
      </trkpt>
      <trkpt lat="48.77582" lon="5.17005">
        <ele>221</ele>
        <time>2023-01-06T09:12:11.000Z</time>
      </trkpt>
      <trkpt lat="48.77582" lon="5.17005">
        <ele>221.5</ele>
        <time>2023-01-06T09:12:12.000Z</time>
      </trkpt>
      <trkpt lat="48.77583" lon="5.17005">
        <ele>222</ele>
        <time>2023-01-06T09:12:13.000Z</time>
      </trkpt>
      <trkpt lat="48.77583" lon="5.17005">
        <ele>222</ele>
        <time>2023-01-06T09:12:14.000Z</time>
      </trkpt>
      <trkpt lat="48.77583" lon="5.17005">
        <ele>222.3</ele>
        <time>2023-01-06T09:12:15.000Z</time>
      </trkpt>
      <trkpt lat="48.77584" lon="5.17005">
        <ele>222.7</ele>
        <time>2023-01-06T09:12:16.000Z</time>
      </trkpt>
      <trkpt lat="48.77584" lon="5.17004">
        <ele>223</ele>
        <time>2023-01-06T09:12:17.000Z</time>
      </trkpt>
      <trkpt lat="48.77585" lon="5.17004">
        <ele>223</ele>
        <time>2023-01-06T09:12:18.000Z</time>
      </trkpt>
      <trkpt lat="48.77585" lon="5.17004">
        <ele>223.3</ele>
        <time>2023-01-06T09:12:19.000Z</time>
      </trkpt>
      <trkpt lat="48.77586" lon="5.17004">
        <ele>223.7</ele>
        <time>2023-01-06T09:12:20.000Z</time>
      </trkpt>
      <trkpt lat="48.77586" lon="5.17004">
        <ele>224</ele>
        <time>2023-01-06T09:12:21.000Z</time>
      </trkpt>
      <trkpt lat="48.77587" lon="5.17004">
        <ele>224</ele>
        <time>2023-01-06T09:12:22.000Z</time>
      </trkpt>
      <trkpt lat="48.77588" lon="5.17004">
        <ele>224</ele>
        <time>2023-01-06T09:12:23.000Z</time>
      </trkpt>
      <trkpt lat="48.77588" lon="5.17004">
        <ele>224.5</ele>
        <time>2023-01-06T09:12:24.000Z</time>
      </trkpt>
      <trkpt lat="48.77589" lon="5.17004">
        <ele>225</ele>
        <time>2023-01-06T09:12:25.000Z</time>
      </trkpt>
      <trkpt lat="48.7759" lon="5.17005">
        <ele>226</ele>
        <time>2023-01-06T09:12:26.000Z</time>
      </trkpt>
      <trkpt lat="48.7759" lon="5.17005">
        <ele>226</ele>
        <time>2023-01-06T09:12:27.000Z</time>
      </trkpt>
      <trkpt lat="48.77591" lon="5.17006">
        <ele>226</ele>
        <time>2023-01-06T09:12:28.000Z</time>
      </trkpt>
      <trkpt lat="48.77591" lon="5.17006">
        <ele>226</ele>
        <time>2023-01-06T09:12:29.000Z</time>
      </trkpt>
      <trkpt lat="48.77592" lon="5.17007">
        <ele>227</ele>
        <time>2023-01-06T09:12:30.000Z</time>
      </trkpt>
      <trkpt lat="48.77592" lon="5.17007">
        <ele>227</ele>
        <time>2023-01-06T09:12:31.000Z</time>
      </trkpt>
      <trkpt lat="48.77592" lon="5.17008">
        <ele>227</ele>
        <time>2023-01-06T09:12:32.000Z</time>
      </trkpt>
      <trkpt lat="48.77592" lon="5.17008">
        <ele>227</ele>
        <time>2023-01-06T09:12:33.000Z</time>
      </trkpt>
      <trkpt lat="48.77592" lon="5.17008">
        <ele>227.5</ele>
        <time>2023-01-06T09:12:34.000Z</time>
      </trkpt>
      <trkpt lat="48.77593" lon="5.17008">
        <ele>228</ele>
        <time>2023-01-06T09:12:35.000Z</time>
      </trkpt>
      <trkpt lat="48.77593" lon="5.17009">
        <ele>228</ele>
        <time>2023-01-06T09:12:36.000Z</time>
      </trkpt>
      <trkpt lat="48.77593" lon="5.17009">
        <ele>228.3</ele>
        <time>2023-01-06T09:12:37.000Z</time>
      </trkpt>
      <trkpt lat="48.77593" lon="5.17009">
        <ele>228.7</ele>
        <time>2023-01-06T09:12:38.000Z</time>
      </trkpt>
      <trkpt lat="48.77593" lon="5.17009">
        <ele>229</ele>
        <time>2023-01-06T09:12:39.000Z</time>
      </trkpt>
      <trkpt lat="48.77593" lon="5.17009">
        <ele>229</ele>
        <time>2023-01-06T09:12:40.000Z</time>
      </trkpt>
      <trkpt lat="48.77593" lon="5.17009">
        <ele>229</ele>
        <time>2023-01-06T09:12:41.000Z</time>
      </trkpt>
      <trkpt lat="48.77595" lon="5.1701">
        <ele>230</ele>
        <time>2023-01-06T09:12:42.000Z</time>
      </trkpt>
      <trkpt lat="48.77596" lon="5.1701">
        <ele>230.3</ele>
        <time>2023-01-06T09:12:43.000Z</time>
      </trkpt>
      <trkpt lat="48.77596" lon="5.17011">
        <ele>230.7</ele>
        <time>2023-01-06T09:12:44.000Z</time>
      </trkpt>
      <trkpt lat="48.77597" lon="5.17011">
        <ele>231</ele>
        <time>2023-01-06T09:12:45.000Z</time>
      </trkpt>
      <trkpt lat="48.77597" lon="5.17011">
        <ele>231</ele>
        <time>2023-01-06T09:12:46.000Z</time>
      </trkpt>
      <trkpt lat="48.77598" lon="5.17012">
        <ele>231.3</ele>
        <time>2023-01-06T09:12:47.000Z</time>
      </trkpt>
      <trkpt lat="48.77599" lon="5.17012">
        <ele>231.7</ele>
        <time>2023-01-06T09:12:48.000Z</time>
      </trkpt>
      <trkpt lat="48.77599" lon="5.17012">
        <ele>232</ele>
        <time>2023-01-06T09:12:49.000Z</time>
      </trkpt>
      <trkpt lat="48.776" lon="5.17012">
        <ele>232</ele>
        <time>2023-01-06T09:12:50.000Z</time>
      </trkpt>
      <trkpt lat="48.77601" lon="5.17012">
        <ele>232.3</ele>
        <time>2023-01-06T09:12:51.000Z</time>
      </trkpt>
      <trkpt lat="48.77601" lon="5.17012">
        <ele>232.7</ele>
        <time>2023-01-06T09:12:52.000Z</time>
      </trkpt>
      <trkpt lat="48.77602" lon="5.17012">
        <ele>233</ele>
        <time>2023-01-06T09:12:53.000Z</time>
      </trkpt>
      <trkpt lat="48.77602" lon="5.17012">
        <ele>233.5</ele>
        <time>2023-01-06T09:12:54.000Z</time>
      </trkpt>
      <trkpt lat="48.77603" lon="5.17012">
        <ele>234</ele>
        <time>2023-01-06T09:12:55.000Z</time>
      </trkpt>
      <trkpt lat="48.77603" lon="5.17012">
        <ele>234</ele>
        <time>2023-01-06T09:12:56.000Z</time>
      </trkpt>
      <trkpt lat="48.77604" lon="5.17012">
        <ele>234</ele>
        <time>2023-01-06T09:12:57.000Z</time>
      </trkpt>
      <trkpt lat="48.77606" lon="5.17013">
        <ele>235</ele>
        <time>2023-01-06T09:12:58.000Z</time>
      </trkpt>
      <trkpt lat="48.77607" lon="5.17013">
        <ele>235</ele>
        <time>2023-01-06T09:12:59.000Z</time>
      </trkpt>
      <trkpt lat="48.77608" lon="5.17013">
        <ele>235</ele>
        <time>2023-01-06T09:13:00.000Z</time>
      </trkpt>
      <trkpt lat="48.77609" lon="5.17013">
        <ele>235</ele>
        <time>2023-01-06T09:13:01.000Z</time>
      </trkpt>
      <trkpt lat="48.77609" lon="5.17014">
        <ele>236</ele>
        <time>2023-01-06T09:13:02.000Z</time>
      </trkpt>
      <trkpt lat="48.7761" lon="5.17014">
        <ele>236</ele>
        <time>2023-01-06T09:13:03.000Z</time>
      </trkpt>
      <trkpt lat="48.7761" lon="5.17014">
        <ele>236</ele>
        <time>2023-01-06T09:13:04.000Z</time>
      </trkpt>
      <trkpt lat="48.7761" lon="5.17014">
        <ele>236</ele>
        <time>2023-01-06T09:13:05.000Z</time>
      </trkpt>
      <trkpt lat="48.7761" lon="5.17014">
        <ele>236.5</ele>
        <time>2023-01-06T09:13:06.000Z</time>
      </trkpt>
      <trkpt lat="48.7761" lon="5.17014">
        <ele>237</ele>
        <time>2023-01-06T09:13:07.000Z</time>
      </trkpt>
      <trkpt lat="48.77611" lon="5.17015">
        <ele>237</ele>
        <time>2023-01-06T09:13:08.000Z</time>
      </trkpt>
      <trkpt lat="48.77612" lon="5.17016">
        <ele>237</ele>
        <time>2023-01-06T09:13:09.000Z</time>
      </trkpt>
      <trkpt lat="48.77613" lon="5.17017">
        <ele>238</ele>
        <time>2023-01-06T09:13:10.000Z</time>
      </trkpt>
      <trkpt lat="48.77615" lon="5.17019">
        <ele>238</ele>
        <time>2023-01-06T09:13:11.000Z</time>
      </trkpt>
      <trkpt lat="48.77615" lon="5.1702">
        <ele>238</ele>
        <time>2023-01-06T09:13:12.000Z</time>
      </trkpt>
      <trkpt lat="48.77616" lon="5.1702">
        <ele>238</ele>
        <time>2023-01-06T09:13:13.000Z</time>
      </trkpt>
      <trkpt lat="48.77616" lon="5.17021">
        <ele>238.5</ele>
        <time>2023-01-06T09:13:14.000Z</time>
      </trkpt>
      <trkpt lat="48.77617" lon="5.17022">
        <ele>239</ele>
        <time>2023-01-06T09:13:15.000Z</time>
      </trkpt>
      <trkpt lat="48.77618" lon="5.17022">
        <ele>239</ele>
        <time>2023-01-06T09:13:16.000Z</time>
      </trkpt>
      <trkpt lat="48.77619" lon="5.17022">
        <ele>239.3</ele>
        <time>2023-01-06T09:13:17.000Z</time>
      </trkpt>
      <trkpt lat="48.7762" lon="5.17023">
        <ele>239.7</ele>
        <time>2023-01-06T09:13:18.000Z</time>
      </trkpt>
      <trkpt lat="48.77621" lon="5.17023">
        <ele>240</ele>
        <time>2023-01-06T09:13:19.000Z</time>
      </trkpt>
      <trkpt lat="48.77621" lon="5.17023">
        <ele>240.5</ele>
        <time>2023-01-06T09:13:20.000Z</time>
      </trkpt>
      <trkpt lat="48.77622" lon="5.17024">
        <ele>241</ele>
        <time>2023-01-06T09:13:21.000Z</time>
      </trkpt>
      <trkpt lat="48.77623" lon="5.17024">
        <ele>241.5</ele>
        <time>2023-01-06T09:13:22.000Z</time>
      </trkpt>
      <trkpt lat="48.77623" lon="5.17024">
        <ele>242</ele>
        <time>2023-01-06T09:13:23.000Z</time>
      </trkpt>
      <trkpt lat="48.77624" lon="5.17025">
        <ele>243</ele>
        <time>2023-01-06T09:13:24.000Z</time>
      </trkpt>
      <trkpt lat="48.77625" lon="5.17025">
        <ele>243</ele>
        <time>2023-01-06T09:13:25.000Z</time>
      </trkpt>
      <trkpt lat="48.77626" lon="5.17026">
        <ele>243</ele>
        <time>2023-01-06T09:13:26.000Z</time>
      </trkpt>
      <trkpt lat="48.77627" lon="5.17026">
        <ele>243</ele>
        <time>2023-01-06T09:13:27.000Z</time>
      </trkpt>
      <trkpt lat="48.77628" lon="5.17027">
        <ele>243.5</ele>
        <time>2023-01-06T09:13:28.000Z</time>
      </trkpt>
      <trkpt lat="48.77629" lon="5.17027">
        <ele>244</ele>
        <time>2023-01-06T09:13:29.000Z</time>
      </trkpt>
      <trkpt lat="48.77631" lon="5.17027">
        <ele>244</ele>
        <time>2023-01-06T09:13:30.000Z</time>
      </trkpt>
      <trkpt lat="48.77632" lon="5.17027">
        <ele>244.3</ele>
        <time>2023-01-06T09:13:31.000Z</time>
      </trkpt>
      <trkpt lat="48.77633" lon="5.17027">
        <ele>244.7</ele>
        <time>2023-01-06T09:13:32.000Z</time>
      </trkpt>
      <trkpt lat="48.77635" lon="5.17027">
        <ele>245</ele>
        <time>2023-01-06T09:13:33.000Z</time>
      </trkpt>
      <trkpt lat="48.77635" lon="5.17027">
        <ele>245</ele>
        <time>2023-01-06T09:13:34.000Z</time>
      </trkpt>
      <trkpt lat="48.77636" lon="5.17027">
        <ele>245</ele>
        <time>2023-01-06T09:13:35.000Z</time>
      </trkpt>
      <trkpt lat="48.77637" lon="5.17027">
        <ele>245</ele>
        <time>2023-01-06T09:13:36.000Z</time>
      </trkpt>
      <trkpt lat="48.77638" lon="5.17027">
        <ele>245</ele>
        <time>2023-01-06T09:13:37.000Z</time>
      </trkpt>
      <trkpt lat="48.77638" lon="5.17028">
        <ele>245</ele>
        <time>2023-01-06T09:13:38.000Z</time>
      </trkpt>
      <trkpt lat="48.77639" lon="5.17029">
        <ele>245</ele>
        <time>2023-01-06T09:13:39.000Z</time>
      </trkpt>
      <trkpt lat="48.7764" lon="5.17031">
        <ele>245</ele>
        <time>2023-01-06T09:13:40.000Z</time>
      </trkpt>
      <trkpt lat="48.7764" lon="5.17033">
        <ele>245</ele>
        <time>2023-01-06T09:13:41.000Z</time>
      </trkpt>
      <trkpt lat="48.7764" lon="5.17035">
        <ele>245</ele>
        <time>2023-01-06T09:13:42.000Z</time>
      </trkpt>
      <trkpt lat="48.7764" lon="5.17036">
        <ele>245</ele>
        <time>2023-01-06T09:13:43.000Z</time>
      </trkpt>
      <trkpt lat="48.77639" lon="5.17038">
        <ele>245</ele>
        <time>2023-01-06T09:13:44.000Z</time>
      </trkpt>
      <trkpt lat="48.77639" lon="5.17039">
        <ele>245</ele>
        <time>2023-01-06T09:13:45.000Z</time>
      </trkpt>
      <trkpt lat="48.77639" lon="5.17041">
        <ele>245</ele>
        <time>2023-01-06T09:13:46.000Z</time>
      </trkpt>
      <trkpt lat="48.77639" lon="5.17042">
        <ele>245</ele>
        <time>2023-01-06T09:13:47.000Z</time>
      </trkpt>
      <trkpt lat="48.77639" lon="5.17043">
        <ele>245.5</ele>
        <time>2023-01-06T09:13:48.000Z</time>
      </trkpt>
      <trkpt lat="48.77639" lon="5.17044">
        <ele>246</ele>
        <time>2023-01-06T09:13:49.000Z</time>
      </trkpt>
      <trkpt lat="48.77639" lon="5.17044">
        <ele>246</ele>
        <time>2023-01-06T09:13:50.000Z</time>
      </trkpt>
      <trkpt lat="48.77639" lon="5.17044">
        <ele>246</ele>
        <time>2023-01-06T09:13:51.000Z</time>
      </trkpt>
      <trkpt lat="48.77639" lon="5.17044">
        <ele>246</ele>
        <time>2023-01-06T09:13:52.000Z</time>
      </trkpt>
      <trkpt lat="48.77639" lon="5.17044">
        <ele>246</ele>
        <time>2023-01-06T09:13:53.000Z</time>
      </trkpt>
      <trkpt lat="48.7764" lon="5.17045">
        <ele>246</ele>
        <time>2023-01-06T09:13:54.000Z</time>
      </trkpt>
      <trkpt lat="48.7764" lon="5.17045">
        <ele>246</ele>
        <time>2023-01-06T09:13:55.000Z</time>
      </trkpt>
      <trkpt lat="48.7764" lon="5.17046">
        <ele>246</ele>
        <time>2023-01-06T09:13:56.000Z</time>
      </trkpt>
      <trkpt lat="48.7764" lon="5.17047">
        <ele>246</ele>
        <time>2023-01-06T09:13:57.000Z</time>
      </trkpt>
      <trkpt lat="48.7764" lon="5.17048">
        <ele>246</ele>
        <time>2023-01-06T09:13:58.000Z</time>
      </trkpt>
      <trkpt lat="48.7764" lon="5.17049">
        <ele>246</ele>
        <time>2023-01-06T09:13:59.000Z</time>
      </trkpt>
      <trkpt lat="48.77641" lon="5.1705">
        <ele>246</ele>
        <time>2023-01-06T09:14:00.000Z</time>
      </trkpt>
      <trkpt lat="48.77641" lon="5.1705">
        <ele>246</ele>
        <time>2023-01-06T09:14:01.000Z</time>
      </trkpt>
      <trkpt lat="48.77641" lon="5.17051">
        <ele>246</ele>
        <time>2023-01-06T09:14:02.000Z</time>
      </trkpt>
      <trkpt lat="48.77641" lon="5.17051">
        <ele>246</ele>
        <time>2023-01-06T09:14:03.000Z</time>
      </trkpt>
      <trkpt lat="48.77642" lon="5.17052">
        <ele>246</ele>
        <time>2023-01-06T09:14:04.000Z</time>
      </trkpt>
      <trkpt lat="48.77642" lon="5.17054">
        <ele>246</ele>
        <time>2023-01-06T09:14:05.000Z</time>
      </trkpt>
      <trkpt lat="48.77642" lon="5.17056">
        <ele>246</ele>
        <time>2023-01-06T09:14:06.000Z</time>
      </trkpt>
      <trkpt lat="48.77643" lon="5.17059">
        <ele>246</ele>
        <time>2023-01-06T09:14:07.000Z</time>
      </trkpt>
      <trkpt lat="48.77643" lon="5.17063">
        <ele>246</ele>
        <time>2023-01-06T09:14:08.000Z</time>
      </trkpt>
      <trkpt lat="48.77644" lon="5.17065">
        <ele>246</ele>
        <time>2023-01-06T09:14:09.000Z</time>
      </trkpt>
      <trkpt lat="48.77644" lon="5.17068">
        <ele>246</ele>
        <time>2023-01-06T09:14:10.000Z</time>
      </trkpt>
      <trkpt lat="48.77645" lon="5.1707">
        <ele>246</ele>
        <time>2023-01-06T09:14:11.000Z</time>
      </trkpt>
      <trkpt lat="48.77645" lon="5.17072">
        <ele>246</ele>
        <time>2023-01-06T09:14:12.000Z</time>
      </trkpt>
      <trkpt lat="48.77645" lon="5.17074">
        <ele>246</ele>
        <time>2023-01-06T09:14:13.000Z</time>
      </trkpt>
      <trkpt lat="48.77645" lon="5.17076">
        <ele>246</ele>
        <time>2023-01-06T09:14:14.000Z</time>
      </trkpt>
      <trkpt lat="48.77645" lon="5.17078">
        <ele>246</ele>
        <time>2023-01-06T09:14:15.000Z</time>
      </trkpt>
      <trkpt lat="48.77645" lon="5.1708">
        <ele>247</ele>
        <time>2023-01-06T09:14:16.000Z</time>
      </trkpt>
      <trkpt lat="48.77646" lon="5.17081">
        <ele>247</ele>
        <time>2023-01-06T09:14:17.000Z</time>
      </trkpt>
      <trkpt lat="48.77646" lon="5.17083">
        <ele>247</ele>
        <time>2023-01-06T09:14:18.000Z</time>
      </trkpt>
      <trkpt lat="48.77647" lon="5.17083">
        <ele>247</ele>
        <time>2023-01-06T09:14:19.000Z</time>
      </trkpt>
      <trkpt lat="48.77648" lon="5.17084">
        <ele>247</ele>
        <time>2023-01-06T09:14:20.000Z</time>
      </trkpt>
      <trkpt lat="48.77649" lon="5.17084">
        <ele>247</ele>
        <time>2023-01-06T09:14:21.000Z</time>
      </trkpt>
      <trkpt lat="48.7765" lon="5.17083">
        <ele>247</ele>
        <time>2023-01-06T09:14:22.000Z</time>
      </trkpt>
      <trkpt lat="48.77651" lon="5.17083">
        <ele>247</ele>
        <time>2023-01-06T09:14:23.000Z</time>
      </trkpt>
      <trkpt lat="48.77651" lon="5.17083">
        <ele>247</ele>
        <time>2023-01-06T09:14:24.000Z</time>
      </trkpt>
      <trkpt lat="48.77652" lon="5.17084">
        <ele>247</ele>
        <time>2023-01-06T09:14:25.000Z</time>
      </trkpt>
      <trkpt lat="48.77653" lon="5.17086">
        <ele>247</ele>
        <time>2023-01-06T09:14:26.000Z</time>
      </trkpt>
      <trkpt lat="48.77654" lon="5.17087">
        <ele>247</ele>
        <time>2023-01-06T09:14:27.000Z</time>
      </trkpt>
      <trkpt lat="48.77655" lon="5.17088">
        <ele>247</ele>
        <time>2023-01-06T09:14:28.000Z</time>
      </trkpt>
      <trkpt lat="48.77655" lon="5.1709">
        <ele>247</ele>
        <time>2023-01-06T09:14:29.000Z</time>
      </trkpt>
      <trkpt lat="48.77656" lon="5.17091">
        <ele>247</ele>
        <time>2023-01-06T09:14:30.000Z</time>
      </trkpt>
      <trkpt lat="48.77656" lon="5.17092">
        <ele>247</ele>
        <time>2023-01-06T09:14:31.000Z</time>
      </trkpt>
      <trkpt lat="48.77657" lon="5.17094">
        <ele>247</ele>
        <time>2023-01-06T09:14:32.000Z</time>
      </trkpt>
      <trkpt lat="48.77658" lon="5.17095">
        <ele>247</ele>
        <time>2023-01-06T09:14:33.000Z</time>
      </trkpt>
      <trkpt lat="48.77659" lon="5.17097">
        <ele>247</ele>
        <time>2023-01-06T09:14:34.000Z</time>
      </trkpt>
      <trkpt lat="48.77661" lon="5.17099">
        <ele>247.3</ele>
        <time>2023-01-06T09:14:35.000Z</time>
      </trkpt>
      <trkpt lat="48.77663" lon="5.17101">
        <ele>247.7</ele>
        <time>2023-01-06T09:14:36.000Z</time>
      </trkpt>
      <trkpt lat="48.77665" lon="5.17102">
        <ele>248</ele>
        <time>2023-01-06T09:14:37.000Z</time>
      </trkpt>
      <trkpt lat="48.77666" lon="5.17104">
        <ele>248</ele>
        <time>2023-01-06T09:14:38.000Z</time>
      </trkpt>
      <trkpt lat="48.77667" lon="5.17106">
        <ele>248</ele>
        <time>2023-01-06T09:14:39.000Z</time>
      </trkpt>
      <trkpt lat="48.77668" lon="5.17108">
        <ele>248</ele>
        <time>2023-01-06T09:14:40.000Z</time>
      </trkpt>
      <trkpt lat="48.7767" lon="5.1711">
        <ele>248</ele>
        <time>2023-01-06T09:14:41.000Z</time>
      </trkpt>
      <trkpt lat="48.77671" lon="5.17112">
        <ele>248</ele>
        <time>2023-01-06T09:14:42.000Z</time>
      </trkpt>
      <trkpt lat="48.77671" lon="5.17114">
        <ele>248</ele>
        <time>2023-01-06T09:14:43.000Z</time>
      </trkpt>
      <trkpt lat="48.77673" lon="5.17116">
        <ele>248</ele>
        <time>2023-01-06T09:14:44.000Z</time>
      </trkpt>
      <trkpt lat="48.77674" lon="5.17117">
        <ele>248</ele>
        <time>2023-01-06T09:14:45.000Z</time>
      </trkpt>
      <trkpt lat="48.77675" lon="5.17119">
        <ele>249</ele>
        <time>2023-01-06T09:14:46.000Z</time>
      </trkpt>
      <trkpt lat="48.77676" lon="5.1712">
        <ele>249</ele>
        <time>2023-01-06T09:14:47.000Z</time>
      </trkpt>
      <trkpt lat="48.77677" lon="5.17122">
        <ele>249</ele>
        <time>2023-01-06T09:14:48.000Z</time>
      </trkpt>
      <trkpt lat="48.77678" lon="5.17123">
        <ele>249</ele>
        <time>2023-01-06T09:14:49.000Z</time>
      </trkpt>
      <trkpt lat="48.77679" lon="5.17125">
        <ele>249</ele>
        <time>2023-01-06T09:14:50.000Z</time>
      </trkpt>
      <trkpt lat="48.7768" lon="5.17126">
        <ele>249</ele>
        <time>2023-01-06T09:14:51.000Z</time>
      </trkpt>
      <trkpt lat="48.77681" lon="5.17128">
        <ele>249</ele>
        <time>2023-01-06T09:14:52.000Z</time>
      </trkpt>
      <trkpt lat="48.77683" lon="5.17129">
        <ele>249.3</ele>
        <time>2023-01-06T09:14:53.000Z</time>
      </trkpt>
      <trkpt lat="48.77684" lon="5.17131">
        <ele>249.7</ele>
        <time>2023-01-06T09:14:54.000Z</time>
      </trkpt>
      <trkpt lat="48.77685" lon="5.17132">
        <ele>250</ele>
        <time>2023-01-06T09:14:55.000Z</time>
      </trkpt>
      <trkpt lat="48.77686" lon="5.17133">
        <ele>250</ele>
        <time>2023-01-06T09:14:56.000Z</time>
      </trkpt>
      <trkpt lat="48.77687" lon="5.17134">
        <ele>250</ele>
        <time>2023-01-06T09:14:57.000Z</time>
      </trkpt>
      <trkpt lat="48.77689" lon="5.17136">
        <ele>250</ele>
        <time>2023-01-06T09:14:58.000Z</time>
      </trkpt>
      <trkpt lat="48.7769" lon="5.17136">
        <ele>250</ele>
        <time>2023-01-06T09:14:59.000Z</time>
      </trkpt>
      <trkpt lat="48.77691" lon="5.17137">
        <ele>250</ele>
        <time>2023-01-06T09:15:00.000Z</time>
      </trkpt>
      <trkpt lat="48.77693" lon="5.17138">
        <ele>250</ele>
        <time>2023-01-06T09:15:01.000Z</time>
      </trkpt>
      <trkpt lat="48.77694" lon="5.17139">
        <ele>250</ele>
        <time>2023-01-06T09:15:02.000Z</time>
      </trkpt>
      <trkpt lat="48.77695" lon="5.1714">
        <ele>250</ele>
        <time>2023-01-06T09:15:03.000Z</time>
      </trkpt>
      <trkpt lat="48.77696" lon="5.17142">
        <ele>250</ele>
        <time>2023-01-06T09:15:04.000Z</time>
      </trkpt>
      <trkpt lat="48.77697" lon="5.17143">
        <ele>250.3</ele>
        <time>2023-01-06T09:15:05.000Z</time>
      </trkpt>
      <trkpt lat="48.77698" lon="5.17144">
        <ele>250.7</ele>
        <time>2023-01-06T09:15:06.000Z</time>
      </trkpt>
      <trkpt lat="48.77699" lon="5.17146">
        <ele>251</ele>
        <time>2023-01-06T09:15:07.000Z</time>
      </trkpt>
      <trkpt lat="48.77701" lon="5.17147">
        <ele>251</ele>
        <time>2023-01-06T09:15:08.000Z</time>
      </trkpt>
      <trkpt lat="48.77702" lon="5.17149">
        <ele>251</ele>
        <time>2023-01-06T09:15:09.000Z</time>
      </trkpt>
      <trkpt lat="48.77702" lon="5.17149">
        <ele>251</ele>
        <time>2023-01-06T09:15:10.000Z</time>
      </trkpt>
      <trkpt lat="48.77703" lon="5.1715">
        <ele>251</ele>
        <time>2023-01-06T09:15:11.000Z</time>
      </trkpt>
      <trkpt lat="48.77704" lon="5.17151">
        <ele>251</ele>
        <time>2023-01-06T09:15:12.000Z</time>
      </trkpt>
      <trkpt lat="48.77704" lon="5.17151">
        <ele>251</ele>
        <time>2023-01-06T09:15:13.000Z</time>
      </trkpt>
      <trkpt lat="48.77705" lon="5.17152">
        <ele>251</ele>
        <time>2023-01-06T09:15:14.000Z</time>
      </trkpt>
      <trkpt lat="48.77705" lon="5.17152">
        <ele>251</ele>
        <time>2023-01-06T09:15:15.000Z</time>
      </trkpt>
      <trkpt lat="48.77706" lon="5.17153">
        <ele>251.5</ele>
        <time>2023-01-06T09:15:16.000Z</time>
      </trkpt>
      <trkpt lat="48.77706" lon="5.17154">
        <ele>252</ele>
        <time>2023-01-06T09:15:17.000Z</time>
      </trkpt>
      <trkpt lat="48.77707" lon="5.17154">
        <ele>252</ele>
        <time>2023-01-06T09:15:18.000Z</time>
      </trkpt>
      <trkpt lat="48.77708" lon="5.17155">
        <ele>252</ele>
        <time>2023-01-06T09:15:19.000Z</time>
      </trkpt>
      <trkpt lat="48.77709" lon="5.17156">
        <ele>252</ele>
        <time>2023-01-06T09:15:20.000Z</time>
      </trkpt>
      <trkpt lat="48.77711" lon="5.17158">
        <ele>252</ele>
        <time>2023-01-06T09:15:21.000Z</time>
      </trkpt>
      <trkpt lat="48.77712" lon="5.17159">
        <ele>252</ele>
        <time>2023-01-06T09:15:22.000Z</time>
      </trkpt>
      <trkpt lat="48.77714" lon="5.17161">
        <ele>252</ele>
        <time>2023-01-06T09:15:23.000Z</time>
      </trkpt>
      <trkpt lat="48.77715" lon="5.17162">
        <ele>252</ele>
        <time>2023-01-06T09:15:24.000Z</time>
      </trkpt>
      <trkpt lat="48.77716" lon="5.17163">
        <ele>252</ele>
        <time>2023-01-06T09:15:25.000Z</time>
      </trkpt>
      <trkpt lat="48.77718" lon="5.17165">
        <ele>252</ele>
        <time>2023-01-06T09:15:26.000Z</time>
      </trkpt>
      <trkpt lat="48.77719" lon="5.17167">
        <ele>252</ele>
        <time>2023-01-06T09:15:27.000Z</time>
      </trkpt>
      <trkpt lat="48.7772" lon="5.1717">
        <ele>252</ele>
        <time>2023-01-06T09:15:28.000Z</time>
      </trkpt>
      <trkpt lat="48.77721" lon="5.17172">
        <ele>252.3</ele>
        <time>2023-01-06T09:15:29.000Z</time>
      </trkpt>
      <trkpt lat="48.77722" lon="5.17174">
        <ele>252.7</ele>
        <time>2023-01-06T09:15:30.000Z</time>
      </trkpt>
      <trkpt lat="48.77723" lon="5.17177">
        <ele>253</ele>
        <time>2023-01-06T09:15:31.000Z</time>
      </trkpt>
      <trkpt lat="48.77725" lon="5.17179">
        <ele>253</ele>
        <time>2023-01-06T09:15:32.000Z</time>
      </trkpt>
      <trkpt lat="48.77726" lon="5.17181">
        <ele>253</ele>
        <time>2023-01-06T09:15:33.000Z</time>
      </trkpt>
      <trkpt lat="48.77728" lon="5.17183">
        <ele>253</ele>
        <time>2023-01-06T09:15:34.000Z</time>
      </trkpt>
      <trkpt lat="48.77729" lon="5.17184">
        <ele>253</ele>
        <time>2023-01-06T09:15:35.000Z</time>
      </trkpt>
      <trkpt lat="48.7773" lon="5.17186">
        <ele>253</ele>
        <time>2023-01-06T09:15:36.000Z</time>
      </trkpt>
      <trkpt lat="48.77731" lon="5.17188">
        <ele>253</ele>
        <time>2023-01-06T09:15:37.000Z</time>
      </trkpt>
      <trkpt lat="48.77732" lon="5.1719">
        <ele>253</ele>
        <time>2023-01-06T09:15:38.000Z</time>
      </trkpt>
      <trkpt lat="48.77733" lon="5.17192">
        <ele>253</ele>
        <time>2023-01-06T09:15:39.000Z</time>
      </trkpt>
      <trkpt lat="48.77735" lon="5.17194">
        <ele>254</ele>
        <time>2023-01-06T09:15:40.000Z</time>
      </trkpt>
      <trkpt lat="48.77736" lon="5.17195">
        <ele>254</ele>
        <time>2023-01-06T09:15:41.000Z</time>
      </trkpt>
      <trkpt lat="48.77737" lon="5.17197">
        <ele>254</ele>
        <time>2023-01-06T09:15:42.000Z</time>
      </trkpt>
      <trkpt lat="48.77739" lon="5.17199">
        <ele>254</ele>
        <time>2023-01-06T09:15:43.000Z</time>
      </trkpt>
      <trkpt lat="48.7774" lon="5.172">
        <ele>254</ele>
        <time>2023-01-06T09:15:44.000Z</time>
      </trkpt>
      <trkpt lat="48.77741" lon="5.17202">
        <ele>254</ele>
        <time>2023-01-06T09:15:45.000Z</time>
      </trkpt>
      <trkpt lat="48.77743" lon="5.17204">
        <ele>254</ele>
        <time>2023-01-06T09:15:46.000Z</time>
      </trkpt>
      <trkpt lat="48.77744" lon="5.17205">
        <ele>254</ele>
        <time>2023-01-06T09:15:47.000Z</time>
      </trkpt>
      <trkpt lat="48.77745" lon="5.17207">
        <ele>254</ele>
        <time>2023-01-06T09:15:48.000Z</time>
      </trkpt>
      <trkpt lat="48.77746" lon="5.17209">
        <ele>254</ele>
        <time>2023-01-06T09:15:49.000Z</time>
      </trkpt>
      <trkpt lat="48.77748" lon="5.17211">
        <ele>254</ele>
        <time>2023-01-06T09:15:50.000Z</time>
      </trkpt>
      <trkpt lat="48.77748" lon="5.17213">
        <ele>254</ele>
        <time>2023-01-06T09:15:51.000Z</time>
      </trkpt>
      <trkpt lat="48.77749" lon="5.17214">
        <ele>254</ele>
        <time>2023-01-06T09:15:52.000Z</time>
      </trkpt>
      <trkpt lat="48.7775" lon="5.17216">
        <ele>254</ele>
        <time>2023-01-06T09:15:53.000Z</time>
      </trkpt>
      <trkpt lat="48.77751" lon="5.17217">
        <ele>254.5</ele>
        <time>2023-01-06T09:15:54.000Z</time>
      </trkpt>
      <trkpt lat="48.77752" lon="5.17219">
        <ele>255</ele>
        <time>2023-01-06T09:15:55.000Z</time>
      </trkpt>
      <trkpt lat="48.77753" lon="5.1722">
        <ele>255</ele>
        <time>2023-01-06T09:15:56.000Z</time>
      </trkpt>
      <trkpt lat="48.77754" lon="5.17221">
        <ele>255</ele>
        <time>2023-01-06T09:15:57.000Z</time>
      </trkpt>
      <trkpt lat="48.77755" lon="5.17221">
        <ele>255</ele>
        <time>2023-01-06T09:15:58.000Z</time>
      </trkpt>
      <trkpt lat="48.77756" lon="5.17221">
        <ele>255</ele>
        <time>2023-01-06T09:15:59.000Z</time>
      </trkpt>
      <trkpt lat="48.77757" lon="5.17221">
        <ele>255</ele>
        <time>2023-01-06T09:16:00.000Z</time>
      </trkpt>
      <trkpt lat="48.77757" lon="5.17222">
        <ele>255</ele>
        <time>2023-01-06T09:16:01.000Z</time>
      </trkpt>
      <trkpt lat="48.77757" lon="5.17222">
        <ele>255</ele>
        <time>2023-01-06T09:16:02.000Z</time>
      </trkpt>
      <trkpt lat="48.77758" lon="5.17222">
        <ele>255</ele>
        <time>2023-01-06T09:16:03.000Z</time>
      </trkpt>
      <trkpt lat="48.77758" lon="5.17222">
        <ele>255</ele>
        <time>2023-01-06T09:16:04.000Z</time>
      </trkpt>
      <trkpt lat="48.77759" lon="5.17222">
        <ele>255</ele>
        <time>2023-01-06T09:16:05.000Z</time>
      </trkpt>
      <trkpt lat="48.77759" lon="5.17223">
        <ele>255</ele>
        <time>2023-01-06T09:16:06.000Z</time>
      </trkpt>
      <trkpt lat="48.77759" lon="5.17223">
        <ele>255</ele>
        <time>2023-01-06T09:16:07.000Z</time>
      </trkpt>
      <trkpt lat="48.7776" lon="5.17223">
        <ele>255</ele>
        <time>2023-01-06T09:16:08.000Z</time>
      </trkpt>
      <trkpt lat="48.7776" lon="5.17223">
        <ele>255</ele>
        <time>2023-01-06T09:16:09.000Z</time>
      </trkpt>
      <trkpt lat="48.7776" lon="5.17224">
        <ele>255</ele>
        <time>2023-01-06T09:16:10.000Z</time>
      </trkpt>
      <trkpt lat="48.77761" lon="5.17224">
        <ele>255</ele>
        <time>2023-01-06T09:16:11.000Z</time>
      </trkpt>
      <trkpt lat="48.77761" lon="5.17225">
        <ele>255</ele>
        <time>2023-01-06T09:16:12.000Z</time>
      </trkpt>
      <trkpt lat="48.7776" lon="5.17226">
        <ele>255</ele>
        <time>2023-01-06T09:16:13.000Z</time>
      </trkpt>
      <trkpt lat="48.7776" lon="5.17227">
        <ele>255</ele>
        <time>2023-01-06T09:16:14.000Z</time>
      </trkpt>
      <trkpt lat="48.7776" lon="5.17228">
        <ele>255</ele>
        <time>2023-01-06T09:16:15.000Z</time>
      </trkpt>
      <trkpt lat="48.7776" lon="5.17229">
        <ele>255</ele>
        <time>2023-01-06T09:16:16.000Z</time>
      </trkpt>
      <trkpt lat="48.7776" lon="5.1723">
        <ele>255</ele>
        <time>2023-01-06T09:16:17.000Z</time>
      </trkpt>
      <trkpt lat="48.7776" lon="5.1723">
        <ele>255</ele>
        <time>2023-01-06T09:16:18.000Z</time>
      </trkpt>
      <trkpt lat="48.7776" lon="5.17231">
        <ele>255</ele>
        <time>2023-01-06T09:16:19.000Z</time>
      </trkpt>
      <trkpt lat="48.7776" lon="5.17231">
        <ele>254</ele>
        <time>2023-01-06T09:16:20.000Z</time>
      </trkpt>
      <trkpt lat="48.7776" lon="5.17231">
        <ele>254</ele>
        <time>2023-01-06T09:16:21.000Z</time>
      </trkpt>
      <trkpt lat="48.7776" lon="5.17232">
        <ele>254</ele>
        <time>2023-01-06T09:16:22.000Z</time>
      </trkpt>
      <trkpt lat="48.7776" lon="5.17232">
        <ele>254</ele>
        <time>2023-01-06T09:16:23.000Z</time>
      </trkpt>
      <trkpt lat="48.7776" lon="5.17232">
        <ele>254</ele>
        <time>2023-01-06T09:16:24.000Z</time>
      </trkpt>
      <trkpt lat="48.77761" lon="5.17232">
        <ele>254</ele>
        <time>2023-01-06T09:16:25.000Z</time>
      </trkpt>
      <trkpt lat="48.77761" lon="5.17233">
        <ele>254</ele>
        <time>2023-01-06T09:16:26.000Z</time>
      </trkpt>
      <trkpt lat="48.77761" lon="5.17233">
        <ele>254</ele>
        <time>2023-01-06T09:16:27.000Z</time>
      </trkpt>
      <trkpt lat="48.77761" lon="5.17233">
        <ele>254</ele>
        <time>2023-01-06T09:16:28.000Z</time>
      </trkpt>
      <trkpt lat="48.77761" lon="5.17233">
        <ele>254</ele>
        <time>2023-01-06T09:16:29.000Z</time>
      </trkpt>
      <trkpt lat="48.77761" lon="5.17233">
        <ele>254</ele>
        <time>2023-01-06T09:16:30.000Z</time>
      </trkpt>
      <trkpt lat="48.77761" lon="5.17233">
        <ele>254</ele>
        <time>2023-01-06T09:16:31.000Z</time>
      </trkpt>
      <trkpt lat="48.77761" lon="5.17233">
        <ele>254</ele>
        <time>2023-01-06T09:16:32.000Z</time>
      </trkpt>
      <trkpt lat="48.77761" lon="5.17233">
        <ele>254</ele>
        <time>2023-01-06T09:16:33.000Z</time>
      </trkpt>
      <trkpt lat="48.77761" lon="5.17233">
        <ele>254</ele>
        <time>2023-01-06T09:16:34.000Z</time>
      </trkpt>
      <trkpt lat="48.77761" lon="5.17233">
        <ele>254</ele>
        <time>2023-01-06T09:16:35.000Z</time>
      </trkpt>
      <trkpt lat="48.77761" lon="5.17233">
        <ele>254</ele>
        <time>2023-01-06T09:16:36.000Z</time>
      </trkpt>
      <trkpt lat="48.77761" lon="5.17233">
        <ele>254</ele>
        <time>2023-01-06T09:16:37.000Z</time>
      </trkpt>
      <trkpt lat="48.77761" lon="5.17233">
        <ele>254</ele>
        <time>2023-01-06T09:16:38.000Z</time>
      </trkpt>
      <trkpt lat="48.77761" lon="5.17233">
        <ele>254</ele>
        <time>2023-01-06T09:16:39.000Z</time>
      </trkpt>
      <trkpt lat="48.77761" lon="5.17233">
        <ele>254</ele>
        <time>2023-01-06T09:16:40.000Z</time>
      </trkpt>
      <trkpt lat="48.77761" lon="5.17233">
        <ele>254</ele>
        <time>2023-01-06T09:16:41.000Z</time>
      </trkpt>
      <trkpt lat="48.77761" lon="5.17233">
        <ele>254</ele>
        <time>2023-01-06T09:16:42.000Z</time>
      </trkpt>
      <trkpt lat="48.77761" lon="5.17233">
        <ele>254</ele>
        <time>2023-01-06T09:16:43.000Z</time>
      </trkpt>
      <trkpt lat="48.77761" lon="5.17232">
        <ele>254</ele>
        <time>2023-01-06T09:16:44.000Z</time>
      </trkpt>
      <trkpt lat="48.77761" lon="5.17232">
        <ele>254</ele>
        <time>2023-01-06T09:16:45.000Z</time>
      </trkpt>
      <trkpt lat="48.77761" lon="5.17232">
        <ele>254</ele>
        <time>2023-01-06T09:16:46.000Z</time>
      </trkpt>
      <trkpt lat="48.77762" lon="5.17233">
        <ele>253.7</ele>
        <time>2023-01-06T09:16:47.000Z</time>
      </trkpt>
      <trkpt lat="48.77762" lon="5.17233">
        <ele>253.3</ele>
        <time>2023-01-06T09:16:48.000Z</time>
      </trkpt>
      <trkpt lat="48.77762" lon="5.17234">
        <ele>253</ele>
        <time>2023-01-06T09:16:49.000Z</time>
      </trkpt>
      <trkpt lat="48.77763" lon="5.17235">
        <ele>253</ele>
        <time>2023-01-06T09:16:50.000Z</time>
      </trkpt>
      <trkpt lat="48.77764" lon="5.17237">
        <ele>253</ele>
        <time>2023-01-06T09:16:51.000Z</time>
      </trkpt>
      <trkpt lat="48.77765" lon="5.17238">
        <ele>253</ele>
        <time>2023-01-06T09:16:52.000Z</time>
      </trkpt>
      <trkpt lat="48.77766" lon="5.1724">
        <ele>253</ele>
        <time>2023-01-06T09:16:53.000Z</time>
      </trkpt>
      <trkpt lat="48.77767" lon="5.17241">
        <ele>253</ele>
        <time>2023-01-06T09:16:54.000Z</time>
      </trkpt>
      <trkpt lat="48.77768" lon="5.17242">
        <ele>253</ele>
        <time>2023-01-06T09:16:55.000Z</time>
      </trkpt>
      <trkpt lat="48.77769" lon="5.17244">
        <ele>253</ele>
        <time>2023-01-06T09:16:56.000Z</time>
      </trkpt>
      <trkpt lat="48.7777" lon="5.17245">
        <ele>253</ele>
        <time>2023-01-06T09:16:57.000Z</time>
      </trkpt>
      <trkpt lat="48.77771" lon="5.17246">
        <ele>253</ele>
        <time>2023-01-06T09:16:58.000Z</time>
      </trkpt>
      <trkpt lat="48.77772" lon="5.17247">
        <ele>253</ele>
        <time>2023-01-06T09:16:59.000Z</time>
      </trkpt>
      <trkpt lat="48.77773" lon="5.17248">
        <ele>253</ele>
        <time>2023-01-06T09:17:00.000Z</time>
      </trkpt>
      <trkpt lat="48.77774" lon="5.17249">
        <ele>253</ele>
        <time>2023-01-06T09:17:01.000Z</time>
      </trkpt>
      <trkpt lat="48.77775" lon="5.1725">
        <ele>253</ele>
        <time>2023-01-06T09:17:02.000Z</time>
      </trkpt>
      <trkpt lat="48.77777" lon="5.17251">
        <ele>253.3</ele>
        <time>2023-01-06T09:17:03.000Z</time>
      </trkpt>
      <trkpt lat="48.77778" lon="5.17252">
        <ele>253.7</ele>
        <time>2023-01-06T09:17:04.000Z</time>
      </trkpt>
      <trkpt lat="48.77779" lon="5.17253">
        <ele>254</ele>
        <time>2023-01-06T09:17:05.000Z</time>
      </trkpt>
      <trkpt lat="48.7778" lon="5.17254">
        <ele>254</ele>
        <time>2023-01-06T09:17:06.000Z</time>
      </trkpt>
      <trkpt lat="48.77781" lon="5.17255">
        <ele>254</ele>
        <time>2023-01-06T09:17:07.000Z</time>
      </trkpt>
      <trkpt lat="48.77782" lon="5.17256">
        <ele>254</ele>
        <time>2023-01-06T09:17:08.000Z</time>
      </trkpt>
      <trkpt lat="48.77783" lon="5.17256">
        <ele>254</ele>
        <time>2023-01-06T09:17:09.000Z</time>
      </trkpt>
      <trkpt lat="48.77784" lon="5.17257">
        <ele>254</ele>
        <time>2023-01-06T09:17:10.000Z</time>
      </trkpt>
      <trkpt lat="48.77785" lon="5.17258">
        <ele>254</ele>
        <time>2023-01-06T09:17:11.000Z</time>
      </trkpt>
      <trkpt lat="48.77786" lon="5.17258">
        <ele>254</ele>
        <time>2023-01-06T09:17:12.000Z</time>
      </trkpt>
      <trkpt lat="48.77787" lon="5.17259">
        <ele>254</ele>
        <time>2023-01-06T09:17:13.000Z</time>
      </trkpt>
      <trkpt lat="48.77788" lon="5.1726">
        <ele>254</ele>
        <time>2023-01-06T09:17:14.000Z</time>
      </trkpt>
      <trkpt lat="48.77789" lon="5.1726">
        <ele>254</ele>
        <time>2023-01-06T09:17:15.000Z</time>
      </trkpt>
      <trkpt lat="48.7779" lon="5.17261">
        <ele>254</ele>
        <time>2023-01-06T09:17:16.000Z</time>
      </trkpt>
      <trkpt lat="48.77791" lon="5.17262">
        <ele>254</ele>
        <time>2023-01-06T09:17:17.000Z</time>
      </trkpt>
      <trkpt lat="48.77792" lon="5.17264">
        <ele>254.5</ele>
        <time>2023-01-06T09:17:18.000Z</time>
      </trkpt>
      <trkpt lat="48.77794" lon="5.17266">
        <ele>255</ele>
        <time>2023-01-06T09:17:19.000Z</time>
      </trkpt>
      <trkpt lat="48.77795" lon="5.17268">
        <ele>255</ele>
        <time>2023-01-06T09:17:20.000Z</time>
      </trkpt>
      <trkpt lat="48.77796" lon="5.17269">
        <ele>255</ele>
        <time>2023-01-06T09:17:21.000Z</time>
      </trkpt>
      <trkpt lat="48.77798" lon="5.1727">
        <ele>255</ele>
        <time>2023-01-06T09:17:22.000Z</time>
      </trkpt>
      <trkpt lat="48.77799" lon="5.17271">
        <ele>255</ele>
        <time>2023-01-06T09:17:23.000Z</time>
      </trkpt>
      <trkpt lat="48.77799" lon="5.17272">
        <ele>255</ele>
        <time>2023-01-06T09:17:24.000Z</time>
      </trkpt>
      <trkpt lat="48.778" lon="5.17273">
        <ele>255</ele>
        <time>2023-01-06T09:17:25.000Z</time>
      </trkpt>
      <trkpt lat="48.77801" lon="5.17274">
        <ele>255</ele>
        <time>2023-01-06T09:17:26.000Z</time>
      </trkpt>
      <trkpt lat="48.77803" lon="5.17275">
        <ele>255</ele>
        <time>2023-01-06T09:17:27.000Z</time>
      </trkpt>
      <trkpt lat="48.77804" lon="5.17277">
        <ele>255</ele>
        <time>2023-01-06T09:17:28.000Z</time>
      </trkpt>
      <trkpt lat="48.77805" lon="5.17278">
        <ele>255.3</ele>
        <time>2023-01-06T09:17:29.000Z</time>
      </trkpt>
      <trkpt lat="48.77807" lon="5.17279">
        <ele>255.7</ele>
        <time>2023-01-06T09:17:30.000Z</time>
      </trkpt>
      <trkpt lat="48.77808" lon="5.1728">
        <ele>256</ele>
        <time>2023-01-06T09:17:31.000Z</time>
      </trkpt>
      <trkpt lat="48.77809" lon="5.17282">
        <ele>256</ele>
        <time>2023-01-06T09:17:32.000Z</time>
      </trkpt>
      <trkpt lat="48.77811" lon="5.17283">
        <ele>256</ele>
        <time>2023-01-06T09:17:33.000Z</time>
      </trkpt>
      <trkpt lat="48.77813" lon="5.17285">
        <ele>256</ele>
        <time>2023-01-06T09:17:34.000Z</time>
      </trkpt>
      <trkpt lat="48.77815" lon="5.17286">
        <ele>256</ele>
        <time>2023-01-06T09:17:35.000Z</time>
      </trkpt>
      <trkpt lat="48.77816" lon="5.17288">
        <ele>256</ele>
        <time>2023-01-06T09:17:36.000Z</time>
      </trkpt>
      <trkpt lat="48.77818" lon="5.17289">
        <ele>256</ele>
        <time>2023-01-06T09:17:37.000Z</time>
      </trkpt>
      <trkpt lat="48.77819" lon="5.1729">
        <ele>257</ele>
        <time>2023-01-06T09:17:38.000Z</time>
      </trkpt>
      <trkpt lat="48.7782" lon="5.17291">
        <ele>257</ele>
        <time>2023-01-06T09:17:39.000Z</time>
      </trkpt>
      <trkpt lat="48.77821" lon="5.17292">
        <ele>257</ele>
        <time>2023-01-06T09:17:40.000Z</time>
      </trkpt>
      <trkpt lat="48.77822" lon="5.17293">
        <ele>257</ele>
        <time>2023-01-06T09:17:41.000Z</time>
      </trkpt>
      <trkpt lat="48.77824" lon="5.17294">
        <ele>257</ele>
        <time>2023-01-06T09:17:42.000Z</time>
      </trkpt>
      <trkpt lat="48.77825" lon="5.17296">
        <ele>257</ele>
        <time>2023-01-06T09:17:43.000Z</time>
      </trkpt>
      <trkpt lat="48.77827" lon="5.17297">
        <ele>257</ele>
        <time>2023-01-06T09:17:44.000Z</time>
      </trkpt>
      <trkpt lat="48.77829" lon="5.17298">
        <ele>257</ele>
        <time>2023-01-06T09:17:45.000Z</time>
      </trkpt>
      <trkpt lat="48.7783" lon="5.17299">
        <ele>257</ele>
        <time>2023-01-06T09:17:46.000Z</time>
      </trkpt>
      <trkpt lat="48.77831" lon="5.173">
        <ele>257</ele>
        <time>2023-01-06T09:17:47.000Z</time>
      </trkpt>
      <trkpt lat="48.77832" lon="5.17301">
        <ele>257.5</ele>
        <time>2023-01-06T09:17:48.000Z</time>
      </trkpt>
      <trkpt lat="48.77833" lon="5.17302">
        <ele>258</ele>
        <time>2023-01-06T09:17:49.000Z</time>
      </trkpt>
      <trkpt lat="48.77835" lon="5.17303">
        <ele>258</ele>
        <time>2023-01-06T09:17:50.000Z</time>
      </trkpt>
      <trkpt lat="48.77836" lon="5.17304">
        <ele>258</ele>
        <time>2023-01-06T09:17:51.000Z</time>
      </trkpt>
      <trkpt lat="48.77837" lon="5.17305">
        <ele>258</ele>
        <time>2023-01-06T09:17:52.000Z</time>
      </trkpt>
      <trkpt lat="48.77839" lon="5.17305">
        <ele>258</ele>
        <time>2023-01-06T09:17:53.000Z</time>
      </trkpt>
      <trkpt lat="48.77841" lon="5.17306">
        <ele>258</ele>
        <time>2023-01-06T09:17:54.000Z</time>
      </trkpt>
      <trkpt lat="48.77842" lon="5.17307">
        <ele>258</ele>
        <time>2023-01-06T09:17:55.000Z</time>
      </trkpt>
      <trkpt lat="48.77844" lon="5.17308">
        <ele>258</ele>
        <time>2023-01-06T09:17:56.000Z</time>
      </trkpt>
      <trkpt lat="48.77845" lon="5.1731">
        <ele>258</ele>
        <time>2023-01-06T09:17:57.000Z</time>
      </trkpt>
      <trkpt lat="48.77846" lon="5.17311">
        <ele>258</ele>
        <time>2023-01-06T09:17:58.000Z</time>
      </trkpt>
      <trkpt lat="48.77846" lon="5.17312">
        <ele>258</ele>
        <time>2023-01-06T09:17:59.000Z</time>
      </trkpt>
      <trkpt lat="48.77847" lon="5.17313">
        <ele>259</ele>
        <time>2023-01-06T09:18:00.000Z</time>
      </trkpt>
      <trkpt lat="48.77848" lon="5.17314">
        <ele>259</ele>
        <time>2023-01-06T09:18:01.000Z</time>
      </trkpt>
      <trkpt lat="48.77849" lon="5.17314">
        <ele>259</ele>
        <time>2023-01-06T09:18:02.000Z</time>
      </trkpt>
      <trkpt lat="48.77851" lon="5.17314">
        <ele>259</ele>
        <time>2023-01-06T09:18:03.000Z</time>
      </trkpt>
      <trkpt lat="48.77852" lon="5.17314">
        <ele>259</ele>
        <time>2023-01-06T09:18:04.000Z</time>
      </trkpt>
      <trkpt lat="48.77853" lon="5.17314">
        <ele>259.3</ele>
        <time>2023-01-06T09:18:05.000Z</time>
      </trkpt>
      <trkpt lat="48.77855" lon="5.17314">
        <ele>259.7</ele>
        <time>2023-01-06T09:18:06.000Z</time>
      </trkpt>
      <trkpt lat="48.77856" lon="5.17314">
        <ele>260</ele>
        <time>2023-01-06T09:18:07.000Z</time>
      </trkpt>
      <trkpt lat="48.77856" lon="5.17314">
        <ele>260</ele>
        <time>2023-01-06T09:18:08.000Z</time>
      </trkpt>
      <trkpt lat="48.77857" lon="5.17314">
        <ele>260</ele>
        <time>2023-01-06T09:18:09.000Z</time>
      </trkpt>
      <trkpt lat="48.77858" lon="5.17314">
        <ele>260</ele>
        <time>2023-01-06T09:18:10.000Z</time>
      </trkpt>
      <trkpt lat="48.77859" lon="5.17314">
        <ele>260</ele>
        <time>2023-01-06T09:18:11.000Z</time>
      </trkpt>
      <trkpt lat="48.7786" lon="5.17315">
        <ele>260</ele>
        <time>2023-01-06T09:18:12.000Z</time>
      </trkpt>
      <trkpt lat="48.77861" lon="5.17314">
        <ele>260</ele>
        <time>2023-01-06T09:18:13.000Z</time>
      </trkpt>
      <trkpt lat="48.77861" lon="5.17313">
        <ele>260</ele>
        <time>2023-01-06T09:18:14.000Z</time>
      </trkpt>
      <trkpt lat="48.77861" lon="5.17312">
        <ele>260</ele>
        <time>2023-01-06T09:18:15.000Z</time>
      </trkpt>
      <trkpt lat="48.77862" lon="5.17311">
        <ele>260</ele>
        <time>2023-01-06T09:18:16.000Z</time>
      </trkpt>
      <trkpt lat="48.77863" lon="5.17309">
        <ele>260</ele>
        <time>2023-01-06T09:18:17.000Z</time>
      </trkpt>
      <trkpt lat="48.77864" lon="5.17308">
        <ele>260</ele>
        <time>2023-01-06T09:18:18.000Z</time>
      </trkpt>
      <trkpt lat="48.77864" lon="5.17306">
        <ele>260</ele>
        <time>2023-01-06T09:18:19.000Z</time>
      </trkpt>
      <trkpt lat="48.77865" lon="5.17305">
        <ele>260</ele>
        <time>2023-01-06T09:18:20.000Z</time>
      </trkpt>
      <trkpt lat="48.77866" lon="5.17303">
        <ele>260</ele>
        <time>2023-01-06T09:18:21.000Z</time>
      </trkpt>
      <trkpt lat="48.77866" lon="5.17302">
        <ele>260</ele>
        <time>2023-01-06T09:18:22.000Z</time>
      </trkpt>
      <trkpt lat="48.77867" lon="5.173">
        <ele>260</ele>
        <time>2023-01-06T09:18:23.000Z</time>
      </trkpt>
      <trkpt lat="48.77868" lon="5.17299">
        <ele>260</ele>
        <time>2023-01-06T09:18:24.000Z</time>
      </trkpt>
      <trkpt lat="48.77869" lon="5.17297">
        <ele>260</ele>
        <time>2023-01-06T09:18:25.000Z</time>
      </trkpt>
      <trkpt lat="48.7787" lon="5.17296">
        <ele>260</ele>
        <time>2023-01-06T09:18:26.000Z</time>
      </trkpt>
      <trkpt lat="48.77871" lon="5.17295">
        <ele>260</ele>
        <time>2023-01-06T09:18:27.000Z</time>
      </trkpt>
      <trkpt lat="48.77872" lon="5.17294">
        <ele>260</ele>
        <time>2023-01-06T09:18:28.000Z</time>
      </trkpt>
      <trkpt lat="48.77873" lon="5.17292">
        <ele>260</ele>
        <time>2023-01-06T09:18:29.000Z</time>
      </trkpt>
      <trkpt lat="48.77874" lon="5.17291">
        <ele>261</ele>
        <time>2023-01-06T09:18:30.000Z</time>
      </trkpt>
      <trkpt lat="48.77875" lon="5.17289">
        <ele>261</ele>
        <time>2023-01-06T09:18:31.000Z</time>
      </trkpt>
      <trkpt lat="48.77876" lon="5.17288">
        <ele>261</ele>
        <time>2023-01-06T09:18:32.000Z</time>
      </trkpt>
      <trkpt lat="48.77877" lon="5.17286">
        <ele>261</ele>
        <time>2023-01-06T09:18:33.000Z</time>
      </trkpt>
      <trkpt lat="48.77878" lon="5.17284">
        <ele>261</ele>
        <time>2023-01-06T09:18:34.000Z</time>
      </trkpt>
      <trkpt lat="48.77879" lon="5.17282">
        <ele>261</ele>
        <time>2023-01-06T09:18:35.000Z</time>
      </trkpt>
      <trkpt lat="48.7788" lon="5.1728">
        <ele>261</ele>
        <time>2023-01-06T09:18:36.000Z</time>
      </trkpt>
      <trkpt lat="48.7788" lon="5.17278">
        <ele>261</ele>
        <time>2023-01-06T09:18:37.000Z</time>
      </trkpt>
      <trkpt lat="48.77882" lon="5.17276">
        <ele>261</ele>
        <time>2023-01-06T09:18:38.000Z</time>
      </trkpt>
      <trkpt lat="48.77883" lon="5.17274">
        <ele>261</ele>
        <time>2023-01-06T09:18:39.000Z</time>
      </trkpt>
      <trkpt lat="48.77884" lon="5.17273">
        <ele>261</ele>
        <time>2023-01-06T09:18:40.000Z</time>
      </trkpt>
      <trkpt lat="48.77885" lon="5.17271">
        <ele>261</ele>
        <time>2023-01-06T09:18:41.000Z</time>
      </trkpt>
      <trkpt lat="48.77886" lon="5.17269">
        <ele>261</ele>
        <time>2023-01-06T09:18:42.000Z</time>
      </trkpt>
      <trkpt lat="48.77887" lon="5.17267">
        <ele>261</ele>
        <time>2023-01-06T09:18:43.000Z</time>
      </trkpt>
      <trkpt lat="48.77888" lon="5.17265">
        <ele>261</ele>
        <time>2023-01-06T09:18:44.000Z</time>
      </trkpt>
      <trkpt lat="48.77889" lon="5.17263">
        <ele>261</ele>
        <time>2023-01-06T09:18:45.000Z</time>
      </trkpt>
      <trkpt lat="48.7789" lon="5.17261">
        <ele>261</ele>
        <time>2023-01-06T09:18:46.000Z</time>
      </trkpt>
      <trkpt lat="48.77892" lon="5.1726">
        <ele>261</ele>
        <time>2023-01-06T09:18:47.000Z</time>
      </trkpt>
      <trkpt lat="48.77894" lon="5.1726">
        <ele>261</ele>
        <time>2023-01-06T09:18:48.000Z</time>
      </trkpt>
      <trkpt lat="48.77895" lon="5.17261">
        <ele>261.3</ele>
        <time>2023-01-06T09:18:49.000Z</time>
      </trkpt>
      <trkpt lat="48.77897" lon="5.17262">
        <ele>261.7</ele>
        <time>2023-01-06T09:18:50.000Z</time>
      </trkpt>
      <trkpt lat="48.77898" lon="5.17263">
        <ele>262</ele>
        <time>2023-01-06T09:18:51.000Z</time>
      </trkpt>
      <trkpt lat="48.77899" lon="5.17264">
        <ele>262</ele>
        <time>2023-01-06T09:18:52.000Z</time>
      </trkpt>
      <trkpt lat="48.779" lon="5.17264">
        <ele>261.7</ele>
        <time>2023-01-06T09:18:53.000Z</time>
      </trkpt>
      <trkpt lat="48.77901" lon="5.17266">
        <ele>261.3</ele>
        <time>2023-01-06T09:18:54.000Z</time>
      </trkpt>
      <trkpt lat="48.77903" lon="5.17267">
        <ele>261</ele>
        <time>2023-01-06T09:18:55.000Z</time>
      </trkpt>
      <trkpt lat="48.77904" lon="5.17268">
        <ele>261.5</ele>
        <time>2023-01-06T09:18:56.000Z</time>
      </trkpt>
      <trkpt lat="48.77905" lon="5.17269">
        <ele>262</ele>
        <time>2023-01-06T09:18:57.000Z</time>
      </trkpt>
      <trkpt lat="48.77906" lon="5.1727">
        <ele>262</ele>
        <time>2023-01-06T09:18:58.000Z</time>
      </trkpt>
      <trkpt lat="48.77906" lon="5.17271">
        <ele>262</ele>
        <time>2023-01-06T09:18:59.000Z</time>
      </trkpt>
      <trkpt lat="48.77907" lon="5.17273">
        <ele>262</ele>
        <time>2023-01-06T09:19:00.000Z</time>
      </trkpt>
      <trkpt lat="48.77907" lon="5.17274">
        <ele>262</ele>
        <time>2023-01-06T09:19:01.000Z</time>
      </trkpt>
      <trkpt lat="48.77908" lon="5.17276">
        <ele>262</ele>
        <time>2023-01-06T09:19:02.000Z</time>
      </trkpt>
      <trkpt lat="48.77908" lon="5.17277">
        <ele>262</ele>
        <time>2023-01-06T09:19:03.000Z</time>
      </trkpt>
      <trkpt lat="48.77909" lon="5.17278">
        <ele>262</ele>
        <time>2023-01-06T09:19:04.000Z</time>
      </trkpt>
      <trkpt lat="48.77909" lon="5.17279">
        <ele>262</ele>
        <time>2023-01-06T09:19:05.000Z</time>
      </trkpt>
      <trkpt lat="48.7791" lon="5.1728">
        <ele>262</ele>
        <time>2023-01-06T09:19:06.000Z</time>
      </trkpt>
      <trkpt lat="48.7791" lon="5.17281">
        <ele>262</ele>
        <time>2023-01-06T09:19:07.000Z</time>
      </trkpt>
      <trkpt lat="48.77911" lon="5.17282">
        <ele>262</ele>
        <time>2023-01-06T09:19:08.000Z</time>
      </trkpt>
      <trkpt lat="48.77912" lon="5.17282">
        <ele>262</ele>
        <time>2023-01-06T09:19:09.000Z</time>
      </trkpt>
      <trkpt lat="48.77912" lon="5.17283">
        <ele>262</ele>
        <time>2023-01-06T09:19:10.000Z</time>
      </trkpt>
      <trkpt lat="48.77913" lon="5.17284">
        <ele>262</ele>
        <time>2023-01-06T09:19:11.000Z</time>
      </trkpt>
      <trkpt lat="48.77914" lon="5.17285">
        <ele>262</ele>
        <time>2023-01-06T09:19:12.000Z</time>
      </trkpt>
      <trkpt lat="48.77915" lon="5.17286">
        <ele>262</ele>
        <time>2023-01-06T09:19:13.000Z</time>
      </trkpt>
      <trkpt lat="48.77917" lon="5.17287">
        <ele>262.5</ele>
        <time>2023-01-06T09:19:14.000Z</time>
      </trkpt>
      <trkpt lat="48.77918" lon="5.17288">
        <ele>263</ele>
        <time>2023-01-06T09:19:15.000Z</time>
      </trkpt>
      <trkpt lat="48.77919" lon="5.17288">
        <ele>263</ele>
        <time>2023-01-06T09:19:16.000Z</time>
      </trkpt>
      <trkpt lat="48.7792" lon="5.17289">
        <ele>263</ele>
        <time>2023-01-06T09:19:17.000Z</time>
      </trkpt>
      <trkpt lat="48.77921" lon="5.1729">
        <ele>263</ele>
        <time>2023-01-06T09:19:18.000Z</time>
      </trkpt>
      <trkpt lat="48.77922" lon="5.1729">
        <ele>263</ele>
        <time>2023-01-06T09:19:19.000Z</time>
      </trkpt>
      <trkpt lat="48.77923" lon="5.17291">
        <ele>263</ele>
        <time>2023-01-06T09:19:20.000Z</time>
      </trkpt>
      <trkpt lat="48.77924" lon="5.17292">
        <ele>263</ele>
        <time>2023-01-06T09:19:21.000Z</time>
      </trkpt>
      <trkpt lat="48.77925" lon="5.17292">
        <ele>263</ele>
        <time>2023-01-06T09:19:22.000Z</time>
      </trkpt>
      <trkpt lat="48.77926" lon="5.17293">
        <ele>263</ele>
        <time>2023-01-06T09:19:23.000Z</time>
      </trkpt>
      <trkpt lat="48.77928" lon="5.17294">
        <ele>263</ele>
        <time>2023-01-06T09:19:24.000Z</time>
      </trkpt>
      <trkpt lat="48.77929" lon="5.17295">
        <ele>263</ele>
        <time>2023-01-06T09:19:25.000Z</time>
      </trkpt>
      <trkpt lat="48.7793" lon="5.17296">
        <ele>263</ele>
        <time>2023-01-06T09:19:26.000Z</time>
      </trkpt>
      <trkpt lat="48.77931" lon="5.17297">
        <ele>263</ele>
        <time>2023-01-06T09:19:27.000Z</time>
      </trkpt>
      <trkpt lat="48.77932" lon="5.17299">
        <ele>263</ele>
        <time>2023-01-06T09:19:28.000Z</time>
      </trkpt>
      <trkpt lat="48.77933" lon="5.173">
        <ele>263</ele>
        <time>2023-01-06T09:19:29.000Z</time>
      </trkpt>
      <trkpt lat="48.77934" lon="5.17302">
        <ele>263</ele>
        <time>2023-01-06T09:19:30.000Z</time>
      </trkpt>
      <trkpt lat="48.77936" lon="5.17304">
        <ele>263</ele>
        <time>2023-01-06T09:19:31.000Z</time>
      </trkpt>
      <trkpt lat="48.77937" lon="5.17306">
        <ele>263</ele>
        <time>2023-01-06T09:19:32.000Z</time>
      </trkpt>
      <trkpt lat="48.77939" lon="5.17309">
        <ele>263</ele>
        <time>2023-01-06T09:19:33.000Z</time>
      </trkpt>
      <trkpt lat="48.7794" lon="5.17311">
        <ele>263</ele>
        <time>2023-01-06T09:19:34.000Z</time>
      </trkpt>
      <trkpt lat="48.77942" lon="5.17312">
        <ele>263</ele>
        <time>2023-01-06T09:19:35.000Z</time>
      </trkpt>
      <trkpt lat="48.77944" lon="5.17314">
        <ele>263</ele>
        <time>2023-01-06T09:19:36.000Z</time>
      </trkpt>
      <trkpt lat="48.77946" lon="5.17315">
        <ele>263.3</ele>
        <time>2023-01-06T09:19:37.000Z</time>
      </trkpt>
      <trkpt lat="48.77948" lon="5.17317">
        <ele>263.7</ele>
        <time>2023-01-06T09:19:38.000Z</time>
      </trkpt>
      <trkpt lat="48.77949" lon="5.17318">
        <ele>264</ele>
        <time>2023-01-06T09:19:39.000Z</time>
      </trkpt>
      <trkpt lat="48.77951" lon="5.17319">
        <ele>264</ele>
        <time>2023-01-06T09:19:40.000Z</time>
      </trkpt>
      <trkpt lat="48.77952" lon="5.1732">
        <ele>264</ele>
        <time>2023-01-06T09:19:41.000Z</time>
      </trkpt>
      <trkpt lat="48.77954" lon="5.17322">
        <ele>264</ele>
        <time>2023-01-06T09:19:42.000Z</time>
      </trkpt>
      <trkpt lat="48.77956" lon="5.17323">
        <ele>264</ele>
        <time>2023-01-06T09:19:43.000Z</time>
      </trkpt>
      <trkpt lat="48.77957" lon="5.17324">
        <ele>264</ele>
        <time>2023-01-06T09:19:44.000Z</time>
      </trkpt>
      <trkpt lat="48.77958" lon="5.17325">
        <ele>264</ele>
        <time>2023-01-06T09:19:45.000Z</time>
      </trkpt>
      <trkpt lat="48.77959" lon="5.17327">
        <ele>264</ele>
        <time>2023-01-06T09:19:46.000Z</time>
      </trkpt>
      <trkpt lat="48.77961" lon="5.17328">
        <ele>264</ele>
        <time>2023-01-06T09:19:47.000Z</time>
      </trkpt>
      <trkpt lat="48.77962" lon="5.17329">
        <ele>264</ele>
        <time>2023-01-06T09:19:48.000Z</time>
      </trkpt>
      <trkpt lat="48.77964" lon="5.1733">
        <ele>264</ele>
        <time>2023-01-06T09:19:49.000Z</time>
      </trkpt>
      <trkpt lat="48.77965" lon="5.17331">
        <ele>264</ele>
        <time>2023-01-06T09:19:50.000Z</time>
      </trkpt>
      <trkpt lat="48.77967" lon="5.17332">
        <ele>264</ele>
        <time>2023-01-06T09:19:51.000Z</time>
      </trkpt>
      <trkpt lat="48.77968" lon="5.17333">
        <ele>264</ele>
        <time>2023-01-06T09:19:52.000Z</time>
      </trkpt>
      <trkpt lat="48.77969" lon="5.17334">
        <ele>264</ele>
        <time>2023-01-06T09:19:53.000Z</time>
      </trkpt>
      <trkpt lat="48.7797" lon="5.17335">
        <ele>264</ele>
        <time>2023-01-06T09:19:54.000Z</time>
      </trkpt>
      <trkpt lat="48.77971" lon="5.17336">
        <ele>264</ele>
        <time>2023-01-06T09:19:55.000Z</time>
      </trkpt>
      <trkpt lat="48.77972" lon="5.17337">
        <ele>264</ele>
        <time>2023-01-06T09:19:56.000Z</time>
      </trkpt>
      <trkpt lat="48.77973" lon="5.17338">
        <ele>264</ele>
        <time>2023-01-06T09:19:57.000Z</time>
      </trkpt>
      <trkpt lat="48.77975" lon="5.17339">
        <ele>264</ele>
        <time>2023-01-06T09:19:58.000Z</time>
      </trkpt>
      <trkpt lat="48.77976" lon="5.1734">
        <ele>264</ele>
        <time>2023-01-06T09:19:59.000Z</time>
      </trkpt>
      <trkpt lat="48.77977" lon="5.17341">
        <ele>265</ele>
        <time>2023-01-06T09:20:00.000Z</time>
      </trkpt>
      <trkpt lat="48.77978" lon="5.17342">
        <ele>265</ele>
        <time>2023-01-06T09:20:01.000Z</time>
      </trkpt>
      <trkpt lat="48.77979" lon="5.17343">
        <ele>265</ele>
        <time>2023-01-06T09:20:02.000Z</time>
      </trkpt>
      <trkpt lat="48.7798" lon="5.17343">
        <ele>265</ele>
        <time>2023-01-06T09:20:03.000Z</time>
      </trkpt>
      <trkpt lat="48.7798" lon="5.17344">
        <ele>265</ele>
        <time>2023-01-06T09:20:04.000Z</time>
      </trkpt>
      <trkpt lat="48.77982" lon="5.17345">
        <ele>265</ele>
        <time>2023-01-06T09:20:05.000Z</time>
      </trkpt>
      <trkpt lat="48.77983" lon="5.17346">
        <ele>265</ele>
        <time>2023-01-06T09:20:06.000Z</time>
      </trkpt>
      <trkpt lat="48.77984" lon="5.17346">
        <ele>265</ele>
        <time>2023-01-06T09:20:07.000Z</time>
      </trkpt>
      <trkpt lat="48.77985" lon="5.17347">
        <ele>265</ele>
        <time>2023-01-06T09:20:08.000Z</time>
      </trkpt>
      <trkpt lat="48.77987" lon="5.17348">
        <ele>265</ele>
        <time>2023-01-06T09:20:09.000Z</time>
      </trkpt>
      <trkpt lat="48.77988" lon="5.17349">
        <ele>265</ele>
        <time>2023-01-06T09:20:10.000Z</time>
      </trkpt>
      <trkpt lat="48.7799" lon="5.17349">
        <ele>265</ele>
        <time>2023-01-06T09:20:11.000Z</time>
      </trkpt>
      <trkpt lat="48.77991" lon="5.1735">
        <ele>265</ele>
        <time>2023-01-06T09:20:12.000Z</time>
      </trkpt>
      <trkpt lat="48.77992" lon="5.1735">
        <ele>265</ele>
        <time>2023-01-06T09:20:13.000Z</time>
      </trkpt>
      <trkpt lat="48.77993" lon="5.17351">
        <ele>265</ele>
        <time>2023-01-06T09:20:14.000Z</time>
      </trkpt>
      <trkpt lat="48.77994" lon="5.17352">
        <ele>265</ele>
        <time>2023-01-06T09:20:15.000Z</time>
      </trkpt>
      <trkpt lat="48.77995" lon="5.17352">
        <ele>265</ele>
        <time>2023-01-06T09:20:16.000Z</time>
      </trkpt>
      <trkpt lat="48.77996" lon="5.17353">
        <ele>265</ele>
        <time>2023-01-06T09:20:17.000Z</time>
      </trkpt>
      <trkpt lat="48.77997" lon="5.17354">
        <ele>265</ele>
        <time>2023-01-06T09:20:18.000Z</time>
      </trkpt>
      <trkpt lat="48.77998" lon="5.17355">
        <ele>265</ele>
        <time>2023-01-06T09:20:19.000Z</time>
      </trkpt>
      <trkpt lat="48.77999" lon="5.17356">
        <ele>265</ele>
        <time>2023-01-06T09:20:20.000Z</time>
      </trkpt>
      <trkpt lat="48.78" lon="5.17357">
        <ele>265</ele>
        <time>2023-01-06T09:20:21.000Z</time>
      </trkpt>
      <trkpt lat="48.78002" lon="5.17358">
        <ele>265</ele>
        <time>2023-01-06T09:20:22.000Z</time>
      </trkpt>
      <trkpt lat="48.78003" lon="5.17359">
        <ele>265</ele>
        <time>2023-01-06T09:20:23.000Z</time>
      </trkpt>
      <trkpt lat="48.78004" lon="5.17359">
        <ele>266</ele>
        <time>2023-01-06T09:20:24.000Z</time>
      </trkpt>
      <trkpt lat="48.78006" lon="5.1736">
        <ele>266</ele>
        <time>2023-01-06T09:20:25.000Z</time>
      </trkpt>
      <trkpt lat="48.78007" lon="5.17361">
        <ele>266</ele>
        <time>2023-01-06T09:20:26.000Z</time>
      </trkpt>
      <trkpt lat="48.78009" lon="5.17362">
        <ele>266</ele>
        <time>2023-01-06T09:20:27.000Z</time>
      </trkpt>
      <trkpt lat="48.7801" lon="5.17363">
        <ele>266</ele>
        <time>2023-01-06T09:20:28.000Z</time>
      </trkpt>
      <trkpt lat="48.78012" lon="5.17363">
        <ele>266</ele>
        <time>2023-01-06T09:20:29.000Z</time>
      </trkpt>
      <trkpt lat="48.78013" lon="5.17364">
        <ele>266</ele>
        <time>2023-01-06T09:20:30.000Z</time>
      </trkpt>
      <trkpt lat="48.78014" lon="5.17365">
        <ele>266</ele>
        <time>2023-01-06T09:20:31.000Z</time>
      </trkpt>
      <trkpt lat="48.78015" lon="5.17365">
        <ele>266</ele>
        <time>2023-01-06T09:20:32.000Z</time>
      </trkpt>
      <trkpt lat="48.78017" lon="5.17366">
        <ele>266</ele>
        <time>2023-01-06T09:20:33.000Z</time>
      </trkpt>
      <trkpt lat="48.78019" lon="5.17368">
        <ele>266</ele>
        <time>2023-01-06T09:20:34.000Z</time>
      </trkpt>
      <trkpt lat="48.78021" lon="5.17369">
        <ele>266</ele>
        <time>2023-01-06T09:20:35.000Z</time>
      </trkpt>
      <trkpt lat="48.78022" lon="5.1737">
        <ele>266</ele>
        <time>2023-01-06T09:20:36.000Z</time>
      </trkpt>
      <trkpt lat="48.78023" lon="5.17371">
        <ele>266</ele>
        <time>2023-01-06T09:20:37.000Z</time>
      </trkpt>
      <trkpt lat="48.78024" lon="5.17372">
        <ele>266</ele>
        <time>2023-01-06T09:20:38.000Z</time>
      </trkpt>
      <trkpt lat="48.78026" lon="5.17373">
        <ele>266</ele>
        <time>2023-01-06T09:20:39.000Z</time>
      </trkpt>
      <trkpt lat="48.78027" lon="5.17374">
        <ele>266</ele>
        <time>2023-01-06T09:20:40.000Z</time>
      </trkpt>
      <trkpt lat="48.78028" lon="5.17374">
        <ele>266.3</ele>
        <time>2023-01-06T09:20:41.000Z</time>
      </trkpt>
      <trkpt lat="48.7803" lon="5.17375">
        <ele>266.7</ele>
        <time>2023-01-06T09:20:42.000Z</time>
      </trkpt>
      <trkpt lat="48.78031" lon="5.17375">
        <ele>267</ele>
        <time>2023-01-06T09:20:43.000Z</time>
      </trkpt>
      <trkpt lat="48.78033" lon="5.17375">
        <ele>267</ele>
        <time>2023-01-06T09:20:44.000Z</time>
      </trkpt>
      <trkpt lat="48.78035" lon="5.17376">
        <ele>267</ele>
        <time>2023-01-06T09:20:45.000Z</time>
      </trkpt>
      <trkpt lat="48.78037" lon="5.17376">
        <ele>267</ele>
        <time>2023-01-06T09:20:46.000Z</time>
      </trkpt>
      <trkpt lat="48.78038" lon="5.17377">
        <ele>267</ele>
        <time>2023-01-06T09:20:47.000Z</time>
      </trkpt>
      <trkpt lat="48.78039" lon="5.17378">
        <ele>267</ele>
        <time>2023-01-06T09:20:48.000Z</time>
      </trkpt>
      <trkpt lat="48.78041" lon="5.17379">
        <ele>267</ele>
        <time>2023-01-06T09:20:49.000Z</time>
      </trkpt>
      <trkpt lat="48.78043" lon="5.1738">
        <ele>267</ele>
        <time>2023-01-06T09:20:50.000Z</time>
      </trkpt>
      <trkpt lat="48.78045" lon="5.17381">
        <ele>267</ele>
        <time>2023-01-06T09:20:51.000Z</time>
      </trkpt>
      <trkpt lat="48.78047" lon="5.17382">
        <ele>267</ele>
        <time>2023-01-06T09:20:52.000Z</time>
      </trkpt>
      <trkpt lat="48.78048" lon="5.17383">
        <ele>267</ele>
        <time>2023-01-06T09:20:53.000Z</time>
      </trkpt>
      <trkpt lat="48.7805" lon="5.17384">
        <ele>267</ele>
        <time>2023-01-06T09:20:54.000Z</time>
      </trkpt>
      <trkpt lat="48.78052" lon="5.17385">
        <ele>267</ele>
        <time>2023-01-06T09:20:55.000Z</time>
      </trkpt>
      <trkpt lat="48.78054" lon="5.17386">
        <ele>267</ele>
        <time>2023-01-06T09:20:56.000Z</time>
      </trkpt>
      <trkpt lat="48.78056" lon="5.17387">
        <ele>267</ele>
        <time>2023-01-06T09:20:57.000Z</time>
      </trkpt>
      <trkpt lat="48.78058" lon="5.17388">
        <ele>267</ele>
        <time>2023-01-06T09:20:58.000Z</time>
      </trkpt>
      <trkpt lat="48.7806" lon="5.17389">
        <ele>267</ele>
        <time>2023-01-06T09:20:59.000Z</time>
      </trkpt>
      <trkpt lat="48.78062" lon="5.1739">
        <ele>267</ele>
        <time>2023-01-06T09:21:00.000Z</time>
      </trkpt>
      <trkpt lat="48.78063" lon="5.17391">
        <ele>267.3</ele>
        <time>2023-01-06T09:21:01.000Z</time>
      </trkpt>
      <trkpt lat="48.78065" lon="5.17392">
        <ele>267.7</ele>
        <time>2023-01-06T09:21:02.000Z</time>
      </trkpt>
      <trkpt lat="48.78067" lon="5.17393">
        <ele>268</ele>
        <time>2023-01-06T09:21:03.000Z</time>
      </trkpt>
      <trkpt lat="48.78068" lon="5.17394">
        <ele>268</ele>
        <time>2023-01-06T09:21:04.000Z</time>
      </trkpt>
      <trkpt lat="48.78069" lon="5.17395">
        <ele>268</ele>
        <time>2023-01-06T09:21:05.000Z</time>
      </trkpt>
      <trkpt lat="48.78071" lon="5.17396">
        <ele>268</ele>
        <time>2023-01-06T09:21:06.000Z</time>
      </trkpt>
      <trkpt lat="48.78073" lon="5.17396">
        <ele>268</ele>
        <time>2023-01-06T09:21:07.000Z</time>
      </trkpt>
      <trkpt lat="48.78074" lon="5.17397">
        <ele>268</ele>
        <time>2023-01-06T09:21:08.000Z</time>
      </trkpt>
      <trkpt lat="48.78076" lon="5.17399">
        <ele>268</ele>
        <time>2023-01-06T09:21:09.000Z</time>
      </trkpt>
      <trkpt lat="48.78077" lon="5.174">
        <ele>268</ele>
        <time>2023-01-06T09:21:10.000Z</time>
      </trkpt>
      <trkpt lat="48.78079" lon="5.17401">
        <ele>268</ele>
        <time>2023-01-06T09:21:11.000Z</time>
      </trkpt>
      <trkpt lat="48.7808" lon="5.17402">
        <ele>268</ele>
        <time>2023-01-06T09:21:12.000Z</time>
      </trkpt>
      <trkpt lat="48.78081" lon="5.17403">
        <ele>268</ele>
        <time>2023-01-06T09:21:13.000Z</time>
      </trkpt>
      <trkpt lat="48.78082" lon="5.17404">
        <ele>268</ele>
        <time>2023-01-06T09:21:14.000Z</time>
      </trkpt>
      <trkpt lat="48.78083" lon="5.17405">
        <ele>268</ele>
        <time>2023-01-06T09:21:15.000Z</time>
      </trkpt>
      <trkpt lat="48.78084" lon="5.17406">
        <ele>268</ele>
        <time>2023-01-06T09:21:16.000Z</time>
      </trkpt>
      <trkpt lat="48.78086" lon="5.17407">
        <ele>268</ele>
        <time>2023-01-06T09:21:17.000Z</time>
      </trkpt>
      <trkpt lat="48.78088" lon="5.17408">
        <ele>268</ele>
        <time>2023-01-06T09:21:18.000Z</time>
      </trkpt>
      <trkpt lat="48.78089" lon="5.17409">
        <ele>268</ele>
        <time>2023-01-06T09:21:19.000Z</time>
      </trkpt>
      <trkpt lat="48.78092" lon="5.1741">
        <ele>268</ele>
        <time>2023-01-06T09:21:20.000Z</time>
      </trkpt>
      <trkpt lat="48.78094" lon="5.17411">
        <ele>268</ele>
        <time>2023-01-06T09:21:21.000Z</time>
      </trkpt>
      <trkpt lat="48.78096" lon="5.17411">
        <ele>268</ele>
        <time>2023-01-06T09:21:22.000Z</time>
      </trkpt>
      <trkpt lat="48.78098" lon="5.17412">
        <ele>268</ele>
        <time>2023-01-06T09:21:23.000Z</time>
      </trkpt>
      <trkpt lat="48.781" lon="5.17413">
        <ele>268</ele>
        <time>2023-01-06T09:21:24.000Z</time>
      </trkpt>
      <trkpt lat="48.78102" lon="5.17414">
        <ele>268</ele>
        <time>2023-01-06T09:21:25.000Z</time>
      </trkpt>
      <trkpt lat="48.78104" lon="5.17415">
        <ele>268</ele>
        <time>2023-01-06T09:21:26.000Z</time>
      </trkpt>
      <trkpt lat="48.78106" lon="5.17416">
        <ele>268</ele>
        <time>2023-01-06T09:21:27.000Z</time>
      </trkpt>
      <trkpt lat="48.78107" lon="5.17418">
        <ele>268</ele>
        <time>2023-01-06T09:21:28.000Z</time>
      </trkpt>
      <trkpt lat="48.78109" lon="5.17419">
        <ele>268</ele>
        <time>2023-01-06T09:21:29.000Z</time>
      </trkpt>
      <trkpt lat="48.7811" lon="5.1742">
        <ele>268</ele>
        <time>2023-01-06T09:21:30.000Z</time>
      </trkpt>
      <trkpt lat="48.78112" lon="5.17422">
        <ele>268</ele>
        <time>2023-01-06T09:21:31.000Z</time>
      </trkpt>
      <trkpt lat="48.78113" lon="5.17422">
        <ele>268</ele>
        <time>2023-01-06T09:21:32.000Z</time>
      </trkpt>
      <trkpt lat="48.78115" lon="5.17423">
        <ele>268</ele>
        <time>2023-01-06T09:21:33.000Z</time>
      </trkpt>
      <trkpt lat="48.78117" lon="5.17423">
        <ele>268</ele>
        <time>2023-01-06T09:21:34.000Z</time>
      </trkpt>
      <trkpt lat="48.78119" lon="5.17423">
        <ele>268</ele>
        <time>2023-01-06T09:21:35.000Z</time>
      </trkpt>
      <trkpt lat="48.7812" lon="5.17423">
        <ele>268</ele>
        <time>2023-01-06T09:21:36.000Z</time>
      </trkpt>
      <trkpt lat="48.78121" lon="5.17424">
        <ele>268</ele>
        <time>2023-01-06T09:21:37.000Z</time>
      </trkpt>
      <trkpt lat="48.78122" lon="5.17425">
        <ele>268</ele>
        <time>2023-01-06T09:21:38.000Z</time>
      </trkpt>
      <trkpt lat="48.78123" lon="5.17426">
        <ele>268</ele>
        <time>2023-01-06T09:21:39.000Z</time>
      </trkpt>
      <trkpt lat="48.78125" lon="5.17426">
        <ele>268</ele>
        <time>2023-01-06T09:21:40.000Z</time>
      </trkpt>
      <trkpt lat="48.78126" lon="5.17427">
        <ele>268</ele>
        <time>2023-01-06T09:21:41.000Z</time>
      </trkpt>
      <trkpt lat="48.78126" lon="5.17427">
        <ele>268</ele>
        <time>2023-01-06T09:21:42.000Z</time>
      </trkpt>
      <trkpt lat="48.78127" lon="5.17428">
        <ele>268</ele>
        <time>2023-01-06T09:21:43.000Z</time>
      </trkpt>
      <trkpt lat="48.78128" lon="5.17428">
        <ele>268</ele>
        <time>2023-01-06T09:21:44.000Z</time>
      </trkpt>
      <trkpt lat="48.78129" lon="5.17429">
        <ele>268</ele>
        <time>2023-01-06T09:21:45.000Z</time>
      </trkpt>
      <trkpt lat="48.7813" lon="5.1743">
        <ele>268</ele>
        <time>2023-01-06T09:21:46.000Z</time>
      </trkpt>
      <trkpt lat="48.78131" lon="5.17431">
        <ele>268</ele>
        <time>2023-01-06T09:21:47.000Z</time>
      </trkpt>
      <trkpt lat="48.78132" lon="5.17431">
        <ele>268</ele>
        <time>2023-01-06T09:21:48.000Z</time>
      </trkpt>
      <trkpt lat="48.78134" lon="5.17432">
        <ele>268</ele>
        <time>2023-01-06T09:21:49.000Z</time>
      </trkpt>
      <trkpt lat="48.78135" lon="5.17432">
        <ele>268</ele>
        <time>2023-01-06T09:21:50.000Z</time>
      </trkpt>
      <trkpt lat="48.78135" lon="5.17432">
        <ele>268</ele>
        <time>2023-01-06T09:21:51.000Z</time>
      </trkpt>
      <trkpt lat="48.78136" lon="5.17432">
        <ele>268</ele>
        <time>2023-01-06T09:21:52.000Z</time>
      </trkpt>
      <trkpt lat="48.78137" lon="5.17432">
        <ele>268</ele>
        <time>2023-01-06T09:21:53.000Z</time>
      </trkpt>
      <trkpt lat="48.78138" lon="5.17432">
        <ele>268</ele>
        <time>2023-01-06T09:21:54.000Z</time>
      </trkpt>
      <trkpt lat="48.78139" lon="5.17432">
        <ele>268</ele>
        <time>2023-01-06T09:21:55.000Z</time>
      </trkpt>
      <trkpt lat="48.7814" lon="5.17433">
        <ele>268</ele>
        <time>2023-01-06T09:21:56.000Z</time>
      </trkpt>
      <trkpt lat="48.78141" lon="5.17433">
        <ele>268</ele>
        <time>2023-01-06T09:21:57.000Z</time>
      </trkpt>
      <trkpt lat="48.78142" lon="5.17434">
        <ele>268</ele>
        <time>2023-01-06T09:21:58.000Z</time>
      </trkpt>
      <trkpt lat="48.78143" lon="5.17434">
        <ele>268</ele>
        <time>2023-01-06T09:21:59.000Z</time>
      </trkpt>
      <trkpt lat="48.78144" lon="5.17435">
        <ele>268</ele>
        <time>2023-01-06T09:22:00.000Z</time>
      </trkpt>
      <trkpt lat="48.78145" lon="5.17435">
        <ele>268</ele>
        <time>2023-01-06T09:22:01.000Z</time>
      </trkpt>
      <trkpt lat="48.78146" lon="5.17436">
        <ele>268</ele>
        <time>2023-01-06T09:22:02.000Z</time>
      </trkpt>
      <trkpt lat="48.78147" lon="5.17436">
        <ele>268</ele>
        <time>2023-01-06T09:22:03.000Z</time>
      </trkpt>
      <trkpt lat="48.78149" lon="5.17437">
        <ele>268</ele>
        <time>2023-01-06T09:22:04.000Z</time>
      </trkpt>
      <trkpt lat="48.7815" lon="5.17437">
        <ele>268</ele>
        <time>2023-01-06T09:22:05.000Z</time>
      </trkpt>
      <trkpt lat="48.78151" lon="5.17437">
        <ele>268</ele>
        <time>2023-01-06T09:22:06.000Z</time>
      </trkpt>
      <trkpt lat="48.78152" lon="5.17438">
        <ele>268</ele>
        <time>2023-01-06T09:22:07.000Z</time>
      </trkpt>
      <trkpt lat="48.78153" lon="5.17438">
        <ele>268</ele>
        <time>2023-01-06T09:22:08.000Z</time>
      </trkpt>
      <trkpt lat="48.78154" lon="5.17439">
        <ele>268</ele>
        <time>2023-01-06T09:22:09.000Z</time>
      </trkpt>
      <trkpt lat="48.78155" lon="5.17439">
        <ele>268.5</ele>
        <time>2023-01-06T09:22:10.000Z</time>
      </trkpt>
      <trkpt lat="48.78157" lon="5.1744">
        <ele>269</ele>
        <time>2023-01-06T09:22:11.000Z</time>
      </trkpt>
      <trkpt lat="48.78158" lon="5.17441">
        <ele>269</ele>
        <time>2023-01-06T09:22:12.000Z</time>
      </trkpt>
      <trkpt lat="48.78159" lon="5.17441">
        <ele>269</ele>
        <time>2023-01-06T09:22:13.000Z</time>
      </trkpt>
      <trkpt lat="48.7816" lon="5.17442">
        <ele>269</ele>
        <time>2023-01-06T09:22:14.000Z</time>
      </trkpt>
      <trkpt lat="48.78161" lon="5.17443">
        <ele>269</ele>
        <time>2023-01-06T09:22:15.000Z</time>
      </trkpt>
      <trkpt lat="48.78162" lon="5.17444">
        <ele>269</ele>
        <time>2023-01-06T09:22:16.000Z</time>
      </trkpt>
      <trkpt lat="48.78163" lon="5.17446">
        <ele>269</ele>
        <time>2023-01-06T09:22:17.000Z</time>
      </trkpt>
      <trkpt lat="48.78164" lon="5.17447">
        <ele>269</ele>
        <time>2023-01-06T09:22:18.000Z</time>
      </trkpt>
      <trkpt lat="48.78165" lon="5.17448">
        <ele>269</ele>
        <time>2023-01-06T09:22:19.000Z</time>
      </trkpt>
      <trkpt lat="48.78167" lon="5.17449">
        <ele>269</ele>
        <time>2023-01-06T09:22:20.000Z</time>
      </trkpt>
      <trkpt lat="48.7817" lon="5.1745">
        <ele>269</ele>
        <time>2023-01-06T09:22:21.000Z</time>
      </trkpt>
      <trkpt lat="48.78172" lon="5.1745">
        <ele>269</ele>
        <time>2023-01-06T09:22:22.000Z</time>
      </trkpt>
      <trkpt lat="48.78174" lon="5.17451">
        <ele>269</ele>
        <time>2023-01-06T09:22:23.000Z</time>
      </trkpt>
      <trkpt lat="48.78176" lon="5.17452">
        <ele>269</ele>
        <time>2023-01-06T09:22:24.000Z</time>
      </trkpt>
      <trkpt lat="48.78177" lon="5.17453">
        <ele>269</ele>
        <time>2023-01-06T09:22:25.000Z</time>
      </trkpt>
      <trkpt lat="48.78179" lon="5.17454">
        <ele>269</ele>
        <time>2023-01-06T09:22:26.000Z</time>
      </trkpt>
      <trkpt lat="48.78181" lon="5.17454">
        <ele>269</ele>
        <time>2023-01-06T09:22:27.000Z</time>
      </trkpt>
      <trkpt lat="48.78183" lon="5.17455">
        <ele>269</ele>
        <time>2023-01-06T09:22:28.000Z</time>
      </trkpt>
      <trkpt lat="48.78184" lon="5.17455">
        <ele>269</ele>
        <time>2023-01-06T09:22:29.000Z</time>
      </trkpt>
      <trkpt lat="48.78185" lon="5.17455">
        <ele>269</ele>
        <time>2023-01-06T09:22:30.000Z</time>
      </trkpt>
      <trkpt lat="48.78187" lon="5.17456">
        <ele>269</ele>
        <time>2023-01-06T09:22:31.000Z</time>
      </trkpt>
      <trkpt lat="48.78189" lon="5.17456">
        <ele>269</ele>
        <time>2023-01-06T09:22:32.000Z</time>
      </trkpt>
      <trkpt lat="48.78191" lon="5.17457">
        <ele>269</ele>
        <time>2023-01-06T09:22:33.000Z</time>
      </trkpt>
      <trkpt lat="48.78194" lon="5.17458">
        <ele>269</ele>
        <time>2023-01-06T09:22:34.000Z</time>
      </trkpt>
      <trkpt lat="48.78195" lon="5.1746">
        <ele>269</ele>
        <time>2023-01-06T09:22:35.000Z</time>
      </trkpt>
      <trkpt lat="48.78197" lon="5.17461">
        <ele>269</ele>
        <time>2023-01-06T09:22:36.000Z</time>
      </trkpt>
      <trkpt lat="48.78198" lon="5.17462">
        <ele>269.3</ele>
        <time>2023-01-06T09:22:37.000Z</time>
      </trkpt>
      <trkpt lat="48.78199" lon="5.17463">
        <ele>269.7</ele>
        <time>2023-01-06T09:22:38.000Z</time>
      </trkpt>
      <trkpt lat="48.782" lon="5.17464">
        <ele>270</ele>
        <time>2023-01-06T09:22:39.000Z</time>
      </trkpt>
      <trkpt lat="48.78202" lon="5.17465">
        <ele>270</ele>
        <time>2023-01-06T09:22:40.000Z</time>
      </trkpt>
      <trkpt lat="48.78203" lon="5.17466">
        <ele>270</ele>
        <time>2023-01-06T09:22:41.000Z</time>
      </trkpt>
      <trkpt lat="48.78205" lon="5.17467">
        <ele>270</ele>
        <time>2023-01-06T09:22:42.000Z</time>
      </trkpt>
      <trkpt lat="48.78206" lon="5.17469">
        <ele>270</ele>
        <time>2023-01-06T09:22:43.000Z</time>
      </trkpt>
      <trkpt lat="48.78208" lon="5.1747">
        <ele>270</ele>
        <time>2023-01-06T09:22:44.000Z</time>
      </trkpt>
      <trkpt lat="48.78209" lon="5.17471">
        <ele>270</ele>
        <time>2023-01-06T09:22:45.000Z</time>
      </trkpt>
      <trkpt lat="48.78211" lon="5.17472">
        <ele>270</ele>
        <time>2023-01-06T09:22:46.000Z</time>
      </trkpt>
      <trkpt lat="48.78213" lon="5.17472">
        <ele>270</ele>
        <time>2023-01-06T09:22:47.000Z</time>
      </trkpt>
      <trkpt lat="48.78214" lon="5.17473">
        <ele>270</ele>
        <time>2023-01-06T09:22:48.000Z</time>
      </trkpt>
      <trkpt lat="48.78216" lon="5.17473">
        <ele>270</ele>
        <time>2023-01-06T09:22:49.000Z</time>
      </trkpt>
      <trkpt lat="48.78218" lon="5.17473">
        <ele>270</ele>
        <time>2023-01-06T09:22:50.000Z</time>
      </trkpt>
      <trkpt lat="48.78219" lon="5.17473">
        <ele>270</ele>
        <time>2023-01-06T09:22:51.000Z</time>
      </trkpt>
      <trkpt lat="48.7822" lon="5.17473">
        <ele>270</ele>
        <time>2023-01-06T09:22:52.000Z</time>
      </trkpt>
      <trkpt lat="48.78221" lon="5.17473">
        <ele>270</ele>
        <time>2023-01-06T09:22:53.000Z</time>
      </trkpt>
      <trkpt lat="48.78222" lon="5.17473">
        <ele>270</ele>
        <time>2023-01-06T09:22:54.000Z</time>
      </trkpt>
      <trkpt lat="48.78223" lon="5.17473">
        <ele>270</ele>
        <time>2023-01-06T09:22:55.000Z</time>
      </trkpt>
      <trkpt lat="48.78225" lon="5.17473">
        <ele>270</ele>
        <time>2023-01-06T09:22:56.000Z</time>
      </trkpt>
      <trkpt lat="48.78227" lon="5.17473">
        <ele>270</ele>
        <time>2023-01-06T09:22:57.000Z</time>
      </trkpt>
      <trkpt lat="48.7823" lon="5.17474">
        <ele>270</ele>
        <time>2023-01-06T09:22:58.000Z</time>
      </trkpt>
      <trkpt lat="48.78231" lon="5.17475">
        <ele>270</ele>
        <time>2023-01-06T09:22:59.000Z</time>
      </trkpt>
      <trkpt lat="48.78233" lon="5.17476">
        <ele>270</ele>
        <time>2023-01-06T09:23:00.000Z</time>
      </trkpt>
      <trkpt lat="48.78234" lon="5.17477">
        <ele>270.3</ele>
        <time>2023-01-06T09:23:01.000Z</time>
      </trkpt>
      <trkpt lat="48.78235" lon="5.17478">
        <ele>270.7</ele>
        <time>2023-01-06T09:23:02.000Z</time>
      </trkpt>
      <trkpt lat="48.78236" lon="5.17479">
        <ele>271</ele>
        <time>2023-01-06T09:23:03.000Z</time>
      </trkpt>
      <trkpt lat="48.78238" lon="5.1748">
        <ele>271</ele>
        <time>2023-01-06T09:23:04.000Z</time>
      </trkpt>
      <trkpt lat="48.78239" lon="5.17481">
        <ele>271</ele>
        <time>2023-01-06T09:23:05.000Z</time>
      </trkpt>
      <trkpt lat="48.78241" lon="5.17482">
        <ele>271</ele>
        <time>2023-01-06T09:23:06.000Z</time>
      </trkpt>
      <trkpt lat="48.78243" lon="5.17483">
        <ele>271</ele>
        <time>2023-01-06T09:23:07.000Z</time>
      </trkpt>
      <trkpt lat="48.78244" lon="5.17483">
        <ele>271</ele>
        <time>2023-01-06T09:23:08.000Z</time>
      </trkpt>
      <trkpt lat="48.78246" lon="5.17484">
        <ele>271</ele>
        <time>2023-01-06T09:23:09.000Z</time>
      </trkpt>
      <trkpt lat="48.78247" lon="5.17485">
        <ele>271</ele>
        <time>2023-01-06T09:23:10.000Z</time>
      </trkpt>
      <trkpt lat="48.78248" lon="5.17485">
        <ele>271</ele>
        <time>2023-01-06T09:23:11.000Z</time>
      </trkpt>
      <trkpt lat="48.78249" lon="5.17486">
        <ele>271</ele>
        <time>2023-01-06T09:23:12.000Z</time>
      </trkpt>
      <trkpt lat="48.78251" lon="5.17486">
        <ele>271</ele>
        <time>2023-01-06T09:23:13.000Z</time>
      </trkpt>
      <trkpt lat="48.78252" lon="5.17486">
        <ele>271</ele>
        <time>2023-01-06T09:23:14.000Z</time>
      </trkpt>
      <trkpt lat="48.78254" lon="5.17486">
        <ele>271</ele>
        <time>2023-01-06T09:23:15.000Z</time>
      </trkpt>
      <trkpt lat="48.78256" lon="5.17486">
        <ele>271</ele>
        <time>2023-01-06T09:23:16.000Z</time>
      </trkpt>
      <trkpt lat="48.78259" lon="5.17486">
        <ele>271</ele>
        <time>2023-01-06T09:23:17.000Z</time>
      </trkpt>
      <trkpt lat="48.78261" lon="5.17487">
        <ele>271</ele>
        <time>2023-01-06T09:23:18.000Z</time>
      </trkpt>
      <trkpt lat="48.78263" lon="5.17487">
        <ele>271</ele>
        <time>2023-01-06T09:23:19.000Z</time>
      </trkpt>
      <trkpt lat="48.78265" lon="5.17488">
        <ele>272</ele>
        <time>2023-01-06T09:23:20.000Z</time>
      </trkpt>
      <trkpt lat="48.78267" lon="5.17488">
        <ele>272</ele>
        <time>2023-01-06T09:23:21.000Z</time>
      </trkpt>
      <trkpt lat="48.78269" lon="5.17489">
        <ele>272</ele>
        <time>2023-01-06T09:23:22.000Z</time>
      </trkpt>
      <trkpt lat="48.7827" lon="5.1749">
        <ele>272</ele>
        <time>2023-01-06T09:23:23.000Z</time>
      </trkpt>
      <trkpt lat="48.78272" lon="5.1749">
        <ele>272</ele>
        <time>2023-01-06T09:23:24.000Z</time>
      </trkpt>
      <trkpt lat="48.78274" lon="5.17491">
        <ele>272</ele>
        <time>2023-01-06T09:23:25.000Z</time>
      </trkpt>
      <trkpt lat="48.78276" lon="5.17492">
        <ele>272</ele>
        <time>2023-01-06T09:23:26.000Z</time>
      </trkpt>
      <trkpt lat="48.78277" lon="5.17493">
        <ele>272</ele>
        <time>2023-01-06T09:23:27.000Z</time>
      </trkpt>
      <trkpt lat="48.78279" lon="5.17493">
        <ele>272</ele>
        <time>2023-01-06T09:23:28.000Z</time>
      </trkpt>
      <trkpt lat="48.7828" lon="5.17494">
        <ele>272</ele>
        <time>2023-01-06T09:23:29.000Z</time>
      </trkpt>
      <trkpt lat="48.78282" lon="5.17495">
        <ele>272</ele>
        <time>2023-01-06T09:23:30.000Z</time>
      </trkpt>
      <trkpt lat="48.78283" lon="5.17496">
        <ele>272</ele>
        <time>2023-01-06T09:23:31.000Z</time>
      </trkpt>
      <trkpt lat="48.78284" lon="5.17497">
        <ele>272</ele>
        <time>2023-01-06T09:23:32.000Z</time>
      </trkpt>
      <trkpt lat="48.78286" lon="5.17498">
        <ele>272</ele>
        <time>2023-01-06T09:23:33.000Z</time>
      </trkpt>
      <trkpt lat="48.78287" lon="5.17499">
        <ele>272</ele>
        <time>2023-01-06T09:23:34.000Z</time>
      </trkpt>
      <trkpt lat="48.78288" lon="5.175">
        <ele>272</ele>
        <time>2023-01-06T09:23:35.000Z</time>
      </trkpt>
      <trkpt lat="48.7829" lon="5.17501">
        <ele>272</ele>
        <time>2023-01-06T09:23:36.000Z</time>
      </trkpt>
      <trkpt lat="48.78291" lon="5.17501">
        <ele>272</ele>
        <time>2023-01-06T09:23:37.000Z</time>
      </trkpt>
      <trkpt lat="48.78292" lon="5.17501">
        <ele>273</ele>
        <time>2023-01-06T09:23:38.000Z</time>
      </trkpt>
      <trkpt lat="48.78292" lon="5.17501">
        <ele>273</ele>
        <time>2023-01-06T09:23:39.000Z</time>
      </trkpt>
      <trkpt lat="48.78293" lon="5.17501">
        <ele>273</ele>
        <time>2023-01-06T09:23:40.000Z</time>
      </trkpt>
      <trkpt lat="48.78294" lon="5.17502">
        <ele>273</ele>
        <time>2023-01-06T09:23:41.000Z</time>
      </trkpt>
      <trkpt lat="48.78295" lon="5.17503">
        <ele>273</ele>
        <time>2023-01-06T09:23:42.000Z</time>
      </trkpt>
      <trkpt lat="48.78297" lon="5.17503">
        <ele>273</ele>
        <time>2023-01-06T09:23:43.000Z</time>
      </trkpt>
      <trkpt lat="48.78298" lon="5.17504">
        <ele>273</ele>
        <time>2023-01-06T09:23:44.000Z</time>
      </trkpt>
      <trkpt lat="48.78299" lon="5.17505">
        <ele>273</ele>
        <time>2023-01-06T09:23:45.000Z</time>
      </trkpt>
      <trkpt lat="48.78301" lon="5.17506">
        <ele>273</ele>
        <time>2023-01-06T09:23:46.000Z</time>
      </trkpt>
      <trkpt lat="48.78303" lon="5.17508">
        <ele>273</ele>
        <time>2023-01-06T09:23:47.000Z</time>
      </trkpt>
      <trkpt lat="48.78305" lon="5.17509">
        <ele>273</ele>
        <time>2023-01-06T09:23:48.000Z</time>
      </trkpt>
      <trkpt lat="48.78307" lon="5.1751">
        <ele>273</ele>
        <time>2023-01-06T09:23:49.000Z</time>
      </trkpt>
      <trkpt lat="48.78308" lon="5.17511">
        <ele>273</ele>
        <time>2023-01-06T09:23:50.000Z</time>
      </trkpt>
      <trkpt lat="48.7831" lon="5.17512">
        <ele>273</ele>
        <time>2023-01-06T09:23:51.000Z</time>
      </trkpt>
      <trkpt lat="48.78312" lon="5.17513">
        <ele>273</ele>
        <time>2023-01-06T09:23:52.000Z</time>
      </trkpt>
      <trkpt lat="48.78314" lon="5.17514">
        <ele>273</ele>
        <time>2023-01-06T09:23:53.000Z</time>
      </trkpt>
      <trkpt lat="48.78315" lon="5.17515">
        <ele>273</ele>
        <time>2023-01-06T09:23:54.000Z</time>
      </trkpt>
      <trkpt lat="48.78317" lon="5.17516">
        <ele>273</ele>
        <time>2023-01-06T09:23:55.000Z</time>
      </trkpt>
      <trkpt lat="48.78318" lon="5.17517">
        <ele>273</ele>
        <time>2023-01-06T09:23:56.000Z</time>
      </trkpt>
      <trkpt lat="48.78319" lon="5.17518">
        <ele>273</ele>
        <time>2023-01-06T09:23:57.000Z</time>
      </trkpt>
      <trkpt lat="48.7832" lon="5.17519">
        <ele>273</ele>
        <time>2023-01-06T09:23:58.000Z</time>
      </trkpt>
      <trkpt lat="48.78321" lon="5.1752">
        <ele>273</ele>
        <time>2023-01-06T09:23:59.000Z</time>
      </trkpt>
      <trkpt lat="48.78322" lon="5.1752">
        <ele>273</ele>
        <time>2023-01-06T09:24:00.000Z</time>
      </trkpt>
      <trkpt lat="48.78324" lon="5.17521">
        <ele>273</ele>
        <time>2023-01-06T09:24:01.000Z</time>
      </trkpt>
      <trkpt lat="48.78325" lon="5.17521">
        <ele>273</ele>
        <time>2023-01-06T09:24:02.000Z</time>
      </trkpt>
      <trkpt lat="48.78325" lon="5.17521">
        <ele>273</ele>
        <time>2023-01-06T09:24:03.000Z</time>
      </trkpt>
      <trkpt lat="48.78326" lon="5.17521">
        <ele>273</ele>
        <time>2023-01-06T09:24:04.000Z</time>
      </trkpt>
      <trkpt lat="48.78326" lon="5.17522">
        <ele>273</ele>
        <time>2023-01-06T09:24:05.000Z</time>
      </trkpt>
      <trkpt lat="48.78327" lon="5.17523">
        <ele>273</ele>
        <time>2023-01-06T09:24:06.000Z</time>
      </trkpt>
      <trkpt lat="48.78328" lon="5.17524">
        <ele>273</ele>
        <time>2023-01-06T09:24:07.000Z</time>
      </trkpt>
      <trkpt lat="48.78329" lon="5.17525">
        <ele>273</ele>
        <time>2023-01-06T09:24:08.000Z</time>
      </trkpt>
      <trkpt lat="48.7833" lon="5.17525">
        <ele>273</ele>
        <time>2023-01-06T09:24:09.000Z</time>
      </trkpt>
      <trkpt lat="48.78332" lon="5.17527">
        <ele>274</ele>
        <time>2023-01-06T09:24:10.000Z</time>
      </trkpt>
      <trkpt lat="48.78333" lon="5.17529">
        <ele>274</ele>
        <time>2023-01-06T09:24:11.000Z</time>
      </trkpt>
      <trkpt lat="48.78334" lon="5.1753">
        <ele>274</ele>
        <time>2023-01-06T09:24:12.000Z</time>
      </trkpt>
      <trkpt lat="48.78336" lon="5.17531">
        <ele>274</ele>
        <time>2023-01-06T09:24:13.000Z</time>
      </trkpt>
      <trkpt lat="48.78337" lon="5.17532">
        <ele>274</ele>
        <time>2023-01-06T09:24:14.000Z</time>
      </trkpt>
      <trkpt lat="48.78338" lon="5.17533">
        <ele>274</ele>
        <time>2023-01-06T09:24:15.000Z</time>
      </trkpt>
      <trkpt lat="48.7834" lon="5.17533">
        <ele>274</ele>
        <time>2023-01-06T09:24:16.000Z</time>
      </trkpt>
      <trkpt lat="48.78342" lon="5.17534">
        <ele>274</ele>
        <time>2023-01-06T09:24:17.000Z</time>
      </trkpt>
      <trkpt lat="48.78343" lon="5.17535">
        <ele>274</ele>
        <time>2023-01-06T09:24:18.000Z</time>
      </trkpt>
      <trkpt lat="48.78345" lon="5.17535">
        <ele>274</ele>
        <time>2023-01-06T09:24:19.000Z</time>
      </trkpt>
      <trkpt lat="48.78346" lon="5.17536">
        <ele>274</ele>
        <time>2023-01-06T09:24:20.000Z</time>
      </trkpt>
      <trkpt lat="48.78348" lon="5.17536">
        <ele>274</ele>
        <time>2023-01-06T09:24:21.000Z</time>
      </trkpt>
      <trkpt lat="48.78349" lon="5.17536">
        <ele>274</ele>
        <time>2023-01-06T09:24:22.000Z</time>
      </trkpt>
      <trkpt lat="48.7835" lon="5.17537">
        <ele>274</ele>
        <time>2023-01-06T09:24:23.000Z</time>
      </trkpt>
      <trkpt lat="48.78352" lon="5.17538">
        <ele>274</ele>
        <time>2023-01-06T09:24:24.000Z</time>
      </trkpt>
      <trkpt lat="48.78353" lon="5.17538">
        <ele>274</ele>
        <time>2023-01-06T09:24:25.000Z</time>
      </trkpt>
      <trkpt lat="48.78354" lon="5.17539">
        <ele>274</ele>
        <time>2023-01-06T09:24:26.000Z</time>
      </trkpt>
      <trkpt lat="48.78355" lon="5.17539">
        <ele>274</ele>
        <time>2023-01-06T09:24:27.000Z</time>
      </trkpt>
      <trkpt lat="48.78356" lon="5.1754">
        <ele>274</ele>
        <time>2023-01-06T09:24:28.000Z</time>
      </trkpt>
      <trkpt lat="48.78358" lon="5.1754">
        <ele>274</ele>
        <time>2023-01-06T09:24:29.000Z</time>
      </trkpt>
      <trkpt lat="48.78359" lon="5.17541">
        <ele>274</ele>
        <time>2023-01-06T09:24:30.000Z</time>
      </trkpt>
      <trkpt lat="48.78361" lon="5.17542">
        <ele>274</ele>
        <time>2023-01-06T09:24:31.000Z</time>
      </trkpt>
      <trkpt lat="48.78362" lon="5.17542">
        <ele>274</ele>
        <time>2023-01-06T09:24:32.000Z</time>
      </trkpt>
      <trkpt lat="48.78364" lon="5.17543">
        <ele>274</ele>
        <time>2023-01-06T09:24:33.000Z</time>
      </trkpt>
      <trkpt lat="48.78365" lon="5.17544">
        <ele>274</ele>
        <time>2023-01-06T09:24:34.000Z</time>
      </trkpt>
      <trkpt lat="48.78367" lon="5.17546">
        <ele>274</ele>
        <time>2023-01-06T09:24:35.000Z</time>
      </trkpt>
      <trkpt lat="48.78369" lon="5.17547">
        <ele>274</ele>
        <time>2023-01-06T09:24:36.000Z</time>
      </trkpt>
      <trkpt lat="48.78371" lon="5.17548">
        <ele>274</ele>
        <time>2023-01-06T09:24:37.000Z</time>
      </trkpt>
      <trkpt lat="48.78372" lon="5.1755">
        <ele>274</ele>
        <time>2023-01-06T09:24:38.000Z</time>
      </trkpt>
      <trkpt lat="48.78373" lon="5.17551">
        <ele>274.3</ele>
        <time>2023-01-06T09:24:39.000Z</time>
      </trkpt>
      <trkpt lat="48.78375" lon="5.17552">
        <ele>274.7</ele>
        <time>2023-01-06T09:24:40.000Z</time>
      </trkpt>
      <trkpt lat="48.78376" lon="5.17553">
        <ele>275</ele>
        <time>2023-01-06T09:24:41.000Z</time>
      </trkpt>
      <trkpt lat="48.78377" lon="5.17554">
        <ele>275</ele>
        <time>2023-01-06T09:24:42.000Z</time>
      </trkpt>
      <trkpt lat="48.78378" lon="5.17555">
        <ele>275</ele>
        <time>2023-01-06T09:24:43.000Z</time>
      </trkpt>
      <trkpt lat="48.78379" lon="5.17556">
        <ele>275</ele>
        <time>2023-01-06T09:24:44.000Z</time>
      </trkpt>
      <trkpt lat="48.78381" lon="5.17557">
        <ele>275</ele>
        <time>2023-01-06T09:24:45.000Z</time>
      </trkpt>
      <trkpt lat="48.78382" lon="5.17558">
        <ele>275</ele>
        <time>2023-01-06T09:24:46.000Z</time>
      </trkpt>
      <trkpt lat="48.78383" lon="5.17559">
        <ele>275</ele>
        <time>2023-01-06T09:24:47.000Z</time>
      </trkpt>
      <trkpt lat="48.78384" lon="5.1756">
        <ele>275</ele>
        <time>2023-01-06T09:24:48.000Z</time>
      </trkpt>
      <trkpt lat="48.78386" lon="5.17561">
        <ele>275</ele>
        <time>2023-01-06T09:24:49.000Z</time>
      </trkpt>
      <trkpt lat="48.78387" lon="5.17562">
        <ele>275</ele>
        <time>2023-01-06T09:24:50.000Z</time>
      </trkpt>
      <trkpt lat="48.78389" lon="5.17563">
        <ele>275</ele>
        <time>2023-01-06T09:24:51.000Z</time>
      </trkpt>
      <trkpt lat="48.78391" lon="5.17564">
        <ele>275</ele>
        <time>2023-01-06T09:24:52.000Z</time>
      </trkpt>
      <trkpt lat="48.78392" lon="5.17565">
        <ele>275</ele>
        <time>2023-01-06T09:24:53.000Z</time>
      </trkpt>
      <trkpt lat="48.78393" lon="5.17566">
        <ele>275</ele>
        <time>2023-01-06T09:24:54.000Z</time>
      </trkpt>
      <trkpt lat="48.78395" lon="5.17567">
        <ele>275</ele>
        <time>2023-01-06T09:24:55.000Z</time>
      </trkpt>
      <trkpt lat="48.78396" lon="5.17568">
        <ele>275</ele>
        <time>2023-01-06T09:24:56.000Z</time>
      </trkpt>
      <trkpt lat="48.78397" lon="5.1757">
        <ele>275</ele>
        <time>2023-01-06T09:24:57.000Z</time>
      </trkpt>
      <trkpt lat="48.78399" lon="5.17571">
        <ele>275</ele>
        <time>2023-01-06T09:24:58.000Z</time>
      </trkpt>
      <trkpt lat="48.784" lon="5.17572">
        <ele>275</ele>
        <time>2023-01-06T09:24:59.000Z</time>
      </trkpt>
      <trkpt lat="48.78402" lon="5.17573">
        <ele>275</ele>
        <time>2023-01-06T09:25:00.000Z</time>
      </trkpt>
      <trkpt lat="48.78402" lon="5.17574">
        <ele>275</ele>
        <time>2023-01-06T09:25:01.000Z</time>
      </trkpt>
      <trkpt lat="48.78403" lon="5.17576">
        <ele>275</ele>
        <time>2023-01-06T09:25:02.000Z</time>
      </trkpt>
      <trkpt lat="48.78405" lon="5.17576">
        <ele>275</ele>
        <time>2023-01-06T09:25:03.000Z</time>
      </trkpt>
      <trkpt lat="48.78406" lon="5.17577">
        <ele>275</ele>
        <time>2023-01-06T09:25:04.000Z</time>
      </trkpt>
      <trkpt lat="48.78407" lon="5.17578">
        <ele>275</ele>
        <time>2023-01-06T09:25:05.000Z</time>
      </trkpt>
      <trkpt lat="48.78409" lon="5.17579">
        <ele>275</ele>
        <time>2023-01-06T09:25:06.000Z</time>
      </trkpt>
      <trkpt lat="48.7841" lon="5.1758">
        <ele>275</ele>
        <time>2023-01-06T09:25:07.000Z</time>
      </trkpt>
      <trkpt lat="48.78412" lon="5.17581">
        <ele>275</ele>
        <time>2023-01-06T09:25:08.000Z</time>
      </trkpt>
      <trkpt lat="48.78413" lon="5.17582">
        <ele>275</ele>
        <time>2023-01-06T09:25:09.000Z</time>
      </trkpt>
      <trkpt lat="48.78415" lon="5.17583">
        <ele>275</ele>
        <time>2023-01-06T09:25:10.000Z</time>
      </trkpt>
      <trkpt lat="48.78416" lon="5.17584">
        <ele>275</ele>
        <time>2023-01-06T09:25:11.000Z</time>
      </trkpt>
      <trkpt lat="48.78417" lon="5.17585">
        <ele>276</ele>
        <time>2023-01-06T09:25:12.000Z</time>
      </trkpt>
      <trkpt lat="48.78419" lon="5.17587">
        <ele>276</ele>
        <time>2023-01-06T09:25:13.000Z</time>
      </trkpt>
      <trkpt lat="48.7842" lon="5.17588">
        <ele>276</ele>
        <time>2023-01-06T09:25:14.000Z</time>
      </trkpt>
      <trkpt lat="48.78421" lon="5.17588">
        <ele>276</ele>
        <time>2023-01-06T09:25:15.000Z</time>
      </trkpt>
      <trkpt lat="48.78422" lon="5.17589">
        <ele>276</ele>
        <time>2023-01-06T09:25:16.000Z</time>
      </trkpt>
      <trkpt lat="48.78423" lon="5.1759">
        <ele>276</ele>
        <time>2023-01-06T09:25:17.000Z</time>
      </trkpt>
      <trkpt lat="48.78424" lon="5.17591">
        <ele>276</ele>
        <time>2023-01-06T09:25:18.000Z</time>
      </trkpt>
      <trkpt lat="48.78425" lon="5.17592">
        <ele>276</ele>
        <time>2023-01-06T09:25:19.000Z</time>
      </trkpt>
      <trkpt lat="48.78426" lon="5.17593">
        <ele>276</ele>
        <time>2023-01-06T09:25:20.000Z</time>
      </trkpt>
      <trkpt lat="48.78426" lon="5.17594">
        <ele>276</ele>
        <time>2023-01-06T09:25:21.000Z</time>
      </trkpt>
      <trkpt lat="48.78427" lon="5.17595">
        <ele>276</ele>
        <time>2023-01-06T09:25:22.000Z</time>
      </trkpt>
      <trkpt lat="48.78428" lon="5.17597">
        <ele>276</ele>
        <time>2023-01-06T09:25:23.000Z</time>
      </trkpt>
      <trkpt lat="48.7843" lon="5.17598">
        <ele>276</ele>
        <time>2023-01-06T09:25:24.000Z</time>
      </trkpt>
      <trkpt lat="48.78431" lon="5.176">
        <ele>276</ele>
        <time>2023-01-06T09:25:25.000Z</time>
      </trkpt>
      <trkpt lat="48.78433" lon="5.17601">
        <ele>276</ele>
        <time>2023-01-06T09:25:26.000Z</time>
      </trkpt>
      <trkpt lat="48.78435" lon="5.17603">
        <ele>276</ele>
        <time>2023-01-06T09:25:27.000Z</time>
      </trkpt>
      <trkpt lat="48.78436" lon="5.17604">
        <ele>276</ele>
        <time>2023-01-06T09:25:28.000Z</time>
      </trkpt>
      <trkpt lat="48.78438" lon="5.17606">
        <ele>276</ele>
        <time>2023-01-06T09:25:29.000Z</time>
      </trkpt>
      <trkpt lat="48.78439" lon="5.17607">
        <ele>276</ele>
        <time>2023-01-06T09:25:30.000Z</time>
      </trkpt>
      <trkpt lat="48.78441" lon="5.17609">
        <ele>276</ele>
        <time>2023-01-06T09:25:31.000Z</time>
      </trkpt>
      <trkpt lat="48.78442" lon="5.1761">
        <ele>276</ele>
        <time>2023-01-06T09:25:32.000Z</time>
      </trkpt>
      <trkpt lat="48.78444" lon="5.17611">
        <ele>276</ele>
        <time>2023-01-06T09:25:33.000Z</time>
      </trkpt>
      <trkpt lat="48.78445" lon="5.17613">
        <ele>276</ele>
        <time>2023-01-06T09:25:34.000Z</time>
      </trkpt>
      <trkpt lat="48.78447" lon="5.17614">
        <ele>276</ele>
        <time>2023-01-06T09:25:35.000Z</time>
      </trkpt>
      <trkpt lat="48.78448" lon="5.17616">
        <ele>276</ele>
        <time>2023-01-06T09:25:36.000Z</time>
      </trkpt>
      <trkpt lat="48.7845" lon="5.17617">
        <ele>276</ele>
        <time>2023-01-06T09:25:37.000Z</time>
      </trkpt>
      <trkpt lat="48.78452" lon="5.17619">
        <ele>276</ele>
        <time>2023-01-06T09:25:38.000Z</time>
      </trkpt>
      <trkpt lat="48.78453" lon="5.1762">
        <ele>276</ele>
        <time>2023-01-06T09:25:39.000Z</time>
      </trkpt>
      <trkpt lat="48.78454" lon="5.17621">
        <ele>276</ele>
        <time>2023-01-06T09:25:40.000Z</time>
      </trkpt>
      <trkpt lat="48.78456" lon="5.17623">
        <ele>276</ele>
        <time>2023-01-06T09:25:41.000Z</time>
      </trkpt>
      <trkpt lat="48.78458" lon="5.17625">
        <ele>276</ele>
        <time>2023-01-06T09:25:42.000Z</time>
      </trkpt>
      <trkpt lat="48.78459" lon="5.17626">
        <ele>276</ele>
        <time>2023-01-06T09:25:43.000Z</time>
      </trkpt>
      <trkpt lat="48.78461" lon="5.17628">
        <ele>276</ele>
        <time>2023-01-06T09:25:44.000Z</time>
      </trkpt>
      <trkpt lat="48.78462" lon="5.1763">
        <ele>276</ele>
        <time>2023-01-06T09:25:45.000Z</time>
      </trkpt>
      <trkpt lat="48.78463" lon="5.17631">
        <ele>276</ele>
        <time>2023-01-06T09:25:46.000Z</time>
      </trkpt>
      <trkpt lat="48.78464" lon="5.17633">
        <ele>276</ele>
        <time>2023-01-06T09:25:47.000Z</time>
      </trkpt>
      <trkpt lat="48.78466" lon="5.17635">
        <ele>276</ele>
        <time>2023-01-06T09:25:48.000Z</time>
      </trkpt>
      <trkpt lat="48.78467" lon="5.17637">
        <ele>276</ele>
        <time>2023-01-06T09:25:49.000Z</time>
      </trkpt>
      <trkpt lat="48.78468" lon="5.17639">
        <ele>276</ele>
        <time>2023-01-06T09:25:50.000Z</time>
      </trkpt>
      <trkpt lat="48.78469" lon="5.17642">
        <ele>276</ele>
        <time>2023-01-06T09:25:51.000Z</time>
      </trkpt>
      <trkpt lat="48.78471" lon="5.17644">
        <ele>276</ele>
        <time>2023-01-06T09:25:52.000Z</time>
      </trkpt>
      <trkpt lat="48.78472" lon="5.17647">
        <ele>276</ele>
        <time>2023-01-06T09:25:53.000Z</time>
      </trkpt>
      <trkpt lat="48.78473" lon="5.17649">
        <ele>276</ele>
        <time>2023-01-06T09:25:54.000Z</time>
      </trkpt>
      <trkpt lat="48.78474" lon="5.17652">
        <ele>276</ele>
        <time>2023-01-06T09:25:55.000Z</time>
      </trkpt>
      <trkpt lat="48.78475" lon="5.17654">
        <ele>276</ele>
        <time>2023-01-06T09:25:56.000Z</time>
      </trkpt>
      <trkpt lat="48.78476" lon="5.17656">
        <ele>276</ele>
        <time>2023-01-06T09:25:57.000Z</time>
      </trkpt>
      <trkpt lat="48.78478" lon="5.17657">
        <ele>276</ele>
        <time>2023-01-06T09:25:58.000Z</time>
      </trkpt>
      <trkpt lat="48.7848" lon="5.17659">
        <ele>276</ele>
        <time>2023-01-06T09:25:59.000Z</time>
      </trkpt>
      <trkpt lat="48.78482" lon="5.1766">
        <ele>276</ele>
        <time>2023-01-06T09:26:00.000Z</time>
      </trkpt>
      <trkpt lat="48.78483" lon="5.17662">
        <ele>276</ele>
        <time>2023-01-06T09:26:01.000Z</time>
      </trkpt>
      <trkpt lat="48.78485" lon="5.17664">
        <ele>276</ele>
        <time>2023-01-06T09:26:02.000Z</time>
      </trkpt>
      <trkpt lat="48.78486" lon="5.17665">
        <ele>276</ele>
        <time>2023-01-06T09:26:03.000Z</time>
      </trkpt>
      <trkpt lat="48.78487" lon="5.17667">
        <ele>276</ele>
        <time>2023-01-06T09:26:04.000Z</time>
      </trkpt>
      <trkpt lat="48.78488" lon="5.17668">
        <ele>276</ele>
        <time>2023-01-06T09:26:05.000Z</time>
      </trkpt>
      <trkpt lat="48.78489" lon="5.1767">
        <ele>276</ele>
        <time>2023-01-06T09:26:06.000Z</time>
      </trkpt>
      <trkpt lat="48.7849" lon="5.17671">
        <ele>276</ele>
        <time>2023-01-06T09:26:07.000Z</time>
      </trkpt>
      <trkpt lat="48.7849" lon="5.17672">
        <ele>277</ele>
        <time>2023-01-06T09:26:08.000Z</time>
      </trkpt>
      <trkpt lat="48.78491" lon="5.17674">
        <ele>277</ele>
        <time>2023-01-06T09:26:09.000Z</time>
      </trkpt>
      <trkpt lat="48.78492" lon="5.17675">
        <ele>277</ele>
        <time>2023-01-06T09:26:10.000Z</time>
      </trkpt>
      <trkpt lat="48.78493" lon="5.17676">
        <ele>277</ele>
        <time>2023-01-06T09:26:11.000Z</time>
      </trkpt>
      <trkpt lat="48.78495" lon="5.17678">
        <ele>277</ele>
        <time>2023-01-06T09:26:12.000Z</time>
      </trkpt>
      <trkpt lat="48.78496" lon="5.17679">
        <ele>277</ele>
        <time>2023-01-06T09:26:13.000Z</time>
      </trkpt>
      <trkpt lat="48.78498" lon="5.1768">
        <ele>277</ele>
        <time>2023-01-06T09:26:14.000Z</time>
      </trkpt>
      <trkpt lat="48.78499" lon="5.17682">
        <ele>277</ele>
        <time>2023-01-06T09:26:15.000Z</time>
      </trkpt>
      <trkpt lat="48.785" lon="5.17683">
        <ele>277</ele>
        <time>2023-01-06T09:26:16.000Z</time>
      </trkpt>
      <trkpt lat="48.78502" lon="5.17684">
        <ele>277</ele>
        <time>2023-01-06T09:26:17.000Z</time>
      </trkpt>
      <trkpt lat="48.78503" lon="5.17685">
        <ele>277</ele>
        <time>2023-01-06T09:26:18.000Z</time>
      </trkpt>
      <trkpt lat="48.78503" lon="5.17686">
        <ele>277</ele>
        <time>2023-01-06T09:26:19.000Z</time>
      </trkpt>
      <trkpt lat="48.78504" lon="5.17687">
        <ele>277</ele>
        <time>2023-01-06T09:26:20.000Z</time>
      </trkpt>
      <trkpt lat="48.78504" lon="5.17688">
        <ele>277</ele>
        <time>2023-01-06T09:26:21.000Z</time>
      </trkpt>
      <trkpt lat="48.78505" lon="5.17689">
        <ele>277</ele>
        <time>2023-01-06T09:26:22.000Z</time>
      </trkpt>
      <trkpt lat="48.78506" lon="5.1769">
        <ele>277</ele>
        <time>2023-01-06T09:26:23.000Z</time>
      </trkpt>
      <trkpt lat="48.78506" lon="5.17691">
        <ele>277</ele>
        <time>2023-01-06T09:26:24.000Z</time>
      </trkpt>
      <trkpt lat="48.78507" lon="5.17692">
        <ele>277</ele>
        <time>2023-01-06T09:26:25.000Z</time>
      </trkpt>
      <trkpt lat="48.78508" lon="5.17693">
        <ele>277</ele>
        <time>2023-01-06T09:26:26.000Z</time>
      </trkpt>
      <trkpt lat="48.78509" lon="5.17694">
        <ele>277</ele>
        <time>2023-01-06T09:26:27.000Z</time>
      </trkpt>
      <trkpt lat="48.78509" lon="5.17695">
        <ele>277</ele>
        <time>2023-01-06T09:26:28.000Z</time>
      </trkpt>
      <trkpt lat="48.7851" lon="5.17696">
        <ele>277</ele>
        <time>2023-01-06T09:26:29.000Z</time>
      </trkpt>
      <trkpt lat="48.78511" lon="5.17697">
        <ele>277</ele>
        <time>2023-01-06T09:26:30.000Z</time>
      </trkpt>
      <trkpt lat="48.78512" lon="5.17699">
        <ele>277</ele>
        <time>2023-01-06T09:26:31.000Z</time>
      </trkpt>
      <trkpt lat="48.78513" lon="5.177">
        <ele>277</ele>
        <time>2023-01-06T09:26:32.000Z</time>
      </trkpt>
      <trkpt lat="48.78514" lon="5.17702">
        <ele>277</ele>
        <time>2023-01-06T09:26:33.000Z</time>
      </trkpt>
      <trkpt lat="48.78515" lon="5.17703">
        <ele>277</ele>
        <time>2023-01-06T09:26:34.000Z</time>
      </trkpt>
      <trkpt lat="48.78515" lon="5.17705">
        <ele>277</ele>
        <time>2023-01-06T09:26:35.000Z</time>
      </trkpt>
      <trkpt lat="48.78516" lon="5.17706">
        <ele>277</ele>
        <time>2023-01-06T09:26:36.000Z</time>
      </trkpt>
      <trkpt lat="48.78517" lon="5.17708">
        <ele>277</ele>
        <time>2023-01-06T09:26:37.000Z</time>
      </trkpt>
      <trkpt lat="48.78518" lon="5.1771">
        <ele>277</ele>
        <time>2023-01-06T09:26:38.000Z</time>
      </trkpt>
      <trkpt lat="48.78519" lon="5.17712">
        <ele>277</ele>
        <time>2023-01-06T09:26:39.000Z</time>
      </trkpt>
      <trkpt lat="48.7852" lon="5.17714">
        <ele>277</ele>
        <time>2023-01-06T09:26:40.000Z</time>
      </trkpt>
      <trkpt lat="48.78521" lon="5.17717">
        <ele>277</ele>
        <time>2023-01-06T09:26:41.000Z</time>
      </trkpt>
      <trkpt lat="48.78522" lon="5.1772">
        <ele>277</ele>
        <time>2023-01-06T09:26:42.000Z</time>
      </trkpt>
      <trkpt lat="48.78523" lon="5.17723">
        <ele>277</ele>
        <time>2023-01-06T09:26:43.000Z</time>
      </trkpt>
      <trkpt lat="48.78524" lon="5.17725">
        <ele>277</ele>
        <time>2023-01-06T09:26:44.000Z</time>
      </trkpt>
      <trkpt lat="48.78525" lon="5.17728">
        <ele>277</ele>
        <time>2023-01-06T09:26:45.000Z</time>
      </trkpt>
      <trkpt lat="48.78526" lon="5.17731">
        <ele>277</ele>
        <time>2023-01-06T09:26:46.000Z</time>
      </trkpt>
      <trkpt lat="48.78527" lon="5.17733">
        <ele>277</ele>
        <time>2023-01-06T09:26:47.000Z</time>
      </trkpt>
      <trkpt lat="48.78529" lon="5.17734">
        <ele>277</ele>
        <time>2023-01-06T09:26:48.000Z</time>
      </trkpt>
      <trkpt lat="48.7853" lon="5.17736">
        <ele>277</ele>
        <time>2023-01-06T09:26:49.000Z</time>
      </trkpt>
      <trkpt lat="48.78532" lon="5.17737">
        <ele>277</ele>
        <time>2023-01-06T09:26:50.000Z</time>
      </trkpt>
      <trkpt lat="48.78533" lon="5.17738">
        <ele>277</ele>
        <time>2023-01-06T09:26:51.000Z</time>
      </trkpt>
      <trkpt lat="48.78534" lon="5.17739">
        <ele>277</ele>
        <time>2023-01-06T09:26:52.000Z</time>
      </trkpt>
      <trkpt lat="48.78535" lon="5.17739">
        <ele>277</ele>
        <time>2023-01-06T09:26:53.000Z</time>
      </trkpt>
      <trkpt lat="48.78536" lon="5.17739">
        <ele>277</ele>
        <time>2023-01-06T09:26:54.000Z</time>
      </trkpt>
      <trkpt lat="48.78536" lon="5.17739">
        <ele>277</ele>
        <time>2023-01-06T09:26:55.000Z</time>
      </trkpt>
      <trkpt lat="48.78537" lon="5.17739">
        <ele>277</ele>
        <time>2023-01-06T09:26:56.000Z</time>
      </trkpt>
      <trkpt lat="48.78537" lon="5.1774">
        <ele>277</ele>
        <time>2023-01-06T09:26:57.000Z</time>
      </trkpt>
      <trkpt lat="48.78537" lon="5.17741">
        <ele>277</ele>
        <time>2023-01-06T09:26:58.000Z</time>
      </trkpt>
      <trkpt lat="48.78538" lon="5.17742">
        <ele>277</ele>
        <time>2023-01-06T09:26:59.000Z</time>
      </trkpt>
      <trkpt lat="48.78538" lon="5.17743">
        <ele>277</ele>
        <time>2023-01-06T09:27:00.000Z</time>
      </trkpt>
      <trkpt lat="48.78539" lon="5.17746">
        <ele>277</ele>
        <time>2023-01-06T09:27:01.000Z</time>
      </trkpt>
      <trkpt lat="48.7854" lon="5.17748">
        <ele>277</ele>
        <time>2023-01-06T09:27:02.000Z</time>
      </trkpt>
      <trkpt lat="48.7854" lon="5.17751">
        <ele>277</ele>
        <time>2023-01-06T09:27:03.000Z</time>
      </trkpt>
      <trkpt lat="48.78541" lon="5.17754">
        <ele>277</ele>
        <time>2023-01-06T09:27:04.000Z</time>
      </trkpt>
      <trkpt lat="48.78543" lon="5.17757">
        <ele>277</ele>
        <time>2023-01-06T09:27:05.000Z</time>
      </trkpt>
      <trkpt lat="48.78544" lon="5.17761">
        <ele>277</ele>
        <time>2023-01-06T09:27:06.000Z</time>
      </trkpt>
      <trkpt lat="48.78545" lon="5.17764">
        <ele>277</ele>
        <time>2023-01-06T09:27:07.000Z</time>
      </trkpt>
      <trkpt lat="48.78546" lon="5.17767">
        <ele>277</ele>
        <time>2023-01-06T09:27:08.000Z</time>
      </trkpt>
      <trkpt lat="48.78547" lon="5.1777">
        <ele>277</ele>
        <time>2023-01-06T09:27:09.000Z</time>
      </trkpt>
      <trkpt lat="48.78548" lon="5.17772">
        <ele>277</ele>
        <time>2023-01-06T09:27:10.000Z</time>
      </trkpt>
      <trkpt lat="48.78549" lon="5.17774">
        <ele>277</ele>
        <time>2023-01-06T09:27:11.000Z</time>
      </trkpt>
      <trkpt lat="48.7855" lon="5.17776">
        <ele>277</ele>
        <time>2023-01-06T09:27:12.000Z</time>
      </trkpt>
      <trkpt lat="48.78551" lon="5.17778">
        <ele>277</ele>
        <time>2023-01-06T09:27:13.000Z</time>
      </trkpt>
      <trkpt lat="48.78551" lon="5.17779">
        <ele>277</ele>
        <time>2023-01-06T09:27:14.000Z</time>
      </trkpt>
      <trkpt lat="48.78552" lon="5.1778">
        <ele>277</ele>
        <time>2023-01-06T09:27:15.000Z</time>
      </trkpt>
      <trkpt lat="48.78552" lon="5.17781">
        <ele>277</ele>
        <time>2023-01-06T09:27:16.000Z</time>
      </trkpt>
      <trkpt lat="48.78553" lon="5.17781">
        <ele>277</ele>
        <time>2023-01-06T09:27:17.000Z</time>
      </trkpt>
      <trkpt lat="48.78553" lon="5.17782">
        <ele>277</ele>
        <time>2023-01-06T09:27:18.000Z</time>
      </trkpt>
      <trkpt lat="48.78554" lon="5.17783">
        <ele>277</ele>
        <time>2023-01-06T09:27:19.000Z</time>
      </trkpt>
      <trkpt lat="48.78554" lon="5.17783">
        <ele>277</ele>
        <time>2023-01-06T09:27:20.000Z</time>
      </trkpt>
      <trkpt lat="48.78555" lon="5.17784">
        <ele>277</ele>
        <time>2023-01-06T09:27:21.000Z</time>
      </trkpt>
      <trkpt lat="48.78555" lon="5.17785">
        <ele>277</ele>
        <time>2023-01-06T09:27:22.000Z</time>
      </trkpt>
      <trkpt lat="48.78556" lon="5.17786">
        <ele>277</ele>
        <time>2023-01-06T09:27:23.000Z</time>
      </trkpt>
      <trkpt lat="48.78556" lon="5.17787">
        <ele>277</ele>
        <time>2023-01-06T09:27:24.000Z</time>
      </trkpt>
      <trkpt lat="48.78557" lon="5.17788">
        <ele>277</ele>
        <time>2023-01-06T09:27:25.000Z</time>
      </trkpt>
      <trkpt lat="48.78557" lon="5.17789">
        <ele>277</ele>
        <time>2023-01-06T09:27:26.000Z</time>
      </trkpt>
      <trkpt lat="48.78558" lon="5.17791">
        <ele>277</ele>
        <time>2023-01-06T09:27:27.000Z</time>
      </trkpt>
      <trkpt lat="48.78559" lon="5.17793">
        <ele>277</ele>
        <time>2023-01-06T09:27:28.000Z</time>
      </trkpt>
      <trkpt lat="48.78561" lon="5.17795">
        <ele>277</ele>
        <time>2023-01-06T09:27:29.000Z</time>
      </trkpt>
      <trkpt lat="48.78562" lon="5.17797">
        <ele>277</ele>
        <time>2023-01-06T09:27:30.000Z</time>
      </trkpt>
      <trkpt lat="48.78563" lon="5.17799">
        <ele>277</ele>
        <time>2023-01-06T09:27:31.000Z</time>
      </trkpt>
      <trkpt lat="48.78564" lon="5.17801">
        <ele>277</ele>
        <time>2023-01-06T09:27:32.000Z</time>
      </trkpt>
      <trkpt lat="48.78565" lon="5.17803">
        <ele>277</ele>
        <time>2023-01-06T09:27:33.000Z</time>
      </trkpt>
      <trkpt lat="48.78566" lon="5.17805">
        <ele>277</ele>
        <time>2023-01-06T09:27:34.000Z</time>
      </trkpt>
      <trkpt lat="48.78567" lon="5.17807">
        <ele>277.3</ele>
        <time>2023-01-06T09:27:35.000Z</time>
      </trkpt>
      <trkpt lat="48.78569" lon="5.17809">
        <ele>277.7</ele>
        <time>2023-01-06T09:27:36.000Z</time>
      </trkpt>
      <trkpt lat="48.7857" lon="5.17811">
        <ele>278</ele>
        <time>2023-01-06T09:27:37.000Z</time>
      </trkpt>
      <trkpt lat="48.78571" lon="5.17813">
        <ele>278</ele>
        <time>2023-01-06T09:27:38.000Z</time>
      </trkpt>
      <trkpt lat="48.78572" lon="5.17815">
        <ele>278</ele>
        <time>2023-01-06T09:27:39.000Z</time>
      </trkpt>
      <trkpt lat="48.78573" lon="5.17818">
        <ele>278</ele>
        <time>2023-01-06T09:27:40.000Z</time>
      </trkpt>
      <trkpt lat="48.78574" lon="5.1782">
        <ele>278</ele>
        <time>2023-01-06T09:27:41.000Z</time>
      </trkpt>
      <trkpt lat="48.78575" lon="5.17823">
        <ele>278</ele>
        <time>2023-01-06T09:27:42.000Z</time>
      </trkpt>
      <trkpt lat="48.78576" lon="5.17825">
        <ele>278</ele>
        <time>2023-01-06T09:27:43.000Z</time>
      </trkpt>
      <trkpt lat="48.78577" lon="5.17828">
        <ele>278</ele>
        <time>2023-01-06T09:27:44.000Z</time>
      </trkpt>
      <trkpt lat="48.78578" lon="5.17831">
        <ele>278</ele>
        <time>2023-01-06T09:27:45.000Z</time>
      </trkpt>
      <trkpt lat="48.78579" lon="5.17834">
        <ele>278</ele>
        <time>2023-01-06T09:27:46.000Z</time>
      </trkpt>
      <trkpt lat="48.7858" lon="5.17837">
        <ele>278</ele>
        <time>2023-01-06T09:27:47.000Z</time>
      </trkpt>
      <trkpt lat="48.78581" lon="5.1784">
        <ele>278</ele>
        <time>2023-01-06T09:27:48.000Z</time>
      </trkpt>
      <trkpt lat="48.78582" lon="5.17844">
        <ele>278</ele>
        <time>2023-01-06T09:27:49.000Z</time>
      </trkpt>
      <trkpt lat="48.78583" lon="5.17846">
        <ele>278</ele>
        <time>2023-01-06T09:27:50.000Z</time>
      </trkpt>
      <trkpt lat="48.78584" lon="5.17848">
        <ele>278</ele>
        <time>2023-01-06T09:27:51.000Z</time>
      </trkpt>
      <trkpt lat="48.78585" lon="5.17849">
        <ele>278</ele>
        <time>2023-01-06T09:27:52.000Z</time>
      </trkpt>
      <trkpt lat="48.78586" lon="5.17851">
        <ele>278</ele>
        <time>2023-01-06T09:27:53.000Z</time>
      </trkpt>
      <trkpt lat="48.78586" lon="5.17852">
        <ele>278</ele>
        <time>2023-01-06T09:27:54.000Z</time>
      </trkpt>
      <trkpt lat="48.78587" lon="5.17854">
        <ele>278</ele>
        <time>2023-01-06T09:27:55.000Z</time>
      </trkpt>
      <trkpt lat="48.78587" lon="5.17855">
        <ele>278</ele>
        <time>2023-01-06T09:27:56.000Z</time>
      </trkpt>
      <trkpt lat="48.78587" lon="5.17857">
        <ele>278</ele>
        <time>2023-01-06T09:27:57.000Z</time>
      </trkpt>
      <trkpt lat="48.78588" lon="5.17859">
        <ele>278</ele>
        <time>2023-01-06T09:27:58.000Z</time>
      </trkpt>
      <trkpt lat="48.78589" lon="5.1786">
        <ele>278</ele>
        <time>2023-01-06T09:27:59.000Z</time>
      </trkpt>
      <trkpt lat="48.78589" lon="5.17862">
        <ele>278</ele>
        <time>2023-01-06T09:28:00.000Z</time>
      </trkpt>
      <trkpt lat="48.7859" lon="5.17864">
        <ele>278</ele>
        <time>2023-01-06T09:28:01.000Z</time>
      </trkpt>
      <trkpt lat="48.78591" lon="5.17865">
        <ele>278</ele>
        <time>2023-01-06T09:28:02.000Z</time>
      </trkpt>
      <trkpt lat="48.78591" lon="5.17867">
        <ele>278</ele>
        <time>2023-01-06T09:28:03.000Z</time>
      </trkpt>
      <trkpt lat="48.78592" lon="5.17868">
        <ele>278</ele>
        <time>2023-01-06T09:28:04.000Z</time>
      </trkpt>
      <trkpt lat="48.78593" lon="5.1787">
        <ele>278</ele>
        <time>2023-01-06T09:28:05.000Z</time>
      </trkpt>
      <trkpt lat="48.78594" lon="5.17871">
        <ele>278</ele>
        <time>2023-01-06T09:28:06.000Z</time>
      </trkpt>
      <trkpt lat="48.78594" lon="5.17873">
        <ele>278</ele>
        <time>2023-01-06T09:28:07.000Z</time>
      </trkpt>
      <trkpt lat="48.78595" lon="5.17874">
        <ele>278</ele>
        <time>2023-01-06T09:28:08.000Z</time>
      </trkpt>
      <trkpt lat="48.78596" lon="5.17876">
        <ele>278</ele>
        <time>2023-01-06T09:28:09.000Z</time>
      </trkpt>
      <trkpt lat="48.78596" lon="5.17877">
        <ele>278</ele>
        <time>2023-01-06T09:28:10.000Z</time>
      </trkpt>
      <trkpt lat="48.78598" lon="5.17879">
        <ele>278</ele>
        <time>2023-01-06T09:28:11.000Z</time>
      </trkpt>
      <trkpt lat="48.78598" lon="5.1788">
        <ele>278</ele>
        <time>2023-01-06T09:28:12.000Z</time>
      </trkpt>
      <trkpt lat="48.78599" lon="5.17882">
        <ele>278</ele>
        <time>2023-01-06T09:28:13.000Z</time>
      </trkpt>
      <trkpt lat="48.786" lon="5.17883">
        <ele>278</ele>
        <time>2023-01-06T09:28:14.000Z</time>
      </trkpt>
      <trkpt lat="48.78601" lon="5.17885">
        <ele>278</ele>
        <time>2023-01-06T09:28:15.000Z</time>
      </trkpt>
      <trkpt lat="48.78603" lon="5.17887">
        <ele>278</ele>
        <time>2023-01-06T09:28:16.000Z</time>
      </trkpt>
      <trkpt lat="48.78604" lon="5.1789">
        <ele>278</ele>
        <time>2023-01-06T09:28:17.000Z</time>
      </trkpt>
      <trkpt lat="48.78605" lon="5.17892">
        <ele>278</ele>
        <time>2023-01-06T09:28:18.000Z</time>
      </trkpt>
      <trkpt lat="48.78607" lon="5.17895">
        <ele>278</ele>
        <time>2023-01-06T09:28:19.000Z</time>
      </trkpt>
      <trkpt lat="48.78608" lon="5.17897">
        <ele>278</ele>
        <time>2023-01-06T09:28:20.000Z</time>
      </trkpt>
      <trkpt lat="48.78609" lon="5.179">
        <ele>278</ele>
        <time>2023-01-06T09:28:21.000Z</time>
      </trkpt>
      <trkpt lat="48.7861" lon="5.17903">
        <ele>278</ele>
        <time>2023-01-06T09:28:22.000Z</time>
      </trkpt>
      <trkpt lat="48.78611" lon="5.17905">
        <ele>278</ele>
        <time>2023-01-06T09:28:23.000Z</time>
      </trkpt>
      <trkpt lat="48.78612" lon="5.17908">
        <ele>278</ele>
        <time>2023-01-06T09:28:24.000Z</time>
      </trkpt>
      <trkpt lat="48.78614" lon="5.1791">
        <ele>278</ele>
        <time>2023-01-06T09:28:25.000Z</time>
      </trkpt>
      <trkpt lat="48.78615" lon="5.17913">
        <ele>278</ele>
        <time>2023-01-06T09:28:26.000Z</time>
      </trkpt>
      <trkpt lat="48.78616" lon="5.17915">
        <ele>278</ele>
        <time>2023-01-06T09:28:27.000Z</time>
      </trkpt>
      <trkpt lat="48.78617" lon="5.17917">
        <ele>278</ele>
        <time>2023-01-06T09:28:28.000Z</time>
      </trkpt>
      <trkpt lat="48.78618" lon="5.17918">
        <ele>278</ele>
        <time>2023-01-06T09:28:29.000Z</time>
      </trkpt>
      <trkpt lat="48.78619" lon="5.1792">
        <ele>278</ele>
        <time>2023-01-06T09:28:30.000Z</time>
      </trkpt>
      <trkpt lat="48.78621" lon="5.17921">
        <ele>278</ele>
        <time>2023-01-06T09:28:31.000Z</time>
      </trkpt>
      <trkpt lat="48.78622" lon="5.17923">
        <ele>278</ele>
        <time>2023-01-06T09:28:32.000Z</time>
      </trkpt>
      <trkpt lat="48.78623" lon="5.17924">
        <ele>278</ele>
        <time>2023-01-06T09:28:33.000Z</time>
      </trkpt>
      <trkpt lat="48.78624" lon="5.17926">
        <ele>278</ele>
        <time>2023-01-06T09:28:34.000Z</time>
      </trkpt>
      <trkpt lat="48.78625" lon="5.17927">
        <ele>278</ele>
        <time>2023-01-06T09:28:35.000Z</time>
      </trkpt>
      <trkpt lat="48.78626" lon="5.17928">
        <ele>278</ele>
        <time>2023-01-06T09:28:36.000Z</time>
      </trkpt>
      <trkpt lat="48.78627" lon="5.17929">
        <ele>278</ele>
        <time>2023-01-06T09:28:37.000Z</time>
      </trkpt>
      <trkpt lat="48.78628" lon="5.17929">
        <ele>278</ele>
        <time>2023-01-06T09:28:38.000Z</time>
      </trkpt>
      <trkpt lat="48.78628" lon="5.1793">
        <ele>278</ele>
        <time>2023-01-06T09:28:39.000Z</time>
      </trkpt>
      <trkpt lat="48.78629" lon="5.17931">
        <ele>278</ele>
        <time>2023-01-06T09:28:40.000Z</time>
      </trkpt>
      <trkpt lat="48.78629" lon="5.17931">
        <ele>278</ele>
        <time>2023-01-06T09:28:41.000Z</time>
      </trkpt>
      <trkpt lat="48.7863" lon="5.17932">
        <ele>278</ele>
        <time>2023-01-06T09:28:42.000Z</time>
      </trkpt>
      <trkpt lat="48.7863" lon="5.17933">
        <ele>278</ele>
        <time>2023-01-06T09:28:43.000Z</time>
      </trkpt>
      <trkpt lat="48.7863" lon="5.17934">
        <ele>278</ele>
        <time>2023-01-06T09:28:44.000Z</time>
      </trkpt>
      <trkpt lat="48.78631" lon="5.17934">
        <ele>278</ele>
        <time>2023-01-06T09:28:45.000Z</time>
      </trkpt>
      <trkpt lat="48.78632" lon="5.17935">
        <ele>278</ele>
        <time>2023-01-06T09:28:46.000Z</time>
      </trkpt>
      <trkpt lat="48.78633" lon="5.17935">
        <ele>278</ele>
        <time>2023-01-06T09:28:47.000Z</time>
      </trkpt>
      <trkpt lat="48.78634" lon="5.17936">
        <ele>278</ele>
        <time>2023-01-06T09:28:48.000Z</time>
      </trkpt>
      <trkpt lat="48.78635" lon="5.17937">
        <ele>278</ele>
        <time>2023-01-06T09:28:49.000Z</time>
      </trkpt>
      <trkpt lat="48.78636" lon="5.17937">
        <ele>278</ele>
        <time>2023-01-06T09:28:50.000Z</time>
      </trkpt>
      <trkpt lat="48.78636" lon="5.17938">
        <ele>278</ele>
        <time>2023-01-06T09:28:51.000Z</time>
      </trkpt>
      <trkpt lat="48.78637" lon="5.17939">
        <ele>279</ele>
        <time>2023-01-06T09:28:52.000Z</time>
      </trkpt>
      <trkpt lat="48.78639" lon="5.17941">
        <ele>279</ele>
        <time>2023-01-06T09:28:53.000Z</time>
      </trkpt>
      <trkpt lat="48.7864" lon="5.17942">
        <ele>279</ele>
        <time>2023-01-06T09:28:54.000Z</time>
      </trkpt>
      <trkpt lat="48.78641" lon="5.17944">
        <ele>279</ele>
        <time>2023-01-06T09:28:55.000Z</time>
      </trkpt>
      <trkpt lat="48.78642" lon="5.17946">
        <ele>279</ele>
        <time>2023-01-06T09:28:56.000Z</time>
        <extensions>
          <visugpx:TrkExtension xmlns:visugpx="https://www.visugpx.com/editgpx/">
            <visugpx:node>2</visugpx:node>
            </visugpx:TrkExtension>
        </extensions>
      </trkpt>
      <trkpt lat="48.78641" lon="5.17962">
        <ele>295.1</ele>
      </trkpt>
      <trkpt lat="48.78636" lon="5.17979">
        <ele>294.7</ele>
      </trkpt>
      <trkpt lat="48.78627" lon="5.17993">
        <ele>293.8</ele>
      </trkpt>
      <trkpt lat="48.78619" lon="5.18004">
        <ele>293.1</ele>
      </trkpt>
      <trkpt lat="48.78612" lon="5.18012">
        <ele>292.2</ele>
      </trkpt>
      <trkpt lat="48.78607" lon="5.1802">
        <ele>291.1</ele>
      </trkpt>
      <trkpt lat="48.78601" lon="5.18046">
        <ele>288.8</ele>
      </trkpt>
      <trkpt lat="48.78595" lon="5.18084">
        <ele>285.1</ele>
        <extensions>
          <visugpx:TrkExtension xmlns:visugpx="https://www.visugpx.com/editgpx/">
            <visugpx:node>3</visugpx:node>
            </visugpx:TrkExtension>
        </extensions>
      </trkpt>
      <trkpt lat="48.78594" lon="5.1809">
        <ele>284.8</ele>
      </trkpt>
      <trkpt lat="48.78591" lon="5.18099">
        <ele>284.3</ele>
      </trkpt>
      <trkpt lat="48.78584" lon="5.18119">
        <ele>284.9</ele>
      </trkpt>
      <trkpt lat="48.78584" lon="5.18143">
        <ele>287.6</ele>
      </trkpt>
      <trkpt lat="48.78587" lon="5.18159">
        <ele>289.7</ele>
      </trkpt>
      <trkpt lat="48.7859" lon="5.18176">
        <ele>290.9</ele>
      </trkpt>
      <trkpt lat="48.78589" lon="5.18204">
        <ele>292</ele>
      </trkpt>
      <trkpt lat="48.78586" lon="5.18235">
        <ele>292.9</ele>
      </trkpt>
      <trkpt lat="48.78589" lon="5.18261">
        <ele>293.1</ele>
      </trkpt>
      <trkpt lat="48.78594" lon="5.18283">
        <ele>293.4</ele>
      </trkpt>
      <trkpt lat="48.78596" lon="5.18294">
        <ele>293.5</ele>
      </trkpt>
      <trkpt lat="48.78599" lon="5.1832">
        <ele>293.6</ele>
        <extensions>
          <visugpx:TrkExtension xmlns:visugpx="https://www.visugpx.com/editgpx/">
            <visugpx:node>4</visugpx:node>
            </visugpx:TrkExtension>
        </extensions>
      </trkpt>
      <trkpt lat="48.78599" lon="5.18322">
        <ele>293.6</ele>
      </trkpt>
      <trkpt lat="48.78617" lon="5.18307">
        <ele>294.4</ele>
      </trkpt>
      <trkpt lat="48.78647" lon="5.18275">
        <ele>294.9</ele>
      </trkpt>
      <trkpt lat="48.78656" lon="5.18269">
        <ele>294.7</ele>
      </trkpt>
      <trkpt lat="48.78669" lon="5.18262">
        <ele>294.5</ele>
      </trkpt>
      <trkpt lat="48.78692" lon="5.18253">
        <ele>294.9</ele>
      </trkpt>
      <trkpt lat="48.78707" lon="5.18244">
        <ele>295</ele>
      </trkpt>
      <trkpt lat="48.78722" lon="5.18233">
        <ele>295.6</ele>
      </trkpt>
      <trkpt lat="48.78737" lon="5.18221">
        <ele>296.6</ele>
      </trkpt>
      <trkpt lat="48.78755" lon="5.18207">
        <ele>297.7</ele>
      </trkpt>
      <trkpt lat="48.78773" lon="5.18194">
        <ele>298.8</ele>
      </trkpt>
      <trkpt lat="48.78787" lon="5.18184">
        <ele>299.3</ele>
      </trkpt>
      <trkpt lat="48.78793" lon="5.1818">
        <ele>299.5</ele>
      </trkpt>
      <trkpt lat="48.78821" lon="5.18161">
        <ele>299.4</ele>
      </trkpt>
      <trkpt lat="48.78822" lon="5.18164">
        <ele>282</ele>
        <time>2023-01-06T09:32:05.000Z</time>
      </trkpt>
      <trkpt lat="48.78823" lon="5.18164">
        <ele>282</ele>
        <time>2023-01-06T09:32:06.000Z</time>
      </trkpt>
      <trkpt lat="48.78824" lon="5.18164">
        <ele>282</ele>
        <time>2023-01-06T09:32:07.000Z</time>
      </trkpt>
      <trkpt lat="48.78825" lon="5.18164">
        <ele>282</ele>
        <time>2023-01-06T09:32:08.000Z</time>
      </trkpt>
      <trkpt lat="48.78826" lon="5.18163">
        <ele>282</ele>
        <time>2023-01-06T09:32:09.000Z</time>
      </trkpt>
      <trkpt lat="48.78827" lon="5.18163">
        <ele>282</ele>
        <time>2023-01-06T09:32:10.000Z</time>
      </trkpt>
      <trkpt lat="48.78828" lon="5.18163">
        <ele>282</ele>
        <time>2023-01-06T09:32:11.000Z</time>
      </trkpt>
      <trkpt lat="48.78828" lon="5.18162">
        <ele>282</ele>
        <time>2023-01-06T09:32:12.000Z</time>
      </trkpt>
      <trkpt lat="48.78829" lon="5.18162">
        <ele>282</ele>
        <time>2023-01-06T09:32:13.000Z</time>
      </trkpt>
      <trkpt lat="48.78831" lon="5.18162">
        <ele>282</ele>
        <time>2023-01-06T09:32:14.000Z</time>
      </trkpt>
      <trkpt lat="48.78832" lon="5.18161">
        <ele>282</ele>
        <time>2023-01-06T09:32:15.000Z</time>
      </trkpt>
      <trkpt lat="48.78833" lon="5.1816">
        <ele>282</ele>
        <time>2023-01-06T09:32:16.000Z</time>
      </trkpt>
      <trkpt lat="48.78835" lon="5.18159">
        <ele>282</ele>
        <time>2023-01-06T09:32:17.000Z</time>
      </trkpt>
      <trkpt lat="48.78836" lon="5.18159">
        <ele>282</ele>
        <time>2023-01-06T09:32:18.000Z</time>
      </trkpt>
      <trkpt lat="48.78838" lon="5.18158">
        <ele>282</ele>
        <time>2023-01-06T09:32:19.000Z</time>
      </trkpt>
      <trkpt lat="48.78839" lon="5.18158">
        <ele>282</ele>
        <time>2023-01-06T09:32:20.000Z</time>
      </trkpt>
      <trkpt lat="48.78841" lon="5.18157">
        <ele>282</ele>
        <time>2023-01-06T09:32:21.000Z</time>
      </trkpt>
      <trkpt lat="48.78842" lon="5.18156">
        <ele>282</ele>
        <time>2023-01-06T09:32:22.000Z</time>
      </trkpt>
      <trkpt lat="48.78844" lon="5.18156">
        <ele>282</ele>
        <time>2023-01-06T09:32:23.000Z</time>
      </trkpt>
      <trkpt lat="48.78846" lon="5.18155">
        <ele>282</ele>
        <time>2023-01-06T09:32:24.000Z</time>
      </trkpt>
      <trkpt lat="48.78847" lon="5.18153">
        <ele>282</ele>
        <time>2023-01-06T09:32:25.000Z</time>
      </trkpt>
      <trkpt lat="48.78849" lon="5.18152">
        <ele>282</ele>
        <time>2023-01-06T09:32:26.000Z</time>
      </trkpt>
      <trkpt lat="48.7885" lon="5.18151">
        <ele>282</ele>
        <time>2023-01-06T09:32:27.000Z</time>
      </trkpt>
      <trkpt lat="48.78851" lon="5.1815">
        <ele>282</ele>
        <time>2023-01-06T09:32:28.000Z</time>
      </trkpt>
      <trkpt lat="48.78853" lon="5.18148">
        <ele>281.7</ele>
        <time>2023-01-06T09:32:29.000Z</time>
      </trkpt>
      <trkpt lat="48.78854" lon="5.18147">
        <ele>281.3</ele>
        <time>2023-01-06T09:32:30.000Z</time>
      </trkpt>
      <trkpt lat="48.78855" lon="5.18146">
        <ele>281</ele>
        <time>2023-01-06T09:32:31.000Z</time>
      </trkpt>
      <trkpt lat="48.78857" lon="5.18145">
        <ele>281</ele>
        <time>2023-01-06T09:32:32.000Z</time>
      </trkpt>
      <trkpt lat="48.78858" lon="5.18144">
        <ele>281</ele>
        <time>2023-01-06T09:32:33.000Z</time>
      </trkpt>
      <trkpt lat="48.78859" lon="5.18143">
        <ele>281</ele>
        <time>2023-01-06T09:32:34.000Z</time>
      </trkpt>
      <trkpt lat="48.78861" lon="5.18142">
        <ele>281</ele>
        <time>2023-01-06T09:32:35.000Z</time>
      </trkpt>
      <trkpt lat="48.78863" lon="5.18141">
        <ele>281</ele>
        <time>2023-01-06T09:32:36.000Z</time>
      </trkpt>
      <trkpt lat="48.78865" lon="5.18139">
        <ele>281</ele>
        <time>2023-01-06T09:32:37.000Z</time>
      </trkpt>
      <trkpt lat="48.78867" lon="5.18138">
        <ele>281</ele>
        <time>2023-01-06T09:32:38.000Z</time>
      </trkpt>
      <trkpt lat="48.78869" lon="5.18137">
        <ele>281</ele>
        <time>2023-01-06T09:32:39.000Z</time>
      </trkpt>
      <trkpt lat="48.7887" lon="5.18135">
        <ele>281</ele>
        <time>2023-01-06T09:32:40.000Z</time>
      </trkpt>
      <trkpt lat="48.78872" lon="5.18134">
        <ele>281</ele>
        <time>2023-01-06T09:32:41.000Z</time>
      </trkpt>
      <trkpt lat="48.78874" lon="5.18132">
        <ele>281</ele>
        <time>2023-01-06T09:32:42.000Z</time>
      </trkpt>
      <trkpt lat="48.78876" lon="5.18131">
        <ele>280.7</ele>
        <time>2023-01-06T09:32:43.000Z</time>
      </trkpt>
      <trkpt lat="48.78878" lon="5.1813">
        <ele>280.3</ele>
        <time>2023-01-06T09:32:44.000Z</time>
      </trkpt>
      <trkpt lat="48.7888" lon="5.18129">
        <ele>280</ele>
        <time>2023-01-06T09:32:45.000Z</time>
      </trkpt>
      <trkpt lat="48.78882" lon="5.18128">
        <ele>280</ele>
        <time>2023-01-06T09:32:46.000Z</time>
      </trkpt>
      <trkpt lat="48.78884" lon="5.18127">
        <ele>280</ele>
        <time>2023-01-06T09:32:47.000Z</time>
      </trkpt>
      <trkpt lat="48.78886" lon="5.18126">
        <ele>280</ele>
        <time>2023-01-06T09:32:48.000Z</time>
      </trkpt>
      <trkpt lat="48.78888" lon="5.18124">
        <ele>280</ele>
        <time>2023-01-06T09:32:49.000Z</time>
      </trkpt>
      <trkpt lat="48.7889" lon="5.18123">
        <ele>280</ele>
        <time>2023-01-06T09:32:50.000Z</time>
      </trkpt>
      <trkpt lat="48.78892" lon="5.18122">
        <ele>280</ele>
        <time>2023-01-06T09:32:51.000Z</time>
      </trkpt>
      <trkpt lat="48.78894" lon="5.18121">
        <ele>280</ele>
        <time>2023-01-06T09:32:52.000Z</time>
      </trkpt>
      <trkpt lat="48.78896" lon="5.18119">
        <ele>280</ele>
        <time>2023-01-06T09:32:53.000Z</time>
      </trkpt>
      <trkpt lat="48.78898" lon="5.18118">
        <ele>280</ele>
        <time>2023-01-06T09:32:54.000Z</time>
      </trkpt>
      <trkpt lat="48.78899" lon="5.18117">
        <ele>279.7</ele>
        <time>2023-01-06T09:32:55.000Z</time>
      </trkpt>
      <trkpt lat="48.78901" lon="5.18116">
        <ele>279.3</ele>
        <time>2023-01-06T09:32:56.000Z</time>
      </trkpt>
      <trkpt lat="48.78902" lon="5.18115">
        <ele>279</ele>
        <time>2023-01-06T09:32:57.000Z</time>
      </trkpt>
      <trkpt lat="48.78904" lon="5.18115">
        <ele>279</ele>
        <time>2023-01-06T09:32:58.000Z</time>
      </trkpt>
      <trkpt lat="48.78905" lon="5.18114">
        <ele>279</ele>
        <time>2023-01-06T09:32:59.000Z</time>
      </trkpt>
      <trkpt lat="48.78907" lon="5.18113">
        <ele>279</ele>
        <time>2023-01-06T09:33:00.000Z</time>
      </trkpt>
      <trkpt lat="48.78908" lon="5.18112">
        <ele>279</ele>
        <time>2023-01-06T09:33:01.000Z</time>
      </trkpt>
      <trkpt lat="48.7891" lon="5.18111">
        <ele>279</ele>
        <time>2023-01-06T09:33:02.000Z</time>
      </trkpt>
      <trkpt lat="48.78912" lon="5.18111">
        <ele>279</ele>
        <time>2023-01-06T09:33:03.000Z</time>
      </trkpt>
      <trkpt lat="48.78913" lon="5.1811">
        <ele>279</ele>
        <time>2023-01-06T09:33:04.000Z</time>
      </trkpt>
      <trkpt lat="48.78915" lon="5.1811">
        <ele>279</ele>
        <time>2023-01-06T09:33:05.000Z</time>
      </trkpt>
      <trkpt lat="48.78917" lon="5.18109">
        <ele>279</ele>
        <time>2023-01-06T09:33:06.000Z</time>
      </trkpt>
      <trkpt lat="48.78919" lon="5.18108">
        <ele>279</ele>
        <time>2023-01-06T09:33:07.000Z</time>
      </trkpt>
      <trkpt lat="48.7892" lon="5.18107">
        <ele>279</ele>
        <time>2023-01-06T09:33:08.000Z</time>
      </trkpt>
      <trkpt lat="48.78922" lon="5.18107">
        <ele>278.7</ele>
        <time>2023-01-06T09:33:09.000Z</time>
      </trkpt>
      <trkpt lat="48.78923" lon="5.18106">
        <ele>278.3</ele>
        <time>2023-01-06T09:33:10.000Z</time>
      </trkpt>
      <trkpt lat="48.78925" lon="5.18106">
        <ele>278</ele>
        <time>2023-01-06T09:33:11.000Z</time>
      </trkpt>
      <trkpt lat="48.78926" lon="5.18105">
        <ele>278</ele>
        <time>2023-01-06T09:33:12.000Z</time>
      </trkpt>
      <trkpt lat="48.78928" lon="5.18105">
        <ele>278</ele>
        <time>2023-01-06T09:33:13.000Z</time>
      </trkpt>
      <trkpt lat="48.7893" lon="5.18105">
        <ele>278</ele>
        <time>2023-01-06T09:33:14.000Z</time>
      </trkpt>
      <trkpt lat="48.78931" lon="5.18104">
        <ele>278</ele>
        <time>2023-01-06T09:33:15.000Z</time>
      </trkpt>
      <trkpt lat="48.78933" lon="5.18104">
        <ele>278</ele>
        <time>2023-01-06T09:33:16.000Z</time>
      </trkpt>
      <trkpt lat="48.78934" lon="5.18103">
        <ele>278</ele>
        <time>2023-01-06T09:33:17.000Z</time>
      </trkpt>
      <trkpt lat="48.78936" lon="5.18103">
        <ele>278</ele>
        <time>2023-01-06T09:33:18.000Z</time>
      </trkpt>
      <trkpt lat="48.78937" lon="5.18103">
        <ele>278</ele>
        <time>2023-01-06T09:33:19.000Z</time>
      </trkpt>
      <trkpt lat="48.78937" lon="5.18102">
        <ele>277</ele>
        <time>2023-01-06T09:33:20.000Z</time>
      </trkpt>
      <trkpt lat="48.78938" lon="5.18102">
        <ele>277</ele>
        <time>2023-01-06T09:33:21.000Z</time>
      </trkpt>
      <trkpt lat="48.78939" lon="5.18101">
        <ele>277</ele>
        <time>2023-01-06T09:33:22.000Z</time>
      </trkpt>
      <trkpt lat="48.78939" lon="5.18101">
        <ele>277</ele>
        <time>2023-01-06T09:33:23.000Z</time>
      </trkpt>
      <trkpt lat="48.7894" lon="5.18101">
        <ele>277</ele>
        <time>2023-01-06T09:33:24.000Z</time>
      </trkpt>
      <trkpt lat="48.78941" lon="5.18101">
        <ele>277</ele>
        <time>2023-01-06T09:33:25.000Z</time>
      </trkpt>
      <trkpt lat="48.78942" lon="5.18102">
        <ele>277</ele>
        <time>2023-01-06T09:33:26.000Z</time>
      </trkpt>
      <trkpt lat="48.78943" lon="5.18102">
        <ele>277</ele>
        <time>2023-01-06T09:33:27.000Z</time>
      </trkpt>
      <trkpt lat="48.78943" lon="5.18102">
        <ele>277</ele>
        <time>2023-01-06T09:33:28.000Z</time>
      </trkpt>
      <trkpt lat="48.78944" lon="5.18102">
        <ele>277</ele>
        <time>2023-01-06T09:33:29.000Z</time>
      </trkpt>
      <trkpt lat="48.78945" lon="5.18102">
        <ele>277</ele>
        <time>2023-01-06T09:33:30.000Z</time>
      </trkpt>
      <trkpt lat="48.78945" lon="5.18103">
        <ele>277</ele>
        <time>2023-01-06T09:33:31.000Z</time>
      </trkpt>
      <trkpt lat="48.78946" lon="5.18103">
        <ele>277</ele>
        <time>2023-01-06T09:33:32.000Z</time>
      </trkpt>
      <trkpt lat="48.78946" lon="5.18103">
        <ele>276.7</ele>
        <time>2023-01-06T09:33:33.000Z</time>
      </trkpt>
      <trkpt lat="48.78947" lon="5.18103">
        <ele>276.3</ele>
        <time>2023-01-06T09:33:34.000Z</time>
      </trkpt>
      <trkpt lat="48.78948" lon="5.18104">
        <ele>276</ele>
        <time>2023-01-06T09:33:35.000Z</time>
      </trkpt>
      <trkpt lat="48.78949" lon="5.18104">
        <ele>276</ele>
        <time>2023-01-06T09:33:36.000Z</time>
      </trkpt>
      <trkpt lat="48.7895" lon="5.18103">
        <ele>276</ele>
        <time>2023-01-06T09:33:37.000Z</time>
      </trkpt>
      <trkpt lat="48.78951" lon="5.18102">
        <ele>276</ele>
        <time>2023-01-06T09:33:38.000Z</time>
      </trkpt>
      <trkpt lat="48.78953" lon="5.18102">
        <ele>276</ele>
        <time>2023-01-06T09:33:39.000Z</time>
      </trkpt>
      <trkpt lat="48.78955" lon="5.18102">
        <ele>276</ele>
        <time>2023-01-06T09:33:40.000Z</time>
      </trkpt>
      <trkpt lat="48.78956" lon="5.18102">
        <ele>276</ele>
        <time>2023-01-06T09:33:41.000Z</time>
      </trkpt>
      <trkpt lat="48.78957" lon="5.18102">
        <ele>276</ele>
        <time>2023-01-06T09:33:42.000Z</time>
      </trkpt>
      <trkpt lat="48.78958" lon="5.18102">
        <ele>276</ele>
        <time>2023-01-06T09:33:43.000Z</time>
      </trkpt>
      <trkpt lat="48.78959" lon="5.18102">
        <ele>275.5</ele>
        <time>2023-01-06T09:33:44.000Z</time>
      </trkpt>
      <trkpt lat="48.78961" lon="5.18103">
        <ele>275</ele>
        <time>2023-01-06T09:33:45.000Z</time>
      </trkpt>
      <trkpt lat="48.78963" lon="5.18103">
        <ele>275</ele>
        <time>2023-01-06T09:33:46.000Z</time>
      </trkpt>
      <trkpt lat="48.78964" lon="5.18104">
        <ele>275</ele>
        <time>2023-01-06T09:33:47.000Z</time>
      </trkpt>
      <trkpt lat="48.78965" lon="5.18104">
        <ele>275</ele>
        <time>2023-01-06T09:33:48.000Z</time>
      </trkpt>
      <trkpt lat="48.78966" lon="5.18104">
        <ele>275</ele>
        <time>2023-01-06T09:33:49.000Z</time>
      </trkpt>
      <trkpt lat="48.78967" lon="5.18104">
        <ele>275</ele>
        <time>2023-01-06T09:33:50.000Z</time>
      </trkpt>
      <trkpt lat="48.78969" lon="5.18104">
        <ele>275</ele>
        <time>2023-01-06T09:33:51.000Z</time>
      </trkpt>
      <trkpt lat="48.7897" lon="5.18104">
        <ele>275</ele>
        <time>2023-01-06T09:33:52.000Z</time>
      </trkpt>
      <trkpt lat="48.78972" lon="5.18104">
        <ele>275</ele>
        <time>2023-01-06T09:33:53.000Z</time>
      </trkpt>
      <trkpt lat="48.78974" lon="5.18104">
        <ele>275</ele>
        <time>2023-01-06T09:33:54.000Z</time>
      </trkpt>
      <trkpt lat="48.78976" lon="5.18103">
        <ele>275</ele>
        <time>2023-01-06T09:33:55.000Z</time>
      </trkpt>
      <trkpt lat="48.78979" lon="5.18102">
        <ele>274</ele>
        <time>2023-01-06T09:33:56.000Z</time>
      </trkpt>
      <trkpt lat="48.78981" lon="5.18102">
        <ele>274</ele>
        <time>2023-01-06T09:33:57.000Z</time>
      </trkpt>
      <trkpt lat="48.78982" lon="5.18101">
        <ele>274</ele>
        <time>2023-01-06T09:33:58.000Z</time>
      </trkpt>
      <trkpt lat="48.78984" lon="5.18101">
        <ele>274</ele>
        <time>2023-01-06T09:33:59.000Z</time>
      </trkpt>
      <trkpt lat="48.78987" lon="5.18101">
        <ele>274</ele>
        <time>2023-01-06T09:34:00.000Z</time>
      </trkpt>
      <trkpt lat="48.78989" lon="5.18101">
        <ele>274</ele>
        <time>2023-01-06T09:34:01.000Z</time>
      </trkpt>
      <trkpt lat="48.78991" lon="5.181">
        <ele>274</ele>
        <time>2023-01-06T09:34:02.000Z</time>
      </trkpt>
      <trkpt lat="48.78993" lon="5.181">
        <ele>274</ele>
        <time>2023-01-06T09:34:03.000Z</time>
      </trkpt>
      <trkpt lat="48.78995" lon="5.181">
        <ele>273.5</ele>
        <time>2023-01-06T09:34:04.000Z</time>
      </trkpt>
      <trkpt lat="48.78997" lon="5.181">
        <ele>273</ele>
        <time>2023-01-06T09:34:05.000Z</time>
      </trkpt>
      <trkpt lat="48.79" lon="5.181">
        <ele>273</ele>
        <time>2023-01-06T09:34:06.000Z</time>
      </trkpt>
      <trkpt lat="48.79002" lon="5.181">
        <ele>273</ele>
        <time>2023-01-06T09:34:07.000Z</time>
      </trkpt>
      <trkpt lat="48.79004" lon="5.181">
        <ele>273</ele>
        <time>2023-01-06T09:34:08.000Z</time>
      </trkpt>
      <trkpt lat="48.79006" lon="5.181">
        <ele>273</ele>
        <time>2023-01-06T09:34:09.000Z</time>
      </trkpt>
      <trkpt lat="48.79009" lon="5.181">
        <ele>273</ele>
        <time>2023-01-06T09:34:10.000Z</time>
      </trkpt>
      <trkpt lat="48.79011" lon="5.181">
        <ele>273</ele>
        <time>2023-01-06T09:34:11.000Z</time>
      </trkpt>
      <trkpt lat="48.79013" lon="5.18099">
        <ele>272</ele>
        <time>2023-01-06T09:34:12.000Z</time>
      </trkpt>
      <trkpt lat="48.79015" lon="5.18099">
        <ele>272</ele>
        <time>2023-01-06T09:34:13.000Z</time>
      </trkpt>
      <trkpt lat="48.79018" lon="5.18098">
        <ele>272</ele>
        <time>2023-01-06T09:34:14.000Z</time>
      </trkpt>
      <trkpt lat="48.7902" lon="5.18097">
        <ele>272</ele>
        <time>2023-01-06T09:34:15.000Z</time>
      </trkpt>
      <trkpt lat="48.79022" lon="5.18096">
        <ele>272</ele>
        <time>2023-01-06T09:34:16.000Z</time>
      </trkpt>
      <trkpt lat="48.79024" lon="5.18095">
        <ele>272</ele>
        <time>2023-01-06T09:34:17.000Z</time>
      </trkpt>
      <trkpt lat="48.79026" lon="5.18095">
        <ele>272</ele>
        <time>2023-01-06T09:34:18.000Z</time>
      </trkpt>
      <trkpt lat="48.79028" lon="5.18094">
        <ele>272</ele>
        <time>2023-01-06T09:34:19.000Z</time>
      </trkpt>
      <trkpt lat="48.79029" lon="5.18094">
        <ele>272</ele>
        <time>2023-01-06T09:34:20.000Z</time>
      </trkpt>
      <trkpt lat="48.79031" lon="5.18093">
        <ele>272</ele>
        <time>2023-01-06T09:34:21.000Z</time>
      </trkpt>
      <trkpt lat="48.79031" lon="5.18093">
        <ele>272</ele>
        <time>2023-01-06T09:34:22.000Z</time>
      </trkpt>
      <trkpt lat="48.79032" lon="5.18093">
        <ele>272</ele>
        <time>2023-01-06T09:34:23.000Z</time>
      </trkpt>
      <trkpt lat="48.79033" lon="5.18092">
        <ele>271</ele>
        <time>2023-01-06T09:34:24.000Z</time>
      </trkpt>
      <trkpt lat="48.79034" lon="5.18092">
        <ele>271</ele>
        <time>2023-01-06T09:34:25.000Z</time>
      </trkpt>
      <trkpt lat="48.79034" lon="5.18092">
        <ele>271</ele>
        <time>2023-01-06T09:34:26.000Z</time>
      </trkpt>
      <trkpt lat="48.79035" lon="5.18092">
        <ele>271</ele>
        <time>2023-01-06T09:34:27.000Z</time>
      </trkpt>
      <trkpt lat="48.79036" lon="5.18092">
        <ele>271.5</ele>
        <time>2023-01-06T09:34:28.000Z</time>
      </trkpt>
      <trkpt lat="48.79036" lon="5.18092">
        <ele>272</ele>
        <time>2023-01-06T09:34:29.000Z</time>
      </trkpt>
      <trkpt lat="48.79037" lon="5.18092">
        <ele>271.5</ele>
        <time>2023-01-06T09:34:30.000Z</time>
      </trkpt>
      <trkpt lat="48.79038" lon="5.18092">
        <ele>271</ele>
        <time>2023-01-06T09:34:31.000Z</time>
      </trkpt>
      <trkpt lat="48.79039" lon="5.18092">
        <ele>271</ele>
        <time>2023-01-06T09:34:32.000Z</time>
      </trkpt>
      <trkpt lat="48.7904" lon="5.18092">
        <ele>271</ele>
        <time>2023-01-06T09:34:33.000Z</time>
      </trkpt>
      <trkpt lat="48.79041" lon="5.18092">
        <ele>271</ele>
        <time>2023-01-06T09:34:34.000Z</time>
      </trkpt>
      <trkpt lat="48.79041" lon="5.18092">
        <ele>271</ele>
        <time>2023-01-06T09:34:35.000Z</time>
      </trkpt>
      <trkpt lat="48.79043" lon="5.18091">
        <ele>271</ele>
        <time>2023-01-06T09:34:36.000Z</time>
      </trkpt>
      <trkpt lat="48.79044" lon="5.18091">
        <ele>271</ele>
        <time>2023-01-06T09:34:37.000Z</time>
      </trkpt>
      <trkpt lat="48.79045" lon="5.18091">
        <ele>271</ele>
        <time>2023-01-06T09:34:38.000Z</time>
      </trkpt>
      <trkpt lat="48.79046" lon="5.18091">
        <ele>271</ele>
        <time>2023-01-06T09:34:39.000Z</time>
      </trkpt>
      <trkpt lat="48.79047" lon="5.18091">
        <ele>271</ele>
        <time>2023-01-06T09:34:40.000Z</time>
      </trkpt>
      <trkpt lat="48.79049" lon="5.18091">
        <ele>271</ele>
        <time>2023-01-06T09:34:41.000Z</time>
      </trkpt>
      <trkpt lat="48.7905" lon="5.18092">
        <ele>271</ele>
        <time>2023-01-06T09:34:42.000Z</time>
      </trkpt>
      <trkpt lat="48.79052" lon="5.18092">
        <ele>271</ele>
        <time>2023-01-06T09:34:43.000Z</time>
      </trkpt>
      <trkpt lat="48.79053" lon="5.18092">
        <ele>271</ele>
        <time>2023-01-06T09:34:44.000Z</time>
      </trkpt>
      <trkpt lat="48.79055" lon="5.18092">
        <ele>271</ele>
        <time>2023-01-06T09:34:45.000Z</time>
      </trkpt>
      <trkpt lat="48.79057" lon="5.18092">
        <ele>271</ele>
        <time>2023-01-06T09:34:46.000Z</time>
      </trkpt>
      <trkpt lat="48.79058" lon="5.18092">
        <ele>271</ele>
        <time>2023-01-06T09:34:47.000Z</time>
      </trkpt>
      <trkpt lat="48.7906" lon="5.18092">
        <ele>270.5</ele>
        <time>2023-01-06T09:34:48.000Z</time>
      </trkpt>
      <trkpt lat="48.79062" lon="5.18092">
        <ele>270</ele>
        <time>2023-01-06T09:34:49.000Z</time>
      </trkpt>
      <trkpt lat="48.79063" lon="5.18092">
        <ele>270</ele>
        <time>2023-01-06T09:34:50.000Z</time>
      </trkpt>
      <trkpt lat="48.79065" lon="5.18092">
        <ele>270</ele>
        <time>2023-01-06T09:34:51.000Z</time>
      </trkpt>
      <trkpt lat="48.79067" lon="5.18092">
        <ele>270</ele>
        <time>2023-01-06T09:34:52.000Z</time>
      </trkpt>
      <trkpt lat="48.79069" lon="5.18092">
        <ele>270</ele>
        <time>2023-01-06T09:34:53.000Z</time>
      </trkpt>
      <trkpt lat="48.79071" lon="5.18092">
        <ele>270</ele>
        <time>2023-01-06T09:34:54.000Z</time>
      </trkpt>
      <trkpt lat="48.79074" lon="5.18091">
        <ele>270</ele>
        <time>2023-01-06T09:34:55.000Z</time>
      </trkpt>
      <trkpt lat="48.79076" lon="5.18091">
        <ele>270</ele>
        <time>2023-01-06T09:34:56.000Z</time>
      </trkpt>
      <trkpt lat="48.79079" lon="5.18091">
        <ele>270</ele>
        <time>2023-01-06T09:34:57.000Z</time>
      </trkpt>
      <trkpt lat="48.79081" lon="5.18091">
        <ele>269</ele>
        <time>2023-01-06T09:34:58.000Z</time>
      </trkpt>
      <trkpt lat="48.79083" lon="5.1809">
        <ele>269</ele>
        <time>2023-01-06T09:34:59.000Z</time>
      </trkpt>
      <trkpt lat="48.79086" lon="5.1809">
        <ele>269</ele>
        <time>2023-01-06T09:35:00.000Z</time>
      </trkpt>
      <trkpt lat="48.79088" lon="5.1809">
        <ele>269</ele>
        <time>2023-01-06T09:35:01.000Z</time>
        <extensions>
          <visugpx:TrkExtension xmlns:visugpx="https://www.visugpx.com/editgpx/">
            <visugpx:node>5</visugpx:node>
            </visugpx:TrkExtension>
        </extensions>
      </trkpt>
      <trkpt lat="48.79093" lon="5.18082">
        <ele>283.7</ele>
      </trkpt>
      <trkpt lat="48.79089" lon="5.17982">
        <ele>286.5</ele>
        <extensions>
          <visugpx:TrkExtension xmlns:visugpx="https://www.visugpx.com/editgpx/">
            <visugpx:node>1</visugpx:node>
            </visugpx:TrkExtension>
        </extensions>
      </trkpt>
      <trkpt lat="48.79088" lon="5.17935">
        <ele>287.6</ele>
      </trkpt>
      <trkpt lat="48.79088" lon="5.17885">
        <ele>288.5</ele>
      </trkpt>
      <trkpt lat="48.79088" lon="5.17849">
        <ele>288.5</ele>
      </trkpt>
      <trkpt lat="48.79085" lon="5.17803">
        <ele>288.7</ele>
      </trkpt>
      <trkpt lat="48.79079" lon="5.17743">
        <ele>287.9</ele>
      </trkpt>
      <trkpt lat="48.79075" lon="5.17694">
        <ele>285.6</ele>
      </trkpt>
      <trkpt lat="48.79074" lon="5.17693">
        <ele>285.7</ele>
        <extensions>
          <visugpx:TrkExtension xmlns:visugpx="https://www.visugpx.com/editgpx/">
            <visugpx:node>2</visugpx:node>
            </visugpx:TrkExtension>
        </extensions>
      </trkpt>
      <trkpt lat="48.79065" lon="5.17681">
        <ele>286</ele>
      </trkpt>
      <trkpt lat="48.79047" lon="5.17659">
        <ele>286.5</ele>
      </trkpt>
      <trkpt lat="48.79049" lon="5.17648">
        <ele>286.7</ele>
      </trkpt>
      <trkpt lat="48.79049" lon="5.17643">
        <ele>286.9</ele>
      </trkpt>
      <trkpt lat="48.79048" lon="5.1764">
        <ele>287</ele>
      </trkpt>
      <trkpt lat="48.79046" lon="5.17631">
        <ele>287</ele>
      </trkpt>
      <trkpt lat="48.79041" lon="5.17608">
        <ele>286.9</ele>
      </trkpt>
      <trkpt lat="48.79032" lon="5.17577">
        <ele>286</ele>
      </trkpt>
      <trkpt lat="48.79018" lon="5.17533">
        <ele>285.2</ele>
      </trkpt>
      <trkpt lat="48.79012" lon="5.17511">
        <ele>285</ele>
      </trkpt>
      <trkpt lat="48.79007" lon="5.17489">
        <ele>284.6</ele>
      </trkpt>
      <trkpt lat="48.79003" lon="5.17469">
        <ele>284</ele>
      </trkpt>
      <trkpt lat="48.78998" lon="5.17425">
        <ele>283.2</ele>
        <extensions>
          <visugpx:TrkExtension xmlns:visugpx="https://www.visugpx.com/editgpx/">
            <visugpx:node>3</visugpx:node>
            </visugpx:TrkExtension>
        </extensions>
      </trkpt>
      <trkpt lat="48.78998" lon="5.17425">
        <ele>283.2</ele>
      </trkpt>
      <trkpt lat="48.78994" lon="5.17376">
        <ele>281.9</ele>
      </trkpt>
      <trkpt lat="48.78991" lon="5.17344">
        <ele>281.9</ele>
      </trkpt>
      <trkpt lat="48.78989" lon="5.17325">
        <ele>281.6</ele>
      </trkpt>
      <trkpt lat="48.78987" lon="5.17305">
        <ele>281</ele>
      </trkpt>
      <trkpt lat="48.78986" lon="5.17291">
        <ele>280.7</ele>
      </trkpt>
      <trkpt lat="48.78985" lon="5.17268">
        <ele>280.3</ele>
      </trkpt>
      <trkpt lat="48.78986" lon="5.17252">
        <ele>280</ele>
      </trkpt>
      <trkpt lat="48.78988" lon="5.17235">
        <ele>279.8</ele>
      </trkpt>
      <trkpt lat="48.78993" lon="5.17217">
        <ele>279.6</ele>
      </trkpt>
      <trkpt lat="48.78999" lon="5.17197">
        <ele>279.1</ele>
      </trkpt>
      <trkpt lat="48.79" lon="5.17193">
        <ele>279</ele>
      </trkpt>
      <trkpt lat="48.79005" lon="5.17174">
        <ele>278.8</ele>
      </trkpt>
      <trkpt lat="48.79011" lon="5.17148">
        <ele>278.2</ele>
      </trkpt>
      <trkpt lat="48.79018" lon="5.17113">
        <ele>278</ele>
      </trkpt>
      <trkpt lat="48.79025" lon="5.17066">
        <ele>277.4</ele>
      </trkpt>
      <trkpt lat="48.79031" lon="5.17027">
        <ele>276</ele>
      </trkpt>
      <trkpt lat="48.79041" lon="5.17032">
        <ele>276.2</ele>
      </trkpt>
      <trkpt lat="48.79064" lon="5.1704">
        <ele>276.7</ele>
      </trkpt>
      <trkpt lat="48.79073" lon="5.17043">
        <ele>276.8</ele>
      </trkpt>
      <trkpt lat="48.79074" lon="5.17043">
        <ele>276.8</ele>
        <extensions>
          <visugpx:TrkExtension xmlns:visugpx="https://www.visugpx.com/editgpx/">
            <visugpx:node>4</visugpx:node>
            </visugpx:TrkExtension>
        </extensions>
      </trkpt>
      <trkpt lat="48.79078" lon="5.17043">
        <ele>276.7</ele>
      </trkpt>
      <trkpt lat="48.7908" lon="5.17041">
        <ele>276.5</ele>
      </trkpt>
      <trkpt lat="48.79084" lon="5.17038">
        <ele>276</ele>
      </trkpt>
      <trkpt lat="48.79094" lon="5.17026">
        <ele>273.9</ele>
      </trkpt>
      <trkpt lat="48.79098" lon="5.1702">
        <ele>273.4</ele>
      </trkpt>
      <trkpt lat="48.79101" lon="5.17011">
        <ele>272.9</ele>
      </trkpt>
      <trkpt lat="48.79111" lon="5.16969">
        <ele>271</ele>
      </trkpt>
      <trkpt lat="48.79119" lon="5.1695">
        <ele>269.6</ele>
      </trkpt>
      <trkpt lat="48.79131" lon="5.16937">
        <ele>267.3</ele>
        <extensions>
          <visugpx:TrkExtension xmlns:visugpx="https://www.visugpx.com/editgpx/">
            <visugpx:node>5</visugpx:node>
            </visugpx:TrkExtension>
        </extensions>
      </trkpt>
      <trkpt lat="48.79132" lon="5.16936">
        <ele>267.2</ele>
        <extensions>
          <visugpx:TrkExtension xmlns:visugpx="https://www.visugpx.com/editgpx/">
            <visugpx:node>1</visugpx:node>
            </visugpx:TrkExtension>
        </extensions>
      </trkpt>
      <trkpt lat="48.79128" lon="5.16919">
        <ele>267.6</ele>
      </trkpt>
      <trkpt lat="48.79128" lon="5.16908">
        <ele>267.4</ele>
      </trkpt>
      <trkpt lat="48.79129" lon="5.16896">
        <ele>266.9</ele>
      </trkpt>
      <trkpt lat="48.79127" lon="5.16886">
        <ele>267.1</ele>
      </trkpt>
      <trkpt lat="48.79121" lon="5.1687">
        <ele>268.2</ele>
      </trkpt>
      <trkpt lat="48.7911" lon="5.16852">
        <ele>269.8</ele>
      </trkpt>
      <trkpt lat="48.79109" lon="5.1685">
        <ele>269.8</ele>
      </trkpt>
      <trkpt lat="48.79095" lon="5.16831">
        <ele>270.7</ele>
      </trkpt>
      <trkpt lat="48.79097" lon="5.16753">
        <ele>269.1</ele>
      </trkpt>
      <trkpt lat="48.79098" lon="5.16704">
        <ele>268.6</ele>
      </trkpt>
      <trkpt lat="48.79102" lon="5.16656">
        <ele>267.4</ele>
      </trkpt>
      <trkpt lat="48.7911" lon="5.16616">
        <ele>266.1</ele>
      </trkpt>
      <trkpt lat="48.79114" lon="5.16594">
        <ele>265.6</ele>
      </trkpt>
      <trkpt lat="48.79115" lon="5.16586">
        <ele>265.4</ele>
      </trkpt>
      <trkpt lat="48.79108" lon="5.16536">
        <ele>265.6</ele>
      </trkpt>
      <trkpt lat="48.79104" lon="5.16487">
        <ele>265.2</ele>
      </trkpt>
      <trkpt lat="48.79102" lon="5.16443">
        <ele>265</ele>
      </trkpt>
      <trkpt lat="48.79098" lon="5.1642">
        <ele>265</ele>
      </trkpt>
      <trkpt lat="48.79091" lon="5.1641">
        <ele>265.4</ele>
      </trkpt>
      <trkpt lat="48.79076" lon="5.16405">
        <ele>266.3</ele>
      </trkpt>
      <trkpt lat="48.79076" lon="5.16357">
        <ele>265.9</ele>
      </trkpt>
      <trkpt lat="48.79075" lon="5.16335">
        <ele>265.3</ele>
      </trkpt>
      <trkpt lat="48.79077" lon="5.16314">
        <ele>265.1</ele>
      </trkpt>
      <trkpt lat="48.79078" lon="5.16305">
        <ele>265</ele>
      </trkpt>
      <trkpt lat="48.79079" lon="5.16291">
        <ele>265</ele>
      </trkpt>
      <trkpt lat="48.7908" lon="5.16279">
        <ele>265</ele>
      </trkpt>
      <trkpt lat="48.79082" lon="5.16261">
        <ele>264.4</ele>
      </trkpt>
      <trkpt lat="48.79086" lon="5.16239">
        <ele>263.9</ele>
      </trkpt>
      <trkpt lat="48.79091" lon="5.1621">
        <ele>263.4</ele>
      </trkpt>
      <trkpt lat="48.79094" lon="5.16181">
        <ele>262.5</ele>
      </trkpt>
      <trkpt lat="48.79096" lon="5.16168">
        <ele>262</ele>
      </trkpt>
      <trkpt lat="48.79104" lon="5.16114">
        <ele>261.3</ele>
      </trkpt>
      <trkpt lat="48.79111" lon="5.16079">
        <ele>260</ele>
      </trkpt>
      <trkpt lat="48.79112" lon="5.16067">
        <ele>260</ele>
      </trkpt>
      <trkpt lat="48.79114" lon="5.16056">
        <ele>260</ele>
      </trkpt>
      <trkpt lat="48.79118" lon="5.16027">
        <ele>259.7</ele>
      </trkpt>
      <trkpt lat="48.79122" lon="5.1601">
        <ele>258.3</ele>
        <extensions>
          <visugpx:TrkExtension xmlns:visugpx="https://www.visugpx.com/editgpx/">
            <visugpx:node>1</visugpx:node>
            </visugpx:TrkExtension>
        </extensions>
      </trkpt>
      <trkpt lat="48.79125" lon="5.16008">
        <ele>245</ele>
        <time>2023-01-06T09:55:48.000Z</time>
        <extensions>
          <visugpx:TrkExtension xmlns:visugpx="https://www.visugpx.com/editgpx/">
            <visugpx:node>2</visugpx:node>
            </visugpx:TrkExtension>
        </extensions>
      </trkpt>
      <trkpt lat="48.79125" lon="5.16006">
        <ele>245</ele>
        <time>2023-01-06T09:55:49.000Z</time>
      </trkpt>
      <trkpt lat="48.79125" lon="5.16005">
        <ele>245</ele>
        <time>2023-01-06T09:55:50.000Z</time>
      </trkpt>
      <trkpt lat="48.79125" lon="5.16003">
        <ele>245</ele>
        <time>2023-01-06T09:55:51.000Z</time>
      </trkpt>
      <trkpt lat="48.79125" lon="5.16002">
        <ele>245</ele>
        <time>2023-01-06T09:55:52.000Z</time>
      </trkpt>
      <trkpt lat="48.79125" lon="5.15999">
        <ele>245</ele>
        <time>2023-01-06T09:55:53.000Z</time>
      </trkpt>
      <trkpt lat="48.79124" lon="5.15996">
        <ele>245</ele>
        <time>2023-01-06T09:55:54.000Z</time>
      </trkpt>
      <trkpt lat="48.79124" lon="5.15993">
        <ele>245</ele>
        <time>2023-01-06T09:55:55.000Z</time>
      </trkpt>
      <trkpt lat="48.79124" lon="5.15992">
        <ele>245</ele>
        <time>2023-01-06T09:55:56.000Z</time>
      </trkpt>
      <trkpt lat="48.79123" lon="5.1599">
        <ele>245</ele>
        <time>2023-01-06T09:55:57.000Z</time>
      </trkpt>
      <trkpt lat="48.79123" lon="5.15989">
        <ele>245</ele>
        <time>2023-01-06T09:55:58.000Z</time>
      </trkpt>
      <trkpt lat="48.79123" lon="5.15987">
        <ele>245</ele>
        <time>2023-01-06T09:55:59.000Z</time>
      </trkpt>
      <trkpt lat="48.79123" lon="5.15985">
        <ele>245</ele>
        <time>2023-01-06T09:56:00.000Z</time>
      </trkpt>
      <trkpt lat="48.79122" lon="5.15983">
        <ele>245</ele>
        <time>2023-01-06T09:56:01.000Z</time>
      </trkpt>
      <trkpt lat="48.79122" lon="5.15982">
        <ele>245</ele>
        <time>2023-01-06T09:56:02.000Z</time>
      </trkpt>
      <trkpt lat="48.79122" lon="5.1598">
        <ele>245</ele>
        <time>2023-01-06T09:56:03.000Z</time>
      </trkpt>
      <trkpt lat="48.79122" lon="5.15978">
        <ele>245</ele>
        <time>2023-01-06T09:56:04.000Z</time>
      </trkpt>
      <trkpt lat="48.79122" lon="5.15976">
        <ele>245</ele>
        <time>2023-01-06T09:56:05.000Z</time>
      </trkpt>
      <trkpt lat="48.79122" lon="5.15974">
        <ele>245</ele>
        <time>2023-01-06T09:56:06.000Z</time>
      </trkpt>
      <trkpt lat="48.79122" lon="5.15971">
        <ele>245</ele>
        <time>2023-01-06T09:56:07.000Z</time>
      </trkpt>
      <trkpt lat="48.79122" lon="5.1597">
        <ele>245</ele>
        <time>2023-01-06T09:56:08.000Z</time>
      </trkpt>
      <trkpt lat="48.79121" lon="5.15968">
        <ele>245</ele>
        <time>2023-01-06T09:56:09.000Z</time>
      </trkpt>
      <trkpt lat="48.79121" lon="5.15967">
        <ele>245</ele>
        <time>2023-01-06T09:56:10.000Z</time>
      </trkpt>
      <trkpt lat="48.79121" lon="5.15965">
        <ele>245</ele>
        <time>2023-01-06T09:56:11.000Z</time>
      </trkpt>
      <trkpt lat="48.79121" lon="5.15963">
        <ele>245</ele>
        <time>2023-01-06T09:56:12.000Z</time>
      </trkpt>
      <trkpt lat="48.79121" lon="5.15961">
        <ele>245</ele>
        <time>2023-01-06T09:56:13.000Z</time>
      </trkpt>
      <trkpt lat="48.79122" lon="5.15959">
        <ele>245</ele>
        <time>2023-01-06T09:56:14.000Z</time>
      </trkpt>
      <trkpt lat="48.79122" lon="5.15958">
        <ele>245</ele>
        <time>2023-01-06T09:56:15.000Z</time>
      </trkpt>
      <trkpt lat="48.79122" lon="5.15957">
        <ele>245</ele>
        <time>2023-01-06T09:56:16.000Z</time>
      </trkpt>
      <trkpt lat="48.79122" lon="5.15956">
        <ele>245</ele>
        <time>2023-01-06T09:56:17.000Z</time>
      </trkpt>
      <trkpt lat="48.79122" lon="5.15955">
        <ele>245</ele>
        <time>2023-01-06T09:56:18.000Z</time>
      </trkpt>
      <trkpt lat="48.79122" lon="5.15955">
        <ele>245</ele>
        <time>2023-01-06T09:56:19.000Z</time>
      </trkpt>
      <trkpt lat="48.79122" lon="5.15955">
        <ele>245</ele>
        <time>2023-01-06T09:56:20.000Z</time>
      </trkpt>
      <trkpt lat="48.79122" lon="5.15955">
        <ele>245</ele>
        <time>2023-01-06T09:56:21.000Z</time>
      </trkpt>
      <trkpt lat="48.79122" lon="5.15955">
        <ele>245</ele>
        <time>2023-01-06T09:56:22.000Z</time>
      </trkpt>
      <trkpt lat="48.79122" lon="5.15955">
        <ele>245</ele>
        <time>2023-01-06T09:56:23.000Z</time>
      </trkpt>
      <trkpt lat="48.79122" lon="5.15955">
        <ele>245</ele>
        <time>2023-01-06T09:56:24.000Z</time>
      </trkpt>
      <trkpt lat="48.79122" lon="5.15954">
        <ele>245</ele>
        <time>2023-01-06T09:56:25.000Z</time>
      </trkpt>
      <trkpt lat="48.79122" lon="5.15954">
        <ele>245</ele>
        <time>2023-01-06T09:56:26.000Z</time>
      </trkpt>
      <trkpt lat="48.79122" lon="5.15953">
        <ele>245</ele>
        <time>2023-01-06T09:56:27.000Z</time>
      </trkpt>
      <trkpt lat="48.79122" lon="5.15951">
        <ele>245</ele>
        <time>2023-01-06T09:56:28.000Z</time>
      </trkpt>
      <trkpt lat="48.79122" lon="5.15948">
        <ele>245</ele>
        <time>2023-01-06T09:56:29.000Z</time>
      </trkpt>
      <trkpt lat="48.79122" lon="5.15945">
        <ele>245</ele>
        <time>2023-01-06T09:56:30.000Z</time>
      </trkpt>
      <trkpt lat="48.79122" lon="5.15944">
        <ele>245</ele>
        <time>2023-01-06T09:56:31.000Z</time>
      </trkpt>
      <trkpt lat="48.79121" lon="5.15943">
        <ele>245</ele>
        <time>2023-01-06T09:56:32.000Z</time>
      </trkpt>
      <trkpt lat="48.79121" lon="5.15941">
        <ele>244.7</ele>
        <time>2023-01-06T09:56:33.000Z</time>
      </trkpt>
      <trkpt lat="48.79121" lon="5.1594">
        <ele>244.3</ele>
        <time>2023-01-06T09:56:34.000Z</time>
      </trkpt>
      <trkpt lat="48.79121" lon="5.15939">
        <ele>244</ele>
        <time>2023-01-06T09:56:35.000Z</time>
      </trkpt>
      <trkpt lat="48.79121" lon="5.15937">
        <ele>244</ele>
        <time>2023-01-06T09:56:36.000Z</time>
      </trkpt>
      <trkpt lat="48.7912" lon="5.15936">
        <ele>244</ele>
        <time>2023-01-06T09:56:37.000Z</time>
      </trkpt>
      <trkpt lat="48.7912" lon="5.15935">
        <ele>244</ele>
        <time>2023-01-06T09:56:38.000Z</time>
      </trkpt>
      <trkpt lat="48.7912" lon="5.15933">
        <ele>244</ele>
        <time>2023-01-06T09:56:39.000Z</time>
      </trkpt>
      <trkpt lat="48.7912" lon="5.15931">
        <ele>244</ele>
        <time>2023-01-06T09:56:40.000Z</time>
      </trkpt>
      <trkpt lat="48.7912" lon="5.15928">
        <ele>244</ele>
        <time>2023-01-06T09:56:41.000Z</time>
      </trkpt>
      <trkpt lat="48.7912" lon="5.15925">
        <ele>244</ele>
        <time>2023-01-06T09:56:42.000Z</time>
      </trkpt>
      <trkpt lat="48.7912" lon="5.15922">
        <ele>244</ele>
        <time>2023-01-06T09:56:43.000Z</time>
      </trkpt>
      <trkpt lat="48.7912" lon="5.1592">
        <ele>244</ele>
        <time>2023-01-06T09:56:44.000Z</time>
      </trkpt>
      <trkpt lat="48.79121" lon="5.15917">
        <ele>244</ele>
        <time>2023-01-06T09:56:45.000Z</time>
      </trkpt>
      <trkpt lat="48.79121" lon="5.15914">
        <ele>244</ele>
        <time>2023-01-06T09:56:46.000Z</time>
      </trkpt>
      <trkpt lat="48.79121" lon="5.15911">
        <ele>243.7</ele>
        <time>2023-01-06T09:56:47.000Z</time>
      </trkpt>
      <trkpt lat="48.79122" lon="5.15908">
        <ele>243.3</ele>
        <time>2023-01-06T09:56:48.000Z</time>
      </trkpt>
      <trkpt lat="48.79122" lon="5.15905">
        <ele>243</ele>
        <time>2023-01-06T09:56:49.000Z</time>
      </trkpt>
      <trkpt lat="48.79122" lon="5.15901">
        <ele>243</ele>
        <time>2023-01-06T09:56:50.000Z</time>
      </trkpt>
      <trkpt lat="48.79123" lon="5.15898">
        <ele>243</ele>
        <time>2023-01-06T09:56:51.000Z</time>
      </trkpt>
      <trkpt lat="48.79123" lon="5.15894">
        <ele>243</ele>
        <time>2023-01-06T09:56:52.000Z</time>
      </trkpt>
      <trkpt lat="48.79123" lon="5.15891">
        <ele>243</ele>
        <time>2023-01-06T09:56:53.000Z</time>
      </trkpt>
      <trkpt lat="48.79124" lon="5.15889">
        <ele>243</ele>
        <time>2023-01-06T09:56:54.000Z</time>
      </trkpt>
      <trkpt lat="48.79124" lon="5.15888">
        <ele>243</ele>
        <time>2023-01-06T09:56:55.000Z</time>
      </trkpt>
      <trkpt lat="48.79124" lon="5.15887">
        <ele>243</ele>
        <time>2023-01-06T09:56:56.000Z</time>
      </trkpt>
      <trkpt lat="48.79124" lon="5.15886">
        <ele>243</ele>
        <time>2023-01-06T09:56:57.000Z</time>
      </trkpt>
      <trkpt lat="48.79124" lon="5.15885">
        <ele>243</ele>
        <time>2023-01-06T09:56:58.000Z</time>
      </trkpt>
      <trkpt lat="48.79124" lon="5.15885">
        <ele>243</ele>
        <time>2023-01-06T09:56:59.000Z</time>
      </trkpt>
      <trkpt lat="48.79124" lon="5.15884">
        <ele>242.5</ele>
        <time>2023-01-06T09:57:00.000Z</time>
      </trkpt>
      <trkpt lat="48.79124" lon="5.15883">
        <ele>242</ele>
        <time>2023-01-06T09:57:01.000Z</time>
      </trkpt>
      <trkpt lat="48.79124" lon="5.15882">
        <ele>242</ele>
        <time>2023-01-06T09:57:02.000Z</time>
      </trkpt>
      <trkpt lat="48.79124" lon="5.15881">
        <ele>242</ele>
        <time>2023-01-06T09:57:03.000Z</time>
      </trkpt>
      <trkpt lat="48.79124" lon="5.15879">
        <ele>242</ele>
        <time>2023-01-06T09:57:04.000Z</time>
      </trkpt>
      <trkpt lat="48.79124" lon="5.15878">
        <ele>242</ele>
        <time>2023-01-06T09:57:05.000Z</time>
      </trkpt>
      <trkpt lat="48.79124" lon="5.15877">
        <ele>242</ele>
        <time>2023-01-06T09:57:06.000Z</time>
      </trkpt>
      <trkpt lat="48.79124" lon="5.15876">
        <ele>242</ele>
        <time>2023-01-06T09:57:07.000Z</time>
      </trkpt>
      <trkpt lat="48.79124" lon="5.15874">
        <ele>242</ele>
        <time>2023-01-06T09:57:08.000Z</time>
      </trkpt>
      <trkpt lat="48.79124" lon="5.15873">
        <ele>242</ele>
        <time>2023-01-06T09:57:09.000Z</time>
      </trkpt>
      <trkpt lat="48.79124" lon="5.15871">
        <ele>241.5</ele>
        <time>2023-01-06T09:57:10.000Z</time>
      </trkpt>
      <trkpt lat="48.79124" lon="5.15868">
        <ele>241</ele>
        <time>2023-01-06T09:57:11.000Z</time>
      </trkpt>
      <trkpt lat="48.79124" lon="5.15866">
        <ele>241</ele>
        <time>2023-01-06T09:57:12.000Z</time>
      </trkpt>
      <trkpt lat="48.79124" lon="5.15863">
        <ele>241</ele>
        <time>2023-01-06T09:57:13.000Z</time>
      </trkpt>
      <trkpt lat="48.79124" lon="5.15861">
        <ele>241</ele>
        <time>2023-01-06T09:57:14.000Z</time>
      </trkpt>
      <trkpt lat="48.79125" lon="5.15859">
        <ele>241</ele>
        <time>2023-01-06T09:57:15.000Z</time>
      </trkpt>
      <trkpt lat="48.79125" lon="5.15856">
        <ele>241</ele>
        <time>2023-01-06T09:57:16.000Z</time>
      </trkpt>
      <trkpt lat="48.79125" lon="5.15854">
        <ele>241</ele>
        <time>2023-01-06T09:57:17.000Z</time>
      </trkpt>
      <trkpt lat="48.79126" lon="5.15852">
        <ele>241</ele>
        <time>2023-01-06T09:57:18.000Z</time>
      </trkpt>
      <trkpt lat="48.79126" lon="5.1585">
        <ele>241</ele>
        <time>2023-01-06T09:57:19.000Z</time>
      </trkpt>
      <trkpt lat="48.79127" lon="5.15847">
        <ele>241</ele>
        <time>2023-01-06T09:57:20.000Z</time>
      </trkpt>
      <trkpt lat="48.79127" lon="5.15844">
        <ele>240.7</ele>
        <time>2023-01-06T09:57:21.000Z</time>
      </trkpt>
      <trkpt lat="48.79128" lon="5.15841">
        <ele>240.3</ele>
        <time>2023-01-06T09:57:22.000Z</time>
      </trkpt>
      <trkpt lat="48.79129" lon="5.15839">
        <ele>240</ele>
        <time>2023-01-06T09:57:23.000Z</time>
      </trkpt>
      <trkpt lat="48.79129" lon="5.15836">
        <ele>240</ele>
        <time>2023-01-06T09:57:24.000Z</time>
      </trkpt>
      <trkpt lat="48.7913" lon="5.15834">
        <ele>240</ele>
        <time>2023-01-06T09:57:25.000Z</time>
      </trkpt>
      <trkpt lat="48.7913" lon="5.15832">
        <ele>240</ele>
        <time>2023-01-06T09:57:26.000Z</time>
      </trkpt>
      <trkpt lat="48.7913" lon="5.1583">
        <ele>240</ele>
        <time>2023-01-06T09:57:27.000Z</time>
      </trkpt>
      <trkpt lat="48.7913" lon="5.15828">
        <ele>240</ele>
        <time>2023-01-06T09:57:28.000Z</time>
      </trkpt>
      <trkpt lat="48.7913" lon="5.15825">
        <ele>240</ele>
        <time>2023-01-06T09:57:29.000Z</time>
      </trkpt>
      <trkpt lat="48.7913" lon="5.15822">
        <ele>239</ele>
        <time>2023-01-06T09:57:30.000Z</time>
      </trkpt>
      <trkpt lat="48.7913" lon="5.1582">
        <ele>239</ele>
        <time>2023-01-06T09:57:31.000Z</time>
      </trkpt>
      <trkpt lat="48.7913" lon="5.15818">
        <ele>239</ele>
        <time>2023-01-06T09:57:32.000Z</time>
      </trkpt>
      <trkpt lat="48.7913" lon="5.15816">
        <ele>239</ele>
        <time>2023-01-06T09:57:33.000Z</time>
      </trkpt>
      <trkpt lat="48.7913" lon="5.15814">
        <ele>239</ele>
        <time>2023-01-06T09:57:34.000Z</time>
      </trkpt>
      <trkpt lat="48.7913" lon="5.15812">
        <ele>239</ele>
        <time>2023-01-06T09:57:35.000Z</time>
      </trkpt>
      <trkpt lat="48.79129" lon="5.15809">
        <ele>239</ele>
        <time>2023-01-06T09:57:36.000Z</time>
      </trkpt>
      <trkpt lat="48.79129" lon="5.15807">
        <ele>239</ele>
        <time>2023-01-06T09:57:37.000Z</time>
      </trkpt>
      <trkpt lat="48.79129" lon="5.15804">
        <ele>239</ele>
        <time>2023-01-06T09:57:38.000Z</time>
      </trkpt>
      <trkpt lat="48.79129" lon="5.15802">
        <ele>239</ele>
        <time>2023-01-06T09:57:39.000Z</time>
      </trkpt>
      <trkpt lat="48.79128" lon="5.15799">
        <ele>238.5</ele>
        <time>2023-01-06T09:57:40.000Z</time>
      </trkpt>
      <trkpt lat="48.79128" lon="5.15797">
        <ele>238</ele>
        <time>2023-01-06T09:57:41.000Z</time>
      </trkpt>
      <trkpt lat="48.79128" lon="5.15796">
        <ele>238</ele>
        <time>2023-01-06T09:57:42.000Z</time>
      </trkpt>
      <trkpt lat="48.79128" lon="5.15794">
        <ele>238</ele>
        <time>2023-01-06T09:57:43.000Z</time>
      </trkpt>
      <trkpt lat="48.79128" lon="5.15793">
        <ele>238</ele>
        <time>2023-01-06T09:57:44.000Z</time>
      </trkpt>
      <trkpt lat="48.79128" lon="5.15792">
        <ele>238</ele>
        <time>2023-01-06T09:57:45.000Z</time>
      </trkpt>
      <trkpt lat="48.79128" lon="5.15791">
        <ele>238</ele>
        <time>2023-01-06T09:57:46.000Z</time>
      </trkpt>
      <trkpt lat="48.79128" lon="5.15789">
        <ele>238</ele>
        <time>2023-01-06T09:57:47.000Z</time>
      </trkpt>
      <trkpt lat="48.79128" lon="5.15788">
        <ele>238</ele>
        <time>2023-01-06T09:57:48.000Z</time>
      </trkpt>
      <trkpt lat="48.79128" lon="5.15786">
        <ele>238</ele>
        <time>2023-01-06T09:57:49.000Z</time>
      </trkpt>
      <trkpt lat="48.79128" lon="5.15784">
        <ele>238</ele>
        <time>2023-01-06T09:57:50.000Z</time>
      </trkpt>
      <trkpt lat="48.79128" lon="5.15783">
        <ele>237.7</ele>
        <time>2023-01-06T09:57:51.000Z</time>
      </trkpt>
      <trkpt lat="48.79128" lon="5.15782">
        <ele>237.3</ele>
        <time>2023-01-06T09:57:52.000Z</time>
      </trkpt>
      <trkpt lat="48.79128" lon="5.1578">
        <ele>237</ele>
        <time>2023-01-06T09:57:53.000Z</time>
      </trkpt>
      <trkpt lat="48.79128" lon="5.15779">
        <ele>237</ele>
        <time>2023-01-06T09:57:54.000Z</time>
      </trkpt>
      <trkpt lat="48.79127" lon="5.15778">
        <ele>237</ele>
        <time>2023-01-06T09:57:55.000Z</time>
      </trkpt>
      <trkpt lat="48.79127" lon="5.15776">
        <ele>237</ele>
        <time>2023-01-06T09:57:56.000Z</time>
      </trkpt>
      <trkpt lat="48.79127" lon="5.15775">
        <ele>237</ele>
        <time>2023-01-06T09:57:57.000Z</time>
      </trkpt>
      <trkpt lat="48.79127" lon="5.15773">
        <ele>237</ele>
        <time>2023-01-06T09:57:58.000Z</time>
      </trkpt>
      <trkpt lat="48.79127" lon="5.15771">
        <ele>237</ele>
        <time>2023-01-06T09:57:59.000Z</time>
      </trkpt>
      <trkpt lat="48.79127" lon="5.1577">
        <ele>237</ele>
        <time>2023-01-06T09:58:00.000Z</time>
      </trkpt>
      <trkpt lat="48.79127" lon="5.15768">
        <ele>236.7</ele>
        <time>2023-01-06T09:58:01.000Z</time>
      </trkpt>
      <trkpt lat="48.79127" lon="5.15766">
        <ele>236.3</ele>
        <time>2023-01-06T09:58:02.000Z</time>
      </trkpt>
      <trkpt lat="48.79127" lon="5.15765">
        <ele>236</ele>
        <time>2023-01-06T09:58:03.000Z</time>
      </trkpt>
      <trkpt lat="48.79127" lon="5.15763">
        <ele>236</ele>
        <time>2023-01-06T09:58:04.000Z</time>
      </trkpt>
      <trkpt lat="48.79126" lon="5.15761">
        <ele>236</ele>
        <time>2023-01-06T09:58:05.000Z</time>
      </trkpt>
      <trkpt lat="48.79126" lon="5.15759">
        <ele>236</ele>
        <time>2023-01-06T09:58:06.000Z</time>
      </trkpt>
      <trkpt lat="48.79126" lon="5.15756">
        <ele>236</ele>
        <time>2023-01-06T09:58:07.000Z</time>
      </trkpt>
      <trkpt lat="48.79126" lon="5.15754">
        <ele>236</ele>
        <time>2023-01-06T09:58:08.000Z</time>
      </trkpt>
      <trkpt lat="48.79126" lon="5.15751">
        <ele>236</ele>
        <time>2023-01-06T09:58:09.000Z</time>
      </trkpt>
      <trkpt lat="48.79126" lon="5.15749">
        <ele>236</ele>
        <time>2023-01-06T09:58:10.000Z</time>
      </trkpt>
      <trkpt lat="48.79127" lon="5.15747">
        <ele>236</ele>
        <time>2023-01-06T09:58:11.000Z</time>
      </trkpt>
      <trkpt lat="48.79127" lon="5.15745">
        <ele>235</ele>
        <time>2023-01-06T09:58:12.000Z</time>
      </trkpt>
      <trkpt lat="48.79127" lon="5.15743">
        <ele>235</ele>
        <time>2023-01-06T09:58:13.000Z</time>
      </trkpt>
      <trkpt lat="48.79127" lon="5.15741">
        <ele>235</ele>
        <time>2023-01-06T09:58:14.000Z</time>
      </trkpt>
      <trkpt lat="48.79128" lon="5.1574">
        <ele>235</ele>
        <time>2023-01-06T09:58:15.000Z</time>
      </trkpt>
      <trkpt lat="48.79128" lon="5.15738">
        <ele>235</ele>
        <time>2023-01-06T09:58:16.000Z</time>
      </trkpt>
      <trkpt lat="48.79128" lon="5.15736">
        <ele>235</ele>
        <time>2023-01-06T09:58:17.000Z</time>
      </trkpt>
      <trkpt lat="48.79128" lon="5.15734">
        <ele>234.5</ele>
        <time>2023-01-06T09:58:18.000Z</time>
      </trkpt>
      <trkpt lat="48.79128" lon="5.15731">
        <ele>234</ele>
        <time>2023-01-06T09:58:19.000Z</time>
      </trkpt>
      <trkpt lat="48.79127" lon="5.15729">
        <ele>234</ele>
        <time>2023-01-06T09:58:20.000Z</time>
      </trkpt>
      <trkpt lat="48.79127" lon="5.15727">
        <ele>234</ele>
        <time>2023-01-06T09:58:21.000Z</time>
      </trkpt>
      <trkpt lat="48.79127" lon="5.15725">
        <ele>234</ele>
        <time>2023-01-06T09:58:22.000Z</time>
      </trkpt>
      <trkpt lat="48.79127" lon="5.15723">
        <ele>234</ele>
        <time>2023-01-06T09:58:23.000Z</time>
      </trkpt>
      <trkpt lat="48.79127" lon="5.15721">
        <ele>234</ele>
        <time>2023-01-06T09:58:24.000Z</time>
      </trkpt>
      <trkpt lat="48.79127" lon="5.15719">
        <ele>234</ele>
        <time>2023-01-06T09:58:25.000Z</time>
      </trkpt>
      <trkpt lat="48.79127" lon="5.15717">
        <ele>234</ele>
        <time>2023-01-06T09:58:26.000Z</time>
      </trkpt>
      <trkpt lat="48.79127" lon="5.15715">
        <ele>234</ele>
        <time>2023-01-06T09:58:27.000Z</time>
      </trkpt>
      <trkpt lat="48.79126" lon="5.15713">
        <ele>233.5</ele>
        <time>2023-01-06T09:58:28.000Z</time>
      </trkpt>
      <trkpt lat="48.79126" lon="5.15711">
        <ele>233</ele>
        <time>2023-01-06T09:58:29.000Z</time>
      </trkpt>
      <trkpt lat="48.79126" lon="5.15709">
        <ele>233</ele>
        <time>2023-01-06T09:58:30.000Z</time>
      </trkpt>
      <trkpt lat="48.79125" lon="5.15707">
        <ele>233</ele>
        <time>2023-01-06T09:58:31.000Z</time>
      </trkpt>
      <trkpt lat="48.79125" lon="5.15704">
        <ele>233</ele>
        <time>2023-01-06T09:58:32.000Z</time>
      </trkpt>
      <trkpt lat="48.79125" lon="5.15702">
        <ele>233</ele>
        <time>2023-01-06T09:58:33.000Z</time>
      </trkpt>
      <trkpt lat="48.79125" lon="5.15699">
        <ele>233</ele>
        <time>2023-01-06T09:58:34.000Z</time>
      </trkpt>
      <trkpt lat="48.79124" lon="5.15697">
        <ele>233</ele>
        <time>2023-01-06T09:58:35.000Z</time>
      </trkpt>
      <trkpt lat="48.79124" lon="5.15694">
        <ele>232.5</ele>
        <time>2023-01-06T09:58:36.000Z</time>
      </trkpt>
      <trkpt lat="48.79124" lon="5.15692">
        <ele>232</ele>
        <time>2023-01-06T09:58:37.000Z</time>
      </trkpt>
      <trkpt lat="48.79124" lon="5.15689">
        <ele>232</ele>
        <time>2023-01-06T09:58:38.000Z</time>
      </trkpt>
      <trkpt lat="48.79124" lon="5.15685">
        <ele>232</ele>
        <time>2023-01-06T09:58:39.000Z</time>
      </trkpt>
      <trkpt lat="48.79124" lon="5.15682">
        <ele>232</ele>
        <time>2023-01-06T09:58:40.000Z</time>
      </trkpt>
      <trkpt lat="48.79124" lon="5.1568">
        <ele>232</ele>
        <time>2023-01-06T09:58:41.000Z</time>
      </trkpt>
      <trkpt lat="48.79124" lon="5.15678">
        <ele>231.5</ele>
        <time>2023-01-06T09:58:42.000Z</time>
      </trkpt>
      <trkpt lat="48.79123" lon="5.15676">
        <ele>231</ele>
        <time>2023-01-06T09:58:43.000Z</time>
      </trkpt>
      <trkpt lat="48.79123" lon="5.15673">
        <ele>231</ele>
        <time>2023-01-06T09:58:44.000Z</time>
      </trkpt>
      <trkpt lat="48.79123" lon="5.1567">
        <ele>231</ele>
        <time>2023-01-06T09:58:45.000Z</time>
      </trkpt>
      <trkpt lat="48.79124" lon="5.15668">
        <ele>231</ele>
        <time>2023-01-06T09:58:46.000Z</time>
      </trkpt>
      <trkpt lat="48.79124" lon="5.15666">
        <ele>231</ele>
        <time>2023-01-06T09:58:47.000Z</time>
      </trkpt>
      <trkpt lat="48.79124" lon="5.15664">
        <ele>230.5</ele>
        <time>2023-01-06T09:58:48.000Z</time>
      </trkpt>
      <trkpt lat="48.79124" lon="5.15661">
        <ele>230</ele>
        <time>2023-01-06T09:58:49.000Z</time>
      </trkpt>
      <trkpt lat="48.79124" lon="5.15659">
        <ele>230</ele>
        <time>2023-01-06T09:58:50.000Z</time>
      </trkpt>
      <trkpt lat="48.79124" lon="5.15657">
        <ele>229.7</ele>
        <time>2023-01-06T09:58:51.000Z</time>
      </trkpt>
      <trkpt lat="48.79124" lon="5.15656">
        <ele>229.3</ele>
        <time>2023-01-06T09:58:52.000Z</time>
      </trkpt>
      <trkpt lat="48.79124" lon="5.15655">
        <ele>229</ele>
        <time>2023-01-06T09:58:53.000Z</time>
      </trkpt>
      <trkpt lat="48.79124" lon="5.15654">
        <ele>229</ele>
        <time>2023-01-06T09:58:54.000Z</time>
      </trkpt>
      <trkpt lat="48.79124" lon="5.15653">
        <ele>229</ele>
        <time>2023-01-06T09:58:55.000Z</time>
      </trkpt>
      <trkpt lat="48.79123" lon="5.15651">
        <ele>229</ele>
        <time>2023-01-06T09:58:56.000Z</time>
      </trkpt>
      <trkpt lat="48.79123" lon="5.1565">
        <ele>229</ele>
        <time>2023-01-06T09:58:57.000Z</time>
      </trkpt>
      <trkpt lat="48.79123" lon="5.15648">
        <ele>228</ele>
        <time>2023-01-06T09:58:58.000Z</time>
      </trkpt>
      <trkpt lat="48.79122" lon="5.15647">
        <ele>228</ele>
        <time>2023-01-06T09:58:59.000Z</time>
      </trkpt>
      <trkpt lat="48.79122" lon="5.15646">
        <ele>228</ele>
        <time>2023-01-06T09:59:00.000Z</time>
      </trkpt>
      <trkpt lat="48.79122" lon="5.15645">
        <ele>228</ele>
        <time>2023-01-06T09:59:01.000Z</time>
      </trkpt>
      <trkpt lat="48.79122" lon="5.15645">
        <ele>228</ele>
        <time>2023-01-06T09:59:02.000Z</time>
      </trkpt>
      <trkpt lat="48.79122" lon="5.15644">
        <ele>228</ele>
        <time>2023-01-06T09:59:03.000Z</time>
      </trkpt>
      <trkpt lat="48.79122" lon="5.15642">
        <ele>227.5</ele>
        <time>2023-01-06T09:59:04.000Z</time>
      </trkpt>
      <trkpt lat="48.79122" lon="5.15639">
        <ele>227</ele>
        <time>2023-01-06T09:59:05.000Z</time>
      </trkpt>
      <trkpt lat="48.79122" lon="5.15636">
        <ele>227</ele>
        <time>2023-01-06T09:59:06.000Z</time>
      </trkpt>
      <trkpt lat="48.79122" lon="5.15633">
        <ele>227</ele>
        <time>2023-01-06T09:59:07.000Z</time>
      </trkpt>
      <trkpt lat="48.79123" lon="5.15631">
        <ele>227</ele>
        <time>2023-01-06T09:59:08.000Z</time>
      </trkpt>
      <trkpt lat="48.79123" lon="5.15629">
        <ele>227</ele>
        <time>2023-01-06T09:59:09.000Z</time>
      </trkpt>
      <trkpt lat="48.79123" lon="5.15627">
        <ele>227</ele>
        <time>2023-01-06T09:59:10.000Z</time>
      </trkpt>
      <trkpt lat="48.79124" lon="5.15626">
        <ele>227</ele>
        <time>2023-01-06T09:59:11.000Z</time>
      </trkpt>
      <trkpt lat="48.79124" lon="5.15624">
        <ele>226.5</ele>
        <time>2023-01-06T09:59:12.000Z</time>
      </trkpt>
      <trkpt lat="48.79125" lon="5.15622">
        <ele>226</ele>
        <time>2023-01-06T09:59:13.000Z</time>
      </trkpt>
      <trkpt lat="48.79125" lon="5.1562">
        <ele>226</ele>
        <time>2023-01-06T09:59:14.000Z</time>
      </trkpt>
      <trkpt lat="48.79125" lon="5.15618">
        <ele>226</ele>
        <time>2023-01-06T09:59:15.000Z</time>
      </trkpt>
      <trkpt lat="48.79126" lon="5.15617">
        <ele>226</ele>
        <time>2023-01-06T09:59:16.000Z</time>
      </trkpt>
      <trkpt lat="48.79126" lon="5.15616">
        <ele>226</ele>
        <time>2023-01-06T09:59:17.000Z</time>
      </trkpt>
      <trkpt lat="48.79126" lon="5.15616">
        <ele>226</ele>
        <time>2023-01-06T09:59:18.000Z</time>
      </trkpt>
      <trkpt lat="48.79126" lon="5.15614">
        <ele>226</ele>
        <time>2023-01-06T09:59:19.000Z</time>
      </trkpt>
      <trkpt lat="48.79127" lon="5.15612">
        <ele>226</ele>
        <time>2023-01-06T09:59:20.000Z</time>
      </trkpt>
      <trkpt lat="48.79128" lon="5.1561">
        <ele>226</ele>
        <time>2023-01-06T09:59:21.000Z</time>
      </trkpt>
      <trkpt lat="48.79129" lon="5.15607">
        <ele>226</ele>
        <time>2023-01-06T09:59:22.000Z</time>
      </trkpt>
      <trkpt lat="48.79131" lon="5.15601">
        <ele>226</ele>
        <time>2023-01-06T09:59:23.000Z</time>
      </trkpt>
      <trkpt lat="48.79132" lon="5.15598">
        <ele>226</ele>
        <time>2023-01-06T09:59:24.000Z</time>
      </trkpt>
      <trkpt lat="48.79133" lon="5.15597">
        <ele>226</ele>
        <time>2023-01-06T09:59:25.000Z</time>
      </trkpt>
      <trkpt lat="48.79133" lon="5.15596">
        <ele>226</ele>
        <time>2023-01-06T09:59:26.000Z</time>
      </trkpt>
      <trkpt lat="48.79134" lon="5.15595">
        <ele>226</ele>
        <time>2023-01-06T09:59:27.000Z</time>
      </trkpt>
      <trkpt lat="48.79135" lon="5.15594">
        <ele>226</ele>
        <time>2023-01-06T09:59:28.000Z</time>
      </trkpt>
      <trkpt lat="48.79135" lon="5.15592">
        <ele>226</ele>
        <time>2023-01-06T09:59:29.000Z</time>
      </trkpt>
      <trkpt lat="48.79136" lon="5.15591">
        <ele>226</ele>
        <time>2023-01-06T09:59:30.000Z</time>
      </trkpt>
      <trkpt lat="48.79137" lon="5.15589">
        <ele>226</ele>
        <time>2023-01-06T09:59:31.000Z</time>
      </trkpt>
      <trkpt lat="48.79139" lon="5.15588">
        <ele>226</ele>
        <time>2023-01-06T09:59:32.000Z</time>
      </trkpt>
      <trkpt lat="48.7914" lon="5.15586">
        <ele>226</ele>
        <time>2023-01-06T09:59:33.000Z</time>
      </trkpt>
      <trkpt lat="48.7914" lon="5.15586">
        <ele>226</ele>
        <time>2023-01-06T09:59:34.000Z</time>
      </trkpt>
      <trkpt lat="48.79141" lon="5.15585">
        <ele>226</ele>
        <time>2023-01-06T09:59:35.000Z</time>
      </trkpt>
      <trkpt lat="48.79142" lon="5.15584">
        <ele>226</ele>
        <time>2023-01-06T09:59:36.000Z</time>
      </trkpt>
      <trkpt lat="48.79143" lon="5.15583">
        <ele>226</ele>
        <time>2023-01-06T09:59:37.000Z</time>
      </trkpt>
      <trkpt lat="48.79145" lon="5.15581">
        <ele>226</ele>
        <time>2023-01-06T09:59:38.000Z</time>
      </trkpt>
      <trkpt lat="48.79146" lon="5.1558">
        <ele>226</ele>
        <time>2023-01-06T09:59:39.000Z</time>
      </trkpt>
      <trkpt lat="48.79147" lon="5.15579">
        <ele>226</ele>
        <time>2023-01-06T09:59:40.000Z</time>
      </trkpt>
      <trkpt lat="48.79148" lon="5.15577">
        <ele>226</ele>
        <time>2023-01-06T09:59:41.000Z</time>
      </trkpt>
      <trkpt lat="48.7915" lon="5.15575">
        <ele>226</ele>
        <time>2023-01-06T09:59:42.000Z</time>
      </trkpt>
      <trkpt lat="48.79152" lon="5.15573">
        <ele>225.5</ele>
        <time>2023-01-06T09:59:43.000Z</time>
      </trkpt>
      <trkpt lat="48.79153" lon="5.15572">
        <ele>225</ele>
        <time>2023-01-06T09:59:44.000Z</time>
      </trkpt>
      <trkpt lat="48.79154" lon="5.15571">
        <ele>225</ele>
        <time>2023-01-06T09:59:45.000Z</time>
      </trkpt>
      <trkpt lat="48.79156" lon="5.15569">
        <ele>225</ele>
        <time>2023-01-06T09:59:46.000Z</time>
      </trkpt>
      <trkpt lat="48.79157" lon="5.15568">
        <ele>225</ele>
        <time>2023-01-06T09:59:47.000Z</time>
      </trkpt>
      <trkpt lat="48.79159" lon="5.15566">
        <ele>225</ele>
        <time>2023-01-06T09:59:48.000Z</time>
      </trkpt>
      <trkpt lat="48.79161" lon="5.15564">
        <ele>225</ele>
        <time>2023-01-06T09:59:49.000Z</time>
      </trkpt>
      <trkpt lat="48.79162" lon="5.15563">
        <ele>225</ele>
        <time>2023-01-06T09:59:50.000Z</time>
      </trkpt>
      <trkpt lat="48.79164" lon="5.15561">
        <ele>225</ele>
        <time>2023-01-06T09:59:51.000Z</time>
      </trkpt>
      <trkpt lat="48.79165" lon="5.1556">
        <ele>225</ele>
        <time>2023-01-06T09:59:52.000Z</time>
      </trkpt>
      <trkpt lat="48.79166" lon="5.15558">
        <ele>225</ele>
        <time>2023-01-06T09:59:53.000Z</time>
      </trkpt>
      <trkpt lat="48.79167" lon="5.15557">
        <ele>225</ele>
        <time>2023-01-06T09:59:54.000Z</time>
      </trkpt>
      <trkpt lat="48.79168" lon="5.15555">
        <ele>225</ele>
        <time>2023-01-06T09:59:55.000Z</time>
      </trkpt>
      <trkpt lat="48.79169" lon="5.15554">
        <ele>225</ele>
        <time>2023-01-06T09:59:56.000Z</time>
      </trkpt>
      <trkpt lat="48.7917" lon="5.15552">
        <ele>225</ele>
        <time>2023-01-06T09:59:57.000Z</time>
      </trkpt>
      <trkpt lat="48.79171" lon="5.15551">
        <ele>225</ele>
        <time>2023-01-06T09:59:58.000Z</time>
      </trkpt>
      <trkpt lat="48.79172" lon="5.15549">
        <ele>225</ele>
        <time>2023-01-06T09:59:59.000Z</time>
      </trkpt>
      <trkpt lat="48.79173" lon="5.15546">
        <ele>225</ele>
        <time>2023-01-06T10:00:00.000Z</time>
      </trkpt>
      <trkpt lat="48.79175" lon="5.15544">
        <ele>225</ele>
        <time>2023-01-06T10:00:01.000Z</time>
      </trkpt>
      <trkpt lat="48.79176" lon="5.15542">
        <ele>225</ele>
        <time>2023-01-06T10:00:02.000Z</time>
      </trkpt>
      <trkpt lat="48.79176" lon="5.1554">
        <ele>225</ele>
        <time>2023-01-06T10:00:03.000Z</time>
      </trkpt>
      <trkpt lat="48.79176" lon="5.15539">
        <ele>225</ele>
        <time>2023-01-06T10:00:04.000Z</time>
      </trkpt>
      <trkpt lat="48.79177" lon="5.15538">
        <ele>225</ele>
        <time>2023-01-06T10:00:05.000Z</time>
      </trkpt>
      <trkpt lat="48.79178" lon="5.15537">
        <ele>225</ele>
        <time>2023-01-06T10:00:06.000Z</time>
      </trkpt>
      <trkpt lat="48.79179" lon="5.15535">
        <ele>225</ele>
        <time>2023-01-06T10:00:07.000Z</time>
      </trkpt>
      <trkpt lat="48.7918" lon="5.15533">
        <ele>225</ele>
        <time>2023-01-06T10:00:08.000Z</time>
      </trkpt>
      <trkpt lat="48.79182" lon="5.15531">
        <ele>225</ele>
        <time>2023-01-06T10:00:09.000Z</time>
      </trkpt>
      <trkpt lat="48.79183" lon="5.15529">
        <ele>225</ele>
        <time>2023-01-06T10:00:10.000Z</time>
      </trkpt>
      <trkpt lat="48.79184" lon="5.15528">
        <ele>225</ele>
        <time>2023-01-06T10:00:11.000Z</time>
      </trkpt>
      <trkpt lat="48.79186" lon="5.15525">
        <ele>225</ele>
        <time>2023-01-06T10:00:12.000Z</time>
      </trkpt>
      <trkpt lat="48.79188" lon="5.15523">
        <ele>225</ele>
        <time>2023-01-06T10:00:13.000Z</time>
      </trkpt>
      <trkpt lat="48.79189" lon="5.15522">
        <ele>225</ele>
        <time>2023-01-06T10:00:14.000Z</time>
      </trkpt>
      <trkpt lat="48.7919" lon="5.1552">
        <ele>225</ele>
        <time>2023-01-06T10:00:15.000Z</time>
      </trkpt>
      <trkpt lat="48.79192" lon="5.15517">
        <ele>224</ele>
        <time>2023-01-06T10:00:16.000Z</time>
      </trkpt>
      <trkpt lat="48.79195" lon="5.15514">
        <ele>224</ele>
        <time>2023-01-06T10:00:17.000Z</time>
      </trkpt>
      <trkpt lat="48.79196" lon="5.15511">
        <ele>224</ele>
        <time>2023-01-06T10:00:18.000Z</time>
      </trkpt>
      <trkpt lat="48.79198" lon="5.15509">
        <ele>224</ele>
        <time>2023-01-06T10:00:19.000Z</time>
      </trkpt>
      <trkpt lat="48.79199" lon="5.15507">
        <ele>224</ele>
        <time>2023-01-06T10:00:20.000Z</time>
      </trkpt>
      <trkpt lat="48.792" lon="5.15505">
        <ele>224</ele>
        <time>2023-01-06T10:00:21.000Z</time>
      </trkpt>
      <trkpt lat="48.79202" lon="5.15503">
        <ele>224</ele>
        <time>2023-01-06T10:00:22.000Z</time>
      </trkpt>
      <trkpt lat="48.79204" lon="5.15501">
        <ele>224</ele>
        <time>2023-01-06T10:00:23.000Z</time>
      </trkpt>
      <trkpt lat="48.79206" lon="5.15499">
        <ele>224</ele>
        <time>2023-01-06T10:00:24.000Z</time>
      </trkpt>
      <trkpt lat="48.79207" lon="5.15497">
        <ele>224</ele>
        <time>2023-01-06T10:00:25.000Z</time>
      </trkpt>
      <trkpt lat="48.79209" lon="5.15495">
        <ele>224</ele>
        <time>2023-01-06T10:00:26.000Z</time>
      </trkpt>
      <trkpt lat="48.7921" lon="5.15493">
        <ele>223.5</ele>
        <time>2023-01-06T10:00:27.000Z</time>
      </trkpt>
      <trkpt lat="48.79212" lon="5.1549">
        <ele>223</ele>
        <time>2023-01-06T10:00:28.000Z</time>
      </trkpt>
      <trkpt lat="48.79213" lon="5.15488">
        <ele>223</ele>
        <time>2023-01-06T10:00:29.000Z</time>
      </trkpt>
      <trkpt lat="48.79214" lon="5.15486">
        <ele>223</ele>
        <time>2023-01-06T10:00:30.000Z</time>
      </trkpt>
      <trkpt lat="48.79215" lon="5.15484">
        <ele>223</ele>
        <time>2023-01-06T10:00:31.000Z</time>
      </trkpt>
      <trkpt lat="48.79216" lon="5.15482">
        <ele>223</ele>
        <time>2023-01-06T10:00:32.000Z</time>
      </trkpt>
      <trkpt lat="48.79217" lon="5.1548">
        <ele>223</ele>
        <time>2023-01-06T10:00:33.000Z</time>
      </trkpt>
      <trkpt lat="48.79218" lon="5.15477">
        <ele>223</ele>
        <time>2023-01-06T10:00:34.000Z</time>
      </trkpt>
      <trkpt lat="48.7922" lon="5.15475">
        <ele>223</ele>
        <time>2023-01-06T10:00:35.000Z</time>
      </trkpt>
      <trkpt lat="48.7922" lon="5.15473">
        <ele>223</ele>
        <time>2023-01-06T10:00:36.000Z</time>
      </trkpt>
      <trkpt lat="48.79221" lon="5.15471">
        <ele>223</ele>
        <time>2023-01-06T10:00:37.000Z</time>
      </trkpt>
      <trkpt lat="48.79221" lon="5.15469">
        <ele>223</ele>
        <time>2023-01-06T10:00:38.000Z</time>
      </trkpt>
      <trkpt lat="48.79221" lon="5.15468">
        <ele>223</ele>
        <time>2023-01-06T10:00:39.000Z</time>
      </trkpt>
      <trkpt lat="48.79221" lon="5.15466">
        <ele>223</ele>
        <time>2023-01-06T10:00:40.000Z</time>
      </trkpt>
      <trkpt lat="48.79221" lon="5.15464">
        <ele>223</ele>
        <time>2023-01-06T10:00:41.000Z</time>
      </trkpt>
      <trkpt lat="48.79222" lon="5.15462">
        <ele>222</ele>
        <time>2023-01-06T10:00:42.000Z</time>
      </trkpt>
      <trkpt lat="48.79222" lon="5.1546">
        <ele>222</ele>
        <time>2023-01-06T10:00:43.000Z</time>
      </trkpt>
      <trkpt lat="48.79222" lon="5.15458">
        <ele>222</ele>
        <time>2023-01-06T10:00:44.000Z</time>
      </trkpt>
      <trkpt lat="48.79221" lon="5.15456">
        <ele>222</ele>
        <time>2023-01-06T10:00:45.000Z</time>
      </trkpt>
      <trkpt lat="48.79222" lon="5.15454">
        <ele>222</ele>
        <time>2023-01-06T10:00:46.000Z</time>
      </trkpt>
      <trkpt lat="48.79222" lon="5.15452">
        <ele>222</ele>
        <time>2023-01-06T10:00:47.000Z</time>
      </trkpt>
      <trkpt lat="48.79223" lon="5.1545">
        <ele>222</ele>
        <time>2023-01-06T10:00:48.000Z</time>
      </trkpt>
      <trkpt lat="48.79224" lon="5.15448">
        <ele>222</ele>
        <time>2023-01-06T10:00:49.000Z</time>
      </trkpt>
      <trkpt lat="48.79225" lon="5.15446">
        <ele>222</ele>
        <time>2023-01-06T10:00:50.000Z</time>
      </trkpt>
      <trkpt lat="48.79226" lon="5.15443">
        <ele>221.7</ele>
        <time>2023-01-06T10:00:51.000Z</time>
      </trkpt>
      <trkpt lat="48.79226" lon="5.15441">
        <ele>221.3</ele>
        <time>2023-01-06T10:00:52.000Z</time>
      </trkpt>
      <trkpt lat="48.79228" lon="5.15438">
        <ele>221</ele>
        <time>2023-01-06T10:00:53.000Z</time>
      </trkpt>
      <trkpt lat="48.79229" lon="5.15435">
        <ele>221</ele>
        <time>2023-01-06T10:00:54.000Z</time>
      </trkpt>
      <trkpt lat="48.79231" lon="5.15432">
        <ele>221</ele>
        <time>2023-01-06T10:00:55.000Z</time>
      </trkpt>
      <trkpt lat="48.79232" lon="5.1543">
        <ele>221</ele>
        <time>2023-01-06T10:00:56.000Z</time>
      </trkpt>
      <trkpt lat="48.79233" lon="5.15428">
        <ele>221</ele>
        <time>2023-01-06T10:00:57.000Z</time>
      </trkpt>
      <trkpt lat="48.79233" lon="5.15426">
        <ele>221</ele>
        <time>2023-01-06T10:00:58.000Z</time>
      </trkpt>
      <trkpt lat="48.79234" lon="5.15424">
        <ele>221</ele>
        <time>2023-01-06T10:00:59.000Z</time>
      </trkpt>
      <trkpt lat="48.79234" lon="5.15421">
        <ele>221</ele>
        <time>2023-01-06T10:01:00.000Z</time>
      </trkpt>
      <trkpt lat="48.79235" lon="5.15419">
        <ele>221</ele>
        <time>2023-01-06T10:01:01.000Z</time>
      </trkpt>
      <trkpt lat="48.79235" lon="5.15417">
        <ele>221</ele>
        <time>2023-01-06T10:01:02.000Z</time>
      </trkpt>
      <trkpt lat="48.79236" lon="5.15414">
        <ele>221</ele>
        <time>2023-01-06T10:01:03.000Z</time>
      </trkpt>
      <trkpt lat="48.79237" lon="5.15412">
        <ele>220.5</ele>
        <time>2023-01-06T10:01:04.000Z</time>
      </trkpt>
      <trkpt lat="48.79237" lon="5.15409">
        <ele>220</ele>
        <time>2023-01-06T10:01:05.000Z</time>
      </trkpt>
      <trkpt lat="48.79238" lon="5.15407">
        <ele>220</ele>
        <time>2023-01-06T10:01:06.000Z</time>
      </trkpt>
      <trkpt lat="48.79239" lon="5.15404">
        <ele>220</ele>
        <time>2023-01-06T10:01:07.000Z</time>
      </trkpt>
      <trkpt lat="48.7924" lon="5.15401">
        <ele>220</ele>
        <time>2023-01-06T10:01:08.000Z</time>
      </trkpt>
      <trkpt lat="48.79241" lon="5.15398">
        <ele>220</ele>
        <time>2023-01-06T10:01:09.000Z</time>
      </trkpt>
      <trkpt lat="48.79242" lon="5.15396">
        <ele>220</ele>
        <time>2023-01-06T10:01:10.000Z</time>
      </trkpt>
      <trkpt lat="48.79243" lon="5.15394">
        <ele>220</ele>
        <time>2023-01-06T10:01:11.000Z</time>
      </trkpt>
      <trkpt lat="48.79243" lon="5.15391">
        <ele>220</ele>
        <time>2023-01-06T10:01:12.000Z</time>
      </trkpt>
      <trkpt lat="48.79244" lon="5.15389">
        <ele>220</ele>
        <time>2023-01-06T10:01:13.000Z</time>
      </trkpt>
      <trkpt lat="48.79245" lon="5.15387">
        <ele>220</ele>
        <time>2023-01-06T10:01:14.000Z</time>
      </trkpt>
      <trkpt lat="48.79245" lon="5.15385">
        <ele>219.7</ele>
        <time>2023-01-06T10:01:15.000Z</time>
      </trkpt>
      <trkpt lat="48.79246" lon="5.15383">
        <ele>219.3</ele>
        <time>2023-01-06T10:01:16.000Z</time>
      </trkpt>
      <trkpt lat="48.79247" lon="5.1538">
        <ele>219</ele>
        <time>2023-01-06T10:01:17.000Z</time>
      </trkpt>
      <trkpt lat="48.79248" lon="5.15377">
        <ele>219</ele>
        <time>2023-01-06T10:01:18.000Z</time>
      </trkpt>
      <trkpt lat="48.79248" lon="5.15374">
        <ele>219</ele>
        <time>2023-01-06T10:01:19.000Z</time>
      </trkpt>
      <trkpt lat="48.79248" lon="5.15371">
        <ele>219</ele>
        <time>2023-01-06T10:01:20.000Z</time>
      </trkpt>
      <trkpt lat="48.79248" lon="5.15368">
        <ele>219</ele>
        <time>2023-01-06T10:01:21.000Z</time>
      </trkpt>
      <trkpt lat="48.79249" lon="5.15366">
        <ele>219</ele>
        <time>2023-01-06T10:01:22.000Z</time>
      </trkpt>
      <trkpt lat="48.79249" lon="5.15363">
        <ele>219</ele>
        <time>2023-01-06T10:01:23.000Z</time>
      </trkpt>
      <trkpt lat="48.79249" lon="5.1536">
        <ele>219</ele>
        <time>2023-01-06T10:01:24.000Z</time>
      </trkpt>
      <trkpt lat="48.79249" lon="5.15357">
        <ele>219</ele>
        <time>2023-01-06T10:01:25.000Z</time>
      </trkpt>
      <trkpt lat="48.79249" lon="5.15354">
        <ele>219</ele>
        <time>2023-01-06T10:01:26.000Z</time>
      </trkpt>
      <trkpt lat="48.79249" lon="5.15351">
        <ele>219</ele>
        <time>2023-01-06T10:01:27.000Z</time>
      </trkpt>
      <trkpt lat="48.7925" lon="5.15349">
        <ele>218.5</ele>
        <time>2023-01-06T10:01:28.000Z</time>
      </trkpt>
      <trkpt lat="48.7925" lon="5.15346">
        <ele>218</ele>
        <time>2023-01-06T10:01:29.000Z</time>
      </trkpt>
      <trkpt lat="48.7925" lon="5.15343">
        <ele>218</ele>
        <time>2023-01-06T10:01:30.000Z</time>
      </trkpt>
      <trkpt lat="48.79249" lon="5.15341">
        <ele>218</ele>
        <time>2023-01-06T10:01:31.000Z</time>
      </trkpt>
      <trkpt lat="48.79249" lon="5.15338">
        <ele>218</ele>
        <time>2023-01-06T10:01:32.000Z</time>
      </trkpt>
      <trkpt lat="48.79249" lon="5.15336">
        <ele>218</ele>
        <time>2023-01-06T10:01:33.000Z</time>
      </trkpt>
      <trkpt lat="48.79248" lon="5.15334">
        <ele>218</ele>
        <time>2023-01-06T10:01:34.000Z</time>
      </trkpt>
      <trkpt lat="48.79248" lon="5.15331">
        <ele>218</ele>
        <time>2023-01-06T10:01:35.000Z</time>
      </trkpt>
      <trkpt lat="48.79248" lon="5.1533">
        <ele>218</ele>
        <time>2023-01-06T10:01:36.000Z</time>
      </trkpt>
      <trkpt lat="48.79247" lon="5.15328">
        <ele>218</ele>
        <time>2023-01-06T10:01:37.000Z</time>
      </trkpt>
      <trkpt lat="48.79247" lon="5.15327">
        <ele>218</ele>
        <time>2023-01-06T10:01:38.000Z</time>
      </trkpt>
      <trkpt lat="48.79247" lon="5.15325">
        <ele>218</ele>
        <time>2023-01-06T10:01:39.000Z</time>
      </trkpt>
      <trkpt lat="48.79247" lon="5.15325">
        <ele>217.5</ele>
        <time>2023-01-06T10:01:40.000Z</time>
      </trkpt>
      <trkpt lat="48.79247" lon="5.15324">
        <ele>217</ele>
        <time>2023-01-06T10:01:41.000Z</time>
      </trkpt>
      <trkpt lat="48.79248" lon="5.15323">
        <ele>217</ele>
        <time>2023-01-06T10:01:42.000Z</time>
      </trkpt>
      <trkpt lat="48.79248" lon="5.15322">
        <ele>217</ele>
        <time>2023-01-06T10:01:43.000Z</time>
      </trkpt>
      <trkpt lat="48.79248" lon="5.15321">
        <ele>217</ele>
        <time>2023-01-06T10:01:44.000Z</time>
      </trkpt>
      <trkpt lat="48.79248" lon="5.1532">
        <ele>217</ele>
        <time>2023-01-06T10:01:45.000Z</time>
      </trkpt>
      <trkpt lat="48.79248" lon="5.15319">
        <ele>217</ele>
        <time>2023-01-06T10:01:46.000Z</time>
      </trkpt>
      <trkpt lat="48.79248" lon="5.15319">
        <ele>217</ele>
        <time>2023-01-06T10:01:47.000Z</time>
      </trkpt>
      <trkpt lat="48.79248" lon="5.15318">
        <ele>217</ele>
        <time>2023-01-06T10:01:48.000Z</time>
      </trkpt>
      <trkpt lat="48.79248" lon="5.15317">
        <ele>217</ele>
        <time>2023-01-06T10:01:49.000Z</time>
      </trkpt>
      <trkpt lat="48.79248" lon="5.15315">
        <ele>217</ele>
        <time>2023-01-06T10:01:50.000Z</time>
      </trkpt>
      <trkpt lat="48.79248" lon="5.15314">
        <ele>217</ele>
        <time>2023-01-06T10:01:51.000Z</time>
      </trkpt>
      <trkpt lat="48.79248" lon="5.15313">
        <ele>217</ele>
        <time>2023-01-06T10:01:52.000Z</time>
      </trkpt>
      <trkpt lat="48.79249" lon="5.15311">
        <ele>217</ele>
        <time>2023-01-06T10:01:53.000Z</time>
      </trkpt>
      <trkpt lat="48.79249" lon="5.1531">
        <ele>217</ele>
        <time>2023-01-06T10:01:54.000Z</time>
      </trkpt>
      <trkpt lat="48.7925" lon="5.15308">
        <ele>217</ele>
        <time>2023-01-06T10:01:55.000Z</time>
      </trkpt>
      <trkpt lat="48.7925" lon="5.15306">
        <ele>217</ele>
        <time>2023-01-06T10:01:56.000Z</time>
      </trkpt>
      <trkpt lat="48.79251" lon="5.15304">
        <ele>217</ele>
        <time>2023-01-06T10:01:57.000Z</time>
      </trkpt>
      <trkpt lat="48.79251" lon="5.15301">
        <ele>217</ele>
        <time>2023-01-06T10:01:58.000Z</time>
      </trkpt>
      <trkpt lat="48.79252" lon="5.15299">
        <ele>217</ele>
        <time>2023-01-06T10:01:59.000Z</time>
      </trkpt>
      <trkpt lat="48.79252" lon="5.15296">
        <ele>216</ele>
        <time>2023-01-06T10:02:00.000Z</time>
      </trkpt>
      <trkpt lat="48.79253" lon="5.15293">
        <ele>216</ele>
        <time>2023-01-06T10:02:01.000Z</time>
      </trkpt>
      <trkpt lat="48.79254" lon="5.1529">
        <ele>216</ele>
        <time>2023-01-06T10:02:02.000Z</time>
      </trkpt>
      <trkpt lat="48.79255" lon="5.15287">
        <ele>216</ele>
        <time>2023-01-06T10:02:03.000Z</time>
      </trkpt>
      <trkpt lat="48.79256" lon="5.15285">
        <ele>216</ele>
        <time>2023-01-06T10:02:04.000Z</time>
      </trkpt>
      <trkpt lat="48.79257" lon="5.15281">
        <ele>216</ele>
        <time>2023-01-06T10:02:05.000Z</time>
      </trkpt>
      <trkpt lat="48.79258" lon="5.15278">
        <ele>216</ele>
        <time>2023-01-06T10:02:06.000Z</time>
      </trkpt>
      <trkpt lat="48.79259" lon="5.15275">
        <ele>216</ele>
        <time>2023-01-06T10:02:07.000Z</time>
      </trkpt>
      <trkpt lat="48.7926" lon="5.15272">
        <ele>216</ele>
        <time>2023-01-06T10:02:08.000Z</time>
      </trkpt>
      <trkpt lat="48.79261" lon="5.1527">
        <ele>216</ele>
        <time>2023-01-06T10:02:09.000Z</time>
      </trkpt>
      <trkpt lat="48.79262" lon="5.15267">
        <ele>216</ele>
        <time>2023-01-06T10:02:10.000Z</time>
      </trkpt>
      <trkpt lat="48.79264" lon="5.15264">
        <ele>216</ele>
        <time>2023-01-06T10:02:11.000Z</time>
      </trkpt>
      <trkpt lat="48.79265" lon="5.15262">
        <ele>216</ele>
        <time>2023-01-06T10:02:12.000Z</time>
      </trkpt>
      <trkpt lat="48.79266" lon="5.15259">
        <ele>216</ele>
        <time>2023-01-06T10:02:13.000Z</time>
      </trkpt>
      <trkpt lat="48.79267" lon="5.15257">
        <ele>216</ele>
        <time>2023-01-06T10:02:14.000Z</time>
      </trkpt>
      <trkpt lat="48.79268" lon="5.15254">
        <ele>216</ele>
        <time>2023-01-06T10:02:15.000Z</time>
      </trkpt>
      <trkpt lat="48.79269" lon="5.15252">
        <ele>215</ele>
        <time>2023-01-06T10:02:16.000Z</time>
      </trkpt>
      <trkpt lat="48.7927" lon="5.1525">
        <ele>215</ele>
        <time>2023-01-06T10:02:17.000Z</time>
      </trkpt>
      <trkpt lat="48.7927" lon="5.15248">
        <ele>215</ele>
        <time>2023-01-06T10:02:18.000Z</time>
      </trkpt>
      <trkpt lat="48.79271" lon="5.15247">
        <ele>215</ele>
        <time>2023-01-06T10:02:19.000Z</time>
      </trkpt>
      <trkpt lat="48.79271" lon="5.15246">
        <ele>215</ele>
        <time>2023-01-06T10:02:20.000Z</time>
        <extensions>
          <visugpx:TrkExtension xmlns:visugpx="https://www.visugpx.com/editgpx/">
            <visugpx:node>3</visugpx:node>
            </visugpx:TrkExtension>
        </extensions>
      </trkpt>
      <trkpt lat="48.79277" lon="5.1521">
        <ele>222.4</ele>
        <time>2022-12-16T08:14:50.437Z</time>
        <extensions>
          <visugpx:TrkExtension xmlns:visugpx="https://www.visugpx.com/editgpx/">
            <visugpx:node>4</visugpx:node>
            </visugpx:TrkExtension>
        </extensions>
      </trkpt>
      <trkpt lat="48.79277" lon="5.1521">
        <ele>222.4</ele>
        <time>2022-12-16T08:14:51.437Z</time>
      </trkpt>
      <trkpt lat="48.79277" lon="5.1521">
        <ele>222.4</ele>
        <time>2022-12-16T08:14:52.437Z</time>
      </trkpt>
      <trkpt lat="48.79277" lon="5.1521">
        <ele>222.4</ele>
        <time>2022-12-16T08:14:54.437Z</time>
      </trkpt>
      <trkpt lat="48.79277" lon="5.15209">
        <ele>222.4</ele>
        <time>2022-12-16T08:14:55.437Z</time>
      </trkpt>
      <trkpt lat="48.79278" lon="5.15208">
        <ele>222.3</ele>
        <time>2022-12-16T08:14:56.437Z</time>
      </trkpt>
      <trkpt lat="48.79278" lon="5.15206">
        <ele>222.3</ele>
        <time>2022-12-16T08:14:57.437Z</time>
      </trkpt>
      <trkpt lat="48.79279" lon="5.15204">
        <ele>222.2</ele>
        <time>2022-12-16T08:14:58.437Z</time>
      </trkpt>
      <trkpt lat="48.7928" lon="5.15201">
        <ele>222.1</ele>
        <time>2022-12-16T08:14:59.437Z</time>
      </trkpt>
      <trkpt lat="48.79281" lon="5.15198">
        <ele>222</ele>
        <time>2022-12-16T08:15:00.437Z</time>
      </trkpt>
      <trkpt lat="48.79282" lon="5.15195">
        <ele>221.9</ele>
        <time>2022-12-16T08:15:01.437Z</time>
      </trkpt>
      <trkpt lat="48.79283" lon="5.15192">
        <ele>221.7</ele>
        <time>2022-12-16T08:15:02.437Z</time>
      </trkpt>
      <trkpt lat="48.79285" lon="5.1519">
        <ele>221.6</ele>
        <time>2022-12-16T08:15:03.437Z</time>
      </trkpt>
      <trkpt lat="48.79286" lon="5.15189">
        <ele>221.5</ele>
        <time>2022-12-16T08:15:04.437Z</time>
      </trkpt>
      <trkpt lat="48.79286" lon="5.15189">
        <ele>221.5</ele>
        <time>2022-12-16T08:15:05.437Z</time>
      </trkpt>
      <trkpt lat="48.79286" lon="5.15189">
        <ele>221.5</ele>
        <time>2022-12-16T08:15:06.437Z</time>
      </trkpt>
      <trkpt lat="48.79286" lon="5.15189">
        <ele>221.5</ele>
        <time>2022-12-16T08:15:07.437Z</time>
      </trkpt>
      <trkpt lat="48.79287" lon="5.15189">
        <ele>221.5</ele>
        <time>2022-12-16T08:15:09.437Z</time>
      </trkpt>
      <trkpt lat="48.79287" lon="5.15189">
        <ele>221.5</ele>
        <time>2022-12-16T08:15:10.437Z</time>
      </trkpt>
      <trkpt lat="48.79287" lon="5.15189">
        <ele>221.5</ele>
        <time>2022-12-16T08:15:14.437Z</time>
      </trkpt>
      <trkpt lat="48.79287" lon="5.15189">
        <ele>221.5</ele>
        <time>2022-12-16T08:15:18.437Z</time>
      </trkpt>
      <trkpt lat="48.79287" lon="5.15189">
        <ele>221.5</ele>
        <time>2022-12-16T08:15:22.437Z</time>
      </trkpt>
      <trkpt lat="48.79287" lon="5.15189">
        <ele>221.5</ele>
        <time>2022-12-16T08:15:26.437Z</time>
      </trkpt>
      <trkpt lat="48.79287" lon="5.15189">
        <ele>221.5</ele>
        <time>2022-12-16T08:15:30.437Z</time>
      </trkpt>
      <trkpt lat="48.79287" lon="5.15189">
        <ele>221.5</ele>
        <time>2022-12-16T08:15:34.437Z</time>
      </trkpt>
      <trkpt lat="48.79287" lon="5.15189">
        <ele>221.5</ele>
        <time>2022-12-16T08:15:35.437Z</time>
      </trkpt>
      <trkpt lat="48.79287" lon="5.15189">
        <ele>221.5</ele>
        <time>2022-12-16T08:15:39.437Z</time>
      </trkpt>
      <trkpt lat="48.79287" lon="5.15189">
        <ele>221.5</ele>
        <time>2022-12-16T08:15:40.437Z</time>
      </trkpt>
      <trkpt lat="48.79287" lon="5.15189">
        <ele>221.5</ele>
        <time>2022-12-16T08:15:41.437Z</time>
      </trkpt>
      <trkpt lat="48.79287" lon="5.15189">
        <ele>221.4</ele>
        <time>2022-12-16T08:15:42.437Z</time>
      </trkpt>
      <trkpt lat="48.79287" lon="5.15189">
        <ele>221.4</ele>
        <time>2022-12-16T08:15:43.437Z</time>
      </trkpt>
      <trkpt lat="48.79287" lon="5.15188">
        <ele>221.4</ele>
        <time>2022-12-16T08:15:44.437Z</time>
      </trkpt>
      <trkpt lat="48.79288" lon="5.15187">
        <ele>221.4</ele>
        <time>2022-12-16T08:15:45.437Z</time>
      </trkpt>
      <trkpt lat="48.79288" lon="5.15185">
        <ele>221.3</ele>
        <time>2022-12-16T08:15:46.437Z</time>
      </trkpt>
      <trkpt lat="48.79289" lon="5.15183">
        <ele>221.3</ele>
        <time>2022-12-16T08:15:47.437Z</time>
      </trkpt>
      <trkpt lat="48.79289" lon="5.1518">
        <ele>221.2</ele>
        <time>2022-12-16T08:15:48.437Z</time>
      </trkpt>
      <trkpt lat="48.7929" lon="5.15178">
        <ele>221.2</ele>
        <time>2022-12-16T08:15:49.437Z</time>
      </trkpt>
      <trkpt lat="48.79291" lon="5.15175">
        <ele>221.1</ele>
        <time>2022-12-16T08:15:50.437Z</time>
      </trkpt>
      <trkpt lat="48.79292" lon="5.15172">
        <ele>221</ele>
        <time>2022-12-16T08:15:51.437Z</time>
      </trkpt>
      <trkpt lat="48.79293" lon="5.15169">
        <ele>221</ele>
        <time>2022-12-16T08:15:52.437Z</time>
      </trkpt>
      <trkpt lat="48.79294" lon="5.15167">
        <ele>220.9</ele>
        <time>2022-12-16T08:15:53.437Z</time>
      </trkpt>
      <trkpt lat="48.79287" lon="5.1516">
        <ele>226.3</ele>
      </trkpt>
      <trkpt lat="48.79241" lon="5.1529">
        <ele>228.2</ele>
      </trkpt>
      <trkpt lat="48.79241" lon="5.15291">
        <ele>232.4</ele>
      </trkpt>
      <trkpt lat="48.79237" lon="5.1529">
        <ele>232</ele>
      </trkpt>
      <trkpt lat="48.79234" lon="5.1529">
        <ele>231.8</ele>
      </trkpt>
      <trkpt lat="48.79232" lon="5.15289">
        <ele>231.8</ele>
      </trkpt>
      <trkpt lat="48.7923" lon="5.15287">
        <ele>231.6</ele>
      </trkpt>
      <trkpt lat="48.79228" lon="5.15284">
        <ele>231.4</ele>
      </trkpt>
      <trkpt lat="48.79225" lon="5.15283">
        <ele>231.4</ele>
      </trkpt>
      <trkpt lat="48.79223" lon="5.15281">
        <ele>231</ele>
      </trkpt>
      <trkpt lat="48.7922" lon="5.15279">
        <ele>230.2</ele>
      </trkpt>
      <trkpt lat="48.79218" lon="5.15276">
        <ele>230.2</ele>
      </trkpt>
      <trkpt lat="48.79215" lon="5.15274">
        <ele>230</ele>
      </trkpt>
      <trkpt lat="48.79213" lon="5.15274">
        <ele>230</ele>
      </trkpt>
      <trkpt lat="48.79211" lon="5.15273">
        <ele>230</ele>
      </trkpt>
      <trkpt lat="48.7921" lon="5.15271">
        <ele>229.6</ele>
      </trkpt>
      <trkpt lat="48.79208" lon="5.15268">
        <ele>229.2</ele>
      </trkpt>
      <trkpt lat="48.79208" lon="5.15264">
        <ele>228.8</ele>
      </trkpt>
      <trkpt lat="48.79208" lon="5.15261">
        <ele>228.8</ele>
      </trkpt>
      <trkpt lat="48.79206" lon="5.15257">
        <ele>228.4</ele>
      </trkpt>
      <trkpt lat="48.79204" lon="5.15255">
        <ele>228</ele>
      </trkpt>
      <trkpt lat="48.79203" lon="5.15253">
        <ele>228</ele>
      </trkpt>
      <trkpt lat="48.79202" lon="5.15249">
        <ele>227.8</ele>
      </trkpt>
      <trkpt lat="48.79202" lon="5.15246">
        <ele>227.4</ele>
      </trkpt>
      <trkpt lat="48.79203" lon="5.15242">
        <ele>227.4</ele>
      </trkpt>
      <trkpt lat="48.79204" lon="5.15239">
        <ele>227.6</ele>
      </trkpt>
      <trkpt lat="48.79204" lon="5.15234">
        <ele>227</ele>
      </trkpt>
      <trkpt lat="48.79205" lon="5.1523">
        <ele>227</ele>
      </trkpt>
      <trkpt lat="48.79206" lon="5.15228">
        <ele>227</ele>
      </trkpt>
      <trkpt lat="48.79208" lon="5.15223">
        <ele>227.2</ele>
      </trkpt>
      <trkpt lat="48.7921" lon="5.15221">
        <ele>227.2</ele>
      </trkpt>
      <trkpt lat="48.79212" lon="5.15218">
        <ele>227.2</ele>
      </trkpt>
      <trkpt lat="48.79213" lon="5.15215">
        <ele>227.2</ele>
      </trkpt>
      <trkpt lat="48.79214" lon="5.15212">
        <ele>227.2</ele>
      </trkpt>
      <trkpt lat="48.79216" lon="5.15209">
        <ele>227.4</ele>
      </trkpt>
      <trkpt lat="48.79218" lon="5.15206">
        <ele>227.2</ele>
      </trkpt>
      <trkpt lat="48.79219" lon="5.15202">
        <ele>227</ele>
      </trkpt>
      <trkpt lat="48.79221" lon="5.15199">
        <ele>227.2</ele>
      </trkpt>
      <trkpt lat="48.79223" lon="5.15197">
        <ele>227.2</ele>
      </trkpt>
      <trkpt lat="48.79225" lon="5.15193">
        <ele>227.4</ele>
      </trkpt>
      <trkpt lat="48.79227" lon="5.15188">
        <ele>227.6</ele>
      </trkpt>
      <trkpt lat="48.79228" lon="5.15185">
        <ele>227.4</ele>
      </trkpt>
      <trkpt lat="48.79229" lon="5.15181">
        <ele>227.2</ele>
      </trkpt>
      <trkpt lat="48.7923" lon="5.15176">
        <ele>227</ele>
      </trkpt>
      <trkpt lat="48.79232" lon="5.15172">
        <ele>227</ele>
      </trkpt>
      <trkpt lat="48.79233" lon="5.15169">
        <ele>227</ele>
      </trkpt>
      <trkpt lat="48.79235" lon="5.15166">
        <ele>227</ele>
      </trkpt>
      <trkpt lat="48.79237" lon="5.15162">
        <ele>227</ele>
      </trkpt>
      <trkpt lat="48.79238" lon="5.15157">
        <ele>227</ele>
      </trkpt>
      <trkpt lat="48.79239" lon="5.15153">
        <ele>227</ele>
      </trkpt>
      <trkpt lat="48.7924" lon="5.15148">
        <ele>227</ele>
      </trkpt>
      <trkpt lat="48.79242" lon="5.15143">
        <ele>227</ele>
      </trkpt>
      <trkpt lat="48.79243" lon="5.1514">
        <ele>227.2</ele>
      </trkpt>
      <trkpt lat="48.79244" lon="5.15136">
        <ele>227</ele>
      </trkpt>
      <trkpt lat="48.79245" lon="5.15134">
        <ele>227</ele>
      </trkpt>
      <trkpt lat="48.79246" lon="5.15129">
        <ele>227</ele>
      </trkpt>
      <trkpt lat="48.79248" lon="5.15126">
        <ele>226.8</ele>
      </trkpt>
      <trkpt lat="48.79249" lon="5.15123">
        <ele>226.8</ele>
      </trkpt>
      <trkpt lat="48.79252" lon="5.1512">
        <ele>227.2</ele>
      </trkpt>
      <trkpt lat="48.79254" lon="5.15118">
        <ele>227.2</ele>
      </trkpt>
      <trkpt lat="48.79257" lon="5.15118">
        <ele>227.6</ele>
      </trkpt>
      <trkpt lat="48.7926" lon="5.15119">
        <ele>228.2</ele>
      </trkpt>
      <trkpt lat="48.79262" lon="5.1512">
        <ele>228.4</ele>
      </trkpt>
      <trkpt lat="48.79264" lon="5.15121">
        <ele>228.4</ele>
      </trkpt>
      <trkpt lat="48.79266" lon="5.15123">
        <ele>228.4</ele>
      </trkpt>
      <trkpt lat="48.79268" lon="5.15126">
        <ele>228.8</ele>
      </trkpt>
      <trkpt lat="48.7927" lon="5.15127">
        <ele>229.2</ele>
      </trkpt>
      <trkpt lat="48.79273" lon="5.15128">
        <ele>229.2</ele>
      </trkpt>
      <trkpt lat="48.79276" lon="5.1513">
        <ele>229.6</ele>
      </trkpt>
      <trkpt lat="48.79278" lon="5.15132">
        <ele>229.8</ele>
      </trkpt>
      <trkpt lat="48.79281" lon="5.15134">
        <ele>230.2</ele>
      </trkpt>
      <trkpt lat="48.79283" lon="5.15136">
        <ele>230.2</ele>
      </trkpt>
      <trkpt lat="48.79286" lon="5.15138">
        <ele>230.2</ele>
      </trkpt>
      <trkpt lat="48.79287" lon="5.1514">
        <ele>230.2</ele>
      </trkpt>
      <trkpt lat="48.7929" lon="5.15142">
        <ele>230.4</ele>
      </trkpt>
      <trkpt lat="48.79291" lon="5.15144">
        <ele>230.6</ele>
      </trkpt>
      <trkpt lat="48.79293" lon="5.15145">
        <ele>230.8</ele>
      </trkpt>
      <trkpt lat="48.79295" lon="5.15148">
        <ele>230.8</ele>
      </trkpt>
      <trkpt lat="48.79297" lon="5.1515">
        <ele>230.8</ele>
      </trkpt>
      <trkpt lat="48.79301" lon="5.15151">
        <ele>230.8</ele>
      </trkpt>
      <trkpt lat="48.79303" lon="5.1515">
        <ele>230.8</ele>
      </trkpt>
      <trkpt lat="48.79305" lon="5.15148">
        <ele>230.8</ele>
      </trkpt>
      <trkpt lat="48.79311" lon="5.15151">
        <ele>220.7</ele>
        <time>2022-12-16T08:16:01.437Z</time>
      </trkpt>
      <trkpt lat="48.79314" lon="5.15149">
        <ele>220.8</ele>
        <time>2022-12-16T08:16:02.437Z</time>
      </trkpt>
      <trkpt lat="48.79317" lon="5.15146">
        <ele>220.9</ele>
        <time>2022-12-16T08:16:03.437Z</time>
      </trkpt>
      <trkpt lat="48.79319" lon="5.15143">
        <ele>221</ele>
        <time>2022-12-16T08:16:04.437Z</time>
      </trkpt>
      <trkpt lat="48.79322" lon="5.1514">
        <ele>221.1</ele>
        <time>2022-12-16T08:16:05.437Z</time>
      </trkpt>
      <trkpt lat="48.79321" lon="5.15138">
        <ele>231</ele>
        <time>2023-01-30T12:40:57.000Z</time>
      </trkpt>
      <trkpt lat="48.79322" lon="5.15136">
        <ele>232</ele>
        <time>2023-01-30T12:40:58.000Z</time>
      </trkpt>
      <trkpt lat="48.79322" lon="5.15135">
        <ele>232</ele>
        <time>2023-01-30T12:40:59.000Z</time>
      </trkpt>
      <trkpt lat="48.79322" lon="5.15133">
        <ele>232</ele>
        <time>2023-01-30T12:41:00.000Z</time>
      </trkpt>
      <trkpt lat="48.79323" lon="5.15132">
        <ele>232</ele>
        <time>2023-01-30T12:41:01.000Z</time>
      </trkpt>
      <trkpt lat="48.79323" lon="5.15131">
        <ele>232</ele>
        <time>2023-01-30T12:41:02.000Z</time>
      </trkpt>
      <trkpt lat="48.79323" lon="5.1513">
        <ele>232</ele>
        <time>2023-01-30T12:41:03.000Z</time>
      </trkpt>
      <trkpt lat="48.79323" lon="5.15128">
        <ele>232</ele>
        <time>2023-01-30T12:41:04.000Z</time>
      </trkpt>
      <trkpt lat="48.79324" lon="5.15127">
        <ele>232</ele>
        <time>2023-01-30T12:41:05.000Z</time>
      </trkpt>
      <trkpt lat="48.79324" lon="5.15126">
        <ele>232</ele>
        <time>2023-01-30T12:41:06.000Z</time>
      </trkpt>
      <trkpt lat="48.79325" lon="5.15124">
        <ele>232</ele>
        <time>2023-01-30T12:41:07.000Z</time>
      </trkpt>
      <trkpt lat="48.79325" lon="5.15123">
        <ele>232</ele>
        <time>2023-01-30T12:41:08.000Z</time>
      </trkpt>
      <trkpt lat="48.79326" lon="5.15121">
        <ele>232</ele>
        <time>2023-01-30T12:41:09.000Z</time>
      </trkpt>
      <trkpt lat="48.79326" lon="5.15119">
        <ele>232</ele>
        <time>2023-01-30T12:41:10.000Z</time>
      </trkpt>
      <trkpt lat="48.79327" lon="5.15118">
        <ele>232</ele>
        <time>2023-01-30T12:41:11.000Z</time>
      </trkpt>
      <trkpt lat="48.79327" lon="5.15116">
        <ele>232</ele>
        <time>2023-01-30T12:41:12.000Z</time>
      </trkpt>
      <trkpt lat="48.79328" lon="5.15114">
        <ele>232</ele>
        <time>2023-01-30T12:41:13.000Z</time>
      </trkpt>
      <trkpt lat="48.79328" lon="5.15113">
        <ele>232</ele>
        <time>2023-01-30T12:41:14.000Z</time>
      </trkpt>
      <trkpt lat="48.79329" lon="5.15111">
        <ele>232</ele>
        <time>2023-01-30T12:41:15.000Z</time>
      </trkpt>
      <trkpt lat="48.79329" lon="5.15109">
        <ele>232</ele>
        <time>2023-01-30T12:41:16.000Z</time>
      </trkpt>
      <trkpt lat="48.7933" lon="5.15108">
        <ele>232.3</ele>
        <time>2023-01-30T12:41:17.000Z</time>
      </trkpt>
      <trkpt lat="48.7933" lon="5.15106">
        <ele>232.7</ele>
        <time>2023-01-30T12:41:18.000Z</time>
      </trkpt>
      <trkpt lat="48.79331" lon="5.15104">
        <ele>233</ele>
        <time>2023-01-30T12:41:19.000Z</time>
      </trkpt>
      <trkpt lat="48.79331" lon="5.15102">
        <ele>233</ele>
        <time>2023-01-30T12:41:20.000Z</time>
      </trkpt>
      <trkpt lat="48.79331" lon="5.151">
        <ele>233</ele>
        <time>2023-01-30T12:41:21.000Z</time>
      </trkpt>
      <trkpt lat="48.79332" lon="5.15098">
        <ele>233</ele>
        <time>2023-01-30T12:41:22.000Z</time>
      </trkpt>
      <trkpt lat="48.79332" lon="5.15096">
        <ele>233</ele>
        <time>2023-01-30T12:41:23.000Z</time>
      </trkpt>
      <trkpt lat="48.79333" lon="5.15094">
        <ele>233</ele>
        <time>2023-01-30T12:41:24.000Z</time>
      </trkpt>
      <trkpt lat="48.79333" lon="5.15092">
        <ele>233</ele>
        <time>2023-01-30T12:41:25.000Z</time>
      </trkpt>
      <trkpt lat="48.79334" lon="5.1509">
        <ele>233</ele>
        <time>2023-01-30T12:41:26.000Z</time>
      </trkpt>
      <trkpt lat="48.79334" lon="5.15089">
        <ele>233</ele>
        <time>2023-01-30T12:41:27.000Z</time>
      </trkpt>
      <trkpt lat="48.79335" lon="5.15087">
        <ele>233</ele>
        <time>2023-01-30T12:41:28.000Z</time>
      </trkpt>
      <trkpt lat="48.79335" lon="5.15086">
        <ele>233</ele>
        <time>2023-01-30T12:41:29.000Z</time>
      </trkpt>
      <trkpt lat="48.79336" lon="5.15084">
        <ele>233</ele>
        <time>2023-01-30T12:41:30.000Z</time>
      </trkpt>
      <trkpt lat="48.79336" lon="5.15082">
        <ele>233</ele>
        <time>2023-01-30T12:41:31.000Z</time>
      </trkpt>
      <trkpt lat="48.79337" lon="5.1508">
        <ele>233</ele>
        <time>2023-01-30T12:41:32.000Z</time>
      </trkpt>
      <trkpt lat="48.79338" lon="5.15078">
        <ele>233</ele>
        <time>2023-01-30T12:41:33.000Z</time>
      </trkpt>
      <trkpt lat="48.79339" lon="5.15075">
        <ele>233</ele>
        <time>2023-01-30T12:41:34.000Z</time>
      </trkpt>
      <trkpt lat="48.7934" lon="5.15072">
        <ele>233</ele>
        <time>2023-01-30T12:41:35.000Z</time>
      </trkpt>
      <trkpt lat="48.7934" lon="5.15069">
        <ele>233</ele>
        <time>2023-01-30T12:41:36.000Z</time>
      </trkpt>
      <trkpt lat="48.79341" lon="5.15067">
        <ele>233</ele>
        <time>2023-01-30T12:41:37.000Z</time>
      </trkpt>
      <trkpt lat="48.79342" lon="5.15065">
        <ele>233</ele>
        <time>2023-01-30T12:41:38.000Z</time>
      </trkpt>
      <trkpt lat="48.79343" lon="5.15063">
        <ele>233</ele>
        <time>2023-01-30T12:41:39.000Z</time>
      </trkpt>
      <trkpt lat="48.79343" lon="5.15061">
        <ele>233</ele>
        <time>2023-01-30T12:41:40.000Z</time>
      </trkpt>
      <trkpt lat="48.79344" lon="5.15059">
        <ele>233</ele>
        <time>2023-01-30T12:41:41.000Z</time>
      </trkpt>
      <trkpt lat="48.79345" lon="5.15058">
        <ele>233</ele>
        <time>2023-01-30T12:41:42.000Z</time>
      </trkpt>
      <trkpt lat="48.79345" lon="5.15056">
        <ele>233</ele>
        <time>2023-01-30T12:41:43.000Z</time>
      </trkpt>
      <trkpt lat="48.79346" lon="5.15055">
        <ele>233</ele>
        <time>2023-01-30T12:41:44.000Z</time>
      </trkpt>
      <trkpt lat="48.79347" lon="5.15053">
        <ele>233</ele>
        <time>2023-01-30T12:41:45.000Z</time>
      </trkpt>
      <trkpt lat="48.79348" lon="5.15052">
        <ele>233</ele>
        <time>2023-01-30T12:41:46.000Z</time>
      </trkpt>
      <trkpt lat="48.79348" lon="5.1505">
        <ele>233</ele>
        <time>2023-01-30T12:41:47.000Z</time>
      </trkpt>
      <trkpt lat="48.79349" lon="5.15048">
        <ele>233</ele>
        <time>2023-01-30T12:41:48.000Z</time>
      </trkpt>
      <trkpt lat="48.79349" lon="5.15046">
        <ele>233.5</ele>
        <time>2023-01-30T12:41:49.000Z</time>
      </trkpt>
      <trkpt lat="48.7935" lon="5.15044">
        <ele>234</ele>
        <time>2023-01-30T12:41:50.000Z</time>
      </trkpt>
      <trkpt lat="48.79351" lon="5.15042">
        <ele>234</ele>
        <time>2023-01-30T12:41:51.000Z</time>
      </trkpt>
      <trkpt lat="48.79351" lon="5.1504">
        <ele>234</ele>
        <time>2023-01-30T12:41:52.000Z</time>
      </trkpt>
      <trkpt lat="48.79352" lon="5.15038">
        <ele>234</ele>
        <time>2023-01-30T12:41:53.000Z</time>
      </trkpt>
      <trkpt lat="48.79352" lon="5.15036">
        <ele>234</ele>
        <time>2023-01-30T12:41:54.000Z</time>
      </trkpt>
      <trkpt lat="48.79353" lon="5.15035">
        <ele>234</ele>
        <time>2023-01-30T12:41:55.000Z</time>
      </trkpt>
      <trkpt lat="48.79353" lon="5.15034">
        <ele>234</ele>
        <time>2023-01-30T12:41:56.000Z</time>
      </trkpt>
      <trkpt lat="48.79353" lon="5.15032">
        <ele>234</ele>
        <time>2023-01-30T12:41:57.000Z</time>
      </trkpt>
      <trkpt lat="48.79353" lon="5.15031">
        <ele>234</ele>
        <time>2023-01-30T12:41:58.000Z</time>
      </trkpt>
      <trkpt lat="48.79353" lon="5.15029">
        <ele>234</ele>
        <time>2023-01-30T12:41:59.000Z</time>
      </trkpt>
      <trkpt lat="48.79353" lon="5.15027">
        <ele>234</ele>
        <time>2023-01-30T12:42:00.000Z</time>
      </trkpt>
      <trkpt lat="48.79353" lon="5.15025">
        <ele>234</ele>
        <time>2023-01-30T12:42:01.000Z</time>
      </trkpt>
      <trkpt lat="48.79353" lon="5.15023">
        <ele>234</ele>
        <time>2023-01-30T12:42:02.000Z</time>
      </trkpt>
      <trkpt lat="48.79352" lon="5.15021">
        <ele>234</ele>
        <time>2023-01-30T12:42:03.000Z</time>
      </trkpt>
      <trkpt lat="48.79352" lon="5.15019">
        <ele>234</ele>
        <time>2023-01-30T12:42:04.000Z</time>
      </trkpt>
      <trkpt lat="48.79352" lon="5.15018">
        <ele>234</ele>
        <time>2023-01-30T12:42:05.000Z</time>
      </trkpt>
      <trkpt lat="48.79351" lon="5.15016">
        <ele>234</ele>
        <time>2023-01-30T12:42:06.000Z</time>
      </trkpt>
      <trkpt lat="48.79351" lon="5.15014">
        <ele>234</ele>
        <time>2023-01-30T12:42:07.000Z</time>
      </trkpt>
      <trkpt lat="48.79351" lon="5.15012">
        <ele>234</ele>
        <time>2023-01-30T12:42:08.000Z</time>
      </trkpt>
      <trkpt lat="48.7935" lon="5.1501">
        <ele>234</ele>
        <time>2023-01-30T12:42:09.000Z</time>
      </trkpt>
      <trkpt lat="48.7935" lon="5.15008">
        <ele>234</ele>
        <time>2023-01-30T12:42:10.000Z</time>
      </trkpt>
      <trkpt lat="48.7935" lon="5.15006">
        <ele>234</ele>
        <time>2023-01-30T12:42:11.000Z</time>
      </trkpt>
      <trkpt lat="48.7935" lon="5.15004">
        <ele>234</ele>
        <time>2023-01-30T12:42:12.000Z</time>
      </trkpt>
      <trkpt lat="48.7935" lon="5.15001">
        <ele>234</ele>
        <time>2023-01-30T12:42:13.000Z</time>
      </trkpt>
      <trkpt lat="48.7935" lon="5.14999">
        <ele>234</ele>
        <time>2023-01-30T12:42:14.000Z</time>
      </trkpt>
      <trkpt lat="48.79351" lon="5.14996">
        <ele>234</ele>
        <time>2023-01-30T12:42:15.000Z</time>
      </trkpt>
      <trkpt lat="48.79351" lon="5.14993">
        <ele>234</ele>
        <time>2023-01-30T12:42:16.000Z</time>
      </trkpt>
      <trkpt lat="48.79352" lon="5.14991">
        <ele>234</ele>
        <time>2023-01-30T12:42:17.000Z</time>
      </trkpt>
      <trkpt lat="48.79352" lon="5.14988">
        <ele>234</ele>
        <time>2023-01-30T12:42:18.000Z</time>
      </trkpt>
      <trkpt lat="48.79353" lon="5.14986">
        <ele>234</ele>
        <time>2023-01-30T12:42:19.000Z</time>
      </trkpt>
      <trkpt lat="48.79354" lon="5.14985">
        <ele>234</ele>
        <time>2023-01-30T12:42:20.000Z</time>
      </trkpt>
      <trkpt lat="48.79354" lon="5.14983">
        <ele>234</ele>
        <time>2023-01-30T12:42:21.000Z</time>
      </trkpt>
      <trkpt lat="48.79355" lon="5.14981">
        <ele>234</ele>
        <time>2023-01-30T12:42:22.000Z</time>
      </trkpt>
      <trkpt lat="48.79356" lon="5.1498">
        <ele>234</ele>
        <time>2023-01-30T12:42:23.000Z</time>
      </trkpt>
      <trkpt lat="48.79357" lon="5.14978">
        <ele>234</ele>
        <time>2023-01-30T12:42:24.000Z</time>
      </trkpt>
      <trkpt lat="48.79358" lon="5.14977">
        <ele>234</ele>
        <time>2023-01-30T12:42:25.000Z</time>
      </trkpt>
      <trkpt lat="48.79359" lon="5.14975">
        <ele>234</ele>
        <time>2023-01-30T12:42:26.000Z</time>
      </trkpt>
      <trkpt lat="48.79359" lon="5.14973">
        <ele>234</ele>
        <time>2023-01-30T12:42:27.000Z</time>
      </trkpt>
      <trkpt lat="48.7936" lon="5.14972">
        <ele>234</ele>
        <time>2023-01-30T12:42:28.000Z</time>
      </trkpt>
      <trkpt lat="48.79361" lon="5.1497">
        <ele>234</ele>
        <time>2023-01-30T12:42:29.000Z</time>
      </trkpt>
      <trkpt lat="48.79362" lon="5.14968">
        <ele>234</ele>
        <time>2023-01-30T12:42:30.000Z</time>
      </trkpt>
      <trkpt lat="48.79363" lon="5.14967">
        <ele>234</ele>
        <time>2023-01-30T12:42:31.000Z</time>
      </trkpt>
      <trkpt lat="48.79364" lon="5.14966">
        <ele>234</ele>
        <time>2023-01-30T12:42:32.000Z</time>
      </trkpt>
      <trkpt lat="48.79365" lon="5.14965">
        <ele>234</ele>
        <time>2023-01-30T12:42:33.000Z</time>
      </trkpt>
      <trkpt lat="48.79366" lon="5.14963">
        <ele>234</ele>
        <time>2023-01-30T12:42:34.000Z</time>
      </trkpt>
      <trkpt lat="48.79367" lon="5.14962">
        <ele>234</ele>
        <time>2023-01-30T12:42:35.000Z</time>
      </trkpt>
      <trkpt lat="48.79368" lon="5.1496">
        <ele>234</ele>
        <time>2023-01-30T12:42:36.000Z</time>
      </trkpt>
      <trkpt lat="48.79369" lon="5.14958">
        <ele>234</ele>
        <time>2023-01-30T12:42:37.000Z</time>
      </trkpt>
      <trkpt lat="48.7937" lon="5.14956">
        <ele>234</ele>
        <time>2023-01-30T12:42:38.000Z</time>
      </trkpt>
      <trkpt lat="48.79371" lon="5.14954">
        <ele>234</ele>
        <time>2023-01-30T12:42:39.000Z</time>
      </trkpt>
      <trkpt lat="48.79371" lon="5.14952">
        <ele>234</ele>
        <time>2023-01-30T12:42:40.000Z</time>
      </trkpt>
      <trkpt lat="48.79372" lon="5.1495">
        <ele>234</ele>
        <time>2023-01-30T12:42:41.000Z</time>
      </trkpt>
      <trkpt lat="48.79373" lon="5.14948">
        <ele>234</ele>
        <time>2023-01-30T12:42:42.000Z</time>
      </trkpt>
      <trkpt lat="48.79373" lon="5.14945">
        <ele>233.5</ele>
        <time>2023-01-30T12:42:43.000Z</time>
      </trkpt>
      <trkpt lat="48.79374" lon="5.14943">
        <ele>233</ele>
        <time>2023-01-30T12:42:44.000Z</time>
      </trkpt>
      <trkpt lat="48.79375" lon="5.14941">
        <ele>233</ele>
        <time>2023-01-30T12:42:45.000Z</time>
      </trkpt>
      <trkpt lat="48.79376" lon="5.14939">
        <ele>233</ele>
        <time>2023-01-30T12:42:46.000Z</time>
      </trkpt>
      <trkpt lat="48.79376" lon="5.14938">
        <ele>233</ele>
        <time>2023-01-30T12:42:47.000Z</time>
      </trkpt>
      <trkpt lat="48.79377" lon="5.14936">
        <ele>233</ele>
        <time>2023-01-30T12:42:48.000Z</time>
      </trkpt>
      <trkpt lat="48.79378" lon="5.14934">
        <ele>233</ele>
        <time>2023-01-30T12:42:49.000Z</time>
      </trkpt>
      <trkpt lat="48.79379" lon="5.14932">
        <ele>233</ele>
        <time>2023-01-30T12:42:50.000Z</time>
      </trkpt>
      <trkpt lat="48.79379" lon="5.1493">
        <ele>233</ele>
        <time>2023-01-30T12:42:51.000Z</time>
      </trkpt>
      <trkpt lat="48.7938" lon="5.14928">
        <ele>233</ele>
        <time>2023-01-30T12:42:52.000Z</time>
      </trkpt>
      <trkpt lat="48.79381" lon="5.14927">
        <ele>233</ele>
        <time>2023-01-30T12:42:53.000Z</time>
      </trkpt>
      <trkpt lat="48.79381" lon="5.14925">
        <ele>233</ele>
        <time>2023-01-30T12:42:54.000Z</time>
      </trkpt>
      <trkpt lat="48.79381" lon="5.14923">
        <ele>233</ele>
        <time>2023-01-30T12:42:55.000Z</time>
      </trkpt>
      <trkpt lat="48.79382" lon="5.1492">
        <ele>233</ele>
        <time>2023-01-30T12:42:56.000Z</time>
      </trkpt>
      <trkpt lat="48.79382" lon="5.14918">
        <ele>233</ele>
        <time>2023-01-30T12:42:57.000Z</time>
      </trkpt>
      <trkpt lat="48.79383" lon="5.14915">
        <ele>233</ele>
        <time>2023-01-30T12:42:58.000Z</time>
      </trkpt>
      <trkpt lat="48.79383" lon="5.14912">
        <ele>233</ele>
        <time>2023-01-30T12:42:59.000Z</time>
      </trkpt>
      <trkpt lat="48.79383" lon="5.1491">
        <ele>233</ele>
        <time>2023-01-30T12:43:00.000Z</time>
      </trkpt>
      <trkpt lat="48.79383" lon="5.14908">
        <ele>233</ele>
        <time>2023-01-30T12:43:01.000Z</time>
      </trkpt>
      <trkpt lat="48.79383" lon="5.14906">
        <ele>233</ele>
        <time>2023-01-30T12:43:02.000Z</time>
      </trkpt>
      <trkpt lat="48.79383" lon="5.14904">
        <ele>233</ele>
        <time>2023-01-30T12:43:03.000Z</time>
      </trkpt>
      <trkpt lat="48.79384" lon="5.14902">
        <ele>233</ele>
        <time>2023-01-30T12:43:04.000Z</time>
      </trkpt>
      <trkpt lat="48.79384" lon="5.14899">
        <ele>233</ele>
        <time>2023-01-30T12:43:05.000Z</time>
      </trkpt>
      <trkpt lat="48.79385" lon="5.14895">
        <ele>232</ele>
        <time>2023-01-30T12:43:06.000Z</time>
      </trkpt>
      <trkpt lat="48.79386" lon="5.14892">
        <ele>232</ele>
        <time>2023-01-30T12:43:07.000Z</time>
      </trkpt>
      <trkpt lat="48.79386" lon="5.14891">
        <ele>232</ele>
        <time>2023-01-30T12:43:08.000Z</time>
      </trkpt>
      <trkpt lat="48.79386" lon="5.14889">
        <ele>232</ele>
        <time>2023-01-30T12:43:09.000Z</time>
      </trkpt>
      <trkpt lat="48.79387" lon="5.14887">
        <ele>232</ele>
        <time>2023-01-30T12:43:10.000Z</time>
      </trkpt>
      <trkpt lat="48.79387" lon="5.14884">
        <ele>232</ele>
        <time>2023-01-30T12:43:11.000Z</time>
      </trkpt>
      <trkpt lat="48.79388" lon="5.14882">
        <ele>232</ele>
        <time>2023-01-30T12:43:12.000Z</time>
      </trkpt>
      <trkpt lat="48.79388" lon="5.1488">
        <ele>232</ele>
        <time>2023-01-30T12:43:13.000Z</time>
      </trkpt>
      <trkpt lat="48.79389" lon="5.14877">
        <ele>232</ele>
        <time>2023-01-30T12:43:14.000Z</time>
      </trkpt>
      <trkpt lat="48.7939" lon="5.14875">
        <ele>232</ele>
        <time>2023-01-30T12:43:15.000Z</time>
      </trkpt>
      <trkpt lat="48.7939" lon="5.14873">
        <ele>232</ele>
        <time>2023-01-30T12:43:16.000Z</time>
      </trkpt>
      <trkpt lat="48.79391" lon="5.1487">
        <ele>232</ele>
        <time>2023-01-30T12:43:17.000Z</time>
      </trkpt>
      <trkpt lat="48.79391" lon="5.14868">
        <ele>232</ele>
        <time>2023-01-30T12:43:18.000Z</time>
      </trkpt>
      <trkpt lat="48.79392" lon="5.14867">
        <ele>232</ele>
        <time>2023-01-30T12:43:19.000Z</time>
      </trkpt>
      <trkpt lat="48.79393" lon="5.14865">
        <ele>232</ele>
        <time>2023-01-30T12:43:20.000Z</time>
      </trkpt>
      <trkpt lat="48.79394" lon="5.14863">
        <ele>231.7</ele>
        <time>2023-01-30T12:43:21.000Z</time>
      </trkpt>
      <trkpt lat="48.79395" lon="5.14861">
        <ele>231.3</ele>
        <time>2023-01-30T12:43:22.000Z</time>
      </trkpt>
      <trkpt lat="48.79396" lon="5.1486">
        <ele>231</ele>
        <time>2023-01-30T12:43:23.000Z</time>
      </trkpt>
      <trkpt lat="48.79397" lon="5.14858">
        <ele>231</ele>
        <time>2023-01-30T12:43:24.000Z</time>
      </trkpt>
      <trkpt lat="48.79398" lon="5.14857">
        <ele>231</ele>
        <time>2023-01-30T12:43:25.000Z</time>
      </trkpt>
      <trkpt lat="48.79399" lon="5.14855">
        <ele>231</ele>
        <time>2023-01-30T12:43:26.000Z</time>
      </trkpt>
      <trkpt lat="48.794" lon="5.14853">
        <ele>231</ele>
        <time>2023-01-30T12:43:27.000Z</time>
      </trkpt>
      <trkpt lat="48.794" lon="5.14852">
        <ele>231</ele>
        <time>2023-01-30T12:43:28.000Z</time>
      </trkpt>
      <trkpt lat="48.79401" lon="5.1485">
        <ele>231</ele>
        <time>2023-01-30T12:43:29.000Z</time>
      </trkpt>
      <trkpt lat="48.79402" lon="5.14848">
        <ele>231</ele>
        <time>2023-01-30T12:43:30.000Z</time>
      </trkpt>
      <trkpt lat="48.79403" lon="5.14846">
        <ele>230.7</ele>
        <time>2023-01-30T12:43:31.000Z</time>
      </trkpt>
      <trkpt lat="48.79403" lon="5.14844">
        <ele>230.3</ele>
        <time>2023-01-30T12:43:32.000Z</time>
      </trkpt>
      <trkpt lat="48.79403" lon="5.14843">
        <ele>230</ele>
        <time>2023-01-30T12:43:33.000Z</time>
      </trkpt>
      <trkpt lat="48.79404" lon="5.14841">
        <ele>230</ele>
        <time>2023-01-30T12:43:34.000Z</time>
      </trkpt>
      <trkpt lat="48.79404" lon="5.14839">
        <ele>230</ele>
        <time>2023-01-30T12:43:35.000Z</time>
      </trkpt>
      <trkpt lat="48.79404" lon="5.14836">
        <ele>230</ele>
        <time>2023-01-30T12:43:36.000Z</time>
      </trkpt>
      <trkpt lat="48.79405" lon="5.14833">
        <ele>230</ele>
        <time>2023-01-30T12:43:37.000Z</time>
      </trkpt>
      <trkpt lat="48.79405" lon="5.14831">
        <ele>230</ele>
        <time>2023-01-30T12:43:38.000Z</time>
      </trkpt>
      <trkpt lat="48.79404" lon="5.14829">
        <ele>230</ele>
        <time>2023-01-30T12:43:39.000Z</time>
      </trkpt>
      <trkpt lat="48.79404" lon="5.14826">
        <ele>229</ele>
        <time>2023-01-30T12:43:40.000Z</time>
      </trkpt>
      <trkpt lat="48.79403" lon="5.14824">
        <ele>229</ele>
        <time>2023-01-30T12:43:41.000Z</time>
      </trkpt>
      <trkpt lat="48.79403" lon="5.14822">
        <ele>229</ele>
        <time>2023-01-30T12:43:42.000Z</time>
      </trkpt>
      <trkpt lat="48.79402" lon="5.1482">
        <ele>229</ele>
        <time>2023-01-30T12:43:43.000Z</time>
      </trkpt>
      <trkpt lat="48.79401" lon="5.14818">
        <ele>228</ele>
        <time>2023-01-30T12:43:44.000Z</time>
      </trkpt>
      <trkpt lat="48.79401" lon="5.14815">
        <ele>228</ele>
        <time>2023-01-30T12:43:45.000Z</time>
      </trkpt>
      <trkpt lat="48.794" lon="5.14813">
        <ele>228</ele>
        <time>2023-01-30T12:43:46.000Z</time>
      </trkpt>
      <trkpt lat="48.794" lon="5.14811">
        <ele>228</ele>
        <time>2023-01-30T12:43:47.000Z</time>
      </trkpt>
      <trkpt lat="48.794" lon="5.14808">
        <ele>227</ele>
        <time>2023-01-30T12:43:48.000Z</time>
      </trkpt>
      <trkpt lat="48.79402" lon="5.14806">
        <ele>227</ele>
        <time>2023-01-30T12:43:49.000Z</time>
      </trkpt>
      <trkpt lat="48.79403" lon="5.14805">
        <ele>227</ele>
        <time>2023-01-30T12:43:50.000Z</time>
      </trkpt>
      <trkpt lat="48.79403" lon="5.14803">
        <ele>227</ele>
        <time>2023-01-30T12:43:51.000Z</time>
      </trkpt>
      <trkpt lat="48.79404" lon="5.14802">
        <ele>227</ele>
        <time>2023-01-30T12:43:52.000Z</time>
      </trkpt>
      <trkpt lat="48.79406" lon="5.148">
        <ele>227</ele>
        <time>2023-01-30T12:43:53.000Z</time>
      </trkpt>
      <trkpt lat="48.79407" lon="5.14798">
        <ele>227</ele>
        <time>2023-01-30T12:43:54.000Z</time>
      </trkpt>
      <trkpt lat="48.79408" lon="5.14796">
        <ele>227</ele>
        <time>2023-01-30T12:43:55.000Z</time>
      </trkpt>
      <trkpt lat="48.79407" lon="5.14794">
        <ele>227</ele>
        <time>2023-01-30T12:43:56.000Z</time>
      </trkpt>
      <trkpt lat="48.79404" lon="5.14793">
        <ele>227</ele>
        <time>2023-01-30T12:43:57.000Z</time>
      </trkpt>
      <trkpt lat="48.79402" lon="5.14791">
        <ele>227</ele>
        <time>2023-01-30T12:43:58.000Z</time>
      </trkpt>
      <trkpt lat="48.79399" lon="5.14789">
        <ele>227</ele>
        <time>2023-01-30T12:43:59.000Z</time>
      </trkpt>
      <trkpt lat="48.79397" lon="5.14787">
        <ele>227</ele>
        <time>2023-01-30T12:44:00.000Z</time>
      </trkpt>
      <trkpt lat="48.79395" lon="5.14785">
        <ele>227</ele>
        <time>2023-01-30T12:44:01.000Z</time>
      </trkpt>
      <trkpt lat="48.79393" lon="5.14784">
        <ele>227</ele>
        <time>2023-01-30T12:44:02.000Z</time>
      </trkpt>
      <trkpt lat="48.79392" lon="5.14782">
        <ele>227</ele>
        <time>2023-01-30T12:44:03.000Z</time>
      </trkpt>
      <trkpt lat="48.79391" lon="5.1478">
        <ele>227</ele>
        <time>2023-01-30T12:44:04.000Z</time>
      </trkpt>
      <trkpt lat="48.79391" lon="5.14779">
        <ele>226.7</ele>
        <time>2023-01-30T12:44:05.000Z</time>
      </trkpt>
      <trkpt lat="48.7939" lon="5.14777">
        <ele>226.3</ele>
        <time>2023-01-30T12:44:06.000Z</time>
      </trkpt>
      <trkpt lat="48.7939" lon="5.14775">
        <ele>226</ele>
        <time>2023-01-30T12:44:07.000Z</time>
      </trkpt>
      <trkpt lat="48.79389" lon="5.14773">
        <ele>226</ele>
        <time>2023-01-30T12:44:08.000Z</time>
      </trkpt>
      <trkpt lat="48.79389" lon="5.1477">
        <ele>226</ele>
        <time>2023-01-30T12:44:09.000Z</time>
      </trkpt>
      <trkpt lat="48.79388" lon="5.14767">
        <ele>226</ele>
        <time>2023-01-30T12:44:10.000Z</time>
      </trkpt>
      <trkpt lat="48.79387" lon="5.14765">
        <ele>225.7</ele>
        <time>2023-01-30T12:44:11.000Z</time>
      </trkpt>
      <trkpt lat="48.79386" lon="5.14763">
        <ele>225.3</ele>
        <time>2023-01-30T12:44:12.000Z</time>
      </trkpt>
      <trkpt lat="48.79386" lon="5.14762">
        <ele>225</ele>
        <time>2023-01-30T12:44:13.000Z</time>
      </trkpt>
      <trkpt lat="48.79385" lon="5.1476">
        <ele>225</ele>
        <time>2023-01-30T12:44:14.000Z</time>
      </trkpt>
      <trkpt lat="48.79384" lon="5.14758">
        <ele>225</ele>
        <time>2023-01-30T12:44:15.000Z</time>
      </trkpt>
      <trkpt lat="48.79384" lon="5.14757">
        <ele>225</ele>
        <time>2023-01-30T12:44:16.000Z</time>
      </trkpt>
      <trkpt lat="48.79383" lon="5.14755">
        <ele>225</ele>
        <time>2023-01-30T12:44:17.000Z</time>
      </trkpt>
      <trkpt lat="48.79382" lon="5.14754">
        <ele>225</ele>
        <time>2023-01-30T12:44:18.000Z</time>
      </trkpt>
      <trkpt lat="48.79382" lon="5.14752">
        <ele>225</ele>
        <time>2023-01-30T12:44:19.000Z</time>
      </trkpt>
      <trkpt lat="48.79381" lon="5.14751">
        <ele>225</ele>
        <time>2023-01-30T12:44:20.000Z</time>
      </trkpt>
      <trkpt lat="48.7938" lon="5.1475">
        <ele>225</ele>
        <time>2023-01-30T12:44:21.000Z</time>
      </trkpt>
      <trkpt lat="48.7938" lon="5.14749">
        <ele>225</ele>
        <time>2023-01-30T12:44:22.000Z</time>
      </trkpt>
      <trkpt lat="48.79379" lon="5.14747">
        <ele>224.5</ele>
        <time>2023-01-30T12:44:23.000Z</time>
      </trkpt>
      <trkpt lat="48.79378" lon="5.14746">
        <ele>224</ele>
        <time>2023-01-30T12:44:24.000Z</time>
      </trkpt>
      <trkpt lat="48.79377" lon="5.14745">
        <ele>224</ele>
        <time>2023-01-30T12:44:25.000Z</time>
      </trkpt>
      <trkpt lat="48.79376" lon="5.14744">
        <ele>224</ele>
        <time>2023-01-30T12:44:26.000Z</time>
      </trkpt>
      <trkpt lat="48.79376" lon="5.14743">
        <ele>224</ele>
        <time>2023-01-30T12:44:27.000Z</time>
      </trkpt>
      <trkpt lat="48.79375" lon="5.14742">
        <ele>223</ele>
        <time>2023-01-30T12:44:28.000Z</time>
      </trkpt>
      <trkpt lat="48.79374" lon="5.1474">
        <ele>223</ele>
        <time>2023-01-30T12:44:29.000Z</time>
      </trkpt>
      <trkpt lat="48.79373" lon="5.14739">
        <ele>223</ele>
        <time>2023-01-30T12:44:30.000Z</time>
      </trkpt>
      <trkpt lat="48.79372" lon="5.14738">
        <ele>223</ele>
        <time>2023-01-30T12:44:31.000Z</time>
      </trkpt>
      <trkpt lat="48.79371" lon="5.14737">
        <ele>223</ele>
        <time>2023-01-30T12:44:32.000Z</time>
      </trkpt>
      <trkpt lat="48.79371" lon="5.14736">
        <ele>223</ele>
        <time>2023-01-30T12:44:33.000Z</time>
      </trkpt>
      <trkpt lat="48.7937" lon="5.14734">
        <ele>223</ele>
        <time>2023-01-30T12:44:34.000Z</time>
      </trkpt>
      <trkpt lat="48.79369" lon="5.14733">
        <ele>223</ele>
        <time>2023-01-30T12:44:35.000Z</time>
      </trkpt>
      <trkpt lat="48.79369" lon="5.14731">
        <ele>223</ele>
        <time>2023-01-30T12:44:36.000Z</time>
      </trkpt>
      <trkpt lat="48.79369" lon="5.1473">
        <ele>223</ele>
        <time>2023-01-30T12:44:37.000Z</time>
      </trkpt>
      <trkpt lat="48.79368" lon="5.14728">
        <ele>223</ele>
        <time>2023-01-30T12:44:38.000Z</time>
      </trkpt>
      <trkpt lat="48.79368" lon="5.14726">
        <ele>222</ele>
        <time>2023-01-30T12:44:39.000Z</time>
      </trkpt>
      <trkpt lat="48.79369" lon="5.14724">
        <ele>222</ele>
        <time>2023-01-30T12:44:40.000Z</time>
      </trkpt>
      <trkpt lat="48.79369" lon="5.14721">
        <ele>222</ele>
        <time>2023-01-30T12:44:41.000Z</time>
      </trkpt>
      <trkpt lat="48.79369" lon="5.14719">
        <ele>222</ele>
        <time>2023-01-30T12:44:42.000Z</time>
      </trkpt>
      <trkpt lat="48.7937" lon="5.14717">
        <ele>222</ele>
        <time>2023-01-30T12:44:43.000Z</time>
      </trkpt>
      <trkpt lat="48.79371" lon="5.14715">
        <ele>222</ele>
        <time>2023-01-30T12:44:44.000Z</time>
      </trkpt>
      <trkpt lat="48.79371" lon="5.14713">
        <ele>222</ele>
        <time>2023-01-30T12:44:45.000Z</time>
      </trkpt>
      <trkpt lat="48.79372" lon="5.14712">
        <ele>221</ele>
        <time>2023-01-30T12:44:46.000Z</time>
      </trkpt>
      <trkpt lat="48.79372" lon="5.14711">
        <ele>221</ele>
        <time>2023-01-30T12:44:47.000Z</time>
      </trkpt>
      <trkpt lat="48.79373" lon="5.1471">
        <ele>221</ele>
        <time>2023-01-30T12:44:48.000Z</time>
      </trkpt>
      <trkpt lat="48.79373" lon="5.14709">
        <ele>221</ele>
        <time>2023-01-30T12:44:49.000Z</time>
      </trkpt>
      <trkpt lat="48.79374" lon="5.14707">
        <ele>221</ele>
        <time>2023-01-30T12:44:50.000Z</time>
      </trkpt>
      <trkpt lat="48.79375" lon="5.14706">
        <ele>220.7</ele>
        <time>2023-01-30T12:44:51.000Z</time>
      </trkpt>
      <trkpt lat="48.79376" lon="5.14705">
        <ele>220.3</ele>
        <time>2023-01-30T12:44:52.000Z</time>
      </trkpt>
      <trkpt lat="48.79377" lon="5.14705">
        <ele>220</ele>
        <time>2023-01-30T12:44:53.000Z</time>
      </trkpt>
      <trkpt lat="48.79378" lon="5.14705">
        <ele>220</ele>
        <time>2023-01-30T12:44:54.000Z</time>
      </trkpt>
      <trkpt lat="48.79379" lon="5.14705">
        <ele>220</ele>
        <time>2023-01-30T12:44:55.000Z</time>
      </trkpt>
      <trkpt lat="48.7938" lon="5.14705">
        <ele>220</ele>
        <time>2023-01-30T12:44:56.000Z</time>
      </trkpt>
      <trkpt lat="48.79381" lon="5.14705">
        <ele>220</ele>
        <time>2023-01-30T12:44:57.000Z</time>
      </trkpt>
      <trkpt lat="48.79382" lon="5.14705">
        <ele>219</ele>
        <time>2023-01-30T12:44:58.000Z</time>
      </trkpt>
      <trkpt lat="48.79383" lon="5.14705">
        <ele>219</ele>
        <time>2023-01-30T12:44:59.000Z</time>
      </trkpt>
      <trkpt lat="48.79383" lon="5.14705">
        <ele>219</ele>
        <time>2023-01-30T12:45:00.000Z</time>
      </trkpt>
      <trkpt lat="48.79384" lon="5.14705">
        <ele>218.7</ele>
        <time>2023-01-30T12:45:01.000Z</time>
      </trkpt>
      <trkpt lat="48.79385" lon="5.14704">
        <ele>218.3</ele>
        <time>2023-01-30T12:45:02.000Z</time>
      </trkpt>
      <trkpt lat="48.79386" lon="5.14704">
        <ele>218</ele>
        <time>2023-01-30T12:45:03.000Z</time>
      </trkpt>
      <trkpt lat="48.79388" lon="5.14704">
        <ele>217</ele>
        <time>2023-01-30T12:45:04.000Z</time>
      </trkpt>
      <trkpt lat="48.79389" lon="5.14705">
        <ele>217</ele>
        <time>2023-01-30T12:45:05.000Z</time>
      </trkpt>
      <trkpt lat="48.7939" lon="5.14706">
        <ele>217</ele>
        <time>2023-01-30T12:45:06.000Z</time>
      </trkpt>
      <trkpt lat="48.7939" lon="5.14707">
        <ele>216.5</ele>
        <time>2023-01-30T12:45:07.000Z</time>
      </trkpt>
      <trkpt lat="48.79391" lon="5.14708">
        <ele>216</ele>
        <time>2023-01-30T12:45:08.000Z</time>
      </trkpt>
      <trkpt lat="48.79392" lon="5.14708">
        <ele>216</ele>
        <time>2023-01-30T12:45:09.000Z</time>
      </trkpt>
      <trkpt lat="48.79393" lon="5.14708">
        <ele>216</ele>
        <time>2023-01-30T12:45:10.000Z</time>
      </trkpt>
      <trkpt lat="48.79394" lon="5.14709">
        <ele>216</ele>
        <time>2023-01-30T12:45:11.000Z</time>
      </trkpt>
      <trkpt lat="48.79395" lon="5.14709">
        <ele>215</ele>
        <time>2023-01-30T12:45:12.000Z</time>
      </trkpt>
      <trkpt lat="48.79396" lon="5.14709">
        <ele>215</ele>
        <time>2023-01-30T12:45:13.000Z</time>
      </trkpt>
      <trkpt lat="48.79397" lon="5.1471">
        <ele>215</ele>
        <time>2023-01-30T12:45:14.000Z</time>
      </trkpt>
      <trkpt lat="48.79398" lon="5.1471">
        <ele>214.7</ele>
        <time>2023-01-30T12:45:15.000Z</time>
      </trkpt>
      <trkpt lat="48.79399" lon="5.14711">
        <ele>214.3</ele>
        <time>2023-01-30T12:45:16.000Z</time>
      </trkpt>
      <trkpt lat="48.794" lon="5.14711">
        <ele>214</ele>
        <time>2023-01-30T12:45:17.000Z</time>
      </trkpt>
      <trkpt lat="48.794" lon="5.14712">
        <ele>214</ele>
        <time>2023-01-30T12:45:18.000Z</time>
      </trkpt>
      <trkpt lat="48.79401" lon="5.14712">
        <ele>213.7</ele>
        <time>2023-01-30T12:45:19.000Z</time>
      </trkpt>
      <trkpt lat="48.79401" lon="5.14713">
        <ele>213.3</ele>
        <time>2023-01-30T12:45:20.000Z</time>
      </trkpt>
      <trkpt lat="48.79402" lon="5.14713">
        <ele>213</ele>
        <time>2023-01-30T12:45:21.000Z</time>
      </trkpt>
      <trkpt lat="48.79404" lon="5.14714">
        <ele>213</ele>
        <time>2023-01-30T12:45:22.000Z</time>
      </trkpt>
      <trkpt lat="48.79405" lon="5.14714">
        <ele>212.7</ele>
        <time>2023-01-30T12:45:23.000Z</time>
      </trkpt>
      <trkpt lat="48.79406" lon="5.14713">
        <ele>212.3</ele>
        <time>2023-01-30T12:45:24.000Z</time>
      </trkpt>
      <trkpt lat="48.79407" lon="5.14713">
        <ele>212</ele>
        <time>2023-01-30T12:45:25.000Z</time>
      </trkpt>
      <trkpt lat="48.79408" lon="5.14713">
        <ele>212</ele>
        <time>2023-01-30T12:45:26.000Z</time>
      </trkpt>
      <trkpt lat="48.79408" lon="5.14713">
        <ele>211.5</ele>
        <time>2023-01-30T12:45:27.000Z</time>
      </trkpt>
      <trkpt lat="48.79409" lon="5.14714">
        <ele>211</ele>
        <time>2023-01-30T12:45:28.000Z</time>
      </trkpt>
      <trkpt lat="48.7941" lon="5.14714">
        <ele>211</ele>
        <time>2023-01-30T12:45:29.000Z</time>
      </trkpt>
      <trkpt lat="48.79411" lon="5.14714">
        <ele>211</ele>
        <time>2023-01-30T12:45:30.000Z</time>
      </trkpt>
      <trkpt lat="48.79412" lon="5.14714">
        <ele>211</ele>
        <time>2023-01-30T12:45:31.000Z</time>
      </trkpt>
      <trkpt lat="48.79413" lon="5.14714">
        <ele>210.5</ele>
        <time>2023-01-30T12:45:32.000Z</time>
      </trkpt>
      <trkpt lat="48.79414" lon="5.14714">
        <ele>210</ele>
        <time>2023-01-30T12:45:33.000Z</time>
      </trkpt>
      <trkpt lat="48.79414" lon="5.14715">
        <ele>210</ele>
        <time>2023-01-30T12:45:34.000Z</time>
      </trkpt>
      <trkpt lat="48.79415" lon="5.14715">
        <ele>209.5</ele>
        <time>2023-01-30T12:45:35.000Z</time>
      </trkpt>
      <trkpt lat="48.79417" lon="5.14715">
        <ele>209</ele>
        <time>2023-01-30T12:45:36.000Z</time>
      </trkpt>
      <trkpt lat="48.79418" lon="5.14715">
        <ele>208.5</ele>
        <time>2023-01-30T12:45:37.000Z</time>
      </trkpt>
      <trkpt lat="48.79419" lon="5.14715">
        <ele>208</ele>
        <time>2023-01-30T12:45:38.000Z</time>
      </trkpt>
      <trkpt lat="48.7942" lon="5.14715">
        <ele>208</ele>
        <time>2023-01-30T12:45:39.000Z</time>
      </trkpt>
      <trkpt lat="48.79421" lon="5.14715">
        <ele>208</ele>
        <time>2023-01-30T12:45:40.000Z</time>
      </trkpt>
      <trkpt lat="48.79422" lon="5.14715">
        <ele>208</ele>
        <time>2023-01-30T12:45:41.000Z</time>
      </trkpt>
      <trkpt lat="48.79424" lon="5.14716">
        <ele>207</ele>
        <time>2023-01-30T12:45:42.000Z</time>
      </trkpt>
      <trkpt lat="48.79425" lon="5.14716">
        <ele>207</ele>
        <time>2023-01-30T12:45:43.000Z</time>
      </trkpt>
      <trkpt lat="48.79426" lon="5.14717">
        <ele>207</ele>
        <time>2023-01-30T12:45:44.000Z</time>
      </trkpt>
      <trkpt lat="48.79427" lon="5.14718">
        <ele>207</ele>
        <time>2023-01-30T12:45:45.000Z</time>
      </trkpt>
      <trkpt lat="48.79428" lon="5.14718">
        <ele>207</ele>
        <time>2023-01-30T12:45:46.000Z</time>
      </trkpt>
      <trkpt lat="48.79429" lon="5.14719">
        <ele>207</ele>
        <time>2023-01-30T12:45:47.000Z</time>
      </trkpt>
      <trkpt lat="48.7943" lon="5.1472">
        <ele>207</ele>
        <time>2023-01-30T12:45:48.000Z</time>
      </trkpt>
      <trkpt lat="48.79431" lon="5.14721">
        <ele>206.7</ele>
        <time>2023-01-30T12:45:49.000Z</time>
      </trkpt>
      <trkpt lat="48.79432" lon="5.14723">
        <ele>206.3</ele>
        <time>2023-01-30T12:45:50.000Z</time>
      </trkpt>
      <trkpt lat="48.79433" lon="5.14724">
        <ele>206</ele>
        <time>2023-01-30T12:45:51.000Z</time>
      </trkpt>
      <trkpt lat="48.79435" lon="5.14725">
        <ele>206</ele>
        <time>2023-01-30T12:45:52.000Z</time>
      </trkpt>
      <trkpt lat="48.79436" lon="5.14726">
        <ele>206</ele>
        <time>2023-01-30T12:45:53.000Z</time>
      </trkpt>
      <trkpt lat="48.79439" lon="5.14728">
        <ele>206</ele>
        <time>2023-01-30T12:45:54.000Z</time>
      </trkpt>
      <trkpt lat="48.79441" lon="5.14729">
        <ele>206</ele>
        <time>2023-01-30T12:45:55.000Z</time>
      </trkpt>
      <trkpt lat="48.79444" lon="5.1473">
        <ele>207</ele>
        <time>2023-01-30T12:45:56.000Z</time>
      </trkpt>
      <trkpt lat="48.79446" lon="5.14731">
        <ele>207</ele>
        <time>2023-01-30T12:45:57.000Z</time>
      </trkpt>
      <trkpt lat="48.79448" lon="5.14732">
        <ele>207</ele>
        <time>2023-01-30T12:45:58.000Z</time>
      </trkpt>
      <trkpt lat="48.7945" lon="5.14733">
        <ele>207</ele>
        <time>2023-01-30T12:45:59.000Z</time>
      </trkpt>
      <trkpt lat="48.79452" lon="5.14734">
        <ele>207</ele>
        <time>2023-01-30T12:46:00.000Z</time>
      </trkpt>
      <trkpt lat="48.79454" lon="5.14735">
        <ele>207</ele>
        <time>2023-01-30T12:46:01.000Z</time>
      </trkpt>
      <trkpt lat="48.79455" lon="5.14737">
        <ele>207</ele>
        <time>2023-01-30T12:46:02.000Z</time>
      </trkpt>
      <trkpt lat="48.79457" lon="5.14738">
        <ele>207</ele>
        <time>2023-01-30T12:46:03.000Z</time>
      </trkpt>
      <trkpt lat="48.79458" lon="5.1474">
        <ele>207</ele>
        <time>2023-01-30T12:46:04.000Z</time>
      </trkpt>
      <trkpt lat="48.79459" lon="5.14741">
        <ele>207</ele>
        <time>2023-01-30T12:46:05.000Z</time>
      </trkpt>
      <trkpt lat="48.7946" lon="5.14742">
        <ele>207</ele>
        <time>2023-01-30T12:46:06.000Z</time>
      </trkpt>
      <trkpt lat="48.79461" lon="5.14744">
        <ele>207</ele>
        <time>2023-01-30T12:46:07.000Z</time>
      </trkpt>
      <trkpt lat="48.79463" lon="5.14745">
        <ele>207</ele>
        <time>2023-01-30T12:46:08.000Z</time>
      </trkpt>
      <trkpt lat="48.79464" lon="5.14747">
        <ele>207</ele>
        <time>2023-01-30T12:46:09.000Z</time>
      </trkpt>
      <trkpt lat="48.79465" lon="5.14748">
        <ele>207</ele>
        <time>2023-01-30T12:46:10.000Z</time>
      </trkpt>
      <trkpt lat="48.79467" lon="5.1475">
        <ele>207</ele>
        <time>2023-01-30T12:46:11.000Z</time>
      </trkpt>
      <trkpt lat="48.79468" lon="5.14751">
        <ele>207</ele>
        <time>2023-01-30T12:46:12.000Z</time>
      </trkpt>
      <trkpt lat="48.79469" lon="5.14753">
        <ele>207</ele>
        <time>2023-01-30T12:46:13.000Z</time>
      </trkpt>
      <trkpt lat="48.7947" lon="5.14754">
        <ele>207</ele>
        <time>2023-01-30T12:46:14.000Z</time>
      </trkpt>
      <trkpt lat="48.79471" lon="5.14756">
        <ele>207</ele>
        <time>2023-01-30T12:46:15.000Z</time>
      </trkpt>
      <trkpt lat="48.79472" lon="5.14757">
        <ele>207</ele>
        <time>2023-01-30T12:46:16.000Z</time>
      </trkpt>
      <trkpt lat="48.79473" lon="5.14758">
        <ele>207</ele>
        <time>2023-01-30T12:46:17.000Z</time>
      </trkpt>
      <trkpt lat="48.79474" lon="5.1476">
        <ele>207</ele>
        <time>2023-01-30T12:46:18.000Z</time>
      </trkpt>
      <trkpt lat="48.79475" lon="5.14761">
        <ele>207</ele>
        <time>2023-01-30T12:46:19.000Z</time>
      </trkpt>
      <trkpt lat="48.79477" lon="5.14763">
        <ele>207</ele>
        <time>2023-01-30T12:46:20.000Z</time>
      </trkpt>
      <trkpt lat="48.79478" lon="5.14765">
        <ele>207</ele>
        <time>2023-01-30T12:46:21.000Z</time>
      </trkpt>
      <trkpt lat="48.7948" lon="5.14767">
        <ele>207</ele>
        <time>2023-01-30T12:46:22.000Z</time>
      </trkpt>
      <trkpt lat="48.79481" lon="5.14768">
        <ele>207</ele>
        <time>2023-01-30T12:46:23.000Z</time>
      </trkpt>
      <trkpt lat="48.79482" lon="5.1477">
        <ele>207</ele>
        <time>2023-01-30T12:46:24.000Z</time>
      </trkpt>
      <trkpt lat="48.79483" lon="5.14772">
        <ele>207</ele>
        <time>2023-01-30T12:46:25.000Z</time>
      </trkpt>
      <trkpt lat="48.79485" lon="5.14774">
        <ele>207</ele>
        <time>2023-01-30T12:46:26.000Z</time>
      </trkpt>
      <trkpt lat="48.79486" lon="5.14775">
        <ele>207</ele>
        <time>2023-01-30T12:46:27.000Z</time>
      </trkpt>
      <trkpt lat="48.79487" lon="5.14776">
        <ele>207</ele>
        <time>2023-01-30T12:46:28.000Z</time>
      </trkpt>
      <trkpt lat="48.79488" lon="5.14777">
        <ele>207</ele>
        <time>2023-01-30T12:46:29.000Z</time>
      </trkpt>
      <trkpt lat="48.79489" lon="5.14778">
        <ele>207</ele>
        <time>2023-01-30T12:46:30.000Z</time>
      </trkpt>
      <trkpt lat="48.7949" lon="5.14779">
        <ele>207</ele>
        <time>2023-01-30T12:46:31.000Z</time>
      </trkpt>
      <trkpt lat="48.79491" lon="5.14781">
        <ele>207</ele>
        <time>2023-01-30T12:46:32.000Z</time>
      </trkpt>
      <trkpt lat="48.79492" lon="5.14782">
        <ele>207.3</ele>
        <time>2023-01-30T12:46:33.000Z</time>
      </trkpt>
      <trkpt lat="48.79493" lon="5.14783">
        <ele>207.7</ele>
        <time>2023-01-30T12:46:34.000Z</time>
      </trkpt>
      <trkpt lat="48.79494" lon="5.14785">
        <ele>208</ele>
        <time>2023-01-30T12:46:35.000Z</time>
      </trkpt>
      <trkpt lat="48.79496" lon="5.14786">
        <ele>208</ele>
        <time>2023-01-30T12:46:36.000Z</time>
      </trkpt>
      <trkpt lat="48.79497" lon="5.14787">
        <ele>208</ele>
        <time>2023-01-30T12:46:37.000Z</time>
      </trkpt>
      <trkpt lat="48.79499" lon="5.14788">
        <ele>208</ele>
        <time>2023-01-30T12:46:38.000Z</time>
      </trkpt>
      <trkpt lat="48.79501" lon="5.1479">
        <ele>208</ele>
        <time>2023-01-30T12:46:39.000Z</time>
      </trkpt>
      <trkpt lat="48.79503" lon="5.14791">
        <ele>208</ele>
        <time>2023-01-30T12:46:40.000Z</time>
      </trkpt>
      <trkpt lat="48.79505" lon="5.14792">
        <ele>208</ele>
        <time>2023-01-30T12:46:41.000Z</time>
      </trkpt>
      <trkpt lat="48.79506" lon="5.14794">
        <ele>208</ele>
        <time>2023-01-30T12:46:42.000Z</time>
      </trkpt>
      <trkpt lat="48.79507" lon="5.14795">
        <ele>208</ele>
        <time>2023-01-30T12:46:43.000Z</time>
      </trkpt>
      <trkpt lat="48.79508" lon="5.14796">
        <ele>208</ele>
        <time>2023-01-30T12:46:44.000Z</time>
      </trkpt>
      <trkpt lat="48.79508" lon="5.14798">
        <ele>208</ele>
        <time>2023-01-30T12:46:45.000Z</time>
      </trkpt>
      <trkpt lat="48.79509" lon="5.14799">
        <ele>208</ele>
        <time>2023-01-30T12:46:46.000Z</time>
      </trkpt>
      <trkpt lat="48.7951" lon="5.14801">
        <ele>208</ele>
        <time>2023-01-30T12:46:47.000Z</time>
      </trkpt>
      <trkpt lat="48.79511" lon="5.14802">
        <ele>208</ele>
        <time>2023-01-30T12:46:48.000Z</time>
      </trkpt>
      <trkpt lat="48.79512" lon="5.14804">
        <ele>208</ele>
        <time>2023-01-30T12:46:49.000Z</time>
      </trkpt>
      <trkpt lat="48.79513" lon="5.14805">
        <ele>208</ele>
        <time>2023-01-30T12:46:50.000Z</time>
      </trkpt>
      <trkpt lat="48.79514" lon="5.14807">
        <ele>208</ele>
        <time>2023-01-30T12:46:51.000Z</time>
      </trkpt>
      <trkpt lat="48.79515" lon="5.14809">
        <ele>208</ele>
        <time>2023-01-30T12:46:52.000Z</time>
      </trkpt>
      <trkpt lat="48.79516" lon="5.14811">
        <ele>208</ele>
        <time>2023-01-30T12:46:53.000Z</time>
      </trkpt>
      <trkpt lat="48.79517" lon="5.14812">
        <ele>208</ele>
        <time>2023-01-30T12:46:54.000Z</time>
      </trkpt>
      <trkpt lat="48.79518" lon="5.14814">
        <ele>208</ele>
        <time>2023-01-30T12:46:55.000Z</time>
      </trkpt>
      <trkpt lat="48.79519" lon="5.14816">
        <ele>208</ele>
        <time>2023-01-30T12:46:56.000Z</time>
      </trkpt>
      <trkpt lat="48.7952" lon="5.14818">
        <ele>208</ele>
        <time>2023-01-30T12:46:57.000Z</time>
      </trkpt>
      <trkpt lat="48.79521" lon="5.1482">
        <ele>208</ele>
        <time>2023-01-30T12:46:58.000Z</time>
      </trkpt>
      <trkpt lat="48.79522" lon="5.14822">
        <ele>208</ele>
        <time>2023-01-30T12:46:59.000Z</time>
      </trkpt>
      <trkpt lat="48.79523" lon="5.14824">
        <ele>208</ele>
        <time>2023-01-30T12:47:00.000Z</time>
      </trkpt>
      <trkpt lat="48.79525" lon="5.14826">
        <ele>208</ele>
        <time>2023-01-30T12:47:01.000Z</time>
      </trkpt>
      <trkpt lat="48.79526" lon="5.14828">
        <ele>208</ele>
        <time>2023-01-30T12:47:02.000Z</time>
      </trkpt>
      <trkpt lat="48.79528" lon="5.1483">
        <ele>208</ele>
        <time>2023-01-30T12:47:03.000Z</time>
      </trkpt>
      <trkpt lat="48.79529" lon="5.14832">
        <ele>208</ele>
        <time>2023-01-30T12:47:04.000Z</time>
      </trkpt>
      <trkpt lat="48.79531" lon="5.14834">
        <ele>208</ele>
        <time>2023-01-30T12:47:05.000Z</time>
      </trkpt>
      <trkpt lat="48.79532" lon="5.14835">
        <ele>208</ele>
        <time>2023-01-30T12:47:06.000Z</time>
      </trkpt>
      <trkpt lat="48.79533" lon="5.14836">
        <ele>208</ele>
        <time>2023-01-30T12:47:07.000Z</time>
      </trkpt>
      <trkpt lat="48.79535" lon="5.14837">
        <ele>208</ele>
        <time>2023-01-30T12:47:08.000Z</time>
      </trkpt>
      <trkpt lat="48.79536" lon="5.14838">
        <ele>208</ele>
        <time>2023-01-30T12:47:09.000Z</time>
      </trkpt>
      <trkpt lat="48.79537" lon="5.14839">
        <ele>208</ele>
        <time>2023-01-30T12:47:10.000Z</time>
      </trkpt>
      <trkpt lat="48.79538" lon="5.14841">
        <ele>208</ele>
        <time>2023-01-30T12:47:11.000Z</time>
      </trkpt>
      <trkpt lat="48.79539" lon="5.14842">
        <ele>208</ele>
        <time>2023-01-30T12:47:12.000Z</time>
      </trkpt>
      <trkpt lat="48.79541" lon="5.14843">
        <ele>208</ele>
        <time>2023-01-30T12:47:13.000Z</time>
      </trkpt>
      <trkpt lat="48.79544" lon="5.14844">
        <ele>209</ele>
        <time>2023-01-30T12:47:14.000Z</time>
      </trkpt>
      <trkpt lat="48.79545" lon="5.14845">
        <ele>209</ele>
        <time>2023-01-30T12:47:15.000Z</time>
      </trkpt>
      <trkpt lat="48.79547" lon="5.14846">
        <ele>209</ele>
        <time>2023-01-30T12:47:16.000Z</time>
      </trkpt>
      <trkpt lat="48.79549" lon="5.14847">
        <ele>209</ele>
        <time>2023-01-30T12:47:17.000Z</time>
      </trkpt>
      <trkpt lat="48.7955" lon="5.14848">
        <ele>209</ele>
        <time>2023-01-30T12:47:18.000Z</time>
      </trkpt>
      <trkpt lat="48.79552" lon="5.14849">
        <ele>209</ele>
        <time>2023-01-30T12:47:19.000Z</time>
      </trkpt>
      <trkpt lat="48.79554" lon="5.1485">
        <ele>209</ele>
        <time>2023-01-30T12:47:20.000Z</time>
      </trkpt>
      <trkpt lat="48.79555" lon="5.14851">
        <ele>209</ele>
        <time>2023-01-30T12:47:21.000Z</time>
      </trkpt>
      <trkpt lat="48.79556" lon="5.14852">
        <ele>209</ele>
        <time>2023-01-30T12:47:22.000Z</time>
      </trkpt>
      <trkpt lat="48.79558" lon="5.14853">
        <ele>209</ele>
        <time>2023-01-30T12:47:23.000Z</time>
      </trkpt>
      <trkpt lat="48.79559" lon="5.14854">
        <ele>209</ele>
        <time>2023-01-30T12:47:24.000Z</time>
      </trkpt>
      <trkpt lat="48.7956" lon="5.14855">
        <ele>209</ele>
        <time>2023-01-30T12:47:25.000Z</time>
      </trkpt>
      <trkpt lat="48.79561" lon="5.14855">
        <ele>209</ele>
        <time>2023-01-30T12:47:26.000Z</time>
      </trkpt>
      <trkpt lat="48.79562" lon="5.14856">
        <ele>209</ele>
        <time>2023-01-30T12:47:27.000Z</time>
      </trkpt>
      <trkpt lat="48.79563" lon="5.14857">
        <ele>209</ele>
        <time>2023-01-30T12:47:28.000Z</time>
      </trkpt>
      <trkpt lat="48.79564" lon="5.14858">
        <ele>209</ele>
        <time>2023-01-30T12:47:29.000Z</time>
      </trkpt>
      <trkpt lat="48.79566" lon="5.14859">
        <ele>209</ele>
        <time>2023-01-30T12:47:30.000Z</time>
      </trkpt>
      <trkpt lat="48.79567" lon="5.1486">
        <ele>209</ele>
        <time>2023-01-30T12:47:31.000Z</time>
      </trkpt>
      <trkpt lat="48.79568" lon="5.14861">
        <ele>209</ele>
        <time>2023-01-30T12:47:32.000Z</time>
      </trkpt>
      <trkpt lat="48.7957" lon="5.14862">
        <ele>209</ele>
        <time>2023-01-30T12:47:33.000Z</time>
      </trkpt>
      <trkpt lat="48.79571" lon="5.14863">
        <ele>209</ele>
        <time>2023-01-30T12:47:34.000Z</time>
      </trkpt>
      <trkpt lat="48.79571" lon="5.14864">
        <ele>209</ele>
        <time>2023-01-30T12:47:35.000Z</time>
      </trkpt>
      <trkpt lat="48.79572" lon="5.14865">
        <ele>209</ele>
        <time>2023-01-30T12:47:36.000Z</time>
      </trkpt>
      <trkpt lat="48.79573" lon="5.14866">
        <ele>209</ele>
        <time>2023-01-30T12:47:37.000Z</time>
      </trkpt>
      <trkpt lat="48.79574" lon="5.14867">
        <ele>209</ele>
        <time>2023-01-30T12:47:38.000Z</time>
      </trkpt>
      <trkpt lat="48.79575" lon="5.14868">
        <ele>209</ele>
        <time>2023-01-30T12:47:39.000Z</time>
      </trkpt>
      <trkpt lat="48.79576" lon="5.1487">
        <ele>209</ele>
        <time>2023-01-30T12:47:40.000Z</time>
      </trkpt>
      <trkpt lat="48.79577" lon="5.14871">
        <ele>209</ele>
        <time>2023-01-30T12:47:41.000Z</time>
      </trkpt>
      <trkpt lat="48.79578" lon="5.14872">
        <ele>209.5</ele>
        <time>2023-01-30T12:47:42.000Z</time>
      </trkpt>
      <trkpt lat="48.7958" lon="5.14874">
        <ele>210</ele>
        <time>2023-01-30T12:47:43.000Z</time>
      </trkpt>
      <trkpt lat="48.79581" lon="5.14875">
        <ele>210</ele>
        <time>2023-01-30T12:47:44.000Z</time>
      </trkpt>
      <trkpt lat="48.79582" lon="5.14877">
        <ele>210</ele>
        <time>2023-01-30T12:47:45.000Z</time>
      </trkpt>
      <trkpt lat="48.79584" lon="5.14878">
        <ele>210</ele>
        <time>2023-01-30T12:47:46.000Z</time>
      </trkpt>
      <trkpt lat="48.79585" lon="5.1488">
        <ele>210</ele>
        <time>2023-01-30T12:47:47.000Z</time>
      </trkpt>
      <trkpt lat="48.79587" lon="5.14881">
        <ele>210</ele>
        <time>2023-01-30T12:47:48.000Z</time>
      </trkpt>
      <trkpt lat="48.79588" lon="5.14882">
        <ele>210</ele>
        <time>2023-01-30T12:47:49.000Z</time>
      </trkpt>
      <trkpt lat="48.7959" lon="5.14883">
        <ele>210</ele>
        <time>2023-01-30T12:47:50.000Z</time>
      </trkpt>
      <trkpt lat="48.79592" lon="5.14884">
        <ele>210</ele>
        <time>2023-01-30T12:47:51.000Z</time>
      </trkpt>
      <trkpt lat="48.79593" lon="5.14885">
        <ele>210</ele>
        <time>2023-01-30T12:47:52.000Z</time>
      </trkpt>
      <trkpt lat="48.79595" lon="5.14886">
        <ele>210</ele>
        <time>2023-01-30T12:47:53.000Z</time>
      </trkpt>
      <trkpt lat="48.79596" lon="5.14887">
        <ele>210</ele>
        <time>2023-01-30T12:47:54.000Z</time>
      </trkpt>
      <trkpt lat="48.79598" lon="5.14888">
        <ele>210</ele>
        <time>2023-01-30T12:47:55.000Z</time>
      </trkpt>
      <trkpt lat="48.79599" lon="5.14889">
        <ele>210</ele>
        <time>2023-01-30T12:47:56.000Z</time>
      </trkpt>
      <trkpt lat="48.796" lon="5.1489">
        <ele>210</ele>
        <time>2023-01-30T12:47:57.000Z</time>
      </trkpt>
      <trkpt lat="48.796" lon="5.14891">
        <ele>210</ele>
        <time>2023-01-30T12:47:58.000Z</time>
      </trkpt>
      <trkpt lat="48.79601" lon="5.14892">
        <ele>210</ele>
        <time>2023-01-30T12:47:59.000Z</time>
      </trkpt>
      <trkpt lat="48.79602" lon="5.14894">
        <ele>210</ele>
        <time>2023-01-30T12:48:00.000Z</time>
      </trkpt>
      <trkpt lat="48.79604" lon="5.14895">
        <ele>210</ele>
        <time>2023-01-30T12:48:01.000Z</time>
      </trkpt>
      <trkpt lat="48.79606" lon="5.14897">
        <ele>211</ele>
        <time>2023-01-30T12:48:02.000Z</time>
      </trkpt>
      <trkpt lat="48.79608" lon="5.14899">
        <ele>211</ele>
        <time>2023-01-30T12:48:03.000Z</time>
      </trkpt>
      <trkpt lat="48.79611" lon="5.149">
        <ele>211</ele>
        <time>2023-01-30T12:48:04.000Z</time>
      </trkpt>
      <trkpt lat="48.79613" lon="5.14901">
        <ele>211</ele>
        <time>2023-01-30T12:48:05.000Z</time>
      </trkpt>
      <trkpt lat="48.79615" lon="5.14902">
        <ele>211</ele>
        <time>2023-01-30T12:48:06.000Z</time>
      </trkpt>
      <trkpt lat="48.79616" lon="5.14903">
        <ele>210.7</ele>
        <time>2023-01-30T12:48:07.000Z</time>
      </trkpt>
      <trkpt lat="48.79618" lon="5.14904">
        <ele>210.3</ele>
        <time>2023-01-30T12:48:08.000Z</time>
      </trkpt>
      <trkpt lat="48.79619" lon="5.14904">
        <ele>210</ele>
        <time>2023-01-30T12:48:09.000Z</time>
      </trkpt>
      <trkpt lat="48.7962" lon="5.14905">
        <ele>211</ele>
        <time>2023-01-30T12:48:10.000Z</time>
      </trkpt>
      <trkpt lat="48.79621" lon="5.14906">
        <ele>211</ele>
        <time>2023-01-30T12:48:11.000Z</time>
      </trkpt>
      <trkpt lat="48.79622" lon="5.14907">
        <ele>211</ele>
        <time>2023-01-30T12:48:12.000Z</time>
      </trkpt>
      <trkpt lat="48.79623" lon="5.14908">
        <ele>211</ele>
        <time>2023-01-30T12:48:13.000Z</time>
      </trkpt>
      <trkpt lat="48.79624" lon="5.14908">
        <ele>211</ele>
        <time>2023-01-30T12:48:14.000Z</time>
      </trkpt>
      <trkpt lat="48.79625" lon="5.14909">
        <ele>211</ele>
        <time>2023-01-30T12:48:15.000Z</time>
      </trkpt>
      <trkpt lat="48.79626" lon="5.1491">
        <ele>211</ele>
        <time>2023-01-30T12:48:16.000Z</time>
      </trkpt>
      <trkpt lat="48.79627" lon="5.1491">
        <ele>211</ele>
        <time>2023-01-30T12:48:17.000Z</time>
      </trkpt>
      <trkpt lat="48.79628" lon="5.14911">
        <ele>211</ele>
        <time>2023-01-30T12:48:18.000Z</time>
      </trkpt>
      <trkpt lat="48.79629" lon="5.14911">
        <ele>211</ele>
        <time>2023-01-30T12:48:19.000Z</time>
      </trkpt>
      <trkpt lat="48.7963" lon="5.14912">
        <ele>211</ele>
        <time>2023-01-30T12:48:20.000Z</time>
      </trkpt>
      <trkpt lat="48.79632" lon="5.14913">
        <ele>211</ele>
        <time>2023-01-30T12:48:21.000Z</time>
      </trkpt>
      <trkpt lat="48.79633" lon="5.14913">
        <ele>211</ele>
        <time>2023-01-30T12:48:22.000Z</time>
      </trkpt>
      <trkpt lat="48.79635" lon="5.14914">
        <ele>211</ele>
        <time>2023-01-30T12:48:23.000Z</time>
      </trkpt>
      <trkpt lat="48.79636" lon="5.14915">
        <ele>210</ele>
        <time>2023-01-30T12:48:24.000Z</time>
      </trkpt>
      <trkpt lat="48.79637" lon="5.14915">
        <ele>211</ele>
        <time>2023-01-30T12:48:25.000Z</time>
      </trkpt>
      <trkpt lat="48.79639" lon="5.14915">
        <ele>211</ele>
        <time>2023-01-30T12:48:26.000Z</time>
      </trkpt>
      <trkpt lat="48.7964" lon="5.14915">
        <ele>211</ele>
        <time>2023-01-30T12:48:27.000Z</time>
      </trkpt>
      <trkpt lat="48.79642" lon="5.14915">
        <ele>211</ele>
        <time>2023-01-30T12:48:28.000Z</time>
      </trkpt>
      <trkpt lat="48.79643" lon="5.14915">
        <ele>211</ele>
        <time>2023-01-30T12:48:29.000Z</time>
      </trkpt>
      <trkpt lat="48.79644" lon="5.14916">
        <ele>211</ele>
        <time>2023-01-30T12:48:30.000Z</time>
      </trkpt>
      <trkpt lat="48.79645" lon="5.14916">
        <ele>211</ele>
        <time>2023-01-30T12:48:31.000Z</time>
      </trkpt>
      <trkpt lat="48.79646" lon="5.14917">
        <ele>211</ele>
        <time>2023-01-30T12:48:32.000Z</time>
      </trkpt>
      <trkpt lat="48.79647" lon="5.14918">
        <ele>210</ele>
        <time>2023-01-30T12:48:33.000Z</time>
      </trkpt>
      <trkpt lat="48.79647" lon="5.14918">
        <ele>211</ele>
        <time>2023-01-30T12:48:34.000Z</time>
      </trkpt>
      <trkpt lat="48.79648" lon="5.14919">
        <ele>211</ele>
        <time>2023-01-30T12:48:35.000Z</time>
      </trkpt>
      <trkpt lat="48.79649" lon="5.14919">
        <ele>211</ele>
        <time>2023-01-30T12:48:36.000Z</time>
      </trkpt>
      <trkpt lat="48.79649" lon="5.14919">
        <ele>211</ele>
        <time>2023-01-30T12:48:37.000Z</time>
      </trkpt>
      <trkpt lat="48.7965" lon="5.14918">
        <ele>211</ele>
        <time>2023-01-30T12:48:38.000Z</time>
      </trkpt>
      <trkpt lat="48.7965" lon="5.14917">
        <ele>211</ele>
        <time>2023-01-30T12:48:39.000Z</time>
      </trkpt>
      <trkpt lat="48.79651" lon="5.14916">
        <ele>211</ele>
        <time>2023-01-30T12:48:40.000Z</time>
      </trkpt>
      <trkpt lat="48.79651" lon="5.14915">
        <ele>211</ele>
        <time>2023-01-30T12:48:41.000Z</time>
      </trkpt>
      <trkpt lat="48.79651" lon="5.14913">
        <ele>211</ele>
        <time>2023-01-30T12:48:42.000Z</time>
      </trkpt>
      <trkpt lat="48.79651" lon="5.14912">
        <ele>211</ele>
        <time>2023-01-30T12:48:43.000Z</time>
      </trkpt>
      <trkpt lat="48.79651" lon="5.14911">
        <ele>211</ele>
        <time>2023-01-30T12:48:44.000Z</time>
      </trkpt>
      <trkpt lat="48.79651" lon="5.1491">
        <ele>211</ele>
        <time>2023-01-30T12:48:45.000Z</time>
      </trkpt>
      <trkpt lat="48.79651" lon="5.14909">
        <ele>211</ele>
        <time>2023-01-30T12:48:46.000Z</time>
      </trkpt>
      <trkpt lat="48.79651" lon="5.14908">
        <ele>211</ele>
        <time>2023-01-30T12:48:47.000Z</time>
      </trkpt>
      <trkpt lat="48.79651" lon="5.14906">
        <ele>211</ele>
        <time>2023-01-30T12:48:48.000Z</time>
      </trkpt>
      <trkpt lat="48.7965" lon="5.14905">
        <ele>211</ele>
        <time>2023-01-30T12:48:49.000Z</time>
      </trkpt>
      <trkpt lat="48.7965" lon="5.14903">
        <ele>211</ele>
        <time>2023-01-30T12:48:50.000Z</time>
      </trkpt>
      <trkpt lat="48.7965" lon="5.14901">
        <ele>211</ele>
        <time>2023-01-30T12:48:51.000Z</time>
      </trkpt>
      <trkpt lat="48.7965" lon="5.149">
        <ele>211</ele>
        <time>2023-01-30T12:48:52.000Z</time>
      </trkpt>
      <trkpt lat="48.79649" lon="5.14898">
        <ele>211</ele>
        <time>2023-01-30T12:48:53.000Z</time>
      </trkpt>
      <trkpt lat="48.79649" lon="5.14896">
        <ele>211</ele>
        <time>2023-01-30T12:48:54.000Z</time>
      </trkpt>
      <trkpt lat="48.79649" lon="5.14894">
        <ele>211</ele>
        <time>2023-01-30T12:48:55.000Z</time>
      </trkpt>
      <trkpt lat="48.79649" lon="5.14892">
        <ele>211</ele>
        <time>2023-01-30T12:48:56.000Z</time>
      </trkpt>
      <trkpt lat="48.79648" lon="5.1489">
        <ele>211</ele>
        <time>2023-01-30T12:48:57.000Z</time>
      </trkpt>
      <trkpt lat="48.79648" lon="5.14889">
        <ele>211</ele>
        <time>2023-01-30T12:48:58.000Z</time>
      </trkpt>
      <trkpt lat="48.79648" lon="5.14887">
        <ele>211</ele>
        <time>2023-01-30T12:48:59.000Z</time>
      </trkpt>
      <trkpt lat="48.79648" lon="5.14885">
        <ele>211</ele>
        <time>2023-01-30T12:49:00.000Z</time>
      </trkpt>
      <trkpt lat="48.79648" lon="5.14884">
        <ele>211</ele>
        <time>2023-01-30T12:49:01.000Z</time>
      </trkpt>
      <trkpt lat="48.79648" lon="5.14882">
        <ele>211</ele>
        <time>2023-01-30T12:49:02.000Z</time>
      </trkpt>
      <trkpt lat="48.79648" lon="5.14881">
        <ele>211</ele>
        <time>2023-01-30T12:49:03.000Z</time>
      </trkpt>
      <trkpt lat="48.79648" lon="5.1488">
        <ele>211</ele>
        <time>2023-01-30T12:49:04.000Z</time>
      </trkpt>
      <trkpt lat="48.79648" lon="5.14878">
        <ele>211</ele>
        <time>2023-01-30T12:49:05.000Z</time>
      </trkpt>
      <trkpt lat="48.79648" lon="5.14877">
        <ele>211</ele>
        <time>2023-01-30T12:49:06.000Z</time>
      </trkpt>
      <trkpt lat="48.79648" lon="5.14876">
        <ele>211</ele>
        <time>2023-01-30T12:49:07.000Z</time>
      </trkpt>
      <trkpt lat="48.79649" lon="5.14874">
        <ele>211</ele>
        <time>2023-01-30T12:49:08.000Z</time>
      </trkpt>
      <trkpt lat="48.79649" lon="5.14872">
        <ele>211</ele>
        <time>2023-01-30T12:49:09.000Z</time>
      </trkpt>
      <trkpt lat="48.79648" lon="5.1487">
        <ele>211</ele>
        <time>2023-01-30T12:49:10.000Z</time>
      </trkpt>
      <trkpt lat="48.79648" lon="5.14868">
        <ele>212</ele>
        <time>2023-01-30T12:49:11.000Z</time>
      </trkpt>
      <trkpt lat="48.79648" lon="5.14866">
        <ele>212</ele>
        <time>2023-01-30T12:49:12.000Z</time>
      </trkpt>
      <trkpt lat="48.79648" lon="5.14864">
        <ele>212</ele>
        <time>2023-01-30T12:49:13.000Z</time>
      </trkpt>
      <trkpt lat="48.79648" lon="5.14864">
        <ele>212</ele>
        <time>2023-01-30T12:49:14.000Z</time>
      </trkpt>
      <trkpt lat="48.79648" lon="5.14863">
        <ele>212</ele>
        <time>2023-01-30T12:49:15.000Z</time>
      </trkpt>
      <trkpt lat="48.79648" lon="5.14861">
        <ele>212</ele>
        <time>2023-01-30T12:49:16.000Z</time>
      </trkpt>
      <trkpt lat="48.79647" lon="5.14859">
        <ele>212</ele>
        <time>2023-01-30T12:49:17.000Z</time>
      </trkpt>
      <trkpt lat="48.79647" lon="5.14857">
        <ele>212.3</ele>
        <time>2023-01-30T12:49:18.000Z</time>
      </trkpt>
      <trkpt lat="48.79646" lon="5.14855">
        <ele>212.7</ele>
        <time>2023-01-30T12:49:19.000Z</time>
      </trkpt>
      <trkpt lat="48.79646" lon="5.14854">
        <ele>213</ele>
        <time>2023-01-30T12:49:20.000Z</time>
      </trkpt>
      <trkpt lat="48.79646" lon="5.14853">
        <ele>213</ele>
        <time>2023-01-30T12:49:21.000Z</time>
      </trkpt>
      <trkpt lat="48.79646" lon="5.14852">
        <ele>213.5</ele>
        <time>2023-01-30T12:49:22.000Z</time>
      </trkpt>
      <trkpt lat="48.79645" lon="5.14852">
        <ele>214</ele>
        <time>2023-01-30T12:49:23.000Z</time>
      </trkpt>
      <trkpt lat="48.79645" lon="5.14851">
        <ele>214</ele>
        <time>2023-01-30T12:49:24.000Z</time>
      </trkpt>
      <trkpt lat="48.79645" lon="5.1485">
        <ele>214</ele>
        <time>2023-01-30T12:49:25.000Z</time>
      </trkpt>
      <trkpt lat="48.79645" lon="5.14849">
        <ele>214</ele>
        <time>2023-01-30T12:49:26.000Z</time>
      </trkpt>
      <trkpt lat="48.79645" lon="5.14847">
        <ele>214</ele>
        <time>2023-01-30T12:49:27.000Z</time>
      </trkpt>
      <trkpt lat="48.79645" lon="5.14845">
        <ele>214</ele>
        <time>2023-01-30T12:49:28.000Z</time>
      </trkpt>
      <trkpt lat="48.79645" lon="5.14843">
        <ele>215</ele>
        <time>2023-01-30T12:49:29.000Z</time>
      </trkpt>
      <trkpt lat="48.79645" lon="5.1484">
        <ele>215</ele>
        <time>2023-01-30T12:49:30.000Z</time>
      </trkpt>
      <trkpt lat="48.79646" lon="5.14837">
        <ele>215</ele>
        <time>2023-01-30T12:49:31.000Z</time>
      </trkpt>
      <trkpt lat="48.79647" lon="5.14835">
        <ele>215</ele>
        <time>2023-01-30T12:49:32.000Z</time>
      </trkpt>
      <trkpt lat="48.79647" lon="5.14832">
        <ele>215</ele>
        <time>2023-01-30T12:49:33.000Z</time>
      </trkpt>
      <trkpt lat="48.79648" lon="5.14831">
        <ele>215.3</ele>
        <time>2023-01-30T12:49:34.000Z</time>
      </trkpt>
      <trkpt lat="48.79648" lon="5.14829">
        <ele>215.7</ele>
        <time>2023-01-30T12:49:35.000Z</time>
      </trkpt>
      <trkpt lat="48.79649" lon="5.14827">
        <ele>216</ele>
        <time>2023-01-30T12:49:36.000Z</time>
      </trkpt>
      <trkpt lat="48.7965" lon="5.14825">
        <ele>216</ele>
        <time>2023-01-30T12:49:37.000Z</time>
      </trkpt>
      <trkpt lat="48.7965" lon="5.14824">
        <ele>216</ele>
        <time>2023-01-30T12:49:38.000Z</time>
      </trkpt>
      <trkpt lat="48.79651" lon="5.14822">
        <ele>216</ele>
        <time>2023-01-30T12:49:39.000Z</time>
      </trkpt>
      <trkpt lat="48.79651" lon="5.1482">
        <ele>216</ele>
        <time>2023-01-30T12:49:40.000Z</time>
      </trkpt>
      <trkpt lat="48.79652" lon="5.14818">
        <ele>216</ele>
        <time>2023-01-30T12:49:41.000Z</time>
      </trkpt>
      <trkpt lat="48.79652" lon="5.14816">
        <ele>216.5</ele>
        <time>2023-01-30T12:49:42.000Z</time>
      </trkpt>
      <trkpt lat="48.79652" lon="5.14813">
        <ele>217</ele>
        <time>2023-01-30T12:49:43.000Z</time>
      </trkpt>
      <trkpt lat="48.79652" lon="5.14811">
        <ele>217</ele>
        <time>2023-01-30T12:49:44.000Z</time>
      </trkpt>
      <trkpt lat="48.79653" lon="5.14808">
        <ele>217</ele>
        <time>2023-01-30T12:49:45.000Z</time>
      </trkpt>
      <trkpt lat="48.79653" lon="5.14806">
        <ele>217</ele>
        <time>2023-01-30T12:49:46.000Z</time>
      </trkpt>
      <trkpt lat="48.79652" lon="5.14803">
        <ele>217</ele>
        <time>2023-01-30T12:49:47.000Z</time>
      </trkpt>
      <trkpt lat="48.79652" lon="5.14801">
        <ele>217.5</ele>
        <time>2023-01-30T12:49:48.000Z</time>
      </trkpt>
      <trkpt lat="48.79652" lon="5.14799">
        <ele>218</ele>
        <time>2023-01-30T12:49:49.000Z</time>
      </trkpt>
      <trkpt lat="48.79652" lon="5.14796">
        <ele>218</ele>
        <time>2023-01-30T12:49:50.000Z</time>
      </trkpt>
      <trkpt lat="48.79652" lon="5.14795">
        <ele>218</ele>
        <time>2023-01-30T12:49:51.000Z</time>
      </trkpt>
      <trkpt lat="48.79652" lon="5.14793">
        <ele>218</ele>
        <time>2023-01-30T12:49:52.000Z</time>
      </trkpt>
      <trkpt lat="48.79652" lon="5.14791">
        <ele>218</ele>
        <time>2023-01-30T12:49:53.000Z</time>
      </trkpt>
      <trkpt lat="48.79652" lon="5.14789">
        <ele>218.5</ele>
        <time>2023-01-30T12:49:54.000Z</time>
      </trkpt>
      <trkpt lat="48.79652" lon="5.14788">
        <ele>219</ele>
        <time>2023-01-30T12:49:55.000Z</time>
      </trkpt>
      <trkpt lat="48.79652" lon="5.14786">
        <ele>219</ele>
        <time>2023-01-30T12:49:56.000Z</time>
      </trkpt>
      <trkpt lat="48.79652" lon="5.14784">
        <ele>219</ele>
        <time>2023-01-30T12:49:57.000Z</time>
      </trkpt>
      <trkpt lat="48.79652" lon="5.14782">
        <ele>219</ele>
        <time>2023-01-30T12:49:58.000Z</time>
      </trkpt>
      <trkpt lat="48.79652" lon="5.1478">
        <ele>219</ele>
        <time>2023-01-30T12:49:59.000Z</time>
      </trkpt>
      <trkpt lat="48.79652" lon="5.14778">
        <ele>219</ele>
        <time>2023-01-30T12:50:00.000Z</time>
      </trkpt>
      <trkpt lat="48.79653" lon="5.14776">
        <ele>219</ele>
        <time>2023-01-30T12:50:01.000Z</time>
      </trkpt>
      <trkpt lat="48.79653" lon="5.14774">
        <ele>219.5</ele>
        <time>2023-01-30T12:50:02.000Z</time>
      </trkpt>
      <trkpt lat="48.79653" lon="5.14772">
        <ele>220</ele>
        <time>2023-01-30T12:50:03.000Z</time>
      </trkpt>
      <trkpt lat="48.79653" lon="5.1477">
        <ele>220</ele>
        <time>2023-01-30T12:50:04.000Z</time>
      </trkpt>
      <trkpt lat="48.79653" lon="5.14768">
        <ele>220</ele>
        <time>2023-01-30T12:50:05.000Z</time>
      </trkpt>
      <trkpt lat="48.79653" lon="5.14767">
        <ele>220</ele>
        <time>2023-01-30T12:50:06.000Z</time>
      </trkpt>
      <trkpt lat="48.79652" lon="5.14765">
        <ele>220</ele>
        <time>2023-01-30T12:50:07.000Z</time>
      </trkpt>
      <trkpt lat="48.79652" lon="5.14764">
        <ele>220</ele>
        <time>2023-01-30T12:50:08.000Z</time>
      </trkpt>
      <trkpt lat="48.79652" lon="5.14763">
        <ele>220</ele>
        <time>2023-01-30T12:50:09.000Z</time>
      </trkpt>
      <trkpt lat="48.79652" lon="5.14761">
        <ele>220.5</ele>
        <time>2023-01-30T12:50:10.000Z</time>
      </trkpt>
      <trkpt lat="48.79652" lon="5.1476">
        <ele>221</ele>
        <time>2023-01-30T12:50:11.000Z</time>
      </trkpt>
      <trkpt lat="48.79653" lon="5.14759">
        <ele>221</ele>
        <time>2023-01-30T12:50:12.000Z</time>
      </trkpt>
      <trkpt lat="48.79653" lon="5.14758">
        <ele>221</ele>
        <time>2023-01-30T12:50:13.000Z</time>
      </trkpt>
      <trkpt lat="48.79653" lon="5.14757">
        <ele>221</ele>
        <time>2023-01-30T12:50:14.000Z</time>
      </trkpt>
      <trkpt lat="48.79653" lon="5.14755">
        <ele>221</ele>
        <time>2023-01-30T12:50:15.000Z</time>
      </trkpt>
      <trkpt lat="48.79654" lon="5.14754">
        <ele>221.5</ele>
        <time>2023-01-30T12:50:16.000Z</time>
      </trkpt>
      <trkpt lat="48.79654" lon="5.14752">
        <ele>222</ele>
        <time>2023-01-30T12:50:17.000Z</time>
      </trkpt>
      <trkpt lat="48.79654" lon="5.14751">
        <ele>222</ele>
        <time>2023-01-30T12:50:18.000Z</time>
      </trkpt>
      <trkpt lat="48.79654" lon="5.1475">
        <ele>222</ele>
        <time>2023-01-30T12:50:19.000Z</time>
      </trkpt>
      <trkpt lat="48.79654" lon="5.14747">
        <ele>222</ele>
        <time>2023-01-30T12:50:20.000Z</time>
      </trkpt>
      <trkpt lat="48.79654" lon="5.14744">
        <ele>222</ele>
        <time>2023-01-30T12:50:21.000Z</time>
      </trkpt>
      <trkpt lat="48.79654" lon="5.14741">
        <ele>222.5</ele>
        <time>2023-01-30T12:50:22.000Z</time>
      </trkpt>
      <trkpt lat="48.79655" lon="5.14739">
        <ele>223</ele>
        <time>2023-01-30T12:50:23.000Z</time>
      </trkpt>
      <trkpt lat="48.79655" lon="5.14738">
        <ele>223</ele>
        <time>2023-01-30T12:50:24.000Z</time>
      </trkpt>
      <trkpt lat="48.79655" lon="5.14737">
        <ele>223</ele>
        <time>2023-01-30T12:50:25.000Z</time>
      </trkpt>
      <trkpt lat="48.79656" lon="5.14736">
        <ele>223</ele>
        <time>2023-01-30T12:50:26.000Z</time>
      </trkpt>
      <trkpt lat="48.79656" lon="5.14734">
        <ele>223</ele>
        <time>2023-01-30T12:50:27.000Z</time>
      </trkpt>
      <trkpt lat="48.79657" lon="5.14732">
        <ele>223</ele>
        <time>2023-01-30T12:50:28.000Z</time>
      </trkpt>
      <trkpt lat="48.79658" lon="5.14729">
        <ele>223</ele>
        <time>2023-01-30T12:50:29.000Z</time>
      </trkpt>
      <trkpt lat="48.79659" lon="5.14728">
        <ele>223.3</ele>
        <time>2023-01-30T12:50:30.000Z</time>
      </trkpt>
      <trkpt lat="48.79659" lon="5.14727">
        <ele>223.7</ele>
        <time>2023-01-30T12:50:31.000Z</time>
      </trkpt>
      <trkpt lat="48.7966" lon="5.14726">
        <ele>224</ele>
        <time>2023-01-30T12:50:32.000Z</time>
      </trkpt>
      <trkpt lat="48.79661" lon="5.14724">
        <ele>224</ele>
        <time>2023-01-30T12:50:33.000Z</time>
      </trkpt>
      <trkpt lat="48.79662" lon="5.14721">
        <ele>224</ele>
        <time>2023-01-30T12:50:34.000Z</time>
      </trkpt>
      <trkpt lat="48.79663" lon="5.14719">
        <ele>224</ele>
        <time>2023-01-30T12:50:35.000Z</time>
      </trkpt>
      <trkpt lat="48.79663" lon="5.14718">
        <ele>224</ele>
        <time>2023-01-30T12:50:36.000Z</time>
      </trkpt>
      <trkpt lat="48.79664" lon="5.14716">
        <ele>224</ele>
        <time>2023-01-30T12:50:37.000Z</time>
      </trkpt>
      <trkpt lat="48.79665" lon="5.14715">
        <ele>224</ele>
        <time>2023-01-30T12:50:38.000Z</time>
      </trkpt>
      <trkpt lat="48.79665" lon="5.14712">
        <ele>224</ele>
        <time>2023-01-30T12:50:39.000Z</time>
      </trkpt>
      <trkpt lat="48.79665" lon="5.1471">
        <ele>224</ele>
        <time>2023-01-30T12:50:40.000Z</time>
      </trkpt>
      <trkpt lat="48.79666" lon="5.14708">
        <ele>224</ele>
        <time>2023-01-30T12:50:41.000Z</time>
      </trkpt>
      <trkpt lat="48.79666" lon="5.14706">
        <ele>224</ele>
        <time>2023-01-30T12:50:42.000Z</time>
      </trkpt>
      <trkpt lat="48.79667" lon="5.14704">
        <ele>224</ele>
        <time>2023-01-30T12:50:43.000Z</time>
      </trkpt>
      <trkpt lat="48.79667" lon="5.14702">
        <ele>224</ele>
        <time>2023-01-30T12:50:44.000Z</time>
      </trkpt>
      <trkpt lat="48.79667" lon="5.14699">
        <ele>224</ele>
        <time>2023-01-30T12:50:45.000Z</time>
      </trkpt>
      <trkpt lat="48.79667" lon="5.14697">
        <ele>224</ele>
        <time>2023-01-30T12:50:46.000Z</time>
      </trkpt>
      <trkpt lat="48.79667" lon="5.14695">
        <ele>224</ele>
        <time>2023-01-30T12:50:47.000Z</time>
      </trkpt>
      <trkpt lat="48.79666" lon="5.14693">
        <ele>224</ele>
        <time>2023-01-30T12:50:48.000Z</time>
      </trkpt>
      <trkpt lat="48.79666" lon="5.14691">
        <ele>224</ele>
        <time>2023-01-30T12:50:49.000Z</time>
      </trkpt>
      <trkpt lat="48.79665" lon="5.14689">
        <ele>224</ele>
        <time>2023-01-30T12:50:50.000Z</time>
      </trkpt>
      <trkpt lat="48.79664" lon="5.14686">
        <ele>224</ele>
        <time>2023-01-30T12:50:51.000Z</time>
      </trkpt>
      <trkpt lat="48.79663" lon="5.14685">
        <ele>224</ele>
        <time>2023-01-30T12:50:52.000Z</time>
      </trkpt>
      <trkpt lat="48.79662" lon="5.14684">
        <ele>224</ele>
        <time>2023-01-30T12:50:53.000Z</time>
      </trkpt>
      <trkpt lat="48.79662" lon="5.14683">
        <ele>224</ele>
        <time>2023-01-30T12:50:54.000Z</time>
      </trkpt>
      <trkpt lat="48.79661" lon="5.14681">
        <ele>224</ele>
        <time>2023-01-30T12:50:55.000Z</time>
      </trkpt>
      <trkpt lat="48.7966" lon="5.14679">
        <ele>224</ele>
        <time>2023-01-30T12:50:56.000Z</time>
      </trkpt>
      <trkpt lat="48.79659" lon="5.14677">
        <ele>224</ele>
        <time>2023-01-30T12:50:57.000Z</time>
      </trkpt>
      <trkpt lat="48.79658" lon="5.14675">
        <ele>224</ele>
        <time>2023-01-30T12:50:58.000Z</time>
      </trkpt>
      <trkpt lat="48.79657" lon="5.14673">
        <ele>224</ele>
        <time>2023-01-30T12:50:59.000Z</time>
      </trkpt>
      <trkpt lat="48.79657" lon="5.14672">
        <ele>224</ele>
        <time>2023-01-30T12:51:00.000Z</time>
      </trkpt>
      <trkpt lat="48.79656" lon="5.1467">
        <ele>224</ele>
        <time>2023-01-30T12:51:01.000Z</time>
      </trkpt>
      <trkpt lat="48.79656" lon="5.14669">
        <ele>224</ele>
        <time>2023-01-30T12:51:02.000Z</time>
      </trkpt>
      <trkpt lat="48.79655" lon="5.14667">
        <ele>224</ele>
        <time>2023-01-30T12:51:03.000Z</time>
      </trkpt>
      <trkpt lat="48.79654" lon="5.14665">
        <ele>224</ele>
        <time>2023-01-30T12:51:04.000Z</time>
      </trkpt>
      <trkpt lat="48.79653" lon="5.14664">
        <ele>224</ele>
        <time>2023-01-30T12:51:05.000Z</time>
      </trkpt>
      <trkpt lat="48.79653" lon="5.14662">
        <ele>224</ele>
        <time>2023-01-30T12:51:06.000Z</time>
      </trkpt>
      <trkpt lat="48.79652" lon="5.1466">
        <ele>224</ele>
        <time>2023-01-30T12:51:07.000Z</time>
      </trkpt>
      <trkpt lat="48.79652" lon="5.14659">
        <ele>224</ele>
        <time>2023-01-30T12:51:08.000Z</time>
      </trkpt>
      <trkpt lat="48.79651" lon="5.14658">
        <ele>224</ele>
        <time>2023-01-30T12:51:09.000Z</time>
      </trkpt>
      <trkpt lat="48.79651" lon="5.14657">
        <ele>224</ele>
        <time>2023-01-30T12:51:10.000Z</time>
      </trkpt>
      <trkpt lat="48.79651" lon="5.14656">
        <ele>224</ele>
        <time>2023-01-30T12:51:11.000Z</time>
      </trkpt>
      <trkpt lat="48.79651" lon="5.14655">
        <ele>224</ele>
        <time>2023-01-30T12:51:12.000Z</time>
      </trkpt>
      <trkpt lat="48.79651" lon="5.14654">
        <ele>224</ele>
        <time>2023-01-30T12:51:13.000Z</time>
      </trkpt>
      <trkpt lat="48.7965" lon="5.14653">
        <ele>224</ele>
        <time>2023-01-30T12:51:14.000Z</time>
      </trkpt>
      <trkpt lat="48.7965" lon="5.14651">
        <ele>225</ele>
        <time>2023-01-30T12:51:15.000Z</time>
      </trkpt>
      <trkpt lat="48.79649" lon="5.14649">
        <ele>225</ele>
        <time>2023-01-30T12:51:16.000Z</time>
      </trkpt>
      <trkpt lat="48.79649" lon="5.14647">
        <ele>225</ele>
        <time>2023-01-30T12:51:17.000Z</time>
      </trkpt>
      <trkpt lat="48.79648" lon="5.14645">
        <ele>225</ele>
        <time>2023-01-30T12:51:18.000Z</time>
      </trkpt>
      <trkpt lat="48.79648" lon="5.14643">
        <ele>225</ele>
        <time>2023-01-30T12:51:19.000Z</time>
      </trkpt>
      <trkpt lat="48.79647" lon="5.14641">
        <ele>224.7</ele>
        <time>2023-01-30T12:51:20.000Z</time>
      </trkpt>
      <trkpt lat="48.79647" lon="5.1464">
        <ele>224.3</ele>
        <time>2023-01-30T12:51:21.000Z</time>
      </trkpt>
      <trkpt lat="48.79647" lon="5.14638">
        <ele>224</ele>
        <time>2023-01-30T12:51:22.000Z</time>
      </trkpt>
      <trkpt lat="48.79646" lon="5.14636">
        <ele>224</ele>
        <time>2023-01-30T12:51:23.000Z</time>
      </trkpt>
      <trkpt lat="48.79646" lon="5.14634">
        <ele>224</ele>
        <time>2023-01-30T12:51:24.000Z</time>
      </trkpt>
      <trkpt lat="48.79646" lon="5.14633">
        <ele>224</ele>
        <time>2023-01-30T12:51:25.000Z</time>
      </trkpt>
      <trkpt lat="48.79646" lon="5.14631">
        <ele>224</ele>
        <time>2023-01-30T12:51:26.000Z</time>
      </trkpt>
      <trkpt lat="48.79646" lon="5.14629">
        <ele>224</ele>
        <time>2023-01-30T12:51:27.000Z</time>
      </trkpt>
      <trkpt lat="48.79647" lon="5.14627">
        <ele>224</ele>
        <time>2023-01-30T12:51:28.000Z</time>
      </trkpt>
      <trkpt lat="48.79647" lon="5.14625">
        <ele>224</ele>
        <time>2023-01-30T12:51:29.000Z</time>
      </trkpt>
      <trkpt lat="48.79647" lon="5.14623">
        <ele>224</ele>
        <time>2023-01-30T12:51:30.000Z</time>
      </trkpt>
      <trkpt lat="48.79647" lon="5.14621">
        <ele>224</ele>
        <time>2023-01-30T12:51:31.000Z</time>
      </trkpt>
      <trkpt lat="48.79646" lon="5.14619">
        <ele>224</ele>
        <time>2023-01-30T12:51:32.000Z</time>
      </trkpt>
      <trkpt lat="48.79646" lon="5.14617">
        <ele>225</ele>
        <time>2023-01-30T12:51:33.000Z</time>
      </trkpt>
      <trkpt lat="48.79646" lon="5.14615">
        <ele>225</ele>
        <time>2023-01-30T12:51:34.000Z</time>
      </trkpt>
      <trkpt lat="48.79645" lon="5.14614">
        <ele>225</ele>
        <time>2023-01-30T12:51:35.000Z</time>
      </trkpt>
      <trkpt lat="48.79645" lon="5.14612">
        <ele>224.7</ele>
        <time>2023-01-30T12:51:36.000Z</time>
      </trkpt>
      <trkpt lat="48.79645" lon="5.14611">
        <ele>224.3</ele>
        <time>2023-01-30T12:51:37.000Z</time>
      </trkpt>
      <trkpt lat="48.79644" lon="5.14609">
        <ele>224</ele>
        <time>2023-01-30T12:51:38.000Z</time>
      </trkpt>
      <trkpt lat="48.79644" lon="5.14608">
        <ele>224</ele>
        <time>2023-01-30T12:51:39.000Z</time>
      </trkpt>
      <trkpt lat="48.79643" lon="5.14606">
        <ele>224</ele>
        <time>2023-01-30T12:51:40.000Z</time>
      </trkpt>
      <trkpt lat="48.79643" lon="5.14604">
        <ele>224</ele>
        <time>2023-01-30T12:51:41.000Z</time>
      </trkpt>
      <trkpt lat="48.79642" lon="5.14602">
        <ele>224.3</ele>
        <time>2023-01-30T12:51:42.000Z</time>
      </trkpt>
      <trkpt lat="48.79642" lon="5.14601">
        <ele>224.7</ele>
        <time>2023-01-30T12:51:43.000Z</time>
      </trkpt>
      <trkpt lat="48.79641" lon="5.14599">
        <ele>225</ele>
        <time>2023-01-30T12:51:44.000Z</time>
      </trkpt>
      <trkpt lat="48.79641" lon="5.14596">
        <ele>225</ele>
        <time>2023-01-30T12:51:45.000Z</time>
      </trkpt>
      <trkpt lat="48.7964" lon="5.14594">
        <ele>225</ele>
        <time>2023-01-30T12:51:46.000Z</time>
      </trkpt>
      <trkpt lat="48.79639" lon="5.14592">
        <ele>225</ele>
        <time>2023-01-30T12:51:47.000Z</time>
      </trkpt>
      <trkpt lat="48.79638" lon="5.1459">
        <ele>225</ele>
        <time>2023-01-30T12:51:48.000Z</time>
      </trkpt>
      <trkpt lat="48.79637" lon="5.14589">
        <ele>225</ele>
        <time>2023-01-30T12:51:49.000Z</time>
      </trkpt>
      <trkpt lat="48.79636" lon="5.14587">
        <ele>225</ele>
        <time>2023-01-30T12:51:50.000Z</time>
      </trkpt>
      <trkpt lat="48.79635" lon="5.14585">
        <ele>225</ele>
        <time>2023-01-30T12:51:51.000Z</time>
      </trkpt>
      <trkpt lat="48.79634" lon="5.14582">
        <ele>225</ele>
        <time>2023-01-30T12:51:52.000Z</time>
      </trkpt>
      <trkpt lat="48.79633" lon="5.14579">
        <ele>225</ele>
        <time>2023-01-30T12:51:53.000Z</time>
      </trkpt>
      <trkpt lat="48.79632" lon="5.14577">
        <ele>225</ele>
        <time>2023-01-30T12:51:54.000Z</time>
      </trkpt>
      <trkpt lat="48.79632" lon="5.14575">
        <ele>225</ele>
        <time>2023-01-30T12:51:55.000Z</time>
      </trkpt>
      <trkpt lat="48.79631" lon="5.14573">
        <ele>225</ele>
        <time>2023-01-30T12:51:56.000Z</time>
      </trkpt>
      <trkpt lat="48.79631" lon="5.14571">
        <ele>225</ele>
        <time>2023-01-30T12:51:57.000Z</time>
      </trkpt>
      <trkpt lat="48.7963" lon="5.14569">
        <ele>225</ele>
        <time>2023-01-30T12:51:58.000Z</time>
      </trkpt>
      <trkpt lat="48.7963" lon="5.14567">
        <ele>225</ele>
        <time>2023-01-30T12:51:59.000Z</time>
      </trkpt>
      <trkpt lat="48.79629" lon="5.14565">
        <ele>225</ele>
        <time>2023-01-30T12:52:00.000Z</time>
      </trkpt>
      <trkpt lat="48.79628" lon="5.14564">
        <ele>225</ele>
        <time>2023-01-30T12:52:01.000Z</time>
      </trkpt>
      <trkpt lat="48.79628" lon="5.14562">
        <ele>225</ele>
        <time>2023-01-30T12:52:02.000Z</time>
      </trkpt>
      <trkpt lat="48.79627" lon="5.1456">
        <ele>225</ele>
        <time>2023-01-30T12:52:03.000Z</time>
      </trkpt>
      <trkpt lat="48.79627" lon="5.14558">
        <ele>225</ele>
        <time>2023-01-30T12:52:04.000Z</time>
      </trkpt>
      <trkpt lat="48.79626" lon="5.14556">
        <ele>226</ele>
        <time>2023-01-30T12:52:05.000Z</time>
      </trkpt>
      <trkpt lat="48.79626" lon="5.14554">
        <ele>226</ele>
        <time>2023-01-30T12:52:06.000Z</time>
      </trkpt>
      <trkpt lat="48.79625" lon="5.14552">
        <ele>226</ele>
        <time>2023-01-30T12:52:07.000Z</time>
      </trkpt>
      <trkpt lat="48.79625" lon="5.1455">
        <ele>226</ele>
        <time>2023-01-30T12:52:08.000Z</time>
      </trkpt>
      <trkpt lat="48.79624" lon="5.14548">
        <ele>226</ele>
        <time>2023-01-30T12:52:09.000Z</time>
      </trkpt>
      <trkpt lat="48.79624" lon="5.14546">
        <ele>226</ele>
        <time>2023-01-30T12:52:10.000Z</time>
      </trkpt>
      <trkpt lat="48.79623" lon="5.14544">
        <ele>226</ele>
        <time>2023-01-30T12:52:11.000Z</time>
      </trkpt>
      <trkpt lat="48.79622" lon="5.14542">
        <ele>226</ele>
        <time>2023-01-30T12:52:12.000Z</time>
      </trkpt>
      <trkpt lat="48.79621" lon="5.1454">
        <ele>226</ele>
        <time>2023-01-30T12:52:13.000Z</time>
      </trkpt>
      <trkpt lat="48.7962" lon="5.14538">
        <ele>226</ele>
        <time>2023-01-30T12:52:14.000Z</time>
      </trkpt>
      <trkpt lat="48.79619" lon="5.14536">
        <ele>226</ele>
        <time>2023-01-30T12:52:15.000Z</time>
      </trkpt>
      <trkpt lat="48.79618" lon="5.14535">
        <ele>226</ele>
        <time>2023-01-30T12:52:16.000Z</time>
      </trkpt>
      <trkpt lat="48.79617" lon="5.14533">
        <ele>226</ele>
        <time>2023-01-30T12:52:17.000Z</time>
      </trkpt>
      <trkpt lat="48.79616" lon="5.14531">
        <ele>226</ele>
        <time>2023-01-30T12:52:18.000Z</time>
      </trkpt>
      <trkpt lat="48.79614" lon="5.14529">
        <ele>226</ele>
        <time>2023-01-30T12:52:19.000Z</time>
      </trkpt>
      <trkpt lat="48.79613" lon="5.14528">
        <ele>226</ele>
        <time>2023-01-30T12:52:20.000Z</time>
      </trkpt>
      <trkpt lat="48.79612" lon="5.14526">
        <ele>226</ele>
        <time>2023-01-30T12:52:21.000Z</time>
      </trkpt>
      <trkpt lat="48.7961" lon="5.14525">
        <ele>226</ele>
        <time>2023-01-30T12:52:22.000Z</time>
      </trkpt>
      <trkpt lat="48.79609" lon="5.14524">
        <ele>226</ele>
        <time>2023-01-30T12:52:23.000Z</time>
      </trkpt>
      <trkpt lat="48.79608" lon="5.14522">
        <ele>226</ele>
        <time>2023-01-30T12:52:24.000Z</time>
      </trkpt>
      <trkpt lat="48.79607" lon="5.14521">
        <ele>226</ele>
        <time>2023-01-30T12:52:25.000Z</time>
      </trkpt>
      <trkpt lat="48.79606" lon="5.1452">
        <ele>226</ele>
        <time>2023-01-30T12:52:26.000Z</time>
      </trkpt>
      <trkpt lat="48.79605" lon="5.14518">
        <ele>226</ele>
        <time>2023-01-30T12:52:27.000Z</time>
      </trkpt>
      <trkpt lat="48.79603" lon="5.14517">
        <ele>226</ele>
        <time>2023-01-30T12:52:28.000Z</time>
      </trkpt>
      <trkpt lat="48.79602" lon="5.14515">
        <ele>226</ele>
        <time>2023-01-30T12:52:29.000Z</time>
      </trkpt>
      <trkpt lat="48.79601" lon="5.14513">
        <ele>226</ele>
        <time>2023-01-30T12:52:30.000Z</time>
      </trkpt>
      <trkpt lat="48.79599" lon="5.14511">
        <ele>226</ele>
        <time>2023-01-30T12:52:31.000Z</time>
      </trkpt>
      <trkpt lat="48.79598" lon="5.14509">
        <ele>226</ele>
        <time>2023-01-30T12:52:32.000Z</time>
      </trkpt>
      <trkpt lat="48.79598" lon="5.14507">
        <ele>226</ele>
        <time>2023-01-30T12:52:33.000Z</time>
      </trkpt>
      <trkpt lat="48.79597" lon="5.14505">
        <ele>226</ele>
        <time>2023-01-30T12:52:34.000Z</time>
      </trkpt>
      <trkpt lat="48.79596" lon="5.14503">
        <ele>226</ele>
        <time>2023-01-30T12:52:35.000Z</time>
      </trkpt>
      <trkpt lat="48.79595" lon="5.14501">
        <ele>226</ele>
        <time>2023-01-30T12:52:36.000Z</time>
      </trkpt>
      <trkpt lat="48.79594" lon="5.14499">
        <ele>226</ele>
        <time>2023-01-30T12:52:37.000Z</time>
      </trkpt>
      <trkpt lat="48.79593" lon="5.14498">
        <ele>226</ele>
        <time>2023-01-30T12:52:38.000Z</time>
      </trkpt>
      <trkpt lat="48.79592" lon="5.14496">
        <ele>226</ele>
        <time>2023-01-30T12:52:39.000Z</time>
      </trkpt>
      <trkpt lat="48.79592" lon="5.14494">
        <ele>226</ele>
        <time>2023-01-30T12:52:40.000Z</time>
      </trkpt>
      <trkpt lat="48.79591" lon="5.14492">
        <ele>226</ele>
        <time>2023-01-30T12:52:41.000Z</time>
      </trkpt>
      <trkpt lat="48.7959" lon="5.1449">
        <ele>226</ele>
        <time>2023-01-30T12:52:42.000Z</time>
      </trkpt>
      <trkpt lat="48.7959" lon="5.14489">
        <ele>226</ele>
        <time>2023-01-30T12:52:43.000Z</time>
      </trkpt>
      <trkpt lat="48.79589" lon="5.14487">
        <ele>226</ele>
        <time>2023-01-30T12:52:44.000Z</time>
      </trkpt>
      <trkpt lat="48.79589" lon="5.14486">
        <ele>226</ele>
        <time>2023-01-30T12:52:45.000Z</time>
      </trkpt>
      <trkpt lat="48.79588" lon="5.14484">
        <ele>226</ele>
        <time>2023-01-30T12:52:46.000Z</time>
      </trkpt>
      <trkpt lat="48.79588" lon="5.14482">
        <ele>226</ele>
        <time>2023-01-30T12:52:47.000Z</time>
      </trkpt>
      <trkpt lat="48.79587" lon="5.14479">
        <ele>226</ele>
        <time>2023-01-30T12:52:48.000Z</time>
      </trkpt>
      <trkpt lat="48.79587" lon="5.14477">
        <ele>226</ele>
        <time>2023-01-30T12:52:49.000Z</time>
      </trkpt>
      <trkpt lat="48.79586" lon="5.14474">
        <ele>226</ele>
        <time>2023-01-30T12:52:50.000Z</time>
      </trkpt>
      <trkpt lat="48.79585" lon="5.14471">
        <ele>226</ele>
        <time>2023-01-30T12:52:51.000Z</time>
      </trkpt>
      <trkpt lat="48.79585" lon="5.14469">
        <ele>226</ele>
        <time>2023-01-30T12:52:52.000Z</time>
      </trkpt>
      <trkpt lat="48.79584" lon="5.14466">
        <ele>226</ele>
        <time>2023-01-30T12:52:53.000Z</time>
      </trkpt>
      <trkpt lat="48.79583" lon="5.14463">
        <ele>226</ele>
        <time>2023-01-30T12:52:54.000Z</time>
      </trkpt>
      <trkpt lat="48.79583" lon="5.14461">
        <ele>226</ele>
        <time>2023-01-30T12:52:55.000Z</time>
      </trkpt>
      <trkpt lat="48.79582" lon="5.14459">
        <ele>226</ele>
        <time>2023-01-30T12:52:56.000Z</time>
      </trkpt>
      <trkpt lat="48.79582" lon="5.14457">
        <ele>226</ele>
        <time>2023-01-30T12:52:57.000Z</time>
      </trkpt>
      <trkpt lat="48.79582" lon="5.14455">
        <ele>226</ele>
        <time>2023-01-30T12:52:58.000Z</time>
      </trkpt>
      <trkpt lat="48.79581" lon="5.14453">
        <ele>226</ele>
        <time>2023-01-30T12:52:59.000Z</time>
      </trkpt>
      <trkpt lat="48.79581" lon="5.14452">
        <ele>226</ele>
        <time>2023-01-30T12:53:00.000Z</time>
      </trkpt>
      <trkpt lat="48.7958" lon="5.1445">
        <ele>226</ele>
        <time>2023-01-30T12:53:01.000Z</time>
      </trkpt>
      <trkpt lat="48.7958" lon="5.14448">
        <ele>226</ele>
        <time>2023-01-30T12:53:02.000Z</time>
      </trkpt>
      <trkpt lat="48.79579" lon="5.14447">
        <ele>226</ele>
        <time>2023-01-30T12:53:03.000Z</time>
      </trkpt>
      <trkpt lat="48.79579" lon="5.14445">
        <ele>226</ele>
        <time>2023-01-30T12:53:04.000Z</time>
      </trkpt>
      <trkpt lat="48.79578" lon="5.14443">
        <ele>226</ele>
        <time>2023-01-30T12:53:05.000Z</time>
      </trkpt>
      <trkpt lat="48.79577" lon="5.14442">
        <ele>226</ele>
        <time>2023-01-30T12:53:06.000Z</time>
      </trkpt>
      <trkpt lat="48.79577" lon="5.1444">
        <ele>226</ele>
        <time>2023-01-30T12:53:07.000Z</time>
      </trkpt>
      <trkpt lat="48.79577" lon="5.14438">
        <ele>226</ele>
        <time>2023-01-30T12:53:08.000Z</time>
      </trkpt>
      <trkpt lat="48.79576" lon="5.14436">
        <ele>226</ele>
        <time>2023-01-30T12:53:09.000Z</time>
      </trkpt>
      <trkpt lat="48.79576" lon="5.14434">
        <ele>226</ele>
        <time>2023-01-30T12:53:10.000Z</time>
      </trkpt>
      <trkpt lat="48.79576" lon="5.14432">
        <ele>226</ele>
        <time>2023-01-30T12:53:11.000Z</time>
      </trkpt>
      <trkpt lat="48.79576" lon="5.1443">
        <ele>226</ele>
        <time>2023-01-30T12:53:12.000Z</time>
      </trkpt>
      <trkpt lat="48.79576" lon="5.14428">
        <ele>226</ele>
        <time>2023-01-30T12:53:13.000Z</time>
      </trkpt>
      <trkpt lat="48.79576" lon="5.14426">
        <ele>226</ele>
        <time>2023-01-30T12:53:14.000Z</time>
      </trkpt>
      <trkpt lat="48.79575" lon="5.14424">
        <ele>226</ele>
        <time>2023-01-30T12:53:15.000Z</time>
      </trkpt>
      <trkpt lat="48.79575" lon="5.14421">
        <ele>226</ele>
        <time>2023-01-30T12:53:16.000Z</time>
      </trkpt>
      <trkpt lat="48.79574" lon="5.14419">
        <ele>226</ele>
        <time>2023-01-30T12:53:17.000Z</time>
      </trkpt>
      <trkpt lat="48.79574" lon="5.14417">
        <ele>226</ele>
        <time>2023-01-30T12:53:18.000Z</time>
      </trkpt>
      <trkpt lat="48.79573" lon="5.14416">
        <ele>226</ele>
        <time>2023-01-30T12:53:19.000Z</time>
      </trkpt>
      <trkpt lat="48.79573" lon="5.14415">
        <ele>226</ele>
        <time>2023-01-30T12:53:20.000Z</time>
      </trkpt>
      <trkpt lat="48.79572" lon="5.14414">
        <ele>226</ele>
        <time>2023-01-30T12:53:21.000Z</time>
      </trkpt>
      <trkpt lat="48.79572" lon="5.14412">
        <ele>226</ele>
        <time>2023-01-30T12:53:22.000Z</time>
      </trkpt>
      <trkpt lat="48.79571" lon="5.1441">
        <ele>226</ele>
        <time>2023-01-30T12:53:23.000Z</time>
      </trkpt>
      <trkpt lat="48.79571" lon="5.14408">
        <ele>226</ele>
        <time>2023-01-30T12:53:24.000Z</time>
      </trkpt>
      <trkpt lat="48.7957" lon="5.14405">
        <ele>226</ele>
        <time>2023-01-30T12:53:25.000Z</time>
      </trkpt>
      <trkpt lat="48.7957" lon="5.14403">
        <ele>226</ele>
        <time>2023-01-30T12:53:26.000Z</time>
      </trkpt>
      <trkpt lat="48.7957" lon="5.14401">
        <ele>226</ele>
        <time>2023-01-30T12:53:27.000Z</time>
      </trkpt>
      <trkpt lat="48.7957" lon="5.144">
        <ele>226</ele>
        <time>2023-01-30T12:53:28.000Z</time>
      </trkpt>
      <trkpt lat="48.79569" lon="5.14398">
        <ele>226</ele>
        <time>2023-01-30T12:53:29.000Z</time>
      </trkpt>
      <trkpt lat="48.79569" lon="5.14395">
        <ele>226</ele>
        <time>2023-01-30T12:53:30.000Z</time>
      </trkpt>
      <trkpt lat="48.79568" lon="5.14393">
        <ele>226</ele>
        <time>2023-01-30T12:53:31.000Z</time>
      </trkpt>
      <trkpt lat="48.79567" lon="5.14391">
        <ele>226</ele>
        <time>2023-01-30T12:53:32.000Z</time>
      </trkpt>
      <trkpt lat="48.79567" lon="5.14389">
        <ele>226</ele>
        <time>2023-01-30T12:53:33.000Z</time>
      </trkpt>
      <trkpt lat="48.79566" lon="5.14389">
        <ele>226</ele>
        <time>2023-01-30T12:53:34.000Z</time>
      </trkpt>
      <trkpt lat="48.79566" lon="5.14388">
        <ele>226</ele>
        <time>2023-01-30T12:53:35.000Z</time>
      </trkpt>
      <trkpt lat="48.79566" lon="5.14387">
        <ele>226</ele>
        <time>2023-01-30T12:53:36.000Z</time>
      </trkpt>
      <trkpt lat="48.79565" lon="5.14385">
        <ele>226</ele>
        <time>2023-01-30T12:53:37.000Z</time>
      </trkpt>
      <trkpt lat="48.79565" lon="5.14383">
        <ele>226</ele>
        <time>2023-01-30T12:53:38.000Z</time>
      </trkpt>
      <trkpt lat="48.79565" lon="5.14381">
        <ele>226</ele>
        <time>2023-01-30T12:53:39.000Z</time>
      </trkpt>
      <trkpt lat="48.79564" lon="5.14379">
        <ele>226</ele>
        <time>2023-01-30T12:53:40.000Z</time>
      </trkpt>
      <trkpt lat="48.79564" lon="5.14377">
        <ele>226</ele>
        <time>2023-01-30T12:53:41.000Z</time>
      </trkpt>
      <trkpt lat="48.79564" lon="5.14376">
        <ele>226</ele>
        <time>2023-01-30T12:53:42.000Z</time>
      </trkpt>
      <trkpt lat="48.79564" lon="5.14374">
        <ele>226</ele>
        <time>2023-01-30T12:53:43.000Z</time>
      </trkpt>
      <trkpt lat="48.79564" lon="5.14372">
        <ele>226</ele>
        <time>2023-01-30T12:53:44.000Z</time>
      </trkpt>
      <trkpt lat="48.79563" lon="5.14369">
        <ele>226</ele>
        <time>2023-01-30T12:53:45.000Z</time>
      </trkpt>
      <trkpt lat="48.79563" lon="5.14367">
        <ele>226</ele>
        <time>2023-01-30T12:53:46.000Z</time>
      </trkpt>
      <trkpt lat="48.79563" lon="5.14366">
        <ele>226</ele>
        <time>2023-01-30T12:53:47.000Z</time>
      </trkpt>
      <trkpt lat="48.79562" lon="5.14365">
        <ele>226</ele>
        <time>2023-01-30T12:53:48.000Z</time>
      </trkpt>
      <trkpt lat="48.79562" lon="5.14363">
        <ele>226</ele>
        <time>2023-01-30T12:53:49.000Z</time>
      </trkpt>
      <trkpt lat="48.79561" lon="5.14361">
        <ele>226</ele>
        <time>2023-01-30T12:53:50.000Z</time>
      </trkpt>
      <trkpt lat="48.7956" lon="5.14358">
        <ele>226</ele>
        <time>2023-01-30T12:53:51.000Z</time>
      </trkpt>
      <trkpt lat="48.7956" lon="5.14354">
        <ele>226</ele>
        <time>2023-01-30T12:53:52.000Z</time>
      </trkpt>
      <trkpt lat="48.79559" lon="5.14352">
        <ele>226</ele>
        <time>2023-01-30T12:53:53.000Z</time>
      </trkpt>
      <trkpt lat="48.79559" lon="5.14349">
        <ele>226</ele>
        <time>2023-01-30T12:53:54.000Z</time>
      </trkpt>
      <trkpt lat="48.79558" lon="5.14347">
        <ele>226</ele>
        <time>2023-01-30T12:53:55.000Z</time>
      </trkpt>
      <trkpt lat="48.79558" lon="5.14345">
        <ele>226</ele>
        <time>2023-01-30T12:53:56.000Z</time>
      </trkpt>
      <trkpt lat="48.79557" lon="5.14343">
        <ele>226</ele>
        <time>2023-01-30T12:53:57.000Z</time>
      </trkpt>
      <trkpt lat="48.79556" lon="5.14341">
        <ele>226</ele>
        <time>2023-01-30T12:53:58.000Z</time>
      </trkpt>
      <trkpt lat="48.79555" lon="5.14339">
        <ele>226</ele>
        <time>2023-01-30T12:53:59.000Z</time>
      </trkpt>
      <trkpt lat="48.79554" lon="5.14337">
        <ele>226</ele>
        <time>2023-01-30T12:54:00.000Z</time>
      </trkpt>
      <trkpt lat="48.79553" lon="5.14335">
        <ele>226</ele>
        <time>2023-01-30T12:54:01.000Z</time>
      </trkpt>
      <trkpt lat="48.79551" lon="5.14333">
        <ele>226</ele>
        <time>2023-01-30T12:54:02.000Z</time>
      </trkpt>
      <trkpt lat="48.7955" lon="5.14332">
        <ele>226</ele>
        <time>2023-01-30T12:54:03.000Z</time>
      </trkpt>
      <trkpt lat="48.79549" lon="5.14331">
        <ele>226</ele>
        <time>2023-01-30T12:54:04.000Z</time>
      </trkpt>
      <trkpt lat="48.79548" lon="5.1433">
        <ele>226</ele>
        <time>2023-01-30T12:54:05.000Z</time>
      </trkpt>
      <trkpt lat="48.79547" lon="5.14329">
        <ele>226</ele>
        <time>2023-01-30T12:54:06.000Z</time>
      </trkpt>
      <trkpt lat="48.79546" lon="5.14328">
        <ele>226</ele>
        <time>2023-01-30T12:54:07.000Z</time>
      </trkpt>
      <trkpt lat="48.79546" lon="5.14327">
        <ele>226</ele>
        <time>2023-01-30T12:54:08.000Z</time>
      </trkpt>
      <trkpt lat="48.79545" lon="5.14326">
        <ele>226</ele>
        <time>2023-01-30T12:54:09.000Z</time>
      </trkpt>
      <trkpt lat="48.79544" lon="5.14326">
        <ele>226</ele>
        <time>2023-01-30T12:54:10.000Z</time>
      </trkpt>
      <trkpt lat="48.79544" lon="5.14325">
        <ele>226</ele>
        <time>2023-01-30T12:54:11.000Z</time>
      </trkpt>
      <trkpt lat="48.79543" lon="5.14324">
        <ele>226</ele>
        <time>2023-01-30T12:54:12.000Z</time>
      </trkpt>
      <trkpt lat="48.79543" lon="5.14323">
        <ele>226</ele>
        <time>2023-01-30T12:54:13.000Z</time>
      </trkpt>
      <trkpt lat="48.79542" lon="5.14323">
        <ele>226</ele>
        <time>2023-01-30T12:54:14.000Z</time>
      </trkpt>
      <trkpt lat="48.79542" lon="5.14322">
        <ele>226</ele>
        <time>2023-01-30T12:54:15.000Z</time>
      </trkpt>
      <trkpt lat="48.79542" lon="5.14322">
        <ele>226</ele>
        <time>2023-01-30T12:54:16.000Z</time>
      </trkpt>
      <trkpt lat="48.79541" lon="5.14322">
        <ele>226</ele>
        <time>2023-01-30T12:54:17.000Z</time>
      </trkpt>
      <trkpt lat="48.79541" lon="5.14321">
        <ele>226</ele>
        <time>2023-01-30T12:54:18.000Z</time>
      </trkpt>
      <trkpt lat="48.79541" lon="5.14321">
        <ele>226</ele>
        <time>2023-01-30T12:54:19.000Z</time>
      </trkpt>
      <trkpt lat="48.79541" lon="5.14321">
        <ele>226</ele>
        <time>2023-01-30T12:54:20.000Z</time>
      </trkpt>
      <trkpt lat="48.79541" lon="5.14321">
        <ele>226</ele>
        <time>2023-01-30T12:54:21.000Z</time>
      </trkpt>
      <trkpt lat="48.79541" lon="5.14321">
        <ele>226</ele>
        <time>2023-01-30T12:54:22.000Z</time>
      </trkpt>
      <trkpt lat="48.79541" lon="5.14321">
        <ele>226</ele>
        <time>2023-01-30T12:54:23.000Z</time>
      </trkpt>
      <trkpt lat="48.79541" lon="5.14321">
        <ele>226</ele>
        <time>2023-01-30T12:54:24.000Z</time>
      </trkpt>
      <trkpt lat="48.79541" lon="5.14321">
        <ele>226</ele>
        <time>2023-01-30T12:54:25.000Z</time>
      </trkpt>
      <trkpt lat="48.79541" lon="5.14321">
        <ele>226</ele>
        <time>2023-01-30T12:54:26.000Z</time>
      </trkpt>
      <trkpt lat="48.79541" lon="5.14321">
        <ele>226</ele>
        <time>2023-01-30T12:54:27.000Z</time>
      </trkpt>
      <trkpt lat="48.79541" lon="5.1432">
        <ele>226</ele>
        <time>2023-01-30T12:54:28.000Z</time>
      </trkpt>
      <trkpt lat="48.79541" lon="5.1432">
        <ele>226</ele>
        <time>2023-01-30T12:54:29.000Z</time>
      </trkpt>
      <trkpt lat="48.79541" lon="5.14319">
        <ele>226</ele>
        <time>2023-01-30T12:54:30.000Z</time>
      </trkpt>
      <trkpt lat="48.79542" lon="5.14318">
        <ele>226</ele>
        <time>2023-01-30T12:54:31.000Z</time>
      </trkpt>
      <trkpt lat="48.79542" lon="5.14316">
        <ele>226</ele>
        <time>2023-01-30T12:54:32.000Z</time>
      </trkpt>
      <trkpt lat="48.79543" lon="5.14315">
        <ele>226</ele>
        <time>2023-01-30T12:54:33.000Z</time>
      </trkpt>
      <trkpt lat="48.79543" lon="5.14313">
        <ele>226</ele>
        <time>2023-01-30T12:54:34.000Z</time>
      </trkpt>
      <trkpt lat="48.79544" lon="5.14311">
        <ele>226</ele>
        <time>2023-01-30T12:54:35.000Z</time>
      </trkpt>
      <trkpt lat="48.79544" lon="5.1431">
        <ele>226</ele>
        <time>2023-01-30T12:54:36.000Z</time>
      </trkpt>
      <trkpt lat="48.79545" lon="5.14309">
        <ele>226</ele>
        <time>2023-01-30T12:54:37.000Z</time>
      </trkpt>
      <trkpt lat="48.79546" lon="5.14308">
        <ele>226</ele>
        <time>2023-01-30T12:54:38.000Z</time>
      </trkpt>
      <trkpt lat="48.79546" lon="5.14307">
        <ele>226</ele>
        <time>2023-01-30T12:54:39.000Z</time>
      </trkpt>
      <trkpt lat="48.79546" lon="5.14306">
        <ele>226</ele>
        <time>2023-01-30T12:54:40.000Z</time>
      </trkpt>
      <trkpt lat="48.79545" lon="5.14304">
        <ele>226</ele>
        <time>2023-01-30T12:54:41.000Z</time>
      </trkpt>
      <trkpt lat="48.79544" lon="5.14303">
        <ele>225.7</ele>
        <time>2023-01-30T12:54:42.000Z</time>
      </trkpt>
      <trkpt lat="48.79543" lon="5.14302">
        <ele>225.3</ele>
        <time>2023-01-30T12:54:43.000Z</time>
      </trkpt>
      <trkpt lat="48.79541" lon="5.14301">
        <ele>225</ele>
        <time>2023-01-30T12:54:44.000Z</time>
      </trkpt>
      <trkpt lat="48.7954" lon="5.143">
        <ele>225</ele>
        <time>2023-01-30T12:54:45.000Z</time>
      </trkpt>
      <trkpt lat="48.79538" lon="5.143">
        <ele>225</ele>
        <time>2023-01-30T12:54:46.000Z</time>
      </trkpt>
      <trkpt lat="48.79537" lon="5.143">
        <ele>225</ele>
        <time>2023-01-30T12:54:47.000Z</time>
      </trkpt>
      <trkpt lat="48.79535" lon="5.143">
        <ele>225</ele>
        <time>2023-01-30T12:54:48.000Z</time>
      </trkpt>
      <trkpt lat="48.79534" lon="5.143">
        <ele>225</ele>
        <time>2023-01-30T12:54:49.000Z</time>
      </trkpt>
      <trkpt lat="48.79533" lon="5.14299">
        <ele>225</ele>
        <time>2023-01-30T12:54:50.000Z</time>
      </trkpt>
      <trkpt lat="48.79532" lon="5.14298">
        <ele>225</ele>
        <time>2023-01-30T12:54:51.000Z</time>
      </trkpt>
      <trkpt lat="48.79531" lon="5.14297">
        <ele>225</ele>
        <time>2023-01-30T12:54:52.000Z</time>
      </trkpt>
      <trkpt lat="48.7953" lon="5.14295">
        <ele>225</ele>
        <time>2023-01-30T12:54:53.000Z</time>
      </trkpt>
      <trkpt lat="48.79529" lon="5.14293">
        <ele>225</ele>
        <time>2023-01-30T12:54:54.000Z</time>
      </trkpt>
      <trkpt lat="48.79528" lon="5.14292">
        <ele>225</ele>
        <time>2023-01-30T12:54:55.000Z</time>
      </trkpt>
      <trkpt lat="48.79527" lon="5.1429">
        <ele>225</ele>
        <time>2023-01-30T12:54:56.000Z</time>
      </trkpt>
      <trkpt lat="48.79526" lon="5.14289">
        <ele>225</ele>
        <time>2023-01-30T12:54:57.000Z</time>
      </trkpt>
      <trkpt lat="48.79525" lon="5.14289">
        <ele>224.7</ele>
        <time>2023-01-30T12:54:58.000Z</time>
      </trkpt>
      <trkpt lat="48.79524" lon="5.14288">
        <ele>224.3</ele>
        <time>2023-01-30T12:54:59.000Z</time>
      </trkpt>
      <trkpt lat="48.79523" lon="5.14288">
        <ele>224</ele>
        <time>2023-01-30T12:55:00.000Z</time>
      </trkpt>
      <trkpt lat="48.79523" lon="5.14287">
        <ele>224</ele>
        <time>2023-01-30T12:55:01.000Z</time>
      </trkpt>
      <trkpt lat="48.79523" lon="5.14286">
        <ele>224</ele>
        <time>2023-01-30T12:55:02.000Z</time>
      </trkpt>
      <trkpt lat="48.79522" lon="5.14285">
        <ele>224</ele>
        <time>2023-01-30T12:55:03.000Z</time>
      </trkpt>
      <trkpt lat="48.79522" lon="5.14284">
        <ele>224</ele>
        <time>2023-01-30T12:55:04.000Z</time>
      </trkpt>
      <trkpt lat="48.79521" lon="5.14284">
        <ele>224</ele>
        <time>2023-01-30T12:55:05.000Z</time>
      </trkpt>
      <trkpt lat="48.79521" lon="5.14283">
        <ele>224</ele>
        <time>2023-01-30T12:55:06.000Z</time>
      </trkpt>
      <trkpt lat="48.7952" lon="5.14282">
        <ele>224</ele>
        <time>2023-01-30T12:55:07.000Z</time>
      </trkpt>
      <trkpt lat="48.7952" lon="5.1428">
        <ele>224</ele>
        <time>2023-01-30T12:55:08.000Z</time>
      </trkpt>
      <trkpt lat="48.7952" lon="5.14277">
        <ele>224</ele>
        <time>2023-01-30T12:55:09.000Z</time>
      </trkpt>
      <trkpt lat="48.7952" lon="5.14274">
        <ele>224</ele>
        <time>2023-01-30T12:55:10.000Z</time>
      </trkpt>
      <trkpt lat="48.79521" lon="5.14273">
        <ele>224</ele>
        <time>2023-01-30T12:55:11.000Z</time>
      </trkpt>
      <trkpt lat="48.79521" lon="5.14271">
        <ele>224</ele>
        <time>2023-01-30T12:55:12.000Z</time>
      </trkpt>
      <trkpt lat="48.79522" lon="5.14269">
        <ele>224</ele>
        <time>2023-01-30T12:55:13.000Z</time>
      </trkpt>
      <trkpt lat="48.79523" lon="5.14266">
        <ele>224</ele>
        <time>2023-01-30T12:55:14.000Z</time>
      </trkpt>
      <trkpt lat="48.79523" lon="5.14263">
        <ele>224</ele>
        <time>2023-01-30T12:55:15.000Z</time>
      </trkpt>
      <trkpt lat="48.79523" lon="5.14261">
        <ele>224</ele>
        <time>2023-01-30T12:55:16.000Z</time>
      </trkpt>
      <trkpt lat="48.79522" lon="5.14258">
        <ele>224</ele>
        <time>2023-01-30T12:55:17.000Z</time>
      </trkpt>
      <trkpt lat="48.79522" lon="5.14256">
        <ele>223.7</ele>
        <time>2023-01-30T12:55:18.000Z</time>
      </trkpt>
      <trkpt lat="48.79522" lon="5.14254">
        <ele>223.3</ele>
        <time>2023-01-30T12:55:19.000Z</time>
      </trkpt>
      <trkpt lat="48.79521" lon="5.14253">
        <ele>223</ele>
        <time>2023-01-30T12:55:20.000Z</time>
      </trkpt>
      <trkpt lat="48.79521" lon="5.14251">
        <ele>223</ele>
        <time>2023-01-30T12:55:21.000Z</time>
      </trkpt>
      <trkpt lat="48.7952" lon="5.1425">
        <ele>223</ele>
        <time>2023-01-30T12:55:22.000Z</time>
      </trkpt>
      <trkpt lat="48.79519" lon="5.14249">
        <ele>223</ele>
        <time>2023-01-30T12:55:23.000Z</time>
      </trkpt>
      <trkpt lat="48.79517" lon="5.14247">
        <ele>223</ele>
        <time>2023-01-30T12:55:24.000Z</time>
      </trkpt>
      <trkpt lat="48.79516" lon="5.14246">
        <ele>223</ele>
        <time>2023-01-30T12:55:25.000Z</time>
      </trkpt>
      <trkpt lat="48.79515" lon="5.14245">
        <ele>223</ele>
        <time>2023-01-30T12:55:26.000Z</time>
      </trkpt>
      <trkpt lat="48.79514" lon="5.14244">
        <ele>223</ele>
        <time>2023-01-30T12:55:27.000Z</time>
      </trkpt>
      <trkpt lat="48.79513" lon="5.14243">
        <ele>222.5</ele>
        <time>2023-01-30T12:55:28.000Z</time>
      </trkpt>
      <trkpt lat="48.79513" lon="5.14242">
        <ele>222</ele>
        <time>2023-01-30T12:55:29.000Z</time>
      </trkpt>
      <trkpt lat="48.79512" lon="5.14241">
        <ele>222</ele>
        <time>2023-01-30T12:55:30.000Z</time>
      </trkpt>
      <trkpt lat="48.79512" lon="5.14241">
        <ele>222</ele>
        <time>2023-01-30T12:55:31.000Z</time>
      </trkpt>
      <trkpt lat="48.79511" lon="5.1424">
        <ele>222</ele>
        <time>2023-01-30T12:55:32.000Z</time>
      </trkpt>
      <trkpt lat="48.7951" lon="5.14239">
        <ele>222</ele>
        <time>2023-01-30T12:55:33.000Z</time>
      </trkpt>
      <trkpt lat="48.7951" lon="5.14238">
        <ele>222</ele>
        <time>2023-01-30T12:55:34.000Z</time>
      </trkpt>
      <trkpt lat="48.79509" lon="5.14236">
        <ele>222</ele>
        <time>2023-01-30T12:55:35.000Z</time>
      </trkpt>
      <trkpt lat="48.79507" lon="5.14234">
        <ele>222</ele>
        <time>2023-01-30T12:55:36.000Z</time>
      </trkpt>
      <trkpt lat="48.79506" lon="5.14231">
        <ele>221</ele>
        <time>2023-01-30T12:55:37.000Z</time>
      </trkpt>
      <trkpt lat="48.79505" lon="5.14228">
        <ele>221</ele>
        <time>2023-01-30T12:55:38.000Z</time>
      </trkpt>
      <trkpt lat="48.79504" lon="5.14225">
        <ele>221</ele>
        <time>2023-01-30T12:55:39.000Z</time>
      </trkpt>
      <trkpt lat="48.79502" lon="5.14222">
        <ele>221</ele>
        <time>2023-01-30T12:55:40.000Z</time>
      </trkpt>
      <trkpt lat="48.79501" lon="5.14219">
        <ele>221</ele>
        <time>2023-01-30T12:55:41.000Z</time>
      </trkpt>
      <trkpt lat="48.795" lon="5.14216">
        <ele>221</ele>
        <time>2023-01-30T12:55:42.000Z</time>
      </trkpt>
      <trkpt lat="48.79499" lon="5.14212">
        <ele>221</ele>
        <time>2023-01-30T12:55:43.000Z</time>
      </trkpt>
      <trkpt lat="48.79498" lon="5.1421">
        <ele>221</ele>
        <time>2023-01-30T12:55:44.000Z</time>
      </trkpt>
      <trkpt lat="48.79498" lon="5.14207">
        <ele>221</ele>
        <time>2023-01-30T12:55:45.000Z</time>
      </trkpt>
      <trkpt lat="48.79497" lon="5.14204">
        <ele>221</ele>
        <time>2023-01-30T12:55:46.000Z</time>
      </trkpt>
      <trkpt lat="48.79497" lon="5.14202">
        <ele>221</ele>
        <time>2023-01-30T12:55:47.000Z</time>
      </trkpt>
      <trkpt lat="48.79497" lon="5.142">
        <ele>221</ele>
        <time>2023-01-30T12:55:48.000Z</time>
      </trkpt>
      <trkpt lat="48.79496" lon="5.14197">
        <ele>221</ele>
        <time>2023-01-30T12:55:49.000Z</time>
      </trkpt>
      <trkpt lat="48.79496" lon="5.14195">
        <ele>221</ele>
        <time>2023-01-30T12:55:50.000Z</time>
      </trkpt>
      <trkpt lat="48.79496" lon="5.14193">
        <ele>221</ele>
        <time>2023-01-30T12:55:51.000Z</time>
      </trkpt>
      <trkpt lat="48.79495" lon="5.14192">
        <ele>221</ele>
        <time>2023-01-30T12:55:52.000Z</time>
      </trkpt>
      <trkpt lat="48.79495" lon="5.1419">
        <ele>220</ele>
        <time>2023-01-30T12:55:53.000Z</time>
      </trkpt>
      <trkpt lat="48.79494" lon="5.14188">
        <ele>220</ele>
        <time>2023-01-30T12:55:54.000Z</time>
      </trkpt>
      <trkpt lat="48.79494" lon="5.14187">
        <ele>220</ele>
        <time>2023-01-30T12:55:55.000Z</time>
      </trkpt>
      <trkpt lat="48.79494" lon="5.14186">
        <ele>220</ele>
        <time>2023-01-30T12:55:56.000Z</time>
      </trkpt>
      <trkpt lat="48.79494" lon="5.14185">
        <ele>220</ele>
        <time>2023-01-30T12:55:57.000Z</time>
      </trkpt>
      <trkpt lat="48.79494" lon="5.14184">
        <ele>220</ele>
        <time>2023-01-30T12:55:58.000Z</time>
      </trkpt>
      <trkpt lat="48.79494" lon="5.14183">
        <ele>220</ele>
        <time>2023-01-30T12:55:59.000Z</time>
      </trkpt>
      <trkpt lat="48.79493" lon="5.14182">
        <ele>220</ele>
        <time>2023-01-30T12:56:00.000Z</time>
      </trkpt>
      <trkpt lat="48.79493" lon="5.14181">
        <ele>220</ele>
        <time>2023-01-30T12:56:01.000Z</time>
      </trkpt>
      <trkpt lat="48.79493" lon="5.1418">
        <ele>220</ele>
        <time>2023-01-30T12:56:02.000Z</time>
      </trkpt>
      <trkpt lat="48.79493" lon="5.14179">
        <ele>220</ele>
        <time>2023-01-30T12:56:03.000Z</time>
      </trkpt>
      <trkpt lat="48.79493" lon="5.14177">
        <ele>220</ele>
        <time>2023-01-30T12:56:04.000Z</time>
      </trkpt>
      <trkpt lat="48.79493" lon="5.14176">
        <ele>220</ele>
        <time>2023-01-30T12:56:05.000Z</time>
      </trkpt>
      <trkpt lat="48.79493" lon="5.14174">
        <ele>220</ele>
        <time>2023-01-30T12:56:06.000Z</time>
      </trkpt>
      <trkpt lat="48.79492" lon="5.14172">
        <ele>220</ele>
        <time>2023-01-30T12:56:07.000Z</time>
      </trkpt>
      <trkpt lat="48.79492" lon="5.1417">
        <ele>220</ele>
        <time>2023-01-30T12:56:08.000Z</time>
      </trkpt>
      <trkpt lat="48.79491" lon="5.14168">
        <ele>220</ele>
        <time>2023-01-30T12:56:09.000Z</time>
      </trkpt>
      <trkpt lat="48.79491" lon="5.14166">
        <ele>220</ele>
        <time>2023-01-30T12:56:10.000Z</time>
      </trkpt>
      <trkpt lat="48.79491" lon="5.14165">
        <ele>220</ele>
        <time>2023-01-30T12:56:11.000Z</time>
      </trkpt>
      <trkpt lat="48.7949" lon="5.14164">
        <ele>220</ele>
        <time>2023-01-30T12:56:12.000Z</time>
      </trkpt>
      <trkpt lat="48.7949" lon="5.14163">
        <ele>220</ele>
        <time>2023-01-30T12:56:13.000Z</time>
      </trkpt>
      <trkpt lat="48.79489" lon="5.14162">
        <ele>219.7</ele>
        <time>2023-01-30T12:56:14.000Z</time>
      </trkpt>
      <trkpt lat="48.79489" lon="5.14161">
        <ele>219.3</ele>
        <time>2023-01-30T12:56:15.000Z</time>
      </trkpt>
      <trkpt lat="48.79488" lon="5.1416">
        <ele>219</ele>
        <time>2023-01-30T12:56:16.000Z</time>
      </trkpt>
      <trkpt lat="48.79488" lon="5.14159">
        <ele>219</ele>
        <time>2023-01-30T12:56:17.000Z</time>
      </trkpt>
      <trkpt lat="48.79487" lon="5.14158">
        <ele>219</ele>
        <time>2023-01-30T12:56:18.000Z</time>
      </trkpt>
      <trkpt lat="48.79487" lon="5.14157">
        <ele>219</ele>
        <time>2023-01-30T12:56:19.000Z</time>
      </trkpt>
      <trkpt lat="48.79486" lon="5.14156">
        <ele>219</ele>
        <time>2023-01-30T12:56:20.000Z</time>
      </trkpt>
      <trkpt lat="48.79486" lon="5.14155">
        <ele>219</ele>
        <time>2023-01-30T12:56:21.000Z</time>
      </trkpt>
      <trkpt lat="48.79485" lon="5.14154">
        <ele>219</ele>
        <time>2023-01-30T12:56:22.000Z</time>
      </trkpt>
      <trkpt lat="48.79485" lon="5.14152">
        <ele>219</ele>
        <time>2023-01-30T12:56:23.000Z</time>
      </trkpt>
      <trkpt lat="48.79484" lon="5.1415">
        <ele>219</ele>
        <time>2023-01-30T12:56:24.000Z</time>
      </trkpt>
      <trkpt lat="48.79483" lon="5.14148">
        <ele>218.5</ele>
        <time>2023-01-30T12:56:25.000Z</time>
      </trkpt>
      <trkpt lat="48.79482" lon="5.14146">
        <ele>218</ele>
        <time>2023-01-30T12:56:26.000Z</time>
      </trkpt>
      <trkpt lat="48.79481" lon="5.14144">
        <ele>218</ele>
        <time>2023-01-30T12:56:27.000Z</time>
      </trkpt>
      <trkpt lat="48.7948" lon="5.14142">
        <ele>218</ele>
        <time>2023-01-30T12:56:28.000Z</time>
      </trkpt>
      <trkpt lat="48.79479" lon="5.14141">
        <ele>218</ele>
        <time>2023-01-30T12:56:29.000Z</time>
      </trkpt>
      <trkpt lat="48.79479" lon="5.14139">
        <ele>218</ele>
        <time>2023-01-30T12:56:30.000Z</time>
      </trkpt>
      <trkpt lat="48.79478" lon="5.14137">
        <ele>218</ele>
        <time>2023-01-30T12:56:31.000Z</time>
      </trkpt>
      <trkpt lat="48.79477" lon="5.14135">
        <ele>218</ele>
        <time>2023-01-30T12:56:32.000Z</time>
      </trkpt>
      <trkpt lat="48.79476" lon="5.14132">
        <ele>218</ele>
        <time>2023-01-30T12:56:33.000Z</time>
      </trkpt>
      <trkpt lat="48.79476" lon="5.14131">
        <ele>218</ele>
        <time>2023-01-30T12:56:34.000Z</time>
      </trkpt>
      <trkpt lat="48.79475" lon="5.1413">
        <ele>218</ele>
        <time>2023-01-30T12:56:35.000Z</time>
      </trkpt>
      <trkpt lat="48.79474" lon="5.14128">
        <ele>218</ele>
        <time>2023-01-30T12:56:36.000Z</time>
      </trkpt>
      <trkpt lat="48.79474" lon="5.14127">
        <ele>218</ele>
        <time>2023-01-30T12:56:37.000Z</time>
      </trkpt>
      <trkpt lat="48.79474" lon="5.14125">
        <ele>218</ele>
        <time>2023-01-30T12:56:38.000Z</time>
      </trkpt>
      <trkpt lat="48.79474" lon="5.14123">
        <ele>218</ele>
        <time>2023-01-30T12:56:39.000Z</time>
      </trkpt>
      <trkpt lat="48.79474" lon="5.14122">
        <ele>217.7</ele>
        <time>2023-01-30T12:56:40.000Z</time>
      </trkpt>
      <trkpt lat="48.79474" lon="5.1412">
        <ele>217.3</ele>
        <time>2023-01-30T12:56:41.000Z</time>
      </trkpt>
      <trkpt lat="48.79474" lon="5.14118">
        <ele>217</ele>
        <time>2023-01-30T12:56:42.000Z</time>
      </trkpt>
      <trkpt lat="48.79474" lon="5.14116">
        <ele>217</ele>
        <time>2023-01-30T12:56:43.000Z</time>
      </trkpt>
      <trkpt lat="48.79473" lon="5.14114">
        <ele>217</ele>
        <time>2023-01-30T12:56:44.000Z</time>
      </trkpt>
      <trkpt lat="48.79473" lon="5.14111">
        <ele>217</ele>
        <time>2023-01-30T12:56:45.000Z</time>
      </trkpt>
      <trkpt lat="48.79473" lon="5.14109">
        <ele>217</ele>
        <time>2023-01-30T12:56:46.000Z</time>
      </trkpt>
      <trkpt lat="48.79473" lon="5.14107">
        <ele>217</ele>
        <time>2023-01-30T12:56:47.000Z</time>
      </trkpt>
      <trkpt lat="48.79473" lon="5.14105">
        <ele>217</ele>
        <time>2023-01-30T12:56:48.000Z</time>
      </trkpt>
      <trkpt lat="48.79473" lon="5.14102">
        <ele>217</ele>
        <time>2023-01-30T12:56:49.000Z</time>
      </trkpt>
      <trkpt lat="48.79473" lon="5.141">
        <ele>217</ele>
        <time>2023-01-30T12:56:50.000Z</time>
      </trkpt>
      <trkpt lat="48.79474" lon="5.14097">
        <ele>217</ele>
        <time>2023-01-30T12:56:51.000Z</time>
      </trkpt>
      <trkpt lat="48.79474" lon="5.14095">
        <ele>217</ele>
        <time>2023-01-30T12:56:52.000Z</time>
      </trkpt>
      <trkpt lat="48.79474" lon="5.14093">
        <ele>217</ele>
        <time>2023-01-30T12:56:53.000Z</time>
      </trkpt>
      <trkpt lat="48.79474" lon="5.1409">
        <ele>217</ele>
        <time>2023-01-30T12:56:54.000Z</time>
      </trkpt>
      <trkpt lat="48.79474" lon="5.14088">
        <ele>217</ele>
        <time>2023-01-30T12:56:55.000Z</time>
      </trkpt>
      <trkpt lat="48.79474" lon="5.14086">
        <ele>217</ele>
        <time>2023-01-30T12:56:56.000Z</time>
      </trkpt>
      <trkpt lat="48.79475" lon="5.14083">
        <ele>217</ele>
        <time>2023-01-30T12:56:57.000Z</time>
      </trkpt>
      <trkpt lat="48.79475" lon="5.14081">
        <ele>217</ele>
        <time>2023-01-30T12:56:58.000Z</time>
      </trkpt>
      <trkpt lat="48.79475" lon="5.14079">
        <ele>217</ele>
        <time>2023-01-30T12:56:59.000Z</time>
      </trkpt>
      <trkpt lat="48.79476" lon="5.14077">
        <ele>217</ele>
        <time>2023-01-30T12:57:00.000Z</time>
      </trkpt>
      <trkpt lat="48.79476" lon="5.14075">
        <ele>217</ele>
        <time>2023-01-30T12:57:01.000Z</time>
      </trkpt>
      <trkpt lat="48.79477" lon="5.14073">
        <ele>217</ele>
        <time>2023-01-30T12:57:02.000Z</time>
      </trkpt>
      <trkpt lat="48.79478" lon="5.14071">
        <ele>217</ele>
        <time>2023-01-30T12:57:03.000Z</time>
      </trkpt>
      <trkpt lat="48.79478" lon="5.1407">
        <ele>217</ele>
        <time>2023-01-30T12:57:04.000Z</time>
      </trkpt>
      <trkpt lat="48.79479" lon="5.14068">
        <ele>217</ele>
        <time>2023-01-30T12:57:05.000Z</time>
      </trkpt>
      <trkpt lat="48.7948" lon="5.14066">
        <ele>217</ele>
        <time>2023-01-30T12:57:06.000Z</time>
      </trkpt>
      <trkpt lat="48.79481" lon="5.14064">
        <ele>217</ele>
        <time>2023-01-30T12:57:07.000Z</time>
      </trkpt>
      <trkpt lat="48.79482" lon="5.14062">
        <ele>217</ele>
        <time>2023-01-30T12:57:08.000Z</time>
      </trkpt>
      <trkpt lat="48.79483" lon="5.1406">
        <ele>217</ele>
        <time>2023-01-30T12:57:09.000Z</time>
      </trkpt>
      <trkpt lat="48.79483" lon="5.14058">
        <ele>217</ele>
        <time>2023-01-30T12:57:10.000Z</time>
      </trkpt>
      <trkpt lat="48.79484" lon="5.14057">
        <ele>217</ele>
        <time>2023-01-30T12:57:11.000Z</time>
      </trkpt>
      <trkpt lat="48.79485" lon="5.14056">
        <ele>217.3</ele>
        <time>2023-01-30T12:57:12.000Z</time>
      </trkpt>
      <trkpt lat="48.79485" lon="5.14056">
        <ele>217.7</ele>
        <time>2023-01-30T12:57:13.000Z</time>
      </trkpt>
      <trkpt lat="48.79486" lon="5.14055">
        <ele>218</ele>
        <time>2023-01-30T12:57:14.000Z</time>
      </trkpt>
      <trkpt lat="48.79486" lon="5.14054">
        <ele>217</ele>
        <time>2023-01-30T12:57:15.000Z</time>
      </trkpt>
      <trkpt lat="48.79487" lon="5.14054">
        <ele>217</ele>
        <time>2023-01-30T12:57:16.000Z</time>
      </trkpt>
      <trkpt lat="48.79487" lon="5.14052">
        <ele>217</ele>
        <time>2023-01-30T12:57:17.000Z</time>
      </trkpt>
      <trkpt lat="48.79487" lon="5.14051">
        <ele>217</ele>
        <time>2023-01-30T12:57:18.000Z</time>
      </trkpt>
      <trkpt lat="48.79487" lon="5.14049">
        <ele>217</ele>
        <time>2023-01-30T12:57:19.000Z</time>
      </trkpt>
      <trkpt lat="48.79488" lon="5.14047">
        <ele>217</ele>
        <time>2023-01-30T12:57:20.000Z</time>
      </trkpt>
      <trkpt lat="48.79488" lon="5.14045">
        <ele>217</ele>
        <time>2023-01-30T12:57:21.000Z</time>
      </trkpt>
      <trkpt lat="48.79488" lon="5.14043">
        <ele>217</ele>
        <time>2023-01-30T12:57:22.000Z</time>
      </trkpt>
      <trkpt lat="48.79489" lon="5.14041">
        <ele>217</ele>
        <time>2023-01-30T12:57:23.000Z</time>
      </trkpt>
      <trkpt lat="48.79489" lon="5.14039">
        <ele>217</ele>
        <time>2023-01-30T12:57:24.000Z</time>
      </trkpt>
      <trkpt lat="48.7949" lon="5.14037">
        <ele>217</ele>
        <time>2023-01-30T12:57:25.000Z</time>
      </trkpt>
      <trkpt lat="48.79491" lon="5.14036">
        <ele>217</ele>
        <time>2023-01-30T12:57:26.000Z</time>
      </trkpt>
      <trkpt lat="48.79492" lon="5.14035">
        <ele>217</ele>
        <time>2023-01-30T12:57:27.000Z</time>
      </trkpt>
      <trkpt lat="48.79493" lon="5.14035">
        <ele>217.3</ele>
        <time>2023-01-30T12:57:28.000Z</time>
      </trkpt>
      <trkpt lat="48.79494" lon="5.14034">
        <ele>217.7</ele>
        <time>2023-01-30T12:57:29.000Z</time>
      </trkpt>
      <trkpt lat="48.79495" lon="5.14033">
        <ele>218</ele>
        <time>2023-01-30T12:57:30.000Z</time>
      </trkpt>
      <trkpt lat="48.79496" lon="5.14032">
        <ele>218</ele>
        <time>2023-01-30T12:57:31.000Z</time>
      </trkpt>
      <trkpt lat="48.79497" lon="5.14031">
        <ele>218</ele>
        <time>2023-01-30T12:57:32.000Z</time>
      </trkpt>
      <trkpt lat="48.79498" lon="5.1403">
        <ele>218</ele>
        <time>2023-01-30T12:57:33.000Z</time>
      </trkpt>
      <trkpt lat="48.79499" lon="5.1403">
        <ele>218</ele>
        <time>2023-01-30T12:57:34.000Z</time>
      </trkpt>
      <trkpt lat="48.795" lon="5.1403">
        <ele>218</ele>
        <time>2023-01-30T12:57:35.000Z</time>
      </trkpt>
      <trkpt lat="48.79501" lon="5.1403">
        <ele>218</ele>
        <time>2023-01-30T12:57:36.000Z</time>
      </trkpt>
      <trkpt lat="48.79502" lon="5.1403">
        <ele>218</ele>
        <time>2023-01-30T12:57:37.000Z</time>
      </trkpt>
      <trkpt lat="48.79504" lon="5.14031">
        <ele>218.3</ele>
        <time>2023-01-30T12:57:38.000Z</time>
      </trkpt>
      <trkpt lat="48.79505" lon="5.14032">
        <ele>218.7</ele>
        <time>2023-01-30T12:57:39.000Z</time>
      </trkpt>
      <trkpt lat="48.79505" lon="5.14033">
        <ele>219</ele>
        <time>2023-01-30T12:57:40.000Z</time>
      </trkpt>
      <trkpt lat="48.79506" lon="5.14035">
        <ele>219</ele>
        <time>2023-01-30T12:57:41.000Z</time>
      </trkpt>
      <trkpt lat="48.79506" lon="5.14036">
        <ele>219</ele>
        <time>2023-01-30T12:57:42.000Z</time>
      </trkpt>
      <trkpt lat="48.79506" lon="5.14036">
        <ele>219</ele>
        <time>2023-01-30T12:57:43.000Z</time>
      </trkpt>
      <trkpt lat="48.79507" lon="5.14036">
        <ele>219</ele>
        <time>2023-01-30T12:57:44.000Z</time>
      </trkpt>
      <trkpt lat="48.79508" lon="5.14035">
        <ele>219</ele>
        <time>2023-01-30T12:57:45.000Z</time>
      </trkpt>
      <trkpt lat="48.79509" lon="5.14035">
        <ele>219</ele>
        <time>2023-01-30T12:57:46.000Z</time>
      </trkpt>
      <trkpt lat="48.7951" lon="5.14035">
        <ele>219</ele>
        <time>2023-01-30T12:57:47.000Z</time>
      </trkpt>
      <trkpt lat="48.7951" lon="5.14034">
        <ele>219</ele>
        <time>2023-01-30T12:57:48.000Z</time>
      </trkpt>
      <trkpt lat="48.79511" lon="5.14034">
        <ele>219</ele>
        <time>2023-01-30T12:57:49.000Z</time>
      </trkpt>
      <trkpt lat="48.79512" lon="5.14033">
        <ele>219</ele>
        <time>2023-01-30T12:57:50.000Z</time>
      </trkpt>
      <trkpt lat="48.79513" lon="5.14033">
        <ele>219</ele>
        <time>2023-01-30T12:57:51.000Z</time>
      </trkpt>
      <trkpt lat="48.79515" lon="5.14032">
        <ele>219</ele>
        <time>2023-01-30T12:57:52.000Z</time>
      </trkpt>
      <trkpt lat="48.79516" lon="5.14032">
        <ele>220</ele>
        <time>2023-01-30T12:57:53.000Z</time>
      </trkpt>
      <trkpt lat="48.79517" lon="5.14031">
        <ele>220</ele>
        <time>2023-01-30T12:57:54.000Z</time>
      </trkpt>
      <trkpt lat="48.79517" lon="5.14031">
        <ele>220</ele>
        <time>2023-01-30T12:57:55.000Z</time>
      </trkpt>
      <trkpt lat="48.79518" lon="5.1403">
        <ele>220</ele>
        <time>2023-01-30T12:57:56.000Z</time>
      </trkpt>
      <trkpt lat="48.79519" lon="5.14029">
        <ele>220</ele>
        <time>2023-01-30T12:57:57.000Z</time>
      </trkpt>
      <trkpt lat="48.79519" lon="5.14028">
        <ele>220</ele>
        <time>2023-01-30T12:57:58.000Z</time>
      </trkpt>
      <trkpt lat="48.7952" lon="5.14026">
        <ele>220</ele>
        <time>2023-01-30T12:57:59.000Z</time>
      </trkpt>
      <trkpt lat="48.7952" lon="5.14024">
        <ele>220</ele>
        <time>2023-01-30T12:58:00.000Z</time>
      </trkpt>
      <trkpt lat="48.7952" lon="5.14022">
        <ele>220</ele>
        <time>2023-01-30T12:58:01.000Z</time>
      </trkpt>
      <trkpt lat="48.7952" lon="5.1402">
        <ele>220</ele>
        <time>2023-01-30T12:58:02.000Z</time>
      </trkpt>
      <trkpt lat="48.7952" lon="5.14018">
        <ele>220</ele>
        <time>2023-01-30T12:58:03.000Z</time>
      </trkpt>
      <trkpt lat="48.7952" lon="5.14016">
        <ele>220</ele>
        <time>2023-01-30T12:58:04.000Z</time>
      </trkpt>
      <trkpt lat="48.7952" lon="5.14014">
        <ele>220</ele>
        <time>2023-01-30T12:58:05.000Z</time>
      </trkpt>
      <trkpt lat="48.7952" lon="5.14012">
        <ele>219.7</ele>
        <time>2023-01-30T12:58:06.000Z</time>
      </trkpt>
      <trkpt lat="48.79519" lon="5.14009">
        <ele>219.3</ele>
        <time>2023-01-30T12:58:07.000Z</time>
      </trkpt>
      <trkpt lat="48.79519" lon="5.14008">
        <ele>219</ele>
        <time>2023-01-30T12:58:08.000Z</time>
      </trkpt>
      <trkpt lat="48.79519" lon="5.14006">
        <ele>219</ele>
        <time>2023-01-30T12:58:09.000Z</time>
      </trkpt>
      <trkpt lat="48.79519" lon="5.14005">
        <ele>219</ele>
        <time>2023-01-30T12:58:10.000Z</time>
      </trkpt>
      <trkpt lat="48.79519" lon="5.14004">
        <ele>219</ele>
        <time>2023-01-30T12:58:11.000Z</time>
      </trkpt>
      <trkpt lat="48.79519" lon="5.14003">
        <ele>218.5</ele>
        <time>2023-01-30T12:58:12.000Z</time>
      </trkpt>
      <trkpt lat="48.79519" lon="5.14002">
        <ele>218</ele>
        <time>2023-01-30T12:58:13.000Z</time>
      </trkpt>
      <trkpt lat="48.79519" lon="5.14002">
        <ele>218</ele>
        <time>2023-01-30T12:58:14.000Z</time>
      </trkpt>
      <trkpt lat="48.79519" lon="5.14001">
        <ele>218</ele>
        <time>2023-01-30T12:58:15.000Z</time>
      </trkpt>
      <trkpt lat="48.79519" lon="5.14">
        <ele>218</ele>
        <time>2023-01-30T12:58:16.000Z</time>
      </trkpt>
      <trkpt lat="48.79519" lon="5.13998">
        <ele>217.5</ele>
        <time>2023-01-30T12:58:17.000Z</time>
      </trkpt>
      <trkpt lat="48.79519" lon="5.13997">
        <ele>217</ele>
        <time>2023-01-30T12:58:18.000Z</time>
      </trkpt>
      <trkpt lat="48.79519" lon="5.13995">
        <ele>217</ele>
        <time>2023-01-30T12:58:19.000Z</time>
      </trkpt>
      <trkpt lat="48.79519" lon="5.13993">
        <ele>217</ele>
        <time>2023-01-30T12:58:20.000Z</time>
      </trkpt>
      <trkpt lat="48.7952" lon="5.13992">
        <ele>217</ele>
        <time>2023-01-30T12:58:21.000Z</time>
      </trkpt>
      <trkpt lat="48.7952" lon="5.13991">
        <ele>217</ele>
        <time>2023-01-30T12:58:22.000Z</time>
      </trkpt>
      <trkpt lat="48.79521" lon="5.13989">
        <ele>217</ele>
        <time>2023-01-30T12:58:23.000Z</time>
      </trkpt>
      <trkpt lat="48.79522" lon="5.13988">
        <ele>217</ele>
        <time>2023-01-30T12:58:24.000Z</time>
      </trkpt>
      <trkpt lat="48.79523" lon="5.13987">
        <ele>217</ele>
        <time>2023-01-30T12:58:25.000Z</time>
      </trkpt>
      <trkpt lat="48.79524" lon="5.13986">
        <ele>217</ele>
        <time>2023-01-30T12:58:26.000Z</time>
      </trkpt>
      <trkpt lat="48.79525" lon="5.13985">
        <ele>217</ele>
        <time>2023-01-30T12:58:27.000Z</time>
      </trkpt>
      <trkpt lat="48.79526" lon="5.13984">
        <ele>217</ele>
        <time>2023-01-30T12:58:28.000Z</time>
      </trkpt>
      <trkpt lat="48.79528" lon="5.13984">
        <ele>217</ele>
        <time>2023-01-30T12:58:29.000Z</time>
      </trkpt>
      <trkpt lat="48.7953" lon="5.13984">
        <ele>216.7</ele>
        <time>2023-01-30T12:58:30.000Z</time>
      </trkpt>
      <trkpt lat="48.79531" lon="5.13983">
        <ele>216.3</ele>
        <time>2023-01-30T12:58:31.000Z</time>
      </trkpt>
      <trkpt lat="48.79532" lon="5.13983">
        <ele>216</ele>
        <time>2023-01-30T12:58:32.000Z</time>
      </trkpt>
      <trkpt lat="48.79533" lon="5.13982">
        <ele>216</ele>
        <time>2023-01-30T12:58:33.000Z</time>
      </trkpt>
      <trkpt lat="48.79533" lon="5.13982">
        <ele>216</ele>
        <time>2023-01-30T12:58:34.000Z</time>
      </trkpt>
      <trkpt lat="48.79533" lon="5.13982">
        <ele>216</ele>
        <time>2023-01-30T12:58:35.000Z</time>
      </trkpt>
      <trkpt lat="48.79534" lon="5.13981">
        <ele>216</ele>
        <time>2023-01-30T12:58:36.000Z</time>
      </trkpt>
      <trkpt lat="48.79534" lon="5.1398">
        <ele>216</ele>
        <time>2023-01-30T12:58:37.000Z</time>
      </trkpt>
      <trkpt lat="48.79535" lon="5.1398">
        <ele>216</ele>
        <time>2023-01-30T12:58:38.000Z</time>
      </trkpt>
      <trkpt lat="48.79536" lon="5.13979">
        <ele>216</ele>
        <time>2023-01-30T12:58:39.000Z</time>
      </trkpt>
      <trkpt lat="48.79537" lon="5.13979">
        <ele>216</ele>
        <time>2023-01-30T12:58:40.000Z</time>
      </trkpt>
      <trkpt lat="48.79538" lon="5.1398">
        <ele>216</ele>
        <time>2023-01-30T12:58:41.000Z</time>
      </trkpt>
      <trkpt lat="48.79539" lon="5.1398">
        <ele>216</ele>
        <time>2023-01-30T12:58:42.000Z</time>
      </trkpt>
      <trkpt lat="48.7954" lon="5.1398">
        <ele>216</ele>
        <time>2023-01-30T12:58:43.000Z</time>
      </trkpt>
      <trkpt lat="48.7954" lon="5.1398">
        <ele>216</ele>
        <time>2023-01-30T12:58:44.000Z</time>
      </trkpt>
      <trkpt lat="48.79541" lon="5.1398">
        <ele>216</ele>
        <time>2023-01-30T12:58:45.000Z</time>
      </trkpt>
      <trkpt lat="48.79542" lon="5.1398">
        <ele>216</ele>
        <time>2023-01-30T12:58:46.000Z</time>
      </trkpt>
      <trkpt lat="48.79543" lon="5.1398">
        <ele>216</ele>
        <time>2023-01-30T12:58:47.000Z</time>
      </trkpt>
      <trkpt lat="48.79545" lon="5.13979">
        <ele>216</ele>
        <time>2023-01-30T12:58:48.000Z</time>
      </trkpt>
      <trkpt lat="48.79547" lon="5.13979">
        <ele>216</ele>
        <time>2023-01-30T12:58:49.000Z</time>
      </trkpt>
      <trkpt lat="48.79549" lon="5.13979">
        <ele>216</ele>
        <time>2023-01-30T12:58:50.000Z</time>
      </trkpt>
      <trkpt lat="48.79551" lon="5.13979">
        <ele>216</ele>
        <time>2023-01-30T12:58:51.000Z</time>
      </trkpt>
      <trkpt lat="48.79552" lon="5.13979">
        <ele>216</ele>
        <time>2023-01-30T12:58:52.000Z</time>
      </trkpt>
      <trkpt lat="48.79553" lon="5.13979">
        <ele>216</ele>
        <time>2023-01-30T12:58:53.000Z</time>
      </trkpt>
      <trkpt lat="48.79555" lon="5.1398">
        <ele>216</ele>
        <time>2023-01-30T12:58:54.000Z</time>
      </trkpt>
      <trkpt lat="48.79556" lon="5.1398">
        <ele>216</ele>
        <time>2023-01-30T12:58:55.000Z</time>
      </trkpt>
      <trkpt lat="48.79558" lon="5.1398">
        <ele>216</ele>
        <time>2023-01-30T12:58:56.000Z</time>
      </trkpt>
      <trkpt lat="48.79559" lon="5.13979">
        <ele>216</ele>
        <time>2023-01-30T12:58:57.000Z</time>
      </trkpt>
      <trkpt lat="48.79561" lon="5.13979">
        <ele>216</ele>
        <time>2023-01-30T12:58:58.000Z</time>
      </trkpt>
      <trkpt lat="48.79562" lon="5.13979">
        <ele>216</ele>
        <time>2023-01-30T12:58:59.000Z</time>
      </trkpt>
      <trkpt lat="48.79563" lon="5.13978">
        <ele>216</ele>
        <time>2023-01-30T12:59:00.000Z</time>
      </trkpt>
      <trkpt lat="48.79563" lon="5.13978">
        <ele>216</ele>
        <time>2023-01-30T12:59:01.000Z</time>
      </trkpt>
      <trkpt lat="48.79564" lon="5.13978">
        <ele>216</ele>
        <time>2023-01-30T12:59:02.000Z</time>
      </trkpt>
      <trkpt lat="48.79565" lon="5.13978">
        <ele>216</ele>
        <time>2023-01-30T12:59:03.000Z</time>
      </trkpt>
      <trkpt lat="48.79567" lon="5.13978">
        <ele>216</ele>
        <time>2023-01-30T12:59:04.000Z</time>
      </trkpt>
      <trkpt lat="48.79568" lon="5.13978">
        <ele>216</ele>
        <time>2023-01-30T12:59:05.000Z</time>
      </trkpt>
      <trkpt lat="48.79569" lon="5.13977">
        <ele>216</ele>
        <time>2023-01-30T12:59:06.000Z</time>
      </trkpt>
      <trkpt lat="48.7957" lon="5.13977">
        <ele>216</ele>
        <time>2023-01-30T12:59:07.000Z</time>
      </trkpt>
      <trkpt lat="48.79571" lon="5.13977">
        <ele>216</ele>
        <time>2023-01-30T12:59:08.000Z</time>
      </trkpt>
      <trkpt lat="48.79571" lon="5.13977">
        <ele>216</ele>
        <time>2023-01-30T12:59:09.000Z</time>
      </trkpt>
      <trkpt lat="48.79572" lon="5.13976">
        <ele>215.7</ele>
        <time>2023-01-30T12:59:10.000Z</time>
      </trkpt>
      <trkpt lat="48.79574" lon="5.13976">
        <ele>215.3</ele>
        <time>2023-01-30T12:59:11.000Z</time>
      </trkpt>
      <trkpt lat="48.79575" lon="5.13976">
        <ele>215</ele>
        <time>2023-01-30T12:59:12.000Z</time>
      </trkpt>
      <trkpt lat="48.79576" lon="5.13975">
        <ele>215</ele>
        <time>2023-01-30T12:59:13.000Z</time>
      </trkpt>
      <trkpt lat="48.79577" lon="5.13975">
        <ele>215</ele>
        <time>2023-01-30T12:59:14.000Z</time>
      </trkpt>
      <trkpt lat="48.79577" lon="5.13974">
        <ele>215</ele>
        <time>2023-01-30T12:59:15.000Z</time>
      </trkpt>
      <trkpt lat="48.79578" lon="5.13974">
        <ele>215</ele>
        <time>2023-01-30T12:59:16.000Z</time>
      </trkpt>
      <trkpt lat="48.79579" lon="5.13974">
        <ele>215</ele>
        <time>2023-01-30T12:59:17.000Z</time>
      </trkpt>
      <trkpt lat="48.7958" lon="5.13973">
        <ele>215</ele>
        <time>2023-01-30T12:59:18.000Z</time>
      </trkpt>
      <trkpt lat="48.79581" lon="5.13973">
        <ele>215</ele>
        <time>2023-01-30T12:59:19.000Z</time>
      </trkpt>
      <trkpt lat="48.79581" lon="5.13973">
        <ele>215</ele>
        <time>2023-01-30T12:59:20.000Z</time>
      </trkpt>
      <trkpt lat="48.79582" lon="5.13973">
        <ele>215</ele>
        <time>2023-01-30T12:59:21.000Z</time>
      </trkpt>
      <trkpt lat="48.79584" lon="5.13973">
        <ele>215</ele>
        <time>2023-01-30T12:59:22.000Z</time>
      </trkpt>
      <trkpt lat="48.79587" lon="5.13974">
        <ele>215</ele>
        <time>2023-01-30T12:59:23.000Z</time>
      </trkpt>
      <trkpt lat="48.79588" lon="5.13974">
        <ele>215</ele>
        <time>2023-01-30T12:59:24.000Z</time>
      </trkpt>
      <trkpt lat="48.79589" lon="5.13975">
        <ele>215</ele>
        <time>2023-01-30T12:59:25.000Z</time>
      </trkpt>
      <trkpt lat="48.79589" lon="5.13975">
        <ele>215</ele>
        <time>2023-01-30T12:59:26.000Z</time>
      </trkpt>
      <trkpt lat="48.79591" lon="5.13974">
        <ele>215</ele>
        <time>2023-01-30T12:59:27.000Z</time>
      </trkpt>
      <trkpt lat="48.79594" lon="5.13973">
        <ele>215</ele>
        <time>2023-01-30T12:59:28.000Z</time>
      </trkpt>
      <trkpt lat="48.79596" lon="5.13973">
        <ele>215</ele>
        <time>2023-01-30T12:59:29.000Z</time>
      </trkpt>
      <trkpt lat="48.79598" lon="5.13974">
        <ele>215</ele>
        <time>2023-01-30T12:59:30.000Z</time>
      </trkpt>
      <trkpt lat="48.796" lon="5.13976">
        <ele>215</ele>
        <time>2023-01-30T12:59:31.000Z</time>
      </trkpt>
      <trkpt lat="48.79602" lon="5.13977">
        <ele>214.5</ele>
        <time>2023-01-30T12:59:32.000Z</time>
      </trkpt>
      <trkpt lat="48.79605" lon="5.13978">
        <ele>214</ele>
        <time>2023-01-30T12:59:33.000Z</time>
      </trkpt>
      <trkpt lat="48.79609" lon="5.13979">
        <ele>214</ele>
        <time>2023-01-30T12:59:34.000Z</time>
      </trkpt>
      <trkpt lat="48.79613" lon="5.1398">
        <ele>214</ele>
        <time>2023-01-30T12:59:35.000Z</time>
      </trkpt>
      <trkpt lat="48.79616" lon="5.1398">
        <ele>214</ele>
        <time>2023-01-30T12:59:36.000Z</time>
      </trkpt>
      <trkpt lat="48.79618" lon="5.1398">
        <ele>214</ele>
        <time>2023-01-30T12:59:37.000Z</time>
      </trkpt>
      <trkpt lat="48.7962" lon="5.13981">
        <ele>214</ele>
        <time>2023-01-30T12:59:38.000Z</time>
      </trkpt>
      <trkpt lat="48.79621" lon="5.13981">
        <ele>214</ele>
        <time>2023-01-30T12:59:39.000Z</time>
      </trkpt>
      <trkpt lat="48.79622" lon="5.13981">
        <ele>214</ele>
        <time>2023-01-30T12:59:40.000Z</time>
      </trkpt>
      <trkpt lat="48.79623" lon="5.1398">
        <ele>214</ele>
        <time>2023-01-30T12:59:41.000Z</time>
      </trkpt>
      <trkpt lat="48.79625" lon="5.1398">
        <ele>213</ele>
        <time>2023-01-30T12:59:42.000Z</time>
      </trkpt>
      <trkpt lat="48.79626" lon="5.1398">
        <ele>213</ele>
        <time>2023-01-30T12:59:43.000Z</time>
      </trkpt>
      <trkpt lat="48.79627" lon="5.1398">
        <ele>213</ele>
        <time>2023-01-30T12:59:44.000Z</time>
      </trkpt>
      <trkpt lat="48.79628" lon="5.1398">
        <ele>213</ele>
        <time>2023-01-30T12:59:45.000Z</time>
      </trkpt>
      <trkpt lat="48.79629" lon="5.13979">
        <ele>213</ele>
        <time>2023-01-30T12:59:46.000Z</time>
      </trkpt>
      <trkpt lat="48.7963" lon="5.13979">
        <ele>213</ele>
        <time>2023-01-30T12:59:47.000Z</time>
      </trkpt>
      <trkpt lat="48.79631" lon="5.13978">
        <ele>213</ele>
        <time>2023-01-30T12:59:48.000Z</time>
      </trkpt>
      <trkpt lat="48.79632" lon="5.13978">
        <ele>213</ele>
        <time>2023-01-30T12:59:49.000Z</time>
      </trkpt>
      <trkpt lat="48.79632" lon="5.13977">
        <ele>213</ele>
        <time>2023-01-30T12:59:50.000Z</time>
      </trkpt>
      <trkpt lat="48.79633" lon="5.13977">
        <ele>212</ele>
        <time>2023-01-30T12:59:51.000Z</time>
      </trkpt>
      <trkpt lat="48.79633" lon="5.13976">
        <ele>212</ele>
        <time>2023-01-30T12:59:52.000Z</time>
      </trkpt>
      <trkpt lat="48.79634" lon="5.13975">
        <ele>212</ele>
        <time>2023-01-30T12:59:53.000Z</time>
      </trkpt>
      <trkpt lat="48.79634" lon="5.13975">
        <ele>212</ele>
        <time>2023-01-30T12:59:54.000Z</time>
      </trkpt>
      <trkpt lat="48.79634" lon="5.13974">
        <ele>212</ele>
        <time>2023-01-30T12:59:55.000Z</time>
      </trkpt>
      <trkpt lat="48.79635" lon="5.13973">
        <ele>212</ele>
        <time>2023-01-30T12:59:56.000Z</time>
      </trkpt>
      <trkpt lat="48.79635" lon="5.13973">
        <ele>211</ele>
        <time>2023-01-30T12:59:57.000Z</time>
      </trkpt>
      <trkpt lat="48.79634" lon="5.13972">
        <ele>211</ele>
        <time>2023-01-30T12:59:58.000Z</time>
      </trkpt>
      <trkpt lat="48.79634" lon="5.13971">
        <ele>211</ele>
        <time>2023-01-30T12:59:59.000Z</time>
      </trkpt>
      <trkpt lat="48.79634" lon="5.13971">
        <ele>211</ele>
        <time>2023-01-30T13:00:00.000Z</time>
      </trkpt>
      <trkpt lat="48.79633" lon="5.1397">
        <ele>211</ele>
        <time>2023-01-30T13:00:01.000Z</time>
      </trkpt>
      <trkpt lat="48.79633" lon="5.1397">
        <ele>211</ele>
        <time>2023-01-30T13:00:02.000Z</time>
      </trkpt>
      <trkpt lat="48.79632" lon="5.1397">
        <ele>210.5</ele>
        <time>2023-01-30T13:00:03.000Z</time>
      </trkpt>
      <trkpt lat="48.79631" lon="5.13969">
        <ele>210</ele>
        <time>2023-01-30T13:00:04.000Z</time>
      </trkpt>
      <trkpt lat="48.7963" lon="5.13969">
        <ele>210</ele>
        <time>2023-01-30T13:00:05.000Z</time>
      </trkpt>
      <trkpt lat="48.79629" lon="5.13969">
        <ele>210</ele>
        <time>2023-01-30T13:00:06.000Z</time>
      </trkpt>
      <trkpt lat="48.79628" lon="5.13968">
        <ele>210</ele>
        <time>2023-01-30T13:00:07.000Z</time>
      </trkpt>
      <trkpt lat="48.79626" lon="5.13968">
        <ele>210</ele>
        <time>2023-01-30T13:00:08.000Z</time>
      </trkpt>
      <trkpt lat="48.79625" lon="5.13967">
        <ele>210</ele>
        <time>2023-01-30T13:00:09.000Z</time>
      </trkpt>
      <trkpt lat="48.79624" lon="5.13967">
        <ele>209.5</ele>
        <time>2023-01-30T13:00:10.000Z</time>
      </trkpt>
      <trkpt lat="48.79623" lon="5.13966">
        <ele>209</ele>
        <time>2023-01-30T13:00:11.000Z</time>
      </trkpt>
      <trkpt lat="48.79623" lon="5.13965">
        <ele>209</ele>
        <time>2023-01-30T13:00:12.000Z</time>
      </trkpt>
      <trkpt lat="48.79622" lon="5.13964">
        <ele>209</ele>
        <time>2023-01-30T13:00:13.000Z</time>
      </trkpt>
      <trkpt lat="48.79622" lon="5.13964">
        <ele>209</ele>
        <time>2023-01-30T13:00:14.000Z</time>
      </trkpt>
      <trkpt lat="48.79622" lon="5.13963">
        <ele>209</ele>
        <time>2023-01-30T13:00:15.000Z</time>
      </trkpt>
      <trkpt lat="48.79622" lon="5.13963">
        <ele>209</ele>
        <time>2023-01-30T13:00:16.000Z</time>
      </trkpt>
      <trkpt lat="48.79621" lon="5.13962">
        <ele>209</ele>
        <time>2023-01-30T13:00:17.000Z</time>
      </trkpt>
      <trkpt lat="48.79621" lon="5.13962">
        <ele>209</ele>
        <time>2023-01-30T13:00:18.000Z</time>
      </trkpt>
      <trkpt lat="48.79621" lon="5.13961">
        <ele>209</ele>
        <time>2023-01-30T13:00:19.000Z</time>
      </trkpt>
      <trkpt lat="48.7962" lon="5.13961">
        <ele>209</ele>
        <time>2023-01-30T13:00:20.000Z</time>
      </trkpt>
      <trkpt lat="48.79619" lon="5.1396">
        <ele>209</ele>
        <time>2023-01-30T13:00:21.000Z</time>
      </trkpt>
      <trkpt lat="48.79618" lon="5.13959">
        <ele>209</ele>
        <time>2023-01-30T13:00:22.000Z</time>
      </trkpt>
      <trkpt lat="48.79617" lon="5.13959">
        <ele>209</ele>
        <time>2023-01-30T13:00:23.000Z</time>
      </trkpt>
      <trkpt lat="48.79615" lon="5.13958">
        <ele>209</ele>
        <time>2023-01-30T13:00:24.000Z</time>
      </trkpt>
      <trkpt lat="48.79614" lon="5.13958">
        <ele>209</ele>
        <time>2023-01-30T13:00:25.000Z</time>
      </trkpt>
      <trkpt lat="48.79613" lon="5.13958">
        <ele>208.7</ele>
        <time>2023-01-30T13:00:26.000Z</time>
      </trkpt>
      <trkpt lat="48.79612" lon="5.13958">
        <ele>208.3</ele>
        <time>2023-01-30T13:00:27.000Z</time>
      </trkpt>
      <trkpt lat="48.79611" lon="5.13958">
        <ele>208</ele>
        <time>2023-01-30T13:00:28.000Z</time>
      </trkpt>
      <trkpt lat="48.79611" lon="5.13958">
        <ele>208</ele>
        <time>2023-01-30T13:00:29.000Z</time>
      </trkpt>
      <trkpt lat="48.7961" lon="5.13957">
        <ele>208</ele>
        <time>2023-01-30T13:00:30.000Z</time>
      </trkpt>
      <trkpt lat="48.7961" lon="5.13956">
        <ele>208</ele>
        <time>2023-01-30T13:00:31.000Z</time>
      </trkpt>
      <trkpt lat="48.79609" lon="5.13956">
        <ele>207.7</ele>
        <time>2023-01-30T13:00:32.000Z</time>
      </trkpt>
      <trkpt lat="48.79608" lon="5.13955">
        <ele>207.3</ele>
        <time>2023-01-30T13:00:33.000Z</time>
      </trkpt>
      <trkpt lat="48.79607" lon="5.13954">
        <ele>207</ele>
        <time>2023-01-30T13:00:34.000Z</time>
      </trkpt>
      <trkpt lat="48.79606" lon="5.13953">
        <ele>207</ele>
        <time>2023-01-30T13:00:35.000Z</time>
      </trkpt>
      <trkpt lat="48.79605" lon="5.13952">
        <ele>207</ele>
        <time>2023-01-30T13:00:36.000Z</time>
      </trkpt>
      <trkpt lat="48.79603" lon="5.13951">
        <ele>207</ele>
        <time>2023-01-30T13:00:37.000Z</time>
      </trkpt>
      <trkpt lat="48.79601" lon="5.1395">
        <ele>206.7</ele>
        <time>2023-01-30T13:00:38.000Z</time>
      </trkpt>
      <trkpt lat="48.79599" lon="5.13949">
        <ele>206.3</ele>
        <time>2023-01-30T13:00:39.000Z</time>
      </trkpt>
      <trkpt lat="48.79598" lon="5.13947">
        <ele>206</ele>
        <time>2023-01-30T13:00:40.000Z</time>
      </trkpt>
      <trkpt lat="48.79596" lon="5.13946">
        <ele>206</ele>
        <time>2023-01-30T13:00:41.000Z</time>
      </trkpt>
      <trkpt lat="48.79595" lon="5.13945">
        <ele>206</ele>
        <time>2023-01-30T13:00:42.000Z</time>
      </trkpt>
      <trkpt lat="48.79594" lon="5.13944">
        <ele>206</ele>
        <time>2023-01-30T13:00:43.000Z</time>
      </trkpt>
      <trkpt lat="48.79593" lon="5.13943">
        <ele>206</ele>
        <time>2023-01-30T13:00:44.000Z</time>
      </trkpt>
      <trkpt lat="48.79592" lon="5.13942">
        <ele>205.5</ele>
        <time>2023-01-30T13:00:45.000Z</time>
      </trkpt>
      <trkpt lat="48.79591" lon="5.13941">
        <ele>205</ele>
        <time>2023-01-30T13:00:46.000Z</time>
      </trkpt>
      <trkpt lat="48.7959" lon="5.1394">
        <ele>205</ele>
        <time>2023-01-30T13:00:47.000Z</time>
      </trkpt>
      <trkpt lat="48.79588" lon="5.1394">
        <ele>204.5</ele>
        <time>2023-01-30T13:00:48.000Z</time>
      </trkpt>
      <trkpt lat="48.79586" lon="5.13939">
        <ele>204</ele>
        <time>2023-01-30T13:00:49.000Z</time>
      </trkpt>
      <trkpt lat="48.79585" lon="5.13938">
        <ele>204</ele>
        <time>2023-01-30T13:00:50.000Z</time>
      </trkpt>
      <trkpt lat="48.79583" lon="5.13938">
        <ele>204</ele>
        <time>2023-01-30T13:00:51.000Z</time>
      </trkpt>
      <trkpt lat="48.79581" lon="5.13937">
        <ele>204</ele>
        <time>2023-01-30T13:00:52.000Z</time>
      </trkpt>
      <trkpt lat="48.7958" lon="5.13937">
        <ele>203</ele>
        <time>2023-01-30T13:00:53.000Z</time>
      </trkpt>
      <trkpt lat="48.79578" lon="5.13937">
        <ele>203</ele>
        <time>2023-01-30T13:00:54.000Z</time>
      </trkpt>
      <trkpt lat="48.79577" lon="5.13936">
        <ele>203</ele>
        <time>2023-01-30T13:00:55.000Z</time>
      </trkpt>
      <trkpt lat="48.79575" lon="5.13936">
        <ele>202.7</ele>
        <time>2023-01-30T13:00:56.000Z</time>
      </trkpt>
      <trkpt lat="48.79574" lon="5.13935">
        <ele>202.3</ele>
        <time>2023-01-30T13:00:57.000Z</time>
      </trkpt>
      <trkpt lat="48.79572" lon="5.13934">
        <ele>202</ele>
        <time>2023-01-30T13:00:58.000Z</time>
      </trkpt>
      <trkpt lat="48.79571" lon="5.13933">
        <ele>202</ele>
        <time>2023-01-30T13:00:59.000Z</time>
      </trkpt>
      <trkpt lat="48.79568" lon="5.13931">
        <ele>201.5</ele>
        <time>2023-01-30T13:01:00.000Z</time>
      </trkpt>
      <trkpt lat="48.79566" lon="5.13929">
        <ele>201</ele>
        <time>2023-01-30T13:01:01.000Z</time>
      </trkpt>
      <trkpt lat="48.79564" lon="5.13927">
        <ele>201</ele>
        <time>2023-01-30T13:01:02.000Z</time>
      </trkpt>
      <trkpt lat="48.79562" lon="5.13925">
        <ele>201</ele>
        <time>2023-01-30T13:01:03.000Z</time>
      </trkpt>
      <trkpt lat="48.7956" lon="5.13924">
        <ele>200.7</ele>
        <time>2023-01-30T13:01:04.000Z</time>
      </trkpt>
      <trkpt lat="48.79558" lon="5.13923">
        <ele>200.3</ele>
        <time>2023-01-30T13:01:05.000Z</time>
      </trkpt>
      <trkpt lat="48.79557" lon="5.13923">
        <ele>200</ele>
        <time>2023-01-30T13:01:06.000Z</time>
      </trkpt>
      <trkpt lat="48.79556" lon="5.13922">
        <ele>200</ele>
        <time>2023-01-30T13:01:07.000Z</time>
      </trkpt>
      <trkpt lat="48.79556" lon="5.13922">
        <ele>199.5</ele>
        <time>2023-01-30T13:01:08.000Z</time>
      </trkpt>
      <trkpt lat="48.79555" lon="5.13921">
        <ele>199</ele>
        <time>2023-01-30T13:01:09.000Z</time>
      </trkpt>
      <trkpt lat="48.79554" lon="5.13921">
        <ele>199</ele>
        <time>2023-01-30T13:01:10.000Z</time>
      </trkpt>
      <trkpt lat="48.79552" lon="5.13919">
        <ele>199</ele>
        <time>2023-01-30T13:01:11.000Z</time>
      </trkpt>
      <trkpt lat="48.7955" lon="5.13918">
        <ele>198.7</ele>
        <time>2023-01-30T13:01:12.000Z</time>
      </trkpt>
      <trkpt lat="48.79548" lon="5.13916">
        <ele>198.3</ele>
        <time>2023-01-30T13:01:13.000Z</time>
      </trkpt>
      <trkpt lat="48.79546" lon="5.13915">
        <ele>198</ele>
        <time>2023-01-30T13:01:14.000Z</time>
      </trkpt>
      <trkpt lat="48.79544" lon="5.13913">
        <ele>198</ele>
        <time>2023-01-30T13:01:15.000Z</time>
      </trkpt>
      <trkpt lat="48.79542" lon="5.13912">
        <ele>198</ele>
        <time>2023-01-30T13:01:16.000Z</time>
      </trkpt>
      <trkpt lat="48.7954" lon="5.13911">
        <ele>198</ele>
        <time>2023-01-30T13:01:17.000Z</time>
      </trkpt>
      <trkpt lat="48.79539" lon="5.1391">
        <ele>198</ele>
        <time>2023-01-30T13:01:18.000Z</time>
      </trkpt>
      <trkpt lat="48.79538" lon="5.1391">
        <ele>198</ele>
        <time>2023-01-30T13:01:19.000Z</time>
      </trkpt>
      <trkpt lat="48.79537" lon="5.13909">
        <ele>197</ele>
        <time>2023-01-30T13:01:20.000Z</time>
      </trkpt>
      <trkpt lat="48.79536" lon="5.13909">
        <ele>197</ele>
        <time>2023-01-30T13:01:21.000Z</time>
      </trkpt>
      <trkpt lat="48.79534" lon="5.13908">
        <ele>197</ele>
        <time>2023-01-30T13:01:22.000Z</time>
      </trkpt>
      <trkpt lat="48.79533" lon="5.13907">
        <ele>197</ele>
        <time>2023-01-30T13:01:23.000Z</time>
      </trkpt>
      <trkpt lat="48.79531" lon="5.13906">
        <ele>197</ele>
        <time>2023-01-30T13:01:24.000Z</time>
      </trkpt>
      <trkpt lat="48.7953" lon="5.13905">
        <ele>197</ele>
        <time>2023-01-30T13:01:25.000Z</time>
      </trkpt>
      <trkpt lat="48.79528" lon="5.13904">
        <ele>196.5</ele>
        <time>2023-01-30T13:01:26.000Z</time>
      </trkpt>
      <trkpt lat="48.79526" lon="5.13903">
        <ele>196</ele>
        <time>2023-01-30T13:01:27.000Z</time>
      </trkpt>
      <trkpt lat="48.79524" lon="5.13902">
        <ele>196</ele>
        <time>2023-01-30T13:01:28.000Z</time>
      </trkpt>
      <trkpt lat="48.79523" lon="5.13901">
        <ele>195.7</ele>
        <time>2023-01-30T13:01:29.000Z</time>
      </trkpt>
      <trkpt lat="48.79521" lon="5.13899">
        <ele>195.3</ele>
        <time>2023-01-30T13:01:30.000Z</time>
      </trkpt>
      <trkpt lat="48.79519" lon="5.13898">
        <ele>195</ele>
        <time>2023-01-30T13:01:31.000Z</time>
      </trkpt>
      <trkpt lat="48.79517" lon="5.13896">
        <ele>195</ele>
        <time>2023-01-30T13:01:32.000Z</time>
      </trkpt>
      <trkpt lat="48.79516" lon="5.13894">
        <ele>195</ele>
        <time>2023-01-30T13:01:33.000Z</time>
      </trkpt>
      <trkpt lat="48.79514" lon="5.13892">
        <ele>195</ele>
        <time>2023-01-30T13:01:34.000Z</time>
      </trkpt>
      <trkpt lat="48.79512" lon="5.13891">
        <ele>195</ele>
        <time>2023-01-30T13:01:35.000Z</time>
      </trkpt>
      <trkpt lat="48.79511" lon="5.1389">
        <ele>194.5</ele>
        <time>2023-01-30T13:01:36.000Z</time>
      </trkpt>
      <trkpt lat="48.79509" lon="5.13889">
        <ele>194</ele>
        <time>2023-01-30T13:01:37.000Z</time>
      </trkpt>
      <trkpt lat="48.79508" lon="5.13888">
        <ele>194</ele>
        <time>2023-01-30T13:01:38.000Z</time>
      </trkpt>
      <trkpt lat="48.79506" lon="5.13887">
        <ele>193.7</ele>
        <time>2023-01-30T13:01:39.000Z</time>
      </trkpt>
      <trkpt lat="48.79504" lon="5.13886">
        <ele>193.3</ele>
        <time>2023-01-30T13:01:40.000Z</time>
      </trkpt>
      <trkpt lat="48.79503" lon="5.13885">
        <ele>193</ele>
        <time>2023-01-30T13:01:41.000Z</time>
      </trkpt>
      <trkpt lat="48.79501" lon="5.13884">
        <ele>193</ele>
        <time>2023-01-30T13:01:42.000Z</time>
      </trkpt>
      <trkpt lat="48.79499" lon="5.13882">
        <ele>193</ele>
        <time>2023-01-30T13:01:43.000Z</time>
      </trkpt>
      <trkpt lat="48.79497" lon="5.13881">
        <ele>192</ele>
        <time>2023-01-30T13:01:44.000Z</time>
      </trkpt>
      <trkpt lat="48.79496" lon="5.13879">
        <ele>192</ele>
        <time>2023-01-30T13:01:45.000Z</time>
      </trkpt>
      <trkpt lat="48.79494" lon="5.13877">
        <ele>191.7</ele>
        <time>2023-01-30T13:01:46.000Z</time>
      </trkpt>
      <trkpt lat="48.79493" lon="5.13875">
        <ele>191.3</ele>
        <time>2023-01-30T13:01:47.000Z</time>
      </trkpt>
      <trkpt lat="48.79491" lon="5.13874">
        <ele>191</ele>
        <time>2023-01-30T13:01:48.000Z</time>
      </trkpt>
      <trkpt lat="48.7949" lon="5.13872">
        <ele>191</ele>
        <time>2023-01-30T13:01:49.000Z</time>
      </trkpt>
      <trkpt lat="48.79489" lon="5.1387">
        <ele>191</ele>
        <time>2023-01-30T13:01:50.000Z</time>
      </trkpt>
      <trkpt lat="48.79487" lon="5.13868">
        <ele>191</ele>
        <time>2023-01-30T13:01:51.000Z</time>
      </trkpt>
      <trkpt lat="48.79486" lon="5.13866">
        <ele>191</ele>
        <time>2023-01-30T13:01:52.000Z</time>
      </trkpt>
      <trkpt lat="48.79485" lon="5.13865">
        <ele>190</ele>
        <time>2023-01-30T13:01:53.000Z</time>
      </trkpt>
      <trkpt lat="48.79485" lon="5.13864">
        <ele>190</ele>
        <time>2023-01-30T13:01:54.000Z</time>
      </trkpt>
      <trkpt lat="48.79484" lon="5.13863">
        <ele>190</ele>
        <time>2023-01-30T13:01:55.000Z</time>
      </trkpt>
      <trkpt lat="48.79484" lon="5.13862">
        <ele>190</ele>
        <time>2023-01-30T13:01:56.000Z</time>
      </trkpt>
      <trkpt lat="48.79483" lon="5.13861">
        <ele>189</ele>
        <time>2023-01-30T13:01:57.000Z</time>
      </trkpt>
      <trkpt lat="48.79483" lon="5.13861">
        <ele>189</ele>
        <time>2023-01-30T13:01:58.000Z</time>
      </trkpt>
      <trkpt lat="48.79483" lon="5.1386">
        <ele>189</ele>
        <time>2023-01-30T13:01:59.000Z</time>
      </trkpt>
      <trkpt lat="48.79482" lon="5.1386">
        <ele>189</ele>
        <time>2023-01-30T13:02:00.000Z</time>
      </trkpt>
      <trkpt lat="48.79482" lon="5.13859">
        <ele>189</ele>
        <time>2023-01-30T13:02:01.000Z</time>
      </trkpt>
      <trkpt lat="48.79482" lon="5.13859">
        <ele>188</ele>
        <time>2023-01-30T13:02:02.000Z</time>
      </trkpt>
      <trkpt lat="48.79481" lon="5.13859">
        <ele>188</ele>
        <time>2023-01-30T13:02:03.000Z</time>
      </trkpt>
      <trkpt lat="48.7948" lon="5.13858">
        <ele>188</ele>
        <time>2023-01-30T13:02:04.000Z</time>
      </trkpt>
      <trkpt lat="48.7948" lon="5.13858">
        <ele>188</ele>
        <time>2023-01-30T13:02:05.000Z</time>
      </trkpt>
      <trkpt lat="48.79479" lon="5.13857">
        <ele>187</ele>
        <time>2023-01-30T13:02:06.000Z</time>
      </trkpt>
      <trkpt lat="48.79478" lon="5.13856">
        <ele>187</ele>
        <time>2023-01-30T13:02:07.000Z</time>
      </trkpt>
      <trkpt lat="48.79477" lon="5.13856">
        <ele>187</ele>
        <time>2023-01-30T13:02:08.000Z</time>
      </trkpt>
      <trkpt lat="48.79475" lon="5.13855">
        <ele>187</ele>
        <time>2023-01-30T13:02:09.000Z</time>
      </trkpt>
      <trkpt lat="48.79474" lon="5.13853">
        <ele>186.7</ele>
        <time>2023-01-30T13:02:10.000Z</time>
      </trkpt>
      <trkpt lat="48.79472" lon="5.13851">
        <ele>186.3</ele>
        <time>2023-01-30T13:02:11.000Z</time>
      </trkpt>
      <trkpt lat="48.7947" lon="5.13848">
        <ele>186</ele>
        <time>2023-01-30T13:02:12.000Z</time>
      </trkpt>
      <trkpt lat="48.79468" lon="5.13846">
        <ele>186</ele>
        <time>2023-01-30T13:02:13.000Z</time>
      </trkpt>
      <trkpt lat="48.79467" lon="5.13844">
        <ele>185.5</ele>
        <time>2023-01-30T13:02:14.000Z</time>
      </trkpt>
      <trkpt lat="48.79466" lon="5.13843">
        <ele>185</ele>
        <time>2023-01-30T13:02:15.000Z</time>
      </trkpt>
      <trkpt lat="48.79465" lon="5.13842">
        <ele>184.7</ele>
        <time>2023-01-30T13:02:16.000Z</time>
      </trkpt>
      <trkpt lat="48.79464" lon="5.1384">
        <ele>184.3</ele>
        <time>2023-01-30T13:02:17.000Z</time>
      </trkpt>
      <trkpt lat="48.79463" lon="5.13839">
        <ele>184</ele>
        <time>2023-01-30T13:02:18.000Z</time>
      </trkpt>
      <trkpt lat="48.79462" lon="5.13837">
        <ele>184</ele>
        <time>2023-01-30T13:02:19.000Z</time>
      </trkpt>
      <trkpt lat="48.79461" lon="5.13836">
        <ele>183.7</ele>
        <time>2023-01-30T13:02:20.000Z</time>
      </trkpt>
      <trkpt lat="48.7946" lon="5.13835">
        <ele>183.3</ele>
        <time>2023-01-30T13:02:21.000Z</time>
      </trkpt>
      <trkpt lat="48.79459" lon="5.13833">
        <ele>183</ele>
        <time>2023-01-30T13:02:22.000Z</time>
      </trkpt>
      <trkpt lat="48.79458" lon="5.13832">
        <ele>183</ele>
        <time>2023-01-30T13:02:23.000Z</time>
      </trkpt>
      <trkpt lat="48.79457" lon="5.13832">
        <ele>182.5</ele>
        <time>2023-01-30T13:02:24.000Z</time>
      </trkpt>
      <trkpt lat="48.79456" lon="5.13831">
        <ele>182</ele>
        <time>2023-01-30T13:02:25.000Z</time>
      </trkpt>
      <trkpt lat="48.79456" lon="5.13831">
        <ele>182</ele>
        <time>2023-01-30T13:02:26.000Z</time>
      </trkpt>
      <trkpt lat="48.79455" lon="5.1383">
        <ele>182</ele>
        <time>2023-01-30T13:02:27.000Z</time>
      </trkpt>
      <trkpt lat="48.79455" lon="5.13829">
        <ele>182</ele>
        <time>2023-01-30T13:02:28.000Z</time>
      </trkpt>
      <trkpt lat="48.79455" lon="5.13828">
        <ele>182</ele>
        <time>2023-01-30T13:02:29.000Z</time>
      </trkpt>
      <trkpt lat="48.79455" lon="5.13826">
        <ele>182</ele>
        <time>2023-01-30T13:02:30.000Z</time>
      </trkpt>
      <trkpt lat="48.79455" lon="5.13823">
        <ele>182</ele>
        <time>2023-01-30T13:02:31.000Z</time>
      </trkpt>
      <trkpt lat="48.79456" lon="5.13819">
        <ele>182</ele>
        <time>2023-01-30T13:02:32.000Z</time>
      </trkpt>
      <trkpt lat="48.79456" lon="5.13816">
        <ele>181</ele>
        <time>2023-01-30T13:02:33.000Z</time>
      </trkpt>
      <trkpt lat="48.79457" lon="5.13815">
        <ele>181</ele>
        <time>2023-01-30T13:02:34.000Z</time>
      </trkpt>
      <trkpt lat="48.79458" lon="5.13814">
        <ele>181</ele>
        <time>2023-01-30T13:02:35.000Z</time>
      </trkpt>
      <trkpt lat="48.79458" lon="5.13814">
        <ele>181</ele>
        <time>2023-01-30T13:02:36.000Z</time>
      </trkpt>
      <trkpt lat="48.79459" lon="5.13814">
        <ele>182</ele>
        <time>2023-01-30T13:02:37.000Z</time>
      </trkpt>
      <trkpt lat="48.79459" lon="5.13814">
        <ele>182</ele>
        <time>2023-01-30T13:02:38.000Z</time>
      </trkpt>
      <trkpt lat="48.7946" lon="5.13814">
        <ele>182</ele>
        <time>2023-01-30T13:02:39.000Z</time>
      </trkpt>
      <trkpt lat="48.7946" lon="5.13813">
        <ele>182</ele>
        <time>2023-01-30T13:02:40.000Z</time>
      </trkpt>
      <trkpt lat="48.79461" lon="5.13813">
        <ele>182</ele>
        <time>2023-01-30T13:02:41.000Z</time>
      </trkpt>
      <trkpt lat="48.79462" lon="5.13812">
        <ele>182</ele>
        <time>2023-01-30T13:02:42.000Z</time>
      </trkpt>
      <trkpt lat="48.79462" lon="5.13812">
        <ele>182</ele>
        <time>2023-01-30T13:02:43.000Z</time>
      </trkpt>
      <trkpt lat="48.79463" lon="5.13811">
        <ele>182</ele>
        <time>2023-01-30T13:02:44.000Z</time>
      </trkpt>
      <trkpt lat="48.79464" lon="5.13811">
        <ele>182</ele>
        <time>2023-01-30T13:02:45.000Z</time>
      </trkpt>
      <trkpt lat="48.79465" lon="5.13811">
        <ele>182</ele>
        <time>2023-01-30T13:02:46.000Z</time>
      </trkpt>
      <trkpt lat="48.79466" lon="5.1381">
        <ele>182</ele>
        <time>2023-01-30T13:02:47.000Z</time>
      </trkpt>
      <trkpt lat="48.79467" lon="5.1381">
        <ele>182</ele>
        <time>2023-01-30T13:02:48.000Z</time>
      </trkpt>
      <trkpt lat="48.79468" lon="5.1381">
        <ele>182</ele>
        <time>2023-01-30T13:02:49.000Z</time>
      </trkpt>
      <trkpt lat="48.79469" lon="5.1381">
        <ele>182</ele>
        <time>2023-01-30T13:02:50.000Z</time>
      </trkpt>
      <trkpt lat="48.7947" lon="5.1381">
        <ele>182</ele>
        <time>2023-01-30T13:02:51.000Z</time>
      </trkpt>
      <trkpt lat="48.79472" lon="5.1381">
        <ele>182</ele>
        <time>2023-01-30T13:02:52.000Z</time>
      </trkpt>
      <trkpt lat="48.79474" lon="5.1381">
        <ele>182</ele>
        <time>2023-01-30T13:02:53.000Z</time>
      </trkpt>
      <trkpt lat="48.79475" lon="5.1381">
        <ele>182</ele>
        <time>2023-01-30T13:02:54.000Z</time>
      </trkpt>
      <trkpt lat="48.79477" lon="5.1381">
        <ele>182</ele>
        <time>2023-01-30T13:02:55.000Z</time>
      </trkpt>
      <trkpt lat="48.79479" lon="5.13811">
        <ele>182</ele>
        <time>2023-01-30T13:02:56.000Z</time>
      </trkpt>
      <trkpt lat="48.7948" lon="5.13811">
        <ele>182</ele>
        <time>2023-01-30T13:02:57.000Z</time>
      </trkpt>
      <trkpt lat="48.79482" lon="5.13811">
        <ele>182</ele>
        <time>2023-01-30T13:02:58.000Z</time>
      </trkpt>
      <trkpt lat="48.79483" lon="5.13811">
        <ele>182</ele>
        <time>2023-01-30T13:02:59.000Z</time>
      </trkpt>
      <trkpt lat="48.79484" lon="5.13812">
        <ele>182</ele>
        <time>2023-01-30T13:03:00.000Z</time>
      </trkpt>
      <trkpt lat="48.79486" lon="5.13812">
        <ele>182</ele>
        <time>2023-01-30T13:03:01.000Z</time>
      </trkpt>
      <trkpt lat="48.79487" lon="5.13813">
        <ele>182</ele>
        <time>2023-01-30T13:03:02.000Z</time>
      </trkpt>
      <trkpt lat="48.79488" lon="5.13813">
        <ele>182</ele>
        <time>2023-01-30T13:03:03.000Z</time>
      </trkpt>
      <trkpt lat="48.79489" lon="5.13813">
        <ele>182</ele>
        <time>2023-01-30T13:03:04.000Z</time>
      </trkpt>
      <trkpt lat="48.7949" lon="5.13814">
        <ele>182</ele>
        <time>2023-01-30T13:03:05.000Z</time>
      </trkpt>
      <trkpt lat="48.79491" lon="5.13814">
        <ele>182</ele>
        <time>2023-01-30T13:03:06.000Z</time>
      </trkpt>
      <trkpt lat="48.79492" lon="5.13814">
        <ele>182</ele>
        <time>2023-01-30T13:03:07.000Z</time>
      </trkpt>
      <trkpt lat="48.79493" lon="5.13815">
        <ele>182</ele>
        <time>2023-01-30T13:03:08.000Z</time>
      </trkpt>
      <trkpt lat="48.79494" lon="5.13815">
        <ele>182</ele>
        <time>2023-01-30T13:03:09.000Z</time>
      </trkpt>
      <trkpt lat="48.79496" lon="5.13816">
        <ele>182</ele>
        <time>2023-01-30T13:03:10.000Z</time>
      </trkpt>
      <trkpt lat="48.79497" lon="5.13816">
        <ele>182</ele>
        <time>2023-01-30T13:03:11.000Z</time>
      </trkpt>
      <trkpt lat="48.79498" lon="5.13816">
        <ele>182</ele>
        <time>2023-01-30T13:03:12.000Z</time>
      </trkpt>
      <trkpt lat="48.795" lon="5.13816">
        <ele>182</ele>
        <time>2023-01-30T13:03:13.000Z</time>
      </trkpt>
      <trkpt lat="48.79502" lon="5.13816">
        <ele>182</ele>
        <time>2023-01-30T13:03:14.000Z</time>
      </trkpt>
      <trkpt lat="48.79504" lon="5.13816">
        <ele>182</ele>
        <time>2023-01-30T13:03:15.000Z</time>
      </trkpt>
      <trkpt lat="48.79505" lon="5.13816">
        <ele>182</ele>
        <time>2023-01-30T13:03:16.000Z</time>
      </trkpt>
      <trkpt lat="48.79506" lon="5.13816">
        <ele>182</ele>
        <time>2023-01-30T13:03:17.000Z</time>
      </trkpt>
      <trkpt lat="48.79508" lon="5.13816">
        <ele>182</ele>
        <time>2023-01-30T13:03:18.000Z</time>
      </trkpt>
      <trkpt lat="48.79509" lon="5.13816">
        <ele>182</ele>
        <time>2023-01-30T13:03:19.000Z</time>
      </trkpt>
      <trkpt lat="48.79511" lon="5.13816">
        <ele>182</ele>
        <time>2023-01-30T13:03:20.000Z</time>
      </trkpt>
      <trkpt lat="48.79512" lon="5.13816">
        <ele>182</ele>
        <time>2023-01-30T13:03:21.000Z</time>
      </trkpt>
      <trkpt lat="48.79514" lon="5.13816">
        <ele>182</ele>
        <time>2023-01-30T13:03:22.000Z</time>
      </trkpt>
      <trkpt lat="48.79515" lon="5.13817">
        <ele>182</ele>
        <time>2023-01-30T13:03:23.000Z</time>
      </trkpt>
      <trkpt lat="48.79516" lon="5.13817">
        <ele>182</ele>
        <time>2023-01-30T13:03:24.000Z</time>
      </trkpt>
      <trkpt lat="48.79518" lon="5.13818">
        <ele>182</ele>
        <time>2023-01-30T13:03:25.000Z</time>
      </trkpt>
      <trkpt lat="48.79519" lon="5.13819">
        <ele>182</ele>
        <time>2023-01-30T13:03:26.000Z</time>
      </trkpt>
      <trkpt lat="48.79521" lon="5.13819">
        <ele>182</ele>
        <time>2023-01-30T13:03:27.000Z</time>
      </trkpt>
      <trkpt lat="48.79522" lon="5.1382">
        <ele>182</ele>
        <time>2023-01-30T13:03:28.000Z</time>
      </trkpt>
      <trkpt lat="48.79524" lon="5.1382">
        <ele>182</ele>
        <time>2023-01-30T13:03:29.000Z</time>
      </trkpt>
      <trkpt lat="48.79525" lon="5.13821">
        <ele>182</ele>
        <time>2023-01-30T13:03:30.000Z</time>
      </trkpt>
      <trkpt lat="48.79527" lon="5.13821">
        <ele>182</ele>
        <time>2023-01-30T13:03:31.000Z</time>
      </trkpt>
      <trkpt lat="48.79528" lon="5.13822">
        <ele>182</ele>
        <time>2023-01-30T13:03:32.000Z</time>
      </trkpt>
      <trkpt lat="48.7953" lon="5.13822">
        <ele>182</ele>
        <time>2023-01-30T13:03:33.000Z</time>
      </trkpt>
      <trkpt lat="48.79531" lon="5.13822">
        <ele>182</ele>
        <time>2023-01-30T13:03:34.000Z</time>
      </trkpt>
      <trkpt lat="48.79533" lon="5.13823">
        <ele>182</ele>
        <time>2023-01-30T13:03:35.000Z</time>
      </trkpt>
      <trkpt lat="48.79534" lon="5.13823">
        <ele>182</ele>
        <time>2023-01-30T13:03:36.000Z</time>
      </trkpt>
      <trkpt lat="48.79536" lon="5.13824">
        <ele>182</ele>
        <time>2023-01-30T13:03:37.000Z</time>
      </trkpt>
      <trkpt lat="48.79538" lon="5.13824">
        <ele>182</ele>
        <time>2023-01-30T13:03:38.000Z</time>
      </trkpt>
      <trkpt lat="48.79539" lon="5.13825">
        <ele>182</ele>
        <time>2023-01-30T13:03:39.000Z</time>
      </trkpt>
      <trkpt lat="48.79541" lon="5.13826">
        <ele>182</ele>
        <time>2023-01-30T13:03:40.000Z</time>
      </trkpt>
      <trkpt lat="48.79543" lon="5.13826">
        <ele>182</ele>
        <time>2023-01-30T13:03:41.000Z</time>
      </trkpt>
      <trkpt lat="48.79545" lon="5.13827">
        <ele>182</ele>
        <time>2023-01-30T13:03:42.000Z</time>
      </trkpt>
      <trkpt lat="48.79547" lon="5.13827">
        <ele>182</ele>
        <time>2023-01-30T13:03:43.000Z</time>
      </trkpt>
      <trkpt lat="48.79549" lon="5.13827">
        <ele>182</ele>
        <time>2023-01-30T13:03:44.000Z</time>
      </trkpt>
      <trkpt lat="48.79551" lon="5.13827">
        <ele>182</ele>
        <time>2023-01-30T13:03:45.000Z</time>
      </trkpt>
      <trkpt lat="48.79552" lon="5.13827">
        <ele>182</ele>
        <time>2023-01-30T13:03:46.000Z</time>
      </trkpt>
      <trkpt lat="48.79554" lon="5.13827">
        <ele>182</ele>
        <time>2023-01-30T13:03:47.000Z</time>
      </trkpt>
      <trkpt lat="48.79555" lon="5.13827">
        <ele>182</ele>
        <time>2023-01-30T13:03:48.000Z</time>
      </trkpt>
      <trkpt lat="48.79557" lon="5.13827">
        <ele>182</ele>
        <time>2023-01-30T13:03:49.000Z</time>
      </trkpt>
      <trkpt lat="48.79558" lon="5.13827">
        <ele>182</ele>
        <time>2023-01-30T13:03:50.000Z</time>
      </trkpt>
      <trkpt lat="48.7956" lon="5.13827">
        <ele>182</ele>
        <time>2023-01-30T13:03:51.000Z</time>
      </trkpt>
      <trkpt lat="48.79561" lon="5.13828">
        <ele>182</ele>
        <time>2023-01-30T13:03:52.000Z</time>
      </trkpt>
      <trkpt lat="48.79563" lon="5.13828">
        <ele>182</ele>
        <time>2023-01-30T13:03:53.000Z</time>
      </trkpt>
      <trkpt lat="48.79564" lon="5.13829">
        <ele>182</ele>
        <time>2023-01-30T13:03:54.000Z</time>
      </trkpt>
      <trkpt lat="48.79566" lon="5.13829">
        <ele>182</ele>
        <time>2023-01-30T13:03:55.000Z</time>
      </trkpt>
      <trkpt lat="48.79567" lon="5.1383">
        <ele>182</ele>
        <time>2023-01-30T13:03:56.000Z</time>
      </trkpt>
      <trkpt lat="48.79569" lon="5.13831">
        <ele>182</ele>
        <time>2023-01-30T13:03:57.000Z</time>
      </trkpt>
      <trkpt lat="48.7957" lon="5.13831">
        <ele>182</ele>
        <time>2023-01-30T13:03:58.000Z</time>
      </trkpt>
      <trkpt lat="48.79571" lon="5.13832">
        <ele>182</ele>
        <time>2023-01-30T13:03:59.000Z</time>
      </trkpt>
      <trkpt lat="48.79573" lon="5.13832">
        <ele>182</ele>
        <time>2023-01-30T13:04:00.000Z</time>
      </trkpt>
      <trkpt lat="48.79574" lon="5.13831">
        <ele>182</ele>
        <time>2023-01-30T13:04:01.000Z</time>
      </trkpt>
      <trkpt lat="48.79576" lon="5.13831">
        <ele>182</ele>
        <time>2023-01-30T13:04:02.000Z</time>
      </trkpt>
      <trkpt lat="48.79577" lon="5.13831">
        <ele>182</ele>
        <time>2023-01-30T13:04:03.000Z</time>
      </trkpt>
      <trkpt lat="48.79578" lon="5.13831">
        <ele>182</ele>
        <time>2023-01-30T13:04:04.000Z</time>
      </trkpt>
      <trkpt lat="48.7958" lon="5.13832">
        <ele>182</ele>
        <time>2023-01-30T13:04:05.000Z</time>
      </trkpt>
      <trkpt lat="48.79581" lon="5.13832">
        <ele>182</ele>
        <time>2023-01-30T13:04:06.000Z</time>
      </trkpt>
      <trkpt lat="48.79582" lon="5.13833">
        <ele>182</ele>
        <time>2023-01-30T13:04:07.000Z</time>
      </trkpt>
      <trkpt lat="48.79584" lon="5.13834">
        <ele>182</ele>
        <time>2023-01-30T13:04:08.000Z</time>
      </trkpt>
      <trkpt lat="48.79585" lon="5.13834">
        <ele>182</ele>
        <time>2023-01-30T13:04:09.000Z</time>
      </trkpt>
      <trkpt lat="48.79586" lon="5.13834">
        <ele>182</ele>
        <time>2023-01-30T13:04:10.000Z</time>
      </trkpt>
      <trkpt lat="48.79587" lon="5.13834">
        <ele>182</ele>
        <time>2023-01-30T13:04:11.000Z</time>
      </trkpt>
      <trkpt lat="48.79589" lon="5.13834">
        <ele>182</ele>
        <time>2023-01-30T13:04:12.000Z</time>
      </trkpt>
      <trkpt lat="48.7959" lon="5.13834">
        <ele>182</ele>
        <time>2023-01-30T13:04:13.000Z</time>
      </trkpt>
      <trkpt lat="48.79592" lon="5.13834">
        <ele>182</ele>
        <time>2023-01-30T13:04:14.000Z</time>
      </trkpt>
      <trkpt lat="48.79594" lon="5.13835">
        <ele>182</ele>
        <time>2023-01-30T13:04:15.000Z</time>
      </trkpt>
      <trkpt lat="48.79595" lon="5.13834">
        <ele>182</ele>
        <time>2023-01-30T13:04:16.000Z</time>
      </trkpt>
      <trkpt lat="48.79597" lon="5.13834">
        <ele>182</ele>
        <time>2023-01-30T13:04:17.000Z</time>
      </trkpt>
      <trkpt lat="48.79598" lon="5.13832">
        <ele>182</ele>
        <time>2023-01-30T13:04:18.000Z</time>
      </trkpt>
      <trkpt lat="48.79599" lon="5.13831">
        <ele>182</ele>
        <time>2023-01-30T13:04:19.000Z</time>
      </trkpt>
      <trkpt lat="48.796" lon="5.13831">
        <ele>182</ele>
        <time>2023-01-30T13:04:20.000Z</time>
      </trkpt>
      <trkpt lat="48.79601" lon="5.13832">
        <ele>182</ele>
        <time>2023-01-30T13:04:21.000Z</time>
      </trkpt>
      <trkpt lat="48.79602" lon="5.13834">
        <ele>182</ele>
        <time>2023-01-30T13:04:22.000Z</time>
      </trkpt>
      <trkpt lat="48.79604" lon="5.13835">
        <ele>181.7</ele>
        <time>2023-01-30T13:04:23.000Z</time>
      </trkpt>
      <trkpt lat="48.79605" lon="5.13836">
        <ele>181.3</ele>
        <time>2023-01-30T13:04:24.000Z</time>
      </trkpt>
      <trkpt lat="48.79606" lon="5.13837">
        <ele>181</ele>
        <time>2023-01-30T13:04:25.000Z</time>
      </trkpt>
      <trkpt lat="48.79607" lon="5.13838">
        <ele>181</ele>
        <time>2023-01-30T13:04:26.000Z</time>
      </trkpt>
      <trkpt lat="48.79609" lon="5.13838">
        <ele>181</ele>
        <time>2023-01-30T13:04:27.000Z</time>
      </trkpt>
      <trkpt lat="48.7961" lon="5.13839">
        <ele>181</ele>
        <time>2023-01-30T13:04:28.000Z</time>
      </trkpt>
      <trkpt lat="48.79611" lon="5.1384">
        <ele>181</ele>
        <time>2023-01-30T13:04:29.000Z</time>
      </trkpt>
      <trkpt lat="48.79613" lon="5.1384">
        <ele>181</ele>
        <time>2023-01-30T13:04:30.000Z</time>
      </trkpt>
      <trkpt lat="48.79614" lon="5.13841">
        <ele>181</ele>
        <time>2023-01-30T13:04:31.000Z</time>
      </trkpt>
      <trkpt lat="48.79615" lon="5.13843">
        <ele>181</ele>
        <time>2023-01-30T13:04:32.000Z</time>
      </trkpt>
      <trkpt lat="48.79617" lon="5.13843">
        <ele>181</ele>
        <time>2023-01-30T13:04:33.000Z</time>
      </trkpt>
      <trkpt lat="48.79618" lon="5.13844">
        <ele>181</ele>
        <time>2023-01-30T13:04:34.000Z</time>
      </trkpt>
      <trkpt lat="48.7962" lon="5.13844">
        <ele>181</ele>
        <time>2023-01-30T13:04:35.000Z</time>
      </trkpt>
      <trkpt lat="48.79621" lon="5.13845">
        <ele>181</ele>
        <time>2023-01-30T13:04:36.000Z</time>
      </trkpt>
      <trkpt lat="48.79623" lon="5.13845">
        <ele>181</ele>
        <time>2023-01-30T13:04:37.000Z</time>
      </trkpt>
      <trkpt lat="48.79625" lon="5.13845">
        <ele>181</ele>
        <time>2023-01-30T13:04:38.000Z</time>
      </trkpt>
      <trkpt lat="48.79626" lon="5.13846">
        <ele>181</ele>
        <time>2023-01-30T13:04:39.000Z</time>
      </trkpt>
      <trkpt lat="48.79628" lon="5.13847">
        <ele>181</ele>
        <time>2023-01-30T13:04:40.000Z</time>
      </trkpt>
      <trkpt lat="48.79629" lon="5.13848">
        <ele>181</ele>
        <time>2023-01-30T13:04:41.000Z</time>
      </trkpt>
      <trkpt lat="48.79631" lon="5.13849">
        <ele>181</ele>
        <time>2023-01-30T13:04:42.000Z</time>
      </trkpt>
      <trkpt lat="48.79632" lon="5.1385">
        <ele>181</ele>
        <time>2023-01-30T13:04:43.000Z</time>
      </trkpt>
      <trkpt lat="48.79634" lon="5.13851">
        <ele>181</ele>
        <time>2023-01-30T13:04:44.000Z</time>
      </trkpt>
      <trkpt lat="48.79635" lon="5.13852">
        <ele>181</ele>
        <time>2023-01-30T13:04:45.000Z</time>
      </trkpt>
      <trkpt lat="48.79636" lon="5.13853">
        <ele>181</ele>
        <time>2023-01-30T13:04:46.000Z</time>
      </trkpt>
      <trkpt lat="48.79638" lon="5.13854">
        <ele>181</ele>
        <time>2023-01-30T13:04:47.000Z</time>
      </trkpt>
      <trkpt lat="48.79639" lon="5.13855">
        <ele>181</ele>
        <time>2023-01-30T13:04:48.000Z</time>
      </trkpt>
      <trkpt lat="48.79641" lon="5.13857">
        <ele>181</ele>
        <time>2023-01-30T13:04:49.000Z</time>
      </trkpt>
      <trkpt lat="48.79643" lon="5.13858">
        <ele>181</ele>
        <time>2023-01-30T13:04:50.000Z</time>
      </trkpt>
      <trkpt lat="48.79644" lon="5.13859">
        <ele>181</ele>
        <time>2023-01-30T13:04:51.000Z</time>
      </trkpt>
      <trkpt lat="48.79646" lon="5.13859">
        <ele>181</ele>
        <time>2023-01-30T13:04:52.000Z</time>
      </trkpt>
      <trkpt lat="48.79648" lon="5.1386">
        <ele>181</ele>
        <time>2023-01-30T13:04:53.000Z</time>
      </trkpt>
      <trkpt lat="48.7965" lon="5.13861">
        <ele>181</ele>
        <time>2023-01-30T13:04:54.000Z</time>
      </trkpt>
      <trkpt lat="48.79652" lon="5.13862">
        <ele>181</ele>
        <time>2023-01-30T13:04:55.000Z</time>
      </trkpt>
      <trkpt lat="48.79654" lon="5.13863">
        <ele>181</ele>
        <time>2023-01-30T13:04:58.000Z</time>
      </trkpt>
      <trkpt lat="48.79655" lon="5.13864">
        <ele>181</ele>
        <time>2023-01-30T13:04:59.000Z</time>
      </trkpt>
      <trkpt lat="48.79656" lon="5.13865">
        <ele>181</ele>
        <time>2023-01-30T13:05:00.000Z</time>
      </trkpt>
      <trkpt lat="48.79658" lon="5.13865">
        <ele>181</ele>
        <time>2023-01-30T13:05:01.000Z</time>
      </trkpt>
      <trkpt lat="48.7966" lon="5.13866">
        <ele>181</ele>
        <time>2023-01-30T13:05:02.000Z</time>
      </trkpt>
      <trkpt lat="48.79663" lon="5.13866">
        <ele>181</ele>
        <time>2023-01-30T13:05:03.000Z</time>
      </trkpt>
      <trkpt lat="48.79665" lon="5.13866">
        <ele>181</ele>
        <time>2023-01-30T13:05:04.000Z</time>
      </trkpt>
      <trkpt lat="48.79667" lon="5.13866">
        <ele>181</ele>
        <time>2023-01-30T13:05:05.000Z</time>
      </trkpt>
      <trkpt lat="48.79668" lon="5.13866">
        <ele>181</ele>
        <time>2023-01-30T13:05:06.000Z</time>
      </trkpt>
      <trkpt lat="48.7967" lon="5.13867">
        <ele>181</ele>
        <time>2023-01-30T13:05:07.000Z</time>
      </trkpt>
      <trkpt lat="48.79671" lon="5.13867">
        <ele>181</ele>
        <time>2023-01-30T13:05:08.000Z</time>
      </trkpt>
      <trkpt lat="48.79673" lon="5.13867">
        <ele>181</ele>
        <time>2023-01-30T13:05:09.000Z</time>
      </trkpt>
      <trkpt lat="48.79675" lon="5.13867">
        <ele>181</ele>
        <time>2023-01-30T13:05:10.000Z</time>
      </trkpt>
      <trkpt lat="48.79676" lon="5.13867">
        <ele>181</ele>
        <time>2023-01-30T13:05:11.000Z</time>
      </trkpt>
      <trkpt lat="48.79678" lon="5.13867">
        <ele>181</ele>
        <time>2023-01-30T13:05:12.000Z</time>
      </trkpt>
      <trkpt lat="48.7968" lon="5.13867">
        <ele>181</ele>
        <time>2023-01-30T13:05:13.000Z</time>
      </trkpt>
      <trkpt lat="48.79682" lon="5.13867">
        <ele>181</ele>
        <time>2023-01-30T13:05:14.000Z</time>
      </trkpt>
      <trkpt lat="48.79683" lon="5.13868">
        <ele>181</ele>
        <time>2023-01-30T13:05:15.000Z</time>
      </trkpt>
      <trkpt lat="48.79685" lon="5.13868">
        <ele>181</ele>
        <time>2023-01-30T13:05:16.000Z</time>
      </trkpt>
      <trkpt lat="48.79686" lon="5.13868">
        <ele>181</ele>
        <time>2023-01-30T13:05:17.000Z</time>
      </trkpt>
      <trkpt lat="48.79688" lon="5.13869">
        <ele>181</ele>
        <time>2023-01-30T13:05:18.000Z</time>
      </trkpt>
      <trkpt lat="48.79689" lon="5.13869">
        <ele>181</ele>
        <time>2023-01-30T13:05:19.000Z</time>
      </trkpt>
      <trkpt lat="48.7969" lon="5.13869">
        <ele>181</ele>
        <time>2023-01-30T13:05:20.000Z</time>
      </trkpt>
      <trkpt lat="48.79691" lon="5.13869">
        <ele>181</ele>
        <time>2023-01-30T13:05:21.000Z</time>
      </trkpt>
      <trkpt lat="48.79693" lon="5.13869">
        <ele>181</ele>
        <time>2023-01-30T13:05:22.000Z</time>
      </trkpt>
      <trkpt lat="48.79694" lon="5.13869">
        <ele>181</ele>
        <time>2023-01-30T13:05:23.000Z</time>
      </trkpt>
      <trkpt lat="48.79695" lon="5.13869">
        <ele>181</ele>
        <time>2023-01-30T13:05:24.000Z</time>
      </trkpt>
      <trkpt lat="48.79696" lon="5.1387">
        <ele>181</ele>
        <time>2023-01-30T13:05:25.000Z</time>
      </trkpt>
      <trkpt lat="48.79698" lon="5.1387">
        <ele>181</ele>
        <time>2023-01-30T13:05:26.000Z</time>
      </trkpt>
      <trkpt lat="48.79699" lon="5.13871">
        <ele>181</ele>
        <time>2023-01-30T13:05:27.000Z</time>
      </trkpt>
      <trkpt lat="48.797" lon="5.13871">
        <ele>181</ele>
        <time>2023-01-30T13:05:28.000Z</time>
      </trkpt>
      <trkpt lat="48.79701" lon="5.13872">
        <ele>181</ele>
        <time>2023-01-30T13:05:29.000Z</time>
      </trkpt>
      <trkpt lat="48.79703" lon="5.13873">
        <ele>181</ele>
        <time>2023-01-30T13:05:30.000Z</time>
      </trkpt>
      <trkpt lat="48.79704" lon="5.13874">
        <ele>181</ele>
        <time>2023-01-30T13:05:31.000Z</time>
      </trkpt>
      <trkpt lat="48.79705" lon="5.13875">
        <ele>181</ele>
        <time>2023-01-30T13:05:32.000Z</time>
      </trkpt>
      <trkpt lat="48.79706" lon="5.13876">
        <ele>181</ele>
        <time>2023-01-30T13:05:33.000Z</time>
      </trkpt>
      <trkpt lat="48.79707" lon="5.13877">
        <ele>181</ele>
        <time>2023-01-30T13:05:34.000Z</time>
      </trkpt>
      <trkpt lat="48.79708" lon="5.13878">
        <ele>181</ele>
        <time>2023-01-30T13:05:35.000Z</time>
      </trkpt>
      <trkpt lat="48.7971" lon="5.13879">
        <ele>181</ele>
        <time>2023-01-30T13:05:36.000Z</time>
      </trkpt>
      <trkpt lat="48.79711" lon="5.1388">
        <ele>181</ele>
        <time>2023-01-30T13:05:37.000Z</time>
      </trkpt>
      <trkpt lat="48.79712" lon="5.13881">
        <ele>181</ele>
        <time>2023-01-30T13:05:38.000Z</time>
      </trkpt>
      <trkpt lat="48.79713" lon="5.13882">
        <ele>181</ele>
        <time>2023-01-30T13:05:39.000Z</time>
      </trkpt>
      <trkpt lat="48.79714" lon="5.13883">
        <ele>181</ele>
        <time>2023-01-30T13:05:40.000Z</time>
      </trkpt>
      <trkpt lat="48.79716" lon="5.13884">
        <ele>181</ele>
        <time>2023-01-30T13:05:41.000Z</time>
      </trkpt>
      <trkpt lat="48.79717" lon="5.13885">
        <ele>181</ele>
        <time>2023-01-30T13:05:42.000Z</time>
      </trkpt>
      <trkpt lat="48.79719" lon="5.13886">
        <ele>181</ele>
        <time>2023-01-30T13:05:43.000Z</time>
      </trkpt>
      <trkpt lat="48.79721" lon="5.13887">
        <ele>181</ele>
        <time>2023-01-30T13:05:44.000Z</time>
      </trkpt>
      <trkpt lat="48.79723" lon="5.13888">
        <ele>181</ele>
        <time>2023-01-30T13:05:45.000Z</time>
      </trkpt>
      <trkpt lat="48.79725" lon="5.13889">
        <ele>181</ele>
        <time>2023-01-30T13:05:46.000Z</time>
      </trkpt>
      <trkpt lat="48.79727" lon="5.1389">
        <ele>181</ele>
        <time>2023-01-30T13:05:47.000Z</time>
      </trkpt>
      <trkpt lat="48.79729" lon="5.13891">
        <ele>181</ele>
        <time>2023-01-30T13:05:48.000Z</time>
      </trkpt>
      <trkpt lat="48.7973" lon="5.13892">
        <ele>181</ele>
        <time>2023-01-30T13:05:49.000Z</time>
      </trkpt>
      <trkpt lat="48.79731" lon="5.13893">
        <ele>181</ele>
        <time>2023-01-30T13:05:50.000Z</time>
      </trkpt>
      <trkpt lat="48.79731" lon="5.13894">
        <ele>181</ele>
        <time>2023-01-30T13:05:51.000Z</time>
      </trkpt>
      <trkpt lat="48.79732" lon="5.13895">
        <ele>181</ele>
        <time>2023-01-30T13:05:52.000Z</time>
      </trkpt>
      <trkpt lat="48.79733" lon="5.13896">
        <ele>181</ele>
        <time>2023-01-30T13:05:53.000Z</time>
      </trkpt>
      <trkpt lat="48.79734" lon="5.13896">
        <ele>181</ele>
        <time>2023-01-30T13:05:54.000Z</time>
      </trkpt>
      <trkpt lat="48.79737" lon="5.13897">
        <ele>181</ele>
        <time>2023-01-30T13:05:55.000Z</time>
      </trkpt>
      <trkpt lat="48.7974" lon="5.13898">
        <ele>181</ele>
        <time>2023-01-30T13:05:56.000Z</time>
      </trkpt>
      <trkpt lat="48.79742" lon="5.13899">
        <ele>181</ele>
        <time>2023-01-30T13:05:57.000Z</time>
      </trkpt>
      <trkpt lat="48.79743" lon="5.139">
        <ele>181</ele>
        <time>2023-01-30T13:05:58.000Z</time>
      </trkpt>
      <trkpt lat="48.79743" lon="5.13902">
        <ele>181</ele>
        <time>2023-01-30T13:05:59.000Z</time>
      </trkpt>
      <trkpt lat="48.79744" lon="5.13904">
        <ele>181</ele>
        <time>2023-01-30T13:06:00.000Z</time>
      </trkpt>
      <trkpt lat="48.79745" lon="5.13906">
        <ele>181</ele>
        <time>2023-01-30T13:06:01.000Z</time>
      </trkpt>
      <trkpt lat="48.79747" lon="5.13908">
        <ele>181</ele>
        <time>2023-01-30T13:06:02.000Z</time>
      </trkpt>
      <trkpt lat="48.79748" lon="5.1391">
        <ele>181</ele>
        <time>2023-01-30T13:06:03.000Z</time>
      </trkpt>
      <trkpt lat="48.79749" lon="5.13912">
        <ele>181</ele>
        <time>2023-01-30T13:06:04.000Z</time>
      </trkpt>
      <trkpt lat="48.7975" lon="5.13913">
        <ele>181</ele>
        <time>2023-01-30T13:06:05.000Z</time>
      </trkpt>
      <trkpt lat="48.79751" lon="5.13914">
        <ele>181</ele>
        <time>2023-01-30T13:06:06.000Z</time>
      </trkpt>
      <trkpt lat="48.79752" lon="5.13915">
        <ele>181</ele>
        <time>2023-01-30T13:06:07.000Z</time>
      </trkpt>
      <trkpt lat="48.79753" lon="5.13917">
        <ele>181</ele>
        <time>2023-01-30T13:06:08.000Z</time>
      </trkpt>
      <trkpt lat="48.79754" lon="5.13918">
        <ele>181</ele>
        <time>2023-01-30T13:06:09.000Z</time>
      </trkpt>
      <trkpt lat="48.79755" lon="5.13919">
        <ele>181</ele>
        <time>2023-01-30T13:06:10.000Z</time>
      </trkpt>
      <trkpt lat="48.79757" lon="5.13921">
        <ele>181</ele>
        <time>2023-01-30T13:06:11.000Z</time>
      </trkpt>
      <trkpt lat="48.79758" lon="5.13923">
        <ele>181</ele>
        <time>2023-01-30T13:06:12.000Z</time>
      </trkpt>
      <trkpt lat="48.7976" lon="5.13925">
        <ele>181</ele>
        <time>2023-01-30T13:06:13.000Z</time>
      </trkpt>
      <trkpt lat="48.79762" lon="5.13927">
        <ele>181</ele>
        <time>2023-01-30T13:06:14.000Z</time>
      </trkpt>
      <trkpt lat="48.79763" lon="5.13929">
        <ele>181</ele>
        <time>2023-01-30T13:06:15.000Z</time>
      </trkpt>
      <trkpt lat="48.79765" lon="5.1393">
        <ele>181</ele>
        <time>2023-01-30T13:06:16.000Z</time>
      </trkpt>
      <trkpt lat="48.79766" lon="5.13932">
        <ele>181</ele>
        <time>2023-01-30T13:06:17.000Z</time>
      </trkpt>
      <trkpt lat="48.79766" lon="5.13934">
        <ele>181</ele>
        <time>2023-01-30T13:06:18.000Z</time>
      </trkpt>
      <trkpt lat="48.79766" lon="5.13935">
        <ele>181</ele>
        <time>2023-01-30T13:06:19.000Z</time>
      </trkpt>
      <trkpt lat="48.79767" lon="5.13936">
        <ele>181</ele>
        <time>2023-01-30T13:06:20.000Z</time>
      </trkpt>
      <trkpt lat="48.79767" lon="5.13938">
        <ele>180</ele>
        <time>2023-01-30T13:06:21.000Z</time>
      </trkpt>
      <trkpt lat="48.79767" lon="5.13939">
        <ele>180</ele>
        <time>2023-01-30T13:06:22.000Z</time>
      </trkpt>
      <trkpt lat="48.79768" lon="5.1394">
        <ele>180</ele>
        <time>2023-01-30T13:06:23.000Z</time>
      </trkpt>
      <trkpt lat="48.79769" lon="5.13942">
        <ele>180</ele>
        <time>2023-01-30T13:06:24.000Z</time>
      </trkpt>
      <trkpt lat="48.79771" lon="5.13943">
        <ele>180</ele>
        <time>2023-01-30T13:06:25.000Z</time>
      </trkpt>
      <trkpt lat="48.79772" lon="5.13945">
        <ele>180</ele>
        <time>2023-01-30T13:06:26.000Z</time>
      </trkpt>
      <trkpt lat="48.79774" lon="5.13947">
        <ele>180</ele>
        <time>2023-01-30T13:06:27.000Z</time>
      </trkpt>
      <trkpt lat="48.79776" lon="5.13948">
        <ele>180</ele>
        <time>2023-01-30T13:06:28.000Z</time>
      </trkpt>
      <trkpt lat="48.79778" lon="5.1395">
        <ele>180</ele>
        <time>2023-01-30T13:06:29.000Z</time>
      </trkpt>
      <trkpt lat="48.7978" lon="5.13951">
        <ele>180</ele>
        <time>2023-01-30T13:06:30.000Z</time>
      </trkpt>
      <trkpt lat="48.79782" lon="5.13952">
        <ele>180</ele>
        <time>2023-01-30T13:06:31.000Z</time>
      </trkpt>
      <trkpt lat="48.79783" lon="5.13953">
        <ele>180</ele>
        <time>2023-01-30T13:06:32.000Z</time>
      </trkpt>
      <trkpt lat="48.79784" lon="5.13954">
        <ele>180</ele>
        <time>2023-01-30T13:06:33.000Z</time>
      </trkpt>
      <trkpt lat="48.79786" lon="5.13955">
        <ele>180</ele>
        <time>2023-01-30T13:06:34.000Z</time>
      </trkpt>
      <trkpt lat="48.79787" lon="5.13956">
        <ele>180</ele>
        <time>2023-01-30T13:06:35.000Z</time>
      </trkpt>
      <trkpt lat="48.79788" lon="5.13956">
        <ele>180</ele>
        <time>2023-01-30T13:06:36.000Z</time>
      </trkpt>
      <trkpt lat="48.79789" lon="5.13957">
        <ele>180</ele>
        <time>2023-01-30T13:06:37.000Z</time>
      </trkpt>
      <trkpt lat="48.79791" lon="5.13958">
        <ele>180</ele>
        <time>2023-01-30T13:06:38.000Z</time>
      </trkpt>
      <trkpt lat="48.79792" lon="5.13958">
        <ele>180</ele>
        <time>2023-01-30T13:06:39.000Z</time>
      </trkpt>
      <trkpt lat="48.79793" lon="5.13959">
        <ele>180</ele>
        <time>2023-01-30T13:06:40.000Z</time>
      </trkpt>
      <trkpt lat="48.79794" lon="5.1396">
        <ele>180</ele>
        <time>2023-01-30T13:06:41.000Z</time>
      </trkpt>
      <trkpt lat="48.79795" lon="5.1396">
        <ele>180</ele>
        <time>2023-01-30T13:06:42.000Z</time>
      </trkpt>
      <trkpt lat="48.79797" lon="5.13961">
        <ele>180</ele>
        <time>2023-01-30T13:06:43.000Z</time>
      </trkpt>
      <trkpt lat="48.79798" lon="5.13961">
        <ele>180</ele>
        <time>2023-01-30T13:06:44.000Z</time>
      </trkpt>
      <trkpt lat="48.79799" lon="5.13962">
        <ele>180</ele>
        <time>2023-01-30T13:06:45.000Z</time>
      </trkpt>
      <trkpt lat="48.798" lon="5.13963">
        <ele>180</ele>
        <time>2023-01-30T13:06:46.000Z</time>
      </trkpt>
      <trkpt lat="48.79802" lon="5.13964">
        <ele>180</ele>
        <time>2023-01-30T13:06:47.000Z</time>
      </trkpt>
      <trkpt lat="48.79805" lon="5.13965">
        <ele>180</ele>
        <time>2023-01-30T13:06:48.000Z</time>
      </trkpt>
      <trkpt lat="48.79808" lon="5.13967">
        <ele>180</ele>
        <time>2023-01-30T13:06:49.000Z</time>
      </trkpt>
      <trkpt lat="48.79811" lon="5.13969">
        <ele>180</ele>
        <time>2023-01-30T13:06:50.000Z</time>
      </trkpt>
      <trkpt lat="48.79813" lon="5.1397">
        <ele>180</ele>
        <time>2023-01-30T13:06:51.000Z</time>
      </trkpt>
      <trkpt lat="48.79814" lon="5.13971">
        <ele>180</ele>
        <time>2023-01-30T13:06:52.000Z</time>
      </trkpt>
      <trkpt lat="48.79816" lon="5.13973">
        <ele>180</ele>
        <time>2023-01-30T13:06:53.000Z</time>
      </trkpt>
      <trkpt lat="48.79818" lon="5.13974">
        <ele>180</ele>
        <time>2023-01-30T13:06:54.000Z</time>
      </trkpt>
      <trkpt lat="48.79821" lon="5.13976">
        <ele>180</ele>
        <time>2023-01-30T13:06:55.000Z</time>
      </trkpt>
      <trkpt lat="48.79822" lon="5.13978">
        <ele>180</ele>
        <time>2023-01-30T13:06:56.000Z</time>
      </trkpt>
      <trkpt lat="48.79824" lon="5.1398">
        <ele>180</ele>
        <time>2023-01-30T13:06:57.000Z</time>
      </trkpt>
      <trkpt lat="48.79825" lon="5.13981">
        <ele>180</ele>
        <time>2023-01-30T13:06:58.000Z</time>
      </trkpt>
      <trkpt lat="48.79827" lon="5.13983">
        <ele>180</ele>
        <time>2023-01-30T13:06:59.000Z</time>
      </trkpt>
      <trkpt lat="48.79828" lon="5.13984">
        <ele>180</ele>
        <time>2023-01-30T13:07:00.000Z</time>
      </trkpt>
      <trkpt lat="48.7983" lon="5.13985">
        <ele>180</ele>
        <time>2023-01-30T13:07:01.000Z</time>
      </trkpt>
      <trkpt lat="48.79831" lon="5.13987">
        <ele>180</ele>
        <time>2023-01-30T13:07:02.000Z</time>
      </trkpt>
      <trkpt lat="48.79833" lon="5.13988">
        <ele>180</ele>
        <time>2023-01-30T13:07:03.000Z</time>
      </trkpt>
      <trkpt lat="48.79834" lon="5.13989">
        <ele>180</ele>
        <time>2023-01-30T13:07:04.000Z</time>
      </trkpt>
      <trkpt lat="48.79836" lon="5.13991">
        <ele>180</ele>
        <time>2023-01-30T13:07:05.000Z</time>
      </trkpt>
      <trkpt lat="48.79838" lon="5.13992">
        <ele>180</ele>
        <time>2023-01-30T13:07:06.000Z</time>
      </trkpt>
      <trkpt lat="48.7984" lon="5.13994">
        <ele>180</ele>
        <time>2023-01-30T13:07:07.000Z</time>
      </trkpt>
      <trkpt lat="48.79841" lon="5.13995">
        <ele>181</ele>
        <time>2023-01-30T13:07:08.000Z</time>
      </trkpt>
      <trkpt lat="48.79843" lon="5.13997">
        <ele>181</ele>
        <time>2023-01-30T13:07:09.000Z</time>
      </trkpt>
      <trkpt lat="48.79845" lon="5.13999">
        <ele>181</ele>
        <time>2023-01-30T13:07:10.000Z</time>
      </trkpt>
      <trkpt lat="48.79847" lon="5.14001">
        <ele>181</ele>
        <time>2023-01-30T13:07:11.000Z</time>
      </trkpt>
      <trkpt lat="48.79849" lon="5.14002">
        <ele>181</ele>
        <time>2023-01-30T13:07:12.000Z</time>
      </trkpt>
      <trkpt lat="48.7985" lon="5.14004">
        <ele>181</ele>
        <time>2023-01-30T13:07:13.000Z</time>
      </trkpt>
      <trkpt lat="48.79852" lon="5.14006">
        <ele>181</ele>
        <time>2023-01-30T13:07:14.000Z</time>
      </trkpt>
      <trkpt lat="48.79853" lon="5.14007">
        <ele>181</ele>
        <time>2023-01-30T13:07:15.000Z</time>
      </trkpt>
      <trkpt lat="48.79854" lon="5.14008">
        <ele>181</ele>
        <time>2023-01-30T13:07:16.000Z</time>
      </trkpt>
      <trkpt lat="48.79856" lon="5.1401">
        <ele>181</ele>
        <time>2023-01-30T13:07:17.000Z</time>
      </trkpt>
      <trkpt lat="48.79857" lon="5.14013">
        <ele>181</ele>
        <time>2023-01-30T13:07:18.000Z</time>
      </trkpt>
      <trkpt lat="48.79858" lon="5.14016">
        <ele>181</ele>
        <time>2023-01-30T13:07:19.000Z</time>
      </trkpt>
      <trkpt lat="48.79859" lon="5.14018">
        <ele>181</ele>
        <time>2023-01-30T13:07:20.000Z</time>
      </trkpt>
      <trkpt lat="48.7986" lon="5.14021">
        <ele>181</ele>
        <time>2023-01-30T13:07:21.000Z</time>
      </trkpt>
      <trkpt lat="48.79861" lon="5.14023">
        <ele>181</ele>
        <time>2023-01-30T13:07:22.000Z</time>
      </trkpt>
      <trkpt lat="48.79862" lon="5.14026">
        <ele>181</ele>
        <time>2023-01-30T13:07:23.000Z</time>
      </trkpt>
      <trkpt lat="48.79863" lon="5.14028">
        <ele>181</ele>
        <time>2023-01-30T13:07:24.000Z</time>
      </trkpt>
      <trkpt lat="48.79864" lon="5.14029">
        <ele>181</ele>
        <time>2023-01-30T13:07:25.000Z</time>
      </trkpt>
      <trkpt lat="48.79865" lon="5.1403">
        <ele>181.3</ele>
        <time>2023-01-30T13:07:26.000Z</time>
      </trkpt>
      <trkpt lat="48.79866" lon="5.14031">
        <ele>181.7</ele>
        <time>2023-01-30T13:07:27.000Z</time>
      </trkpt>
      <trkpt lat="48.79866" lon="5.14032">
        <ele>182</ele>
        <time>2023-01-30T13:07:28.000Z</time>
      </trkpt>
      <trkpt lat="48.79867" lon="5.14033">
        <ele>182</ele>
        <time>2023-01-30T13:07:29.000Z</time>
      </trkpt>
      <trkpt lat="48.79867" lon="5.14035">
        <ele>182</ele>
        <time>2023-01-30T13:07:30.000Z</time>
      </trkpt>
      <trkpt lat="48.79868" lon="5.14036">
        <ele>182</ele>
        <time>2023-01-30T13:07:31.000Z</time>
      </trkpt>
      <trkpt lat="48.79868" lon="5.14038">
        <ele>182</ele>
        <time>2023-01-30T13:07:32.000Z</time>
      </trkpt>
      <trkpt lat="48.79868" lon="5.14039">
        <ele>182</ele>
        <time>2023-01-30T13:07:33.000Z</time>
      </trkpt>
      <trkpt lat="48.79869" lon="5.14041">
        <ele>182</ele>
        <time>2023-01-30T13:07:34.000Z</time>
      </trkpt>
      <trkpt lat="48.7987" lon="5.14042">
        <ele>182</ele>
        <time>2023-01-30T13:07:35.000Z</time>
      </trkpt>
      <trkpt lat="48.79871" lon="5.14044">
        <ele>182</ele>
        <time>2023-01-30T13:07:36.000Z</time>
      </trkpt>
      <trkpt lat="48.79873" lon="5.14047">
        <ele>182</ele>
        <time>2023-01-30T13:07:37.000Z</time>
      </trkpt>
      <trkpt lat="48.79875" lon="5.14051">
        <ele>182</ele>
        <time>2023-01-30T13:07:38.000Z</time>
      </trkpt>
      <trkpt lat="48.79876" lon="5.14052">
        <ele>182</ele>
        <time>2023-01-30T13:07:39.000Z</time>
      </trkpt>
      <trkpt lat="48.79877" lon="5.14053">
        <ele>182</ele>
        <time>2023-01-30T13:07:40.000Z</time>
      </trkpt>
      <trkpt lat="48.79879" lon="5.14056">
        <ele>182</ele>
        <time>2023-01-30T13:07:41.000Z</time>
      </trkpt>
      <trkpt lat="48.79881" lon="5.1406">
        <ele>182</ele>
        <time>2023-01-30T13:07:42.000Z</time>
      </trkpt>
      <trkpt lat="48.79883" lon="5.14063">
        <ele>182</ele>
        <time>2023-01-30T13:07:43.000Z</time>
      </trkpt>
      <trkpt lat="48.79884" lon="5.14065">
        <ele>182</ele>
        <time>2023-01-30T13:07:44.000Z</time>
      </trkpt>
      <trkpt lat="48.79885" lon="5.14067">
        <ele>182</ele>
        <time>2023-01-30T13:07:45.000Z</time>
      </trkpt>
      <trkpt lat="48.79885" lon="5.14069">
        <ele>182</ele>
        <time>2023-01-30T13:07:46.000Z</time>
      </trkpt>
      <trkpt lat="48.79885" lon="5.14071">
        <ele>182</ele>
        <time>2023-01-30T13:07:47.000Z</time>
      </trkpt>
      <trkpt lat="48.79886" lon="5.14072">
        <ele>182</ele>
        <time>2023-01-30T13:07:48.000Z</time>
      </trkpt>
      <trkpt lat="48.79886" lon="5.14074">
        <ele>182</ele>
        <time>2023-01-30T13:07:49.000Z</time>
      </trkpt>
      <trkpt lat="48.79887" lon="5.14076">
        <ele>182</ele>
        <time>2023-01-30T13:07:50.000Z</time>
      </trkpt>
      <trkpt lat="48.79888" lon="5.14078">
        <ele>182</ele>
        <time>2023-01-30T13:07:51.000Z</time>
      </trkpt>
      <trkpt lat="48.79888" lon="5.1408">
        <ele>182</ele>
        <time>2023-01-30T13:07:52.000Z</time>
      </trkpt>
      <trkpt lat="48.79889" lon="5.14082">
        <ele>182</ele>
        <time>2023-01-30T13:07:53.000Z</time>
      </trkpt>
      <trkpt lat="48.7989" lon="5.14084">
        <ele>182</ele>
        <time>2023-01-30T13:07:54.000Z</time>
      </trkpt>
      <trkpt lat="48.7989" lon="5.14086">
        <ele>182</ele>
        <time>2023-01-30T13:07:55.000Z</time>
      </trkpt>
      <trkpt lat="48.7989" lon="5.14088">
        <ele>182</ele>
        <time>2023-01-30T13:07:56.000Z</time>
      </trkpt>
      <trkpt lat="48.79891" lon="5.14089">
        <ele>182</ele>
        <time>2023-01-30T13:07:57.000Z</time>
      </trkpt>
      <trkpt lat="48.79891" lon="5.14091">
        <ele>182</ele>
        <time>2023-01-30T13:07:58.000Z</time>
      </trkpt>
      <trkpt lat="48.79891" lon="5.14093">
        <ele>182</ele>
        <time>2023-01-30T13:07:59.000Z</time>
      </trkpt>
      <trkpt lat="48.79891" lon="5.14094">
        <ele>182</ele>
        <time>2023-01-30T13:08:00.000Z</time>
      </trkpt>
      <trkpt lat="48.79891" lon="5.14096">
        <ele>183</ele>
        <time>2023-01-30T13:08:01.000Z</time>
      </trkpt>
      <trkpt lat="48.79891" lon="5.14098">
        <ele>183</ele>
        <time>2023-01-30T13:08:02.000Z</time>
      </trkpt>
      <trkpt lat="48.79891" lon="5.141">
        <ele>183</ele>
        <time>2023-01-30T13:08:03.000Z</time>
      </trkpt>
      <trkpt lat="48.79892" lon="5.14102">
        <ele>183</ele>
        <time>2023-01-30T13:08:04.000Z</time>
      </trkpt>
      <trkpt lat="48.79892" lon="5.14104">
        <ele>183</ele>
        <time>2023-01-30T13:08:05.000Z</time>
      </trkpt>
      <trkpt lat="48.79892" lon="5.14106">
        <ele>183</ele>
        <time>2023-01-30T13:08:06.000Z</time>
      </trkpt>
      <trkpt lat="48.79893" lon="5.14108">
        <ele>183</ele>
        <time>2023-01-30T13:08:07.000Z</time>
      </trkpt>
      <trkpt lat="48.79894" lon="5.14111">
        <ele>183</ele>
        <time>2023-01-30T13:08:08.000Z</time>
      </trkpt>
      <trkpt lat="48.79894" lon="5.14113">
        <ele>183</ele>
        <time>2023-01-30T13:08:09.000Z</time>
      </trkpt>
      <trkpt lat="48.79894" lon="5.14115">
        <ele>183</ele>
        <time>2023-01-30T13:08:10.000Z</time>
      </trkpt>
      <trkpt lat="48.79895" lon="5.14117">
        <ele>183</ele>
        <time>2023-01-30T13:08:11.000Z</time>
      </trkpt>
      <trkpt lat="48.79895" lon="5.14119">
        <ele>183</ele>
        <time>2023-01-30T13:08:12.000Z</time>
      </trkpt>
      <trkpt lat="48.79896" lon="5.14122">
        <ele>183</ele>
        <time>2023-01-30T13:08:13.000Z</time>
      </trkpt>
      <trkpt lat="48.79896" lon="5.14125">
        <ele>183</ele>
        <time>2023-01-30T13:08:14.000Z</time>
      </trkpt>
      <trkpt lat="48.79897" lon="5.14127">
        <ele>183</ele>
        <time>2023-01-30T13:08:15.000Z</time>
      </trkpt>
      <trkpt lat="48.79898" lon="5.14129">
        <ele>183</ele>
        <time>2023-01-30T13:08:16.000Z</time>
      </trkpt>
      <trkpt lat="48.79899" lon="5.14131">
        <ele>183</ele>
        <time>2023-01-30T13:08:17.000Z</time>
      </trkpt>
      <trkpt lat="48.79899" lon="5.14133">
        <ele>183</ele>
        <time>2023-01-30T13:08:18.000Z</time>
      </trkpt>
      <trkpt lat="48.799" lon="5.14134">
        <ele>183</ele>
        <time>2023-01-30T13:08:19.000Z</time>
      </trkpt>
      <trkpt lat="48.799" lon="5.14135">
        <ele>183</ele>
        <time>2023-01-30T13:08:20.000Z</time>
      </trkpt>
      <trkpt lat="48.79901" lon="5.14137">
        <ele>183</ele>
        <time>2023-01-30T13:08:21.000Z</time>
      </trkpt>
      <trkpt lat="48.79901" lon="5.14138">
        <ele>183</ele>
        <time>2023-01-30T13:08:22.000Z</time>
      </trkpt>
      <trkpt lat="48.79901" lon="5.14139">
        <ele>183</ele>
        <time>2023-01-30T13:08:23.000Z</time>
      </trkpt>
      <trkpt lat="48.79902" lon="5.14141">
        <ele>183</ele>
        <time>2023-01-30T13:08:24.000Z</time>
      </trkpt>
      <trkpt lat="48.79902" lon="5.14142">
        <ele>183</ele>
        <time>2023-01-30T13:08:25.000Z</time>
      </trkpt>
      <trkpt lat="48.79902" lon="5.14143">
        <ele>183</ele>
        <time>2023-01-30T13:08:26.000Z</time>
      </trkpt>
      <trkpt lat="48.79903" lon="5.14144">
        <ele>183</ele>
        <time>2023-01-30T13:08:27.000Z</time>
      </trkpt>
      <trkpt lat="48.79903" lon="5.14144">
        <ele>183</ele>
        <time>2023-01-30T13:08:28.000Z</time>
      </trkpt>
      <trkpt lat="48.79904" lon="5.14145">
        <ele>183</ele>
        <time>2023-01-30T13:08:29.000Z</time>
      </trkpt>
      <trkpt lat="48.79905" lon="5.14147">
        <ele>183</ele>
        <time>2023-01-30T13:08:30.000Z</time>
      </trkpt>
      <trkpt lat="48.79906" lon="5.14149">
        <ele>183</ele>
        <time>2023-01-30T13:08:31.000Z</time>
      </trkpt>
      <trkpt lat="48.79907" lon="5.1415">
        <ele>183</ele>
        <time>2023-01-30T13:08:32.000Z</time>
      </trkpt>
      <trkpt lat="48.79908" lon="5.14152">
        <ele>183</ele>
        <time>2023-01-30T13:08:33.000Z</time>
      </trkpt>
      <trkpt lat="48.79909" lon="5.14153">
        <ele>183</ele>
        <time>2023-01-30T13:08:34.000Z</time>
      </trkpt>
      <trkpt lat="48.7991" lon="5.14154">
        <ele>183</ele>
        <time>2023-01-30T13:08:35.000Z</time>
      </trkpt>
      <trkpt lat="48.79911" lon="5.14155">
        <ele>183.3</ele>
        <time>2023-01-30T13:08:36.000Z</time>
      </trkpt>
      <trkpt lat="48.79913" lon="5.14157">
        <ele>183.7</ele>
        <time>2023-01-30T13:08:37.000Z</time>
      </trkpt>
      <trkpt lat="48.79914" lon="5.14158">
        <ele>184</ele>
        <time>2023-01-30T13:08:38.000Z</time>
      </trkpt>
      <trkpt lat="48.79916" lon="5.14159">
        <ele>183</ele>
        <time>2023-01-30T13:08:39.000Z</time>
      </trkpt>
      <trkpt lat="48.79918" lon="5.1416">
        <ele>183</ele>
        <time>2023-01-30T13:08:40.000Z</time>
      </trkpt>
      <trkpt lat="48.7992" lon="5.14161">
        <ele>183</ele>
        <time>2023-01-30T13:08:41.000Z</time>
      </trkpt>
      <trkpt lat="48.79922" lon="5.14161">
        <ele>183</ele>
        <time>2023-01-30T13:08:42.000Z</time>
      </trkpt>
      <trkpt lat="48.79924" lon="5.14162">
        <ele>183</ele>
        <time>2023-01-30T13:08:43.000Z</time>
      </trkpt>
      <trkpt lat="48.79927" lon="5.14163">
        <ele>183.3</ele>
        <time>2023-01-30T13:08:44.000Z</time>
      </trkpt>
      <trkpt lat="48.79929" lon="5.14164">
        <ele>183.7</ele>
        <time>2023-01-30T13:08:45.000Z</time>
      </trkpt>
      <trkpt lat="48.79931" lon="5.14165">
        <ele>184</ele>
        <time>2023-01-30T13:08:46.000Z</time>
      </trkpt>
      <trkpt lat="48.79933" lon="5.14165">
        <ele>184</ele>
        <time>2023-01-30T13:08:47.000Z</time>
      </trkpt>
      <trkpt lat="48.79934" lon="5.14165">
        <ele>184</ele>
        <time>2023-01-30T13:08:48.000Z</time>
      </trkpt>
      <trkpt lat="48.79935" lon="5.14165">
        <ele>184</ele>
        <time>2023-01-30T13:08:49.000Z</time>
      </trkpt>
      <trkpt lat="48.79937" lon="5.14165">
        <ele>184</ele>
        <time>2023-01-30T13:08:50.000Z</time>
      </trkpt>
      <trkpt lat="48.79939" lon="5.14165">
        <ele>184</ele>
        <time>2023-01-30T13:08:51.000Z</time>
      </trkpt>
      <trkpt lat="48.7994" lon="5.14165">
        <ele>184</ele>
        <time>2023-01-30T13:08:52.000Z</time>
      </trkpt>
      <trkpt lat="48.79941" lon="5.14165">
        <ele>184</ele>
        <time>2023-01-30T13:08:53.000Z</time>
      </trkpt>
      <trkpt lat="48.79942" lon="5.14165">
        <ele>184</ele>
        <time>2023-01-30T13:08:54.000Z</time>
      </trkpt>
      <trkpt lat="48.79942" lon="5.14165">
        <ele>184</ele>
        <time>2023-01-30T13:08:55.000Z</time>
      </trkpt>
      <trkpt lat="48.79943" lon="5.14165">
        <ele>184</ele>
        <time>2023-01-30T13:08:56.000Z</time>
      </trkpt>
      <trkpt lat="48.79944" lon="5.14165">
        <ele>184</ele>
        <time>2023-01-30T13:08:57.000Z</time>
      </trkpt>
      <trkpt lat="48.79945" lon="5.14165">
        <ele>184</ele>
        <time>2023-01-30T13:08:58.000Z</time>
      </trkpt>
      <trkpt lat="48.79946" lon="5.14165">
        <ele>184</ele>
        <time>2023-01-30T13:08:59.000Z</time>
      </trkpt>
      <trkpt lat="48.79947" lon="5.14165">
        <ele>184</ele>
        <time>2023-01-30T13:09:00.000Z</time>
      </trkpt>
      <trkpt lat="48.79948" lon="5.14164">
        <ele>184</ele>
        <time>2023-01-30T13:09:01.000Z</time>
      </trkpt>
      <trkpt lat="48.79949" lon="5.14164">
        <ele>184</ele>
        <time>2023-01-30T13:09:02.000Z</time>
      </trkpt>
      <trkpt lat="48.7995" lon="5.14164">
        <ele>184</ele>
        <time>2023-01-30T13:09:03.000Z</time>
      </trkpt>
      <trkpt lat="48.79951" lon="5.14163">
        <ele>184</ele>
        <time>2023-01-30T13:09:04.000Z</time>
      </trkpt>
      <trkpt lat="48.79952" lon="5.14163">
        <ele>184</ele>
        <time>2023-01-30T13:09:05.000Z</time>
      </trkpt>
      <trkpt lat="48.79954" lon="5.14162">
        <ele>184</ele>
        <time>2023-01-30T13:09:06.000Z</time>
      </trkpt>
      <trkpt lat="48.79955" lon="5.14161">
        <ele>184</ele>
        <time>2023-01-30T13:09:07.000Z</time>
      </trkpt>
      <trkpt lat="48.79957" lon="5.1416">
        <ele>184</ele>
        <time>2023-01-30T13:09:08.000Z</time>
      </trkpt>
      <trkpt lat="48.79958" lon="5.14159">
        <ele>184</ele>
        <time>2023-01-30T13:09:09.000Z</time>
      </trkpt>
      <trkpt lat="48.7996" lon="5.14158">
        <ele>184.3</ele>
        <time>2023-01-30T13:09:10.000Z</time>
      </trkpt>
      <trkpt lat="48.79961" lon="5.14158">
        <ele>184.7</ele>
        <time>2023-01-30T13:09:11.000Z</time>
      </trkpt>
      <trkpt lat="48.79962" lon="5.14157">
        <ele>185</ele>
        <time>2023-01-30T13:09:12.000Z</time>
      </trkpt>
      <trkpt lat="48.79963" lon="5.14157">
        <ele>185</ele>
        <time>2023-01-30T13:09:13.000Z</time>
      </trkpt>
      <trkpt lat="48.79964" lon="5.14157">
        <ele>185</ele>
        <time>2023-01-30T13:09:14.000Z</time>
      </trkpt>
      <trkpt lat="48.79966" lon="5.14156">
        <ele>185</ele>
        <time>2023-01-30T13:09:15.000Z</time>
      </trkpt>
      <trkpt lat="48.79967" lon="5.14156">
        <ele>185</ele>
        <time>2023-01-30T13:09:16.000Z</time>
      </trkpt>
      <trkpt lat="48.79968" lon="5.14156">
        <ele>185</ele>
        <time>2023-01-30T13:09:17.000Z</time>
      </trkpt>
      <trkpt lat="48.79969" lon="5.14155">
        <ele>185</ele>
        <time>2023-01-30T13:09:18.000Z</time>
      </trkpt>
      <trkpt lat="48.7997" lon="5.14155">
        <ele>185</ele>
        <time>2023-01-30T13:09:19.000Z</time>
      </trkpt>
      <trkpt lat="48.79971" lon="5.14154">
        <ele>185</ele>
        <time>2023-01-30T13:09:20.000Z</time>
      </trkpt>
      <trkpt lat="48.79972" lon="5.14154">
        <ele>185</ele>
        <time>2023-01-30T13:09:21.000Z</time>
      </trkpt>
      <trkpt lat="48.79973" lon="5.14154">
        <ele>185</ele>
        <time>2023-01-30T13:09:22.000Z</time>
      </trkpt>
      <trkpt lat="48.79974" lon="5.14153">
        <ele>186</ele>
        <time>2023-01-30T13:09:23.000Z</time>
      </trkpt>
      <trkpt lat="48.79975" lon="5.14153">
        <ele>186</ele>
        <time>2023-01-30T13:09:24.000Z</time>
      </trkpt>
      <trkpt lat="48.79976" lon="5.14152">
        <ele>186</ele>
        <time>2023-01-30T13:09:25.000Z</time>
      </trkpt>
      <trkpt lat="48.79977" lon="5.14151">
        <ele>186</ele>
        <time>2023-01-30T13:09:26.000Z</time>
      </trkpt>
      <trkpt lat="48.79978" lon="5.1415">
        <ele>186</ele>
        <time>2023-01-30T13:09:27.000Z</time>
      </trkpt>
      <trkpt lat="48.79979" lon="5.14149">
        <ele>186</ele>
        <time>2023-01-30T13:09:28.000Z</time>
      </trkpt>
      <trkpt lat="48.79981" lon="5.14148">
        <ele>186</ele>
        <time>2023-01-30T13:09:29.000Z</time>
      </trkpt>
      <trkpt lat="48.79983" lon="5.14147">
        <ele>186</ele>
        <time>2023-01-30T13:09:30.000Z</time>
      </trkpt>
      <trkpt lat="48.79985" lon="5.14147">
        <ele>186</ele>
        <time>2023-01-30T13:09:31.000Z</time>
      </trkpt>
      <trkpt lat="48.79986" lon="5.14146">
        <ele>186</ele>
        <time>2023-01-30T13:09:32.000Z</time>
      </trkpt>
      <trkpt lat="48.79988" lon="5.14145">
        <ele>186</ele>
        <time>2023-01-30T13:09:33.000Z</time>
      </trkpt>
      <trkpt lat="48.7999" lon="5.14144">
        <ele>186.3</ele>
        <time>2023-01-30T13:09:34.000Z</time>
      </trkpt>
      <trkpt lat="48.79991" lon="5.14143">
        <ele>186.7</ele>
        <time>2023-01-30T13:09:35.000Z</time>
      </trkpt>
      <trkpt lat="48.79992" lon="5.14142">
        <ele>187</ele>
        <time>2023-01-30T13:09:36.000Z</time>
      </trkpt>
      <trkpt lat="48.79993" lon="5.14141">
        <ele>187</ele>
        <time>2023-01-30T13:09:37.000Z</time>
      </trkpt>
      <trkpt lat="48.79994" lon="5.14141">
        <ele>187</ele>
        <time>2023-01-30T13:09:38.000Z</time>
      </trkpt>
      <trkpt lat="48.79995" lon="5.1414">
        <ele>187</ele>
        <time>2023-01-30T13:09:39.000Z</time>
      </trkpt>
      <trkpt lat="48.79996" lon="5.1414">
        <ele>187</ele>
        <time>2023-01-30T13:09:40.000Z</time>
      </trkpt>
      <trkpt lat="48.79998" lon="5.1414">
        <ele>187</ele>
        <time>2023-01-30T13:09:41.000Z</time>
      </trkpt>
      <trkpt lat="48.79999" lon="5.1414">
        <ele>187</ele>
        <time>2023-01-30T13:09:42.000Z</time>
      </trkpt>
      <trkpt lat="48.80001" lon="5.1414">
        <ele>188</ele>
        <time>2023-01-30T13:09:43.000Z</time>
      </trkpt>
      <trkpt lat="48.80002" lon="5.1414">
        <ele>188</ele>
        <time>2023-01-30T13:09:44.000Z</time>
      </trkpt>
      <trkpt lat="48.80003" lon="5.14141">
        <ele>188</ele>
        <time>2023-01-30T13:09:45.000Z</time>
      </trkpt>
      <trkpt lat="48.80004" lon="5.14141">
        <ele>188</ele>
        <time>2023-01-30T13:09:46.000Z</time>
      </trkpt>
      <trkpt lat="48.80005" lon="5.14141">
        <ele>188</ele>
        <time>2023-01-30T13:09:47.000Z</time>
      </trkpt>
      <trkpt lat="48.80006" lon="5.14141">
        <ele>188</ele>
        <time>2023-01-30T13:09:48.000Z</time>
      </trkpt>
      <trkpt lat="48.80007" lon="5.14141">
        <ele>188</ele>
        <time>2023-01-30T13:09:49.000Z</time>
      </trkpt>
      <trkpt lat="48.80008" lon="5.14141">
        <ele>188</ele>
        <time>2023-01-30T13:09:50.000Z</time>
      </trkpt>
      <trkpt lat="48.80009" lon="5.14142">
        <ele>188</ele>
        <time>2023-01-30T13:09:51.000Z</time>
      </trkpt>
      <trkpt lat="48.8001" lon="5.14142">
        <ele>188.3</ele>
        <time>2023-01-30T13:09:52.000Z</time>
      </trkpt>
      <trkpt lat="48.80011" lon="5.14142">
        <ele>188.7</ele>
        <time>2023-01-30T13:09:53.000Z</time>
      </trkpt>
      <trkpt lat="48.80012" lon="5.14142">
        <ele>189</ele>
        <time>2023-01-30T13:09:54.000Z</time>
      </trkpt>
      <trkpt lat="48.80013" lon="5.14142">
        <ele>189</ele>
        <time>2023-01-30T13:09:55.000Z</time>
      </trkpt>
      <trkpt lat="48.80014" lon="5.14142">
        <ele>189</ele>
        <time>2023-01-30T13:09:56.000Z</time>
      </trkpt>
      <trkpt lat="48.80015" lon="5.14142">
        <ele>189</ele>
        <time>2023-01-30T13:09:57.000Z</time>
      </trkpt>
      <trkpt lat="48.80017" lon="5.14142">
        <ele>189</ele>
        <time>2023-01-30T13:09:58.000Z</time>
      </trkpt>
      <trkpt lat="48.80018" lon="5.14142">
        <ele>189</ele>
        <time>2023-01-30T13:09:59.000Z</time>
      </trkpt>
      <trkpt lat="48.8002" lon="5.14142">
        <ele>189</ele>
        <time>2023-01-30T13:10:00.000Z</time>
      </trkpt>
      <trkpt lat="48.80022" lon="5.14142">
        <ele>189</ele>
        <time>2023-01-30T13:10:01.000Z</time>
      </trkpt>
      <trkpt lat="48.80025" lon="5.14142">
        <ele>189</ele>
        <time>2023-01-30T13:10:02.000Z</time>
      </trkpt>
      <trkpt lat="48.80028" lon="5.14142">
        <ele>189</ele>
        <time>2023-01-30T13:10:03.000Z</time>
      </trkpt>
      <trkpt lat="48.8003" lon="5.14142">
        <ele>189.3</ele>
        <time>2023-01-30T13:10:04.000Z</time>
      </trkpt>
      <trkpt lat="48.80031" lon="5.14142">
        <ele>189.7</ele>
        <time>2023-01-30T13:10:05.000Z</time>
      </trkpt>
      <trkpt lat="48.80032" lon="5.14143">
        <ele>190</ele>
        <time>2023-01-30T13:10:06.000Z</time>
      </trkpt>
      <trkpt lat="48.80033" lon="5.14143">
        <ele>190</ele>
        <time>2023-01-30T13:10:07.000Z</time>
      </trkpt>
      <trkpt lat="48.80035" lon="5.14143">
        <ele>190</ele>
        <time>2023-01-30T13:10:08.000Z</time>
      </trkpt>
      <trkpt lat="48.80035" lon="5.14143">
        <ele>190</ele>
        <time>2023-01-30T13:10:09.000Z</time>
      </trkpt>
      <trkpt lat="48.80036" lon="5.14142">
        <ele>190</ele>
        <time>2023-01-30T13:10:10.000Z</time>
      </trkpt>
      <trkpt lat="48.80037" lon="5.14142">
        <ele>190</ele>
        <time>2023-01-30T13:10:11.000Z</time>
      </trkpt>
      <trkpt lat="48.80037" lon="5.14142">
        <ele>190</ele>
        <time>2023-01-30T13:10:12.000Z</time>
      </trkpt>
      <trkpt lat="48.80038" lon="5.14141">
        <ele>190.5</ele>
        <time>2023-01-30T13:10:13.000Z</time>
      </trkpt>
      <trkpt lat="48.80039" lon="5.14141">
        <ele>191</ele>
        <time>2023-01-30T13:10:14.000Z</time>
      </trkpt>
      <trkpt lat="48.80039" lon="5.14141">
        <ele>191</ele>
        <time>2023-01-30T13:10:15.000Z</time>
      </trkpt>
      <trkpt lat="48.80041" lon="5.14141">
        <ele>191</ele>
        <time>2023-01-30T13:10:16.000Z</time>
      </trkpt>
      <trkpt lat="48.80042" lon="5.14141">
        <ele>191</ele>
        <time>2023-01-30T13:10:17.000Z</time>
      </trkpt>
      <trkpt lat="48.80043" lon="5.14141">
        <ele>191</ele>
        <time>2023-01-30T13:10:18.000Z</time>
      </trkpt>
      <trkpt lat="48.80044" lon="5.14141">
        <ele>191</ele>
        <time>2023-01-30T13:10:19.000Z</time>
      </trkpt>
      <trkpt lat="48.80046" lon="5.14141">
        <ele>191</ele>
        <time>2023-01-30T13:10:20.000Z</time>
      </trkpt>
      <trkpt lat="48.80047" lon="5.14141">
        <ele>192</ele>
        <time>2023-01-30T13:10:21.000Z</time>
      </trkpt>
      <trkpt lat="48.80049" lon="5.14141">
        <ele>192</ele>
        <time>2023-01-30T13:10:22.000Z</time>
      </trkpt>
      <trkpt lat="48.80051" lon="5.14142">
        <ele>192</ele>
        <time>2023-01-30T13:10:23.000Z</time>
      </trkpt>
      <trkpt lat="48.80052" lon="5.14142">
        <ele>192</ele>
        <time>2023-01-30T13:10:24.000Z</time>
      </trkpt>
      <trkpt lat="48.80054" lon="5.14142">
        <ele>192</ele>
        <time>2023-01-30T13:10:25.000Z</time>
      </trkpt>
      <trkpt lat="48.80055" lon="5.14142">
        <ele>192</ele>
        <time>2023-01-30T13:10:26.000Z</time>
      </trkpt>
      <trkpt lat="48.80056" lon="5.14142">
        <ele>193</ele>
        <time>2023-01-30T13:10:27.000Z</time>
      </trkpt>
      <trkpt lat="48.80058" lon="5.14142">
        <ele>193</ele>
        <time>2023-01-30T13:10:28.000Z</time>
      </trkpt>
      <trkpt lat="48.80059" lon="5.14142">
        <ele>193</ele>
        <time>2023-01-30T13:10:29.000Z</time>
      </trkpt>
      <trkpt lat="48.80061" lon="5.14142">
        <ele>193</ele>
        <time>2023-01-30T13:10:30.000Z</time>
      </trkpt>
      <trkpt lat="48.80064" lon="5.14142">
        <ele>193</ele>
        <time>2023-01-30T13:10:31.000Z</time>
      </trkpt>
      <trkpt lat="48.80066" lon="5.14142">
        <ele>193</ele>
        <time>2023-01-30T13:10:32.000Z</time>
      </trkpt>
      <trkpt lat="48.80068" lon="5.14142">
        <ele>193</ele>
        <time>2023-01-30T13:10:33.000Z</time>
      </trkpt>
      <trkpt lat="48.80069" lon="5.14142">
        <ele>193.5</ele>
        <time>2023-01-30T13:10:34.000Z</time>
      </trkpt>
      <trkpt lat="48.80071" lon="5.14142">
        <ele>194</ele>
        <time>2023-01-30T13:10:35.000Z</time>
      </trkpt>
      <trkpt lat="48.80072" lon="5.14142">
        <ele>194</ele>
        <time>2023-01-30T13:10:36.000Z</time>
      </trkpt>
      <trkpt lat="48.80074" lon="5.14143">
        <ele>194</ele>
        <time>2023-01-30T13:10:37.000Z</time>
      </trkpt>
      <trkpt lat="48.80075" lon="5.14143">
        <ele>194</ele>
        <time>2023-01-30T13:10:38.000Z</time>
      </trkpt>
      <trkpt lat="48.80077" lon="5.14143">
        <ele>194</ele>
        <time>2023-01-30T13:10:39.000Z</time>
      </trkpt>
      <trkpt lat="48.80078" lon="5.14143">
        <ele>194.3</ele>
        <time>2023-01-30T13:10:40.000Z</time>
      </trkpt>
      <trkpt lat="48.8008" lon="5.14143">
        <ele>194.7</ele>
        <time>2023-01-30T13:10:41.000Z</time>
      </trkpt>
      <trkpt lat="48.80081" lon="5.14143">
        <ele>195</ele>
        <time>2023-01-30T13:10:42.000Z</time>
      </trkpt>
      <trkpt lat="48.80083" lon="5.14142">
        <ele>195</ele>
        <time>2023-01-30T13:10:43.000Z</time>
      </trkpt>
      <trkpt lat="48.80085" lon="5.14142">
        <ele>195</ele>
        <time>2023-01-30T13:10:44.000Z</time>
      </trkpt>
      <trkpt lat="48.80086" lon="5.14142">
        <ele>195</ele>
        <time>2023-01-30T13:10:45.000Z</time>
      </trkpt>
      <trkpt lat="48.80088" lon="5.14142">
        <ele>195.3</ele>
        <time>2023-01-30T13:10:46.000Z</time>
      </trkpt>
      <trkpt lat="48.8009" lon="5.14141">
        <ele>195.7</ele>
        <time>2023-01-30T13:10:47.000Z</time>
      </trkpt>
      <trkpt lat="48.80091" lon="5.1414">
        <ele>196</ele>
        <time>2023-01-30T13:10:48.000Z</time>
      </trkpt>
      <trkpt lat="48.80093" lon="5.14139">
        <ele>196</ele>
        <time>2023-01-30T13:10:49.000Z</time>
      </trkpt>
      <trkpt lat="48.80094" lon="5.14138">
        <ele>196</ele>
        <time>2023-01-30T13:10:50.000Z</time>
      </trkpt>
      <trkpt lat="48.80096" lon="5.14137">
        <ele>196</ele>
        <time>2023-01-30T13:10:51.000Z</time>
      </trkpt>
      <trkpt lat="48.80097" lon="5.14137">
        <ele>196.3</ele>
        <time>2023-01-30T13:10:52.000Z</time>
      </trkpt>
      <trkpt lat="48.80098" lon="5.14136">
        <ele>196.7</ele>
        <time>2023-01-30T13:10:53.000Z</time>
      </trkpt>
      <trkpt lat="48.801" lon="5.14136">
        <ele>197</ele>
        <time>2023-01-30T13:10:54.000Z</time>
      </trkpt>
      <trkpt lat="48.80102" lon="5.14135">
        <ele>197</ele>
        <time>2023-01-30T13:10:57.000Z</time>
      </trkpt>
      <trkpt lat="48.80105" lon="5.14133">
        <ele>197</ele>
        <time>2023-01-30T13:10:58.000Z</time>
      </trkpt>
      <trkpt lat="48.80108" lon="5.14132">
        <ele>197</ele>
        <time>2023-01-30T13:10:59.000Z</time>
      </trkpt>
      <trkpt lat="48.8011" lon="5.14131">
        <ele>197.3</ele>
        <time>2023-01-30T13:11:00.000Z</time>
      </trkpt>
      <trkpt lat="48.80112" lon="5.1413">
        <ele>197.7</ele>
        <time>2023-01-30T13:11:01.000Z</time>
      </trkpt>
      <trkpt lat="48.80113" lon="5.1413">
        <ele>198</ele>
        <time>2023-01-30T13:11:02.000Z</time>
      </trkpt>
      <trkpt lat="48.80115" lon="5.14129">
        <ele>198</ele>
        <time>2023-01-30T13:11:03.000Z</time>
      </trkpt>
      <trkpt lat="48.80117" lon="5.14129">
        <ele>198</ele>
        <time>2023-01-30T13:11:04.000Z</time>
      </trkpt>
      <trkpt lat="48.80118" lon="5.14129">
        <ele>198</ele>
        <time>2023-01-30T13:11:05.000Z</time>
      </trkpt>
      <trkpt lat="48.8012" lon="5.14129">
        <ele>198.5</ele>
        <time>2023-01-30T13:11:06.000Z</time>
      </trkpt>
      <trkpt lat="48.80121" lon="5.1413">
        <ele>199</ele>
        <time>2023-01-30T13:11:07.000Z</time>
      </trkpt>
      <trkpt lat="48.80123" lon="5.1413">
        <ele>199</ele>
        <time>2023-01-30T13:11:08.000Z</time>
      </trkpt>
      <trkpt lat="48.80124" lon="5.1413">
        <ele>199</ele>
        <time>2023-01-30T13:11:09.000Z</time>
      </trkpt>
      <trkpt lat="48.80126" lon="5.1413">
        <ele>199</ele>
        <time>2023-01-30T13:11:10.000Z</time>
      </trkpt>
      <trkpt lat="48.80127" lon="5.1413">
        <ele>199</ele>
        <time>2023-01-30T13:11:11.000Z</time>
      </trkpt>
      <trkpt lat="48.80128" lon="5.1413">
        <ele>199.3</ele>
        <time>2023-01-30T13:11:12.000Z</time>
      </trkpt>
      <trkpt lat="48.80129" lon="5.1413">
        <ele>199.7</ele>
        <time>2023-01-30T13:11:13.000Z</time>
      </trkpt>
      <trkpt lat="48.80131" lon="5.1413">
        <ele>200</ele>
        <time>2023-01-30T13:11:14.000Z</time>
      </trkpt>
      <trkpt lat="48.80132" lon="5.1413">
        <ele>200</ele>
        <time>2023-01-30T13:11:15.000Z</time>
      </trkpt>
      <trkpt lat="48.80133" lon="5.1413">
        <ele>200</ele>
        <time>2023-01-30T13:11:16.000Z</time>
      </trkpt>
      <trkpt lat="48.80135" lon="5.1413">
        <ele>200</ele>
        <time>2023-01-30T13:11:17.000Z</time>
      </trkpt>
      <trkpt lat="48.80136" lon="5.14129">
        <ele>200.3</ele>
        <time>2023-01-30T13:11:18.000Z</time>
      </trkpt>
      <trkpt lat="48.80138" lon="5.14129">
        <ele>200.7</ele>
        <time>2023-01-30T13:11:19.000Z</time>
      </trkpt>
      <trkpt lat="48.80139" lon="5.14129">
        <ele>201</ele>
        <time>2023-01-30T13:11:20.000Z</time>
      </trkpt>
      <trkpt lat="48.80141" lon="5.14129">
        <ele>201</ele>
        <time>2023-01-30T13:11:21.000Z</time>
      </trkpt>
      <trkpt lat="48.80142" lon="5.14129">
        <ele>201.3</ele>
        <time>2023-01-30T13:11:22.000Z</time>
      </trkpt>
      <trkpt lat="48.80143" lon="5.14129">
        <ele>201.7</ele>
        <time>2023-01-30T13:11:23.000Z</time>
      </trkpt>
      <trkpt lat="48.80145" lon="5.14128">
        <ele>202</ele>
        <time>2023-01-30T13:11:24.000Z</time>
      </trkpt>
      <trkpt lat="48.80146" lon="5.14128">
        <ele>202</ele>
        <time>2023-01-30T13:11:25.000Z</time>
      </trkpt>
      <trkpt lat="48.80148" lon="5.14128">
        <ele>202</ele>
        <time>2023-01-30T13:11:26.000Z</time>
      </trkpt>
      <trkpt lat="48.80149" lon="5.14127">
        <ele>202</ele>
        <time>2023-01-30T13:11:27.000Z</time>
      </trkpt>
      <trkpt lat="48.80151" lon="5.14127">
        <ele>202.3</ele>
        <time>2023-01-30T13:11:28.000Z</time>
      </trkpt>
      <trkpt lat="48.80152" lon="5.14127">
        <ele>202.7</ele>
        <time>2023-01-30T13:11:29.000Z</time>
      </trkpt>
      <trkpt lat="48.80153" lon="5.14127">
        <ele>203</ele>
        <time>2023-01-30T13:11:30.000Z</time>
      </trkpt>
      <trkpt lat="48.80154" lon="5.14127">
        <ele>203</ele>
        <time>2023-01-30T13:11:31.000Z</time>
      </trkpt>
      <trkpt lat="48.80155" lon="5.14127">
        <ele>203</ele>
        <time>2023-01-30T13:11:32.000Z</time>
      </trkpt>
      <trkpt lat="48.80157" lon="5.14127">
        <ele>203</ele>
        <time>2023-01-30T13:11:33.000Z</time>
      </trkpt>
      <trkpt lat="48.80158" lon="5.14126">
        <ele>203</ele>
        <time>2023-01-30T13:11:34.000Z</time>
      </trkpt>
      <trkpt lat="48.80159" lon="5.14126">
        <ele>204</ele>
        <time>2023-01-30T13:11:35.000Z</time>
      </trkpt>
      <trkpt lat="48.8016" lon="5.14125">
        <ele>204</ele>
        <time>2023-01-30T13:11:36.000Z</time>
      </trkpt>
      <trkpt lat="48.80161" lon="5.14125">
        <ele>204</ele>
        <time>2023-01-30T13:11:37.000Z</time>
      </trkpt>
      <trkpt lat="48.80162" lon="5.14125">
        <ele>204</ele>
        <time>2023-01-30T13:11:38.000Z</time>
      </trkpt>
      <trkpt lat="48.80164" lon="5.14125">
        <ele>204</ele>
        <time>2023-01-30T13:11:39.000Z</time>
      </trkpt>
      <trkpt lat="48.80165" lon="5.14126">
        <ele>204.3</ele>
        <time>2023-01-30T13:11:40.000Z</time>
      </trkpt>
      <trkpt lat="48.80166" lon="5.14126">
        <ele>204.7</ele>
        <time>2023-01-30T13:11:41.000Z</time>
      </trkpt>
      <trkpt lat="48.80167" lon="5.14126">
        <ele>205</ele>
        <time>2023-01-30T13:11:42.000Z</time>
      </trkpt>
      <trkpt lat="48.80168" lon="5.14126">
        <ele>205</ele>
        <time>2023-01-30T13:11:43.000Z</time>
      </trkpt>
      <trkpt lat="48.8017" lon="5.14126">
        <ele>205</ele>
        <time>2023-01-30T13:11:44.000Z</time>
      </trkpt>
      <trkpt lat="48.80171" lon="5.14126">
        <ele>205</ele>
        <time>2023-01-30T13:11:45.000Z</time>
      </trkpt>
      <trkpt lat="48.80172" lon="5.14126">
        <ele>205.5</ele>
        <time>2023-01-30T13:11:46.000Z</time>
      </trkpt>
      <trkpt lat="48.80173" lon="5.14126">
        <ele>206</ele>
        <time>2023-01-30T13:11:47.000Z</time>
      </trkpt>
      <trkpt lat="48.80174" lon="5.14126">
        <ele>206</ele>
        <time>2023-01-30T13:11:48.000Z</time>
      </trkpt>
      <trkpt lat="48.80175" lon="5.14126">
        <ele>206</ele>
        <time>2023-01-30T13:11:49.000Z</time>
      </trkpt>
      <trkpt lat="48.80176" lon="5.14126">
        <ele>206</ele>
        <time>2023-01-30T13:11:50.000Z</time>
      </trkpt>
      <trkpt lat="48.80177" lon="5.14126">
        <ele>206</ele>
        <time>2023-01-30T13:11:51.000Z</time>
      </trkpt>
      <trkpt lat="48.80177" lon="5.14126">
        <ele>206.5</ele>
        <time>2023-01-30T13:11:52.000Z</time>
      </trkpt>
      <trkpt lat="48.80178" lon="5.14126">
        <ele>207</ele>
        <time>2023-01-30T13:11:53.000Z</time>
      </trkpt>
      <trkpt lat="48.80179" lon="5.14126">
        <ele>207</ele>
        <time>2023-01-30T13:11:54.000Z</time>
      </trkpt>
      <trkpt lat="48.8018" lon="5.14125">
        <ele>207</ele>
        <time>2023-01-30T13:11:55.000Z</time>
      </trkpt>
      <trkpt lat="48.80182" lon="5.14125">
        <ele>207</ele>
        <time>2023-01-30T13:11:56.000Z</time>
      </trkpt>
      <trkpt lat="48.80184" lon="5.14125">
        <ele>207</ele>
        <time>2023-01-30T13:11:57.000Z</time>
      </trkpt>
      <trkpt lat="48.80185" lon="5.14126">
        <ele>207</ele>
        <time>2023-01-30T13:11:58.000Z</time>
      </trkpt>
      <trkpt lat="48.80187" lon="5.14126">
        <ele>207.5</ele>
        <time>2023-01-30T13:11:59.000Z</time>
      </trkpt>
      <trkpt lat="48.80189" lon="5.14126">
        <ele>208</ele>
        <time>2023-01-30T13:12:00.000Z</time>
      </trkpt>
      <trkpt lat="48.8019" lon="5.14126">
        <ele>208</ele>
        <time>2023-01-30T13:12:01.000Z</time>
      </trkpt>
      <trkpt lat="48.80192" lon="5.14126">
        <ele>208</ele>
        <time>2023-01-30T13:12:02.000Z</time>
      </trkpt>
      <trkpt lat="48.80194" lon="5.14126">
        <ele>208</ele>
        <time>2023-01-30T13:12:03.000Z</time>
      </trkpt>
      <trkpt lat="48.80195" lon="5.14125">
        <ele>208</ele>
        <time>2023-01-30T13:12:04.000Z</time>
      </trkpt>
      <trkpt lat="48.80197" lon="5.14125">
        <ele>208</ele>
        <time>2023-01-30T13:12:05.000Z</time>
      </trkpt>
      <trkpt lat="48.80198" lon="5.14125">
        <ele>208.3</ele>
        <time>2023-01-30T13:12:06.000Z</time>
      </trkpt>
      <trkpt lat="48.80199" lon="5.14125">
        <ele>208.7</ele>
        <time>2023-01-30T13:12:07.000Z</time>
      </trkpt>
      <trkpt lat="48.802" lon="5.14125">
        <ele>209</ele>
        <time>2023-01-30T13:12:08.000Z</time>
      </trkpt>
      <trkpt lat="48.80201" lon="5.14125">
        <ele>209</ele>
        <time>2023-01-30T13:12:09.000Z</time>
      </trkpt>
      <trkpt lat="48.80203" lon="5.14124">
        <ele>209</ele>
        <time>2023-01-30T13:12:10.000Z</time>
      </trkpt>
      <trkpt lat="48.80204" lon="5.14124">
        <ele>209</ele>
        <time>2023-01-30T13:12:11.000Z</time>
      </trkpt>
      <trkpt lat="48.80205" lon="5.14124">
        <ele>209</ele>
        <time>2023-01-30T13:12:12.000Z</time>
      </trkpt>
      <trkpt lat="48.80207" lon="5.14123">
        <ele>209</ele>
        <time>2023-01-30T13:12:13.000Z</time>
      </trkpt>
      <trkpt lat="48.80208" lon="5.14123">
        <ele>209</ele>
        <time>2023-01-30T13:12:14.000Z</time>
      </trkpt>
      <trkpt lat="48.80209" lon="5.14123">
        <ele>210</ele>
        <time>2023-01-30T13:12:15.000Z</time>
      </trkpt>
      <trkpt lat="48.80211" lon="5.14123">
        <ele>210</ele>
        <time>2023-01-30T13:12:16.000Z</time>
      </trkpt>
      <trkpt lat="48.80213" lon="5.14123">
        <ele>210</ele>
        <time>2023-01-30T13:12:17.000Z</time>
      </trkpt>
      <trkpt lat="48.80215" lon="5.14123">
        <ele>210</ele>
        <time>2023-01-30T13:12:18.000Z</time>
      </trkpt>
      <trkpt lat="48.80216" lon="5.14123">
        <ele>210</ele>
        <time>2023-01-30T13:12:19.000Z</time>
      </trkpt>
      <trkpt lat="48.80218" lon="5.14122">
        <ele>210</ele>
        <time>2023-01-30T13:12:20.000Z</time>
      </trkpt>
      <trkpt lat="48.80219" lon="5.14122">
        <ele>210</ele>
        <time>2023-01-30T13:12:21.000Z</time>
      </trkpt>
      <trkpt lat="48.8022" lon="5.14121">
        <ele>210</ele>
        <time>2023-01-30T13:12:22.000Z</time>
      </trkpt>
      <trkpt lat="48.80221" lon="5.14121">
        <ele>210</ele>
        <time>2023-01-30T13:12:23.000Z</time>
      </trkpt>
      <trkpt lat="48.80222" lon="5.14121">
        <ele>210</ele>
        <time>2023-01-30T13:12:24.000Z</time>
      </trkpt>
      <trkpt lat="48.80223" lon="5.1412">
        <ele>211</ele>
        <time>2023-01-30T13:12:25.000Z</time>
      </trkpt>
      <trkpt lat="48.80225" lon="5.1412">
        <ele>211</ele>
        <time>2023-01-30T13:12:26.000Z</time>
      </trkpt>
      <trkpt lat="48.80228" lon="5.14119">
        <ele>211</ele>
        <time>2023-01-30T13:12:27.000Z</time>
      </trkpt>
      <trkpt lat="48.8023" lon="5.14119">
        <ele>211</ele>
        <time>2023-01-30T13:12:28.000Z</time>
      </trkpt>
      <trkpt lat="48.80232" lon="5.14118">
        <ele>211</ele>
        <time>2023-01-30T13:12:29.000Z</time>
      </trkpt>
      <trkpt lat="48.80234" lon="5.14118">
        <ele>211</ele>
        <time>2023-01-30T13:12:30.000Z</time>
      </trkpt>
      <trkpt lat="48.80235" lon="5.14118">
        <ele>211</ele>
        <time>2023-01-30T13:12:31.000Z</time>
      </trkpt>
      <trkpt lat="48.80236" lon="5.14117">
        <ele>211</ele>
        <time>2023-01-30T13:12:32.000Z</time>
      </trkpt>
      <trkpt lat="48.80238" lon="5.14117">
        <ele>211</ele>
        <time>2023-01-30T13:12:33.000Z</time>
      </trkpt>
      <trkpt lat="48.80239" lon="5.14116">
        <ele>211.3</ele>
        <time>2023-01-30T13:12:34.000Z</time>
      </trkpt>
      <trkpt lat="48.8024" lon="5.14116">
        <ele>211.7</ele>
        <time>2023-01-30T13:12:35.000Z</time>
      </trkpt>
      <trkpt lat="48.80242" lon="5.14115">
        <ele>212</ele>
        <time>2023-01-30T13:12:36.000Z</time>
      </trkpt>
      <trkpt lat="48.80243" lon="5.14115">
        <ele>212</ele>
        <time>2023-01-30T13:12:37.000Z</time>
      </trkpt>
      <trkpt lat="48.80244" lon="5.14114">
        <ele>212</ele>
        <time>2023-01-30T13:12:38.000Z</time>
      </trkpt>
      <trkpt lat="48.80246" lon="5.14114">
        <ele>212</ele>
        <time>2023-01-30T13:12:39.000Z</time>
      </trkpt>
      <trkpt lat="48.80247" lon="5.14113">
        <ele>212</ele>
        <time>2023-01-30T13:12:40.000Z</time>
      </trkpt>
      <trkpt lat="48.80249" lon="5.14113">
        <ele>212</ele>
        <time>2023-01-30T13:12:41.000Z</time>
      </trkpt>
      <trkpt lat="48.80251" lon="5.14112">
        <ele>212</ele>
        <time>2023-01-30T13:12:42.000Z</time>
      </trkpt>
      <trkpt lat="48.80253" lon="5.14112">
        <ele>213</ele>
        <time>2023-01-30T13:12:43.000Z</time>
      </trkpt>
      <trkpt lat="48.80254" lon="5.14112">
        <ele>213</ele>
        <time>2023-01-30T13:12:44.000Z</time>
      </trkpt>
      <trkpt lat="48.80256" lon="5.14111">
        <ele>213</ele>
        <time>2023-01-30T13:12:45.000Z</time>
      </trkpt>
      <trkpt lat="48.80258" lon="5.14111">
        <ele>213</ele>
        <time>2023-01-30T13:12:46.000Z</time>
      </trkpt>
      <trkpt lat="48.80259" lon="5.1411">
        <ele>213</ele>
        <time>2023-01-30T13:12:47.000Z</time>
      </trkpt>
      <trkpt lat="48.80261" lon="5.1411">
        <ele>213.3</ele>
        <time>2023-01-30T13:12:48.000Z</time>
      </trkpt>
      <trkpt lat="48.80262" lon="5.14109">
        <ele>213.7</ele>
        <time>2023-01-30T13:12:49.000Z</time>
      </trkpt>
      <trkpt lat="48.80264" lon="5.14109">
        <ele>214</ele>
        <time>2023-01-30T13:12:50.000Z</time>
      </trkpt>
      <trkpt lat="48.80265" lon="5.14108">
        <ele>214</ele>
        <time>2023-01-30T13:12:51.000Z</time>
      </trkpt>
      <trkpt lat="48.80266" lon="5.14108">
        <ele>214</ele>
        <time>2023-01-30T13:12:52.000Z</time>
      </trkpt>
      <trkpt lat="48.80268" lon="5.14107">
        <ele>214</ele>
        <time>2023-01-30T13:12:53.000Z</time>
      </trkpt>
      <trkpt lat="48.8027" lon="5.14107">
        <ele>214</ele>
        <time>2023-01-30T13:12:54.000Z</time>
      </trkpt>
      <trkpt lat="48.80272" lon="5.14106">
        <ele>214</ele>
        <time>2023-01-30T13:12:55.000Z</time>
      </trkpt>
      <trkpt lat="48.80274" lon="5.14106">
        <ele>214</ele>
        <time>2023-01-30T13:12:56.000Z</time>
      </trkpt>
      <trkpt lat="48.80276" lon="5.14105">
        <ele>215</ele>
        <time>2023-01-30T13:12:57.000Z</time>
      </trkpt>
      <trkpt lat="48.80277" lon="5.14104">
        <ele>215</ele>
        <time>2023-01-30T13:12:58.000Z</time>
      </trkpt>
      <trkpt lat="48.80279" lon="5.14103">
        <ele>215</ele>
        <time>2023-01-30T13:12:59.000Z</time>
      </trkpt>
      <trkpt lat="48.80281" lon="5.14102">
        <ele>215</ele>
        <time>2023-01-30T13:13:00.000Z</time>
      </trkpt>
      <trkpt lat="48.80282" lon="5.14103">
        <ele>215</ele>
        <time>2023-01-30T13:13:01.000Z</time>
      </trkpt>
      <trkpt lat="48.80283" lon="5.14103">
        <ele>215</ele>
        <time>2023-01-30T13:13:02.000Z</time>
      </trkpt>
      <trkpt lat="48.80284" lon="5.14103">
        <ele>215</ele>
        <time>2023-01-30T13:13:03.000Z</time>
      </trkpt>
      <trkpt lat="48.80285" lon="5.14103">
        <ele>215</ele>
        <time>2023-01-30T13:13:04.000Z</time>
      </trkpt>
      <trkpt lat="48.80287" lon="5.14103">
        <ele>215.5</ele>
        <time>2023-01-30T13:13:05.000Z</time>
      </trkpt>
      <trkpt lat="48.80289" lon="5.14103">
        <ele>216</ele>
        <time>2023-01-30T13:13:06.000Z</time>
      </trkpt>
      <trkpt lat="48.80291" lon="5.14103">
        <ele>216</ele>
        <time>2023-01-30T13:13:07.000Z</time>
      </trkpt>
      <trkpt lat="48.80292" lon="5.14102">
        <ele>216</ele>
        <time>2023-01-30T13:13:08.000Z</time>
      </trkpt>
      <trkpt lat="48.80294" lon="5.14101">
        <ele>216</ele>
        <time>2023-01-30T13:13:09.000Z</time>
      </trkpt>
      <trkpt lat="48.80296" lon="5.14101">
        <ele>216.3</ele>
        <time>2023-01-30T13:13:10.000Z</time>
      </trkpt>
      <trkpt lat="48.80298" lon="5.14101">
        <ele>216.7</ele>
        <time>2023-01-30T13:13:11.000Z</time>
      </trkpt>
      <trkpt lat="48.80299" lon="5.14101">
        <ele>217</ele>
        <time>2023-01-30T13:13:12.000Z</time>
      </trkpt>
      <trkpt lat="48.80302" lon="5.14101">
        <ele>217</ele>
        <time>2023-01-30T13:13:13.000Z</time>
      </trkpt>
      <trkpt lat="48.80304" lon="5.14101">
        <ele>217</ele>
        <time>2023-01-30T13:13:14.000Z</time>
      </trkpt>
      <trkpt lat="48.80306" lon="5.14102">
        <ele>217</ele>
        <time>2023-01-30T13:13:15.000Z</time>
      </trkpt>
      <trkpt lat="48.80308" lon="5.14102">
        <ele>217.3</ele>
        <time>2023-01-30T13:13:16.000Z</time>
      </trkpt>
      <trkpt lat="48.80309" lon="5.14102">
        <ele>217.7</ele>
        <time>2023-01-30T13:13:17.000Z</time>
      </trkpt>
      <trkpt lat="48.80311" lon="5.14102">
        <ele>218</ele>
        <time>2023-01-30T13:13:18.000Z</time>
      </trkpt>
      <trkpt lat="48.80312" lon="5.14102">
        <ele>218</ele>
        <time>2023-01-30T13:13:19.000Z</time>
      </trkpt>
      <trkpt lat="48.80314" lon="5.14101">
        <ele>218</ele>
        <time>2023-01-30T13:13:20.000Z</time>
      </trkpt>
      <trkpt lat="48.80315" lon="5.14101">
        <ele>218</ele>
        <time>2023-01-30T13:13:21.000Z</time>
      </trkpt>
      <trkpt lat="48.80316" lon="5.14101">
        <ele>218</ele>
        <time>2023-01-30T13:13:22.000Z</time>
      </trkpt>
      <trkpt lat="48.80318" lon="5.141">
        <ele>218</ele>
        <time>2023-01-30T13:13:23.000Z</time>
      </trkpt>
      <trkpt lat="48.8032" lon="5.141">
        <ele>218.5</ele>
        <time>2023-01-30T13:13:24.000Z</time>
      </trkpt>
      <trkpt lat="48.80321" lon="5.14099">
        <ele>219</ele>
        <time>2023-01-30T13:13:25.000Z</time>
      </trkpt>
      <trkpt lat="48.80323" lon="5.14099">
        <ele>219</ele>
        <time>2023-01-30T13:13:26.000Z</time>
      </trkpt>
      <trkpt lat="48.80324" lon="5.14099">
        <ele>219</ele>
        <time>2023-01-30T13:13:27.000Z</time>
      </trkpt>
      <trkpt lat="48.80325" lon="5.141">
        <ele>219</ele>
        <time>2023-01-30T13:13:28.000Z</time>
      </trkpt>
      <trkpt lat="48.80327" lon="5.14099">
        <ele>219</ele>
        <time>2023-01-30T13:13:29.000Z</time>
      </trkpt>
      <trkpt lat="48.80328" lon="5.141">
        <ele>219.3</ele>
        <time>2023-01-30T13:13:30.000Z</time>
      </trkpt>
      <trkpt lat="48.8033" lon="5.141">
        <ele>219.7</ele>
        <time>2023-01-30T13:13:31.000Z</time>
      </trkpt>
      <trkpt lat="48.80331" lon="5.141">
        <ele>220</ele>
        <time>2023-01-30T13:13:32.000Z</time>
      </trkpt>
      <trkpt lat="48.80332" lon="5.14101">
        <ele>220</ele>
        <time>2023-01-30T13:13:33.000Z</time>
      </trkpt>
      <trkpt lat="48.80334" lon="5.14101">
        <ele>220</ele>
        <time>2023-01-30T13:13:34.000Z</time>
      </trkpt>
      <trkpt lat="48.80335" lon="5.14101">
        <ele>220</ele>
        <time>2023-01-30T13:13:35.000Z</time>
      </trkpt>
      <trkpt lat="48.80337" lon="5.14101">
        <ele>220</ele>
        <time>2023-01-30T13:13:36.000Z</time>
      </trkpt>
      <trkpt lat="48.80338" lon="5.14101">
        <ele>220</ele>
        <time>2023-01-30T13:13:37.000Z</time>
      </trkpt>
      <trkpt lat="48.80339" lon="5.14101">
        <ele>220</ele>
        <time>2023-01-30T13:13:38.000Z</time>
      </trkpt>
      <trkpt lat="48.8034" lon="5.14101">
        <ele>220</ele>
        <time>2023-01-30T13:13:39.000Z</time>
      </trkpt>
      <trkpt lat="48.80341" lon="5.14102">
        <ele>220</ele>
        <time>2023-01-30T13:13:40.000Z</time>
      </trkpt>
      <trkpt lat="48.80342" lon="5.14102">
        <ele>220</ele>
        <time>2023-01-30T13:13:41.000Z</time>
      </trkpt>
      <trkpt lat="48.80343" lon="5.14102">
        <ele>220</ele>
        <time>2023-01-30T13:13:42.000Z</time>
      </trkpt>
      <trkpt lat="48.80344" lon="5.14102">
        <ele>221</ele>
        <time>2023-01-30T13:13:43.000Z</time>
      </trkpt>
      <trkpt lat="48.80345" lon="5.14102">
        <ele>221</ele>
        <time>2023-01-30T13:13:44.000Z</time>
      </trkpt>
      <trkpt lat="48.80346" lon="5.14102">
        <ele>221</ele>
        <time>2023-01-30T13:13:45.000Z</time>
      </trkpt>
      <trkpt lat="48.80347" lon="5.14102">
        <ele>221</ele>
        <time>2023-01-30T13:13:46.000Z</time>
      </trkpt>
      <trkpt lat="48.80348" lon="5.14103">
        <ele>221</ele>
        <time>2023-01-30T13:13:47.000Z</time>
      </trkpt>
      <trkpt lat="48.80349" lon="5.14105">
        <ele>221</ele>
        <time>2023-01-30T13:13:48.000Z</time>
      </trkpt>
      <trkpt lat="48.80349" lon="5.14107">
        <ele>221</ele>
        <time>2023-01-30T13:13:49.000Z</time>
      </trkpt>
      <trkpt lat="48.80349" lon="5.14109">
        <ele>221</ele>
        <time>2023-01-30T13:13:50.000Z</time>
      </trkpt>
      <trkpt lat="48.80349" lon="5.14111">
        <ele>221</ele>
        <time>2023-01-30T13:13:51.000Z</time>
      </trkpt>
      <trkpt lat="48.80348" lon="5.14114">
        <ele>221</ele>
        <time>2023-01-30T13:13:52.000Z</time>
      </trkpt>
      <trkpt lat="48.80347" lon="5.14116">
        <ele>221</ele>
        <time>2023-01-30T13:13:53.000Z</time>
      </trkpt>
      <trkpt lat="48.80346" lon="5.14118">
        <ele>221</ele>
        <time>2023-01-30T13:13:54.000Z</time>
      </trkpt>
      <trkpt lat="48.80345" lon="5.1412">
        <ele>221</ele>
        <time>2023-01-30T13:13:55.000Z</time>
      </trkpt>
      <trkpt lat="48.80345" lon="5.14121">
        <ele>221</ele>
        <time>2023-01-30T13:13:56.000Z</time>
      </trkpt>
      <trkpt lat="48.80345" lon="5.14122">
        <ele>220</ele>
        <time>2023-01-30T13:13:57.000Z</time>
      </trkpt>
      <trkpt lat="48.80345" lon="5.14122">
        <ele>220</ele>
        <time>2023-01-30T13:13:58.000Z</time>
      </trkpt>
      <trkpt lat="48.80345" lon="5.14123">
        <ele>220</ele>
        <time>2023-01-30T13:13:59.000Z</time>
      </trkpt>
      <trkpt lat="48.80345" lon="5.14123">
        <ele>220</ele>
        <time>2023-01-30T13:14:00.000Z</time>
      </trkpt>
      <trkpt lat="48.80345" lon="5.14123">
        <ele>220</ele>
        <time>2023-01-30T13:14:01.000Z</time>
      </trkpt>
      <trkpt lat="48.80344" lon="5.14124">
        <ele>220</ele>
        <time>2023-01-30T13:14:02.000Z</time>
      </trkpt>
      <trkpt lat="48.80344" lon="5.14126">
        <ele>219</ele>
        <time>2023-01-30T13:14:03.000Z</time>
      </trkpt>
      <trkpt lat="48.80343" lon="5.14128">
        <ele>219</ele>
        <time>2023-01-30T13:14:04.000Z</time>
      </trkpt>
      <trkpt lat="48.80343" lon="5.1413">
        <ele>219</ele>
        <time>2023-01-30T13:14:05.000Z</time>
      </trkpt>
      <trkpt lat="48.80342" lon="5.14131">
        <ele>219</ele>
        <time>2023-01-30T13:14:06.000Z</time>
      </trkpt>
      <trkpt lat="48.80341" lon="5.14132">
        <ele>219</ele>
        <time>2023-01-30T13:14:07.000Z</time>
      </trkpt>
      <trkpt lat="48.8034" lon="5.14134">
        <ele>218.7</ele>
        <time>2023-01-30T13:14:08.000Z</time>
      </trkpt>
      <trkpt lat="48.8034" lon="5.14135">
        <ele>218.3</ele>
        <time>2023-01-30T13:14:09.000Z</time>
      </trkpt>
      <trkpt lat="48.80339" lon="5.14137">
        <ele>218</ele>
        <time>2023-01-30T13:14:10.000Z</time>
      </trkpt>
      <trkpt lat="48.80338" lon="5.14138">
        <ele>218</ele>
        <time>2023-01-30T13:14:11.000Z</time>
      </trkpt>
      <trkpt lat="48.80338" lon="5.1414">
        <ele>218</ele>
        <time>2023-01-30T13:14:12.000Z</time>
      </trkpt>
      <trkpt lat="48.80337" lon="5.14142">
        <ele>218</ele>
        <time>2023-01-30T13:14:13.000Z</time>
      </trkpt>
      <trkpt lat="48.80337" lon="5.14143">
        <ele>218</ele>
        <time>2023-01-30T13:14:14.000Z</time>
      </trkpt>
      <trkpt lat="48.80336" lon="5.14144">
        <ele>218</ele>
        <time>2023-01-30T13:14:15.000Z</time>
      </trkpt>
      <trkpt lat="48.80335" lon="5.14145">
        <ele>218</ele>
        <time>2023-01-30T13:14:16.000Z</time>
      </trkpt>
      <trkpt lat="48.80334" lon="5.14146">
        <ele>217.5</ele>
        <time>2023-01-30T13:14:17.000Z</time>
      </trkpt>
      <trkpt lat="48.80333" lon="5.14147">
        <ele>217</ele>
        <time>2023-01-30T13:14:18.000Z</time>
      </trkpt>
      <trkpt lat="48.80332" lon="5.14147">
        <ele>217</ele>
        <time>2023-01-30T13:14:19.000Z</time>
      </trkpt>
      <trkpt lat="48.80331" lon="5.14147">
        <ele>217</ele>
        <time>2023-01-30T13:14:20.000Z</time>
      </trkpt>
      <trkpt lat="48.8033" lon="5.14147">
        <ele>217</ele>
        <time>2023-01-30T13:14:21.000Z</time>
      </trkpt>
      <trkpt lat="48.80329" lon="5.14146">
        <ele>217</ele>
        <time>2023-01-30T13:14:22.000Z</time>
      </trkpt>
      <trkpt lat="48.80328" lon="5.14146">
        <ele>217</ele>
        <time>2023-01-30T13:14:23.000Z</time>
      </trkpt>
      <trkpt lat="48.80326" lon="5.14146">
        <ele>217</ele>
        <time>2023-01-30T13:14:24.000Z</time>
      </trkpt>
      <trkpt lat="48.80325" lon="5.14145">
        <ele>217</ele>
        <time>2023-01-30T13:14:25.000Z</time>
      </trkpt>
      <trkpt lat="48.80324" lon="5.14145">
        <ele>217</ele>
        <time>2023-01-30T13:14:26.000Z</time>
      </trkpt>
      <trkpt lat="48.80323" lon="5.14145">
        <ele>217</ele>
        <time>2023-01-30T13:14:27.000Z</time>
      </trkpt>
      <trkpt lat="48.80322" lon="5.14144">
        <ele>217</ele>
        <time>2023-01-30T13:14:28.000Z</time>
      </trkpt>
      <trkpt lat="48.80321" lon="5.14144">
        <ele>216.5</ele>
        <time>2023-01-30T13:14:29.000Z</time>
      </trkpt>
      <trkpt lat="48.8032" lon="5.14144">
        <ele>216</ele>
        <time>2023-01-30T13:14:30.000Z</time>
      </trkpt>
      <trkpt lat="48.8032" lon="5.14144">
        <ele>216</ele>
        <time>2023-01-30T13:14:31.000Z</time>
      </trkpt>
      <trkpt lat="48.80319" lon="5.14144">
        <ele>216</ele>
        <time>2023-01-30T13:14:32.000Z</time>
      </trkpt>
      <trkpt lat="48.80318" lon="5.14144">
        <ele>216</ele>
        <time>2023-01-30T13:14:33.000Z</time>
      </trkpt>
      <trkpt lat="48.80317" lon="5.14144">
        <ele>216</ele>
        <time>2023-01-30T13:14:34.000Z</time>
      </trkpt>
      <trkpt lat="48.80315" lon="5.14145">
        <ele>216</ele>
        <time>2023-01-30T13:14:35.000Z</time>
      </trkpt>
      <trkpt lat="48.80314" lon="5.14146">
        <ele>216</ele>
        <time>2023-01-30T13:14:36.000Z</time>
      </trkpt>
      <trkpt lat="48.80313" lon="5.14147">
        <ele>216</ele>
        <time>2023-01-30T13:14:37.000Z</time>
      </trkpt>
      <trkpt lat="48.80312" lon="5.14149">
        <ele>216</ele>
        <time>2023-01-30T13:14:38.000Z</time>
      </trkpt>
      <trkpt lat="48.80312" lon="5.1415">
        <ele>216</ele>
        <time>2023-01-30T13:14:39.000Z</time>
      </trkpt>
      <trkpt lat="48.80311" lon="5.14152">
        <ele>216</ele>
        <time>2023-01-30T13:14:40.000Z</time>
      </trkpt>
      <trkpt lat="48.8031" lon="5.14153">
        <ele>216</ele>
        <time>2023-01-30T13:14:41.000Z</time>
      </trkpt>
      <trkpt lat="48.80309" lon="5.14155">
        <ele>216</ele>
        <time>2023-01-30T13:14:42.000Z</time>
      </trkpt>
      <trkpt lat="48.80306" lon="5.14156">
        <ele>216</ele>
        <time>2023-01-30T13:14:43.000Z</time>
      </trkpt>
      <trkpt lat="48.80304" lon="5.14156">
        <ele>216</ele>
        <time>2023-01-30T13:14:44.000Z</time>
      </trkpt>
      <trkpt lat="48.80302" lon="5.14157">
        <ele>216</ele>
        <time>2023-01-30T13:14:45.000Z</time>
      </trkpt>
      <trkpt lat="48.803" lon="5.14156">
        <ele>216</ele>
        <time>2023-01-30T13:14:46.000Z</time>
      </trkpt>
      <trkpt lat="48.80299" lon="5.14156">
        <ele>216</ele>
        <time>2023-01-30T13:14:47.000Z</time>
      </trkpt>
      <trkpt lat="48.80297" lon="5.14156">
        <ele>216</ele>
        <time>2023-01-30T13:14:48.000Z</time>
      </trkpt>
      <trkpt lat="48.80296" lon="5.14155">
        <ele>216</ele>
        <time>2023-01-30T13:14:49.000Z</time>
      </trkpt>
      <trkpt lat="48.80295" lon="5.14154">
        <ele>215.7</ele>
        <time>2023-01-30T13:14:50.000Z</time>
      </trkpt>
      <trkpt lat="48.80293" lon="5.14152">
        <ele>215.3</ele>
        <time>2023-01-30T13:14:51.000Z</time>
      </trkpt>
      <trkpt lat="48.80292" lon="5.14151">
        <ele>215</ele>
        <time>2023-01-30T13:14:52.000Z</time>
      </trkpt>
      <trkpt lat="48.80291" lon="5.14151">
        <ele>215</ele>
        <time>2023-01-30T13:14:53.000Z</time>
      </trkpt>
      <trkpt lat="48.80291" lon="5.1415">
        <ele>215</ele>
        <time>2023-01-30T13:14:54.000Z</time>
      </trkpt>
      <trkpt lat="48.8029" lon="5.1415">
        <ele>215</ele>
        <time>2023-01-30T13:14:55.000Z</time>
      </trkpt>
      <trkpt lat="48.80289" lon="5.1415">
        <ele>215</ele>
        <time>2023-01-30T13:14:56.000Z</time>
      </trkpt>
      <trkpt lat="48.80289" lon="5.1415">
        <ele>215</ele>
        <time>2023-01-30T13:14:57.000Z</time>
      </trkpt>
      <trkpt lat="48.80288" lon="5.1415">
        <ele>215</ele>
        <time>2023-01-30T13:14:58.000Z</time>
      </trkpt>
      <trkpt lat="48.80287" lon="5.14149">
        <ele>215</ele>
        <time>2023-01-30T13:14:59.000Z</time>
      </trkpt>
      <trkpt lat="48.80287" lon="5.14149">
        <ele>215</ele>
        <time>2023-01-30T13:15:00.000Z</time>
      </trkpt>
      <trkpt lat="48.80286" lon="5.14148">
        <ele>215</ele>
        <time>2023-01-30T13:15:01.000Z</time>
      </trkpt>
      <trkpt lat="48.80285" lon="5.14148">
        <ele>215</ele>
        <time>2023-01-30T13:15:02.000Z</time>
      </trkpt>
      <trkpt lat="48.80285" lon="5.14147">
        <ele>215</ele>
        <time>2023-01-30T13:15:03.000Z</time>
      </trkpt>
      <trkpt lat="48.80284" lon="5.14147">
        <ele>215</ele>
        <time>2023-01-30T13:15:04.000Z</time>
      </trkpt>
      <trkpt lat="48.80284" lon="5.14147">
        <ele>214.5</ele>
        <time>2023-01-30T13:15:05.000Z</time>
      </trkpt>
      <trkpt lat="48.80284" lon="5.14148">
        <ele>214</ele>
        <time>2023-01-30T13:15:06.000Z</time>
      </trkpt>
      <trkpt lat="48.80283" lon="5.14149">
        <ele>214</ele>
        <time>2023-01-30T13:15:07.000Z</time>
      </trkpt>
      <trkpt lat="48.80283" lon="5.1415">
        <ele>214</ele>
        <time>2023-01-30T13:15:08.000Z</time>
      </trkpt>
      <trkpt lat="48.80282" lon="5.14151">
        <ele>214</ele>
        <time>2023-01-30T13:15:09.000Z</time>
      </trkpt>
      <trkpt lat="48.80281" lon="5.14152">
        <ele>214</ele>
        <time>2023-01-30T13:15:10.000Z</time>
      </trkpt>
      <trkpt lat="48.8028" lon="5.14154">
        <ele>214</ele>
        <time>2023-01-30T13:15:11.000Z</time>
      </trkpt>
      <trkpt lat="48.80279" lon="5.14157">
        <ele>214</ele>
        <time>2023-01-30T13:15:12.000Z</time>
      </trkpt>
      <trkpt lat="48.80278" lon="5.14159">
        <ele>214</ele>
        <time>2023-01-30T13:15:13.000Z</time>
      </trkpt>
      <trkpt lat="48.80276" lon="5.1416">
        <ele>214</ele>
        <time>2023-01-30T13:15:14.000Z</time>
      </trkpt>
      <trkpt lat="48.80274" lon="5.14162">
        <ele>214</ele>
        <time>2023-01-30T13:15:15.000Z</time>
      </trkpt>
      <trkpt lat="48.80272" lon="5.14164">
        <ele>214</ele>
        <time>2023-01-30T13:15:16.000Z</time>
      </trkpt>
      <trkpt lat="48.80271" lon="5.14166">
        <ele>214</ele>
        <time>2023-01-30T13:15:17.000Z</time>
      </trkpt>
      <trkpt lat="48.80269" lon="5.14167">
        <ele>214.3</ele>
        <time>2023-01-30T13:15:18.000Z</time>
      </trkpt>
      <trkpt lat="48.80267" lon="5.14169">
        <ele>214.7</ele>
        <time>2023-01-30T13:15:19.000Z</time>
      </trkpt>
      <trkpt lat="48.80265" lon="5.1417">
        <ele>215</ele>
        <time>2023-01-30T13:15:20.000Z</time>
      </trkpt>
      <trkpt lat="48.80264" lon="5.14171">
        <ele>215</ele>
        <time>2023-01-30T13:15:21.000Z</time>
      </trkpt>
      <trkpt lat="48.80263" lon="5.14172">
        <ele>215</ele>
        <time>2023-01-30T13:15:22.000Z</time>
      </trkpt>
      <trkpt lat="48.80261" lon="5.14173">
        <ele>215</ele>
        <time>2023-01-30T13:15:23.000Z</time>
      </trkpt>
      <trkpt lat="48.8026" lon="5.14173">
        <ele>215</ele>
        <time>2023-01-30T13:15:24.000Z</time>
      </trkpt>
      <trkpt lat="48.80259" lon="5.14174">
        <ele>215</ele>
        <time>2023-01-30T13:15:25.000Z</time>
      </trkpt>
      <trkpt lat="48.80259" lon="5.14174">
        <ele>215</ele>
        <time>2023-01-30T13:15:26.000Z</time>
      </trkpt>
      <trkpt lat="48.80258" lon="5.14174">
        <ele>215</ele>
        <time>2023-01-30T13:15:27.000Z</time>
      </trkpt>
      <trkpt lat="48.80257" lon="5.14174">
        <ele>215</ele>
        <time>2023-01-30T13:15:28.000Z</time>
      </trkpt>
      <trkpt lat="48.80257" lon="5.14174">
        <ele>215</ele>
        <time>2023-01-30T13:15:29.000Z</time>
      </trkpt>
      <trkpt lat="48.80256" lon="5.14174">
        <ele>215</ele>
        <time>2023-01-30T13:15:30.000Z</time>
      </trkpt>
      <trkpt lat="48.80256" lon="5.14175">
        <ele>215</ele>
        <time>2023-01-30T13:15:31.000Z</time>
      </trkpt>
      <trkpt lat="48.80255" lon="5.14177">
        <ele>215</ele>
        <time>2023-01-30T13:15:32.000Z</time>
      </trkpt>
      <trkpt lat="48.80255" lon="5.14178">
        <ele>215</ele>
        <time>2023-01-30T13:15:33.000Z</time>
      </trkpt>
      <trkpt lat="48.80255" lon="5.14181">
        <ele>215</ele>
        <time>2023-01-30T13:15:34.000Z</time>
      </trkpt>
      <trkpt lat="48.80254" lon="5.14183">
        <ele>215</ele>
        <time>2023-01-30T13:15:35.000Z</time>
      </trkpt>
      <trkpt lat="48.80254" lon="5.14185">
        <ele>215</ele>
        <time>2023-01-30T13:15:36.000Z</time>
      </trkpt>
      <trkpt lat="48.80253" lon="5.14187">
        <ele>215.5</ele>
        <time>2023-01-30T13:15:37.000Z</time>
      </trkpt>
      <trkpt lat="48.80253" lon="5.14189">
        <ele>216</ele>
        <time>2023-01-30T13:15:38.000Z</time>
      </trkpt>
      <trkpt lat="48.80252" lon="5.14191">
        <ele>216</ele>
        <time>2023-01-30T13:15:39.000Z</time>
      </trkpt>
      <trkpt lat="48.80252" lon="5.14193">
        <ele>216</ele>
        <time>2023-01-30T13:15:40.000Z</time>
      </trkpt>
      <trkpt lat="48.80251" lon="5.14196">
        <ele>216</ele>
        <time>2023-01-30T13:15:41.000Z</time>
      </trkpt>
      <trkpt lat="48.8025" lon="5.14199">
        <ele>216</ele>
        <time>2023-01-30T13:15:42.000Z</time>
      </trkpt>
      <trkpt lat="48.80249" lon="5.14202">
        <ele>216</ele>
        <time>2023-01-30T13:15:43.000Z</time>
      </trkpt>
      <trkpt lat="48.80249" lon="5.14204">
        <ele>216</ele>
        <time>2023-01-30T13:15:44.000Z</time>
      </trkpt>
      <trkpt lat="48.80249" lon="5.14205">
        <ele>216</ele>
        <time>2023-01-30T13:15:45.000Z</time>
      </trkpt>
      <trkpt lat="48.80248" lon="5.14207">
        <ele>216</ele>
        <time>2023-01-30T13:15:46.000Z</time>
      </trkpt>
      <trkpt lat="48.80248" lon="5.14208">
        <ele>216</ele>
        <time>2023-01-30T13:15:47.000Z</time>
      </trkpt>
      <trkpt lat="48.80248" lon="5.14209">
        <ele>216</ele>
        <time>2023-01-30T13:15:48.000Z</time>
      </trkpt>
      <trkpt lat="48.80248" lon="5.14209">
        <ele>216</ele>
        <time>2023-01-30T13:15:49.000Z</time>
      </trkpt>
      <trkpt lat="48.80248" lon="5.1421">
        <ele>216</ele>
        <time>2023-01-30T13:15:50.000Z</time>
      </trkpt>
      <trkpt lat="48.80247" lon="5.14211">
        <ele>216.5</ele>
        <time>2023-01-30T13:15:51.000Z</time>
      </trkpt>
      <trkpt lat="48.80246" lon="5.14212">
        <ele>217</ele>
        <time>2023-01-30T13:15:52.000Z</time>
      </trkpt>
      <trkpt lat="48.80246" lon="5.14213">
        <ele>217</ele>
        <time>2023-01-30T13:15:53.000Z</time>
      </trkpt>
      <trkpt lat="48.80245" lon="5.14214">
        <ele>217</ele>
        <time>2023-01-30T13:15:54.000Z</time>
      </trkpt>
      <trkpt lat="48.80244" lon="5.14216">
        <ele>217</ele>
        <time>2023-01-30T13:15:55.000Z</time>
      </trkpt>
      <trkpt lat="48.80243" lon="5.14217">
        <ele>217</ele>
        <time>2023-01-30T13:15:56.000Z</time>
      </trkpt>
      <trkpt lat="48.80242" lon="5.14219">
        <ele>217</ele>
        <time>2023-01-30T13:15:57.000Z</time>
      </trkpt>
      <trkpt lat="48.80241" lon="5.14221">
        <ele>217</ele>
        <time>2023-01-30T13:15:58.000Z</time>
      </trkpt>
      <trkpt lat="48.80241" lon="5.14223">
        <ele>217</ele>
        <time>2023-01-30T13:15:59.000Z</time>
      </trkpt>
      <trkpt lat="48.8024" lon="5.14225">
        <ele>217</ele>
        <time>2023-01-30T13:16:00.000Z</time>
      </trkpt>
      <trkpt lat="48.8024" lon="5.14227">
        <ele>217</ele>
        <time>2023-01-30T13:16:01.000Z</time>
      </trkpt>
      <trkpt lat="48.80239" lon="5.14229">
        <ele>217</ele>
        <time>2023-01-30T13:16:02.000Z</time>
      </trkpt>
      <trkpt lat="48.80239" lon="5.14231">
        <ele>217</ele>
        <time>2023-01-30T13:16:03.000Z</time>
      </trkpt>
      <trkpt lat="48.80238" lon="5.14232">
        <ele>217</ele>
        <time>2023-01-30T13:16:04.000Z</time>
      </trkpt>
      <trkpt lat="48.80236" lon="5.14234">
        <ele>217</ele>
        <time>2023-01-30T13:16:05.000Z</time>
      </trkpt>
      <trkpt lat="48.80235" lon="5.14235">
        <ele>217</ele>
        <time>2023-01-30T13:16:06.000Z</time>
      </trkpt>
      <trkpt lat="48.80234" lon="5.14236">
        <ele>217</ele>
        <time>2023-01-30T13:16:07.000Z</time>
      </trkpt>
      <trkpt lat="48.80233" lon="5.14237">
        <ele>217</ele>
        <time>2023-01-30T13:16:08.000Z</time>
      </trkpt>
      <trkpt lat="48.80232" lon="5.14239">
        <ele>217</ele>
        <time>2023-01-30T13:16:09.000Z</time>
      </trkpt>
      <trkpt lat="48.80231" lon="5.14241">
        <ele>217</ele>
        <time>2023-01-30T13:16:10.000Z</time>
      </trkpt>
      <trkpt lat="48.8023" lon="5.14243">
        <ele>217</ele>
        <time>2023-01-30T13:16:11.000Z</time>
      </trkpt>
      <trkpt lat="48.80229" lon="5.14245">
        <ele>217</ele>
        <time>2023-01-30T13:16:12.000Z</time>
      </trkpt>
      <trkpt lat="48.80228" lon="5.14247">
        <ele>217</ele>
        <time>2023-01-30T13:16:13.000Z</time>
      </trkpt>
      <trkpt lat="48.80226" lon="5.14248">
        <ele>217</ele>
        <time>2023-01-30T13:16:14.000Z</time>
      </trkpt>
      <trkpt lat="48.80225" lon="5.14249">
        <ele>218</ele>
        <time>2023-01-30T13:16:15.000Z</time>
      </trkpt>
      <trkpt lat="48.80224" lon="5.14249">
        <ele>218</ele>
        <time>2023-01-30T13:16:16.000Z</time>
      </trkpt>
      <trkpt lat="48.80222" lon="5.1425">
        <ele>218</ele>
        <time>2023-01-30T13:16:17.000Z</time>
      </trkpt>
      <trkpt lat="48.80221" lon="5.14251">
        <ele>218</ele>
        <time>2023-01-30T13:16:18.000Z</time>
      </trkpt>
      <trkpt lat="48.8022" lon="5.14251">
        <ele>218</ele>
        <time>2023-01-30T13:16:19.000Z</time>
      </trkpt>
      <trkpt lat="48.80219" lon="5.14251">
        <ele>218</ele>
        <time>2023-01-30T13:16:20.000Z</time>
      </trkpt>
      <trkpt lat="48.80218" lon="5.14251">
        <ele>218</ele>
        <time>2023-01-30T13:16:21.000Z</time>
      </trkpt>
      <trkpt lat="48.80216" lon="5.14251">
        <ele>218</ele>
        <time>2023-01-30T13:16:22.000Z</time>
      </trkpt>
      <trkpt lat="48.80215" lon="5.1425">
        <ele>218</ele>
        <time>2023-01-30T13:16:23.000Z</time>
      </trkpt>
      <trkpt lat="48.80214" lon="5.1425">
        <ele>218</ele>
        <time>2023-01-30T13:16:24.000Z</time>
      </trkpt>
      <trkpt lat="48.80212" lon="5.14249">
        <ele>218</ele>
        <time>2023-01-30T13:16:25.000Z</time>
      </trkpt>
      <trkpt lat="48.80211" lon="5.1425">
        <ele>218</ele>
        <time>2023-01-30T13:16:26.000Z</time>
      </trkpt>
      <trkpt lat="48.80209" lon="5.1425">
        <ele>218</ele>
        <time>2023-01-30T13:16:27.000Z</time>
      </trkpt>
      <trkpt lat="48.80207" lon="5.14251">
        <ele>218</ele>
        <time>2023-01-30T13:16:28.000Z</time>
      </trkpt>
      <trkpt lat="48.80206" lon="5.14252">
        <ele>218</ele>
        <time>2023-01-30T13:16:29.000Z</time>
      </trkpt>
      <trkpt lat="48.80205" lon="5.14253">
        <ele>218</ele>
        <time>2023-01-30T13:16:30.000Z</time>
      </trkpt>
      <trkpt lat="48.80204" lon="5.14254">
        <ele>218</ele>
        <time>2023-01-30T13:16:31.000Z</time>
      </trkpt>
      <trkpt lat="48.80203" lon="5.14256">
        <ele>218</ele>
        <time>2023-01-30T13:16:32.000Z</time>
      </trkpt>
      <trkpt lat="48.80202" lon="5.14257">
        <ele>218</ele>
        <time>2023-01-30T13:16:33.000Z</time>
      </trkpt>
      <trkpt lat="48.80201" lon="5.14258">
        <ele>218</ele>
        <time>2023-01-30T13:16:34.000Z</time>
      </trkpt>
      <trkpt lat="48.80201" lon="5.1426">
        <ele>218</ele>
        <time>2023-01-30T13:16:35.000Z</time>
      </trkpt>
      <trkpt lat="48.802" lon="5.14261">
        <ele>218.3</ele>
        <time>2023-01-30T13:16:36.000Z</time>
      </trkpt>
      <trkpt lat="48.80199" lon="5.14262">
        <ele>218.7</ele>
        <time>2023-01-30T13:16:37.000Z</time>
      </trkpt>
      <trkpt lat="48.80199" lon="5.14264">
        <ele>219</ele>
        <time>2023-01-30T13:16:38.000Z</time>
      </trkpt>
      <trkpt lat="48.80198" lon="5.14266">
        <ele>219</ele>
        <time>2023-01-30T13:16:39.000Z</time>
      </trkpt>
      <trkpt lat="48.80198" lon="5.14267">
        <ele>219</ele>
        <time>2023-01-30T13:16:40.000Z</time>
      </trkpt>
      <trkpt lat="48.80197" lon="5.14269">
        <ele>219</ele>
        <time>2023-01-30T13:16:41.000Z</time>
      </trkpt>
      <trkpt lat="48.80197" lon="5.14271">
        <ele>219</ele>
        <time>2023-01-30T13:16:42.000Z</time>
      </trkpt>
      <trkpt lat="48.80197" lon="5.14273">
        <ele>219</ele>
        <time>2023-01-30T13:16:43.000Z</time>
      </trkpt>
      <trkpt lat="48.80196" lon="5.14274">
        <ele>219</ele>
        <time>2023-01-30T13:16:44.000Z</time>
      </trkpt>
      <trkpt lat="48.80196" lon="5.14275">
        <ele>220</ele>
        <time>2023-01-30T13:16:45.000Z</time>
      </trkpt>
      <trkpt lat="48.80196" lon="5.14277">
        <ele>220</ele>
        <time>2023-01-30T13:16:46.000Z</time>
      </trkpt>
      <trkpt lat="48.80196" lon="5.14279">
        <ele>220</ele>
        <time>2023-01-30T13:16:47.000Z</time>
      </trkpt>
      <trkpt lat="48.80196" lon="5.1428">
        <ele>220</ele>
        <time>2023-01-30T13:16:48.000Z</time>
      </trkpt>
      <trkpt lat="48.80196" lon="5.14282">
        <ele>220</ele>
        <time>2023-01-30T13:16:49.000Z</time>
      </trkpt>
      <trkpt lat="48.80196" lon="5.14285">
        <ele>220</ele>
        <time>2023-01-30T13:16:50.000Z</time>
      </trkpt>
      <trkpt lat="48.80196" lon="5.14287">
        <ele>220</ele>
        <time>2023-01-30T13:16:51.000Z</time>
      </trkpt>
      <trkpt lat="48.80196" lon="5.1429">
        <ele>220</ele>
        <time>2023-01-30T13:16:52.000Z</time>
      </trkpt>
      <trkpt lat="48.80197" lon="5.14292">
        <ele>220</ele>
        <time>2023-01-30T13:16:53.000Z</time>
      </trkpt>
      <trkpt lat="48.80197" lon="5.14293">
        <ele>220</ele>
        <time>2023-01-30T13:16:54.000Z</time>
      </trkpt>
      <trkpt lat="48.80197" lon="5.14294">
        <ele>220</ele>
        <time>2023-01-30T13:16:55.000Z</time>
      </trkpt>
      <trkpt lat="48.80197" lon="5.14296">
        <ele>220</ele>
        <time>2023-01-30T13:16:56.000Z</time>
      </trkpt>
      <trkpt lat="48.80198" lon="5.14297">
        <ele>220</ele>
        <time>2023-01-30T13:16:57.000Z</time>
      </trkpt>
      <trkpt lat="48.80198" lon="5.14298">
        <ele>220</ele>
        <time>2023-01-30T13:16:58.000Z</time>
      </trkpt>
      <trkpt lat="48.80198" lon="5.143">
        <ele>220</ele>
        <time>2023-01-30T13:16:59.000Z</time>
      </trkpt>
      <trkpt lat="48.80199" lon="5.14302">
        <ele>220</ele>
        <time>2023-01-30T13:17:00.000Z</time>
      </trkpt>
      <trkpt lat="48.80199" lon="5.14304">
        <ele>220</ele>
        <time>2023-01-30T13:17:01.000Z</time>
      </trkpt>
      <trkpt lat="48.80199" lon="5.14306">
        <ele>220</ele>
        <time>2023-01-30T13:17:02.000Z</time>
      </trkpt>
      <trkpt lat="48.802" lon="5.14308">
        <ele>220</ele>
        <time>2023-01-30T13:17:03.000Z</time>
      </trkpt>
      <trkpt lat="48.802" lon="5.1431">
        <ele>220</ele>
        <time>2023-01-30T13:17:04.000Z</time>
      </trkpt>
      <trkpt lat="48.802" lon="5.14312">
        <ele>220</ele>
        <time>2023-01-30T13:17:05.000Z</time>
      </trkpt>
      <trkpt lat="48.802" lon="5.14314">
        <ele>220</ele>
        <time>2023-01-30T13:17:06.000Z</time>
      </trkpt>
      <trkpt lat="48.802" lon="5.14316">
        <ele>220</ele>
        <time>2023-01-30T13:17:07.000Z</time>
      </trkpt>
      <trkpt lat="48.802" lon="5.14317">
        <ele>220</ele>
        <time>2023-01-30T13:17:08.000Z</time>
      </trkpt>
      <trkpt lat="48.802" lon="5.14319">
        <ele>220</ele>
        <time>2023-01-30T13:17:09.000Z</time>
      </trkpt>
      <trkpt lat="48.802" lon="5.14321">
        <ele>220</ele>
        <time>2023-01-30T13:17:10.000Z</time>
      </trkpt>
      <trkpt lat="48.80201" lon="5.14323">
        <ele>220.5</ele>
        <time>2023-01-30T13:17:11.000Z</time>
      </trkpt>
      <trkpt lat="48.80201" lon="5.14325">
        <ele>221</ele>
        <time>2023-01-30T13:17:12.000Z</time>
      </trkpt>
      <trkpt lat="48.80202" lon="5.14327">
        <ele>221</ele>
        <time>2023-01-30T13:17:13.000Z</time>
      </trkpt>
      <trkpt lat="48.80203" lon="5.1433">
        <ele>221</ele>
        <time>2023-01-30T13:17:14.000Z</time>
      </trkpt>
      <trkpt lat="48.80204" lon="5.14332">
        <ele>221</ele>
        <time>2023-01-30T13:17:15.000Z</time>
      </trkpt>
      <trkpt lat="48.80205" lon="5.14335">
        <ele>221</ele>
        <time>2023-01-30T13:17:16.000Z</time>
      </trkpt>
      <trkpt lat="48.80205" lon="5.14337">
        <ele>221</ele>
        <time>2023-01-30T13:17:17.000Z</time>
      </trkpt>
      <trkpt lat="48.80205" lon="5.1434">
        <ele>221</ele>
        <time>2023-01-30T13:17:18.000Z</time>
      </trkpt>
      <trkpt lat="48.80205" lon="5.14342">
        <ele>221</ele>
        <time>2023-01-30T13:17:19.000Z</time>
      </trkpt>
      <trkpt lat="48.80205" lon="5.14345">
        <ele>221</ele>
        <time>2023-01-30T13:17:20.000Z</time>
      </trkpt>
      <trkpt lat="48.80205" lon="5.14347">
        <ele>221</ele>
        <time>2023-01-30T13:17:21.000Z</time>
      </trkpt>
      <trkpt lat="48.80204" lon="5.14348">
        <ele>221.3</ele>
        <time>2023-01-30T13:17:22.000Z</time>
      </trkpt>
      <trkpt lat="48.80204" lon="5.14349">
        <ele>221.7</ele>
        <time>2023-01-30T13:17:23.000Z</time>
      </trkpt>
      <trkpt lat="48.80203" lon="5.14351">
        <ele>222</ele>
        <time>2023-01-30T13:17:24.000Z</time>
      </trkpt>
      <trkpt lat="48.80203" lon="5.14352">
        <ele>222</ele>
        <time>2023-01-30T13:17:25.000Z</time>
      </trkpt>
      <trkpt lat="48.80202" lon="5.14353">
        <ele>222</ele>
        <time>2023-01-30T13:17:26.000Z</time>
      </trkpt>
      <trkpt lat="48.80201" lon="5.14353">
        <ele>222</ele>
        <time>2023-01-30T13:17:27.000Z</time>
      </trkpt>
      <trkpt lat="48.80199" lon="5.14353">
        <ele>222</ele>
        <time>2023-01-30T13:17:28.000Z</time>
      </trkpt>
      <trkpt lat="48.80198" lon="5.14352">
        <ele>222</ele>
        <time>2023-01-30T13:17:29.000Z</time>
      </trkpt>
      <trkpt lat="48.80197" lon="5.14352">
        <ele>222</ele>
        <time>2023-01-30T13:17:30.000Z</time>
      </trkpt>
      <trkpt lat="48.80196" lon="5.14352">
        <ele>222</ele>
        <time>2023-01-30T13:17:31.000Z</time>
      </trkpt>
      <trkpt lat="48.80194" lon="5.14351">
        <ele>222</ele>
        <time>2023-01-30T13:17:32.000Z</time>
      </trkpt>
      <trkpt lat="48.80193" lon="5.14351">
        <ele>222</ele>
        <time>2023-01-30T13:17:33.000Z</time>
      </trkpt>
      <trkpt lat="48.80192" lon="5.14351">
        <ele>222</ele>
        <time>2023-01-30T13:17:34.000Z</time>
      </trkpt>
      <trkpt lat="48.80192" lon="5.14351">
        <ele>222</ele>
        <time>2023-01-30T13:17:35.000Z</time>
      </trkpt>
      <trkpt lat="48.80191" lon="5.14351">
        <ele>222</ele>
        <time>2023-01-30T13:17:36.000Z</time>
      </trkpt>
      <trkpt lat="48.8019" lon="5.14351">
        <ele>222</ele>
        <time>2023-01-30T13:17:37.000Z</time>
      </trkpt>
      <trkpt lat="48.8019" lon="5.14351">
        <ele>222</ele>
        <time>2023-01-30T13:17:38.000Z</time>
      </trkpt>
      <trkpt lat="48.80189" lon="5.14352">
        <ele>222</ele>
        <time>2023-01-30T13:17:39.000Z</time>
      </trkpt>
      <trkpt lat="48.80189" lon="5.14353">
        <ele>222</ele>
        <time>2023-01-30T13:17:40.000Z</time>
      </trkpt>
      <trkpt lat="48.80189" lon="5.14353">
        <ele>222</ele>
        <time>2023-01-30T13:17:41.000Z</time>
      </trkpt>
      <trkpt lat="48.80188" lon="5.14354">
        <ele>222</ele>
        <time>2023-01-30T13:17:42.000Z</time>
      </trkpt>
      <trkpt lat="48.80188" lon="5.14355">
        <ele>222</ele>
        <time>2023-01-30T13:17:43.000Z</time>
      </trkpt>
      <trkpt lat="48.80187" lon="5.14356">
        <ele>222.3</ele>
        <time>2023-01-30T13:17:44.000Z</time>
      </trkpt>
      <trkpt lat="48.80187" lon="5.14357">
        <ele>222.7</ele>
        <time>2023-01-30T13:17:45.000Z</time>
      </trkpt>
      <trkpt lat="48.80187" lon="5.14358">
        <ele>223</ele>
        <time>2023-01-30T13:17:46.000Z</time>
      </trkpt>
      <trkpt lat="48.80187" lon="5.14359">
        <ele>223</ele>
        <time>2023-01-30T13:17:47.000Z</time>
      </trkpt>
      <trkpt lat="48.80187" lon="5.1436">
        <ele>223</ele>
        <time>2023-01-30T13:17:48.000Z</time>
      </trkpt>
      <trkpt lat="48.80187" lon="5.14361">
        <ele>223</ele>
        <time>2023-01-30T13:17:49.000Z</time>
      </trkpt>
      <trkpt lat="48.80187" lon="5.14363">
        <ele>223</ele>
        <time>2023-01-30T13:17:50.000Z</time>
      </trkpt>
      <trkpt lat="48.80187" lon="5.14364">
        <ele>223</ele>
        <time>2023-01-30T13:17:51.000Z</time>
      </trkpt>
      <trkpt lat="48.80187" lon="5.14365">
        <ele>223</ele>
        <time>2023-01-30T13:17:52.000Z</time>
      </trkpt>
      <trkpt lat="48.80187" lon="5.14366">
        <ele>223</ele>
        <time>2023-01-30T13:17:53.000Z</time>
      </trkpt>
      <trkpt lat="48.80187" lon="5.14368">
        <ele>223</ele>
        <time>2023-01-30T13:17:54.000Z</time>
      </trkpt>
      <trkpt lat="48.80188" lon="5.14369">
        <ele>223</ele>
        <time>2023-01-30T13:17:55.000Z</time>
      </trkpt>
      <trkpt lat="48.80188" lon="5.14371">
        <ele>223</ele>
        <time>2023-01-30T13:17:56.000Z</time>
      </trkpt>
      <trkpt lat="48.80188" lon="5.14372">
        <ele>223</ele>
        <time>2023-01-30T13:17:57.000Z</time>
      </trkpt>
      <trkpt lat="48.80189" lon="5.14374">
        <ele>223</ele>
        <time>2023-01-30T13:17:58.000Z</time>
      </trkpt>
      <trkpt lat="48.80189" lon="5.14376">
        <ele>223</ele>
        <time>2023-01-30T13:17:59.000Z</time>
      </trkpt>
      <trkpt lat="48.80189" lon="5.14378">
        <ele>223</ele>
        <time>2023-01-30T13:18:00.000Z</time>
      </trkpt>
      <trkpt lat="48.80189" lon="5.14381">
        <ele>223</ele>
        <time>2023-01-30T13:18:01.000Z</time>
      </trkpt>
      <trkpt lat="48.80189" lon="5.14384">
        <ele>223.3</ele>
        <time>2023-01-30T13:18:02.000Z</time>
      </trkpt>
      <trkpt lat="48.80189" lon="5.14386">
        <ele>223.7</ele>
        <time>2023-01-30T13:18:03.000Z</time>
      </trkpt>
      <trkpt lat="48.80189" lon="5.14387">
        <ele>224</ele>
        <time>2023-01-30T13:18:04.000Z</time>
      </trkpt>
      <trkpt lat="48.80189" lon="5.14388">
        <ele>224</ele>
        <time>2023-01-30T13:18:05.000Z</time>
      </trkpt>
      <trkpt lat="48.80189" lon="5.1439">
        <ele>224</ele>
        <time>2023-01-30T13:18:06.000Z</time>
      </trkpt>
      <trkpt lat="48.80189" lon="5.14391">
        <ele>224</ele>
        <time>2023-01-30T13:18:07.000Z</time>
      </trkpt>
      <trkpt lat="48.80189" lon="5.14392">
        <ele>224</ele>
        <time>2023-01-30T13:18:08.000Z</time>
      </trkpt>
      <trkpt lat="48.80189" lon="5.14394">
        <ele>224</ele>
        <time>2023-01-30T13:18:09.000Z</time>
      </trkpt>
      <trkpt lat="48.80189" lon="5.14395">
        <ele>224</ele>
        <time>2023-01-30T13:18:10.000Z</time>
      </trkpt>
      <trkpt lat="48.8019" lon="5.14396">
        <ele>224</ele>
        <time>2023-01-30T13:18:11.000Z</time>
      </trkpt>
      <trkpt lat="48.8019" lon="5.14398">
        <ele>224</ele>
        <time>2023-01-30T13:18:12.000Z</time>
      </trkpt>
      <trkpt lat="48.8019" lon="5.14399">
        <ele>224</ele>
        <time>2023-01-30T13:18:13.000Z</time>
      </trkpt>
      <trkpt lat="48.80191" lon="5.14401">
        <ele>224</ele>
        <time>2023-01-30T13:18:14.000Z</time>
      </trkpt>
      <trkpt lat="48.80191" lon="5.14402">
        <ele>224</ele>
        <time>2023-01-30T13:18:15.000Z</time>
      </trkpt>
      <trkpt lat="48.80191" lon="5.14404">
        <ele>224.3</ele>
        <time>2023-01-30T13:18:16.000Z</time>
      </trkpt>
      <trkpt lat="48.80191" lon="5.14405">
        <ele>224.7</ele>
        <time>2023-01-30T13:18:17.000Z</time>
      </trkpt>
      <trkpt lat="48.80191" lon="5.14407">
        <ele>225</ele>
        <time>2023-01-30T13:18:18.000Z</time>
      </trkpt>
      <trkpt lat="48.80191" lon="5.14409">
        <ele>225</ele>
        <time>2023-01-30T13:18:19.000Z</time>
      </trkpt>
      <trkpt lat="48.8019" lon="5.1441">
        <ele>225</ele>
        <time>2023-01-30T13:18:20.000Z</time>
      </trkpt>
      <trkpt lat="48.8019" lon="5.14412">
        <ele>225</ele>
        <time>2023-01-30T13:18:21.000Z</time>
      </trkpt>
      <trkpt lat="48.8019" lon="5.14414">
        <ele>225</ele>
        <time>2023-01-30T13:18:22.000Z</time>
      </trkpt>
      <trkpt lat="48.8019" lon="5.14416">
        <ele>225</ele>
        <time>2023-01-30T13:18:23.000Z</time>
      </trkpt>
      <trkpt lat="48.8019" lon="5.14418">
        <ele>225</ele>
        <time>2023-01-30T13:18:24.000Z</time>
      </trkpt>
      <trkpt lat="48.8019" lon="5.1442">
        <ele>225</ele>
        <time>2023-01-30T13:18:25.000Z</time>
      </trkpt>
      <trkpt lat="48.8019" lon="5.14422">
        <ele>225</ele>
        <time>2023-01-30T13:18:26.000Z</time>
      </trkpt>
      <trkpt lat="48.8019" lon="5.14424">
        <ele>225</ele>
        <time>2023-01-30T13:18:27.000Z</time>
      </trkpt>
      <trkpt lat="48.8019" lon="5.14426">
        <ele>225</ele>
        <time>2023-01-30T13:18:28.000Z</time>
      </trkpt>
      <trkpt lat="48.80189" lon="5.14429">
        <ele>225</ele>
        <time>2023-01-30T13:18:29.000Z</time>
      </trkpt>
      <trkpt lat="48.80189" lon="5.14431">
        <ele>225</ele>
        <time>2023-01-30T13:18:30.000Z</time>
      </trkpt>
      <trkpt lat="48.80189" lon="5.14432">
        <ele>225</ele>
        <time>2023-01-30T13:18:31.000Z</time>
      </trkpt>
      <trkpt lat="48.80189" lon="5.14434">
        <ele>225</ele>
        <time>2023-01-30T13:18:32.000Z</time>
      </trkpt>
      <trkpt lat="48.80188" lon="5.14434">
        <ele>225</ele>
        <time>2023-01-30T13:18:33.000Z</time>
      </trkpt>
      <trkpt lat="48.80188" lon="5.14435">
        <ele>225</ele>
        <time>2023-01-30T13:18:34.000Z</time>
      </trkpt>
      <trkpt lat="48.80188" lon="5.14436">
        <ele>225</ele>
        <time>2023-01-30T13:18:35.000Z</time>
      </trkpt>
      <trkpt lat="48.80188" lon="5.14437">
        <ele>225</ele>
        <time>2023-01-30T13:18:36.000Z</time>
      </trkpt>
      <trkpt lat="48.80188" lon="5.14439">
        <ele>225</ele>
        <time>2023-01-30T13:18:37.000Z</time>
      </trkpt>
      <trkpt lat="48.80188" lon="5.1444">
        <ele>225</ele>
        <time>2023-01-30T13:18:38.000Z</time>
      </trkpt>
      <trkpt lat="48.80188" lon="5.14442">
        <ele>226</ele>
        <time>2023-01-30T13:18:39.000Z</time>
      </trkpt>
      <trkpt lat="48.80188" lon="5.14444">
        <ele>226</ele>
        <time>2023-01-30T13:18:40.000Z</time>
      </trkpt>
      <trkpt lat="48.80188" lon="5.14445">
        <ele>226</ele>
        <time>2023-01-30T13:18:41.000Z</time>
      </trkpt>
      <trkpt lat="48.80188" lon="5.14447">
        <ele>226</ele>
        <time>2023-01-30T13:18:42.000Z</time>
      </trkpt>
      <trkpt lat="48.80188" lon="5.14448">
        <ele>226</ele>
        <time>2023-01-30T13:18:43.000Z</time>
      </trkpt>
      <trkpt lat="48.80188" lon="5.1445">
        <ele>226</ele>
        <time>2023-01-30T13:18:44.000Z</time>
      </trkpt>
      <trkpt lat="48.80188" lon="5.14453">
        <ele>226.5</ele>
        <time>2023-01-30T13:18:45.000Z</time>
      </trkpt>
      <trkpt lat="48.80188" lon="5.14455">
        <ele>227</ele>
        <time>2023-01-30T13:18:46.000Z</time>
      </trkpt>
      <trkpt lat="48.80189" lon="5.14457">
        <ele>227</ele>
        <time>2023-01-30T13:18:47.000Z</time>
      </trkpt>
      <trkpt lat="48.80189" lon="5.14459">
        <ele>227</ele>
        <time>2023-01-30T13:18:48.000Z</time>
      </trkpt>
      <trkpt lat="48.80189" lon="5.14461">
        <ele>227</ele>
        <time>2023-01-30T13:18:49.000Z</time>
      </trkpt>
      <trkpt lat="48.80189" lon="5.14464">
        <ele>227</ele>
        <time>2023-01-30T13:18:50.000Z</time>
      </trkpt>
      <trkpt lat="48.80189" lon="5.14467">
        <ele>227</ele>
        <time>2023-01-30T13:18:51.000Z</time>
      </trkpt>
      <trkpt lat="48.80189" lon="5.1447">
        <ele>227</ele>
        <time>2023-01-30T13:18:52.000Z</time>
      </trkpt>
      <trkpt lat="48.80189" lon="5.14472">
        <ele>227</ele>
        <time>2023-01-30T13:18:53.000Z</time>
      </trkpt>
      <trkpt lat="48.80189" lon="5.14473">
        <ele>227</ele>
        <time>2023-01-30T13:18:54.000Z</time>
      </trkpt>
      <trkpt lat="48.80189" lon="5.14474">
        <ele>227</ele>
        <time>2023-01-30T13:18:55.000Z</time>
      </trkpt>
      <trkpt lat="48.8019" lon="5.14475">
        <ele>227</ele>
        <time>2023-01-30T13:18:56.000Z</time>
      </trkpt>
      <trkpt lat="48.8019" lon="5.14476">
        <ele>227</ele>
        <time>2023-01-30T13:18:57.000Z</time>
      </trkpt>
      <trkpt lat="48.8019" lon="5.14477">
        <ele>227</ele>
        <time>2023-01-30T13:18:58.000Z</time>
      </trkpt>
      <trkpt lat="48.80191" lon="5.14478">
        <ele>227</ele>
        <time>2023-01-30T13:18:59.000Z</time>
      </trkpt>
      <trkpt lat="48.80191" lon="5.14479">
        <ele>227</ele>
        <time>2023-01-30T13:19:00.000Z</time>
      </trkpt>
      <trkpt lat="48.80192" lon="5.1448">
        <ele>227</ele>
        <time>2023-01-30T13:19:01.000Z</time>
      </trkpt>
      <trkpt lat="48.80193" lon="5.14481">
        <ele>227</ele>
        <time>2023-01-30T13:19:02.000Z</time>
      </trkpt>
      <trkpt lat="48.80194" lon="5.14482">
        <ele>227</ele>
        <time>2023-01-30T13:19:03.000Z</time>
      </trkpt>
      <trkpt lat="48.80195" lon="5.14482">
        <ele>227</ele>
        <time>2023-01-30T13:19:04.000Z</time>
      </trkpt>
      <trkpt lat="48.80196" lon="5.14483">
        <ele>227.5</ele>
        <time>2023-01-30T13:19:05.000Z</time>
      </trkpt>
      <trkpt lat="48.80197" lon="5.14483">
        <ele>228</ele>
        <time>2023-01-30T13:19:06.000Z</time>
      </trkpt>
      <trkpt lat="48.80198" lon="5.14484">
        <ele>227.5</ele>
        <time>2023-01-30T13:19:07.000Z</time>
      </trkpt>
      <trkpt lat="48.80198" lon="5.14484">
        <ele>227</ele>
        <time>2023-01-30T13:19:08.000Z</time>
      </trkpt>
      <trkpt lat="48.80198" lon="5.14485">
        <ele>227</ele>
        <time>2023-01-30T13:19:09.000Z</time>
      </trkpt>
      <trkpt lat="48.80199" lon="5.14486">
        <ele>227</ele>
        <time>2023-01-30T13:19:10.000Z</time>
      </trkpt>
      <trkpt lat="48.80199" lon="5.14487">
        <ele>227</ele>
        <time>2023-01-30T13:19:11.000Z</time>
      </trkpt>
      <trkpt lat="48.802" lon="5.14488">
        <ele>227.5</ele>
        <time>2023-01-30T13:19:12.000Z</time>
      </trkpt>
      <trkpt lat="48.802" lon="5.1449">
        <ele>228</ele>
        <time>2023-01-30T13:19:13.000Z</time>
      </trkpt>
      <trkpt lat="48.80201" lon="5.14491">
        <ele>228</ele>
        <time>2023-01-30T13:19:14.000Z</time>
      </trkpt>
      <trkpt lat="48.80201" lon="5.14492">
        <ele>228</ele>
        <time>2023-01-30T13:19:15.000Z</time>
      </trkpt>
      <trkpt lat="48.80202" lon="5.14494">
        <ele>228</ele>
        <time>2023-01-30T13:19:16.000Z</time>
      </trkpt>
      <trkpt lat="48.80202" lon="5.14495">
        <ele>228</ele>
        <time>2023-01-30T13:19:17.000Z</time>
      </trkpt>
      <trkpt lat="48.80203" lon="5.14497">
        <ele>228</ele>
        <time>2023-01-30T13:19:18.000Z</time>
      </trkpt>
      <trkpt lat="48.80204" lon="5.14499">
        <ele>228</ele>
        <time>2023-01-30T13:19:19.000Z</time>
      </trkpt>
      <trkpt lat="48.80205" lon="5.14501">
        <ele>228</ele>
        <time>2023-01-30T13:19:20.000Z</time>
      </trkpt>
      <trkpt lat="48.80205" lon="5.14502">
        <ele>228</ele>
        <time>2023-01-30T13:19:21.000Z</time>
      </trkpt>
      <trkpt lat="48.80206" lon="5.14504">
        <ele>228</ele>
        <time>2023-01-30T13:19:22.000Z</time>
      </trkpt>
      <trkpt lat="48.80206" lon="5.14506">
        <ele>228</ele>
        <time>2023-01-30T13:19:23.000Z</time>
      </trkpt>
      <trkpt lat="48.80207" lon="5.14508">
        <ele>228</ele>
        <time>2023-01-30T13:19:24.000Z</time>
      </trkpt>
      <trkpt lat="48.80208" lon="5.14511">
        <ele>228</ele>
        <time>2023-01-30T13:19:25.000Z</time>
      </trkpt>
      <trkpt lat="48.80209" lon="5.14514">
        <ele>228.3</ele>
        <time>2023-01-30T13:19:26.000Z</time>
      </trkpt>
      <trkpt lat="48.8021" lon="5.14517">
        <ele>228.7</ele>
        <time>2023-01-30T13:19:27.000Z</time>
      </trkpt>
      <trkpt lat="48.80212" lon="5.1452">
        <ele>229</ele>
        <time>2023-01-30T13:19:28.000Z</time>
      </trkpt>
      <trkpt lat="48.80213" lon="5.14523">
        <ele>229</ele>
        <time>2023-01-30T13:19:29.000Z</time>
      </trkpt>
      <trkpt lat="48.80214" lon="5.14526">
        <ele>229</ele>
        <time>2023-01-30T13:19:30.000Z</time>
      </trkpt>
      <trkpt lat="48.80214" lon="5.14529">
        <ele>229</ele>
        <time>2023-01-30T13:19:31.000Z</time>
      </trkpt>
      <trkpt lat="48.80215" lon="5.14531">
        <ele>229</ele>
        <time>2023-01-30T13:19:32.000Z</time>
      </trkpt>
      <trkpt lat="48.80215" lon="5.14533">
        <ele>229</ele>
        <time>2023-01-30T13:19:33.000Z</time>
      </trkpt>
      <trkpt lat="48.80216" lon="5.14534">
        <ele>229</ele>
        <time>2023-01-30T13:19:34.000Z</time>
      </trkpt>
      <trkpt lat="48.80216" lon="5.14536">
        <ele>229.5</ele>
        <time>2023-01-30T13:19:35.000Z</time>
      </trkpt>
      <trkpt lat="48.80217" lon="5.14537">
        <ele>230</ele>
        <time>2023-01-30T13:19:36.000Z</time>
      </trkpt>
      <trkpt lat="48.80217" lon="5.14538">
        <ele>230</ele>
        <time>2023-01-30T13:19:37.000Z</time>
      </trkpt>
      <trkpt lat="48.80218" lon="5.14538">
        <ele>230</ele>
        <time>2023-01-30T13:19:38.000Z</time>
      </trkpt>
      <trkpt lat="48.8022" lon="5.14538">
        <ele>230</ele>
        <time>2023-01-30T13:19:39.000Z</time>
      </trkpt>
      <trkpt lat="48.80221" lon="5.14538">
        <ele>230</ele>
        <time>2023-01-30T13:19:40.000Z</time>
      </trkpt>
      <trkpt lat="48.80222" lon="5.14538">
        <ele>230</ele>
        <time>2023-01-30T13:19:41.000Z</time>
      </trkpt>
      <trkpt lat="48.80224" lon="5.14539">
        <ele>230</ele>
        <time>2023-01-30T13:19:42.000Z</time>
      </trkpt>
      <trkpt lat="48.80226" lon="5.14538">
        <ele>230</ele>
        <time>2023-01-30T13:19:43.000Z</time>
      </trkpt>
      <trkpt lat="48.80228" lon="5.14538">
        <ele>230</ele>
        <time>2023-01-30T13:19:44.000Z</time>
      </trkpt>
      <trkpt lat="48.80229" lon="5.14537">
        <ele>230</ele>
        <time>2023-01-30T13:19:45.000Z</time>
      </trkpt>
      <trkpt lat="48.80231" lon="5.14537">
        <ele>230</ele>
        <time>2023-01-30T13:19:46.000Z</time>
      </trkpt>
      <trkpt lat="48.80233" lon="5.14536">
        <ele>230</ele>
        <time>2023-01-30T13:19:47.000Z</time>
      </trkpt>
      <trkpt lat="48.80235" lon="5.14537">
        <ele>230</ele>
        <time>2023-01-30T13:19:48.000Z</time>
      </trkpt>
      <trkpt lat="48.80238" lon="5.14537">
        <ele>230</ele>
        <time>2023-01-30T13:19:49.000Z</time>
      </trkpt>
      <trkpt lat="48.80239" lon="5.14538">
        <ele>229.7</ele>
        <time>2023-01-30T13:19:50.000Z</time>
      </trkpt>
      <trkpt lat="48.8024" lon="5.14539">
        <ele>229.3</ele>
        <time>2023-01-30T13:19:51.000Z</time>
      </trkpt>
      <trkpt lat="48.80241" lon="5.1454">
        <ele>229</ele>
        <time>2023-01-30T13:19:52.000Z</time>
      </trkpt>
      <trkpt lat="48.80242" lon="5.14541">
        <ele>229</ele>
        <time>2023-01-30T13:19:53.000Z</time>
      </trkpt>
      <trkpt lat="48.80243" lon="5.14542">
        <ele>229</ele>
        <time>2023-01-30T13:19:54.000Z</time>
      </trkpt>
      <trkpt lat="48.80244" lon="5.14543">
        <ele>229</ele>
        <time>2023-01-30T13:19:55.000Z</time>
      </trkpt>
      <trkpt lat="48.80245" lon="5.14544">
        <ele>229</ele>
        <time>2023-01-30T13:19:56.000Z</time>
      </trkpt>
      <trkpt lat="48.80246" lon="5.14544">
        <ele>229</ele>
        <time>2023-01-30T13:19:57.000Z</time>
      </trkpt>
      <trkpt lat="48.80247" lon="5.14545">
        <ele>229</ele>
        <time>2023-01-30T13:19:58.000Z</time>
      </trkpt>
      <trkpt lat="48.80248" lon="5.14545">
        <ele>229</ele>
        <time>2023-01-30T13:19:59.000Z</time>
      </trkpt>
      <trkpt lat="48.80249" lon="5.14546">
        <ele>229.3</ele>
        <time>2023-01-30T13:20:00.000Z</time>
      </trkpt>
      <trkpt lat="48.8025" lon="5.14546">
        <ele>229.7</ele>
        <time>2023-01-30T13:20:01.000Z</time>
      </trkpt>
      <trkpt lat="48.80251" lon="5.14547">
        <ele>230</ele>
        <time>2023-01-30T13:20:02.000Z</time>
      </trkpt>
      <trkpt lat="48.80252" lon="5.14548">
        <ele>230</ele>
        <time>2023-01-30T13:20:03.000Z</time>
      </trkpt>
      <trkpt lat="48.80252" lon="5.14549">
        <ele>230</ele>
        <time>2023-01-30T13:20:04.000Z</time>
      </trkpt>
      <trkpt lat="48.80253" lon="5.1455">
        <ele>230</ele>
        <time>2023-01-30T13:20:05.000Z</time>
      </trkpt>
      <trkpt lat="48.80254" lon="5.14551">
        <ele>230</ele>
        <time>2023-01-30T13:20:06.000Z</time>
      </trkpt>
      <trkpt lat="48.80254" lon="5.14553">
        <ele>229</ele>
        <time>2023-01-30T13:20:07.000Z</time>
      </trkpt>
      <trkpt lat="48.80255" lon="5.14555">
        <ele>229</ele>
        <time>2023-01-30T13:20:08.000Z</time>
      </trkpt>
      <trkpt lat="48.80255" lon="5.14557">
        <ele>229</ele>
        <time>2023-01-30T13:20:09.000Z</time>
      </trkpt>
      <trkpt lat="48.80255" lon="5.14559">
        <ele>229</ele>
        <time>2023-01-30T13:20:10.000Z</time>
      </trkpt>
      <trkpt lat="48.80256" lon="5.1456">
        <ele>230</ele>
        <time>2023-01-30T13:20:11.000Z</time>
      </trkpt>
      <trkpt lat="48.80257" lon="5.14561">
        <ele>230</ele>
        <time>2023-01-30T13:20:12.000Z</time>
      </trkpt>
      <trkpt lat="48.80257" lon="5.14563">
        <ele>230</ele>
        <time>2023-01-30T13:20:13.000Z</time>
      </trkpt>
      <trkpt lat="48.80258" lon="5.14564">
        <ele>230</ele>
        <time>2023-01-30T13:20:14.000Z</time>
      </trkpt>
      <trkpt lat="48.80259" lon="5.14565">
        <ele>230</ele>
        <time>2023-01-30T13:20:15.000Z</time>
      </trkpt>
      <trkpt lat="48.8026" lon="5.14567">
        <ele>230</ele>
        <time>2023-01-30T13:20:16.000Z</time>
      </trkpt>
      <trkpt lat="48.80261" lon="5.14568">
        <ele>230</ele>
        <time>2023-01-30T13:20:17.000Z</time>
      </trkpt>
      <trkpt lat="48.80262" lon="5.14569">
        <ele>230.3</ele>
        <time>2023-01-30T13:20:18.000Z</time>
      </trkpt>
      <trkpt lat="48.80263" lon="5.14571">
        <ele>230.7</ele>
        <time>2023-01-30T13:20:19.000Z</time>
      </trkpt>
      <trkpt lat="48.80264" lon="5.14572">
        <ele>231</ele>
        <time>2023-01-30T13:20:20.000Z</time>
      </trkpt>
      <trkpt lat="48.80265" lon="5.14573">
        <ele>231</ele>
        <time>2023-01-30T13:20:21.000Z</time>
      </trkpt>
      <trkpt lat="48.80266" lon="5.14575">
        <ele>231</ele>
        <time>2023-01-30T13:20:22.000Z</time>
      </trkpt>
      <trkpt lat="48.80267" lon="5.14576">
        <ele>231</ele>
        <time>2023-01-30T13:20:23.000Z</time>
      </trkpt>
      <trkpt lat="48.80268" lon="5.14577">
        <ele>231</ele>
        <time>2023-01-30T13:20:24.000Z</time>
      </trkpt>
      <trkpt lat="48.80269" lon="5.14578">
        <ele>231</ele>
        <time>2023-01-30T13:20:25.000Z</time>
      </trkpt>
      <trkpt lat="48.80269" lon="5.14579">
        <ele>231.3</ele>
        <time>2023-01-30T13:20:26.000Z</time>
      </trkpt>
      <trkpt lat="48.8027" lon="5.1458">
        <ele>231.7</ele>
        <time>2023-01-30T13:20:27.000Z</time>
      </trkpt>
      <trkpt lat="48.8027" lon="5.1458">
        <ele>232</ele>
        <time>2023-01-30T13:20:28.000Z</time>
      </trkpt>
      <trkpt lat="48.80272" lon="5.14581">
        <ele>232</ele>
        <time>2023-01-30T13:20:29.000Z</time>
      </trkpt>
      <trkpt lat="48.80274" lon="5.14582">
        <ele>231.7</ele>
        <time>2023-01-30T13:20:30.000Z</time>
      </trkpt>
      <trkpt lat="48.80275" lon="5.14583">
        <ele>231.3</ele>
        <time>2023-01-30T13:20:31.000Z</time>
      </trkpt>
      <trkpt lat="48.80276" lon="5.14583">
        <ele>231</ele>
        <time>2023-01-30T13:20:32.000Z</time>
      </trkpt>
      <trkpt lat="48.80277" lon="5.14583">
        <ele>231</ele>
        <time>2023-01-30T13:20:33.000Z</time>
      </trkpt>
      <trkpt lat="48.80278" lon="5.14583">
        <ele>231</ele>
        <time>2023-01-30T13:20:34.000Z</time>
      </trkpt>
      <trkpt lat="48.80279" lon="5.14584">
        <ele>231</ele>
        <time>2023-01-30T13:20:35.000Z</time>
      </trkpt>
      <trkpt lat="48.8028" lon="5.14584">
        <ele>230.7</ele>
        <time>2023-01-30T13:20:36.000Z</time>
      </trkpt>
      <trkpt lat="48.80281" lon="5.14584">
        <ele>230.3</ele>
        <time>2023-01-30T13:20:37.000Z</time>
      </trkpt>
      <trkpt lat="48.80282" lon="5.14585">
        <ele>230</ele>
        <time>2023-01-30T13:20:38.000Z</time>
      </trkpt>
      <trkpt lat="48.80283" lon="5.14585">
        <ele>230</ele>
        <time>2023-01-30T13:20:39.000Z</time>
      </trkpt>
      <trkpt lat="48.80285" lon="5.14586">
        <ele>230</ele>
        <time>2023-01-30T13:20:40.000Z</time>
      </trkpt>
      <trkpt lat="48.80286" lon="5.14587">
        <ele>230</ele>
        <time>2023-01-30T13:20:41.000Z</time>
      </trkpt>
      <trkpt lat="48.80287" lon="5.14587">
        <ele>230</ele>
        <time>2023-01-30T13:20:42.000Z</time>
      </trkpt>
      <trkpt lat="48.80288" lon="5.14588">
        <ele>230</ele>
        <time>2023-01-30T13:20:43.000Z</time>
      </trkpt>
      <trkpt lat="48.80289" lon="5.14589">
        <ele>230</ele>
        <time>2023-01-30T13:20:44.000Z</time>
      </trkpt>
      <trkpt lat="48.8029" lon="5.1459">
        <ele>231</ele>
        <time>2023-01-30T13:20:45.000Z</time>
      </trkpt>
      <trkpt lat="48.80291" lon="5.1459">
        <ele>231</ele>
        <time>2023-01-30T13:20:46.000Z</time>
      </trkpt>
      <trkpt lat="48.80291" lon="5.14591">
        <ele>231</ele>
        <time>2023-01-30T13:20:47.000Z</time>
      </trkpt>
      <trkpt lat="48.80292" lon="5.14592">
        <ele>231</ele>
        <time>2023-01-30T13:20:48.000Z</time>
      </trkpt>
      <trkpt lat="48.80293" lon="5.14592">
        <ele>231</ele>
        <time>2023-01-30T13:20:49.000Z</time>
      </trkpt>
      <trkpt lat="48.80294" lon="5.14593">
        <ele>231.3</ele>
        <time>2023-01-30T13:20:50.000Z</time>
      </trkpt>
      <trkpt lat="48.80295" lon="5.14593">
        <ele>231.7</ele>
        <time>2023-01-30T13:20:51.000Z</time>
      </trkpt>
      <trkpt lat="48.80295" lon="5.14594">
        <ele>232</ele>
        <time>2023-01-30T13:20:52.000Z</time>
      </trkpt>
      <trkpt lat="48.80296" lon="5.14595">
        <ele>232</ele>
        <time>2023-01-30T13:20:53.000Z</time>
      </trkpt>
      <trkpt lat="48.80297" lon="5.14596">
        <ele>232.3</ele>
        <time>2023-01-30T13:20:54.000Z</time>
      </trkpt>
      <trkpt lat="48.80297" lon="5.14597">
        <ele>232.7</ele>
        <time>2023-01-30T13:20:55.000Z</time>
      </trkpt>
      <trkpt lat="48.80298" lon="5.14599">
        <ele>233</ele>
        <time>2023-01-30T13:20:56.000Z</time>
      </trkpt>
      <trkpt lat="48.80298" lon="5.146">
        <ele>233</ele>
        <time>2023-01-30T13:20:57.000Z</time>
      </trkpt>
      <trkpt lat="48.80299" lon="5.14602">
        <ele>233</ele>
        <time>2023-01-30T13:20:58.000Z</time>
      </trkpt>
      <trkpt lat="48.803" lon="5.14606">
        <ele>233</ele>
        <time>2023-01-30T13:20:59.000Z</time>
      </trkpt>
      <trkpt lat="48.80301" lon="5.14609">
        <ele>233.3</ele>
        <time>2023-01-30T13:21:00.000Z</time>
      </trkpt>
      <trkpt lat="48.80302" lon="5.14612">
        <ele>233.7</ele>
        <time>2023-01-30T13:21:01.000Z</time>
      </trkpt>
      <trkpt lat="48.80302" lon="5.14615">
        <ele>234</ele>
        <time>2023-01-30T13:21:02.000Z</time>
      </trkpt>
      <trkpt lat="48.80303" lon="5.14618">
        <ele>234</ele>
        <time>2023-01-30T13:21:03.000Z</time>
      </trkpt>
      <trkpt lat="48.80303" lon="5.1462">
        <ele>234</ele>
        <time>2023-01-30T13:21:04.000Z</time>
      </trkpt>
      <trkpt lat="48.80304" lon="5.14622">
        <ele>234</ele>
        <time>2023-01-30T13:21:05.000Z</time>
      </trkpt>
      <trkpt lat="48.80304" lon="5.14624">
        <ele>234</ele>
        <time>2023-01-30T13:21:06.000Z</time>
      </trkpt>
      <trkpt lat="48.80304" lon="5.14626">
        <ele>234</ele>
        <time>2023-01-30T13:21:07.000Z</time>
      </trkpt>
      <trkpt lat="48.80305" lon="5.14628">
        <ele>234</ele>
        <time>2023-01-30T13:21:08.000Z</time>
      </trkpt>
      <trkpt lat="48.80305" lon="5.14629">
        <ele>234</ele>
        <time>2023-01-30T13:21:09.000Z</time>
      </trkpt>
      <trkpt lat="48.80305" lon="5.14631">
        <ele>234</ele>
        <time>2023-01-30T13:21:10.000Z</time>
      </trkpt>
      <trkpt lat="48.80305" lon="5.14632">
        <ele>234</ele>
        <time>2023-01-30T13:21:11.000Z</time>
      </trkpt>
      <trkpt lat="48.80305" lon="5.14633">
        <ele>234</ele>
        <time>2023-01-30T13:21:12.000Z</time>
      </trkpt>
      <trkpt lat="48.80305" lon="5.14634">
        <ele>234</ele>
        <time>2023-01-30T13:21:13.000Z</time>
      </trkpt>
      <trkpt lat="48.80305" lon="5.14635">
        <ele>234</ele>
        <time>2023-01-30T13:21:14.000Z</time>
      </trkpt>
      <trkpt lat="48.80304" lon="5.14636">
        <ele>234</ele>
        <time>2023-01-30T13:21:15.000Z</time>
      </trkpt>
      <trkpt lat="48.80304" lon="5.14637">
        <ele>234</ele>
        <time>2023-01-30T13:21:16.000Z</time>
      </trkpt>
      <trkpt lat="48.80303" lon="5.14637">
        <ele>234</ele>
        <time>2023-01-30T13:21:17.000Z</time>
      </trkpt>
      <trkpt lat="48.80303" lon="5.14638">
        <ele>234</ele>
        <time>2023-01-30T13:21:18.000Z</time>
      </trkpt>
      <trkpt lat="48.80302" lon="5.14639">
        <ele>234</ele>
        <time>2023-01-30T13:21:19.000Z</time>
      </trkpt>
      <trkpt lat="48.80302" lon="5.14641">
        <ele>234</ele>
        <time>2023-01-30T13:21:20.000Z</time>
      </trkpt>
      <trkpt lat="48.80302" lon="5.14642">
        <ele>234</ele>
        <time>2023-01-30T13:21:21.000Z</time>
      </trkpt>
      <trkpt lat="48.80302" lon="5.14643">
        <ele>234</ele>
        <time>2023-01-30T13:21:22.000Z</time>
      </trkpt>
      <trkpt lat="48.80301" lon="5.14644">
        <ele>234</ele>
        <time>2023-01-30T13:21:23.000Z</time>
      </trkpt>
      <trkpt lat="48.80301" lon="5.14644">
        <ele>234</ele>
        <time>2023-01-30T13:21:24.000Z</time>
      </trkpt>
      <trkpt lat="48.80301" lon="5.14645">
        <ele>234</ele>
        <time>2023-01-30T13:21:25.000Z</time>
      </trkpt>
      <trkpt lat="48.80301" lon="5.14646">
        <ele>234</ele>
        <time>2023-01-30T13:21:26.000Z</time>
      </trkpt>
      <trkpt lat="48.803" lon="5.14647">
        <ele>234</ele>
        <time>2023-01-30T13:21:27.000Z</time>
      </trkpt>
      <trkpt lat="48.803" lon="5.14648">
        <ele>234</ele>
        <time>2023-01-30T13:21:28.000Z</time>
      </trkpt>
      <trkpt lat="48.80299" lon="5.14649">
        <ele>234</ele>
        <time>2023-01-30T13:21:29.000Z</time>
      </trkpt>
      <trkpt lat="48.80299" lon="5.1465">
        <ele>234</ele>
        <time>2023-01-30T13:21:30.000Z</time>
      </trkpt>
      <trkpt lat="48.80298" lon="5.14651">
        <ele>234</ele>
        <time>2023-01-30T13:21:31.000Z</time>
      </trkpt>
      <trkpt lat="48.80298" lon="5.14652">
        <ele>234</ele>
        <time>2023-01-30T13:21:32.000Z</time>
      </trkpt>
      <trkpt lat="48.80297" lon="5.14652">
        <ele>234</ele>
        <time>2023-01-30T13:21:33.000Z</time>
      </trkpt>
      <trkpt lat="48.80296" lon="5.14653">
        <ele>234</ele>
        <time>2023-01-30T13:21:34.000Z</time>
      </trkpt>
      <trkpt lat="48.80296" lon="5.14653">
        <ele>234</ele>
        <time>2023-01-30T13:21:35.000Z</time>
      </trkpt>
      <trkpt lat="48.80295" lon="5.14653">
        <ele>234</ele>
        <time>2023-01-30T13:21:36.000Z</time>
      </trkpt>
      <trkpt lat="48.80295" lon="5.14653">
        <ele>234</ele>
        <time>2023-01-30T13:21:37.000Z</time>
      </trkpt>
      <trkpt lat="48.80294" lon="5.14653">
        <ele>234</ele>
        <time>2023-01-30T13:21:38.000Z</time>
      </trkpt>
      <trkpt lat="48.80294" lon="5.14653">
        <ele>234</ele>
        <time>2023-01-30T13:21:39.000Z</time>
      </trkpt>
      <trkpt lat="48.80294" lon="5.14653">
        <ele>234</ele>
        <time>2023-01-30T13:21:40.000Z</time>
      </trkpt>
      <trkpt lat="48.80294" lon="5.14653">
        <ele>234</ele>
        <time>2023-01-30T13:21:41.000Z</time>
      </trkpt>
      <trkpt lat="48.80294" lon="5.14653">
        <ele>234</ele>
        <time>2023-01-30T13:21:42.000Z</time>
      </trkpt>
      <trkpt lat="48.80294" lon="5.14654">
        <ele>234</ele>
        <time>2023-01-30T13:21:43.000Z</time>
      </trkpt>
      <trkpt lat="48.80293" lon="5.14653">
        <ele>234</ele>
        <time>2023-01-30T13:21:44.000Z</time>
      </trkpt>
      <trkpt lat="48.80292" lon="5.14653">
        <ele>234</ele>
        <time>2023-01-30T13:21:45.000Z</time>
      </trkpt>
      <trkpt lat="48.80291" lon="5.14653">
        <ele>234</ele>
        <time>2023-01-30T13:21:46.000Z</time>
      </trkpt>
      <trkpt lat="48.80291" lon="5.14653">
        <ele>234</ele>
        <time>2023-01-30T13:21:47.000Z</time>
      </trkpt>
      <trkpt lat="48.8029" lon="5.14653">
        <ele>233.7</ele>
        <time>2023-01-30T13:21:48.000Z</time>
      </trkpt>
      <trkpt lat="48.80289" lon="5.14652">
        <ele>233.3</ele>
        <time>2023-01-30T13:21:49.000Z</time>
      </trkpt>
      <trkpt lat="48.80288" lon="5.14652">
        <ele>233</ele>
        <time>2023-01-30T13:21:50.000Z</time>
      </trkpt>
      <trkpt lat="48.80286" lon="5.14652">
        <ele>233</ele>
        <time>2023-01-30T13:21:51.000Z</time>
      </trkpt>
      <trkpt lat="48.80285" lon="5.14654">
        <ele>233</ele>
        <time>2023-01-30T13:21:52.000Z</time>
      </trkpt>
      <trkpt lat="48.80284" lon="5.14656">
        <ele>233</ele>
        <time>2023-01-30T13:21:53.000Z</time>
      </trkpt>
      <trkpt lat="48.80283" lon="5.14657">
        <ele>233</ele>
        <time>2023-01-30T13:21:54.000Z</time>
      </trkpt>
      <trkpt lat="48.80282" lon="5.14659">
        <ele>233</ele>
        <time>2023-01-30T13:21:55.000Z</time>
      </trkpt>
      <trkpt lat="48.8028" lon="5.14659">
        <ele>233</ele>
        <time>2023-01-30T13:21:56.000Z</time>
      </trkpt>
      <trkpt lat="48.80279" lon="5.1466">
        <ele>233</ele>
        <time>2023-01-30T13:21:57.000Z</time>
      </trkpt>
      <trkpt lat="48.80278" lon="5.14661">
        <ele>233</ele>
        <time>2023-01-30T13:21:58.000Z</time>
      </trkpt>
      <trkpt lat="48.80277" lon="5.14662">
        <ele>233</ele>
        <time>2023-01-30T13:21:59.000Z</time>
      </trkpt>
      <trkpt lat="48.80276" lon="5.14663">
        <ele>233</ele>
        <time>2023-01-30T13:22:00.000Z</time>
      </trkpt>
      <trkpt lat="48.80275" lon="5.14664">
        <ele>233</ele>
        <time>2023-01-30T13:22:01.000Z</time>
      </trkpt>
      <trkpt lat="48.80274" lon="5.14665">
        <ele>233</ele>
        <time>2023-01-30T13:22:02.000Z</time>
      </trkpt>
      <trkpt lat="48.80273" lon="5.14666">
        <ele>233</ele>
        <time>2023-01-30T13:22:03.000Z</time>
      </trkpt>
      <trkpt lat="48.80272" lon="5.14667">
        <ele>233</ele>
        <time>2023-01-30T13:22:04.000Z</time>
      </trkpt>
      <trkpt lat="48.80271" lon="5.14669">
        <ele>233</ele>
        <time>2023-01-30T13:22:05.000Z</time>
      </trkpt>
      <trkpt lat="48.8027" lon="5.14671">
        <ele>233</ele>
        <time>2023-01-30T13:22:06.000Z</time>
      </trkpt>
      <trkpt lat="48.8027" lon="5.14673">
        <ele>233</ele>
        <time>2023-01-30T13:22:07.000Z</time>
      </trkpt>
      <trkpt lat="48.80269" lon="5.14675">
        <ele>233</ele>
        <time>2023-01-30T13:22:08.000Z</time>
      </trkpt>
      <trkpt lat="48.80268" lon="5.14677">
        <ele>233</ele>
        <time>2023-01-30T13:22:09.000Z</time>
      </trkpt>
      <trkpt lat="48.80268" lon="5.14678">
        <ele>233.3</ele>
        <time>2023-01-30T13:22:10.000Z</time>
      </trkpt>
      <trkpt lat="48.80268" lon="5.1468">
        <ele>233.7</ele>
        <time>2023-01-30T13:22:11.000Z</time>
      </trkpt>
      <trkpt lat="48.80267" lon="5.14681">
        <ele>234</ele>
        <time>2023-01-30T13:22:12.000Z</time>
      </trkpt>
      <trkpt lat="48.80267" lon="5.14682">
        <ele>234</ele>
        <time>2023-01-30T13:22:13.000Z</time>
      </trkpt>
      <trkpt lat="48.80267" lon="5.14682">
        <ele>234</ele>
        <time>2023-01-30T13:22:14.000Z</time>
      </trkpt>
      <trkpt lat="48.80267" lon="5.14683">
        <ele>234</ele>
        <time>2023-01-30T13:22:15.000Z</time>
      </trkpt>
      <trkpt lat="48.80267" lon="5.14683">
        <ele>234</ele>
        <time>2023-01-30T13:22:16.000Z</time>
      </trkpt>
      <trkpt lat="48.80268" lon="5.14683">
        <ele>234</ele>
        <time>2023-01-30T13:22:17.000Z</time>
      </trkpt>
      <trkpt lat="48.80268" lon="5.14683">
        <ele>234</ele>
        <time>2023-01-30T13:22:18.000Z</time>
      </trkpt>
      <trkpt lat="48.80269" lon="5.14683">
        <ele>235</ele>
        <time>2023-01-30T13:22:19.000Z</time>
      </trkpt>
      <trkpt lat="48.80269" lon="5.14683">
        <ele>235</ele>
        <time>2023-01-30T13:22:20.000Z</time>
      </trkpt>
      <trkpt lat="48.8027" lon="5.14682">
        <ele>235</ele>
        <time>2023-01-30T13:22:21.000Z</time>
      </trkpt>
      <trkpt lat="48.80271" lon="5.14682">
        <ele>235</ele>
        <time>2023-01-30T13:22:22.000Z</time>
      </trkpt>
      <trkpt lat="48.80272" lon="5.14682">
        <ele>235</ele>
        <time>2023-01-30T13:22:23.000Z</time>
      </trkpt>
      <trkpt lat="48.80272" lon="5.14683">
        <ele>235</ele>
        <time>2023-01-30T13:22:24.000Z</time>
      </trkpt>
      <trkpt lat="48.80273" lon="5.14684">
        <ele>235</ele>
        <time>2023-01-30T13:22:25.000Z</time>
      </trkpt>
      <trkpt lat="48.80274" lon="5.14686">
        <ele>235</ele>
        <time>2023-01-30T13:22:26.000Z</time>
      </trkpt>
      <trkpt lat="48.80275" lon="5.14688">
        <ele>235</ele>
        <time>2023-01-30T13:22:27.000Z</time>
      </trkpt>
      <trkpt lat="48.80275" lon="5.1469">
        <ele>235</ele>
        <time>2023-01-30T13:22:28.000Z</time>
      </trkpt>
      <trkpt lat="48.80276" lon="5.14692">
        <ele>235</ele>
        <time>2023-01-30T13:22:29.000Z</time>
      </trkpt>
      <trkpt lat="48.80276" lon="5.14694">
        <ele>235</ele>
        <time>2023-01-30T13:22:30.000Z</time>
      </trkpt>
      <trkpt lat="48.80277" lon="5.14695">
        <ele>235</ele>
        <time>2023-01-30T13:22:31.000Z</time>
      </trkpt>
      <trkpt lat="48.80277" lon="5.14697">
        <ele>235</ele>
        <time>2023-01-30T13:22:32.000Z</time>
      </trkpt>
      <trkpt lat="48.80278" lon="5.14698">
        <ele>235</ele>
        <time>2023-01-30T13:22:33.000Z</time>
      </trkpt>
      <trkpt lat="48.80279" lon="5.147">
        <ele>235</ele>
        <time>2023-01-30T13:22:34.000Z</time>
      </trkpt>
      <trkpt lat="48.8028" lon="5.14702">
        <ele>235</ele>
        <time>2023-01-30T13:22:35.000Z</time>
      </trkpt>
      <trkpt lat="48.80281" lon="5.14704">
        <ele>235</ele>
        <time>2023-01-30T13:22:36.000Z</time>
      </trkpt>
      <trkpt lat="48.80282" lon="5.14706">
        <ele>236</ele>
        <time>2023-01-30T13:22:37.000Z</time>
      </trkpt>
      <trkpt lat="48.80282" lon="5.14708">
        <ele>236</ele>
        <time>2023-01-30T13:22:38.000Z</time>
      </trkpt>
      <trkpt lat="48.80283" lon="5.1471">
        <ele>236</ele>
        <time>2023-01-30T13:22:39.000Z</time>
      </trkpt>
      <trkpt lat="48.80284" lon="5.14712">
        <ele>236</ele>
        <time>2023-01-30T13:22:40.000Z</time>
      </trkpt>
      <trkpt lat="48.80284" lon="5.14714">
        <ele>236</ele>
        <time>2023-01-30T13:22:41.000Z</time>
      </trkpt>
      <trkpt lat="48.80285" lon="5.14715">
        <ele>236</ele>
        <time>2023-01-30T13:22:42.000Z</time>
      </trkpt>
      <trkpt lat="48.80286" lon="5.14716">
        <ele>236</ele>
        <time>2023-01-30T13:22:43.000Z</time>
      </trkpt>
      <trkpt lat="48.80287" lon="5.14717">
        <ele>236</ele>
        <time>2023-01-30T13:22:44.000Z</time>
      </trkpt>
      <trkpt lat="48.80289" lon="5.14717">
        <ele>236</ele>
        <time>2023-01-30T13:22:45.000Z</time>
      </trkpt>
      <trkpt lat="48.8029" lon="5.14717">
        <ele>236</ele>
        <time>2023-01-30T13:22:46.000Z</time>
      </trkpt>
      <trkpt lat="48.80292" lon="5.14718">
        <ele>236</ele>
        <time>2023-01-30T13:22:47.000Z</time>
      </trkpt>
      <trkpt lat="48.80293" lon="5.14718">
        <ele>236</ele>
        <time>2023-01-30T13:22:48.000Z</time>
      </trkpt>
      <trkpt lat="48.80295" lon="5.14718">
        <ele>236</ele>
        <time>2023-01-30T13:22:49.000Z</time>
      </trkpt>
      <trkpt lat="48.80296" lon="5.14719">
        <ele>236</ele>
        <time>2023-01-30T13:22:50.000Z</time>
      </trkpt>
      <trkpt lat="48.80297" lon="5.1472">
        <ele>236</ele>
        <time>2023-01-30T13:22:51.000Z</time>
      </trkpt>
      <trkpt lat="48.80298" lon="5.14721">
        <ele>236</ele>
        <time>2023-01-30T13:22:52.000Z</time>
      </trkpt>
      <trkpt lat="48.80299" lon="5.14721">
        <ele>236</ele>
        <time>2023-01-30T13:22:53.000Z</time>
      </trkpt>
      <trkpt lat="48.803" lon="5.14722">
        <ele>236</ele>
        <time>2023-01-30T13:22:54.000Z</time>
      </trkpt>
      <trkpt lat="48.80301" lon="5.14722">
        <ele>236</ele>
        <time>2023-01-30T13:22:55.000Z</time>
      </trkpt>
      <trkpt lat="48.80302" lon="5.14722">
        <ele>236</ele>
        <time>2023-01-30T13:22:56.000Z</time>
      </trkpt>
      <trkpt lat="48.80302" lon="5.14721">
        <ele>236</ele>
        <time>2023-01-30T13:22:57.000Z</time>
      </trkpt>
      <trkpt lat="48.80303" lon="5.14721">
        <ele>236</ele>
        <time>2023-01-30T13:22:58.000Z</time>
      </trkpt>
      <trkpt lat="48.80304" lon="5.14721">
        <ele>236</ele>
        <time>2023-01-30T13:22:59.000Z</time>
      </trkpt>
      <trkpt lat="48.80305" lon="5.14722">
        <ele>236</ele>
        <time>2023-01-30T13:23:00.000Z</time>
      </trkpt>
      <trkpt lat="48.80306" lon="5.14723">
        <ele>236</ele>
        <time>2023-01-30T13:23:01.000Z</time>
      </trkpt>
      <trkpt lat="48.80307" lon="5.14725">
        <ele>236</ele>
        <time>2023-01-30T13:23:02.000Z</time>
      </trkpt>
      <trkpt lat="48.80307" lon="5.14726">
        <ele>236</ele>
        <time>2023-01-30T13:23:03.000Z</time>
      </trkpt>
      <trkpt lat="48.80308" lon="5.14727">
        <ele>236</ele>
        <time>2023-01-30T13:23:04.000Z</time>
      </trkpt>
      <trkpt lat="48.80309" lon="5.14727">
        <ele>236</ele>
        <time>2023-01-30T13:23:05.000Z</time>
      </trkpt>
      <trkpt lat="48.8031" lon="5.14727">
        <ele>236</ele>
        <time>2023-01-30T13:23:06.000Z</time>
      </trkpt>
      <trkpt lat="48.8031" lon="5.14727">
        <ele>236</ele>
        <time>2023-01-30T13:23:07.000Z</time>
      </trkpt>
      <trkpt lat="48.80311" lon="5.14727">
        <ele>236</ele>
        <time>2023-01-30T13:23:08.000Z</time>
      </trkpt>
      <trkpt lat="48.80312" lon="5.14728">
        <ele>236</ele>
        <time>2023-01-30T13:23:09.000Z</time>
      </trkpt>
      <trkpt lat="48.80312" lon="5.14728">
        <ele>236</ele>
        <time>2023-01-30T13:23:10.000Z</time>
      </trkpt>
      <trkpt lat="48.80313" lon="5.14728">
        <ele>236</ele>
        <time>2023-01-30T13:23:11.000Z</time>
      </trkpt>
      <trkpt lat="48.80314" lon="5.14729">
        <ele>236</ele>
        <time>2023-01-30T13:23:12.000Z</time>
      </trkpt>
      <trkpt lat="48.80315" lon="5.1473">
        <ele>236</ele>
        <time>2023-01-30T13:23:13.000Z</time>
      </trkpt>
      <trkpt lat="48.80316" lon="5.1473">
        <ele>236</ele>
        <time>2023-01-30T13:23:14.000Z</time>
      </trkpt>
      <trkpt lat="48.80316" lon="5.14731">
        <ele>236</ele>
        <time>2023-01-30T13:23:15.000Z</time>
      </trkpt>
      <trkpt lat="48.80317" lon="5.14732">
        <ele>236</ele>
        <time>2023-01-30T13:23:16.000Z</time>
      </trkpt>
      <trkpt lat="48.80317" lon="5.14734">
        <ele>236</ele>
        <time>2023-01-30T13:23:17.000Z</time>
      </trkpt>
      <trkpt lat="48.80318" lon="5.14735">
        <ele>236</ele>
        <time>2023-01-30T13:23:18.000Z</time>
      </trkpt>
      <trkpt lat="48.80318" lon="5.14736">
        <ele>236</ele>
        <time>2023-01-30T13:23:19.000Z</time>
      </trkpt>
      <trkpt lat="48.80319" lon="5.14737">
        <ele>236</ele>
        <time>2023-01-30T13:23:20.000Z</time>
      </trkpt>
      <trkpt lat="48.80319" lon="5.14738">
        <ele>236</ele>
        <time>2023-01-30T13:23:21.000Z</time>
      </trkpt>
      <trkpt lat="48.80319" lon="5.14739">
        <ele>236</ele>
        <time>2023-01-30T13:23:22.000Z</time>
      </trkpt>
      <trkpt lat="48.80319" lon="5.1474">
        <ele>236</ele>
        <time>2023-01-30T13:23:23.000Z</time>
      </trkpt>
      <trkpt lat="48.80319" lon="5.14741">
        <ele>236</ele>
        <time>2023-01-30T13:23:24.000Z</time>
      </trkpt>
      <trkpt lat="48.80319" lon="5.14742">
        <ele>237</ele>
        <time>2023-01-30T13:23:25.000Z</time>
      </trkpt>
      <trkpt lat="48.80319" lon="5.14744">
        <ele>237</ele>
        <time>2023-01-30T13:23:26.000Z</time>
      </trkpt>
      <trkpt lat="48.8032" lon="5.14745">
        <ele>237</ele>
        <time>2023-01-30T13:23:27.000Z</time>
      </trkpt>
      <trkpt lat="48.8032" lon="5.14746">
        <ele>237</ele>
        <time>2023-01-30T13:23:28.000Z</time>
      </trkpt>
      <trkpt lat="48.8032" lon="5.14747">
        <ele>237</ele>
        <time>2023-01-30T13:23:29.000Z</time>
      </trkpt>
      <trkpt lat="48.8032" lon="5.14748">
        <ele>237</ele>
        <time>2023-01-30T13:23:30.000Z</time>
      </trkpt>
      <trkpt lat="48.80321" lon="5.1475">
        <ele>237</ele>
        <time>2023-01-30T13:23:31.000Z</time>
      </trkpt>
      <trkpt lat="48.80321" lon="5.14751">
        <ele>237</ele>
        <time>2023-01-30T13:23:32.000Z</time>
      </trkpt>
      <trkpt lat="48.80322" lon="5.14753">
        <ele>237</ele>
        <time>2023-01-30T13:23:33.000Z</time>
      </trkpt>
      <trkpt lat="48.80322" lon="5.14755">
        <ele>237</ele>
        <time>2023-01-30T13:23:34.000Z</time>
      </trkpt>
      <trkpt lat="48.80323" lon="5.14757">
        <ele>237</ele>
        <time>2023-01-30T13:23:35.000Z</time>
      </trkpt>
      <trkpt lat="48.80324" lon="5.14759">
        <ele>237</ele>
        <time>2023-01-30T13:23:36.000Z</time>
      </trkpt>
      <trkpt lat="48.80324" lon="5.14761">
        <ele>237</ele>
        <time>2023-01-30T13:23:37.000Z</time>
      </trkpt>
      <trkpt lat="48.80325" lon="5.14763">
        <ele>237</ele>
        <time>2023-01-30T13:23:38.000Z</time>
      </trkpt>
      <trkpt lat="48.80325" lon="5.14765">
        <ele>237</ele>
        <time>2023-01-30T13:23:39.000Z</time>
      </trkpt>
      <trkpt lat="48.80326" lon="5.14766">
        <ele>237</ele>
        <time>2023-01-30T13:23:40.000Z</time>
      </trkpt>
      <trkpt lat="48.80326" lon="5.14768">
        <ele>237</ele>
        <time>2023-01-30T13:23:41.000Z</time>
      </trkpt>
      <trkpt lat="48.80326" lon="5.14769">
        <ele>237</ele>
        <time>2023-01-30T13:23:42.000Z</time>
      </trkpt>
      <trkpt lat="48.80326" lon="5.1477">
        <ele>237</ele>
        <time>2023-01-30T13:23:43.000Z</time>
      </trkpt>
      <trkpt lat="48.80327" lon="5.14772">
        <ele>237</ele>
        <time>2023-01-30T13:23:44.000Z</time>
      </trkpt>
      <trkpt lat="48.80327" lon="5.14773">
        <ele>237</ele>
        <time>2023-01-30T13:23:45.000Z</time>
      </trkpt>
      <trkpt lat="48.80327" lon="5.14775">
        <ele>237</ele>
        <time>2023-01-30T13:23:46.000Z</time>
      </trkpt>
      <trkpt lat="48.80327" lon="5.14777">
        <ele>237</ele>
        <time>2023-01-30T13:23:47.000Z</time>
      </trkpt>
      <trkpt lat="48.80327" lon="5.14779">
        <ele>237</ele>
        <time>2023-01-30T13:23:48.000Z</time>
      </trkpt>
      <trkpt lat="48.80327" lon="5.14781">
        <ele>237</ele>
        <time>2023-01-30T13:23:49.000Z</time>
      </trkpt>
      <trkpt lat="48.80327" lon="5.14783">
        <ele>237</ele>
        <time>2023-01-30T13:23:50.000Z</time>
      </trkpt>
      <trkpt lat="48.80327" lon="5.14785">
        <ele>237</ele>
        <time>2023-01-30T13:23:51.000Z</time>
      </trkpt>
      <trkpt lat="48.80326" lon="5.14786">
        <ele>237</ele>
        <time>2023-01-30T13:23:52.000Z</time>
      </trkpt>
      <trkpt lat="48.80326" lon="5.14787">
        <ele>237.5</ele>
        <time>2023-01-30T13:23:53.000Z</time>
      </trkpt>
      <trkpt lat="48.80326" lon="5.14789">
        <ele>238</ele>
        <time>2023-01-30T13:23:54.000Z</time>
      </trkpt>
      <trkpt lat="48.80325" lon="5.1479">
        <ele>238</ele>
        <time>2023-01-30T13:23:55.000Z</time>
      </trkpt>
      <trkpt lat="48.80325" lon="5.14791">
        <ele>238</ele>
        <time>2023-01-30T13:23:56.000Z</time>
      </trkpt>
      <trkpt lat="48.80325" lon="5.14792">
        <ele>237</ele>
        <time>2023-01-30T13:23:57.000Z</time>
      </trkpt>
      <trkpt lat="48.80325" lon="5.14793">
        <ele>237</ele>
        <time>2023-01-30T13:23:58.000Z</time>
      </trkpt>
      <trkpt lat="48.80326" lon="5.14795">
        <ele>237</ele>
        <time>2023-01-30T13:23:59.000Z</time>
      </trkpt>
      <trkpt lat="48.80326" lon="5.14796">
        <ele>237</ele>
        <time>2023-01-30T13:24:00.000Z</time>
      </trkpt>
      <trkpt lat="48.80326" lon="5.14797">
        <ele>237</ele>
        <time>2023-01-30T13:24:01.000Z</time>
      </trkpt>
      <trkpt lat="48.80327" lon="5.14798">
        <ele>237</ele>
        <time>2023-01-30T13:24:02.000Z</time>
      </trkpt>
      <trkpt lat="48.80329" lon="5.14799">
        <ele>237</ele>
        <time>2023-01-30T13:24:03.000Z</time>
      </trkpt>
      <trkpt lat="48.80331" lon="5.148">
        <ele>237</ele>
        <time>2023-01-30T13:24:04.000Z</time>
      </trkpt>
      <trkpt lat="48.80333" lon="5.14801">
        <ele>237</ele>
        <time>2023-01-30T13:24:05.000Z</time>
      </trkpt>
      <trkpt lat="48.80335" lon="5.14802">
        <ele>237</ele>
        <time>2023-01-30T13:24:06.000Z</time>
      </trkpt>
      <trkpt lat="48.80336" lon="5.14803">
        <ele>237</ele>
        <time>2023-01-30T13:24:07.000Z</time>
      </trkpt>
      <trkpt lat="48.80338" lon="5.14803">
        <ele>237</ele>
        <time>2023-01-30T13:24:08.000Z</time>
      </trkpt>
      <trkpt lat="48.80339" lon="5.14804">
        <ele>237</ele>
        <time>2023-01-30T13:24:09.000Z</time>
      </trkpt>
      <trkpt lat="48.8034" lon="5.14805">
        <ele>237</ele>
        <time>2023-01-30T13:24:10.000Z</time>
      </trkpt>
      <trkpt lat="48.80341" lon="5.14806">
        <ele>237</ele>
        <time>2023-01-30T13:24:11.000Z</time>
      </trkpt>
      <trkpt lat="48.80342" lon="5.14806">
        <ele>237</ele>
        <time>2023-01-30T13:24:12.000Z</time>
      </trkpt>
      <trkpt lat="48.80343" lon="5.14806">
        <ele>237</ele>
        <time>2023-01-30T13:24:13.000Z</time>
      </trkpt>
      <trkpt lat="48.80344" lon="5.14806">
        <ele>237</ele>
        <time>2023-01-30T13:24:14.000Z</time>
      </trkpt>
      <trkpt lat="48.80345" lon="5.14806">
        <ele>236.5</ele>
        <time>2023-01-30T13:24:15.000Z</time>
      </trkpt>
      <trkpt lat="48.80346" lon="5.14806">
        <ele>236</ele>
        <time>2023-01-30T13:24:16.000Z</time>
      </trkpt>
      <trkpt lat="48.80346" lon="5.14805">
        <ele>236</ele>
        <time>2023-01-30T13:24:17.000Z</time>
      </trkpt>
      <trkpt lat="48.80347" lon="5.14804">
        <ele>236</ele>
        <time>2023-01-30T13:24:18.000Z</time>
      </trkpt>
      <trkpt lat="48.80348" lon="5.14803">
        <ele>236</ele>
        <time>2023-01-30T13:24:19.000Z</time>
      </trkpt>
      <trkpt lat="48.80349" lon="5.14802">
        <ele>236</ele>
        <time>2023-01-30T13:24:20.000Z</time>
      </trkpt>
      <trkpt lat="48.8035" lon="5.148">
        <ele>236</ele>
        <time>2023-01-30T13:24:21.000Z</time>
      </trkpt>
      <trkpt lat="48.8035" lon="5.14799">
        <ele>236</ele>
        <time>2023-01-30T13:24:22.000Z</time>
      </trkpt>
      <trkpt lat="48.80351" lon="5.14798">
        <ele>236</ele>
        <time>2023-01-30T13:24:23.000Z</time>
      </trkpt>
      <trkpt lat="48.80351" lon="5.14798">
        <ele>236</ele>
        <time>2023-01-30T13:24:24.000Z</time>
      </trkpt>
      <trkpt lat="48.80351" lon="5.14797">
        <ele>235.5</ele>
        <time>2023-01-30T13:24:25.000Z</time>
      </trkpt>
      <trkpt lat="48.80352" lon="5.14797">
        <ele>235</ele>
        <time>2023-01-30T13:24:26.000Z</time>
      </trkpt>
      <trkpt lat="48.80352" lon="5.14797">
        <ele>236</ele>
        <time>2023-01-30T13:24:27.000Z</time>
      </trkpt>
      <trkpt lat="48.80352" lon="5.14797">
        <ele>236</ele>
        <time>2023-01-30T13:24:28.000Z</time>
      </trkpt>
      <trkpt lat="48.80353" lon="5.14796">
        <ele>236</ele>
        <time>2023-01-30T13:24:29.000Z</time>
      </trkpt>
      <trkpt lat="48.80354" lon="5.14795">
        <ele>236</ele>
        <time>2023-01-30T13:24:30.000Z</time>
      </trkpt>
      <trkpt lat="48.80354" lon="5.14794">
        <ele>236</ele>
        <time>2023-01-30T13:24:31.000Z</time>
      </trkpt>
      <trkpt lat="48.80355" lon="5.14793">
        <ele>236</ele>
        <time>2023-01-30T13:24:32.000Z</time>
      </trkpt>
      <trkpt lat="48.80356" lon="5.14792">
        <ele>236</ele>
        <time>2023-01-30T13:24:33.000Z</time>
      </trkpt>
      <trkpt lat="48.80357" lon="5.14791">
        <ele>236</ele>
        <time>2023-01-30T13:24:34.000Z</time>
      </trkpt>
      <trkpt lat="48.80358" lon="5.14791">
        <ele>236.5</ele>
        <time>2023-01-30T13:24:35.000Z</time>
      </trkpt>
      <trkpt lat="48.80359" lon="5.1479">
        <ele>237</ele>
        <time>2023-01-30T13:24:36.000Z</time>
      </trkpt>
      <trkpt lat="48.8036" lon="5.1479">
        <ele>237</ele>
        <time>2023-01-30T13:24:37.000Z</time>
      </trkpt>
      <trkpt lat="48.8036" lon="5.1479">
        <ele>237</ele>
        <time>2023-01-30T13:24:38.000Z</time>
      </trkpt>
      <trkpt lat="48.80361" lon="5.1479">
        <ele>237</ele>
        <time>2023-01-30T13:24:39.000Z</time>
      </trkpt>
      <trkpt lat="48.80362" lon="5.1479">
        <ele>237</ele>
        <time>2023-01-30T13:24:40.000Z</time>
      </trkpt>
      <trkpt lat="48.80363" lon="5.14791">
        <ele>236</ele>
        <time>2023-01-30T13:24:41.000Z</time>
      </trkpt>
      <trkpt lat="48.80363" lon="5.14791">
        <ele>236</ele>
        <time>2023-01-30T13:24:42.000Z</time>
      </trkpt>
      <trkpt lat="48.80364" lon="5.14792">
        <ele>236</ele>
        <time>2023-01-30T13:24:43.000Z</time>
      </trkpt>
      <trkpt lat="48.80364" lon="5.14794">
        <ele>236</ele>
        <time>2023-01-30T13:24:44.000Z</time>
      </trkpt>
      <trkpt lat="48.80365" lon="5.14795">
        <ele>236</ele>
        <time>2023-01-30T13:24:45.000Z</time>
      </trkpt>
      <trkpt lat="48.80365" lon="5.14796">
        <ele>236</ele>
        <time>2023-01-30T13:24:46.000Z</time>
      </trkpt>
      <trkpt lat="48.80365" lon="5.14798">
        <ele>236</ele>
        <time>2023-01-30T13:24:47.000Z</time>
      </trkpt>
      <trkpt lat="48.80366" lon="5.14799">
        <ele>236</ele>
        <time>2023-01-30T13:24:48.000Z</time>
      </trkpt>
      <trkpt lat="48.80366" lon="5.148">
        <ele>236</ele>
        <time>2023-01-30T13:24:49.000Z</time>
      </trkpt>
      <trkpt lat="48.80366" lon="5.14801">
        <ele>236</ele>
        <time>2023-01-30T13:24:50.000Z</time>
      </trkpt>
      <trkpt lat="48.80367" lon="5.14803">
        <ele>235.5</ele>
        <time>2023-01-30T13:24:51.000Z</time>
      </trkpt>
      <trkpt lat="48.80367" lon="5.14804">
        <ele>235</ele>
        <time>2023-01-30T13:24:52.000Z</time>
      </trkpt>
      <trkpt lat="48.80368" lon="5.14805">
        <ele>235</ele>
        <time>2023-01-30T13:24:53.000Z</time>
      </trkpt>
      <trkpt lat="48.80369" lon="5.14805">
        <ele>235</ele>
        <time>2023-01-30T13:24:54.000Z</time>
      </trkpt>
      <trkpt lat="48.8037" lon="5.14806">
        <ele>235</ele>
        <time>2023-01-30T13:24:55.000Z</time>
      </trkpt>
      <trkpt lat="48.80371" lon="5.14807">
        <ele>235</ele>
        <time>2023-01-30T13:24:56.000Z</time>
      </trkpt>
      <trkpt lat="48.80372" lon="5.14808">
        <ele>235</ele>
        <time>2023-01-30T13:24:57.000Z</time>
      </trkpt>
      <trkpt lat="48.80373" lon="5.14809">
        <ele>235</ele>
        <time>2023-01-30T13:24:58.000Z</time>
      </trkpt>
      <trkpt lat="48.80374" lon="5.14809">
        <ele>235</ele>
        <time>2023-01-30T13:24:59.000Z</time>
      </trkpt>
      <trkpt lat="48.80374" lon="5.1481">
        <ele>235</ele>
        <time>2023-01-30T13:25:00.000Z</time>
      </trkpt>
      <trkpt lat="48.80375" lon="5.1481">
        <ele>235</ele>
        <time>2023-01-30T13:25:01.000Z</time>
      </trkpt>
      <trkpt lat="48.80375" lon="5.14811">
        <ele>235</ele>
        <time>2023-01-30T13:25:02.000Z</time>
      </trkpt>
      <trkpt lat="48.80376" lon="5.14812">
        <ele>235</ele>
        <time>2023-01-30T13:25:03.000Z</time>
      </trkpt>
      <trkpt lat="48.80376" lon="5.14813">
        <ele>235</ele>
        <time>2023-01-30T13:25:04.000Z</time>
      </trkpt>
      <trkpt lat="48.80377" lon="5.14814">
        <ele>235</ele>
        <time>2023-01-30T13:25:05.000Z</time>
      </trkpt>
      <trkpt lat="48.80378" lon="5.14816">
        <ele>235</ele>
        <time>2023-01-30T13:25:06.000Z</time>
      </trkpt>
      <trkpt lat="48.80379" lon="5.14818">
        <ele>235</ele>
        <time>2023-01-30T13:25:07.000Z</time>
      </trkpt>
      <trkpt lat="48.8038" lon="5.1482">
        <ele>235</ele>
        <time>2023-01-30T13:25:08.000Z</time>
      </trkpt>
      <trkpt lat="48.80381" lon="5.14822">
        <ele>235</ele>
        <time>2023-01-30T13:25:09.000Z</time>
      </trkpt>
      <trkpt lat="48.80382" lon="5.14824">
        <ele>235</ele>
        <time>2023-01-30T13:25:10.000Z</time>
      </trkpt>
      <trkpt lat="48.80383" lon="5.14825">
        <ele>235</ele>
        <time>2023-01-30T13:25:11.000Z</time>
      </trkpt>
      <trkpt lat="48.80383" lon="5.14827">
        <ele>235</ele>
        <time>2023-01-30T13:25:12.000Z</time>
      </trkpt>
      <trkpt lat="48.80384" lon="5.14828">
        <ele>235</ele>
        <time>2023-01-30T13:25:13.000Z</time>
      </trkpt>
      <trkpt lat="48.80385" lon="5.1483">
        <ele>235</ele>
        <time>2023-01-30T13:25:14.000Z</time>
      </trkpt>
      <trkpt lat="48.80386" lon="5.14832">
        <ele>235</ele>
        <time>2023-01-30T13:25:15.000Z</time>
      </trkpt>
      <trkpt lat="48.80386" lon="5.14834">
        <ele>235</ele>
        <time>2023-01-30T13:25:16.000Z</time>
      </trkpt>
      <trkpt lat="48.80387" lon="5.14836">
        <ele>235</ele>
        <time>2023-01-30T13:25:17.000Z</time>
      </trkpt>
      <trkpt lat="48.80387" lon="5.14839">
        <ele>235</ele>
        <time>2023-01-30T13:25:18.000Z</time>
      </trkpt>
      <trkpt lat="48.80387" lon="5.14841">
        <ele>235</ele>
        <time>2023-01-30T13:25:19.000Z</time>
      </trkpt>
      <trkpt lat="48.80387" lon="5.14843">
        <ele>235</ele>
        <time>2023-01-30T13:25:20.000Z</time>
      </trkpt>
      <trkpt lat="48.80387" lon="5.14845">
        <ele>235</ele>
        <time>2023-01-30T13:25:21.000Z</time>
      </trkpt>
      <trkpt lat="48.80387" lon="5.14846">
        <ele>235</ele>
        <time>2023-01-30T13:25:22.000Z</time>
      </trkpt>
      <trkpt lat="48.80386" lon="5.14848">
        <ele>235</ele>
        <time>2023-01-30T13:25:23.000Z</time>
      </trkpt>
      <trkpt lat="48.80386" lon="5.1485">
        <ele>235</ele>
        <time>2023-01-30T13:25:24.000Z</time>
      </trkpt>
      <trkpt lat="48.80386" lon="5.14851">
        <ele>235</ele>
        <time>2023-01-30T13:25:25.000Z</time>
      </trkpt>
      <trkpt lat="48.80386" lon="5.14853">
        <ele>235</ele>
        <time>2023-01-30T13:25:26.000Z</time>
      </trkpt>
      <trkpt lat="48.80386" lon="5.14854">
        <ele>235</ele>
        <time>2023-01-30T13:25:27.000Z</time>
      </trkpt>
      <trkpt lat="48.80387" lon="5.14855">
        <ele>235</ele>
        <time>2023-01-30T13:25:28.000Z</time>
      </trkpt>
      <trkpt lat="48.80387" lon="5.14856">
        <ele>235</ele>
        <time>2023-01-30T13:25:29.000Z</time>
      </trkpt>
      <trkpt lat="48.80387" lon="5.14857">
        <ele>235.3</ele>
        <time>2023-01-30T13:25:30.000Z</time>
      </trkpt>
      <trkpt lat="48.80387" lon="5.14858">
        <ele>235.7</ele>
        <time>2023-01-30T13:25:31.000Z</time>
      </trkpt>
      <trkpt lat="48.80387" lon="5.14859">
        <ele>236</ele>
        <time>2023-01-30T13:25:32.000Z</time>
      </trkpt>
      <trkpt lat="48.80387" lon="5.1486">
        <ele>236</ele>
        <time>2023-01-30T13:25:33.000Z</time>
      </trkpt>
      <trkpt lat="48.80388" lon="5.14861">
        <ele>236</ele>
        <time>2023-01-30T13:25:34.000Z</time>
      </trkpt>
      <trkpt lat="48.80388" lon="5.14862">
        <ele>236</ele>
        <time>2023-01-30T13:25:35.000Z</time>
      </trkpt>
      <trkpt lat="48.8039" lon="5.14864">
        <ele>236</ele>
        <time>2023-01-30T13:25:36.000Z</time>
      </trkpt>
      <trkpt lat="48.80391" lon="5.14865">
        <ele>235</ele>
        <time>2023-01-30T13:25:37.000Z</time>
      </trkpt>
      <trkpt lat="48.80392" lon="5.14866">
        <ele>235</ele>
        <time>2023-01-30T13:25:38.000Z</time>
      </trkpt>
      <trkpt lat="48.80393" lon="5.14867">
        <ele>235</ele>
        <time>2023-01-30T13:25:39.000Z</time>
      </trkpt>
      <trkpt lat="48.80393" lon="5.14868">
        <ele>235</ele>
        <time>2023-01-30T13:25:40.000Z</time>
      </trkpt>
      <trkpt lat="48.80395" lon="5.1487">
        <ele>235</ele>
        <time>2023-01-30T13:25:41.000Z</time>
      </trkpt>
      <trkpt lat="48.80396" lon="5.1487">
        <ele>235</ele>
        <time>2023-01-30T13:25:42.000Z</time>
      </trkpt>
      <trkpt lat="48.80396" lon="5.14871">
        <ele>235</ele>
        <time>2023-01-30T13:25:43.000Z</time>
      </trkpt>
      <trkpt lat="48.80397" lon="5.14872">
        <ele>235</ele>
        <time>2023-01-30T13:25:44.000Z</time>
      </trkpt>
      <trkpt lat="48.80398" lon="5.14873">
        <ele>235</ele>
        <time>2023-01-30T13:25:45.000Z</time>
      </trkpt>
      <trkpt lat="48.80398" lon="5.14874">
        <ele>235</ele>
        <time>2023-01-30T13:25:46.000Z</time>
      </trkpt>
      <trkpt lat="48.80398" lon="5.14875">
        <ele>235</ele>
        <time>2023-01-30T13:25:47.000Z</time>
      </trkpt>
      <trkpt lat="48.80399" lon="5.14876">
        <ele>235</ele>
        <time>2023-01-30T13:25:48.000Z</time>
      </trkpt>
      <trkpt lat="48.804" lon="5.14878">
        <ele>235</ele>
        <time>2023-01-30T13:25:49.000Z</time>
      </trkpt>
      <trkpt lat="48.80401" lon="5.1488">
        <ele>235</ele>
        <time>2023-01-30T13:25:50.000Z</time>
      </trkpt>
      <trkpt lat="48.80402" lon="5.14882">
        <ele>235</ele>
        <time>2023-01-30T13:25:51.000Z</time>
      </trkpt>
      <trkpt lat="48.80404" lon="5.14884">
        <ele>235</ele>
        <time>2023-01-30T13:25:52.000Z</time>
      </trkpt>
      <trkpt lat="48.80405" lon="5.14885">
        <ele>235</ele>
        <time>2023-01-30T13:25:53.000Z</time>
      </trkpt>
      <trkpt lat="48.80406" lon="5.14886">
        <ele>235</ele>
        <time>2023-01-30T13:25:54.000Z</time>
      </trkpt>
      <trkpt lat="48.80406" lon="5.14887">
        <ele>234.5</ele>
        <time>2023-01-30T13:25:55.000Z</time>
      </trkpt>
      <trkpt lat="48.80406" lon="5.14888">
        <ele>234</ele>
        <time>2023-01-30T13:25:56.000Z</time>
      </trkpt>
      <trkpt lat="48.80407" lon="5.14889">
        <ele>234</ele>
        <time>2023-01-30T13:25:57.000Z</time>
      </trkpt>
      <trkpt lat="48.80408" lon="5.1489">
        <ele>234</ele>
        <time>2023-01-30T13:25:58.000Z</time>
      </trkpt>
      <trkpt lat="48.80408" lon="5.14892">
        <ele>234.5</ele>
        <time>2023-01-30T13:25:59.000Z</time>
      </trkpt>
      <trkpt lat="48.80409" lon="5.14894">
        <ele>235</ele>
        <time>2023-01-30T13:26:00.000Z</time>
      </trkpt>
      <trkpt lat="48.8041" lon="5.14896">
        <ele>235</ele>
        <time>2023-01-30T13:26:01.000Z</time>
      </trkpt>
      <trkpt lat="48.8041" lon="5.14897">
        <ele>235</ele>
        <time>2023-01-30T13:26:02.000Z</time>
      </trkpt>
      <trkpt lat="48.80411" lon="5.14899">
        <ele>235</ele>
        <time>2023-01-30T13:26:03.000Z</time>
      </trkpt>
      <trkpt lat="48.80411" lon="5.149">
        <ele>235</ele>
        <time>2023-01-30T13:26:04.000Z</time>
      </trkpt>
      <trkpt lat="48.80412" lon="5.14901">
        <ele>235</ele>
        <time>2023-01-30T13:26:05.000Z</time>
      </trkpt>
      <trkpt lat="48.80412" lon="5.14903">
        <ele>235</ele>
        <time>2023-01-30T13:26:06.000Z</time>
      </trkpt>
      <trkpt lat="48.80413" lon="5.14904">
        <ele>235</ele>
        <time>2023-01-30T13:26:07.000Z</time>
      </trkpt>
      <trkpt lat="48.80413" lon="5.14905">
        <ele>235</ele>
        <time>2023-01-30T13:26:08.000Z</time>
      </trkpt>
      <trkpt lat="48.80414" lon="5.14907">
        <ele>235</ele>
        <time>2023-01-30T13:26:09.000Z</time>
      </trkpt>
      <trkpt lat="48.80415" lon="5.14908">
        <ele>235</ele>
        <time>2023-01-30T13:26:10.000Z</time>
      </trkpt>
      <trkpt lat="48.80416" lon="5.1491">
        <ele>234.5</ele>
        <time>2023-01-30T13:26:11.000Z</time>
      </trkpt>
      <trkpt lat="48.80417" lon="5.14911">
        <ele>234</ele>
        <time>2023-01-30T13:26:12.000Z</time>
      </trkpt>
      <trkpt lat="48.80418" lon="5.14911">
        <ele>234</ele>
        <time>2023-01-30T13:26:13.000Z</time>
      </trkpt>
      <trkpt lat="48.80418" lon="5.14912">
        <ele>234</ele>
        <time>2023-01-30T13:26:14.000Z</time>
      </trkpt>
      <trkpt lat="48.80419" lon="5.14912">
        <ele>234</ele>
        <time>2023-01-30T13:26:15.000Z</time>
      </trkpt>
      <trkpt lat="48.8042" lon="5.14912">
        <ele>234</ele>
        <time>2023-01-30T13:26:16.000Z</time>
      </trkpt>
      <trkpt lat="48.8042" lon="5.14912">
        <ele>234</ele>
        <time>2023-01-30T13:26:17.000Z</time>
      </trkpt>
      <trkpt lat="48.80421" lon="5.14912">
        <ele>234</ele>
        <time>2023-01-30T13:26:18.000Z</time>
      </trkpt>
      <trkpt lat="48.80421" lon="5.14912">
        <ele>234</ele>
        <time>2023-01-30T13:26:19.000Z</time>
      </trkpt>
      <trkpt lat="48.80422" lon="5.14912">
        <ele>234</ele>
        <time>2023-01-30T13:26:20.000Z</time>
      </trkpt>
      <trkpt lat="48.80423" lon="5.14912">
        <ele>234</ele>
        <time>2023-01-30T13:26:21.000Z</time>
      </trkpt>
      <trkpt lat="48.80423" lon="5.14912">
        <ele>234</ele>
        <time>2023-01-30T13:26:22.000Z</time>
      </trkpt>
      <trkpt lat="48.80424" lon="5.14912">
        <ele>233</ele>
        <time>2023-01-30T13:26:23.000Z</time>
      </trkpt>
      <trkpt lat="48.80424" lon="5.14913">
        <ele>233</ele>
        <time>2023-01-30T13:26:24.000Z</time>
      </trkpt>
      <trkpt lat="48.80425" lon="5.14913">
        <ele>233</ele>
        <time>2023-01-30T13:26:25.000Z</time>
      </trkpt>
      <trkpt lat="48.80425" lon="5.14913">
        <ele>233</ele>
        <time>2023-01-30T13:26:26.000Z</time>
      </trkpt>
      <trkpt lat="48.80425" lon="5.14913">
        <ele>233</ele>
        <time>2023-01-30T13:26:27.000Z</time>
      </trkpt>
      <trkpt lat="48.80426" lon="5.14913">
        <ele>233</ele>
        <time>2023-01-30T13:26:28.000Z</time>
      </trkpt>
      <trkpt lat="48.80426" lon="5.14913">
        <ele>233</ele>
        <time>2023-01-30T13:26:29.000Z</time>
      </trkpt>
      <trkpt lat="48.80427" lon="5.14913">
        <ele>232.7</ele>
        <time>2023-01-30T13:26:30.000Z</time>
      </trkpt>
      <trkpt lat="48.80428" lon="5.14914">
        <ele>232.3</ele>
        <time>2023-01-30T13:26:31.000Z</time>
      </trkpt>
      <trkpt lat="48.80429" lon="5.14914">
        <ele>232</ele>
        <time>2023-01-30T13:26:32.000Z</time>
      </trkpt>
      <trkpt lat="48.8043" lon="5.14914">
        <ele>232</ele>
        <time>2023-01-30T13:26:33.000Z</time>
      </trkpt>
      <trkpt lat="48.80431" lon="5.14915">
        <ele>231.7</ele>
        <time>2023-01-30T13:26:34.000Z</time>
      </trkpt>
      <trkpt lat="48.80432" lon="5.14915">
        <ele>231.3</ele>
        <time>2023-01-30T13:26:35.000Z</time>
      </trkpt>
      <trkpt lat="48.80433" lon="5.14915">
        <ele>231</ele>
        <time>2023-01-30T13:26:36.000Z</time>
      </trkpt>
      <trkpt lat="48.80434" lon="5.14915">
        <ele>231</ele>
        <time>2023-01-30T13:26:37.000Z</time>
      </trkpt>
      <trkpt lat="48.80435" lon="5.14915">
        <ele>231</ele>
        <time>2023-01-30T13:26:38.000Z</time>
      </trkpt>
      <trkpt lat="48.80436" lon="5.14916">
        <ele>230.5</ele>
        <time>2023-01-30T13:26:39.000Z</time>
      </trkpt>
      <trkpt lat="48.80437" lon="5.14917">
        <ele>230</ele>
        <time>2023-01-30T13:26:40.000Z</time>
      </trkpt>
      <trkpt lat="48.80438" lon="5.14917">
        <ele>230</ele>
        <time>2023-01-30T13:26:41.000Z</time>
      </trkpt>
      <trkpt lat="48.80439" lon="5.14918">
        <ele>229.7</ele>
        <time>2023-01-30T13:26:42.000Z</time>
      </trkpt>
      <trkpt lat="48.8044" lon="5.14919">
        <ele>229.3</ele>
        <time>2023-01-30T13:26:43.000Z</time>
      </trkpt>
      <trkpt lat="48.8044" lon="5.14919">
        <ele>229</ele>
        <time>2023-01-30T13:26:44.000Z</time>
      </trkpt>
      <trkpt lat="48.80441" lon="5.1492">
        <ele>229</ele>
        <time>2023-01-30T13:26:45.000Z</time>
      </trkpt>
      <trkpt lat="48.80442" lon="5.14921">
        <ele>228.7</ele>
        <time>2023-01-30T13:26:46.000Z</time>
      </trkpt>
      <trkpt lat="48.80443" lon="5.14921">
        <ele>228.3</ele>
        <time>2023-01-30T13:26:47.000Z</time>
      </trkpt>
      <trkpt lat="48.80444" lon="5.14921">
        <ele>228</ele>
        <time>2023-01-30T13:26:48.000Z</time>
      </trkpt>
      <trkpt lat="48.80445" lon="5.14921">
        <ele>228</ele>
        <time>2023-01-30T13:26:49.000Z</time>
      </trkpt>
      <trkpt lat="48.80447" lon="5.14921">
        <ele>228</ele>
        <time>2023-01-30T13:26:50.000Z</time>
      </trkpt>
      <trkpt lat="48.80448" lon="5.14921">
        <ele>228</ele>
        <time>2023-01-30T13:26:51.000Z</time>
      </trkpt>
      <trkpt lat="48.80449" lon="5.14921">
        <ele>228</ele>
        <time>2023-01-30T13:26:52.000Z</time>
      </trkpt>
      <trkpt lat="48.8045" lon="5.14921">
        <ele>228</ele>
        <time>2023-01-30T13:26:53.000Z</time>
      </trkpt>
      <trkpt lat="48.8045" lon="5.1492">
        <ele>228</ele>
        <time>2023-01-30T13:26:54.000Z</time>
      </trkpt>
      <trkpt lat="48.80451" lon="5.1492">
        <ele>228</ele>
        <time>2023-01-30T13:26:55.000Z</time>
      </trkpt>
      <trkpt lat="48.80452" lon="5.14919">
        <ele>228</ele>
        <time>2023-01-30T13:26:56.000Z</time>
      </trkpt>
      <trkpt lat="48.80453" lon="5.14918">
        <ele>228</ele>
        <time>2023-01-30T13:26:57.000Z</time>
      </trkpt>
      <trkpt lat="48.80453" lon="5.14917">
        <ele>228</ele>
        <time>2023-01-30T13:26:58.000Z</time>
      </trkpt>
      <trkpt lat="48.80454" lon="5.14916">
        <ele>228</ele>
        <time>2023-01-30T13:26:59.000Z</time>
      </trkpt>
      <trkpt lat="48.80455" lon="5.14915">
        <ele>228</ele>
        <time>2023-01-30T13:27:00.000Z</time>
      </trkpt>
      <trkpt lat="48.80456" lon="5.14915">
        <ele>228</ele>
        <time>2023-01-30T13:27:01.000Z</time>
      </trkpt>
      <trkpt lat="48.80456" lon="5.14914">
        <ele>228</ele>
        <time>2023-01-30T13:27:02.000Z</time>
      </trkpt>
      <trkpt lat="48.80457" lon="5.14913">
        <ele>228.5</ele>
        <time>2023-01-30T13:27:03.000Z</time>
      </trkpt>
      <trkpt lat="48.80458" lon="5.14913">
        <ele>229</ele>
        <time>2023-01-30T13:27:04.000Z</time>
      </trkpt>
      <trkpt lat="48.80459" lon="5.14912">
        <ele>229</ele>
        <time>2023-01-30T13:27:05.000Z</time>
      </trkpt>
      <trkpt lat="48.8046" lon="5.14912">
        <ele>229</ele>
        <time>2023-01-30T13:27:06.000Z</time>
      </trkpt>
      <trkpt lat="48.80461" lon="5.14911">
        <ele>229</ele>
        <time>2023-01-30T13:27:07.000Z</time>
      </trkpt>
      <trkpt lat="48.80463" lon="5.14911">
        <ele>229</ele>
        <time>2023-01-30T13:27:08.000Z</time>
      </trkpt>
      <trkpt lat="48.80464" lon="5.14911">
        <ele>229</ele>
        <time>2023-01-30T13:27:09.000Z</time>
      </trkpt>
      <trkpt lat="48.80465" lon="5.14911">
        <ele>229</ele>
        <time>2023-01-30T13:27:10.000Z</time>
      </trkpt>
      <trkpt lat="48.80467" lon="5.14912">
        <ele>229</ele>
        <time>2023-01-30T13:27:11.000Z</time>
      </trkpt>
      <trkpt lat="48.80468" lon="5.14913">
        <ele>229</ele>
        <time>2023-01-30T13:27:12.000Z</time>
      </trkpt>
      <trkpt lat="48.80468" lon="5.14914">
        <ele>229</ele>
        <time>2023-01-30T13:27:13.000Z</time>
      </trkpt>
      <trkpt lat="48.80469" lon="5.14915">
        <ele>229</ele>
        <time>2023-01-30T13:27:14.000Z</time>
      </trkpt>
      <trkpt lat="48.8047" lon="5.14917">
        <ele>229</ele>
        <time>2023-01-30T13:27:15.000Z</time>
      </trkpt>
      <trkpt lat="48.8047" lon="5.14919">
        <ele>229</ele>
        <time>2023-01-30T13:27:16.000Z</time>
      </trkpt>
      <trkpt lat="48.8047" lon="5.14922">
        <ele>229</ele>
        <time>2023-01-30T13:27:17.000Z</time>
      </trkpt>
      <trkpt lat="48.8047" lon="5.14924">
        <ele>229</ele>
        <time>2023-01-30T13:27:18.000Z</time>
      </trkpt>
      <trkpt lat="48.8047" lon="5.14926">
        <ele>229</ele>
        <time>2023-01-30T13:27:19.000Z</time>
      </trkpt>
      <trkpt lat="48.80469" lon="5.14928">
        <ele>229</ele>
        <time>2023-01-30T13:27:20.000Z</time>
      </trkpt>
      <trkpt lat="48.80468" lon="5.14929">
        <ele>229</ele>
        <time>2023-01-30T13:27:21.000Z</time>
      </trkpt>
      <trkpt lat="48.80467" lon="5.1493">
        <ele>229</ele>
        <time>2023-01-30T13:27:22.000Z</time>
      </trkpt>
      <trkpt lat="48.80466" lon="5.1493">
        <ele>230</ele>
        <time>2023-01-30T13:27:23.000Z</time>
      </trkpt>
      <trkpt lat="48.80466" lon="5.1493">
        <ele>230</ele>
        <time>2023-01-30T13:27:24.000Z</time>
      </trkpt>
      <trkpt lat="48.80465" lon="5.14931">
        <ele>230</ele>
        <time>2023-01-30T13:27:25.000Z</time>
      </trkpt>
      <trkpt lat="48.80465" lon="5.14931">
        <ele>230</ele>
        <time>2023-01-30T13:27:26.000Z</time>
      </trkpt>
      <trkpt lat="48.80465" lon="5.14932">
        <ele>230</ele>
        <time>2023-01-30T13:27:27.000Z</time>
      </trkpt>
      <trkpt lat="48.80465" lon="5.14933">
        <ele>230</ele>
        <time>2023-01-30T13:27:28.000Z</time>
      </trkpt>
      <trkpt lat="48.80464" lon="5.14934">
        <ele>230</ele>
        <time>2023-01-30T13:27:29.000Z</time>
      </trkpt>
      <trkpt lat="48.80464" lon="5.14935">
        <ele>230</ele>
        <time>2023-01-30T13:27:30.000Z</time>
      </trkpt>
      <trkpt lat="48.80465" lon="5.14936">
        <ele>230</ele>
        <time>2023-01-30T13:27:31.000Z</time>
      </trkpt>
      <trkpt lat="48.80465" lon="5.14936">
        <ele>230</ele>
        <time>2023-01-30T13:27:32.000Z</time>
      </trkpt>
      <trkpt lat="48.80465" lon="5.14937">
        <ele>230</ele>
        <time>2023-01-30T13:27:33.000Z</time>
      </trkpt>
      <trkpt lat="48.80466" lon="5.14937">
        <ele>230</ele>
        <time>2023-01-30T13:27:34.000Z</time>
      </trkpt>
      <trkpt lat="48.80467" lon="5.14937">
        <ele>230</ele>
        <time>2023-01-30T13:27:35.000Z</time>
      </trkpt>
      <trkpt lat="48.80468" lon="5.14937">
        <ele>230</ele>
        <time>2023-01-30T13:27:36.000Z</time>
      </trkpt>
      <trkpt lat="48.80468" lon="5.14938">
        <ele>230</ele>
        <time>2023-01-30T13:27:37.000Z</time>
      </trkpt>
      <trkpt lat="48.80469" lon="5.14938">
        <ele>230</ele>
        <time>2023-01-30T13:27:38.000Z</time>
      </trkpt>
      <trkpt lat="48.8047" lon="5.14939">
        <ele>230</ele>
        <time>2023-01-30T13:27:39.000Z</time>
      </trkpt>
      <trkpt lat="48.80471" lon="5.14941">
        <ele>230</ele>
        <time>2023-01-30T13:27:40.000Z</time>
      </trkpt>
      <trkpt lat="48.80471" lon="5.14942">
        <ele>230</ele>
        <time>2023-01-30T13:27:41.000Z</time>
      </trkpt>
      <trkpt lat="48.80471" lon="5.14944">
        <ele>230</ele>
        <time>2023-01-30T13:27:42.000Z</time>
      </trkpt>
      <trkpt lat="48.80472" lon="5.14945">
        <ele>230</ele>
        <time>2023-01-30T13:27:43.000Z</time>
      </trkpt>
      <trkpt lat="48.80472" lon="5.14946">
        <ele>230</ele>
        <time>2023-01-30T13:27:44.000Z</time>
      </trkpt>
      <trkpt lat="48.80471" lon="5.14947">
        <ele>230</ele>
        <time>2023-01-30T13:27:45.000Z</time>
      </trkpt>
      <trkpt lat="48.80471" lon="5.14948">
        <ele>230</ele>
        <time>2023-01-30T13:27:46.000Z</time>
      </trkpt>
      <trkpt lat="48.80471" lon="5.14949">
        <ele>230</ele>
        <time>2023-01-30T13:27:47.000Z</time>
      </trkpt>
      <trkpt lat="48.8047" lon="5.1495">
        <ele>230</ele>
        <time>2023-01-30T13:27:48.000Z</time>
      </trkpt>
      <trkpt lat="48.8047" lon="5.1495">
        <ele>230</ele>
        <time>2023-01-30T13:27:49.000Z</time>
      </trkpt>
      <trkpt lat="48.8047" lon="5.14951">
        <ele>230</ele>
        <time>2023-01-30T13:27:50.000Z</time>
      </trkpt>
      <trkpt lat="48.80469" lon="5.14952">
        <ele>230</ele>
        <time>2023-01-30T13:27:51.000Z</time>
      </trkpt>
      <trkpt lat="48.80469" lon="5.14953">
        <ele>230</ele>
        <time>2023-01-30T13:27:52.000Z</time>
      </trkpt>
      <trkpt lat="48.80468" lon="5.14954">
        <ele>230.5</ele>
        <time>2023-01-30T13:27:53.000Z</time>
      </trkpt>
      <trkpt lat="48.80468" lon="5.14956">
        <ele>231</ele>
        <time>2023-01-30T13:27:54.000Z</time>
      </trkpt>
      <trkpt lat="48.80468" lon="5.14957">
        <ele>231</ele>
        <time>2023-01-30T13:27:55.000Z</time>
      </trkpt>
      <trkpt lat="48.80467" lon="5.14959">
        <ele>231</ele>
        <time>2023-01-30T13:27:56.000Z</time>
      </trkpt>
      <trkpt lat="48.80467" lon="5.14961">
        <ele>231</ele>
        <time>2023-01-30T13:27:57.000Z</time>
      </trkpt>
      <trkpt lat="48.80466" lon="5.14962">
        <ele>231</ele>
        <time>2023-01-30T13:27:58.000Z</time>
      </trkpt>
      <trkpt lat="48.80466" lon="5.14964">
        <ele>231</ele>
        <time>2023-01-30T13:27:59.000Z</time>
      </trkpt>
      <trkpt lat="48.80465" lon="5.14966">
        <ele>231</ele>
        <time>2023-01-30T13:28:00.000Z</time>
      </trkpt>
      <trkpt lat="48.80465" lon="5.14968">
        <ele>231</ele>
        <time>2023-01-30T13:28:01.000Z</time>
      </trkpt>
      <trkpt lat="48.80464" lon="5.14969">
        <ele>231</ele>
        <time>2023-01-30T13:28:02.000Z</time>
      </trkpt>
      <trkpt lat="48.80464" lon="5.14971">
        <ele>231</ele>
        <time>2023-01-30T13:28:03.000Z</time>
      </trkpt>
      <trkpt lat="48.80464" lon="5.14972">
        <ele>231</ele>
        <time>2023-01-30T13:28:04.000Z</time>
      </trkpt>
      <trkpt lat="48.80464" lon="5.14974">
        <ele>231</ele>
        <time>2023-01-30T13:28:05.000Z</time>
      </trkpt>
      <trkpt lat="48.80463" lon="5.14975">
        <ele>231</ele>
        <time>2023-01-30T13:28:06.000Z</time>
      </trkpt>
      <trkpt lat="48.80463" lon="5.14977">
        <ele>231.5</ele>
        <time>2023-01-30T13:28:07.000Z</time>
      </trkpt>
      <trkpt lat="48.80463" lon="5.14979">
        <ele>232</ele>
        <time>2023-01-30T13:28:08.000Z</time>
      </trkpt>
      <trkpt lat="48.80462" lon="5.14981">
        <ele>232</ele>
        <time>2023-01-30T13:28:09.000Z</time>
      </trkpt>
      <trkpt lat="48.80462" lon="5.14983">
        <ele>232</ele>
        <time>2023-01-30T13:28:10.000Z</time>
      </trkpt>
      <trkpt lat="48.80461" lon="5.14986">
        <ele>232</ele>
        <time>2023-01-30T13:28:11.000Z</time>
      </trkpt>
      <trkpt lat="48.80461" lon="5.14989">
        <ele>232</ele>
        <time>2023-01-30T13:28:12.000Z</time>
      </trkpt>
      <trkpt lat="48.8046" lon="5.14992">
        <ele>232</ele>
        <time>2023-01-30T13:28:13.000Z</time>
      </trkpt>
      <trkpt lat="48.8046" lon="5.14995">
        <ele>232</ele>
        <time>2023-01-30T13:28:14.000Z</time>
      </trkpt>
      <trkpt lat="48.8046" lon="5.14998">
        <ele>232</ele>
        <time>2023-01-30T13:28:15.000Z</time>
      </trkpt>
      <trkpt lat="48.80459" lon="5.15">
        <ele>232.3</ele>
        <time>2023-01-30T13:28:16.000Z</time>
      </trkpt>
      <trkpt lat="48.80458" lon="5.15002">
        <ele>232.7</ele>
        <time>2023-01-30T13:28:17.000Z</time>
      </trkpt>
      <trkpt lat="48.80456" lon="5.15004">
        <ele>233</ele>
        <time>2023-01-30T13:28:18.000Z</time>
      </trkpt>
      <trkpt lat="48.80455" lon="5.15006">
        <ele>233</ele>
        <time>2023-01-30T13:28:19.000Z</time>
      </trkpt>
      <trkpt lat="48.80453" lon="5.15007">
        <ele>233</ele>
        <time>2023-01-30T13:28:20.000Z</time>
      </trkpt>
      <trkpt lat="48.80452" lon="5.15009">
        <ele>233</ele>
        <time>2023-01-30T13:28:21.000Z</time>
      </trkpt>
      <trkpt lat="48.80451" lon="5.15011">
        <ele>233</ele>
        <time>2023-01-30T13:28:22.000Z</time>
      </trkpt>
      <trkpt lat="48.8045" lon="5.15012">
        <ele>233</ele>
        <time>2023-01-30T13:28:23.000Z</time>
      </trkpt>
      <trkpt lat="48.80449" lon="5.15013">
        <ele>233</ele>
        <time>2023-01-30T13:28:24.000Z</time>
      </trkpt>
      <trkpt lat="48.80448" lon="5.15014">
        <ele>233</ele>
        <time>2023-01-30T13:28:25.000Z</time>
      </trkpt>
      <trkpt lat="48.80447" lon="5.15015">
        <ele>233</ele>
        <time>2023-01-30T13:28:26.000Z</time>
      </trkpt>
      <trkpt lat="48.80447" lon="5.15016">
        <ele>233.5</ele>
        <time>2023-01-30T13:28:27.000Z</time>
      </trkpt>
      <trkpt lat="48.80446" lon="5.15016">
        <ele>234</ele>
        <time>2023-01-30T13:28:28.000Z</time>
      </trkpt>
      <trkpt lat="48.80446" lon="5.15017">
        <ele>234</ele>
        <time>2023-01-30T13:28:29.000Z</time>
      </trkpt>
      <trkpt lat="48.80445" lon="5.15018">
        <ele>234</ele>
        <time>2023-01-30T13:28:30.000Z</time>
      </trkpt>
      <trkpt lat="48.80445" lon="5.15019">
        <ele>234</ele>
        <time>2023-01-30T13:28:31.000Z</time>
      </trkpt>
      <trkpt lat="48.80444" lon="5.1502">
        <ele>234</ele>
        <time>2023-01-30T13:28:32.000Z</time>
      </trkpt>
      <trkpt lat="48.80443" lon="5.15022">
        <ele>234</ele>
        <time>2023-01-30T13:28:33.000Z</time>
      </trkpt>
      <trkpt lat="48.80443" lon="5.15024">
        <ele>234</ele>
        <time>2023-01-30T13:28:34.000Z</time>
      </trkpt>
      <trkpt lat="48.80442" lon="5.15026">
        <ele>234.5</ele>
        <time>2023-01-30T13:28:35.000Z</time>
      </trkpt>
      <trkpt lat="48.80441" lon="5.15028">
        <ele>235</ele>
        <time>2023-01-30T13:28:36.000Z</time>
      </trkpt>
      <trkpt lat="48.8044" lon="5.1503">
        <ele>235</ele>
        <time>2023-01-30T13:28:37.000Z</time>
      </trkpt>
      <trkpt lat="48.8044" lon="5.15033">
        <ele>235</ele>
        <time>2023-01-30T13:28:38.000Z</time>
      </trkpt>
      <trkpt lat="48.8044" lon="5.15035">
        <ele>235</ele>
        <time>2023-01-30T13:28:39.000Z</time>
      </trkpt>
      <trkpt lat="48.80439" lon="5.15037">
        <ele>235</ele>
        <time>2023-01-30T13:28:40.000Z</time>
      </trkpt>
      <trkpt lat="48.80439" lon="5.15038">
        <ele>235</ele>
        <time>2023-01-30T13:28:41.000Z</time>
      </trkpt>
      <trkpt lat="48.80439" lon="5.15039">
        <ele>235</ele>
        <time>2023-01-30T13:28:42.000Z</time>
      </trkpt>
      <trkpt lat="48.80439" lon="5.1504">
        <ele>235</ele>
        <time>2023-01-30T13:28:43.000Z</time>
      </trkpt>
      <trkpt lat="48.80439" lon="5.15042">
        <ele>235</ele>
        <time>2023-01-30T13:28:44.000Z</time>
      </trkpt>
      <trkpt lat="48.80439" lon="5.15043">
        <ele>235.5</ele>
        <time>2023-01-30T13:28:45.000Z</time>
      </trkpt>
      <trkpt lat="48.80438" lon="5.15044">
        <ele>236</ele>
        <time>2023-01-30T13:28:46.000Z</time>
      </trkpt>
      <trkpt lat="48.80438" lon="5.15046">
        <ele>236</ele>
        <time>2023-01-30T13:28:47.000Z</time>
      </trkpt>
      <trkpt lat="48.80438" lon="5.15047">
        <ele>236</ele>
        <time>2023-01-30T13:28:48.000Z</time>
      </trkpt>
      <trkpt lat="48.80438" lon="5.15049">
        <ele>236</ele>
        <time>2023-01-30T13:28:49.000Z</time>
      </trkpt>
      <trkpt lat="48.80438" lon="5.15051">
        <ele>236</ele>
        <time>2023-01-30T13:28:50.000Z</time>
      </trkpt>
      <trkpt lat="48.80438" lon="5.15053">
        <ele>236</ele>
        <time>2023-01-30T13:28:51.000Z</time>
      </trkpt>
      <trkpt lat="48.80439" lon="5.15054">
        <ele>236</ele>
        <time>2023-01-30T13:28:52.000Z</time>
      </trkpt>
      <trkpt lat="48.80439" lon="5.15056">
        <ele>236</ele>
        <time>2023-01-30T13:28:53.000Z</time>
      </trkpt>
      <trkpt lat="48.80439" lon="5.15058">
        <ele>236</ele>
        <time>2023-01-30T13:28:54.000Z</time>
      </trkpt>
      <trkpt lat="48.8044" lon="5.1506">
        <ele>236</ele>
        <time>2023-01-30T13:28:55.000Z</time>
      </trkpt>
      <trkpt lat="48.80441" lon="5.15062">
        <ele>236</ele>
        <time>2023-01-30T13:28:56.000Z</time>
      </trkpt>
      <trkpt lat="48.80441" lon="5.15063">
        <ele>236</ele>
        <time>2023-01-30T13:28:57.000Z</time>
      </trkpt>
      <trkpt lat="48.80443" lon="5.15065">
        <ele>236</ele>
        <time>2023-01-30T13:28:58.000Z</time>
      </trkpt>
      <trkpt lat="48.80444" lon="5.15066">
        <ele>236</ele>
        <time>2023-01-30T13:28:59.000Z</time>
      </trkpt>
      <trkpt lat="48.80445" lon="5.15067">
        <ele>236</ele>
        <time>2023-01-30T13:29:00.000Z</time>
      </trkpt>
      <trkpt lat="48.80446" lon="5.15068">
        <ele>236</ele>
        <time>2023-01-30T13:29:01.000Z</time>
      </trkpt>
      <trkpt lat="48.80447" lon="5.1507">
        <ele>236</ele>
        <time>2023-01-30T13:29:02.000Z</time>
      </trkpt>
      <trkpt lat="48.80447" lon="5.15071">
        <ele>236</ele>
        <time>2023-01-30T13:29:03.000Z</time>
      </trkpt>
      <trkpt lat="48.80448" lon="5.15072">
        <ele>236</ele>
        <time>2023-01-30T13:29:04.000Z</time>
      </trkpt>
      <trkpt lat="48.80448" lon="5.15073">
        <ele>236</ele>
        <time>2023-01-30T13:29:05.000Z</time>
      </trkpt>
      <trkpt lat="48.80448" lon="5.15074">
        <ele>236</ele>
        <time>2023-01-30T13:29:06.000Z</time>
      </trkpt>
      <trkpt lat="48.80448" lon="5.15076">
        <ele>236</ele>
        <time>2023-01-30T13:29:07.000Z</time>
      </trkpt>
      <trkpt lat="48.80449" lon="5.15078">
        <ele>236</ele>
        <time>2023-01-30T13:29:08.000Z</time>
      </trkpt>
      <trkpt lat="48.80449" lon="5.1508">
        <ele>236</ele>
        <time>2023-01-30T13:29:09.000Z</time>
      </trkpt>
      <trkpt lat="48.8045" lon="5.15082">
        <ele>236</ele>
        <time>2023-01-30T13:29:10.000Z</time>
      </trkpt>
      <trkpt lat="48.80452" lon="5.15084">
        <ele>236</ele>
        <time>2023-01-30T13:29:11.000Z</time>
      </trkpt>
      <trkpt lat="48.80453" lon="5.15085">
        <ele>236</ele>
        <time>2023-01-30T13:29:12.000Z</time>
      </trkpt>
      <trkpt lat="48.80454" lon="5.15086">
        <ele>236</ele>
        <time>2023-01-30T13:29:13.000Z</time>
      </trkpt>
      <trkpt lat="48.80455" lon="5.15088">
        <ele>236</ele>
        <time>2023-01-30T13:29:14.000Z</time>
      </trkpt>
      <trkpt lat="48.80456" lon="5.1509">
        <ele>236</ele>
        <time>2023-01-30T13:29:15.000Z</time>
      </trkpt>
      <trkpt lat="48.80457" lon="5.15092">
        <ele>236</ele>
        <time>2023-01-30T13:29:16.000Z</time>
      </trkpt>
      <trkpt lat="48.80457" lon="5.15094">
        <ele>236</ele>
        <time>2023-01-30T13:29:17.000Z</time>
      </trkpt>
      <trkpt lat="48.80458" lon="5.15097">
        <ele>236</ele>
        <time>2023-01-30T13:29:18.000Z</time>
      </trkpt>
      <trkpt lat="48.80459" lon="5.15099">
        <ele>236</ele>
        <time>2023-01-30T13:29:19.000Z</time>
      </trkpt>
      <trkpt lat="48.80459" lon="5.15102">
        <ele>236</ele>
        <time>2023-01-30T13:29:20.000Z</time>
      </trkpt>
      <trkpt lat="48.80459" lon="5.15104">
        <ele>236</ele>
        <time>2023-01-30T13:29:21.000Z</time>
      </trkpt>
      <trkpt lat="48.80459" lon="5.15106">
        <ele>236</ele>
        <time>2023-01-30T13:29:22.000Z</time>
      </trkpt>
      <trkpt lat="48.80459" lon="5.15108">
        <ele>236</ele>
        <time>2023-01-30T13:29:23.000Z</time>
      </trkpt>
      <trkpt lat="48.80459" lon="5.1511">
        <ele>236</ele>
        <time>2023-01-30T13:29:24.000Z</time>
      </trkpt>
      <trkpt lat="48.80459" lon="5.15112">
        <ele>236</ele>
        <time>2023-01-30T13:29:25.000Z</time>
      </trkpt>
      <trkpt lat="48.8046" lon="5.15114">
        <ele>236</ele>
        <time>2023-01-30T13:29:26.000Z</time>
      </trkpt>
      <trkpt lat="48.8046" lon="5.15117">
        <ele>236</ele>
        <time>2023-01-30T13:29:27.000Z</time>
      </trkpt>
      <trkpt lat="48.8046" lon="5.15119">
        <ele>236</ele>
        <time>2023-01-30T13:29:28.000Z</time>
      </trkpt>
      <trkpt lat="48.8046" lon="5.15121">
        <ele>236</ele>
        <time>2023-01-30T13:29:29.000Z</time>
      </trkpt>
      <trkpt lat="48.8046" lon="5.15123">
        <ele>236</ele>
        <time>2023-01-30T13:29:30.000Z</time>
      </trkpt>
      <trkpt lat="48.8046" lon="5.15125">
        <ele>236</ele>
        <time>2023-01-30T13:29:31.000Z</time>
      </trkpt>
      <trkpt lat="48.80461" lon="5.15127">
        <ele>236</ele>
        <time>2023-01-30T13:29:32.000Z</time>
      </trkpt>
      <trkpt lat="48.80461" lon="5.15129">
        <ele>236</ele>
        <time>2023-01-30T13:29:33.000Z</time>
      </trkpt>
      <trkpt lat="48.80461" lon="5.15132">
        <ele>236</ele>
        <time>2023-01-30T13:29:34.000Z</time>
      </trkpt>
      <trkpt lat="48.80462" lon="5.15134">
        <ele>236</ele>
        <time>2023-01-30T13:29:35.000Z</time>
      </trkpt>
      <trkpt lat="48.80462" lon="5.15136">
        <ele>236</ele>
        <time>2023-01-30T13:29:36.000Z</time>
      </trkpt>
      <trkpt lat="48.80462" lon="5.15138">
        <ele>236</ele>
        <time>2023-01-30T13:29:37.000Z</time>
      </trkpt>
      <trkpt lat="48.80463" lon="5.1514">
        <ele>236</ele>
        <time>2023-01-30T13:29:38.000Z</time>
      </trkpt>
      <trkpt lat="48.80463" lon="5.15143">
        <ele>236</ele>
        <time>2023-01-30T13:29:39.000Z</time>
      </trkpt>
      <trkpt lat="48.80464" lon="5.15145">
        <ele>236</ele>
        <time>2023-01-30T13:29:40.000Z</time>
      </trkpt>
      <trkpt lat="48.80465" lon="5.15147">
        <ele>236.5</ele>
        <time>2023-01-30T13:29:41.000Z</time>
      </trkpt>
      <trkpt lat="48.80465" lon="5.1515">
        <ele>237</ele>
        <time>2023-01-30T13:29:42.000Z</time>
      </trkpt>
      <trkpt lat="48.80466" lon="5.15152">
        <ele>237</ele>
        <time>2023-01-30T13:29:43.000Z</time>
      </trkpt>
      <trkpt lat="48.80467" lon="5.15155">
        <ele>237</ele>
        <time>2023-01-30T13:29:44.000Z</time>
      </trkpt>
      <trkpt lat="48.80467" lon="5.15157">
        <ele>237</ele>
        <time>2023-01-30T13:29:45.000Z</time>
      </trkpt>
      <trkpt lat="48.80467" lon="5.15159">
        <ele>237</ele>
        <time>2023-01-30T13:29:46.000Z</time>
      </trkpt>
      <trkpt lat="48.80468" lon="5.15161">
        <ele>237</ele>
        <time>2023-01-30T13:29:47.000Z</time>
      </trkpt>
      <trkpt lat="48.80468" lon="5.15163">
        <ele>237</ele>
        <time>2023-01-30T13:29:48.000Z</time>
      </trkpt>
      <trkpt lat="48.80467" lon="5.15164">
        <ele>237</ele>
        <time>2023-01-30T13:29:49.000Z</time>
      </trkpt>
      <trkpt lat="48.80467" lon="5.15165">
        <ele>237</ele>
        <time>2023-01-30T13:29:50.000Z</time>
      </trkpt>
      <trkpt lat="48.80467" lon="5.15165">
        <ele>237</ele>
        <time>2023-01-30T13:29:51.000Z</time>
      </trkpt>
      <trkpt lat="48.80466" lon="5.15166">
        <ele>237</ele>
        <time>2023-01-30T13:29:52.000Z</time>
      </trkpt>
      <trkpt lat="48.80466" lon="5.15167">
        <ele>237</ele>
        <time>2023-01-30T13:29:53.000Z</time>
      </trkpt>
      <trkpt lat="48.80466" lon="5.15168">
        <ele>237</ele>
        <time>2023-01-30T13:29:54.000Z</time>
      </trkpt>
      <trkpt lat="48.80466" lon="5.15169">
        <ele>237</ele>
        <time>2023-01-30T13:29:55.000Z</time>
      </trkpt>
      <trkpt lat="48.80467" lon="5.1517">
        <ele>237</ele>
        <time>2023-01-30T13:29:56.000Z</time>
      </trkpt>
      <trkpt lat="48.80469" lon="5.15171">
        <ele>237</ele>
        <time>2023-01-30T13:29:57.000Z</time>
      </trkpt>
      <trkpt lat="48.8047" lon="5.15173">
        <ele>237</ele>
        <time>2023-01-30T13:29:58.000Z</time>
      </trkpt>
      <trkpt lat="48.80472" lon="5.15173">
        <ele>237</ele>
        <time>2023-01-30T13:29:59.000Z</time>
      </trkpt>
      <trkpt lat="48.80473" lon="5.15173">
        <ele>237</ele>
        <time>2023-01-30T13:30:00.000Z</time>
      </trkpt>
      <trkpt lat="48.80474" lon="5.15173">
        <ele>237</ele>
        <time>2023-01-30T13:30:01.000Z</time>
      </trkpt>
      <trkpt lat="48.80475" lon="5.15172">
        <ele>237</ele>
        <time>2023-01-30T13:30:02.000Z</time>
      </trkpt>
      <trkpt lat="48.80476" lon="5.15172">
        <ele>237</ele>
        <time>2023-01-30T13:30:03.000Z</time>
      </trkpt>
      <trkpt lat="48.80477" lon="5.15171">
        <ele>237</ele>
        <time>2023-01-30T13:30:04.000Z</time>
      </trkpt>
      <trkpt lat="48.80478" lon="5.15169">
        <ele>237</ele>
        <time>2023-01-30T13:30:05.000Z</time>
      </trkpt>
      <trkpt lat="48.80479" lon="5.15168">
        <ele>237</ele>
        <time>2023-01-30T13:30:06.000Z</time>
      </trkpt>
      <trkpt lat="48.8048" lon="5.15166">
        <ele>237</ele>
        <time>2023-01-30T13:30:07.000Z</time>
      </trkpt>
      <trkpt lat="48.80481" lon="5.15165">
        <ele>237</ele>
        <time>2023-01-30T13:30:08.000Z</time>
      </trkpt>
      <trkpt lat="48.80482" lon="5.15163">
        <ele>237</ele>
        <time>2023-01-30T13:30:09.000Z</time>
      </trkpt>
      <trkpt lat="48.80483" lon="5.15162">
        <ele>237</ele>
        <time>2023-01-30T13:30:10.000Z</time>
      </trkpt>
      <trkpt lat="48.80484" lon="5.15161">
        <ele>237</ele>
        <time>2023-01-30T13:30:11.000Z</time>
      </trkpt>
      <trkpt lat="48.80485" lon="5.1516">
        <ele>237</ele>
        <time>2023-01-30T13:30:12.000Z</time>
      </trkpt>
      <trkpt lat="48.80485" lon="5.15159">
        <ele>237</ele>
        <time>2023-01-30T13:30:13.000Z</time>
      </trkpt>
      <trkpt lat="48.80486" lon="5.15158">
        <ele>237</ele>
        <time>2023-01-30T13:30:14.000Z</time>
      </trkpt>
      <trkpt lat="48.80487" lon="5.15157">
        <ele>237</ele>
        <time>2023-01-30T13:30:15.000Z</time>
      </trkpt>
      <trkpt lat="48.80488" lon="5.15156">
        <ele>237</ele>
        <time>2023-01-30T13:30:16.000Z</time>
      </trkpt>
      <trkpt lat="48.8049" lon="5.15155">
        <ele>237</ele>
        <time>2023-01-30T13:30:17.000Z</time>
      </trkpt>
      <trkpt lat="48.80491" lon="5.15153">
        <ele>237</ele>
        <time>2023-01-30T13:30:18.000Z</time>
      </trkpt>
      <trkpt lat="48.80492" lon="5.15152">
        <ele>237</ele>
        <time>2023-01-30T13:30:19.000Z</time>
      </trkpt>
      <trkpt lat="48.80494" lon="5.15151">
        <ele>237</ele>
        <time>2023-01-30T13:30:20.000Z</time>
      </trkpt>
      <trkpt lat="48.80495" lon="5.1515">
        <ele>237</ele>
        <time>2023-01-30T13:30:21.000Z</time>
      </trkpt>
      <trkpt lat="48.80496" lon="5.1515">
        <ele>237</ele>
        <time>2023-01-30T13:30:22.000Z</time>
      </trkpt>
      <trkpt lat="48.80497" lon="5.15149">
        <ele>237</ele>
        <time>2023-01-30T13:30:23.000Z</time>
      </trkpt>
      <trkpt lat="48.80498" lon="5.15148">
        <ele>236</ele>
        <time>2023-01-30T13:30:24.000Z</time>
      </trkpt>
      <trkpt lat="48.805" lon="5.15147">
        <ele>236</ele>
        <time>2023-01-30T13:30:25.000Z</time>
      </trkpt>
      <trkpt lat="48.80502" lon="5.15146">
        <ele>236</ele>
        <time>2023-01-30T13:30:26.000Z</time>
      </trkpt>
      <trkpt lat="48.80503" lon="5.15145">
        <ele>236</ele>
        <time>2023-01-30T13:30:27.000Z</time>
      </trkpt>
      <trkpt lat="48.80504" lon="5.15144">
        <ele>236</ele>
        <time>2023-01-30T13:30:28.000Z</time>
      </trkpt>
      <trkpt lat="48.80505" lon="5.15144">
        <ele>236</ele>
        <time>2023-01-30T13:30:29.000Z</time>
      </trkpt>
      <trkpt lat="48.80506" lon="5.15143">
        <ele>236</ele>
        <time>2023-01-30T13:30:30.000Z</time>
      </trkpt>
      <trkpt lat="48.80507" lon="5.15143">
        <ele>236</ele>
        <time>2023-01-30T13:30:31.000Z</time>
      </trkpt>
      <trkpt lat="48.80507" lon="5.15142">
        <ele>236</ele>
        <time>2023-01-30T13:30:32.000Z</time>
      </trkpt>
      <trkpt lat="48.80508" lon="5.15141">
        <ele>236</ele>
        <time>2023-01-30T13:30:33.000Z</time>
      </trkpt>
      <trkpt lat="48.80509" lon="5.15141">
        <ele>236</ele>
        <time>2023-01-30T13:30:34.000Z</time>
      </trkpt>
      <trkpt lat="48.8051" lon="5.1514">
        <ele>236</ele>
        <time>2023-01-30T13:30:35.000Z</time>
      </trkpt>
      <trkpt lat="48.80511" lon="5.15139">
        <ele>236</ele>
        <time>2023-01-30T13:30:36.000Z</time>
      </trkpt>
      <trkpt lat="48.80513" lon="5.15138">
        <ele>236</ele>
        <time>2023-01-30T13:30:37.000Z</time>
      </trkpt>
      <trkpt lat="48.80514" lon="5.15137">
        <ele>236</ele>
        <time>2023-01-30T13:30:38.000Z</time>
      </trkpt>
      <trkpt lat="48.80515" lon="5.15137">
        <ele>236</ele>
        <time>2023-01-30T13:30:39.000Z</time>
      </trkpt>
      <trkpt lat="48.80517" lon="5.15136">
        <ele>236</ele>
        <time>2023-01-30T13:30:40.000Z</time>
      </trkpt>
      <trkpt lat="48.80519" lon="5.15136">
        <ele>236</ele>
        <time>2023-01-30T13:30:41.000Z</time>
      </trkpt>
      <trkpt lat="48.80521" lon="5.15136">
        <ele>236</ele>
        <time>2023-01-30T13:30:42.000Z</time>
      </trkpt>
      <trkpt lat="48.80522" lon="5.15135">
        <ele>236</ele>
        <time>2023-01-30T13:30:43.000Z</time>
      </trkpt>
      <trkpt lat="48.80523" lon="5.15133">
        <ele>236</ele>
        <time>2023-01-30T13:30:44.000Z</time>
      </trkpt>
      <trkpt lat="48.80524" lon="5.1513">
        <ele>236</ele>
        <time>2023-01-30T13:30:45.000Z</time>
      </trkpt>
      <trkpt lat="48.80525" lon="5.15129">
        <ele>236</ele>
        <time>2023-01-30T13:30:46.000Z</time>
      </trkpt>
      <trkpt lat="48.80526" lon="5.15128">
        <ele>236</ele>
        <time>2023-01-30T13:30:47.000Z</time>
      </trkpt>
      <trkpt lat="48.80527" lon="5.15127">
        <ele>236</ele>
        <time>2023-01-30T13:30:48.000Z</time>
      </trkpt>
      <trkpt lat="48.80528" lon="5.15126">
        <ele>236</ele>
        <time>2023-01-30T13:30:49.000Z</time>
      </trkpt>
      <trkpt lat="48.80529" lon="5.15125">
        <ele>236</ele>
        <time>2023-01-30T13:30:50.000Z</time>
      </trkpt>
      <trkpt lat="48.8053" lon="5.15124">
        <ele>236</ele>
        <time>2023-01-30T13:30:51.000Z</time>
      </trkpt>
      <trkpt lat="48.80531" lon="5.15123">
        <ele>236</ele>
        <time>2023-01-30T13:30:52.000Z</time>
      </trkpt>
      <trkpt lat="48.80533" lon="5.15122">
        <ele>236</ele>
        <time>2023-01-30T13:30:53.000Z</time>
      </trkpt>
      <trkpt lat="48.80534" lon="5.15122">
        <ele>236</ele>
        <time>2023-01-30T13:30:54.000Z</time>
      </trkpt>
      <trkpt lat="48.80535" lon="5.15121">
        <ele>236</ele>
        <time>2023-01-30T13:30:55.000Z</time>
      </trkpt>
      <trkpt lat="48.80536" lon="5.15121">
        <ele>236</ele>
        <time>2023-01-30T13:30:56.000Z</time>
      </trkpt>
      <trkpt lat="48.80537" lon="5.1512">
        <ele>236</ele>
        <time>2023-01-30T13:30:57.000Z</time>
      </trkpt>
      <trkpt lat="48.80538" lon="5.1512">
        <ele>236</ele>
        <time>2023-01-30T13:30:58.000Z</time>
      </trkpt>
      <trkpt lat="48.80539" lon="5.15119">
        <ele>235.7</ele>
        <time>2023-01-30T13:30:59.000Z</time>
      </trkpt>
      <trkpt lat="48.8054" lon="5.15118">
        <ele>235.3</ele>
        <time>2023-01-30T13:31:00.000Z</time>
      </trkpt>
      <trkpt lat="48.80541" lon="5.15117">
        <ele>235</ele>
        <time>2023-01-30T13:31:01.000Z</time>
      </trkpt>
      <trkpt lat="48.80542" lon="5.15116">
        <ele>235.5</ele>
        <time>2023-01-30T13:31:02.000Z</time>
      </trkpt>
      <trkpt lat="48.80543" lon="5.15114">
        <ele>236</ele>
        <time>2023-01-30T13:31:03.000Z</time>
      </trkpt>
      <trkpt lat="48.80544" lon="5.15113">
        <ele>235</ele>
        <time>2023-01-30T13:31:04.000Z</time>
      </trkpt>
      <trkpt lat="48.80545" lon="5.15112">
        <ele>235</ele>
        <time>2023-01-30T13:31:05.000Z</time>
      </trkpt>
      <trkpt lat="48.80546" lon="5.15111">
        <ele>235</ele>
        <time>2023-01-30T13:31:06.000Z</time>
      </trkpt>
      <trkpt lat="48.80548" lon="5.15111">
        <ele>235</ele>
        <time>2023-01-30T13:31:07.000Z</time>
      </trkpt>
      <trkpt lat="48.80549" lon="5.1511">
        <ele>236</ele>
        <time>2023-01-30T13:31:08.000Z</time>
      </trkpt>
      <trkpt lat="48.8055" lon="5.15109">
        <ele>235.7</ele>
        <time>2023-01-30T13:31:09.000Z</time>
      </trkpt>
      <trkpt lat="48.80552" lon="5.15108">
        <ele>235.3</ele>
        <time>2023-01-30T13:31:10.000Z</time>
      </trkpt>
      <trkpt lat="48.80553" lon="5.15107">
        <ele>235</ele>
        <time>2023-01-30T13:31:11.000Z</time>
      </trkpt>
      <trkpt lat="48.80554" lon="5.15106">
        <ele>235</ele>
        <time>2023-01-30T13:31:12.000Z</time>
      </trkpt>
      <trkpt lat="48.80555" lon="5.15105">
        <ele>235</ele>
        <time>2023-01-30T13:31:13.000Z</time>
      </trkpt>
      <trkpt lat="48.80556" lon="5.15105">
        <ele>235</ele>
        <time>2023-01-30T13:31:14.000Z</time>
      </trkpt>
      <trkpt lat="48.80557" lon="5.15103">
        <ele>235</ele>
        <time>2023-01-30T13:31:15.000Z</time>
      </trkpt>
      <trkpt lat="48.80558" lon="5.15102">
        <ele>235</ele>
        <time>2023-01-30T13:31:16.000Z</time>
      </trkpt>
      <trkpt lat="48.8056" lon="5.151">
        <ele>235</ele>
        <time>2023-01-30T13:31:17.000Z</time>
      </trkpt>
      <trkpt lat="48.80561" lon="5.15099">
        <ele>235</ele>
        <time>2023-01-30T13:31:18.000Z</time>
      </trkpt>
      <trkpt lat="48.80563" lon="5.15097">
        <ele>235</ele>
        <time>2023-01-30T13:31:19.000Z</time>
      </trkpt>
      <trkpt lat="48.80564" lon="5.15096">
        <ele>235</ele>
        <time>2023-01-30T13:31:20.000Z</time>
      </trkpt>
      <trkpt lat="48.80565" lon="5.15094">
        <ele>235</ele>
        <time>2023-01-30T13:31:21.000Z</time>
      </trkpt>
      <trkpt lat="48.80566" lon="5.15092">
        <ele>235</ele>
        <time>2023-01-30T13:31:22.000Z</time>
      </trkpt>
      <trkpt lat="48.80568" lon="5.1509">
        <ele>235</ele>
        <time>2023-01-30T13:31:23.000Z</time>
      </trkpt>
      <trkpt lat="48.80569" lon="5.15088">
        <ele>235</ele>
        <time>2023-01-30T13:31:24.000Z</time>
      </trkpt>
      <trkpt lat="48.8057" lon="5.15087">
        <ele>235</ele>
        <time>2023-01-30T13:31:25.000Z</time>
      </trkpt>
      <trkpt lat="48.80571" lon="5.15085">
        <ele>235</ele>
        <time>2023-01-30T13:31:26.000Z</time>
      </trkpt>
      <trkpt lat="48.80573" lon="5.15084">
        <ele>235</ele>
        <time>2023-01-30T13:31:27.000Z</time>
      </trkpt>
      <trkpt lat="48.80574" lon="5.15083">
        <ele>235</ele>
        <time>2023-01-30T13:31:28.000Z</time>
      </trkpt>
      <trkpt lat="48.80575" lon="5.15082">
        <ele>235</ele>
        <time>2023-01-30T13:31:29.000Z</time>
      </trkpt>
      <trkpt lat="48.80576" lon="5.15081">
        <ele>235</ele>
        <time>2023-01-30T13:31:30.000Z</time>
      </trkpt>
      <trkpt lat="48.80577" lon="5.1508">
        <ele>235</ele>
        <time>2023-01-30T13:31:31.000Z</time>
      </trkpt>
      <trkpt lat="48.80578" lon="5.15078">
        <ele>234.5</ele>
        <time>2023-01-30T13:31:32.000Z</time>
      </trkpt>
      <trkpt lat="48.80579" lon="5.15077">
        <ele>234</ele>
        <time>2023-01-30T13:31:33.000Z</time>
      </trkpt>
      <trkpt lat="48.8058" lon="5.15076">
        <ele>234</ele>
        <time>2023-01-30T13:31:34.000Z</time>
      </trkpt>
      <trkpt lat="48.80581" lon="5.15075">
        <ele>234</ele>
        <time>2023-01-30T13:31:35.000Z</time>
      </trkpt>
      <trkpt lat="48.80582" lon="5.15073">
        <ele>234</ele>
        <time>2023-01-30T13:31:36.000Z</time>
      </trkpt>
      <trkpt lat="48.80583" lon="5.15072">
        <ele>234</ele>
        <time>2023-01-30T13:31:37.000Z</time>
      </trkpt>
      <trkpt lat="48.80584" lon="5.15071">
        <ele>234</ele>
        <time>2023-01-30T13:31:38.000Z</time>
      </trkpt>
      <trkpt lat="48.80585" lon="5.1507">
        <ele>234</ele>
        <time>2023-01-30T13:31:39.000Z</time>
      </trkpt>
      <trkpt lat="48.80586" lon="5.15069">
        <ele>234</ele>
        <time>2023-01-30T13:31:40.000Z</time>
      </trkpt>
      <trkpt lat="48.80587" lon="5.15069">
        <ele>234</ele>
        <time>2023-01-30T13:31:41.000Z</time>
      </trkpt>
      <trkpt lat="48.80589" lon="5.15068">
        <ele>234</ele>
        <time>2023-01-30T13:31:42.000Z</time>
      </trkpt>
      <trkpt lat="48.8059" lon="5.15066">
        <ele>234</ele>
        <time>2023-01-30T13:31:43.000Z</time>
      </trkpt>
      <trkpt lat="48.80592" lon="5.15065">
        <ele>233</ele>
        <time>2023-01-30T13:31:44.000Z</time>
      </trkpt>
      <trkpt lat="48.80594" lon="5.15064">
        <ele>233</ele>
        <time>2023-01-30T13:31:45.000Z</time>
      </trkpt>
      <trkpt lat="48.80595" lon="5.15063">
        <ele>233</ele>
        <time>2023-01-30T13:31:46.000Z</time>
      </trkpt>
      <trkpt lat="48.80597" lon="5.15062">
        <ele>233</ele>
        <time>2023-01-30T13:31:47.000Z</time>
      </trkpt>
      <trkpt lat="48.80598" lon="5.15061">
        <ele>233</ele>
        <time>2023-01-30T13:31:48.000Z</time>
      </trkpt>
      <trkpt lat="48.80599" lon="5.1506">
        <ele>233</ele>
        <time>2023-01-30T13:31:49.000Z</time>
      </trkpt>
      <trkpt lat="48.806" lon="5.15058">
        <ele>233</ele>
        <time>2023-01-30T13:31:50.000Z</time>
      </trkpt>
      <trkpt lat="48.80601" lon="5.15057">
        <ele>233</ele>
        <time>2023-01-30T13:31:51.000Z</time>
      </trkpt>
      <trkpt lat="48.80602" lon="5.15056">
        <ele>233</ele>
        <time>2023-01-30T13:31:52.000Z</time>
      </trkpt>
      <trkpt lat="48.80603" lon="5.15055">
        <ele>233</ele>
        <time>2023-01-30T13:31:53.000Z</time>
      </trkpt>
      <trkpt lat="48.80605" lon="5.15052">
        <ele>233</ele>
        <time>2023-01-30T13:31:54.000Z</time>
      </trkpt>
      <trkpt lat="48.80606" lon="5.1505">
        <ele>233</ele>
        <time>2023-01-30T13:31:55.000Z</time>
      </trkpt>
      <trkpt lat="48.80607" lon="5.15048">
        <ele>233</ele>
        <time>2023-01-30T13:31:56.000Z</time>
      </trkpt>
      <trkpt lat="48.80608" lon="5.15047">
        <ele>233</ele>
        <time>2023-01-30T13:31:57.000Z</time>
      </trkpt>
      <trkpt lat="48.80609" lon="5.15045">
        <ele>233</ele>
        <time>2023-01-30T13:31:58.000Z</time>
      </trkpt>
      <trkpt lat="48.8061" lon="5.15043">
        <ele>233</ele>
        <time>2023-01-30T13:31:59.000Z</time>
      </trkpt>
      <trkpt lat="48.80611" lon="5.15042">
        <ele>232</ele>
        <time>2023-01-30T13:32:00.000Z</time>
      </trkpt>
      <trkpt lat="48.80612" lon="5.1504">
        <ele>232</ele>
        <time>2023-01-30T13:32:01.000Z</time>
      </trkpt>
      <trkpt lat="48.80613" lon="5.15039">
        <ele>232</ele>
        <time>2023-01-30T13:32:02.000Z</time>
      </trkpt>
      <trkpt lat="48.80614" lon="5.15039">
        <ele>232</ele>
        <time>2023-01-30T13:32:03.000Z</time>
      </trkpt>
      <trkpt lat="48.80615" lon="5.15038">
        <ele>232</ele>
        <time>2023-01-30T13:32:04.000Z</time>
      </trkpt>
      <trkpt lat="48.80616" lon="5.15037">
        <ele>232</ele>
        <time>2023-01-30T13:32:05.000Z</time>
      </trkpt>
      <trkpt lat="48.80617" lon="5.15036">
        <ele>232</ele>
        <time>2023-01-30T13:32:06.000Z</time>
      </trkpt>
      <trkpt lat="48.80617" lon="5.15035">
        <ele>232</ele>
        <time>2023-01-30T13:32:07.000Z</time>
      </trkpt>
      <trkpt lat="48.80617" lon="5.15034">
        <ele>232</ele>
        <time>2023-01-30T13:32:08.000Z</time>
      </trkpt>
      <trkpt lat="48.80618" lon="5.15034">
        <ele>232</ele>
        <time>2023-01-30T13:32:09.000Z</time>
      </trkpt>
      <trkpt lat="48.80618" lon="5.15033">
        <ele>232</ele>
        <time>2023-01-30T13:32:10.000Z</time>
      </trkpt>
      <trkpt lat="48.80619" lon="5.15031">
        <ele>232</ele>
        <time>2023-01-30T13:32:11.000Z</time>
      </trkpt>
      <trkpt lat="48.8062" lon="5.1503">
        <ele>232</ele>
        <time>2023-01-30T13:32:12.000Z</time>
      </trkpt>
      <trkpt lat="48.80621" lon="5.15028">
        <ele>232</ele>
        <time>2023-01-30T13:32:13.000Z</time>
      </trkpt>
      <trkpt lat="48.80622" lon="5.15027">
        <ele>232</ele>
        <time>2023-01-30T13:32:14.000Z</time>
      </trkpt>
      <trkpt lat="48.80623" lon="5.15027">
        <ele>231.7</ele>
        <time>2023-01-30T13:32:15.000Z</time>
      </trkpt>
      <trkpt lat="48.80624" lon="5.15026">
        <ele>231.3</ele>
        <time>2023-01-30T13:32:16.000Z</time>
      </trkpt>
      <trkpt lat="48.80626" lon="5.15025">
        <ele>231</ele>
        <time>2023-01-30T13:32:17.000Z</time>
      </trkpt>
      <trkpt lat="48.80627" lon="5.15024">
        <ele>231</ele>
        <time>2023-01-30T13:32:18.000Z</time>
      </trkpt>
      <trkpt lat="48.80629" lon="5.15023">
        <ele>231</ele>
        <time>2023-01-30T13:32:19.000Z</time>
      </trkpt>
      <trkpt lat="48.8063" lon="5.15022">
        <ele>231</ele>
        <time>2023-01-30T13:32:20.000Z</time>
      </trkpt>
      <trkpt lat="48.80632" lon="5.15021">
        <ele>231</ele>
        <time>2023-01-30T13:32:21.000Z</time>
      </trkpt>
      <trkpt lat="48.80633" lon="5.1502">
        <ele>231</ele>
        <time>2023-01-30T13:32:22.000Z</time>
      </trkpt>
      <trkpt lat="48.80634" lon="5.15019">
        <ele>231</ele>
        <time>2023-01-30T13:32:23.000Z</time>
      </trkpt>
      <trkpt lat="48.80635" lon="5.15019">
        <ele>231</ele>
        <time>2023-01-30T13:32:24.000Z</time>
      </trkpt>
      <trkpt lat="48.80635" lon="5.15018">
        <ele>231</ele>
        <time>2023-01-30T13:32:25.000Z</time>
      </trkpt>
      <trkpt lat="48.80638" lon="5.15017">
        <ele>231</ele>
        <time>2023-01-30T13:32:26.000Z</time>
      </trkpt>
      <trkpt lat="48.8064" lon="5.15017">
        <ele>231</ele>
        <time>2023-01-30T13:32:27.000Z</time>
      </trkpt>
      <trkpt lat="48.80642" lon="5.15016">
        <ele>231</ele>
        <time>2023-01-30T13:32:28.000Z</time>
      </trkpt>
      <trkpt lat="48.80643" lon="5.15016">
        <ele>231</ele>
        <time>2023-01-30T13:32:29.000Z</time>
      </trkpt>
      <trkpt lat="48.80644" lon="5.15015">
        <ele>231</ele>
        <time>2023-01-30T13:32:30.000Z</time>
      </trkpt>
      <trkpt lat="48.80645" lon="5.15015">
        <ele>231</ele>
        <time>2023-01-30T13:32:31.000Z</time>
      </trkpt>
      <trkpt lat="48.80646" lon="5.15015">
        <ele>230.5</ele>
        <time>2023-01-30T13:32:32.000Z</time>
      </trkpt>
      <trkpt lat="48.80648" lon="5.15015">
        <ele>230</ele>
        <time>2023-01-30T13:32:33.000Z</time>
      </trkpt>
      <trkpt lat="48.8065" lon="5.15015">
        <ele>230</ele>
        <time>2023-01-30T13:32:34.000Z</time>
      </trkpt>
      <trkpt lat="48.80652" lon="5.15015">
        <ele>230</ele>
        <time>2023-01-30T13:32:35.000Z</time>
      </trkpt>
      <trkpt lat="48.80654" lon="5.15016">
        <ele>230</ele>
        <time>2023-01-30T13:32:36.000Z</time>
      </trkpt>
      <trkpt lat="48.80656" lon="5.15016">
        <ele>230</ele>
        <time>2023-01-30T13:32:37.000Z</time>
      </trkpt>
      <trkpt lat="48.80657" lon="5.15017">
        <ele>230</ele>
        <time>2023-01-30T13:32:38.000Z</time>
      </trkpt>
      <trkpt lat="48.80658" lon="5.15017">
        <ele>230</ele>
        <time>2023-01-30T13:32:39.000Z</time>
      </trkpt>
      <trkpt lat="48.80659" lon="5.15018">
        <ele>230</ele>
        <time>2023-01-30T13:32:40.000Z</time>
      </trkpt>
      <trkpt lat="48.8066" lon="5.15018">
        <ele>230</ele>
        <time>2023-01-30T13:32:41.000Z</time>
      </trkpt>
      <trkpt lat="48.80661" lon="5.15019">
        <ele>230</ele>
        <time>2023-01-30T13:32:42.000Z</time>
      </trkpt>
      <trkpt lat="48.80662" lon="5.15019">
        <ele>229.7</ele>
        <time>2023-01-30T13:32:43.000Z</time>
      </trkpt>
      <trkpt lat="48.80663" lon="5.1502">
        <ele>229.3</ele>
        <time>2023-01-30T13:32:44.000Z</time>
      </trkpt>
      <trkpt lat="48.80664" lon="5.1502">
        <ele>229</ele>
        <time>2023-01-30T13:32:45.000Z</time>
      </trkpt>
      <trkpt lat="48.80664" lon="5.15021">
        <ele>229</ele>
        <time>2023-01-30T13:32:46.000Z</time>
      </trkpt>
      <trkpt lat="48.80665" lon="5.15022">
        <ele>229</ele>
        <time>2023-01-30T13:32:47.000Z</time>
      </trkpt>
      <trkpt lat="48.80666" lon="5.15022">
        <ele>229</ele>
        <time>2023-01-30T13:32:48.000Z</time>
      </trkpt>
      <trkpt lat="48.80666" lon="5.15023">
        <ele>229</ele>
        <time>2023-01-30T13:32:49.000Z</time>
      </trkpt>
      <trkpt lat="48.80667" lon="5.15024">
        <ele>228</ele>
        <time>2023-01-30T13:32:50.000Z</time>
      </trkpt>
      <trkpt lat="48.80667" lon="5.15024">
        <ele>228</ele>
        <time>2023-01-30T13:32:51.000Z</time>
      </trkpt>
      <trkpt lat="48.80668" lon="5.15025">
        <ele>228</ele>
        <time>2023-01-30T13:32:52.000Z</time>
      </trkpt>
      <trkpt lat="48.80669" lon="5.15026">
        <ele>228</ele>
        <time>2023-01-30T13:32:53.000Z</time>
      </trkpt>
      <trkpt lat="48.8067" lon="5.15027">
        <ele>228</ele>
        <time>2023-01-30T13:32:54.000Z</time>
      </trkpt>
      <trkpt lat="48.80671" lon="5.15028">
        <ele>228</ele>
        <time>2023-01-30T13:32:55.000Z</time>
      </trkpt>
      <trkpt lat="48.80672" lon="5.15029">
        <ele>227.5</ele>
        <time>2023-01-30T13:32:56.000Z</time>
      </trkpt>
      <trkpt lat="48.80673" lon="5.15029">
        <ele>227</ele>
        <time>2023-01-30T13:32:57.000Z</time>
      </trkpt>
      <trkpt lat="48.80674" lon="5.1503">
        <ele>227</ele>
        <time>2023-01-30T13:32:58.000Z</time>
      </trkpt>
      <trkpt lat="48.80676" lon="5.15031">
        <ele>227</ele>
        <time>2023-01-30T13:32:59.000Z</time>
      </trkpt>
      <trkpt lat="48.80677" lon="5.15032">
        <ele>227</ele>
        <time>2023-01-30T13:33:00.000Z</time>
      </trkpt>
      <trkpt lat="48.80678" lon="5.15033">
        <ele>226.7</ele>
        <time>2023-01-30T13:33:01.000Z</time>
      </trkpt>
      <trkpt lat="48.8068" lon="5.15033">
        <ele>226.3</ele>
        <time>2023-01-30T13:33:02.000Z</time>
      </trkpt>
      <trkpt lat="48.80681" lon="5.15034">
        <ele>226</ele>
        <time>2023-01-30T13:33:03.000Z</time>
      </trkpt>
      <trkpt lat="48.80682" lon="5.15035">
        <ele>226</ele>
        <time>2023-01-30T13:33:04.000Z</time>
      </trkpt>
      <trkpt lat="48.80682" lon="5.15035">
        <ele>226</ele>
        <time>2023-01-30T13:33:05.000Z</time>
      </trkpt>
      <trkpt lat="48.80683" lon="5.15036">
        <ele>225</ele>
        <time>2023-01-30T13:33:06.000Z</time>
      </trkpt>
      <trkpt lat="48.80683" lon="5.15036">
        <ele>225</ele>
        <time>2023-01-30T13:33:07.000Z</time>
      </trkpt>
      <trkpt lat="48.80684" lon="5.15037">
        <ele>225</ele>
        <time>2023-01-30T13:33:08.000Z</time>
      </trkpt>
      <trkpt lat="48.80685" lon="5.15038">
        <ele>225</ele>
        <time>2023-01-30T13:33:09.000Z</time>
      </trkpt>
      <trkpt lat="48.80685" lon="5.15039">
        <ele>225</ele>
        <time>2023-01-30T13:33:10.000Z</time>
      </trkpt>
      <trkpt lat="48.80686" lon="5.1504">
        <ele>225</ele>
        <time>2023-01-30T13:33:11.000Z</time>
      </trkpt>
      <trkpt lat="48.80687" lon="5.15041">
        <ele>224.5</ele>
        <time>2023-01-30T13:33:12.000Z</time>
      </trkpt>
      <trkpt lat="48.80688" lon="5.15043">
        <ele>224</ele>
        <time>2023-01-30T13:33:13.000Z</time>
      </trkpt>
      <trkpt lat="48.8069" lon="5.15044">
        <ele>224</ele>
        <time>2023-01-30T13:33:14.000Z</time>
      </trkpt>
      <trkpt lat="48.80691" lon="5.15045">
        <ele>223.5</ele>
        <time>2023-01-30T13:33:15.000Z</time>
      </trkpt>
      <trkpt lat="48.80692" lon="5.15046">
        <ele>223</ele>
        <time>2023-01-30T13:33:16.000Z</time>
      </trkpt>
      <trkpt lat="48.80693" lon="5.15047">
        <ele>223</ele>
        <time>2023-01-30T13:33:17.000Z</time>
      </trkpt>
      <trkpt lat="48.80694" lon="5.15048">
        <ele>223</ele>
        <time>2023-01-30T13:33:18.000Z</time>
      </trkpt>
      <trkpt lat="48.80695" lon="5.15049">
        <ele>223</ele>
        <time>2023-01-30T13:33:19.000Z</time>
      </trkpt>
      <trkpt lat="48.80697" lon="5.1505">
        <ele>223</ele>
        <time>2023-01-30T13:33:20.000Z</time>
      </trkpt>
      <trkpt lat="48.80698" lon="5.15051">
        <ele>222.7</ele>
        <time>2023-01-30T13:33:21.000Z</time>
      </trkpt>
      <trkpt lat="48.80699" lon="5.15052">
        <ele>222.3</ele>
        <time>2023-01-30T13:33:22.000Z</time>
      </trkpt>
      <trkpt lat="48.80701" lon="5.15054">
        <ele>222</ele>
        <time>2023-01-30T13:33:23.000Z</time>
      </trkpt>
      <trkpt lat="48.80703" lon="5.15056">
        <ele>222</ele>
        <time>2023-01-30T13:33:24.000Z</time>
      </trkpt>
      <trkpt lat="48.80704" lon="5.15057">
        <ele>222</ele>
        <time>2023-01-30T13:33:25.000Z</time>
      </trkpt>
      <trkpt lat="48.80705" lon="5.15058">
        <ele>222</ele>
        <time>2023-01-30T13:33:26.000Z</time>
      </trkpt>
      <trkpt lat="48.80706" lon="5.15059">
        <ele>222</ele>
        <time>2023-01-30T13:33:27.000Z</time>
      </trkpt>
      <trkpt lat="48.80709" lon="5.15062">
        <ele>222</ele>
        <time>2023-01-30T13:33:28.000Z</time>
      </trkpt>
      <trkpt lat="48.80711" lon="5.15065">
        <ele>222</ele>
        <time>2023-01-30T13:33:29.000Z</time>
      </trkpt>
      <trkpt lat="48.80713" lon="5.15066">
        <ele>222</ele>
        <time>2023-01-30T13:33:30.000Z</time>
      </trkpt>
      <trkpt lat="48.80714" lon="5.15068">
        <ele>222</ele>
        <time>2023-01-30T13:33:31.000Z</time>
      </trkpt>
      <trkpt lat="48.80715" lon="5.1507">
        <ele>222</ele>
        <time>2023-01-30T13:33:32.000Z</time>
      </trkpt>
      <trkpt lat="48.80716" lon="5.15071">
        <ele>222</ele>
        <time>2023-01-30T13:33:33.000Z</time>
      </trkpt>
      <trkpt lat="48.80717" lon="5.15073">
        <ele>222</ele>
        <time>2023-01-30T13:33:34.000Z</time>
      </trkpt>
      <trkpt lat="48.80718" lon="5.15074">
        <ele>222</ele>
        <time>2023-01-30T13:33:35.000Z</time>
      </trkpt>
      <trkpt lat="48.80719" lon="5.15076">
        <ele>222</ele>
        <time>2023-01-30T13:33:36.000Z</time>
      </trkpt>
      <trkpt lat="48.8072" lon="5.15077">
        <ele>222</ele>
        <time>2023-01-30T13:33:37.000Z</time>
      </trkpt>
      <trkpt lat="48.80721" lon="5.15078">
        <ele>222</ele>
        <time>2023-01-30T13:33:38.000Z</time>
      </trkpt>
      <trkpt lat="48.80722" lon="5.15079">
        <ele>222</ele>
        <time>2023-01-30T13:33:39.000Z</time>
      </trkpt>
      <trkpt lat="48.80723" lon="5.1508">
        <ele>222</ele>
        <time>2023-01-30T13:33:40.000Z</time>
      </trkpt>
      <trkpt lat="48.80724" lon="5.15081">
        <ele>222</ele>
        <time>2023-01-30T13:33:41.000Z</time>
      </trkpt>
      <trkpt lat="48.80725" lon="5.15082">
        <ele>222</ele>
        <time>2023-01-30T13:33:42.000Z</time>
      </trkpt>
      <trkpt lat="48.80726" lon="5.15083">
        <ele>222</ele>
        <time>2023-01-30T13:33:43.000Z</time>
      </trkpt>
      <trkpt lat="48.80727" lon="5.15084">
        <ele>222</ele>
        <time>2023-01-30T13:33:44.000Z</time>
      </trkpt>
      <trkpt lat="48.80728" lon="5.15085">
        <ele>222</ele>
        <time>2023-01-30T13:33:45.000Z</time>
      </trkpt>
      <trkpt lat="48.80729" lon="5.15086">
        <ele>222</ele>
        <time>2023-01-30T13:33:46.000Z</time>
      </trkpt>
      <trkpt lat="48.80731" lon="5.15088">
        <ele>222</ele>
        <time>2023-01-30T13:33:47.000Z</time>
      </trkpt>
      <trkpt lat="48.80732" lon="5.15089">
        <ele>222</ele>
        <time>2023-01-30T13:33:48.000Z</time>
      </trkpt>
      <trkpt lat="48.80733" lon="5.1509">
        <ele>222</ele>
        <time>2023-01-30T13:33:49.000Z</time>
      </trkpt>
      <trkpt lat="48.80734" lon="5.15092">
        <ele>222</ele>
        <time>2023-01-30T13:33:50.000Z</time>
      </trkpt>
      <trkpt lat="48.80736" lon="5.15093">
        <ele>222</ele>
        <time>2023-01-30T13:33:51.000Z</time>
      </trkpt>
      <trkpt lat="48.80737" lon="5.15094">
        <ele>222</ele>
        <time>2023-01-30T13:33:52.000Z</time>
      </trkpt>
      <trkpt lat="48.80739" lon="5.15096">
        <ele>222</ele>
        <time>2023-01-30T13:33:53.000Z</time>
      </trkpt>
      <trkpt lat="48.80741" lon="5.15097">
        <ele>222.5</ele>
        <time>2023-01-30T13:33:54.000Z</time>
      </trkpt>
      <trkpt lat="48.80743" lon="5.15099">
        <ele>223</ele>
        <time>2023-01-30T13:33:55.000Z</time>
      </trkpt>
      <trkpt lat="48.80744" lon="5.151">
        <ele>223</ele>
        <time>2023-01-30T13:33:56.000Z</time>
      </trkpt>
      <trkpt lat="48.80746" lon="5.15102">
        <ele>223</ele>
        <time>2023-01-30T13:33:57.000Z</time>
      </trkpt>
      <trkpt lat="48.80747" lon="5.15103">
        <ele>223</ele>
        <time>2023-01-30T13:33:58.000Z</time>
      </trkpt>
      <trkpt lat="48.80748" lon="5.15104">
        <ele>223</ele>
        <time>2023-01-30T13:33:59.000Z</time>
      </trkpt>
      <trkpt lat="48.80749" lon="5.15105">
        <ele>223</ele>
        <time>2023-01-30T13:34:00.000Z</time>
      </trkpt>
      <trkpt lat="48.80751" lon="5.15106">
        <ele>223</ele>
        <time>2023-01-30T13:34:01.000Z</time>
      </trkpt>
      <trkpt lat="48.80752" lon="5.15107">
        <ele>224</ele>
        <time>2023-01-30T13:34:02.000Z</time>
      </trkpt>
      <trkpt lat="48.80754" lon="5.15108">
        <ele>224</ele>
        <time>2023-01-30T13:34:03.000Z</time>
      </trkpt>
      <trkpt lat="48.80755" lon="5.15109">
        <ele>224</ele>
        <time>2023-01-30T13:34:04.000Z</time>
      </trkpt>
      <trkpt lat="48.80756" lon="5.1511">
        <ele>224</ele>
        <time>2023-01-30T13:34:05.000Z</time>
      </trkpt>
      <trkpt lat="48.80757" lon="5.1511">
        <ele>224.5</ele>
        <time>2023-01-30T13:34:06.000Z</time>
      </trkpt>
      <trkpt lat="48.80758" lon="5.15111">
        <ele>225</ele>
        <time>2023-01-30T13:34:07.000Z</time>
      </trkpt>
      <trkpt lat="48.80759" lon="5.15112">
        <ele>225</ele>
        <time>2023-01-30T13:34:08.000Z</time>
      </trkpt>
      <trkpt lat="48.8076" lon="5.15113">
        <ele>225</ele>
        <time>2023-01-30T13:34:09.000Z</time>
      </trkpt>
      <trkpt lat="48.80761" lon="5.15114">
        <ele>225</ele>
        <time>2023-01-30T13:34:10.000Z</time>
      </trkpt>
      <trkpt lat="48.80762" lon="5.15115">
        <ele>225</ele>
        <time>2023-01-30T13:34:11.000Z</time>
      </trkpt>
      <trkpt lat="48.80763" lon="5.15116">
        <ele>225</ele>
        <time>2023-01-30T13:34:12.000Z</time>
      </trkpt>
      <trkpt lat="48.80765" lon="5.15118">
        <ele>225</ele>
        <time>2023-01-30T13:34:13.000Z</time>
      </trkpt>
      <trkpt lat="48.80766" lon="5.15119">
        <ele>225</ele>
        <time>2023-01-30T13:34:14.000Z</time>
      </trkpt>
      <trkpt lat="48.80768" lon="5.15121">
        <ele>225</ele>
        <time>2023-01-30T13:34:15.000Z</time>
      </trkpt>
      <trkpt lat="48.80769" lon="5.15122">
        <ele>225.5</ele>
        <time>2023-01-30T13:34:16.000Z</time>
      </trkpt>
      <trkpt lat="48.80771" lon="5.15124">
        <ele>226</ele>
        <time>2023-01-30T13:34:17.000Z</time>
      </trkpt>
      <trkpt lat="48.80773" lon="5.15126">
        <ele>226</ele>
        <time>2023-01-30T13:34:18.000Z</time>
      </trkpt>
      <trkpt lat="48.80774" lon="5.15128">
        <ele>226</ele>
        <time>2023-01-30T13:34:19.000Z</time>
      </trkpt>
      <trkpt lat="48.80775" lon="5.15129">
        <ele>226</ele>
        <time>2023-01-30T13:34:20.000Z</time>
      </trkpt>
      <trkpt lat="48.80776" lon="5.15131">
        <ele>226</ele>
        <time>2023-01-30T13:34:21.000Z</time>
      </trkpt>
      <trkpt lat="48.80778" lon="5.15132">
        <ele>226.5</ele>
        <time>2023-01-30T13:34:22.000Z</time>
      </trkpt>
      <trkpt lat="48.80779" lon="5.15133">
        <ele>227</ele>
        <time>2023-01-30T13:34:23.000Z</time>
      </trkpt>
      <trkpt lat="48.8078" lon="5.15134">
        <ele>227</ele>
        <time>2023-01-30T13:34:24.000Z</time>
      </trkpt>
      <trkpt lat="48.80782" lon="5.15134">
        <ele>227</ele>
        <time>2023-01-30T13:34:25.000Z</time>
      </trkpt>
      <trkpt lat="48.80782" lon="5.15134">
        <ele>227</ele>
        <time>2023-01-30T13:34:26.000Z</time>
      </trkpt>
      <trkpt lat="48.80783" lon="5.15135">
        <ele>227</ele>
        <time>2023-01-30T13:34:27.000Z</time>
      </trkpt>
      <trkpt lat="48.80784" lon="5.15135">
        <ele>227</ele>
        <time>2023-01-30T13:34:28.000Z</time>
      </trkpt>
      <trkpt lat="48.80785" lon="5.15136">
        <ele>227.3</ele>
        <time>2023-01-30T13:34:29.000Z</time>
      </trkpt>
      <trkpt lat="48.80786" lon="5.15136">
        <ele>227.7</ele>
        <time>2023-01-30T13:34:30.000Z</time>
      </trkpt>
      <trkpt lat="48.80787" lon="5.15137">
        <ele>228</ele>
        <time>2023-01-30T13:34:31.000Z</time>
      </trkpt>
      <trkpt lat="48.80788" lon="5.15138">
        <ele>228</ele>
        <time>2023-01-30T13:34:32.000Z</time>
      </trkpt>
      <trkpt lat="48.80789" lon="5.15139">
        <ele>228</ele>
        <time>2023-01-30T13:34:33.000Z</time>
      </trkpt>
      <trkpt lat="48.8079" lon="5.15141">
        <ele>228</ele>
        <time>2023-01-30T13:34:34.000Z</time>
      </trkpt>
      <trkpt lat="48.80791" lon="5.15142">
        <ele>228</ele>
        <time>2023-01-30T13:34:35.000Z</time>
      </trkpt>
      <trkpt lat="48.80792" lon="5.15144">
        <ele>228</ele>
        <time>2023-01-30T13:34:36.000Z</time>
      </trkpt>
      <trkpt lat="48.80794" lon="5.15146">
        <ele>228</ele>
        <time>2023-01-30T13:34:37.000Z</time>
      </trkpt>
      <trkpt lat="48.80795" lon="5.15148">
        <ele>228</ele>
        <time>2023-01-30T13:34:38.000Z</time>
      </trkpt>
      <trkpt lat="48.80795" lon="5.15149">
        <ele>228</ele>
        <time>2023-01-30T13:34:39.000Z</time>
      </trkpt>
      <trkpt lat="48.80796" lon="5.15151">
        <ele>228</ele>
        <time>2023-01-30T13:34:40.000Z</time>
      </trkpt>
      <trkpt lat="48.80798" lon="5.15152">
        <ele>228</ele>
        <time>2023-01-30T13:34:41.000Z</time>
      </trkpt>
      <trkpt lat="48.80801" lon="5.15154">
        <ele>229</ele>
        <time>2023-01-30T13:34:42.000Z</time>
      </trkpt>
      <trkpt lat="48.80802" lon="5.15156">
        <ele>229</ele>
        <time>2023-01-30T13:34:43.000Z</time>
      </trkpt>
      <trkpt lat="48.80803" lon="5.15157">
        <ele>229</ele>
        <time>2023-01-30T13:34:44.000Z</time>
      </trkpt>
      <trkpt lat="48.80804" lon="5.15157">
        <ele>229</ele>
        <time>2023-01-30T13:34:45.000Z</time>
      </trkpt>
      <trkpt lat="48.80805" lon="5.15158">
        <ele>229</ele>
        <time>2023-01-30T13:34:46.000Z</time>
      </trkpt>
      <trkpt lat="48.80806" lon="5.15159">
        <ele>229</ele>
        <time>2023-01-30T13:34:47.000Z</time>
      </trkpt>
      <trkpt lat="48.80807" lon="5.1516">
        <ele>229</ele>
        <time>2023-01-30T13:34:48.000Z</time>
      </trkpt>
      <trkpt lat="48.80808" lon="5.1516">
        <ele>229</ele>
        <time>2023-01-30T13:34:49.000Z</time>
      </trkpt>
      <trkpt lat="48.8081" lon="5.15163">
        <ele>229</ele>
        <time>2023-01-30T13:34:50.000Z</time>
      </trkpt>
      <trkpt lat="48.80811" lon="5.15165">
        <ele>229</ele>
        <time>2023-01-30T13:34:51.000Z</time>
      </trkpt>
      <trkpt lat="48.80813" lon="5.15166">
        <ele>229</ele>
        <time>2023-01-30T13:34:52.000Z</time>
      </trkpt>
      <trkpt lat="48.80814" lon="5.15168">
        <ele>229.3</ele>
        <time>2023-01-30T13:34:53.000Z</time>
      </trkpt>
      <trkpt lat="48.80815" lon="5.15169">
        <ele>229.7</ele>
        <time>2023-01-30T13:34:54.000Z</time>
      </trkpt>
      <trkpt lat="48.80816" lon="5.15171">
        <ele>230</ele>
        <time>2023-01-30T13:34:55.000Z</time>
      </trkpt>
      <trkpt lat="48.80817" lon="5.15172">
        <ele>230</ele>
        <time>2023-01-30T13:34:56.000Z</time>
      </trkpt>
      <trkpt lat="48.80818" lon="5.15173">
        <ele>230</ele>
        <time>2023-01-30T13:34:57.000Z</time>
      </trkpt>
      <trkpt lat="48.80819" lon="5.15174">
        <ele>230</ele>
        <time>2023-01-30T13:34:58.000Z</time>
      </trkpt>
      <trkpt lat="48.8082" lon="5.15175">
        <ele>230</ele>
        <time>2023-01-30T13:34:59.000Z</time>
      </trkpt>
      <trkpt lat="48.80821" lon="5.15175">
        <ele>230</ele>
        <time>2023-01-30T13:35:00.000Z</time>
      </trkpt>
      <trkpt lat="48.80822" lon="5.15176">
        <ele>230</ele>
        <time>2023-01-30T13:35:01.000Z</time>
      </trkpt>
      <trkpt lat="48.80823" lon="5.15177">
        <ele>230</ele>
        <time>2023-01-30T13:35:02.000Z</time>
      </trkpt>
      <trkpt lat="48.80823" lon="5.15177">
        <ele>230</ele>
        <time>2023-01-30T13:35:03.000Z</time>
      </trkpt>
      <trkpt lat="48.80824" lon="5.15178">
        <ele>230</ele>
        <time>2023-01-30T13:35:04.000Z</time>
      </trkpt>
      <trkpt lat="48.80825" lon="5.15179">
        <ele>230</ele>
        <time>2023-01-30T13:35:05.000Z</time>
      </trkpt>
      <trkpt lat="48.80826" lon="5.15179">
        <ele>230.5</ele>
        <time>2023-01-30T13:35:06.000Z</time>
      </trkpt>
      <trkpt lat="48.80827" lon="5.1518">
        <ele>231</ele>
        <time>2023-01-30T13:35:07.000Z</time>
      </trkpt>
      <trkpt lat="48.80828" lon="5.15181">
        <ele>231</ele>
        <time>2023-01-30T13:35:08.000Z</time>
      </trkpt>
      <trkpt lat="48.8083" lon="5.15182">
        <ele>231</ele>
        <time>2023-01-30T13:35:09.000Z</time>
      </trkpt>
      <trkpt lat="48.80831" lon="5.15182">
        <ele>231</ele>
        <time>2023-01-30T13:35:10.000Z</time>
      </trkpt>
      <trkpt lat="48.80832" lon="5.15183">
        <ele>231</ele>
        <time>2023-01-30T13:35:11.000Z</time>
      </trkpt>
      <trkpt lat="48.80833" lon="5.15184">
        <ele>231</ele>
        <time>2023-01-30T13:35:12.000Z</time>
      </trkpt>
      <trkpt lat="48.80834" lon="5.15185">
        <ele>231</ele>
        <time>2023-01-30T13:35:13.000Z</time>
      </trkpt>
      <trkpt lat="48.80836" lon="5.15186">
        <ele>231</ele>
        <time>2023-01-30T13:35:14.000Z</time>
      </trkpt>
      <trkpt lat="48.80837" lon="5.15187">
        <ele>231</ele>
        <time>2023-01-30T13:35:15.000Z</time>
      </trkpt>
      <trkpt lat="48.80838" lon="5.15188">
        <ele>231</ele>
        <time>2023-01-30T13:35:16.000Z</time>
      </trkpt>
      <trkpt lat="48.8084" lon="5.1519">
        <ele>231</ele>
        <time>2023-01-30T13:35:17.000Z</time>
      </trkpt>
      <trkpt lat="48.80842" lon="5.15191">
        <ele>231.5</ele>
        <time>2023-01-30T13:35:18.000Z</time>
      </trkpt>
      <trkpt lat="48.80843" lon="5.15193">
        <ele>232</ele>
        <time>2023-01-30T13:35:19.000Z</time>
      </trkpt>
      <trkpt lat="48.80845" lon="5.15194">
        <ele>232</ele>
        <time>2023-01-30T13:35:20.000Z</time>
      </trkpt>
      <trkpt lat="48.80846" lon="5.15196">
        <ele>232</ele>
        <time>2023-01-30T13:35:21.000Z</time>
      </trkpt>
      <trkpt lat="48.80848" lon="5.15197">
        <ele>232</ele>
        <time>2023-01-30T13:35:22.000Z</time>
      </trkpt>
      <trkpt lat="48.80849" lon="5.15198">
        <ele>232</ele>
        <time>2023-01-30T13:35:23.000Z</time>
      </trkpt>
      <trkpt lat="48.8085" lon="5.152">
        <ele>232</ele>
        <time>2023-01-30T13:35:24.000Z</time>
      </trkpt>
      <trkpt lat="48.80851" lon="5.15202">
        <ele>232</ele>
        <time>2023-01-30T13:35:25.000Z</time>
      </trkpt>
      <trkpt lat="48.80853" lon="5.15204">
        <ele>232</ele>
        <time>2023-01-30T13:35:26.000Z</time>
      </trkpt>
      <trkpt lat="48.80855" lon="5.15206">
        <ele>232</ele>
        <time>2023-01-30T13:35:27.000Z</time>
      </trkpt>
      <trkpt lat="48.80856" lon="5.15207">
        <ele>232</ele>
        <time>2023-01-30T13:35:28.000Z</time>
      </trkpt>
      <trkpt lat="48.80858" lon="5.15209">
        <ele>232</ele>
        <time>2023-01-30T13:35:29.000Z</time>
      </trkpt>
      <trkpt lat="48.80859" lon="5.1521">
        <ele>232</ele>
        <time>2023-01-30T13:35:30.000Z</time>
      </trkpt>
      <trkpt lat="48.80861" lon="5.15211">
        <ele>232</ele>
        <time>2023-01-30T13:35:31.000Z</time>
      </trkpt>
      <trkpt lat="48.80862" lon="5.15213">
        <ele>232</ele>
        <time>2023-01-30T13:35:32.000Z</time>
      </trkpt>
      <trkpt lat="48.80864" lon="5.15215">
        <ele>232</ele>
        <time>2023-01-30T13:35:33.000Z</time>
      </trkpt>
      <trkpt lat="48.80865" lon="5.15216">
        <ele>232</ele>
        <time>2023-01-30T13:35:34.000Z</time>
      </trkpt>
      <trkpt lat="48.80866" lon="5.15217">
        <ele>232</ele>
        <time>2023-01-30T13:35:35.000Z</time>
      </trkpt>
      <trkpt lat="48.80867" lon="5.15218">
        <ele>232</ele>
        <time>2023-01-30T13:35:36.000Z</time>
      </trkpt>
      <trkpt lat="48.80869" lon="5.1522">
        <ele>232</ele>
        <time>2023-01-30T13:35:37.000Z</time>
      </trkpt>
      <trkpt lat="48.80871" lon="5.15222">
        <ele>232</ele>
        <time>2023-01-30T13:35:38.000Z</time>
      </trkpt>
      <trkpt lat="48.80872" lon="5.15224">
        <ele>232.3</ele>
        <time>2023-01-30T13:35:39.000Z</time>
      </trkpt>
      <trkpt lat="48.80874" lon="5.15225">
        <ele>232.7</ele>
        <time>2023-01-30T13:35:40.000Z</time>
      </trkpt>
      <trkpt lat="48.80875" lon="5.15226">
        <ele>233</ele>
        <time>2023-01-30T13:35:41.000Z</time>
      </trkpt>
      <trkpt lat="48.80876" lon="5.15227">
        <ele>233</ele>
        <time>2023-01-30T13:35:42.000Z</time>
      </trkpt>
      <trkpt lat="48.80876" lon="5.15227">
        <ele>233</ele>
        <time>2023-01-30T13:35:43.000Z</time>
      </trkpt>
      <trkpt lat="48.80877" lon="5.15228">
        <ele>233</ele>
        <time>2023-01-30T13:35:44.000Z</time>
      </trkpt>
      <trkpt lat="48.80879" lon="5.15229">
        <ele>233</ele>
        <time>2023-01-30T13:35:45.000Z</time>
      </trkpt>
      <trkpt lat="48.8088" lon="5.1523">
        <ele>233</ele>
        <time>2023-01-30T13:35:46.000Z</time>
      </trkpt>
      <trkpt lat="48.80881" lon="5.15231">
        <ele>233</ele>
        <time>2023-01-30T13:35:47.000Z</time>
      </trkpt>
      <trkpt lat="48.80882" lon="5.15233">
        <ele>233</ele>
        <time>2023-01-30T13:35:48.000Z</time>
      </trkpt>
      <trkpt lat="48.80884" lon="5.15234">
        <ele>233</ele>
        <time>2023-01-30T13:35:49.000Z</time>
      </trkpt>
      <trkpt lat="48.80885" lon="5.15236">
        <ele>233</ele>
        <time>2023-01-30T13:35:50.000Z</time>
      </trkpt>
      <trkpt lat="48.80886" lon="5.15237">
        <ele>233</ele>
        <time>2023-01-30T13:35:51.000Z</time>
      </trkpt>
      <trkpt lat="48.80887" lon="5.15239">
        <ele>233.5</ele>
        <time>2023-01-30T13:35:52.000Z</time>
      </trkpt>
      <trkpt lat="48.80888" lon="5.1524">
        <ele>234</ele>
        <time>2023-01-30T13:35:53.000Z</time>
      </trkpt>
      <trkpt lat="48.80889" lon="5.15241">
        <ele>234</ele>
        <time>2023-01-30T13:35:54.000Z</time>
      </trkpt>
      <trkpt lat="48.8089" lon="5.15242">
        <ele>233.7</ele>
        <time>2023-01-30T13:35:55.000Z</time>
      </trkpt>
      <trkpt lat="48.80891" lon="5.15243">
        <ele>233.3</ele>
        <time>2023-01-30T13:35:56.000Z</time>
      </trkpt>
      <trkpt lat="48.80892" lon="5.15244">
        <ele>233</ele>
        <time>2023-01-30T13:35:57.000Z</time>
      </trkpt>
      <trkpt lat="48.80893" lon="5.15245">
        <ele>233</ele>
        <time>2023-01-30T13:35:58.000Z</time>
      </trkpt>
      <trkpt lat="48.80894" lon="5.15246">
        <ele>233</ele>
        <time>2023-01-30T13:35:59.000Z</time>
      </trkpt>
      <trkpt lat="48.80895" lon="5.15247">
        <ele>233</ele>
        <time>2023-01-30T13:36:00.000Z</time>
      </trkpt>
      <trkpt lat="48.80896" lon="5.15248">
        <ele>233</ele>
        <time>2023-01-30T13:36:01.000Z</time>
      </trkpt>
      <trkpt lat="48.80897" lon="5.1525">
        <ele>233</ele>
        <time>2023-01-30T13:36:02.000Z</time>
      </trkpt>
      <trkpt lat="48.80898" lon="5.15251">
        <ele>233</ele>
        <time>2023-01-30T13:36:03.000Z</time>
      </trkpt>
      <trkpt lat="48.80899" lon="5.15252">
        <ele>233</ele>
        <time>2023-01-30T13:36:04.000Z</time>
      </trkpt>
      <trkpt lat="48.809" lon="5.15254">
        <ele>233</ele>
        <time>2023-01-30T13:36:05.000Z</time>
      </trkpt>
      <trkpt lat="48.80901" lon="5.15255">
        <ele>233</ele>
        <time>2023-01-30T13:36:06.000Z</time>
      </trkpt>
      <trkpt lat="48.80902" lon="5.15256">
        <ele>233</ele>
        <time>2023-01-30T13:36:07.000Z</time>
      </trkpt>
      <trkpt lat="48.80903" lon="5.15257">
        <ele>233</ele>
        <time>2023-01-30T13:36:08.000Z</time>
      </trkpt>
      <trkpt lat="48.80904" lon="5.15258">
        <ele>233</ele>
        <time>2023-01-30T13:36:09.000Z</time>
      </trkpt>
      <trkpt lat="48.80905" lon="5.1526">
        <ele>233</ele>
        <time>2023-01-30T13:36:10.000Z</time>
      </trkpt>
      <trkpt lat="48.80906" lon="5.15261">
        <ele>233</ele>
        <time>2023-01-30T13:36:11.000Z</time>
      </trkpt>
      <trkpt lat="48.80907" lon="5.15262">
        <ele>233</ele>
        <time>2023-01-30T13:36:12.000Z</time>
      </trkpt>
      <trkpt lat="48.80908" lon="5.15263">
        <ele>233</ele>
        <time>2023-01-30T13:36:13.000Z</time>
      </trkpt>
      <trkpt lat="48.80909" lon="5.15265">
        <ele>233</ele>
        <time>2023-01-30T13:36:14.000Z</time>
      </trkpt>
      <trkpt lat="48.8091" lon="5.15266">
        <ele>233</ele>
        <time>2023-01-30T13:36:15.000Z</time>
      </trkpt>
      <trkpt lat="48.80911" lon="5.15267">
        <ele>233</ele>
        <time>2023-01-30T13:36:16.000Z</time>
      </trkpt>
      <trkpt lat="48.80913" lon="5.15268">
        <ele>233</ele>
        <time>2023-01-30T13:36:17.000Z</time>
      </trkpt>
      <trkpt lat="48.80914" lon="5.15269">
        <ele>233</ele>
        <time>2023-01-30T13:36:18.000Z</time>
      </trkpt>
      <trkpt lat="48.80916" lon="5.15271">
        <ele>233</ele>
        <time>2023-01-30T13:36:19.000Z</time>
      </trkpt>
      <trkpt lat="48.80917" lon="5.15272">
        <ele>233</ele>
        <time>2023-01-30T13:36:20.000Z</time>
      </trkpt>
      <trkpt lat="48.80918" lon="5.15274">
        <ele>233</ele>
        <time>2023-01-30T13:36:21.000Z</time>
      </trkpt>
      <trkpt lat="48.80919" lon="5.15275">
        <ele>233</ele>
        <time>2023-01-30T13:36:22.000Z</time>
      </trkpt>
      <trkpt lat="48.8092" lon="5.15276">
        <ele>233</ele>
        <time>2023-01-30T13:36:23.000Z</time>
      </trkpt>
      <trkpt lat="48.80921" lon="5.15278">
        <ele>233</ele>
        <time>2023-01-30T13:36:24.000Z</time>
      </trkpt>
      <trkpt lat="48.80923" lon="5.15279">
        <ele>233</ele>
        <time>2023-01-30T13:36:25.000Z</time>
      </trkpt>
      <trkpt lat="48.80925" lon="5.15281">
        <ele>233</ele>
        <time>2023-01-30T13:36:26.000Z</time>
      </trkpt>
      <trkpt lat="48.80927" lon="5.15282">
        <ele>232.5</ele>
        <time>2023-01-30T13:36:27.000Z</time>
      </trkpt>
      <trkpt lat="48.80928" lon="5.15284">
        <ele>232</ele>
        <time>2023-01-30T13:36:28.000Z</time>
      </trkpt>
      <trkpt lat="48.80929" lon="5.15286">
        <ele>232</ele>
        <time>2023-01-30T13:36:29.000Z</time>
      </trkpt>
      <trkpt lat="48.8093" lon="5.15287">
        <ele>232</ele>
        <time>2023-01-30T13:36:30.000Z</time>
      </trkpt>
      <trkpt lat="48.80932" lon="5.15289">
        <ele>232</ele>
        <time>2023-01-30T13:36:31.000Z</time>
      </trkpt>
      <trkpt lat="48.80933" lon="5.1529">
        <ele>232</ele>
        <time>2023-01-30T13:36:32.000Z</time>
      </trkpt>
      <trkpt lat="48.80934" lon="5.15291">
        <ele>232</ele>
        <time>2023-01-30T13:36:33.000Z</time>
      </trkpt>
      <trkpt lat="48.80935" lon="5.15292">
        <ele>232</ele>
        <time>2023-01-30T13:36:34.000Z</time>
      </trkpt>
      <trkpt lat="48.80937" lon="5.15293">
        <ele>232</ele>
        <time>2023-01-30T13:36:35.000Z</time>
      </trkpt>
      <trkpt lat="48.80938" lon="5.15294">
        <ele>232</ele>
        <time>2023-01-30T13:36:36.000Z</time>
      </trkpt>
      <trkpt lat="48.80939" lon="5.15295">
        <ele>232</ele>
        <time>2023-01-30T13:36:37.000Z</time>
      </trkpt>
      <trkpt lat="48.80941" lon="5.15296">
        <ele>232</ele>
        <time>2023-01-30T13:36:38.000Z</time>
      </trkpt>
      <trkpt lat="48.80942" lon="5.15297">
        <ele>232</ele>
        <time>2023-01-30T13:36:39.000Z</time>
      </trkpt>
      <trkpt lat="48.80942" lon="5.15298">
        <ele>232</ele>
        <time>2023-01-30T13:36:40.000Z</time>
      </trkpt>
      <trkpt lat="48.80943" lon="5.15299">
        <ele>232</ele>
        <time>2023-01-30T13:36:41.000Z</time>
      </trkpt>
      <trkpt lat="48.80945" lon="5.15299">
        <ele>232</ele>
        <time>2023-01-30T13:36:42.000Z</time>
      </trkpt>
      <trkpt lat="48.80946" lon="5.153">
        <ele>232</ele>
        <time>2023-01-30T13:36:43.000Z</time>
      </trkpt>
      <trkpt lat="48.80948" lon="5.15301">
        <ele>232</ele>
        <time>2023-01-30T13:36:44.000Z</time>
      </trkpt>
      <trkpt lat="48.80949" lon="5.15301">
        <ele>232</ele>
        <time>2023-01-30T13:36:45.000Z</time>
      </trkpt>
      <trkpt lat="48.8095" lon="5.15302">
        <ele>231</ele>
        <time>2023-01-30T13:36:46.000Z</time>
      </trkpt>
      <trkpt lat="48.80951" lon="5.15303">
        <ele>231</ele>
        <time>2023-01-30T13:36:47.000Z</time>
      </trkpt>
      <trkpt lat="48.80952" lon="5.15304">
        <ele>231</ele>
        <time>2023-01-30T13:36:48.000Z</time>
      </trkpt>
      <trkpt lat="48.80953" lon="5.15305">
        <ele>231</ele>
        <time>2023-01-30T13:36:49.000Z</time>
      </trkpt>
      <trkpt lat="48.80954" lon="5.15306">
        <ele>231</ele>
        <time>2023-01-30T13:36:50.000Z</time>
      </trkpt>
      <trkpt lat="48.80955" lon="5.15307">
        <ele>231</ele>
        <time>2023-01-30T13:36:51.000Z</time>
      </trkpt>
      <trkpt lat="48.80956" lon="5.15308">
        <ele>231</ele>
        <time>2023-01-30T13:36:52.000Z</time>
      </trkpt>
      <trkpt lat="48.80957" lon="5.15309">
        <ele>231</ele>
        <time>2023-01-30T13:36:53.000Z</time>
      </trkpt>
      <trkpt lat="48.80958" lon="5.1531">
        <ele>231</ele>
        <time>2023-01-30T13:36:54.000Z</time>
      </trkpt>
      <trkpt lat="48.8096" lon="5.15311">
        <ele>231</ele>
        <time>2023-01-30T13:36:55.000Z</time>
      </trkpt>
      <trkpt lat="48.80961" lon="5.15313">
        <ele>231</ele>
        <time>2023-01-30T13:36:56.000Z</time>
      </trkpt>
      <trkpt lat="48.80962" lon="5.15314">
        <ele>231</ele>
        <time>2023-01-30T13:36:57.000Z</time>
      </trkpt>
      <trkpt lat="48.80963" lon="5.15315">
        <ele>231</ele>
        <time>2023-01-30T13:36:58.000Z</time>
      </trkpt>
      <trkpt lat="48.80963" lon="5.15317">
        <ele>231</ele>
        <time>2023-01-30T13:36:59.000Z</time>
      </trkpt>
      <trkpt lat="48.80964" lon="5.15318">
        <ele>231</ele>
        <time>2023-01-30T13:37:00.000Z</time>
      </trkpt>
      <trkpt lat="48.80965" lon="5.1532">
        <ele>231</ele>
        <time>2023-01-30T13:37:01.000Z</time>
      </trkpt>
      <trkpt lat="48.80966" lon="5.15321">
        <ele>231</ele>
        <time>2023-01-30T13:37:02.000Z</time>
      </trkpt>
      <trkpt lat="48.80967" lon="5.15323">
        <ele>231</ele>
        <time>2023-01-30T13:37:03.000Z</time>
      </trkpt>
      <trkpt lat="48.80968" lon="5.15324">
        <ele>231</ele>
        <time>2023-01-30T13:37:04.000Z</time>
      </trkpt>
      <trkpt lat="48.80969" lon="5.15325">
        <ele>231</ele>
        <time>2023-01-30T13:37:05.000Z</time>
      </trkpt>
      <trkpt lat="48.8097" lon="5.15326">
        <ele>231</ele>
        <time>2023-01-30T13:37:06.000Z</time>
      </trkpt>
      <trkpt lat="48.80971" lon="5.15327">
        <ele>231</ele>
        <time>2023-01-30T13:37:07.000Z</time>
      </trkpt>
      <trkpt lat="48.80971" lon="5.15328">
        <ele>231</ele>
        <time>2023-01-30T13:37:08.000Z</time>
      </trkpt>
      <trkpt lat="48.80972" lon="5.15329">
        <ele>231</ele>
        <time>2023-01-30T13:37:09.000Z</time>
      </trkpt>
      <trkpt lat="48.80973" lon="5.1533">
        <ele>231</ele>
        <time>2023-01-30T13:37:10.000Z</time>
      </trkpt>
      <trkpt lat="48.80974" lon="5.15331">
        <ele>231</ele>
        <time>2023-01-30T13:37:11.000Z</time>
      </trkpt>
      <trkpt lat="48.80975" lon="5.15332">
        <ele>231</ele>
        <time>2023-01-30T13:37:12.000Z</time>
      </trkpt>
      <trkpt lat="48.80977" lon="5.15333">
        <ele>231</ele>
        <time>2023-01-30T13:37:13.000Z</time>
      </trkpt>
      <trkpt lat="48.80978" lon="5.15335">
        <ele>231</ele>
        <time>2023-01-30T13:37:14.000Z</time>
      </trkpt>
      <trkpt lat="48.80979" lon="5.15336">
        <ele>231</ele>
        <time>2023-01-30T13:37:15.000Z</time>
      </trkpt>
      <trkpt lat="48.80981" lon="5.15338">
        <ele>231</ele>
        <time>2023-01-30T13:37:16.000Z</time>
      </trkpt>
      <trkpt lat="48.80982" lon="5.15339">
        <ele>231</ele>
        <time>2023-01-30T13:37:17.000Z</time>
      </trkpt>
      <trkpt lat="48.80983" lon="5.1534">
        <ele>231</ele>
        <time>2023-01-30T13:37:18.000Z</time>
      </trkpt>
      <trkpt lat="48.80985" lon="5.15342">
        <ele>231</ele>
        <time>2023-01-30T13:37:19.000Z</time>
      </trkpt>
      <trkpt lat="48.80987" lon="5.15344">
        <ele>231</ele>
        <time>2023-01-30T13:37:20.000Z</time>
      </trkpt>
      <trkpt lat="48.80988" lon="5.15345">
        <ele>231.3</ele>
        <time>2023-01-30T13:37:21.000Z</time>
      </trkpt>
      <trkpt lat="48.80989" lon="5.15346">
        <ele>231.7</ele>
        <time>2023-01-30T13:37:22.000Z</time>
      </trkpt>
      <trkpt lat="48.8099" lon="5.15346">
        <ele>232</ele>
        <time>2023-01-30T13:37:23.000Z</time>
      </trkpt>
      <trkpt lat="48.80992" lon="5.15348">
        <ele>232</ele>
        <time>2023-01-30T13:37:24.000Z</time>
      </trkpt>
      <trkpt lat="48.80993" lon="5.15349">
        <ele>232</ele>
        <time>2023-01-30T13:37:25.000Z</time>
      </trkpt>
      <trkpt lat="48.80995" lon="5.15351">
        <ele>232</ele>
        <time>2023-01-30T13:37:26.000Z</time>
      </trkpt>
      <trkpt lat="48.80996" lon="5.15353">
        <ele>232</ele>
        <time>2023-01-30T13:37:27.000Z</time>
      </trkpt>
      <trkpt lat="48.80998" lon="5.15354">
        <ele>232</ele>
        <time>2023-01-30T13:37:28.000Z</time>
      </trkpt>
      <trkpt lat="48.81" lon="5.15356">
        <ele>232</ele>
        <time>2023-01-30T13:37:29.000Z</time>
      </trkpt>
      <trkpt lat="48.81001" lon="5.15357">
        <ele>232</ele>
        <time>2023-01-30T13:37:30.000Z</time>
      </trkpt>
      <trkpt lat="48.81002" lon="5.15358">
        <ele>232</ele>
        <time>2023-01-30T13:37:31.000Z</time>
      </trkpt>
      <trkpt lat="48.81004" lon="5.15359">
        <ele>232</ele>
        <time>2023-01-30T13:37:32.000Z</time>
      </trkpt>
      <trkpt lat="48.81005" lon="5.1536">
        <ele>232</ele>
        <time>2023-01-30T13:37:33.000Z</time>
      </trkpt>
      <trkpt lat="48.81006" lon="5.15361">
        <ele>232</ele>
        <time>2023-01-30T13:37:34.000Z</time>
      </trkpt>
      <trkpt lat="48.81007" lon="5.15362">
        <ele>232</ele>
        <time>2023-01-30T13:37:35.000Z</time>
      </trkpt>
      <trkpt lat="48.81008" lon="5.15363">
        <ele>232</ele>
        <time>2023-01-30T13:37:36.000Z</time>
      </trkpt>
      <trkpt lat="48.81009" lon="5.15364">
        <ele>232</ele>
        <time>2023-01-30T13:37:37.000Z</time>
      </trkpt>
      <trkpt lat="48.8101" lon="5.15365">
        <ele>232</ele>
        <time>2023-01-30T13:37:38.000Z</time>
      </trkpt>
      <trkpt lat="48.81011" lon="5.15366">
        <ele>232</ele>
        <time>2023-01-30T13:37:39.000Z</time>
      </trkpt>
      <trkpt lat="48.81012" lon="5.15367">
        <ele>232</ele>
        <time>2023-01-30T13:37:40.000Z</time>
      </trkpt>
      <trkpt lat="48.81012" lon="5.15368">
        <ele>232</ele>
        <time>2023-01-30T13:37:41.000Z</time>
      </trkpt>
      <trkpt lat="48.81013" lon="5.15369">
        <ele>232</ele>
        <time>2023-01-30T13:37:42.000Z</time>
      </trkpt>
      <trkpt lat="48.81015" lon="5.1537">
        <ele>232</ele>
        <time>2023-01-30T13:37:43.000Z</time>
      </trkpt>
      <trkpt lat="48.81016" lon="5.15371">
        <ele>232</ele>
        <time>2023-01-30T13:37:44.000Z</time>
      </trkpt>
      <trkpt lat="48.81017" lon="5.15372">
        <ele>232</ele>
        <time>2023-01-30T13:37:45.000Z</time>
      </trkpt>
      <trkpt lat="48.81019" lon="5.15373">
        <ele>232</ele>
        <time>2023-01-30T13:37:46.000Z</time>
      </trkpt>
      <trkpt lat="48.8102" lon="5.15374">
        <ele>232</ele>
        <time>2023-01-30T13:37:47.000Z</time>
      </trkpt>
      <trkpt lat="48.81021" lon="5.15376">
        <ele>232</ele>
        <time>2023-01-30T13:37:48.000Z</time>
      </trkpt>
      <trkpt lat="48.81022" lon="5.15377">
        <ele>232</ele>
        <time>2023-01-30T13:37:49.000Z</time>
      </trkpt>
      <trkpt lat="48.81024" lon="5.15378">
        <ele>232</ele>
        <time>2023-01-30T13:37:50.000Z</time>
      </trkpt>
      <trkpt lat="48.81026" lon="5.15379">
        <ele>232</ele>
        <time>2023-01-30T13:37:51.000Z</time>
      </trkpt>
      <trkpt lat="48.81028" lon="5.15381">
        <ele>232</ele>
        <time>2023-01-30T13:37:52.000Z</time>
      </trkpt>
      <trkpt lat="48.8103" lon="5.15382">
        <ele>232</ele>
        <time>2023-01-30T13:37:53.000Z</time>
      </trkpt>
      <trkpt lat="48.81031" lon="5.15383">
        <ele>233</ele>
        <time>2023-01-30T13:37:54.000Z</time>
      </trkpt>
      <trkpt lat="48.81032" lon="5.15384">
        <ele>233</ele>
        <time>2023-01-30T13:37:55.000Z</time>
      </trkpt>
      <trkpt lat="48.81033" lon="5.15385">
        <ele>233</ele>
        <time>2023-01-30T13:37:56.000Z</time>
      </trkpt>
      <trkpt lat="48.81035" lon="5.15386">
        <ele>233</ele>
        <time>2023-01-30T13:37:57.000Z</time>
      </trkpt>
      <trkpt lat="48.81036" lon="5.15387">
        <ele>233</ele>
        <time>2023-01-30T13:37:58.000Z</time>
      </trkpt>
      <trkpt lat="48.81037" lon="5.15389">
        <ele>233</ele>
        <time>2023-01-30T13:37:59.000Z</time>
      </trkpt>
      <trkpt lat="48.81038" lon="5.15391">
        <ele>233</ele>
        <time>2023-01-30T13:38:00.000Z</time>
      </trkpt>
      <trkpt lat="48.81039" lon="5.15393">
        <ele>233</ele>
        <time>2023-01-30T13:38:01.000Z</time>
      </trkpt>
      <trkpt lat="48.8104" lon="5.15395">
        <ele>233</ele>
        <time>2023-01-30T13:38:02.000Z</time>
      </trkpt>
      <trkpt lat="48.81042" lon="5.15397">
        <ele>233</ele>
        <time>2023-01-30T13:38:03.000Z</time>
      </trkpt>
      <trkpt lat="48.81043" lon="5.15399">
        <ele>233</ele>
        <time>2023-01-30T13:38:04.000Z</time>
      </trkpt>
      <trkpt lat="48.81044" lon="5.15401">
        <ele>233</ele>
        <time>2023-01-30T13:38:05.000Z</time>
      </trkpt>
      <trkpt lat="48.81046" lon="5.15402">
        <ele>233</ele>
        <time>2023-01-30T13:38:06.000Z</time>
      </trkpt>
      <trkpt lat="48.81047" lon="5.15403">
        <ele>233</ele>
        <time>2023-01-30T13:38:07.000Z</time>
      </trkpt>
      <trkpt lat="48.81048" lon="5.15404">
        <ele>233</ele>
        <time>2023-01-30T13:38:08.000Z</time>
      </trkpt>
      <trkpt lat="48.8105" lon="5.15405">
        <ele>233</ele>
        <time>2023-01-30T13:38:09.000Z</time>
      </trkpt>
      <trkpt lat="48.81051" lon="5.15406">
        <ele>233</ele>
        <time>2023-01-30T13:38:10.000Z</time>
      </trkpt>
      <trkpt lat="48.81052" lon="5.15407">
        <ele>233</ele>
        <time>2023-01-30T13:38:11.000Z</time>
      </trkpt>
      <trkpt lat="48.81053" lon="5.15408">
        <ele>233</ele>
        <time>2023-01-30T13:38:12.000Z</time>
      </trkpt>
      <trkpt lat="48.81054" lon="5.15409">
        <ele>233</ele>
        <time>2023-01-30T13:38:13.000Z</time>
      </trkpt>
      <trkpt lat="48.81054" lon="5.1541">
        <ele>233</ele>
        <time>2023-01-30T13:38:14.000Z</time>
      </trkpt>
      <trkpt lat="48.81055" lon="5.15411">
        <ele>233</ele>
        <time>2023-01-30T13:38:15.000Z</time>
      </trkpt>
      <trkpt lat="48.81055" lon="5.15412">
        <ele>233</ele>
        <time>2023-01-30T13:38:16.000Z</time>
      </trkpt>
      <trkpt lat="48.81056" lon="5.15413">
        <ele>233</ele>
        <time>2023-01-30T13:38:17.000Z</time>
      </trkpt>
      <trkpt lat="48.81057" lon="5.15414">
        <ele>233</ele>
        <time>2023-01-30T13:38:18.000Z</time>
      </trkpt>
      <trkpt lat="48.81059" lon="5.15415">
        <ele>233</ele>
        <time>2023-01-30T13:38:19.000Z</time>
      </trkpt>
      <trkpt lat="48.8106" lon="5.15416">
        <ele>234</ele>
        <time>2023-01-30T13:38:20.000Z</time>
      </trkpt>
      <trkpt lat="48.81061" lon="5.15417">
        <ele>234</ele>
        <time>2023-01-30T13:38:21.000Z</time>
      </trkpt>
      <trkpt lat="48.81062" lon="5.15418">
        <ele>234</ele>
        <time>2023-01-30T13:38:22.000Z</time>
      </trkpt>
      <trkpt lat="48.81062" lon="5.15419">
        <ele>234</ele>
        <time>2023-01-30T13:38:23.000Z</time>
      </trkpt>
      <trkpt lat="48.81064" lon="5.15421">
        <ele>234</ele>
        <time>2023-01-30T13:38:24.000Z</time>
      </trkpt>
      <trkpt lat="48.81065" lon="5.15422">
        <ele>234</ele>
        <time>2023-01-30T13:38:25.000Z</time>
      </trkpt>
      <trkpt lat="48.81065" lon="5.15423">
        <ele>234</ele>
        <time>2023-01-30T13:38:26.000Z</time>
      </trkpt>
      <trkpt lat="48.81066" lon="5.15424">
        <ele>234</ele>
        <time>2023-01-30T13:38:27.000Z</time>
      </trkpt>
      <trkpt lat="48.81067" lon="5.15425">
        <ele>234</ele>
        <time>2023-01-30T13:38:28.000Z</time>
      </trkpt>
      <trkpt lat="48.81069" lon="5.15426">
        <ele>234</ele>
        <time>2023-01-30T13:38:29.000Z</time>
      </trkpt>
      <trkpt lat="48.81071" lon="5.15428">
        <ele>234</ele>
        <time>2023-01-30T13:38:30.000Z</time>
      </trkpt>
      <trkpt lat="48.81073" lon="5.15429">
        <ele>234</ele>
        <time>2023-01-30T13:38:31.000Z</time>
      </trkpt>
      <trkpt lat="48.81074" lon="5.15431">
        <ele>234</ele>
        <time>2023-01-30T13:38:32.000Z</time>
      </trkpt>
      <trkpt lat="48.81075" lon="5.15432">
        <ele>234</ele>
        <time>2023-01-30T13:38:33.000Z</time>
      </trkpt>
      <trkpt lat="48.81077" lon="5.15434">
        <ele>234</ele>
        <time>2023-01-30T13:38:34.000Z</time>
      </trkpt>
      <trkpt lat="48.81078" lon="5.15435">
        <ele>234</ele>
        <time>2023-01-30T13:38:35.000Z</time>
      </trkpt>
      <trkpt lat="48.81079" lon="5.15436">
        <ele>234</ele>
        <time>2023-01-30T13:38:36.000Z</time>
      </trkpt>
      <trkpt lat="48.8108" lon="5.15438">
        <ele>234</ele>
        <time>2023-01-30T13:38:37.000Z</time>
      </trkpt>
      <trkpt lat="48.81081" lon="5.15439">
        <ele>234</ele>
        <time>2023-01-30T13:38:38.000Z</time>
      </trkpt>
      <trkpt lat="48.81082" lon="5.1544">
        <ele>234</ele>
        <time>2023-01-30T13:38:39.000Z</time>
      </trkpt>
      <trkpt lat="48.81082" lon="5.15441">
        <ele>234</ele>
        <time>2023-01-30T13:38:40.000Z</time>
      </trkpt>
      <trkpt lat="48.81083" lon="5.15443">
        <ele>234</ele>
        <time>2023-01-30T13:38:41.000Z</time>
      </trkpt>
      <trkpt lat="48.81085" lon="5.15444">
        <ele>234</ele>
        <time>2023-01-30T13:38:42.000Z</time>
      </trkpt>
      <trkpt lat="48.81086" lon="5.15444">
        <ele>234</ele>
        <time>2023-01-30T13:38:43.000Z</time>
      </trkpt>
      <trkpt lat="48.81087" lon="5.15445">
        <ele>234</ele>
        <time>2023-01-30T13:38:44.000Z</time>
      </trkpt>
      <trkpt lat="48.81088" lon="5.15446">
        <ele>234</ele>
        <time>2023-01-30T13:38:45.000Z</time>
      </trkpt>
      <trkpt lat="48.81089" lon="5.15447">
        <ele>234</ele>
        <time>2023-01-30T13:38:46.000Z</time>
      </trkpt>
      <trkpt lat="48.81091" lon="5.15448">
        <ele>234</ele>
        <time>2023-01-30T13:38:47.000Z</time>
      </trkpt>
      <trkpt lat="48.81092" lon="5.15449">
        <ele>234</ele>
        <time>2023-01-30T13:38:48.000Z</time>
      </trkpt>
      <trkpt lat="48.81093" lon="5.1545">
        <ele>234</ele>
        <time>2023-01-30T13:38:49.000Z</time>
      </trkpt>
      <trkpt lat="48.81094" lon="5.15451">
        <ele>234</ele>
        <time>2023-01-30T13:38:50.000Z</time>
      </trkpt>
      <trkpt lat="48.81095" lon="5.15452">
        <ele>234</ele>
        <time>2023-01-30T13:38:51.000Z</time>
      </trkpt>
      <trkpt lat="48.81097" lon="5.15453">
        <ele>234</ele>
        <time>2023-01-30T13:38:52.000Z</time>
      </trkpt>
      <trkpt lat="48.81098" lon="5.15455">
        <ele>234</ele>
        <time>2023-01-30T13:38:53.000Z</time>
      </trkpt>
      <trkpt lat="48.81099" lon="5.15456">
        <ele>234</ele>
        <time>2023-01-30T13:38:54.000Z</time>
      </trkpt>
      <trkpt lat="48.811" lon="5.15457">
        <ele>234</ele>
        <time>2023-01-30T13:38:55.000Z</time>
      </trkpt>
      <trkpt lat="48.81101" lon="5.15458">
        <ele>234</ele>
        <time>2023-01-30T13:38:56.000Z</time>
      </trkpt>
      <trkpt lat="48.81102" lon="5.15459">
        <ele>234</ele>
        <time>2023-01-30T13:38:57.000Z</time>
      </trkpt>
      <trkpt lat="48.81104" lon="5.1546">
        <ele>234</ele>
        <time>2023-01-30T13:38:58.000Z</time>
      </trkpt>
      <trkpt lat="48.81106" lon="5.15462">
        <ele>234</ele>
        <time>2023-01-30T13:38:59.000Z</time>
      </trkpt>
      <trkpt lat="48.81107" lon="5.15463">
        <ele>234</ele>
        <time>2023-01-30T13:39:00.000Z</time>
      </trkpt>
      <trkpt lat="48.81108" lon="5.15465">
        <ele>234</ele>
        <time>2023-01-30T13:39:01.000Z</time>
      </trkpt>
      <trkpt lat="48.81109" lon="5.15466">
        <ele>234</ele>
        <time>2023-01-30T13:39:02.000Z</time>
      </trkpt>
      <trkpt lat="48.81109" lon="5.15466">
        <ele>234</ele>
        <time>2023-01-30T13:39:03.000Z</time>
      </trkpt>
      <trkpt lat="48.8111" lon="5.15467">
        <ele>234</ele>
        <time>2023-01-30T13:39:04.000Z</time>
      </trkpt>
      <trkpt lat="48.81111" lon="5.15467">
        <ele>234.5</ele>
        <time>2023-01-30T13:39:05.000Z</time>
      </trkpt>
      <trkpt lat="48.81112" lon="5.15467">
        <ele>235</ele>
        <time>2023-01-30T13:39:06.000Z</time>
      </trkpt>
      <trkpt lat="48.81113" lon="5.15466">
        <ele>235</ele>
        <time>2023-01-30T13:39:07.000Z</time>
      </trkpt>
      <trkpt lat="48.81114" lon="5.15465">
        <ele>235</ele>
        <time>2023-01-30T13:39:08.000Z</time>
      </trkpt>
      <trkpt lat="48.81115" lon="5.15464">
        <ele>235</ele>
        <time>2023-01-30T13:39:09.000Z</time>
      </trkpt>
      <trkpt lat="48.81116" lon="5.15462">
        <ele>235</ele>
        <time>2023-01-30T13:39:10.000Z</time>
      </trkpt>
      <trkpt lat="48.81118" lon="5.1546">
        <ele>235</ele>
        <time>2023-01-30T13:39:11.000Z</time>
      </trkpt>
      <trkpt lat="48.81119" lon="5.15457">
        <ele>235</ele>
        <time>2023-01-30T13:39:12.000Z</time>
      </trkpt>
      <trkpt lat="48.81121" lon="5.15454">
        <ele>235</ele>
        <time>2023-01-30T13:39:13.000Z</time>
      </trkpt>
      <trkpt lat="48.81122" lon="5.15452">
        <ele>235</ele>
        <time>2023-01-30T13:39:14.000Z</time>
      </trkpt>
      <trkpt lat="48.81123" lon="5.1545">
        <ele>235</ele>
        <time>2023-01-30T13:39:15.000Z</time>
      </trkpt>
      <trkpt lat="48.81124" lon="5.15448">
        <ele>235</ele>
        <time>2023-01-30T13:39:16.000Z</time>
      </trkpt>
      <trkpt lat="48.81125" lon="5.15446">
        <ele>235</ele>
        <time>2023-01-30T13:39:17.000Z</time>
      </trkpt>
      <trkpt lat="48.81125" lon="5.15445">
        <ele>235</ele>
        <time>2023-01-30T13:39:18.000Z</time>
      </trkpt>
      <trkpt lat="48.81126" lon="5.15443">
        <ele>235</ele>
        <time>2023-01-30T13:39:19.000Z</time>
      </trkpt>
      <trkpt lat="48.81127" lon="5.15441">
        <ele>235</ele>
        <time>2023-01-30T13:39:20.000Z</time>
      </trkpt>
      <trkpt lat="48.81129" lon="5.15439">
        <ele>235</ele>
        <time>2023-01-30T13:39:21.000Z</time>
      </trkpt>
      <trkpt lat="48.8113" lon="5.15437">
        <ele>234</ele>
        <time>2023-01-30T13:39:22.000Z</time>
      </trkpt>
      <trkpt lat="48.81131" lon="5.15435">
        <ele>234</ele>
        <time>2023-01-30T13:39:23.000Z</time>
      </trkpt>
      <trkpt lat="48.81132" lon="5.15433">
        <ele>234</ele>
        <time>2023-01-30T13:39:24.000Z</time>
      </trkpt>
      <trkpt lat="48.81133" lon="5.15431">
        <ele>234</ele>
        <time>2023-01-30T13:39:25.000Z</time>
      </trkpt>
      <trkpt lat="48.81134" lon="5.15429">
        <ele>234</ele>
        <time>2023-01-30T13:39:26.000Z</time>
      </trkpt>
      <trkpt lat="48.81134" lon="5.15427">
        <ele>234</ele>
        <time>2023-01-30T13:39:27.000Z</time>
      </trkpt>
      <trkpt lat="48.81135" lon="5.15426">
        <ele>234</ele>
        <time>2023-01-30T13:39:28.000Z</time>
      </trkpt>
      <trkpt lat="48.81136" lon="5.15424">
        <ele>234</ele>
        <time>2023-01-30T13:39:29.000Z</time>
      </trkpt>
      <trkpt lat="48.81137" lon="5.15422">
        <ele>234</ele>
        <time>2023-01-30T13:39:30.000Z</time>
      </trkpt>
      <trkpt lat="48.81138" lon="5.15421">
        <ele>234</ele>
        <time>2023-01-30T13:39:31.000Z</time>
      </trkpt>
      <trkpt lat="48.8114" lon="5.15419">
        <ele>234</ele>
        <time>2023-01-30T13:39:32.000Z</time>
      </trkpt>
      <trkpt lat="48.81141" lon="5.15418">
        <ele>234</ele>
        <time>2023-01-30T13:39:33.000Z</time>
      </trkpt>
      <trkpt lat="48.81142" lon="5.15416">
        <ele>234</ele>
        <time>2023-01-30T13:39:34.000Z</time>
      </trkpt>
      <trkpt lat="48.81143" lon="5.15415">
        <ele>234</ele>
        <time>2023-01-30T13:39:35.000Z</time>
      </trkpt>
      <trkpt lat="48.81144" lon="5.15413">
        <ele>234</ele>
        <time>2023-01-30T13:39:36.000Z</time>
      </trkpt>
      <trkpt lat="48.81145" lon="5.15411">
        <ele>234</ele>
        <time>2023-01-30T13:39:37.000Z</time>
      </trkpt>
      <trkpt lat="48.81145" lon="5.1541">
        <ele>234</ele>
        <time>2023-01-30T13:39:38.000Z</time>
      </trkpt>
      <trkpt lat="48.81146" lon="5.15409">
        <ele>234</ele>
        <time>2023-01-30T13:39:39.000Z</time>
      </trkpt>
      <trkpt lat="48.81146" lon="5.15408">
        <ele>234</ele>
        <time>2023-01-30T13:39:40.000Z</time>
      </trkpt>
      <trkpt lat="48.81147" lon="5.15407">
        <ele>233.5</ele>
        <time>2023-01-30T13:39:41.000Z</time>
      </trkpt>
      <trkpt lat="48.81147" lon="5.15406">
        <ele>233</ele>
        <time>2023-01-30T13:39:42.000Z</time>
      </trkpt>
      <trkpt lat="48.81148" lon="5.15404">
        <ele>233</ele>
        <time>2023-01-30T13:39:43.000Z</time>
      </trkpt>
      <trkpt lat="48.81148" lon="5.15403">
        <ele>233</ele>
        <time>2023-01-30T13:39:44.000Z</time>
      </trkpt>
      <trkpt lat="48.81149" lon="5.15401">
        <ele>233</ele>
        <time>2023-01-30T13:39:45.000Z</time>
      </trkpt>
      <trkpt lat="48.81149" lon="5.15399">
        <ele>233</ele>
        <time>2023-01-30T13:39:46.000Z</time>
      </trkpt>
      <trkpt lat="48.8115" lon="5.15397">
        <ele>233</ele>
        <time>2023-01-30T13:39:47.000Z</time>
      </trkpt>
      <trkpt lat="48.81151" lon="5.15395">
        <ele>233</ele>
        <time>2023-01-30T13:39:48.000Z</time>
      </trkpt>
      <trkpt lat="48.81152" lon="5.15393">
        <ele>233</ele>
        <time>2023-01-30T13:39:49.000Z</time>
      </trkpt>
      <trkpt lat="48.81153" lon="5.15392">
        <ele>233</ele>
        <time>2023-01-30T13:39:50.000Z</time>
      </trkpt>
      <trkpt lat="48.81154" lon="5.1539">
        <ele>233</ele>
        <time>2023-01-30T13:39:51.000Z</time>
      </trkpt>
      <trkpt lat="48.81155" lon="5.15388">
        <ele>233</ele>
        <time>2023-01-30T13:39:52.000Z</time>
      </trkpt>
      <trkpt lat="48.81156" lon="5.15386">
        <ele>233</ele>
        <time>2023-01-30T13:39:53.000Z</time>
      </trkpt>
      <trkpt lat="48.81157" lon="5.15384">
        <ele>233</ele>
        <time>2023-01-30T13:39:54.000Z</time>
      </trkpt>
      <trkpt lat="48.81157" lon="5.15383">
        <ele>233</ele>
        <time>2023-01-30T13:39:55.000Z</time>
      </trkpt>
      <trkpt lat="48.81158" lon="5.15382">
        <ele>233</ele>
        <time>2023-01-30T13:39:56.000Z</time>
      </trkpt>
      <trkpt lat="48.81158" lon="5.15381">
        <ele>233</ele>
        <time>2023-01-30T13:39:57.000Z</time>
      </trkpt>
      <trkpt lat="48.81158" lon="5.15381">
        <ele>233</ele>
        <time>2023-01-30T13:39:58.000Z</time>
      </trkpt>
      <trkpt lat="48.81158" lon="5.15381">
        <ele>233</ele>
        <time>2023-01-30T13:39:59.000Z</time>
      </trkpt>
      <trkpt lat="48.81158" lon="5.15381">
        <ele>233</ele>
        <time>2023-01-30T13:40:00.000Z</time>
      </trkpt>
      <trkpt lat="48.81158" lon="5.15381">
        <ele>233</ele>
        <time>2023-01-30T13:40:01.000Z</time>
      </trkpt>
      <trkpt lat="48.81158" lon="5.15381">
        <ele>233</ele>
        <time>2023-01-30T13:40:02.000Z</time>
      </trkpt>
      <trkpt lat="48.81158" lon="5.1538">
        <ele>233</ele>
        <time>2023-01-30T13:40:03.000Z</time>
      </trkpt>
      <trkpt lat="48.81159" lon="5.15379">
        <ele>233</ele>
        <time>2023-01-30T13:40:04.000Z</time>
      </trkpt>
      <trkpt lat="48.81159" lon="5.15378">
        <ele>233</ele>
        <time>2023-01-30T13:40:05.000Z</time>
      </trkpt>
      <trkpt lat="48.8116" lon="5.15376">
        <ele>233</ele>
        <time>2023-01-30T13:40:06.000Z</time>
      </trkpt>
      <trkpt lat="48.81161" lon="5.15373">
        <ele>233</ele>
        <time>2023-01-30T13:40:07.000Z</time>
      </trkpt>
      <trkpt lat="48.81161" lon="5.15371">
        <ele>233</ele>
        <time>2023-01-30T13:40:08.000Z</time>
      </trkpt>
      <trkpt lat="48.81162" lon="5.15369">
        <ele>233</ele>
        <time>2023-01-30T13:40:09.000Z</time>
      </trkpt>
      <trkpt lat="48.81162" lon="5.15368">
        <ele>233</ele>
        <time>2023-01-30T13:40:10.000Z</time>
      </trkpt>
      <trkpt lat="48.81163" lon="5.15366">
        <ele>233</ele>
        <time>2023-01-30T13:40:11.000Z</time>
      </trkpt>
      <trkpt lat="48.81164" lon="5.15364">
        <ele>233</ele>
        <time>2023-01-30T13:40:12.000Z</time>
      </trkpt>
      <trkpt lat="48.81164" lon="5.15363">
        <ele>233</ele>
        <time>2023-01-30T13:40:13.000Z</time>
      </trkpt>
      <trkpt lat="48.81165" lon="5.15361">
        <ele>233</ele>
        <time>2023-01-30T13:40:14.000Z</time>
      </trkpt>
      <trkpt lat="48.81166" lon="5.1536">
        <ele>233</ele>
        <time>2023-01-30T13:40:15.000Z</time>
      </trkpt>
      <trkpt lat="48.81167" lon="5.15358">
        <ele>232</ele>
        <time>2023-01-30T13:40:16.000Z</time>
      </trkpt>
      <trkpt lat="48.81167" lon="5.15356">
        <ele>232</ele>
        <time>2023-01-30T13:40:17.000Z</time>
      </trkpt>
      <trkpt lat="48.81167" lon="5.15355">
        <ele>232</ele>
        <time>2023-01-30T13:40:18.000Z</time>
      </trkpt>
      <trkpt lat="48.81168" lon="5.15353">
        <ele>232</ele>
        <time>2023-01-30T13:40:19.000Z</time>
      </trkpt>
      <trkpt lat="48.81169" lon="5.15351">
        <ele>232</ele>
        <time>2023-01-30T13:40:20.000Z</time>
      </trkpt>
      <trkpt lat="48.8117" lon="5.15349">
        <ele>232</ele>
        <time>2023-01-30T13:40:21.000Z</time>
      </trkpt>
      <trkpt lat="48.8117" lon="5.15348">
        <ele>232</ele>
        <time>2023-01-30T13:40:22.000Z</time>
      </trkpt>
      <trkpt lat="48.81171" lon="5.15346">
        <ele>232</ele>
        <time>2023-01-30T13:40:23.000Z</time>
      </trkpt>
      <trkpt lat="48.81172" lon="5.15344">
        <ele>232</ele>
        <time>2023-01-30T13:40:24.000Z</time>
      </trkpt>
      <trkpt lat="48.81172" lon="5.15343">
        <ele>232</ele>
        <time>2023-01-30T13:40:25.000Z</time>
      </trkpt>
      <trkpt lat="48.81173" lon="5.15341">
        <ele>232</ele>
        <time>2023-01-30T13:40:26.000Z</time>
      </trkpt>
      <trkpt lat="48.81173" lon="5.1534">
        <ele>232</ele>
        <time>2023-01-30T13:40:27.000Z</time>
      </trkpt>
      <trkpt lat="48.81174" lon="5.15339">
        <ele>232</ele>
        <time>2023-01-30T13:40:28.000Z</time>
      </trkpt>
      <trkpt lat="48.81174" lon="5.15337">
        <ele>232</ele>
        <time>2023-01-30T13:40:29.000Z</time>
      </trkpt>
      <trkpt lat="48.81175" lon="5.15336">
        <ele>232</ele>
        <time>2023-01-30T13:40:30.000Z</time>
      </trkpt>
      <trkpt lat="48.81175" lon="5.15334">
        <ele>232</ele>
        <time>2023-01-30T13:40:31.000Z</time>
      </trkpt>
      <trkpt lat="48.81176" lon="5.15333">
        <ele>232</ele>
        <time>2023-01-30T13:40:32.000Z</time>
      </trkpt>
      <trkpt lat="48.81176" lon="5.15332">
        <ele>232</ele>
        <time>2023-01-30T13:40:33.000Z</time>
      </trkpt>
      <trkpt lat="48.81177" lon="5.15331">
        <ele>232</ele>
        <time>2023-01-30T13:40:34.000Z</time>
      </trkpt>
      <trkpt lat="48.81178" lon="5.1533">
        <ele>231.7</ele>
        <time>2023-01-30T13:40:35.000Z</time>
      </trkpt>
      <trkpt lat="48.81178" lon="5.15329">
        <ele>231.3</ele>
        <time>2023-01-30T13:40:36.000Z</time>
      </trkpt>
      <trkpt lat="48.81179" lon="5.15327">
        <ele>231</ele>
        <time>2023-01-30T13:40:37.000Z</time>
      </trkpt>
      <trkpt lat="48.8118" lon="5.15324">
        <ele>231</ele>
        <time>2023-01-30T13:40:38.000Z</time>
      </trkpt>
      <trkpt lat="48.81181" lon="5.15322">
        <ele>231</ele>
        <time>2023-01-30T13:40:39.000Z</time>
      </trkpt>
      <trkpt lat="48.81183" lon="5.1532">
        <ele>231</ele>
        <time>2023-01-30T13:40:40.000Z</time>
      </trkpt>
      <trkpt lat="48.81184" lon="5.15318">
        <ele>231</ele>
        <time>2023-01-30T13:40:41.000Z</time>
      </trkpt>
      <trkpt lat="48.81185" lon="5.15316">
        <ele>231</ele>
        <time>2023-01-30T13:40:42.000Z</time>
      </trkpt>
      <trkpt lat="48.81186" lon="5.15315">
        <ele>231</ele>
        <time>2023-01-30T13:40:43.000Z</time>
      </trkpt>
      <trkpt lat="48.81187" lon="5.15313">
        <ele>231</ele>
        <time>2023-01-30T13:40:44.000Z</time>
      </trkpt>
      <trkpt lat="48.81188" lon="5.15312">
        <ele>231</ele>
        <time>2023-01-30T13:40:45.000Z</time>
      </trkpt>
      <trkpt lat="48.81189" lon="5.1531">
        <ele>231</ele>
        <time>2023-01-30T13:40:46.000Z</time>
      </trkpt>
      <trkpt lat="48.8119" lon="5.15309">
        <ele>231</ele>
        <time>2023-01-30T13:40:47.000Z</time>
      </trkpt>
      <trkpt lat="48.81191" lon="5.15307">
        <ele>231</ele>
        <time>2023-01-30T13:40:48.000Z</time>
      </trkpt>
      <trkpt lat="48.81192" lon="5.15306">
        <ele>231</ele>
        <time>2023-01-30T13:40:49.000Z</time>
      </trkpt>
      <trkpt lat="48.81192" lon="5.15304">
        <ele>231</ele>
        <time>2023-01-30T13:40:50.000Z</time>
      </trkpt>
      <trkpt lat="48.81193" lon="5.15302">
        <ele>231</ele>
        <time>2023-01-30T13:40:51.000Z</time>
      </trkpt>
      <trkpt lat="48.81194" lon="5.153">
        <ele>231</ele>
        <time>2023-01-30T13:40:52.000Z</time>
      </trkpt>
      <trkpt lat="48.81195" lon="5.15298">
        <ele>230.7</ele>
        <time>2023-01-30T13:40:53.000Z</time>
      </trkpt>
      <trkpt lat="48.81196" lon="5.15297">
        <ele>230.3</ele>
        <time>2023-01-30T13:40:54.000Z</time>
      </trkpt>
      <trkpt lat="48.81197" lon="5.15295">
        <ele>230</ele>
        <time>2023-01-30T13:40:55.000Z</time>
      </trkpt>
      <trkpt lat="48.81197" lon="5.15292">
        <ele>230</ele>
        <time>2023-01-30T13:40:56.000Z</time>
      </trkpt>
      <trkpt lat="48.81198" lon="5.1529">
        <ele>230</ele>
        <time>2023-01-30T13:40:57.000Z</time>
      </trkpt>
      <trkpt lat="48.81199" lon="5.15288">
        <ele>230</ele>
        <time>2023-01-30T13:40:58.000Z</time>
      </trkpt>
      <trkpt lat="48.812" lon="5.15286">
        <ele>230</ele>
        <time>2023-01-30T13:40:59.000Z</time>
      </trkpt>
      <trkpt lat="48.81201" lon="5.15284">
        <ele>230</ele>
        <time>2023-01-30T13:41:00.000Z</time>
      </trkpt>
      <trkpt lat="48.81201" lon="5.15283">
        <ele>230</ele>
        <time>2023-01-30T13:41:01.000Z</time>
      </trkpt>
      <trkpt lat="48.81202" lon="5.15282">
        <ele>230</ele>
        <time>2023-01-30T13:41:02.000Z</time>
      </trkpt>
      <trkpt lat="48.81203" lon="5.15281">
        <ele>230</ele>
        <time>2023-01-30T13:41:03.000Z</time>
      </trkpt>
      <trkpt lat="48.81204" lon="5.1528">
        <ele>230</ele>
        <time>2023-01-30T13:41:04.000Z</time>
      </trkpt>
      <trkpt lat="48.81204" lon="5.15278">
        <ele>230</ele>
        <time>2023-01-30T13:41:05.000Z</time>
      </trkpt>
      <trkpt lat="48.81205" lon="5.15277">
        <ele>230</ele>
        <time>2023-01-30T13:41:06.000Z</time>
      </trkpt>
      <trkpt lat="48.81206" lon="5.15275">
        <ele>230</ele>
        <time>2023-01-30T13:41:07.000Z</time>
      </trkpt>
      <trkpt lat="48.81207" lon="5.15274">
        <ele>230</ele>
        <time>2023-01-30T13:41:08.000Z</time>
      </trkpt>
      <trkpt lat="48.81208" lon="5.15272">
        <ele>230</ele>
        <time>2023-01-30T13:41:09.000Z</time>
      </trkpt>
      <trkpt lat="48.81208" lon="5.15271">
        <ele>230</ele>
        <time>2023-01-30T13:41:10.000Z</time>
      </trkpt>
      <trkpt lat="48.81209" lon="5.1527">
        <ele>230</ele>
        <time>2023-01-30T13:41:11.000Z</time>
      </trkpt>
      <trkpt lat="48.8121" lon="5.15268">
        <ele>230</ele>
        <time>2023-01-30T13:41:12.000Z</time>
      </trkpt>
      <trkpt lat="48.81211" lon="5.15267">
        <ele>230</ele>
        <time>2023-01-30T13:41:13.000Z</time>
      </trkpt>
      <trkpt lat="48.81212" lon="5.15265">
        <ele>230</ele>
        <time>2023-01-30T13:41:14.000Z</time>
      </trkpt>
      <trkpt lat="48.81213" lon="5.15264">
        <ele>230</ele>
        <time>2023-01-30T13:41:15.000Z</time>
      </trkpt>
      <trkpt lat="48.81214" lon="5.15262">
        <ele>230</ele>
        <time>2023-01-30T13:41:16.000Z</time>
      </trkpt>
      <trkpt lat="48.81215" lon="5.1526">
        <ele>229.7</ele>
        <time>2023-01-30T13:41:17.000Z</time>
      </trkpt>
      <trkpt lat="48.81215" lon="5.15259">
        <ele>229.3</ele>
        <time>2023-01-30T13:41:18.000Z</time>
      </trkpt>
      <trkpt lat="48.81216" lon="5.15258">
        <ele>229</ele>
        <time>2023-01-30T13:41:19.000Z</time>
      </trkpt>
      <trkpt lat="48.81216" lon="5.15257">
        <ele>229</ele>
        <time>2023-01-30T13:41:20.000Z</time>
      </trkpt>
      <trkpt lat="48.81217" lon="5.15255">
        <ele>229</ele>
        <time>2023-01-30T13:41:21.000Z</time>
      </trkpt>
      <trkpt lat="48.81218" lon="5.15253">
        <ele>229</ele>
        <time>2023-01-30T13:41:22.000Z</time>
      </trkpt>
      <trkpt lat="48.8122" lon="5.1525">
        <ele>229</ele>
        <time>2023-01-30T13:41:23.000Z</time>
      </trkpt>
      <trkpt lat="48.81221" lon="5.15248">
        <ele>229</ele>
        <time>2023-01-30T13:41:24.000Z</time>
      </trkpt>
      <trkpt lat="48.81223" lon="5.15246">
        <ele>228.7</ele>
        <time>2023-01-30T13:41:25.000Z</time>
      </trkpt>
      <trkpt lat="48.81224" lon="5.15244">
        <ele>228.3</ele>
        <time>2023-01-30T13:41:26.000Z</time>
      </trkpt>
      <trkpt lat="48.81226" lon="5.15242">
        <ele>228</ele>
        <time>2023-01-30T13:41:27.000Z</time>
      </trkpt>
      <trkpt lat="48.81227" lon="5.1524">
        <ele>228</ele>
        <time>2023-01-30T13:41:28.000Z</time>
      </trkpt>
      <trkpt lat="48.81228" lon="5.15238">
        <ele>228</ele>
        <time>2023-01-30T13:41:29.000Z</time>
      </trkpt>
      <trkpt lat="48.81229" lon="5.15235">
        <ele>228</ele>
        <time>2023-01-30T13:41:30.000Z</time>
      </trkpt>
      <trkpt lat="48.81231" lon="5.15232">
        <ele>228</ele>
        <time>2023-01-30T13:41:31.000Z</time>
      </trkpt>
      <trkpt lat="48.81232" lon="5.1523">
        <ele>228</ele>
        <time>2023-01-30T13:41:32.000Z</time>
      </trkpt>
      <trkpt lat="48.81232" lon="5.15228">
        <ele>228</ele>
        <time>2023-01-30T13:41:33.000Z</time>
      </trkpt>
      <trkpt lat="48.81233" lon="5.15226">
        <ele>227</ele>
        <time>2023-01-30T13:41:34.000Z</time>
      </trkpt>
      <trkpt lat="48.81233" lon="5.15225">
        <ele>227</ele>
        <time>2023-01-30T13:41:35.000Z</time>
      </trkpt>
      <trkpt lat="48.81234" lon="5.15223">
        <ele>227</ele>
        <time>2023-01-30T13:41:36.000Z</time>
      </trkpt>
      <trkpt lat="48.81234" lon="5.15221">
        <ele>227</ele>
        <time>2023-01-30T13:41:37.000Z</time>
      </trkpt>
      <trkpt lat="48.81235" lon="5.15219">
        <ele>227</ele>
        <time>2023-01-30T13:41:38.000Z</time>
      </trkpt>
      <trkpt lat="48.81235" lon="5.15217">
        <ele>227</ele>
        <time>2023-01-30T13:41:39.000Z</time>
      </trkpt>
      <trkpt lat="48.81236" lon="5.15215">
        <ele>227</ele>
        <time>2023-01-30T13:41:40.000Z</time>
      </trkpt>
      <trkpt lat="48.81237" lon="5.15214">
        <ele>227</ele>
        <time>2023-01-30T13:41:41.000Z</time>
      </trkpt>
      <trkpt lat="48.81237" lon="5.15212">
        <ele>227</ele>
        <time>2023-01-30T13:41:42.000Z</time>
      </trkpt>
      <trkpt lat="48.81238" lon="5.15211">
        <ele>226.7</ele>
        <time>2023-01-30T13:41:43.000Z</time>
      </trkpt>
      <trkpt lat="48.81239" lon="5.15209">
        <ele>226.3</ele>
        <time>2023-01-30T13:41:44.000Z</time>
      </trkpt>
      <trkpt lat="48.81239" lon="5.15208">
        <ele>226</ele>
        <time>2023-01-30T13:41:45.000Z</time>
      </trkpt>
      <trkpt lat="48.8124" lon="5.15207">
        <ele>226</ele>
        <time>2023-01-30T13:41:46.000Z</time>
      </trkpt>
      <trkpt lat="48.81241" lon="5.15206">
        <ele>226</ele>
        <time>2023-01-30T13:41:47.000Z</time>
      </trkpt>
      <trkpt lat="48.81241" lon="5.15205">
        <ele>226</ele>
        <time>2023-01-30T13:41:48.000Z</time>
      </trkpt>
      <trkpt lat="48.81241" lon="5.15203">
        <ele>226</ele>
        <time>2023-01-30T13:41:49.000Z</time>
      </trkpt>
      <trkpt lat="48.81242" lon="5.15202">
        <ele>226</ele>
        <time>2023-01-30T13:41:50.000Z</time>
      </trkpt>
      <trkpt lat="48.81242" lon="5.152">
        <ele>226</ele>
        <time>2023-01-30T13:41:51.000Z</time>
      </trkpt>
      <trkpt lat="48.81243" lon="5.15198">
        <ele>226</ele>
        <time>2023-01-30T13:41:52.000Z</time>
      </trkpt>
      <trkpt lat="48.81243" lon="5.15196">
        <ele>225.7</ele>
        <time>2023-01-30T13:41:53.000Z</time>
      </trkpt>
      <trkpt lat="48.81244" lon="5.15195">
        <ele>225.3</ele>
        <time>2023-01-30T13:41:54.000Z</time>
      </trkpt>
      <trkpt lat="48.81245" lon="5.15193">
        <ele>225</ele>
        <time>2023-01-30T13:41:55.000Z</time>
      </trkpt>
      <trkpt lat="48.81246" lon="5.15191">
        <ele>225</ele>
        <time>2023-01-30T13:41:56.000Z</time>
      </trkpt>
      <trkpt lat="48.81247" lon="5.15189">
        <ele>225</ele>
        <time>2023-01-30T13:41:57.000Z</time>
      </trkpt>
      <trkpt lat="48.81248" lon="5.15187">
        <ele>225</ele>
        <time>2023-01-30T13:41:58.000Z</time>
      </trkpt>
      <trkpt lat="48.81249" lon="5.15186">
        <ele>225</ele>
        <time>2023-01-30T13:41:59.000Z</time>
      </trkpt>
      <trkpt lat="48.8125" lon="5.15183">
        <ele>225</ele>
        <time>2023-01-30T13:42:00.000Z</time>
      </trkpt>
      <trkpt lat="48.81251" lon="5.15181">
        <ele>224.5</ele>
        <time>2023-01-30T13:42:01.000Z</time>
      </trkpt>
      <trkpt lat="48.81251" lon="5.15179">
        <ele>224</ele>
        <time>2023-01-30T13:42:02.000Z</time>
      </trkpt>
      <trkpt lat="48.81252" lon="5.15177">
        <ele>224</ele>
        <time>2023-01-30T13:42:03.000Z</time>
      </trkpt>
      <trkpt lat="48.81253" lon="5.15176">
        <ele>224</ele>
        <time>2023-01-30T13:42:04.000Z</time>
      </trkpt>
      <trkpt lat="48.81254" lon="5.15174">
        <ele>224</ele>
        <time>2023-01-30T13:42:05.000Z</time>
      </trkpt>
      <trkpt lat="48.81255" lon="5.1517">
        <ele>224</ele>
        <time>2023-01-30T13:42:06.000Z</time>
      </trkpt>
      <trkpt lat="48.81255" lon="5.15167">
        <ele>223.7</ele>
        <time>2023-01-30T13:42:07.000Z</time>
      </trkpt>
      <trkpt lat="48.81256" lon="5.15163">
        <ele>223.3</ele>
        <time>2023-01-30T13:42:08.000Z</time>
      </trkpt>
      <trkpt lat="48.81258" lon="5.1516">
        <ele>223</ele>
        <time>2023-01-30T13:42:09.000Z</time>
      </trkpt>
      <trkpt lat="48.81259" lon="5.15158">
        <ele>223</ele>
        <time>2023-01-30T13:42:10.000Z</time>
      </trkpt>
      <trkpt lat="48.81261" lon="5.15155">
        <ele>223</ele>
        <time>2023-01-30T13:42:11.000Z</time>
      </trkpt>
      <trkpt lat="48.81262" lon="5.15151">
        <ele>223</ele>
        <time>2023-01-30T13:42:12.000Z</time>
      </trkpt>
      <trkpt lat="48.81263" lon="5.15147">
        <ele>223</ele>
        <time>2023-01-30T13:42:13.000Z</time>
      </trkpt>
      <trkpt lat="48.81263" lon="5.15143">
        <ele>223</ele>
        <time>2023-01-30T13:42:14.000Z</time>
      </trkpt>
      <trkpt lat="48.81263" lon="5.15138">
        <ele>222.5</ele>
        <time>2023-01-30T13:42:15.000Z</time>
      </trkpt>
      <trkpt lat="48.81264" lon="5.15134">
        <ele>222</ele>
        <time>2023-01-30T13:42:16.000Z</time>
      </trkpt>
      <trkpt lat="48.81265" lon="5.15131">
        <ele>222</ele>
        <time>2023-01-30T13:42:17.000Z</time>
      </trkpt>
      <trkpt lat="48.81267" lon="5.15129">
        <ele>222</ele>
        <time>2023-01-30T13:42:18.000Z</time>
      </trkpt>
      <trkpt lat="48.81268" lon="5.15127">
        <ele>222</ele>
        <time>2023-01-30T13:42:19.000Z</time>
      </trkpt>
      <trkpt lat="48.81269" lon="5.15125">
        <ele>222</ele>
        <time>2023-01-30T13:42:20.000Z</time>
      </trkpt>
      <trkpt lat="48.8127" lon="5.15123">
        <ele>222</ele>
        <time>2023-01-30T13:42:21.000Z</time>
      </trkpt>
      <trkpt lat="48.8127" lon="5.15121">
        <ele>222</ele>
        <time>2023-01-30T13:42:22.000Z</time>
      </trkpt>
      <trkpt lat="48.81271" lon="5.15119">
        <ele>222</ele>
        <time>2023-01-30T13:42:23.000Z</time>
      </trkpt>
      <trkpt lat="48.81272" lon="5.15118">
        <ele>222</ele>
        <time>2023-01-30T13:42:24.000Z</time>
      </trkpt>
      <trkpt lat="48.81272" lon="5.15116">
        <ele>221.7</ele>
        <time>2023-01-30T13:42:25.000Z</time>
      </trkpt>
      <trkpt lat="48.81273" lon="5.15114">
        <ele>221.3</ele>
        <time>2023-01-30T13:42:26.000Z</time>
      </trkpt>
      <trkpt lat="48.81273" lon="5.15112">
        <ele>221</ele>
        <time>2023-01-30T13:42:27.000Z</time>
      </trkpt>
      <trkpt lat="48.81274" lon="5.15111">
        <ele>221</ele>
        <time>2023-01-30T13:42:28.000Z</time>
      </trkpt>
      <trkpt lat="48.81275" lon="5.15109">
        <ele>221</ele>
        <time>2023-01-30T13:42:29.000Z</time>
      </trkpt>
      <trkpt lat="48.81275" lon="5.15108">
        <ele>221</ele>
        <time>2023-01-30T13:42:30.000Z</time>
      </trkpt>
      <trkpt lat="48.81276" lon="5.15107">
        <ele>221</ele>
        <time>2023-01-30T13:42:31.000Z</time>
      </trkpt>
      <trkpt lat="48.81276" lon="5.15106">
        <ele>220</ele>
        <time>2023-01-30T13:42:32.000Z</time>
      </trkpt>
      <trkpt lat="48.81277" lon="5.15105">
        <ele>220</ele>
        <time>2023-01-30T13:42:33.000Z</time>
      </trkpt>
      <trkpt lat="48.81277" lon="5.15104">
        <ele>220</ele>
        <time>2023-01-30T13:42:34.000Z</time>
      </trkpt>
      <trkpt lat="48.81278" lon="5.15103">
        <ele>220</ele>
        <time>2023-01-30T13:42:35.000Z</time>
      </trkpt>
      <trkpt lat="48.81278" lon="5.15102">
        <ele>220</ele>
        <time>2023-01-30T13:42:36.000Z</time>
      </trkpt>
      <trkpt lat="48.81279" lon="5.151">
        <ele>220</ele>
        <time>2023-01-30T13:42:37.000Z</time>
      </trkpt>
      <trkpt lat="48.8128" lon="5.15097">
        <ele>220</ele>
        <time>2023-01-30T13:42:38.000Z</time>
      </trkpt>
      <trkpt lat="48.81281" lon="5.15095">
        <ele>220</ele>
        <time>2023-01-30T13:42:39.000Z</time>
      </trkpt>
      <trkpt lat="48.81282" lon="5.15094">
        <ele>220</ele>
        <time>2023-01-30T13:42:40.000Z</time>
      </trkpt>
      <trkpt lat="48.81282" lon="5.15093">
        <ele>220</ele>
        <time>2023-01-30T13:42:41.000Z</time>
      </trkpt>
      <trkpt lat="48.81283" lon="5.15092">
        <ele>219.5</ele>
        <time>2023-01-30T13:42:42.000Z</time>
      </trkpt>
      <trkpt lat="48.81283" lon="5.1509">
        <ele>219</ele>
        <time>2023-01-30T13:42:43.000Z</time>
      </trkpt>
      <trkpt lat="48.81284" lon="5.15089">
        <ele>219</ele>
        <time>2023-01-30T13:42:44.000Z</time>
      </trkpt>
      <trkpt lat="48.81284" lon="5.15087">
        <ele>219</ele>
        <time>2023-01-30T13:42:45.000Z</time>
      </trkpt>
      <trkpt lat="48.81285" lon="5.15086">
        <ele>219</ele>
        <time>2023-01-30T13:42:46.000Z</time>
      </trkpt>
      <trkpt lat="48.81286" lon="5.15084">
        <ele>219</ele>
        <time>2023-01-30T13:42:47.000Z</time>
      </trkpt>
      <trkpt lat="48.81286" lon="5.15083">
        <ele>219</ele>
        <time>2023-01-30T13:42:48.000Z</time>
      </trkpt>
      <trkpt lat="48.81287" lon="5.15081">
        <ele>219</ele>
        <time>2023-01-30T13:42:49.000Z</time>
      </trkpt>
      <trkpt lat="48.81288" lon="5.15079">
        <ele>219</ele>
        <time>2023-01-30T13:42:50.000Z</time>
      </trkpt>
      <trkpt lat="48.81289" lon="5.15078">
        <ele>218.7</ele>
        <time>2023-01-30T13:42:51.000Z</time>
      </trkpt>
      <trkpt lat="48.81291" lon="5.15077">
        <ele>218.3</ele>
        <time>2023-01-30T13:42:52.000Z</time>
      </trkpt>
      <trkpt lat="48.81292" lon="5.15076">
        <ele>218</ele>
        <time>2023-01-30T13:42:53.000Z</time>
      </trkpt>
      <trkpt lat="48.81293" lon="5.15074">
        <ele>218</ele>
        <time>2023-01-30T13:42:54.000Z</time>
      </trkpt>
      <trkpt lat="48.81294" lon="5.15072">
        <ele>218</ele>
        <time>2023-01-30T13:42:55.000Z</time>
      </trkpt>
      <trkpt lat="48.81295" lon="5.1507">
        <ele>218</ele>
        <time>2023-01-30T13:42:56.000Z</time>
      </trkpt>
      <trkpt lat="48.81296" lon="5.15069">
        <ele>217.7</ele>
        <time>2023-01-30T13:42:57.000Z</time>
      </trkpt>
      <trkpt lat="48.81296" lon="5.15067">
        <ele>217.3</ele>
        <time>2023-01-30T13:42:58.000Z</time>
      </trkpt>
      <trkpt lat="48.81297" lon="5.15065">
        <ele>217</ele>
        <time>2023-01-30T13:42:59.000Z</time>
      </trkpt>
      <trkpt lat="48.81299" lon="5.15063">
        <ele>217</ele>
        <time>2023-01-30T13:43:00.000Z</time>
      </trkpt>
      <trkpt lat="48.813" lon="5.1506">
        <ele>217</ele>
        <time>2023-01-30T13:43:01.000Z</time>
      </trkpt>
      <trkpt lat="48.81301" lon="5.15058">
        <ele>217</ele>
        <time>2023-01-30T13:43:02.000Z</time>
      </trkpt>
      <trkpt lat="48.81302" lon="5.15057">
        <ele>216.7</ele>
        <time>2023-01-30T13:43:03.000Z</time>
      </trkpt>
      <trkpt lat="48.81303" lon="5.15056">
        <ele>216.3</ele>
        <time>2023-01-30T13:43:04.000Z</time>
      </trkpt>
      <trkpt lat="48.81304" lon="5.15054">
        <ele>216</ele>
        <time>2023-01-30T13:43:05.000Z</time>
      </trkpt>
      <trkpt lat="48.81305" lon="5.15052">
        <ele>216</ele>
        <time>2023-01-30T13:43:06.000Z</time>
      </trkpt>
      <trkpt lat="48.81305" lon="5.1505">
        <ele>216</ele>
        <time>2023-01-30T13:43:07.000Z</time>
      </trkpt>
      <trkpt lat="48.81306" lon="5.15047">
        <ele>216</ele>
        <time>2023-01-30T13:43:08.000Z</time>
      </trkpt>
      <trkpt lat="48.81307" lon="5.15045">
        <ele>216</ele>
        <time>2023-01-30T13:43:09.000Z</time>
      </trkpt>
      <trkpt lat="48.81308" lon="5.15042">
        <ele>216</ele>
        <time>2023-01-30T13:43:10.000Z</time>
      </trkpt>
      <trkpt lat="48.81308" lon="5.1504">
        <ele>216</ele>
        <time>2023-01-30T13:43:11.000Z</time>
      </trkpt>
      <trkpt lat="48.81309" lon="5.15038">
        <ele>215</ele>
        <time>2023-01-30T13:43:12.000Z</time>
      </trkpt>
      <trkpt lat="48.8131" lon="5.15036">
        <ele>215</ele>
        <time>2023-01-30T13:43:13.000Z</time>
      </trkpt>
      <trkpt lat="48.81311" lon="5.15035">
        <ele>215</ele>
        <time>2023-01-30T13:43:14.000Z</time>
      </trkpt>
      <trkpt lat="48.81312" lon="5.15034">
        <ele>215</ele>
        <time>2023-01-30T13:43:15.000Z</time>
      </trkpt>
      <trkpt lat="48.81313" lon="5.15034">
        <ele>215</ele>
        <time>2023-01-30T13:43:16.000Z</time>
      </trkpt>
      <trkpt lat="48.81314" lon="5.15033">
        <ele>215</ele>
        <time>2023-01-30T13:43:17.000Z</time>
      </trkpt>
      <trkpt lat="48.81315" lon="5.15032">
        <ele>215</ele>
        <time>2023-01-30T13:43:18.000Z</time>
      </trkpt>
      <trkpt lat="48.81316" lon="5.1503">
        <ele>214.5</ele>
        <time>2023-01-30T13:43:19.000Z</time>
      </trkpt>
      <trkpt lat="48.81317" lon="5.15028">
        <ele>214</ele>
        <time>2023-01-30T13:43:20.000Z</time>
      </trkpt>
      <trkpt lat="48.81317" lon="5.15026">
        <ele>214</ele>
        <time>2023-01-30T13:43:21.000Z</time>
      </trkpt>
      <trkpt lat="48.81318" lon="5.15024">
        <ele>214</ele>
        <time>2023-01-30T13:43:22.000Z</time>
      </trkpt>
      <trkpt lat="48.81319" lon="5.15022">
        <ele>214</ele>
        <time>2023-01-30T13:43:23.000Z</time>
      </trkpt>
      <trkpt lat="48.8132" lon="5.15019">
        <ele>214</ele>
        <time>2023-01-30T13:43:24.000Z</time>
      </trkpt>
      <trkpt lat="48.81321" lon="5.15017">
        <ele>214</ele>
        <time>2023-01-30T13:43:25.000Z</time>
      </trkpt>
      <trkpt lat="48.81322" lon="5.15014">
        <ele>214</ele>
        <time>2023-01-30T13:43:26.000Z</time>
      </trkpt>
      <trkpt lat="48.81323" lon="5.15011">
        <ele>213.7</ele>
        <time>2023-01-30T13:43:27.000Z</time>
      </trkpt>
      <trkpt lat="48.81324" lon="5.15008">
        <ele>213.3</ele>
        <time>2023-01-30T13:43:28.000Z</time>
      </trkpt>
      <trkpt lat="48.81325" lon="5.15006">
        <ele>213</ele>
        <time>2023-01-30T13:43:29.000Z</time>
      </trkpt>
      <trkpt lat="48.81325" lon="5.15002">
        <ele>213</ele>
        <time>2023-01-30T13:43:30.000Z</time>
      </trkpt>
      <trkpt lat="48.81326" lon="5.14999">
        <ele>213</ele>
        <time>2023-01-30T13:43:31.000Z</time>
      </trkpt>
      <trkpt lat="48.81327" lon="5.14998">
        <ele>213</ele>
        <time>2023-01-30T13:43:32.000Z</time>
      </trkpt>
      <trkpt lat="48.81328" lon="5.14996">
        <ele>213</ele>
        <time>2023-01-30T13:43:33.000Z</time>
      </trkpt>
      <trkpt lat="48.81329" lon="5.14993">
        <ele>213</ele>
        <time>2023-01-30T13:43:34.000Z</time>
      </trkpt>
      <trkpt lat="48.8133" lon="5.14991">
        <ele>213</ele>
        <time>2023-01-30T13:43:35.000Z</time>
      </trkpt>
      <trkpt lat="48.81331" lon="5.14988">
        <ele>212</ele>
        <time>2023-01-30T13:43:36.000Z</time>
      </trkpt>
      <trkpt lat="48.81331" lon="5.14986">
        <ele>212</ele>
        <time>2023-01-30T13:43:37.000Z</time>
      </trkpt>
      <trkpt lat="48.81332" lon="5.14984">
        <ele>212</ele>
        <time>2023-01-30T13:43:38.000Z</time>
      </trkpt>
      <trkpt lat="48.81333" lon="5.14983">
        <ele>212</ele>
        <time>2023-01-30T13:43:39.000Z</time>
      </trkpt>
      <trkpt lat="48.81333" lon="5.14982">
        <ele>212</ele>
        <time>2023-01-30T13:43:40.000Z</time>
      </trkpt>
      <trkpt lat="48.81334" lon="5.14981">
        <ele>212</ele>
        <time>2023-01-30T13:43:41.000Z</time>
      </trkpt>
      <trkpt lat="48.81334" lon="5.1498">
        <ele>212</ele>
        <time>2023-01-30T13:43:42.000Z</time>
      </trkpt>
      <trkpt lat="48.81335" lon="5.1498">
        <ele>212</ele>
        <time>2023-01-30T13:43:43.000Z</time>
      </trkpt>
      <trkpt lat="48.81336" lon="5.14979">
        <ele>211.5</ele>
        <time>2023-01-30T13:43:44.000Z</time>
      </trkpt>
      <trkpt lat="48.81336" lon="5.14979">
        <ele>211</ele>
        <time>2023-01-30T13:43:45.000Z</time>
      </trkpt>
      <trkpt lat="48.81337" lon="5.14978">
        <ele>211</ele>
        <time>2023-01-30T13:43:46.000Z</time>
      </trkpt>
      <trkpt lat="48.81338" lon="5.14978">
        <ele>211</ele>
        <time>2023-01-30T13:43:47.000Z</time>
      </trkpt>
      <trkpt lat="48.81338" lon="5.14979">
        <ele>211</ele>
        <time>2023-01-30T13:43:48.000Z</time>
      </trkpt>
      <trkpt lat="48.81339" lon="5.1498">
        <ele>211</ele>
        <time>2023-01-30T13:43:49.000Z</time>
      </trkpt>
      <trkpt lat="48.81341" lon="5.14982">
        <ele>211</ele>
        <time>2023-01-30T13:43:50.000Z</time>
      </trkpt>
      <trkpt lat="48.81343" lon="5.14983">
        <ele>211</ele>
        <time>2023-01-30T13:43:51.000Z</time>
      </trkpt>
      <trkpt lat="48.81344" lon="5.14984">
        <ele>211</ele>
        <time>2023-01-30T13:43:52.000Z</time>
      </trkpt>
      <trkpt lat="48.81346" lon="5.14984">
        <ele>211</ele>
        <time>2023-01-30T13:43:53.000Z</time>
      </trkpt>
      <trkpt lat="48.81347" lon="5.14985">
        <ele>211</ele>
        <time>2023-01-30T13:43:54.000Z</time>
      </trkpt>
      <trkpt lat="48.81348" lon="5.14986">
        <ele>211</ele>
        <time>2023-01-30T13:43:55.000Z</time>
      </trkpt>
      <trkpt lat="48.8135" lon="5.14987">
        <ele>211</ele>
        <time>2023-01-30T13:43:56.000Z</time>
      </trkpt>
      <trkpt lat="48.81351" lon="5.14987">
        <ele>211</ele>
        <time>2023-01-30T13:43:57.000Z</time>
      </trkpt>
      <trkpt lat="48.81352" lon="5.14988">
        <ele>211</ele>
        <time>2023-01-30T13:43:58.000Z</time>
      </trkpt>
      <trkpt lat="48.81353" lon="5.14989">
        <ele>211</ele>
        <time>2023-01-30T13:43:59.000Z</time>
      </trkpt>
      <trkpt lat="48.81353" lon="5.14989">
        <ele>211</ele>
        <time>2023-01-30T13:44:00.000Z</time>
      </trkpt>
      <trkpt lat="48.81354" lon="5.1499">
        <ele>211</ele>
        <time>2023-01-30T13:44:01.000Z</time>
      </trkpt>
      <trkpt lat="48.81355" lon="5.1499">
        <ele>211</ele>
        <time>2023-01-30T13:44:02.000Z</time>
      </trkpt>
      <trkpt lat="48.81357" lon="5.14991">
        <ele>211.3</ele>
        <time>2023-01-30T13:44:03.000Z</time>
      </trkpt>
      <trkpt lat="48.81358" lon="5.14992">
        <ele>211.7</ele>
        <time>2023-01-30T13:44:04.000Z</time>
      </trkpt>
      <trkpt lat="48.8136" lon="5.14994">
        <ele>212</ele>
        <time>2023-01-30T13:44:05.000Z</time>
      </trkpt>
      <trkpt lat="48.81361" lon="5.14994">
        <ele>211</ele>
        <time>2023-01-30T13:44:06.000Z</time>
      </trkpt>
      <trkpt lat="48.81361" lon="5.14996">
        <ele>211</ele>
        <time>2023-01-30T13:44:07.000Z</time>
      </trkpt>
      <trkpt lat="48.81362" lon="5.14997">
        <ele>211</ele>
        <time>2023-01-30T13:44:08.000Z</time>
      </trkpt>
      <trkpt lat="48.81363" lon="5.14998">
        <ele>211</ele>
        <time>2023-01-30T13:44:09.000Z</time>
      </trkpt>
      <trkpt lat="48.81364" lon="5.14998">
        <ele>212</ele>
        <time>2023-01-30T13:44:10.000Z</time>
      </trkpt>
      <trkpt lat="48.81365" lon="5.14999">
        <ele>212</ele>
        <time>2023-01-30T13:44:11.000Z</time>
      </trkpt>
      <trkpt lat="48.81365" lon="5.15">
        <ele>212</ele>
        <time>2023-01-30T13:44:12.000Z</time>
      </trkpt>
      <trkpt lat="48.81365" lon="5.15">
        <ele>212</ele>
        <time>2023-01-30T13:44:13.000Z</time>
      </trkpt>
      <trkpt lat="48.81366" lon="5.15001">
        <ele>212</ele>
        <time>2023-01-30T13:44:14.000Z</time>
      </trkpt>
      <trkpt lat="48.81367" lon="5.15002">
        <ele>212</ele>
        <time>2023-01-30T13:44:15.000Z</time>
      </trkpt>
      <trkpt lat="48.8137" lon="5.15005">
        <ele>212</ele>
        <time>2023-01-30T13:44:16.000Z</time>
      </trkpt>
      <trkpt lat="48.81372" lon="5.15006">
        <ele>211.7</ele>
        <time>2023-01-30T13:44:17.000Z</time>
      </trkpt>
      <trkpt lat="48.81374" lon="5.15007">
        <ele>211.3</ele>
        <time>2023-01-30T13:44:18.000Z</time>
      </trkpt>
      <trkpt lat="48.81375" lon="5.15008">
        <ele>211</ele>
        <time>2023-01-30T13:44:19.000Z</time>
      </trkpt>
      <trkpt lat="48.81376" lon="5.15009">
        <ele>212</ele>
        <time>2023-01-30T13:44:20.000Z</time>
      </trkpt>
      <trkpt lat="48.81377" lon="5.1501">
        <ele>212</ele>
        <time>2023-01-30T13:44:21.000Z</time>
      </trkpt>
      <trkpt lat="48.81378" lon="5.15011">
        <ele>212</ele>
        <time>2023-01-30T13:44:22.000Z</time>
      </trkpt>
      <trkpt lat="48.8138" lon="5.15013">
        <ele>212</ele>
        <time>2023-01-30T13:44:23.000Z</time>
      </trkpt>
      <trkpt lat="48.81381" lon="5.15014">
        <ele>211</ele>
        <time>2023-01-30T13:44:24.000Z</time>
      </trkpt>
      <trkpt lat="48.81383" lon="5.15016">
        <ele>211.3</ele>
        <time>2023-01-30T13:44:25.000Z</time>
      </trkpt>
      <trkpt lat="48.81384" lon="5.15017">
        <ele>211.7</ele>
        <time>2023-01-30T13:44:26.000Z</time>
      </trkpt>
      <trkpt lat="48.81385" lon="5.15018">
        <ele>212</ele>
        <time>2023-01-30T13:44:27.000Z</time>
      </trkpt>
      <trkpt lat="48.81386" lon="5.15019">
        <ele>211</ele>
        <time>2023-01-30T13:44:28.000Z</time>
      </trkpt>
      <trkpt lat="48.81387" lon="5.15021">
        <ele>211</ele>
        <time>2023-01-30T13:44:29.000Z</time>
      </trkpt>
      <trkpt lat="48.81389" lon="5.15022">
        <ele>211</ele>
        <time>2023-01-30T13:44:30.000Z</time>
      </trkpt>
      <trkpt lat="48.8139" lon="5.15023">
        <ele>211</ele>
        <time>2023-01-30T13:44:31.000Z</time>
      </trkpt>
      <trkpt lat="48.81391" lon="5.15025">
        <ele>211</ele>
        <time>2023-01-30T13:44:32.000Z</time>
      </trkpt>
      <trkpt lat="48.81392" lon="5.15026">
        <ele>211</ele>
        <time>2023-01-30T13:44:33.000Z</time>
      </trkpt>
      <trkpt lat="48.81393" lon="5.15028">
        <ele>211</ele>
        <time>2023-01-30T13:44:34.000Z</time>
      </trkpt>
      <trkpt lat="48.81394" lon="5.15029">
        <ele>211</ele>
        <time>2023-01-30T13:44:35.000Z</time>
      </trkpt>
      <trkpt lat="48.81394" lon="5.15031">
        <ele>211</ele>
        <time>2023-01-30T13:44:36.000Z</time>
      </trkpt>
      <trkpt lat="48.81395" lon="5.15033">
        <ele>211</ele>
        <time>2023-01-30T13:44:37.000Z</time>
      </trkpt>
      <trkpt lat="48.81396" lon="5.15034">
        <ele>211</ele>
        <time>2023-01-30T13:44:38.000Z</time>
      </trkpt>
      <trkpt lat="48.81397" lon="5.15036">
        <ele>211</ele>
        <time>2023-01-30T13:44:39.000Z</time>
      </trkpt>
      <trkpt lat="48.81398" lon="5.15038">
        <ele>211</ele>
        <time>2023-01-30T13:44:40.000Z</time>
      </trkpt>
      <trkpt lat="48.814" lon="5.15039">
        <ele>211</ele>
        <time>2023-01-30T13:44:41.000Z</time>
      </trkpt>
      <trkpt lat="48.81401" lon="5.15041">
        <ele>211</ele>
        <time>2023-01-30T13:44:42.000Z</time>
      </trkpt>
      <trkpt lat="48.81402" lon="5.15043">
        <ele>211</ele>
        <time>2023-01-30T13:44:43.000Z</time>
      </trkpt>
      <trkpt lat="48.81403" lon="5.15044">
        <ele>211</ele>
        <time>2023-01-30T13:44:44.000Z</time>
      </trkpt>
      <trkpt lat="48.81404" lon="5.15045">
        <ele>211</ele>
        <time>2023-01-30T13:44:45.000Z</time>
      </trkpt>
      <trkpt lat="48.81404" lon="5.15046">
        <ele>211</ele>
        <time>2023-01-30T13:44:46.000Z</time>
      </trkpt>
      <trkpt lat="48.81405" lon="5.15047">
        <ele>211</ele>
        <time>2023-01-30T13:44:47.000Z</time>
      </trkpt>
      <trkpt lat="48.81406" lon="5.15049">
        <ele>211</ele>
        <time>2023-01-30T13:44:48.000Z</time>
      </trkpt>
      <trkpt lat="48.81407" lon="5.1505">
        <ele>211</ele>
        <time>2023-01-30T13:44:49.000Z</time>
      </trkpt>
      <trkpt lat="48.81408" lon="5.15051">
        <ele>211</ele>
        <time>2023-01-30T13:44:50.000Z</time>
      </trkpt>
      <trkpt lat="48.81409" lon="5.15052">
        <ele>211</ele>
        <time>2023-01-30T13:44:51.000Z</time>
      </trkpt>
      <trkpt lat="48.81409" lon="5.15053">
        <ele>211</ele>
        <time>2023-01-30T13:44:52.000Z</time>
      </trkpt>
      <trkpt lat="48.8141" lon="5.15054">
        <ele>211</ele>
        <time>2023-01-30T13:44:53.000Z</time>
      </trkpt>
      <trkpt lat="48.81411" lon="5.15055">
        <ele>210.5</ele>
        <time>2023-01-30T13:44:54.000Z</time>
      </trkpt>
      <trkpt lat="48.81411" lon="5.15056">
        <ele>210</ele>
        <time>2023-01-30T13:44:55.000Z</time>
      </trkpt>
      <trkpt lat="48.81412" lon="5.15057">
        <ele>210</ele>
        <time>2023-01-30T13:44:56.000Z</time>
      </trkpt>
      <trkpt lat="48.81413" lon="5.15058">
        <ele>210</ele>
        <time>2023-01-30T13:44:57.000Z</time>
      </trkpt>
      <trkpt lat="48.81414" lon="5.1506">
        <ele>210</ele>
        <time>2023-01-30T13:44:58.000Z</time>
      </trkpt>
      <trkpt lat="48.81415" lon="5.15061">
        <ele>210</ele>
        <time>2023-01-30T13:44:59.000Z</time>
      </trkpt>
      <trkpt lat="48.81415" lon="5.15062">
        <ele>210</ele>
        <time>2023-01-30T13:45:00.000Z</time>
      </trkpt>
      <trkpt lat="48.81416" lon="5.15063">
        <ele>210</ele>
        <time>2023-01-30T13:45:01.000Z</time>
      </trkpt>
      <trkpt lat="48.81416" lon="5.15065">
        <ele>210</ele>
        <time>2023-01-30T13:45:02.000Z</time>
      </trkpt>
      <trkpt lat="48.81417" lon="5.15066">
        <ele>210</ele>
        <time>2023-01-30T13:45:03.000Z</time>
      </trkpt>
      <trkpt lat="48.81419" lon="5.1507">
        <ele>210</ele>
        <time>2023-01-30T13:45:04.000Z</time>
      </trkpt>
      <trkpt lat="48.8142" lon="5.15072">
        <ele>209.7</ele>
        <time>2023-01-30T13:45:05.000Z</time>
      </trkpt>
      <trkpt lat="48.81421" lon="5.15074">
        <ele>209.3</ele>
        <time>2023-01-30T13:45:06.000Z</time>
      </trkpt>
      <trkpt lat="48.81422" lon="5.15076">
        <ele>209</ele>
        <time>2023-01-30T13:45:07.000Z</time>
      </trkpt>
      <trkpt lat="48.81424" lon="5.15078">
        <ele>209</ele>
        <time>2023-01-30T13:45:08.000Z</time>
      </trkpt>
      <trkpt lat="48.81425" lon="5.15079">
        <ele>209</ele>
        <time>2023-01-30T13:45:09.000Z</time>
      </trkpt>
      <trkpt lat="48.81426" lon="5.15081">
        <ele>209</ele>
        <time>2023-01-30T13:45:10.000Z</time>
      </trkpt>
      <trkpt lat="48.81428" lon="5.15083">
        <ele>209</ele>
        <time>2023-01-30T13:45:11.000Z</time>
      </trkpt>
      <trkpt lat="48.81429" lon="5.15085">
        <ele>209</ele>
        <time>2023-01-30T13:45:12.000Z</time>
      </trkpt>
      <trkpt lat="48.81431" lon="5.15087">
        <ele>209</ele>
        <time>2023-01-30T13:45:13.000Z</time>
      </trkpt>
      <trkpt lat="48.81432" lon="5.15089">
        <ele>208</ele>
        <time>2023-01-30T13:45:14.000Z</time>
      </trkpt>
      <trkpt lat="48.81434" lon="5.15091">
        <ele>208</ele>
        <time>2023-01-30T13:45:15.000Z</time>
      </trkpt>
      <trkpt lat="48.81435" lon="5.15093">
        <ele>208</ele>
        <time>2023-01-30T13:45:16.000Z</time>
      </trkpt>
      <trkpt lat="48.81436" lon="5.15095">
        <ele>208</ele>
        <time>2023-01-30T13:45:17.000Z</time>
      </trkpt>
      <trkpt lat="48.81437" lon="5.15097">
        <ele>208</ele>
        <time>2023-01-30T13:45:18.000Z</time>
      </trkpt>
      <trkpt lat="48.81439" lon="5.15099">
        <ele>208</ele>
        <time>2023-01-30T13:45:19.000Z</time>
      </trkpt>
      <trkpt lat="48.8144" lon="5.15101">
        <ele>208</ele>
        <time>2023-01-30T13:45:20.000Z</time>
      </trkpt>
      <trkpt lat="48.81441" lon="5.15104">
        <ele>208</ele>
        <time>2023-01-30T13:45:21.000Z</time>
      </trkpt>
      <trkpt lat="48.81442" lon="5.15106">
        <ele>208</ele>
        <time>2023-01-30T13:45:22.000Z</time>
      </trkpt>
      <trkpt lat="48.81443" lon="5.15108">
        <ele>208</ele>
        <time>2023-01-30T13:45:23.000Z</time>
      </trkpt>
      <trkpt lat="48.81445" lon="5.1511">
        <ele>207</ele>
        <time>2023-01-30T13:45:24.000Z</time>
      </trkpt>
      <trkpt lat="48.81448" lon="5.15112">
        <ele>207</ele>
        <time>2023-01-30T13:45:25.000Z</time>
      </trkpt>
      <trkpt lat="48.8145" lon="5.15113">
        <ele>207</ele>
        <time>2023-01-30T13:45:26.000Z</time>
      </trkpt>
      <trkpt lat="48.81451" lon="5.15115">
        <ele>207</ele>
        <time>2023-01-30T13:45:27.000Z</time>
      </trkpt>
      <trkpt lat="48.81452" lon="5.15117">
        <ele>207</ele>
        <time>2023-01-30T13:45:28.000Z</time>
      </trkpt>
      <trkpt lat="48.81454" lon="5.15119">
        <ele>207</ele>
        <time>2023-01-30T13:45:29.000Z</time>
      </trkpt>
      <trkpt lat="48.81455" lon="5.15121">
        <ele>207</ele>
        <time>2023-01-30T13:45:30.000Z</time>
      </trkpt>
      <trkpt lat="48.81457" lon="5.15123">
        <ele>207</ele>
        <time>2023-01-30T13:45:31.000Z</time>
      </trkpt>
      <trkpt lat="48.81458" lon="5.15125">
        <ele>207</ele>
        <time>2023-01-30T13:45:32.000Z</time>
      </trkpt>
      <trkpt lat="48.81458" lon="5.15126">
        <ele>206.7</ele>
        <time>2023-01-30T13:45:33.000Z</time>
      </trkpt>
      <trkpt lat="48.81459" lon="5.15128">
        <ele>206.3</ele>
        <time>2023-01-30T13:45:34.000Z</time>
      </trkpt>
      <trkpt lat="48.8146" lon="5.15129">
        <ele>206</ele>
        <time>2023-01-30T13:45:35.000Z</time>
      </trkpt>
      <trkpt lat="48.81461" lon="5.15131">
        <ele>206</ele>
        <time>2023-01-30T13:45:36.000Z</time>
      </trkpt>
      <trkpt lat="48.81462" lon="5.15132">
        <ele>206</ele>
        <time>2023-01-30T13:45:37.000Z</time>
      </trkpt>
      <trkpt lat="48.81463" lon="5.15133">
        <ele>206</ele>
        <time>2023-01-30T13:45:38.000Z</time>
      </trkpt>
      <trkpt lat="48.81465" lon="5.15134">
        <ele>206</ele>
        <time>2023-01-30T13:45:39.000Z</time>
      </trkpt>
      <trkpt lat="48.81466" lon="5.15135">
        <ele>206</ele>
        <time>2023-01-30T13:45:40.000Z</time>
      </trkpt>
      <trkpt lat="48.81468" lon="5.15136">
        <ele>206</ele>
        <time>2023-01-30T13:45:41.000Z</time>
      </trkpt>
      <trkpt lat="48.8147" lon="5.15137">
        <ele>205</ele>
        <time>2023-01-30T13:45:42.000Z</time>
      </trkpt>
      <trkpt lat="48.81471" lon="5.15138">
        <ele>205</ele>
        <time>2023-01-30T13:45:43.000Z</time>
      </trkpt>
      <trkpt lat="48.81472" lon="5.1514">
        <ele>205</ele>
        <time>2023-01-30T13:45:44.000Z</time>
      </trkpt>
      <trkpt lat="48.81473" lon="5.15141">
        <ele>205</ele>
        <time>2023-01-30T13:45:45.000Z</time>
      </trkpt>
      <trkpt lat="48.81474" lon="5.15143">
        <ele>205</ele>
        <time>2023-01-30T13:45:46.000Z</time>
      </trkpt>
      <trkpt lat="48.81475" lon="5.15145">
        <ele>205</ele>
        <time>2023-01-30T13:45:47.000Z</time>
      </trkpt>
      <trkpt lat="48.81477" lon="5.15146">
        <ele>205</ele>
        <time>2023-01-30T13:45:48.000Z</time>
      </trkpt>
      <trkpt lat="48.81478" lon="5.15148">
        <ele>205</ele>
        <time>2023-01-30T13:45:49.000Z</time>
      </trkpt>
      <trkpt lat="48.81478" lon="5.1515">
        <ele>205</ele>
        <time>2023-01-30T13:45:50.000Z</time>
      </trkpt>
      <trkpt lat="48.81479" lon="5.15151">
        <ele>205</ele>
        <time>2023-01-30T13:45:51.000Z</time>
      </trkpt>
      <trkpt lat="48.81481" lon="5.15153">
        <ele>205</ele>
        <time>2023-01-30T13:45:52.000Z</time>
      </trkpt>
      <trkpt lat="48.81482" lon="5.15155">
        <ele>204.7</ele>
        <time>2023-01-30T13:45:53.000Z</time>
      </trkpt>
      <trkpt lat="48.81483" lon="5.15156">
        <ele>204.3</ele>
        <time>2023-01-30T13:45:54.000Z</time>
      </trkpt>
      <trkpt lat="48.81485" lon="5.15157">
        <ele>204</ele>
        <time>2023-01-30T13:45:55.000Z</time>
      </trkpt>
      <trkpt lat="48.81486" lon="5.15159">
        <ele>204</ele>
        <time>2023-01-30T13:45:56.000Z</time>
      </trkpt>
      <trkpt lat="48.81487" lon="5.1516">
        <ele>204.5</ele>
        <time>2023-01-30T13:45:57.000Z</time>
      </trkpt>
      <trkpt lat="48.81488" lon="5.15161">
        <ele>205</ele>
        <time>2023-01-30T13:45:58.000Z</time>
      </trkpt>
      <trkpt lat="48.8149" lon="5.15162">
        <ele>205</ele>
        <time>2023-01-30T13:45:59.000Z</time>
      </trkpt>
      <trkpt lat="48.81491" lon="5.15163">
        <ele>205</ele>
        <time>2023-01-30T13:46:00.000Z</time>
      </trkpt>
      <trkpt lat="48.81492" lon="5.15164">
        <ele>205</ele>
        <time>2023-01-30T13:46:01.000Z</time>
      </trkpt>
      <trkpt lat="48.81493" lon="5.15166">
        <ele>205</ele>
        <time>2023-01-30T13:46:02.000Z</time>
      </trkpt>
      <trkpt lat="48.81494" lon="5.15167">
        <ele>205</ele>
        <time>2023-01-30T13:46:03.000Z</time>
      </trkpt>
      <trkpt lat="48.81495" lon="5.15168">
        <ele>205</ele>
        <time>2023-01-30T13:46:04.000Z</time>
      </trkpt>
      <trkpt lat="48.81496" lon="5.15169">
        <ele>205</ele>
        <time>2023-01-30T13:46:05.000Z</time>
      </trkpt>
      <trkpt lat="48.81497" lon="5.1517">
        <ele>205</ele>
        <time>2023-01-30T13:46:06.000Z</time>
      </trkpt>
      <trkpt lat="48.81498" lon="5.15172">
        <ele>205</ele>
        <time>2023-01-30T13:46:07.000Z</time>
      </trkpt>
      <trkpt lat="48.81499" lon="5.15173">
        <ele>205</ele>
        <time>2023-01-30T13:46:08.000Z</time>
      </trkpt>
      <trkpt lat="48.815" lon="5.15175">
        <ele>205</ele>
        <time>2023-01-30T13:46:09.000Z</time>
      </trkpt>
      <trkpt lat="48.81501" lon="5.15176">
        <ele>205</ele>
        <time>2023-01-30T13:46:10.000Z</time>
      </trkpt>
      <trkpt lat="48.81502" lon="5.15178">
        <ele>205</ele>
        <time>2023-01-30T13:46:11.000Z</time>
      </trkpt>
      <trkpt lat="48.81503" lon="5.15179">
        <ele>205</ele>
        <time>2023-01-30T13:46:12.000Z</time>
      </trkpt>
      <trkpt lat="48.81504" lon="5.1518">
        <ele>205</ele>
        <time>2023-01-30T13:46:13.000Z</time>
      </trkpt>
      <trkpt lat="48.81505" lon="5.15181">
        <ele>205</ele>
        <time>2023-01-30T13:46:14.000Z</time>
      </trkpt>
      <trkpt lat="48.81506" lon="5.15182">
        <ele>205</ele>
        <time>2023-01-30T13:46:15.000Z</time>
      </trkpt>
      <trkpt lat="48.81507" lon="5.15182">
        <ele>205</ele>
        <time>2023-01-30T13:46:16.000Z</time>
      </trkpt>
      <trkpt lat="48.81508" lon="5.15183">
        <ele>205</ele>
        <time>2023-01-30T13:46:17.000Z</time>
      </trkpt>
      <trkpt lat="48.81509" lon="5.15184">
        <ele>205</ele>
        <time>2023-01-30T13:46:18.000Z</time>
      </trkpt>
      <trkpt lat="48.81511" lon="5.15185">
        <ele>205</ele>
        <time>2023-01-30T13:46:19.000Z</time>
      </trkpt>
      <trkpt lat="48.81512" lon="5.15186">
        <ele>205</ele>
        <time>2023-01-30T13:46:20.000Z</time>
      </trkpt>
      <trkpt lat="48.81513" lon="5.15187">
        <ele>205</ele>
        <time>2023-01-30T13:46:21.000Z</time>
      </trkpt>
      <trkpt lat="48.81514" lon="5.15188">
        <ele>205</ele>
        <time>2023-01-30T13:46:22.000Z</time>
      </trkpt>
      <trkpt lat="48.81515" lon="5.15189">
        <ele>205</ele>
        <time>2023-01-30T13:46:23.000Z</time>
      </trkpt>
      <trkpt lat="48.81517" lon="5.15191">
        <ele>205</ele>
        <time>2023-01-30T13:46:24.000Z</time>
      </trkpt>
      <trkpt lat="48.81518" lon="5.15192">
        <ele>205</ele>
        <time>2023-01-30T13:46:25.000Z</time>
      </trkpt>
      <trkpt lat="48.81519" lon="5.15194">
        <ele>205</ele>
        <time>2023-01-30T13:46:26.000Z</time>
      </trkpt>
      <trkpt lat="48.8152" lon="5.15195">
        <ele>205</ele>
        <time>2023-01-30T13:46:27.000Z</time>
      </trkpt>
      <trkpt lat="48.81521" lon="5.15197">
        <ele>205</ele>
        <time>2023-01-30T13:46:28.000Z</time>
      </trkpt>
      <trkpt lat="48.81523" lon="5.15198">
        <ele>205</ele>
        <time>2023-01-30T13:46:29.000Z</time>
      </trkpt>
      <trkpt lat="48.81524" lon="5.152">
        <ele>205</ele>
        <time>2023-01-30T13:46:30.000Z</time>
      </trkpt>
      <trkpt lat="48.81525" lon="5.15202">
        <ele>205</ele>
        <time>2023-01-30T13:46:31.000Z</time>
      </trkpt>
      <trkpt lat="48.81525" lon="5.15203">
        <ele>205</ele>
        <time>2023-01-30T13:46:32.000Z</time>
      </trkpt>
      <trkpt lat="48.81526" lon="5.15205">
        <ele>205</ele>
        <time>2023-01-30T13:46:33.000Z</time>
      </trkpt>
      <trkpt lat="48.81527" lon="5.15206">
        <ele>206</ele>
        <time>2023-01-30T13:46:34.000Z</time>
      </trkpt>
      <trkpt lat="48.81528" lon="5.15208">
        <ele>206</ele>
        <time>2023-01-30T13:46:35.000Z</time>
      </trkpt>
      <trkpt lat="48.81529" lon="5.15209">
        <ele>206</ele>
        <time>2023-01-30T13:46:36.000Z</time>
      </trkpt>
      <trkpt lat="48.8153" lon="5.15211">
        <ele>206</ele>
        <time>2023-01-30T13:46:37.000Z</time>
      </trkpt>
      <trkpt lat="48.81531" lon="5.15212">
        <ele>206</ele>
        <time>2023-01-30T13:46:38.000Z</time>
      </trkpt>
      <trkpt lat="48.81532" lon="5.15214">
        <ele>206</ele>
        <time>2023-01-30T13:46:39.000Z</time>
      </trkpt>
      <trkpt lat="48.81533" lon="5.15215">
        <ele>206</ele>
        <time>2023-01-30T13:46:40.000Z</time>
      </trkpt>
      <trkpt lat="48.81533" lon="5.15216">
        <ele>206</ele>
        <time>2023-01-30T13:46:41.000Z</time>
      </trkpt>
      <trkpt lat="48.81534" lon="5.15217">
        <ele>206</ele>
        <time>2023-01-30T13:46:42.000Z</time>
      </trkpt>
      <trkpt lat="48.81534" lon="5.15219">
        <ele>206</ele>
        <time>2023-01-30T13:46:43.000Z</time>
      </trkpt>
      <trkpt lat="48.81535" lon="5.1522">
        <ele>206</ele>
        <time>2023-01-30T13:46:44.000Z</time>
      </trkpt>
      <trkpt lat="48.81535" lon="5.15222">
        <ele>206</ele>
        <time>2023-01-30T13:46:45.000Z</time>
      </trkpt>
      <trkpt lat="48.81536" lon="5.15224">
        <ele>207</ele>
        <time>2023-01-30T13:46:46.000Z</time>
      </trkpt>
      <trkpt lat="48.81537" lon="5.15226">
        <ele>207</ele>
        <time>2023-01-30T13:46:47.000Z</time>
      </trkpt>
      <trkpt lat="48.81539" lon="5.15228">
        <ele>207</ele>
        <time>2023-01-30T13:46:48.000Z</time>
      </trkpt>
      <trkpt lat="48.81541" lon="5.1523">
        <ele>207</ele>
        <time>2023-01-30T13:46:49.000Z</time>
      </trkpt>
      <trkpt lat="48.81542" lon="5.15233">
        <ele>207</ele>
        <time>2023-01-30T13:46:50.000Z</time>
      </trkpt>
      <trkpt lat="48.81543" lon="5.15234">
        <ele>207</ele>
        <time>2023-01-30T13:46:51.000Z</time>
      </trkpt>
      <trkpt lat="48.81544" lon="5.15236">
        <ele>207</ele>
        <time>2023-01-30T13:46:52.000Z</time>
      </trkpt>
      <trkpt lat="48.81545" lon="5.15238">
        <ele>207</ele>
        <time>2023-01-30T13:46:53.000Z</time>
      </trkpt>
      <trkpt lat="48.81545" lon="5.1524">
        <ele>207</ele>
        <time>2023-01-30T13:46:54.000Z</time>
      </trkpt>
      <trkpt lat="48.81546" lon="5.15242">
        <ele>207</ele>
        <time>2023-01-30T13:46:55.000Z</time>
      </trkpt>
      <trkpt lat="48.81548" lon="5.15243">
        <ele>207</ele>
        <time>2023-01-30T13:46:56.000Z</time>
      </trkpt>
      <trkpt lat="48.81549" lon="5.15245">
        <ele>207</ele>
        <time>2023-01-30T13:46:57.000Z</time>
      </trkpt>
      <trkpt lat="48.8155" lon="5.15247">
        <ele>207</ele>
        <time>2023-01-30T13:46:58.000Z</time>
      </trkpt>
      <trkpt lat="48.81551" lon="5.15248">
        <ele>207</ele>
        <time>2023-01-30T13:46:59.000Z</time>
      </trkpt>
      <trkpt lat="48.81552" lon="5.1525">
        <ele>208</ele>
        <time>2023-01-30T13:47:00.000Z</time>
      </trkpt>
      <trkpt lat="48.81553" lon="5.15252">
        <ele>208</ele>
        <time>2023-01-30T13:47:01.000Z</time>
      </trkpt>
      <trkpt lat="48.81554" lon="5.15253">
        <ele>208</ele>
        <time>2023-01-30T13:47:02.000Z</time>
      </trkpt>
      <trkpt lat="48.81554" lon="5.15255">
        <ele>208</ele>
        <time>2023-01-30T13:47:03.000Z</time>
      </trkpt>
      <trkpt lat="48.81555" lon="5.15257">
        <ele>208</ele>
        <time>2023-01-30T13:47:04.000Z</time>
      </trkpt>
      <trkpt lat="48.81556" lon="5.15259">
        <ele>208</ele>
        <time>2023-01-30T13:47:05.000Z</time>
      </trkpt>
      <trkpt lat="48.81557" lon="5.15261">
        <ele>208</ele>
        <time>2023-01-30T13:47:06.000Z</time>
      </trkpt>
      <trkpt lat="48.81558" lon="5.15263">
        <ele>208</ele>
        <time>2023-01-30T13:47:07.000Z</time>
      </trkpt>
      <trkpt lat="48.81559" lon="5.15265">
        <ele>208</ele>
        <time>2023-01-30T13:47:08.000Z</time>
      </trkpt>
      <trkpt lat="48.8156" lon="5.15267">
        <ele>208</ele>
        <time>2023-01-30T13:47:09.000Z</time>
      </trkpt>
      <trkpt lat="48.8156" lon="5.15268">
        <ele>208</ele>
        <time>2023-01-30T13:47:10.000Z</time>
      </trkpt>
      <trkpt lat="48.81561" lon="5.1527">
        <ele>208</ele>
        <time>2023-01-30T13:47:11.000Z</time>
      </trkpt>
      <trkpt lat="48.81562" lon="5.15271">
        <ele>208</ele>
        <time>2023-01-30T13:47:12.000Z</time>
      </trkpt>
      <trkpt lat="48.81563" lon="5.15273">
        <ele>208</ele>
        <time>2023-01-30T13:47:13.000Z</time>
      </trkpt>
      <trkpt lat="48.81563" lon="5.15274">
        <ele>208</ele>
        <time>2023-01-30T13:47:14.000Z</time>
      </trkpt>
      <trkpt lat="48.81564" lon="5.15276">
        <ele>208</ele>
        <time>2023-01-30T13:47:15.000Z</time>
      </trkpt>
      <trkpt lat="48.81566" lon="5.15278">
        <ele>208</ele>
        <time>2023-01-30T13:47:16.000Z</time>
      </trkpt>
      <trkpt lat="48.81568" lon="5.1528">
        <ele>208</ele>
        <time>2023-01-30T13:47:17.000Z</time>
      </trkpt>
      <trkpt lat="48.81569" lon="5.15282">
        <ele>208</ele>
        <time>2023-01-30T13:47:18.000Z</time>
      </trkpt>
      <trkpt lat="48.8157" lon="5.15284">
        <ele>208</ele>
        <time>2023-01-30T13:47:19.000Z</time>
      </trkpt>
      <trkpt lat="48.81571" lon="5.15285">
        <ele>208</ele>
        <time>2023-01-30T13:47:20.000Z</time>
      </trkpt>
      <trkpt lat="48.81573" lon="5.15287">
        <ele>208</ele>
        <time>2023-01-30T13:47:21.000Z</time>
      </trkpt>
      <trkpt lat="48.81574" lon="5.15288">
        <ele>208</ele>
        <time>2023-01-30T13:47:22.000Z</time>
      </trkpt>
      <trkpt lat="48.81575" lon="5.15289">
        <ele>208</ele>
        <time>2023-01-30T13:47:23.000Z</time>
      </trkpt>
      <trkpt lat="48.81576" lon="5.1529">
        <ele>208</ele>
        <time>2023-01-30T13:47:24.000Z</time>
      </trkpt>
      <trkpt lat="48.81577" lon="5.15291">
        <ele>208</ele>
        <time>2023-01-30T13:47:25.000Z</time>
      </trkpt>
      <trkpt lat="48.81578" lon="5.15293">
        <ele>209</ele>
        <time>2023-01-30T13:47:26.000Z</time>
      </trkpt>
      <trkpt lat="48.81579" lon="5.15295">
        <ele>209</ele>
        <time>2023-01-30T13:47:27.000Z</time>
      </trkpt>
      <trkpt lat="48.8158" lon="5.15297">
        <ele>209</ele>
        <time>2023-01-30T13:47:28.000Z</time>
      </trkpt>
      <trkpt lat="48.8158" lon="5.153">
        <ele>209</ele>
        <time>2023-01-30T13:47:29.000Z</time>
      </trkpt>
      <trkpt lat="48.81581" lon="5.15302">
        <ele>209</ele>
        <time>2023-01-30T13:47:30.000Z</time>
      </trkpt>
      <trkpt lat="48.81582" lon="5.15304">
        <ele>209</ele>
        <time>2023-01-30T13:47:31.000Z</time>
      </trkpt>
      <trkpt lat="48.81583" lon="5.15306">
        <ele>209</ele>
        <time>2023-01-30T13:47:32.000Z</time>
      </trkpt>
      <trkpt lat="48.81584" lon="5.15308">
        <ele>209</ele>
        <time>2023-01-30T13:47:33.000Z</time>
      </trkpt>
      <trkpt lat="48.81584" lon="5.15309">
        <ele>209</ele>
        <time>2023-01-30T13:47:34.000Z</time>
      </trkpt>
      <trkpt lat="48.81585" lon="5.15311">
        <ele>209</ele>
        <time>2023-01-30T13:47:35.000Z</time>
      </trkpt>
      <trkpt lat="48.81586" lon="5.15312">
        <ele>209</ele>
        <time>2023-01-30T13:47:36.000Z</time>
      </trkpt>
      <trkpt lat="48.81587" lon="5.15314">
        <ele>209</ele>
        <time>2023-01-30T13:47:37.000Z</time>
      </trkpt>
      <trkpt lat="48.81587" lon="5.15315">
        <ele>209</ele>
        <time>2023-01-30T13:47:38.000Z</time>
      </trkpt>
      <trkpt lat="48.81589" lon="5.15317">
        <ele>209</ele>
        <time>2023-01-30T13:47:39.000Z</time>
      </trkpt>
      <trkpt lat="48.81591" lon="5.15318">
        <ele>209</ele>
        <time>2023-01-30T13:47:40.000Z</time>
      </trkpt>
      <trkpt lat="48.81593" lon="5.15318">
        <ele>209</ele>
        <time>2023-01-30T13:47:41.000Z</time>
      </trkpt>
      <trkpt lat="48.81594" lon="5.15319">
        <ele>209</ele>
        <time>2023-01-30T13:47:42.000Z</time>
      </trkpt>
      <trkpt lat="48.81596" lon="5.15319">
        <ele>209</ele>
        <time>2023-01-30T13:47:43.000Z</time>
      </trkpt>
      <trkpt lat="48.81598" lon="5.1532">
        <ele>209</ele>
        <time>2023-01-30T13:47:44.000Z</time>
      </trkpt>
      <trkpt lat="48.81599" lon="5.15322">
        <ele>209</ele>
        <time>2023-01-30T13:47:45.000Z</time>
      </trkpt>
      <trkpt lat="48.81601" lon="5.15324">
        <ele>209</ele>
        <time>2023-01-30T13:47:46.000Z</time>
      </trkpt>
      <trkpt lat="48.81602" lon="5.15325">
        <ele>209</ele>
        <time>2023-01-30T13:47:47.000Z</time>
      </trkpt>
      <trkpt lat="48.81603" lon="5.15326">
        <ele>209</ele>
        <time>2023-01-30T13:47:48.000Z</time>
      </trkpt>
      <trkpt lat="48.81604" lon="5.15328">
        <ele>209</ele>
        <time>2023-01-30T13:47:49.000Z</time>
      </trkpt>
      <trkpt lat="48.81605" lon="5.15329">
        <ele>209</ele>
        <time>2023-01-30T13:47:50.000Z</time>
      </trkpt>
      <trkpt lat="48.81606" lon="5.15331">
        <ele>209</ele>
        <time>2023-01-30T13:47:51.000Z</time>
      </trkpt>
      <trkpt lat="48.81607" lon="5.15332">
        <ele>209</ele>
        <time>2023-01-30T13:47:52.000Z</time>
      </trkpt>
      <trkpt lat="48.81608" lon="5.15333">
        <ele>209</ele>
        <time>2023-01-30T13:47:53.000Z</time>
      </trkpt>
      <trkpt lat="48.81609" lon="5.15335">
        <ele>209</ele>
        <time>2023-01-30T13:47:54.000Z</time>
      </trkpt>
      <trkpt lat="48.8161" lon="5.15336">
        <ele>209</ele>
        <time>2023-01-30T13:47:55.000Z</time>
      </trkpt>
      <trkpt lat="48.81611" lon="5.15337">
        <ele>209</ele>
        <time>2023-01-30T13:47:56.000Z</time>
      </trkpt>
      <trkpt lat="48.81612" lon="5.15338">
        <ele>209</ele>
        <time>2023-01-30T13:47:57.000Z</time>
      </trkpt>
      <trkpt lat="48.81613" lon="5.15339">
        <ele>209</ele>
        <time>2023-01-30T13:47:58.000Z</time>
      </trkpt>
      <trkpt lat="48.81614" lon="5.15341">
        <ele>209</ele>
        <time>2023-01-30T13:47:59.000Z</time>
      </trkpt>
      <trkpt lat="48.81614" lon="5.15342">
        <ele>209</ele>
        <time>2023-01-30T13:48:00.000Z</time>
      </trkpt>
      <trkpt lat="48.81615" lon="5.15344">
        <ele>209</ele>
        <time>2023-01-30T13:48:01.000Z</time>
      </trkpt>
      <trkpt lat="48.81616" lon="5.15345">
        <ele>209</ele>
        <time>2023-01-30T13:48:02.000Z</time>
      </trkpt>
      <trkpt lat="48.81617" lon="5.15347">
        <ele>209</ele>
        <time>2023-01-30T13:48:03.000Z</time>
      </trkpt>
      <trkpt lat="48.81618" lon="5.15348">
        <ele>209</ele>
        <time>2023-01-30T13:48:04.000Z</time>
      </trkpt>
      <trkpt lat="48.81619" lon="5.1535">
        <ele>209</ele>
        <time>2023-01-30T13:48:05.000Z</time>
      </trkpt>
      <trkpt lat="48.81619" lon="5.15351">
        <ele>209</ele>
        <time>2023-01-30T13:48:06.000Z</time>
      </trkpt>
      <trkpt lat="48.8162" lon="5.15353">
        <ele>209</ele>
        <time>2023-01-30T13:48:07.000Z</time>
      </trkpt>
      <trkpt lat="48.81621" lon="5.15355">
        <ele>209</ele>
        <time>2023-01-30T13:48:08.000Z</time>
      </trkpt>
      <trkpt lat="48.81622" lon="5.15357">
        <ele>209</ele>
        <time>2023-01-30T13:48:09.000Z</time>
      </trkpt>
      <trkpt lat="48.81623" lon="5.15359">
        <ele>209</ele>
        <time>2023-01-30T13:48:10.000Z</time>
      </trkpt>
      <trkpt lat="48.81624" lon="5.1536">
        <ele>209</ele>
        <time>2023-01-30T13:48:11.000Z</time>
      </trkpt>
      <trkpt lat="48.81625" lon="5.15362">
        <ele>209</ele>
        <time>2023-01-30T13:48:12.000Z</time>
      </trkpt>
      <trkpt lat="48.81625" lon="5.15363">
        <ele>209</ele>
        <time>2023-01-30T13:48:13.000Z</time>
      </trkpt>
      <trkpt lat="48.81626" lon="5.15364">
        <ele>209</ele>
        <time>2023-01-30T13:48:14.000Z</time>
      </trkpt>
      <trkpt lat="48.81627" lon="5.15365">
        <ele>209</ele>
        <time>2023-01-30T13:48:15.000Z</time>
      </trkpt>
      <trkpt lat="48.81627" lon="5.15366">
        <ele>209</ele>
        <time>2023-01-30T13:48:16.000Z</time>
      </trkpt>
      <trkpt lat="48.81628" lon="5.15368">
        <ele>209</ele>
        <time>2023-01-30T13:48:17.000Z</time>
      </trkpt>
      <trkpt lat="48.8163" lon="5.15369">
        <ele>209</ele>
        <time>2023-01-30T13:48:18.000Z</time>
      </trkpt>
      <trkpt lat="48.81631" lon="5.1537">
        <ele>209</ele>
        <time>2023-01-30T13:48:19.000Z</time>
      </trkpt>
      <trkpt lat="48.81632" lon="5.15371">
        <ele>209</ele>
        <time>2023-01-30T13:48:20.000Z</time>
      </trkpt>
      <trkpt lat="48.81633" lon="5.15372">
        <ele>209</ele>
        <time>2023-01-30T13:48:21.000Z</time>
      </trkpt>
      <trkpt lat="48.81635" lon="5.15373">
        <ele>209</ele>
        <time>2023-01-30T13:48:22.000Z</time>
      </trkpt>
      <trkpt lat="48.81636" lon="5.15376">
        <ele>209</ele>
        <time>2023-01-30T13:48:23.000Z</time>
      </trkpt>
      <trkpt lat="48.81638" lon="5.15379">
        <ele>209</ele>
        <time>2023-01-30T13:48:24.000Z</time>
      </trkpt>
      <trkpt lat="48.81638" lon="5.15381">
        <ele>209</ele>
        <time>2023-01-30T13:48:25.000Z</time>
      </trkpt>
      <trkpt lat="48.81638" lon="5.15383">
        <ele>209</ele>
        <time>2023-01-30T13:48:26.000Z</time>
      </trkpt>
      <trkpt lat="48.81638" lon="5.15384">
        <ele>209</ele>
        <time>2023-01-30T13:48:27.000Z</time>
      </trkpt>
      <trkpt lat="48.81638" lon="5.15386">
        <ele>209</ele>
        <time>2023-01-30T13:48:28.000Z</time>
      </trkpt>
      <trkpt lat="48.81638" lon="5.15389">
        <ele>209</ele>
        <time>2023-01-30T13:48:29.000Z</time>
      </trkpt>
      <trkpt lat="48.81638" lon="5.15392">
        <ele>209</ele>
        <time>2023-01-30T13:48:30.000Z</time>
      </trkpt>
      <trkpt lat="48.81639" lon="5.15395">
        <ele>209</ele>
        <time>2023-01-30T13:48:31.000Z</time>
      </trkpt>
      <trkpt lat="48.8164" lon="5.15399">
        <ele>209</ele>
        <time>2023-01-30T13:48:32.000Z</time>
      </trkpt>
      <trkpt lat="48.8164" lon="5.15403">
        <ele>209</ele>
        <time>2023-01-30T13:48:33.000Z</time>
      </trkpt>
      <trkpt lat="48.81641" lon="5.15405">
        <ele>209</ele>
        <time>2023-01-30T13:48:34.000Z</time>
      </trkpt>
      <trkpt lat="48.81641" lon="5.15408">
        <ele>209</ele>
        <time>2023-01-30T13:48:35.000Z</time>
      </trkpt>
      <trkpt lat="48.81641" lon="5.15412">
        <ele>209</ele>
        <time>2023-01-30T13:48:36.000Z</time>
      </trkpt>
      <trkpt lat="48.81641" lon="5.15415">
        <ele>209</ele>
        <time>2023-01-30T13:48:37.000Z</time>
      </trkpt>
      <trkpt lat="48.81642" lon="5.15419">
        <ele>209</ele>
        <time>2023-01-30T13:48:38.000Z</time>
      </trkpt>
      <trkpt lat="48.81642" lon="5.15422">
        <ele>209</ele>
        <time>2023-01-30T13:48:39.000Z</time>
      </trkpt>
      <trkpt lat="48.81643" lon="5.15425">
        <ele>209</ele>
        <time>2023-01-30T13:48:40.000Z</time>
      </trkpt>
      <trkpt lat="48.81643" lon="5.15428">
        <ele>209</ele>
        <time>2023-01-30T13:48:41.000Z</time>
      </trkpt>
      <trkpt lat="48.81643" lon="5.1543">
        <ele>209</ele>
        <time>2023-01-30T13:48:42.000Z</time>
      </trkpt>
      <trkpt lat="48.81643" lon="5.15432">
        <ele>209</ele>
        <time>2023-01-30T13:48:43.000Z</time>
      </trkpt>
      <trkpt lat="48.81644" lon="5.15434">
        <ele>209</ele>
        <time>2023-01-30T13:48:44.000Z</time>
      </trkpt>
      <trkpt lat="48.81644" lon="5.15436">
        <ele>209</ele>
        <time>2023-01-30T13:48:45.000Z</time>
      </trkpt>
      <trkpt lat="48.81644" lon="5.15438">
        <ele>209</ele>
        <time>2023-01-30T13:48:46.000Z</time>
      </trkpt>
      <trkpt lat="48.81645" lon="5.1544">
        <ele>209</ele>
        <time>2023-01-30T13:48:47.000Z</time>
      </trkpt>
      <trkpt lat="48.81645" lon="5.15442">
        <ele>209</ele>
        <time>2023-01-30T13:48:48.000Z</time>
      </trkpt>
      <trkpt lat="48.81646" lon="5.15445">
        <ele>209</ele>
        <time>2023-01-30T13:48:49.000Z</time>
      </trkpt>
      <trkpt lat="48.81646" lon="5.15447">
        <ele>209</ele>
        <time>2023-01-30T13:48:50.000Z</time>
      </trkpt>
      <trkpt lat="48.81647" lon="5.15449">
        <ele>209</ele>
        <time>2023-01-30T13:48:51.000Z</time>
      </trkpt>
      <trkpt lat="48.81647" lon="5.15451">
        <ele>209</ele>
        <time>2023-01-30T13:48:52.000Z</time>
      </trkpt>
      <trkpt lat="48.81647" lon="5.15452">
        <ele>209</ele>
        <time>2023-01-30T13:48:53.000Z</time>
      </trkpt>
      <trkpt lat="48.81647" lon="5.15454">
        <ele>209</ele>
        <time>2023-01-30T13:48:54.000Z</time>
      </trkpt>
      <trkpt lat="48.81647" lon="5.15455">
        <ele>209</ele>
        <time>2023-01-30T13:48:55.000Z</time>
      </trkpt>
      <trkpt lat="48.81647" lon="5.15457">
        <ele>209</ele>
        <time>2023-01-30T13:48:56.000Z</time>
      </trkpt>
      <trkpt lat="48.81646" lon="5.15458">
        <ele>209</ele>
        <time>2023-01-30T13:48:57.000Z</time>
      </trkpt>
      <trkpt lat="48.81646" lon="5.15458">
        <ele>209</ele>
        <time>2023-01-30T13:48:58.000Z</time>
      </trkpt>
      <trkpt lat="48.81645" lon="5.15459">
        <ele>209.3</ele>
        <time>2023-01-30T13:48:59.000Z</time>
      </trkpt>
      <trkpt lat="48.81645" lon="5.15459">
        <ele>209.7</ele>
        <time>2023-01-30T13:49:00.000Z</time>
      </trkpt>
      <trkpt lat="48.81644" lon="5.15459">
        <ele>210</ele>
        <time>2023-01-30T13:49:01.000Z</time>
      </trkpt>
      <trkpt lat="48.81643" lon="5.1546">
        <ele>210</ele>
        <time>2023-01-30T13:49:02.000Z</time>
      </trkpt>
      <trkpt lat="48.81643" lon="5.1546">
        <ele>210</ele>
        <time>2023-01-30T13:49:03.000Z</time>
      </trkpt>
      <trkpt lat="48.81642" lon="5.1546">
        <ele>210</ele>
        <time>2023-01-30T13:49:04.000Z</time>
      </trkpt>
      <trkpt lat="48.81641" lon="5.15462">
        <ele>210</ele>
        <time>2023-01-30T13:49:05.000Z</time>
      </trkpt>
      <trkpt lat="48.8164" lon="5.15463">
        <ele>211</ele>
        <time>2023-01-30T13:49:06.000Z</time>
      </trkpt>
      <trkpt lat="48.81639" lon="5.15465">
        <ele>211</ele>
        <time>2023-01-30T13:49:07.000Z</time>
      </trkpt>
      <trkpt lat="48.81638" lon="5.15466">
        <ele>211</ele>
        <time>2023-01-30T13:49:08.000Z</time>
      </trkpt>
      <trkpt lat="48.81637" lon="5.15466">
        <ele>211</ele>
        <time>2023-01-30T13:49:09.000Z</time>
      </trkpt>
      <trkpt lat="48.81637" lon="5.15467">
        <ele>211</ele>
        <time>2023-01-30T13:49:10.000Z</time>
      </trkpt>
      <trkpt lat="48.81636" lon="5.15467">
        <ele>211</ele>
        <time>2023-01-30T13:49:11.000Z</time>
      </trkpt>
      <trkpt lat="48.81635" lon="5.15468">
        <ele>211</ele>
        <time>2023-01-30T13:49:12.000Z</time>
      </trkpt>
      <trkpt lat="48.81633" lon="5.1547">
        <ele>211.3</ele>
        <time>2023-01-30T13:49:13.000Z</time>
      </trkpt>
      <trkpt lat="48.81632" lon="5.15471">
        <ele>211.7</ele>
        <time>2023-01-30T13:49:14.000Z</time>
      </trkpt>
      <trkpt lat="48.81631" lon="5.15471">
        <ele>212</ele>
        <time>2023-01-30T13:49:15.000Z</time>
      </trkpt>
      <trkpt lat="48.8163" lon="5.15472">
        <ele>212</ele>
        <time>2023-01-30T13:49:16.000Z</time>
      </trkpt>
      <trkpt lat="48.81629" lon="5.15472">
        <ele>212</ele>
        <time>2023-01-30T13:49:17.000Z</time>
      </trkpt>
      <trkpt lat="48.81629" lon="5.15473">
        <ele>212</ele>
        <time>2023-01-30T13:49:18.000Z</time>
      </trkpt>
      <trkpt lat="48.81628" lon="5.15474">
        <ele>212</ele>
        <time>2023-01-30T13:49:19.000Z</time>
      </trkpt>
      <trkpt lat="48.81627" lon="5.15475">
        <ele>212</ele>
        <time>2023-01-30T13:49:20.000Z</time>
      </trkpt>
      <trkpt lat="48.81625" lon="5.15476">
        <ele>212</ele>
        <time>2023-01-30T13:49:21.000Z</time>
      </trkpt>
      <trkpt lat="48.81624" lon="5.15476">
        <ele>212</ele>
        <time>2023-01-30T13:49:22.000Z</time>
      </trkpt>
      <trkpt lat="48.81623" lon="5.15477">
        <ele>212</ele>
        <time>2023-01-30T13:49:23.000Z</time>
      </trkpt>
      <trkpt lat="48.81622" lon="5.15478">
        <ele>212</ele>
        <time>2023-01-30T13:49:24.000Z</time>
      </trkpt>
      <trkpt lat="48.81621" lon="5.15478">
        <ele>212.3</ele>
        <time>2023-01-30T13:49:25.000Z</time>
      </trkpt>
      <trkpt lat="48.81621" lon="5.15479">
        <ele>212.7</ele>
        <time>2023-01-30T13:49:26.000Z</time>
      </trkpt>
      <trkpt lat="48.8162" lon="5.15479">
        <ele>213</ele>
        <time>2023-01-30T13:49:27.000Z</time>
      </trkpt>
      <trkpt lat="48.8162" lon="5.1548">
        <ele>213</ele>
        <time>2023-01-30T13:49:28.000Z</time>
      </trkpt>
      <trkpt lat="48.81619" lon="5.15481">
        <ele>213</ele>
        <time>2023-01-30T13:49:29.000Z</time>
      </trkpt>
      <trkpt lat="48.81618" lon="5.15483">
        <ele>213</ele>
        <time>2023-01-30T13:49:30.000Z</time>
      </trkpt>
      <trkpt lat="48.81617" lon="5.15485">
        <ele>213</ele>
        <time>2023-01-30T13:49:31.000Z</time>
      </trkpt>
      <trkpt lat="48.81616" lon="5.15486">
        <ele>213</ele>
        <time>2023-01-30T13:49:32.000Z</time>
      </trkpt>
      <trkpt lat="48.81615" lon="5.15487">
        <ele>213</ele>
        <time>2023-01-30T13:49:33.000Z</time>
      </trkpt>
      <trkpt lat="48.81614" lon="5.15488">
        <ele>213</ele>
        <time>2023-01-30T13:49:34.000Z</time>
      </trkpt>
      <trkpt lat="48.81614" lon="5.15489">
        <ele>213</ele>
        <time>2023-01-30T13:49:35.000Z</time>
      </trkpt>
      <trkpt lat="48.81612" lon="5.15492">
        <ele>214</ele>
        <time>2023-01-30T13:49:36.000Z</time>
      </trkpt>
      <trkpt lat="48.81611" lon="5.15494">
        <ele>214</ele>
        <time>2023-01-30T13:49:37.000Z</time>
      </trkpt>
      <trkpt lat="48.8161" lon="5.15496">
        <ele>214</ele>
        <time>2023-01-30T13:49:38.000Z</time>
      </trkpt>
      <trkpt lat="48.81609" lon="5.15497">
        <ele>214</ele>
        <time>2023-01-30T13:49:39.000Z</time>
      </trkpt>
      <trkpt lat="48.81608" lon="5.15498">
        <ele>214</ele>
        <time>2023-01-30T13:49:40.000Z</time>
      </trkpt>
      <trkpt lat="48.81607" lon="5.15499">
        <ele>214</ele>
        <time>2023-01-30T13:49:41.000Z</time>
      </trkpt>
      <trkpt lat="48.81606" lon="5.155">
        <ele>214</ele>
        <time>2023-01-30T13:49:42.000Z</time>
      </trkpt>
      <trkpt lat="48.81605" lon="5.15501">
        <ele>214</ele>
        <time>2023-01-30T13:49:43.000Z</time>
      </trkpt>
      <trkpt lat="48.81604" lon="5.15501">
        <ele>214</ele>
        <time>2023-01-30T13:49:44.000Z</time>
      </trkpt>
      <trkpt lat="48.81602" lon="5.15502">
        <ele>214</ele>
        <time>2023-01-30T13:49:45.000Z</time>
      </trkpt>
      <trkpt lat="48.81601" lon="5.15503">
        <ele>214</ele>
        <time>2023-01-30T13:49:46.000Z</time>
      </trkpt>
      <trkpt lat="48.816" lon="5.15504">
        <ele>214</ele>
        <time>2023-01-30T13:49:47.000Z</time>
      </trkpt>
      <trkpt lat="48.81598" lon="5.15505">
        <ele>214</ele>
        <time>2023-01-30T13:49:48.000Z</time>
      </trkpt>
      <trkpt lat="48.81597" lon="5.15506">
        <ele>214</ele>
        <time>2023-01-30T13:49:49.000Z</time>
      </trkpt>
      <trkpt lat="48.81596" lon="5.15507">
        <ele>214</ele>
        <time>2023-01-30T13:49:50.000Z</time>
      </trkpt>
      <trkpt lat="48.81595" lon="5.15508">
        <ele>214</ele>
        <time>2023-01-30T13:49:51.000Z</time>
      </trkpt>
      <trkpt lat="48.81594" lon="5.1551">
        <ele>214</ele>
        <time>2023-01-30T13:49:52.000Z</time>
      </trkpt>
      <trkpt lat="48.81592" lon="5.15511">
        <ele>214</ele>
        <time>2023-01-30T13:49:53.000Z</time>
      </trkpt>
      <trkpt lat="48.81591" lon="5.15513">
        <ele>214</ele>
        <time>2023-01-30T13:49:54.000Z</time>
      </trkpt>
      <trkpt lat="48.81589" lon="5.15514">
        <ele>214</ele>
        <time>2023-01-30T13:49:55.000Z</time>
      </trkpt>
      <trkpt lat="48.81588" lon="5.15515">
        <ele>214.5</ele>
        <time>2023-01-30T13:49:56.000Z</time>
      </trkpt>
      <trkpt lat="48.81586" lon="5.15517">
        <ele>215</ele>
        <time>2023-01-30T13:49:57.000Z</time>
      </trkpt>
      <trkpt lat="48.81585" lon="5.15518">
        <ele>215</ele>
        <time>2023-01-30T13:49:58.000Z</time>
      </trkpt>
      <trkpt lat="48.81584" lon="5.15519">
        <ele>215</ele>
        <time>2023-01-30T13:49:59.000Z</time>
      </trkpt>
      <trkpt lat="48.81583" lon="5.1552">
        <ele>215</ele>
        <time>2023-01-30T13:50:00.000Z</time>
      </trkpt>
      <trkpt lat="48.81581" lon="5.15521">
        <ele>215</ele>
        <time>2023-01-30T13:50:01.000Z</time>
      </trkpt>
      <trkpt lat="48.8158" lon="5.15521">
        <ele>215</ele>
        <time>2023-01-30T13:50:02.000Z</time>
      </trkpt>
      <trkpt lat="48.8158" lon="5.15522">
        <ele>215</ele>
        <time>2023-01-30T13:50:03.000Z</time>
      </trkpt>
      <trkpt lat="48.81579" lon="5.15522">
        <ele>215</ele>
        <time>2023-01-30T13:50:04.000Z</time>
      </trkpt>
      <trkpt lat="48.81577" lon="5.15523">
        <ele>215</ele>
        <time>2023-01-30T13:50:05.000Z</time>
      </trkpt>
      <trkpt lat="48.81575" lon="5.15525">
        <ele>215</ele>
        <time>2023-01-30T13:50:06.000Z</time>
      </trkpt>
      <trkpt lat="48.81574" lon="5.15527">
        <ele>215</ele>
        <time>2023-01-30T13:50:07.000Z</time>
      </trkpt>
      <trkpt lat="48.81573" lon="5.15529">
        <ele>215</ele>
        <time>2023-01-30T13:50:08.000Z</time>
      </trkpt>
      <trkpt lat="48.81571" lon="5.1553">
        <ele>215</ele>
        <time>2023-01-30T13:50:09.000Z</time>
      </trkpt>
      <trkpt lat="48.8157" lon="5.15532">
        <ele>215.5</ele>
        <time>2023-01-30T13:50:10.000Z</time>
      </trkpt>
      <trkpt lat="48.81568" lon="5.15534">
        <ele>216</ele>
        <time>2023-01-30T13:50:11.000Z</time>
      </trkpt>
      <trkpt lat="48.81567" lon="5.15535">
        <ele>216</ele>
        <time>2023-01-30T13:50:12.000Z</time>
      </trkpt>
      <trkpt lat="48.81565" lon="5.15537">
        <ele>216</ele>
        <time>2023-01-30T13:50:13.000Z</time>
      </trkpt>
      <trkpt lat="48.81564" lon="5.15538">
        <ele>216</ele>
        <time>2023-01-30T13:50:14.000Z</time>
      </trkpt>
      <trkpt lat="48.81563" lon="5.15539">
        <ele>216</ele>
        <time>2023-01-30T13:50:15.000Z</time>
      </trkpt>
      <trkpt lat="48.81562" lon="5.1554">
        <ele>216</ele>
        <time>2023-01-30T13:50:16.000Z</time>
      </trkpt>
      <trkpt lat="48.81561" lon="5.15542">
        <ele>216.3</ele>
        <time>2023-01-30T13:50:17.000Z</time>
      </trkpt>
      <trkpt lat="48.8156" lon="5.15543">
        <ele>216.7</ele>
        <time>2023-01-30T13:50:18.000Z</time>
      </trkpt>
      <trkpt lat="48.81558" lon="5.15544">
        <ele>217</ele>
        <time>2023-01-30T13:50:19.000Z</time>
      </trkpt>
      <trkpt lat="48.81557" lon="5.15545">
        <ele>217</ele>
        <time>2023-01-30T13:50:20.000Z</time>
      </trkpt>
      <trkpt lat="48.81556" lon="5.15546">
        <ele>217</ele>
        <time>2023-01-30T13:50:21.000Z</time>
      </trkpt>
      <trkpt lat="48.81555" lon="5.15547">
        <ele>217</ele>
        <time>2023-01-30T13:50:22.000Z</time>
      </trkpt>
      <trkpt lat="48.81554" lon="5.15548">
        <ele>217</ele>
        <time>2023-01-30T13:50:23.000Z</time>
      </trkpt>
      <trkpt lat="48.81553" lon="5.15549">
        <ele>217</ele>
        <time>2023-01-30T13:50:24.000Z</time>
      </trkpt>
      <trkpt lat="48.81551" lon="5.1555">
        <ele>217</ele>
        <time>2023-01-30T13:50:25.000Z</time>
      </trkpt>
      <trkpt lat="48.8155" lon="5.15552">
        <ele>217</ele>
        <time>2023-01-30T13:50:26.000Z</time>
      </trkpt>
      <trkpt lat="48.81548" lon="5.15552">
        <ele>217</ele>
        <time>2023-01-30T13:50:27.000Z</time>
      </trkpt>
      <trkpt lat="48.81547" lon="5.15553">
        <ele>217</ele>
        <time>2023-01-30T13:50:28.000Z</time>
      </trkpt>
      <trkpt lat="48.81546" lon="5.15553">
        <ele>217</ele>
        <time>2023-01-30T13:50:29.000Z</time>
      </trkpt>
      <trkpt lat="48.81544" lon="5.15554">
        <ele>217.5</ele>
        <time>2023-01-30T13:50:30.000Z</time>
      </trkpt>
      <trkpt lat="48.81543" lon="5.15555">
        <ele>218</ele>
        <time>2023-01-30T13:50:31.000Z</time>
      </trkpt>
      <trkpt lat="48.81542" lon="5.15557">
        <ele>218</ele>
        <time>2023-01-30T13:50:32.000Z</time>
      </trkpt>
      <trkpt lat="48.81541" lon="5.15558">
        <ele>218</ele>
        <time>2023-01-30T13:50:33.000Z</time>
      </trkpt>
      <trkpt lat="48.8154" lon="5.15559">
        <ele>218</ele>
        <time>2023-01-30T13:50:34.000Z</time>
      </trkpt>
      <trkpt lat="48.81539" lon="5.1556">
        <ele>218</ele>
        <time>2023-01-30T13:50:35.000Z</time>
      </trkpt>
      <trkpt lat="48.81538" lon="5.15561">
        <ele>218</ele>
        <time>2023-01-30T13:50:36.000Z</time>
      </trkpt>
      <trkpt lat="48.81537" lon="5.15562">
        <ele>218</ele>
        <time>2023-01-30T13:50:37.000Z</time>
      </trkpt>
      <trkpt lat="48.81536" lon="5.15563">
        <ele>218</ele>
        <time>2023-01-30T13:50:38.000Z</time>
      </trkpt>
      <trkpt lat="48.81535" lon="5.15564">
        <ele>218</ele>
        <time>2023-01-30T13:50:39.000Z</time>
      </trkpt>
      <trkpt lat="48.81535" lon="5.15566">
        <ele>219</ele>
        <time>2023-01-30T13:50:40.000Z</time>
      </trkpt>
      <trkpt lat="48.81534" lon="5.15567">
        <ele>219</ele>
        <time>2023-01-30T13:50:41.000Z</time>
      </trkpt>
      <trkpt lat="48.81533" lon="5.15568">
        <ele>219</ele>
        <time>2023-01-30T13:50:42.000Z</time>
      </trkpt>
      <trkpt lat="48.81532" lon="5.15569">
        <ele>219</ele>
        <time>2023-01-30T13:50:43.000Z</time>
      </trkpt>
      <trkpt lat="48.8153" lon="5.1557">
        <ele>219</ele>
        <time>2023-01-30T13:50:44.000Z</time>
      </trkpt>
      <trkpt lat="48.81529" lon="5.15571">
        <ele>219</ele>
        <time>2023-01-30T13:50:45.000Z</time>
      </trkpt>
      <trkpt lat="48.81528" lon="5.15572">
        <ele>219</ele>
        <time>2023-01-30T13:50:46.000Z</time>
      </trkpt>
      <trkpt lat="48.81527" lon="5.15573">
        <ele>219</ele>
        <time>2023-01-30T13:50:47.000Z</time>
      </trkpt>
      <trkpt lat="48.81526" lon="5.15574">
        <ele>219.5</ele>
        <time>2023-01-30T13:50:48.000Z</time>
      </trkpt>
      <trkpt lat="48.81525" lon="5.15576">
        <ele>220</ele>
        <time>2023-01-30T13:50:49.000Z</time>
      </trkpt>
      <trkpt lat="48.81523" lon="5.15577">
        <ele>220</ele>
        <time>2023-01-30T13:50:50.000Z</time>
      </trkpt>
      <trkpt lat="48.81522" lon="5.15578">
        <ele>220</ele>
        <time>2023-01-30T13:50:51.000Z</time>
      </trkpt>
      <trkpt lat="48.81521" lon="5.1558">
        <ele>220</ele>
        <time>2023-01-30T13:50:52.000Z</time>
      </trkpt>
      <trkpt lat="48.8152" lon="5.15581">
        <ele>220</ele>
        <time>2023-01-30T13:50:53.000Z</time>
      </trkpt>
      <trkpt lat="48.81519" lon="5.15582">
        <ele>220</ele>
        <time>2023-01-30T13:50:54.000Z</time>
      </trkpt>
      <trkpt lat="48.81517" lon="5.15584">
        <ele>220</ele>
        <time>2023-01-30T13:50:55.000Z</time>
      </trkpt>
      <trkpt lat="48.81516" lon="5.15585">
        <ele>220.5</ele>
        <time>2023-01-30T13:50:56.000Z</time>
      </trkpt>
      <trkpt lat="48.81515" lon="5.15586">
        <ele>221</ele>
        <time>2023-01-30T13:50:57.000Z</time>
      </trkpt>
      <trkpt lat="48.81514" lon="5.15588">
        <ele>221</ele>
        <time>2023-01-30T13:50:58.000Z</time>
      </trkpt>
      <trkpt lat="48.81513" lon="5.15589">
        <ele>221</ele>
        <time>2023-01-30T13:50:59.000Z</time>
      </trkpt>
      <trkpt lat="48.81511" lon="5.1559">
        <ele>221</ele>
        <time>2023-01-30T13:51:00.000Z</time>
      </trkpt>
      <trkpt lat="48.8151" lon="5.15591">
        <ele>221</ele>
        <time>2023-01-30T13:51:01.000Z</time>
      </trkpt>
      <trkpt lat="48.81509" lon="5.15592">
        <ele>222</ele>
        <time>2023-01-30T13:51:02.000Z</time>
      </trkpt>
      <trkpt lat="48.81507" lon="5.15593">
        <ele>222</ele>
        <time>2023-01-30T13:51:03.000Z</time>
      </trkpt>
      <trkpt lat="48.81506" lon="5.15594">
        <ele>222</ele>
        <time>2023-01-30T13:51:04.000Z</time>
      </trkpt>
      <trkpt lat="48.81505" lon="5.15595">
        <ele>222</ele>
        <time>2023-01-30T13:51:05.000Z</time>
      </trkpt>
      <trkpt lat="48.81504" lon="5.15597">
        <ele>222</ele>
        <time>2023-01-30T13:51:06.000Z</time>
      </trkpt>
      <trkpt lat="48.81503" lon="5.15598">
        <ele>222</ele>
        <time>2023-01-30T13:51:07.000Z</time>
      </trkpt>
      <trkpt lat="48.81502" lon="5.156">
        <ele>222</ele>
        <time>2023-01-30T13:51:08.000Z</time>
      </trkpt>
      <trkpt lat="48.815" lon="5.15601">
        <ele>222</ele>
        <time>2023-01-30T13:51:09.000Z</time>
      </trkpt>
      <trkpt lat="48.81499" lon="5.15603">
        <ele>222</ele>
        <time>2023-01-30T13:51:10.000Z</time>
      </trkpt>
      <trkpt lat="48.81498" lon="5.15604">
        <ele>222.3</ele>
        <time>2023-01-30T13:51:11.000Z</time>
      </trkpt>
      <trkpt lat="48.81497" lon="5.15605">
        <ele>222.7</ele>
        <time>2023-01-30T13:51:12.000Z</time>
      </trkpt>
      <trkpt lat="48.81496" lon="5.15606">
        <ele>223</ele>
        <time>2023-01-30T13:51:13.000Z</time>
      </trkpt>
      <trkpt lat="48.81496" lon="5.15607">
        <ele>223</ele>
        <time>2023-01-30T13:51:14.000Z</time>
      </trkpt>
      <trkpt lat="48.81495" lon="5.15608">
        <ele>223</ele>
        <time>2023-01-30T13:51:15.000Z</time>
      </trkpt>
      <trkpt lat="48.81494" lon="5.15609">
        <ele>223</ele>
        <time>2023-01-30T13:51:16.000Z</time>
      </trkpt>
      <trkpt lat="48.81493" lon="5.1561">
        <ele>223</ele>
        <time>2023-01-30T13:51:17.000Z</time>
      </trkpt>
      <trkpt lat="48.81492" lon="5.15611">
        <ele>223</ele>
        <time>2023-01-30T13:51:18.000Z</time>
      </trkpt>
      <trkpt lat="48.81491" lon="5.15611">
        <ele>223</ele>
        <time>2023-01-30T13:51:19.000Z</time>
      </trkpt>
      <trkpt lat="48.8149" lon="5.15612">
        <ele>223</ele>
        <time>2023-01-30T13:51:20.000Z</time>
      </trkpt>
      <trkpt lat="48.81489" lon="5.15613">
        <ele>223</ele>
        <time>2023-01-30T13:51:21.000Z</time>
      </trkpt>
      <trkpt lat="48.81488" lon="5.15614">
        <ele>223</ele>
        <time>2023-01-30T13:51:22.000Z</time>
      </trkpt>
      <trkpt lat="48.81487" lon="5.15615">
        <ele>223</ele>
        <time>2023-01-30T13:51:23.000Z</time>
      </trkpt>
      <trkpt lat="48.81486" lon="5.15617">
        <ele>223.5</ele>
        <time>2023-01-30T13:51:24.000Z</time>
      </trkpt>
      <trkpt lat="48.81485" lon="5.15618">
        <ele>224</ele>
        <time>2023-01-30T13:51:25.000Z</time>
      </trkpt>
      <trkpt lat="48.81484" lon="5.15619">
        <ele>224</ele>
        <time>2023-01-30T13:51:26.000Z</time>
      </trkpt>
      <trkpt lat="48.81483" lon="5.1562">
        <ele>224</ele>
        <time>2023-01-30T13:51:27.000Z</time>
      </trkpt>
      <trkpt lat="48.81482" lon="5.15621">
        <ele>224</ele>
        <time>2023-01-30T13:51:28.000Z</time>
      </trkpt>
      <trkpt lat="48.81481" lon="5.15622">
        <ele>224</ele>
        <time>2023-01-30T13:51:29.000Z</time>
      </trkpt>
      <trkpt lat="48.8148" lon="5.15624">
        <ele>224</ele>
        <time>2023-01-30T13:51:30.000Z</time>
      </trkpt>
      <trkpt lat="48.81479" lon="5.15625">
        <ele>224</ele>
        <time>2023-01-30T13:51:31.000Z</time>
      </trkpt>
      <trkpt lat="48.81477" lon="5.15627">
        <ele>224</ele>
        <time>2023-01-30T13:51:32.000Z</time>
      </trkpt>
      <trkpt lat="48.81476" lon="5.15628">
        <ele>224</ele>
        <time>2023-01-30T13:51:33.000Z</time>
      </trkpt>
      <trkpt lat="48.81475" lon="5.1563">
        <ele>224</ele>
        <time>2023-01-30T13:51:34.000Z</time>
      </trkpt>
      <trkpt lat="48.81473" lon="5.15631">
        <ele>224</ele>
        <time>2023-01-30T13:51:35.000Z</time>
      </trkpt>
      <trkpt lat="48.81472" lon="5.15633">
        <ele>224.5</ele>
        <time>2023-01-30T13:51:36.000Z</time>
      </trkpt>
      <trkpt lat="48.81471" lon="5.15634">
        <ele>225</ele>
        <time>2023-01-30T13:51:37.000Z</time>
      </trkpt>
      <trkpt lat="48.8147" lon="5.15635">
        <ele>225</ele>
        <time>2023-01-30T13:51:38.000Z</time>
      </trkpt>
      <trkpt lat="48.81469" lon="5.15637">
        <ele>225</ele>
        <time>2023-01-30T13:51:39.000Z</time>
      </trkpt>
      <trkpt lat="48.81468" lon="5.15638">
        <ele>225</ele>
        <time>2023-01-30T13:51:40.000Z</time>
      </trkpt>
      <trkpt lat="48.81467" lon="5.15639">
        <ele>225</ele>
        <time>2023-01-30T13:51:41.000Z</time>
      </trkpt>
      <trkpt lat="48.81466" lon="5.15641">
        <ele>225</ele>
        <time>2023-01-30T13:51:42.000Z</time>
      </trkpt>
      <trkpt lat="48.81465" lon="5.15642">
        <ele>225</ele>
        <time>2023-01-30T13:51:43.000Z</time>
      </trkpt>
      <trkpt lat="48.81464" lon="5.15643">
        <ele>225</ele>
        <time>2023-01-30T13:51:44.000Z</time>
      </trkpt>
      <trkpt lat="48.81463" lon="5.15644">
        <ele>225.3</ele>
        <time>2023-01-30T13:51:45.000Z</time>
      </trkpt>
      <trkpt lat="48.81462" lon="5.15645">
        <ele>225.7</ele>
        <time>2023-01-30T13:51:46.000Z</time>
      </trkpt>
      <trkpt lat="48.81461" lon="5.15646">
        <ele>226</ele>
        <time>2023-01-30T13:51:47.000Z</time>
      </trkpt>
      <trkpt lat="48.8146" lon="5.15646">
        <ele>226</ele>
        <time>2023-01-30T13:51:48.000Z</time>
      </trkpt>
      <trkpt lat="48.8146" lon="5.15647">
        <ele>226</ele>
        <time>2023-01-30T13:51:49.000Z</time>
      </trkpt>
      <trkpt lat="48.8146" lon="5.15647">
        <ele>226</ele>
        <time>2023-01-30T13:51:50.000Z</time>
      </trkpt>
      <trkpt lat="48.81459" lon="5.15647">
        <ele>226</ele>
        <time>2023-01-30T13:51:51.000Z</time>
      </trkpt>
      <trkpt lat="48.81459" lon="5.15647">
        <ele>226</ele>
        <time>2023-01-30T13:51:52.000Z</time>
      </trkpt>
      <trkpt lat="48.81459" lon="5.15648">
        <ele>226</ele>
        <time>2023-01-30T13:51:53.000Z</time>
      </trkpt>
      <trkpt lat="48.81459" lon="5.15648">
        <ele>226</ele>
        <time>2023-01-30T13:51:54.000Z</time>
      </trkpt>
      <trkpt lat="48.81459" lon="5.15648">
        <ele>226</ele>
        <time>2023-01-30T13:51:55.000Z</time>
      </trkpt>
      <trkpt lat="48.81459" lon="5.15648">
        <ele>226</ele>
        <time>2023-01-30T13:51:56.000Z</time>
      </trkpt>
      <trkpt lat="48.81459" lon="5.15648">
        <ele>226</ele>
        <time>2023-01-30T13:51:57.000Z</time>
      </trkpt>
      <trkpt lat="48.81459" lon="5.15648">
        <ele>226</ele>
        <time>2023-01-30T13:51:58.000Z</time>
      </trkpt>
      <trkpt lat="48.81458" lon="5.15648">
        <ele>226</ele>
        <time>2023-01-30T13:51:59.000Z</time>
      </trkpt>
      <trkpt lat="48.81458" lon="5.15648">
        <ele>227</ele>
        <time>2023-01-30T13:52:00.000Z</time>
      </trkpt>
      <trkpt lat="48.81457" lon="5.15649">
        <ele>227</ele>
        <time>2023-01-30T13:52:01.000Z</time>
      </trkpt>
      <trkpt lat="48.81457" lon="5.15649">
        <ele>227</ele>
        <time>2023-01-30T13:52:02.000Z</time>
      </trkpt>
      <trkpt lat="48.81456" lon="5.15649">
        <ele>227</ele>
        <time>2023-01-30T13:52:03.000Z</time>
      </trkpt>
      <trkpt lat="48.81456" lon="5.15649">
        <ele>227</ele>
        <time>2023-01-30T13:52:04.000Z</time>
      </trkpt>
      <trkpt lat="48.81456" lon="5.15649">
        <ele>227</ele>
        <time>2023-01-30T13:52:05.000Z</time>
      </trkpt>
      <trkpt lat="48.81455" lon="5.1565">
        <ele>226.5</ele>
        <time>2023-01-30T13:52:06.000Z</time>
      </trkpt>
      <trkpt lat="48.81455" lon="5.1565">
        <ele>226</ele>
        <time>2023-01-30T13:52:07.000Z</time>
      </trkpt>
      <trkpt lat="48.81455" lon="5.1565">
        <ele>226</ele>
        <time>2023-01-30T13:52:08.000Z</time>
      </trkpt>
      <trkpt lat="48.81455" lon="5.15651">
        <ele>226</ele>
        <time>2023-01-30T13:52:09.000Z</time>
      </trkpt>
      <trkpt lat="48.81455" lon="5.15651">
        <ele>226</ele>
        <time>2023-01-30T13:52:10.000Z</time>
      </trkpt>
      <trkpt lat="48.81455" lon="5.15652">
        <ele>226</ele>
        <time>2023-01-30T13:52:11.000Z</time>
      </trkpt>
      <trkpt lat="48.81455" lon="5.15652">
        <ele>226</ele>
        <time>2023-01-30T13:52:12.000Z</time>
      </trkpt>
      <trkpt lat="48.81455" lon="5.15653">
        <ele>226</ele>
        <time>2023-01-30T13:52:13.000Z</time>
      </trkpt>
      <trkpt lat="48.81455" lon="5.15653">
        <ele>226</ele>
        <time>2023-01-30T13:52:14.000Z</time>
      </trkpt>
      <trkpt lat="48.81456" lon="5.15653">
        <ele>226</ele>
        <time>2023-01-30T13:52:15.000Z</time>
      </trkpt>
      <trkpt lat="48.81456" lon="5.15654">
        <ele>226</ele>
        <time>2023-01-30T13:52:16.000Z</time>
      </trkpt>
      <trkpt lat="48.81456" lon="5.15654">
        <ele>226</ele>
        <time>2023-01-30T13:52:17.000Z</time>
      </trkpt>
      <trkpt lat="48.81456" lon="5.15654">
        <ele>226</ele>
        <time>2023-01-30T13:52:18.000Z</time>
      </trkpt>
      <trkpt lat="48.81456" lon="5.15655">
        <ele>226</ele>
        <time>2023-01-30T13:52:19.000Z</time>
      </trkpt>
      <trkpt lat="48.81456" lon="5.15655">
        <ele>226</ele>
        <time>2023-01-30T13:52:20.000Z</time>
      </trkpt>
      <trkpt lat="48.81456" lon="5.15655">
        <ele>226</ele>
        <time>2023-01-30T13:52:21.000Z</time>
      </trkpt>
      <trkpt lat="48.81455" lon="5.15656">
        <ele>226</ele>
        <time>2023-01-30T13:52:22.000Z</time>
      </trkpt>
      <trkpt lat="48.81455" lon="5.15656">
        <ele>226</ele>
        <time>2023-01-30T13:52:23.000Z</time>
      </trkpt>
      <trkpt lat="48.81455" lon="5.15656">
        <ele>226</ele>
        <time>2023-01-30T13:52:24.000Z</time>
      </trkpt>
      <trkpt lat="48.81454" lon="5.15657">
        <ele>226</ele>
        <time>2023-01-30T13:52:25.000Z</time>
      </trkpt>
      <trkpt lat="48.81454" lon="5.15657">
        <ele>226</ele>
        <time>2023-01-30T13:52:26.000Z</time>
      </trkpt>
      <trkpt lat="48.81453" lon="5.15657">
        <ele>226</ele>
        <time>2023-01-30T13:52:27.000Z</time>
      </trkpt>
      <trkpt lat="48.81453" lon="5.15657">
        <ele>226</ele>
        <time>2023-01-30T13:52:28.000Z</time>
      </trkpt>
      <trkpt lat="48.81452" lon="5.15658">
        <ele>226</ele>
        <time>2023-01-30T13:52:29.000Z</time>
      </trkpt>
      <trkpt lat="48.81452" lon="5.15658">
        <ele>226</ele>
        <time>2023-01-30T13:52:30.000Z</time>
      </trkpt>
      <trkpt lat="48.81452" lon="5.15658">
        <ele>226</ele>
        <time>2023-01-30T13:52:31.000Z</time>
      </trkpt>
      <trkpt lat="48.81451" lon="5.15658">
        <ele>226</ele>
        <time>2023-01-30T13:52:32.000Z</time>
      </trkpt>
      <trkpt lat="48.81451" lon="5.15658">
        <ele>226</ele>
        <time>2023-01-30T13:52:33.000Z</time>
      </trkpt>
      <trkpt lat="48.81451" lon="5.15658">
        <ele>226</ele>
        <time>2023-01-30T13:52:34.000Z</time>
      </trkpt>
      <trkpt lat="48.81451" lon="5.15658">
        <ele>226</ele>
        <time>2023-01-30T13:52:35.000Z</time>
      </trkpt>
      <trkpt lat="48.81451" lon="5.15658">
        <ele>226</ele>
        <time>2023-01-30T13:52:36.000Z</time>
      </trkpt>
      <trkpt lat="48.81451" lon="5.15657">
        <ele>226</ele>
        <time>2023-01-30T13:52:37.000Z</time>
      </trkpt>
      <trkpt lat="48.81451" lon="5.15657">
        <ele>226</ele>
        <time>2023-01-30T13:52:38.000Z</time>
      </trkpt>
      <trkpt lat="48.81451" lon="5.15657">
        <ele>226</ele>
        <time>2023-01-30T13:52:39.000Z</time>
      </trkpt>
      <trkpt lat="48.81451" lon="5.15657">
        <ele>226</ele>
        <time>2023-01-30T13:52:40.000Z</time>
      </trkpt>
      <trkpt lat="48.81451" lon="5.15657">
        <ele>226</ele>
        <time>2023-01-30T13:52:41.000Z</time>
      </trkpt>
      <trkpt lat="48.81451" lon="5.15657">
        <ele>226</ele>
        <time>2023-01-30T13:52:42.000Z</time>
      </trkpt>
      <trkpt lat="48.81451" lon="5.15657">
        <ele>226</ele>
        <time>2023-01-30T13:52:43.000Z</time>
      </trkpt>
      <trkpt lat="48.81451" lon="5.15657">
        <ele>226</ele>
        <time>2023-01-30T13:52:44.000Z</time>
      </trkpt>
      <trkpt lat="48.81451" lon="5.15657">
        <ele>226</ele>
        <time>2023-01-30T13:52:45.000Z</time>
      </trkpt>
      <trkpt lat="48.81451" lon="5.15657">
        <ele>226</ele>
        <time>2023-01-30T13:52:46.000Z</time>
      </trkpt>
      <trkpt lat="48.81451" lon="5.15657">
        <ele>226</ele>
        <time>2023-01-30T13:52:47.000Z</time>
      </trkpt>
      <trkpt lat="48.81451" lon="5.15657">
        <ele>226</ele>
        <time>2023-01-30T13:52:48.000Z</time>
      </trkpt>
      <trkpt lat="48.81451" lon="5.15657">
        <ele>226</ele>
        <time>2023-01-30T13:52:49.000Z</time>
      </trkpt>
      <trkpt lat="48.81451" lon="5.15657">
        <ele>226</ele>
        <time>2023-01-30T13:52:50.000Z</time>
      </trkpt>
      <trkpt lat="48.81451" lon="5.15657">
        <ele>226</ele>
        <time>2023-01-30T13:52:51.000Z</time>
      </trkpt>
      <trkpt lat="48.81451" lon="5.15657">
        <ele>226</ele>
        <time>2023-01-30T13:52:52.000Z</time>
      </trkpt>
      <trkpt lat="48.81451" lon="5.15657">
        <ele>226</ele>
        <time>2023-01-30T13:52:53.000Z</time>
      </trkpt>
      <trkpt lat="48.81451" lon="5.15657">
        <ele>226</ele>
        <time>2023-01-30T13:52:54.000Z</time>
      </trkpt>
      <trkpt lat="48.81451" lon="5.15657">
        <ele>226</ele>
        <time>2023-01-30T13:52:55.000Z</time>
      </trkpt>
      <trkpt lat="48.81452" lon="5.15656">
        <ele>226</ele>
        <time>2023-01-30T13:52:56.000Z</time>
      </trkpt>
      <trkpt lat="48.81453" lon="5.15655">
        <ele>226</ele>
        <time>2023-01-30T13:52:57.000Z</time>
      </trkpt>
      <trkpt lat="48.81454" lon="5.15655">
        <ele>226</ele>
        <time>2023-01-30T13:52:58.000Z</time>
      </trkpt>
      <trkpt lat="48.81455" lon="5.15654">
        <ele>226</ele>
        <time>2023-01-30T13:52:59.000Z</time>
      </trkpt>
      <trkpt lat="48.81456" lon="5.15653">
        <ele>226</ele>
        <time>2023-01-30T13:53:00.000Z</time>
      </trkpt>
      <trkpt lat="48.81456" lon="5.15653">
        <ele>226</ele>
        <time>2023-01-30T13:53:01.000Z</time>
      </trkpt>
      <trkpt lat="48.81456" lon="5.15653">
        <ele>226</ele>
        <time>2023-01-30T13:53:02.000Z</time>
      </trkpt>
      <trkpt lat="48.81456" lon="5.15653">
        <ele>226</ele>
        <time>2023-01-30T13:53:03.000Z</time>
      </trkpt>
      <trkpt lat="48.81456" lon="5.15653">
        <ele>226</ele>
        <time>2023-01-30T13:53:04.000Z</time>
      </trkpt>
      <trkpt lat="48.81456" lon="5.15653">
        <ele>226</ele>
        <time>2023-01-30T13:53:05.000Z</time>
      </trkpt>
      <trkpt lat="48.81456" lon="5.15653">
        <ele>226</ele>
        <time>2023-01-30T13:53:06.000Z</time>
      </trkpt>
      <trkpt lat="48.81456" lon="5.15653">
        <ele>226</ele>
        <time>2023-01-30T13:53:07.000Z</time>
      </trkpt>
      <trkpt lat="48.81456" lon="5.15653">
        <ele>226</ele>
        <time>2023-01-30T13:53:08.000Z</time>
      </trkpt>
      <trkpt lat="48.81456" lon="5.15653">
        <ele>226</ele>
        <time>2023-01-30T13:53:09.000Z</time>
      </trkpt>
      <trkpt lat="48.81456" lon="5.15653">
        <ele>226</ele>
        <time>2023-01-30T13:53:10.000Z</time>
      </trkpt>
      <trkpt lat="48.81456" lon="5.15653">
        <ele>226</ele>
        <time>2023-01-30T13:53:11.000Z</time>
      </trkpt>
      <trkpt lat="48.81456" lon="5.15653">
        <ele>226</ele>
        <time>2023-01-30T13:53:12.000Z</time>
      </trkpt>
      <trkpt lat="48.81456" lon="5.15653">
        <ele>226</ele>
        <time>2023-01-30T13:53:13.000Z</time>
      </trkpt>
      <trkpt lat="48.81456" lon="5.15653">
        <ele>226</ele>
        <time>2023-01-30T13:53:14.000Z</time>
      </trkpt>
      <trkpt lat="48.81456" lon="5.15653">
        <ele>226</ele>
        <time>2023-01-30T13:53:15.000Z</time>
      </trkpt>
      <trkpt lat="48.81456" lon="5.15653">
        <ele>226</ele>
        <time>2023-01-30T13:53:16.000Z</time>
      </trkpt>
      <trkpt lat="48.81456" lon="5.15654">
        <ele>226</ele>
        <time>2023-01-30T13:53:17.000Z</time>
      </trkpt>
      <trkpt lat="48.81456" lon="5.15655">
        <ele>226</ele>
        <time>2023-01-30T13:53:18.000Z</time>
      </trkpt>
      <trkpt lat="48.81456" lon="5.15655">
        <ele>226</ele>
        <time>2023-01-30T13:53:19.000Z</time>
      </trkpt>
      <trkpt lat="48.81456" lon="5.15656">
        <ele>226</ele>
        <time>2023-01-30T13:53:20.000Z</time>
      </trkpt>
      <trkpt lat="48.81455" lon="5.15656">
        <ele>226</ele>
        <time>2023-01-30T13:53:21.000Z</time>
      </trkpt>
      <trkpt lat="48.81455" lon="5.15657">
        <ele>226</ele>
        <time>2023-01-30T13:53:22.000Z</time>
      </trkpt>
      <trkpt lat="48.81454" lon="5.15658">
        <ele>226</ele>
        <time>2023-01-30T13:53:23.000Z</time>
      </trkpt>
      <trkpt lat="48.81453" lon="5.15659">
        <ele>226</ele>
        <time>2023-01-30T13:53:24.000Z</time>
      </trkpt>
      <trkpt lat="48.81452" lon="5.1566">
        <ele>226.3</ele>
        <time>2023-01-30T13:53:25.000Z</time>
      </trkpt>
      <trkpt lat="48.81451" lon="5.15661">
        <ele>226.7</ele>
        <time>2023-01-30T13:53:26.000Z</time>
      </trkpt>
      <trkpt lat="48.81449" lon="5.15662">
        <ele>227</ele>
        <time>2023-01-30T13:53:27.000Z</time>
      </trkpt>
      <trkpt lat="48.81448" lon="5.15663">
        <ele>227</ele>
        <time>2023-01-30T13:53:28.000Z</time>
      </trkpt>
      <trkpt lat="48.81446" lon="5.15664">
        <ele>227</ele>
        <time>2023-01-30T13:53:29.000Z</time>
      </trkpt>
      <trkpt lat="48.81445" lon="5.15665">
        <ele>227</ele>
        <time>2023-01-30T13:53:30.000Z</time>
      </trkpt>
      <trkpt lat="48.81443" lon="5.15665">
        <ele>227</ele>
        <time>2023-01-30T13:53:31.000Z</time>
      </trkpt>
      <trkpt lat="48.81442" lon="5.15666">
        <ele>227</ele>
        <time>2023-01-30T13:53:32.000Z</time>
      </trkpt>
      <trkpt lat="48.81441" lon="5.15666">
        <ele>227</ele>
        <time>2023-01-30T13:53:33.000Z</time>
      </trkpt>
      <trkpt lat="48.81441" lon="5.15667">
        <ele>227</ele>
        <time>2023-01-30T13:53:34.000Z</time>
      </trkpt>
      <trkpt lat="48.8144" lon="5.15668">
        <ele>227</ele>
        <time>2023-01-30T13:53:35.000Z</time>
      </trkpt>
      <trkpt lat="48.81439" lon="5.15668">
        <ele>228</ele>
        <time>2023-01-30T13:53:36.000Z</time>
      </trkpt>
      <trkpt lat="48.81438" lon="5.15669">
        <ele>228</ele>
        <time>2023-01-30T13:53:37.000Z</time>
      </trkpt>
      <trkpt lat="48.81436" lon="5.15671">
        <ele>228</ele>
        <time>2023-01-30T13:53:38.000Z</time>
      </trkpt>
      <trkpt lat="48.81435" lon="5.15672">
        <ele>228</ele>
        <time>2023-01-30T13:53:39.000Z</time>
      </trkpt>
      <trkpt lat="48.81434" lon="5.15673">
        <ele>228</ele>
        <time>2023-01-30T13:53:40.000Z</time>
      </trkpt>
      <trkpt lat="48.81433" lon="5.15674">
        <ele>228.3</ele>
        <time>2023-01-30T13:53:41.000Z</time>
      </trkpt>
      <trkpt lat="48.81432" lon="5.15676">
        <ele>228.7</ele>
        <time>2023-01-30T13:53:42.000Z</time>
      </trkpt>
      <trkpt lat="48.81431" lon="5.15677">
        <ele>229</ele>
        <time>2023-01-30T13:53:43.000Z</time>
      </trkpt>
      <trkpt lat="48.8143" lon="5.15678">
        <ele>229</ele>
        <time>2023-01-30T13:53:44.000Z</time>
      </trkpt>
      <trkpt lat="48.81429" lon="5.15679">
        <ele>229</ele>
        <time>2023-01-30T13:53:45.000Z</time>
      </trkpt>
      <trkpt lat="48.81428" lon="5.1568">
        <ele>229</ele>
        <time>2023-01-30T13:53:46.000Z</time>
      </trkpt>
      <trkpt lat="48.81426" lon="5.15681">
        <ele>229</ele>
        <time>2023-01-30T13:53:47.000Z</time>
      </trkpt>
      <trkpt lat="48.81424" lon="5.15682">
        <ele>230</ele>
        <time>2023-01-30T13:53:48.000Z</time>
      </trkpt>
      <trkpt lat="48.81421" lon="5.15684">
        <ele>230</ele>
        <time>2023-01-30T13:53:49.000Z</time>
      </trkpt>
      <trkpt lat="48.8142" lon="5.15685">
        <ele>230</ele>
        <time>2023-01-30T13:53:50.000Z</time>
      </trkpt>
      <trkpt lat="48.81419" lon="5.15686">
        <ele>230</ele>
        <time>2023-01-30T13:53:51.000Z</time>
      </trkpt>
      <trkpt lat="48.81418" lon="5.15687">
        <ele>230</ele>
        <time>2023-01-30T13:53:52.000Z</time>
      </trkpt>
      <trkpt lat="48.81417" lon="5.15688">
        <ele>230</ele>
        <time>2023-01-30T13:53:53.000Z</time>
      </trkpt>
      <trkpt lat="48.81416" lon="5.15689">
        <ele>230</ele>
        <time>2023-01-30T13:53:54.000Z</time>
      </trkpt>
      <trkpt lat="48.81415" lon="5.1569">
        <ele>230</ele>
        <time>2023-01-30T13:53:55.000Z</time>
      </trkpt>
      <trkpt lat="48.81414" lon="5.15691">
        <ele>230.5</ele>
        <time>2023-01-30T13:53:56.000Z</time>
      </trkpt>
      <trkpt lat="48.81412" lon="5.15693">
        <ele>231</ele>
        <time>2023-01-30T13:53:57.000Z</time>
      </trkpt>
      <trkpt lat="48.8141" lon="5.15694">
        <ele>231</ele>
        <time>2023-01-30T13:53:58.000Z</time>
      </trkpt>
      <trkpt lat="48.81409" lon="5.15696">
        <ele>231</ele>
        <time>2023-01-30T13:53:59.000Z</time>
      </trkpt>
      <trkpt lat="48.81407" lon="5.15697">
        <ele>231</ele>
        <time>2023-01-30T13:54:00.000Z</time>
      </trkpt>
      <trkpt lat="48.81406" lon="5.15698">
        <ele>231</ele>
        <time>2023-01-30T13:54:01.000Z</time>
      </trkpt>
      <trkpt lat="48.81405" lon="5.15698">
        <ele>231</ele>
        <time>2023-01-30T13:54:02.000Z</time>
      </trkpt>
      <trkpt lat="48.81403" lon="5.15699">
        <ele>231</ele>
        <time>2023-01-30T13:54:03.000Z</time>
      </trkpt>
      <trkpt lat="48.81402" lon="5.157">
        <ele>231</ele>
        <time>2023-01-30T13:54:04.000Z</time>
      </trkpt>
      <trkpt lat="48.814" lon="5.15701">
        <ele>231</ele>
        <time>2023-01-30T13:54:05.000Z</time>
      </trkpt>
      <trkpt lat="48.81399" lon="5.15702">
        <ele>231</ele>
        <time>2023-01-30T13:54:06.000Z</time>
      </trkpt>
      <trkpt lat="48.81399" lon="5.15702">
        <ele>231.3</ele>
        <time>2023-01-30T13:54:07.000Z</time>
      </trkpt>
      <trkpt lat="48.81398" lon="5.15703">
        <ele>231.7</ele>
        <time>2023-01-30T13:54:08.000Z</time>
      </trkpt>
      <trkpt lat="48.81397" lon="5.15704">
        <ele>232</ele>
        <time>2023-01-30T13:54:09.000Z</time>
      </trkpt>
      <trkpt lat="48.81396" lon="5.15705">
        <ele>232</ele>
        <time>2023-01-30T13:54:10.000Z</time>
      </trkpt>
      <trkpt lat="48.81395" lon="5.15706">
        <ele>232</ele>
        <time>2023-01-30T13:54:11.000Z</time>
      </trkpt>
      <trkpt lat="48.81394" lon="5.15707">
        <ele>232</ele>
        <time>2023-01-30T13:54:12.000Z</time>
      </trkpt>
      <trkpt lat="48.81393" lon="5.15708">
        <ele>232</ele>
        <time>2023-01-30T13:54:13.000Z</time>
      </trkpt>
      <trkpt lat="48.81392" lon="5.1571">
        <ele>233</ele>
        <time>2023-01-30T13:54:14.000Z</time>
      </trkpt>
      <trkpt lat="48.81391" lon="5.15711">
        <ele>233</ele>
        <time>2023-01-30T13:54:15.000Z</time>
      </trkpt>
      <trkpt lat="48.8139" lon="5.15713">
        <ele>233</ele>
        <time>2023-01-30T13:54:16.000Z</time>
      </trkpt>
      <trkpt lat="48.81389" lon="5.15715">
        <ele>233</ele>
        <time>2023-01-30T13:54:17.000Z</time>
      </trkpt>
      <trkpt lat="48.81388" lon="5.15716">
        <ele>233</ele>
        <time>2023-01-30T13:54:18.000Z</time>
      </trkpt>
      <trkpt lat="48.81387" lon="5.15717">
        <ele>233</ele>
        <time>2023-01-30T13:54:19.000Z</time>
      </trkpt>
      <trkpt lat="48.81386" lon="5.15718">
        <ele>233</ele>
        <time>2023-01-30T13:54:20.000Z</time>
      </trkpt>
      <trkpt lat="48.81385" lon="5.15719">
        <ele>233</ele>
        <time>2023-01-30T13:54:21.000Z</time>
      </trkpt>
      <trkpt lat="48.81383" lon="5.15721">
        <ele>233</ele>
        <time>2023-01-30T13:54:22.000Z</time>
      </trkpt>
      <trkpt lat="48.81382" lon="5.15722">
        <ele>233</ele>
        <time>2023-01-30T13:54:23.000Z</time>
      </trkpt>
      <trkpt lat="48.81381" lon="5.15723">
        <ele>233</ele>
        <time>2023-01-30T13:54:24.000Z</time>
      </trkpt>
      <trkpt lat="48.8138" lon="5.15724">
        <ele>233.5</ele>
        <time>2023-01-30T13:54:25.000Z</time>
      </trkpt>
      <trkpt lat="48.81379" lon="5.15726">
        <ele>234</ele>
        <time>2023-01-30T13:54:26.000Z</time>
      </trkpt>
      <trkpt lat="48.81378" lon="5.15727">
        <ele>234</ele>
        <time>2023-01-30T13:54:27.000Z</time>
      </trkpt>
      <trkpt lat="48.81377" lon="5.15728">
        <ele>234</ele>
        <time>2023-01-30T13:54:28.000Z</time>
      </trkpt>
      <trkpt lat="48.81376" lon="5.1573">
        <ele>234</ele>
        <time>2023-01-30T13:54:29.000Z</time>
      </trkpt>
      <trkpt lat="48.81375" lon="5.15731">
        <ele>234</ele>
        <time>2023-01-30T13:54:30.000Z</time>
      </trkpt>
      <trkpt lat="48.81374" lon="5.15733">
        <ele>234</ele>
        <time>2023-01-30T13:54:31.000Z</time>
      </trkpt>
      <trkpt lat="48.81373" lon="5.15734">
        <ele>234</ele>
        <time>2023-01-30T13:54:32.000Z</time>
      </trkpt>
      <trkpt lat="48.81372" lon="5.15735">
        <ele>234</ele>
        <time>2023-01-30T13:54:33.000Z</time>
      </trkpt>
      <trkpt lat="48.81371" lon="5.15736">
        <ele>234</ele>
        <time>2023-01-30T13:54:34.000Z</time>
      </trkpt>
      <trkpt lat="48.8137" lon="5.15737">
        <ele>234</ele>
        <time>2023-01-30T13:54:35.000Z</time>
      </trkpt>
      <trkpt lat="48.8137" lon="5.15738">
        <ele>234</ele>
        <time>2023-01-30T13:54:36.000Z</time>
      </trkpt>
      <trkpt lat="48.81369" lon="5.15739">
        <ele>234</ele>
        <time>2023-01-30T13:54:37.000Z</time>
      </trkpt>
      <trkpt lat="48.81368" lon="5.1574">
        <ele>234</ele>
        <time>2023-01-30T13:54:38.000Z</time>
      </trkpt>
      <trkpt lat="48.81367" lon="5.1574">
        <ele>234</ele>
        <time>2023-01-30T13:54:39.000Z</time>
      </trkpt>
      <trkpt lat="48.81366" lon="5.15741">
        <ele>234</ele>
        <time>2023-01-30T13:54:40.000Z</time>
      </trkpt>
      <trkpt lat="48.81365" lon="5.15742">
        <ele>234.3</ele>
        <time>2023-01-30T13:54:41.000Z</time>
      </trkpt>
      <trkpt lat="48.81364" lon="5.15743">
        <ele>234.7</ele>
        <time>2023-01-30T13:54:42.000Z</time>
      </trkpt>
      <trkpt lat="48.81363" lon="5.15744">
        <ele>235</ele>
        <time>2023-01-30T13:54:43.000Z</time>
      </trkpt>
      <trkpt lat="48.81362" lon="5.15744">
        <ele>235</ele>
        <time>2023-01-30T13:54:44.000Z</time>
      </trkpt>
      <trkpt lat="48.81361" lon="5.15745">
        <ele>235</ele>
        <time>2023-01-30T13:54:45.000Z</time>
      </trkpt>
      <trkpt lat="48.81359" lon="5.15746">
        <ele>235</ele>
        <time>2023-01-30T13:54:46.000Z</time>
      </trkpt>
      <trkpt lat="48.81358" lon="5.15747">
        <ele>235</ele>
        <time>2023-01-30T13:54:47.000Z</time>
      </trkpt>
      <trkpt lat="48.81357" lon="5.15747">
        <ele>235</ele>
        <time>2023-01-30T13:54:48.000Z</time>
      </trkpt>
      <trkpt lat="48.81356" lon="5.15748">
        <ele>235</ele>
        <time>2023-01-30T13:54:49.000Z</time>
      </trkpt>
      <trkpt lat="48.81354" lon="5.15749">
        <ele>235</ele>
        <time>2023-01-30T13:54:50.000Z</time>
      </trkpt>
      <trkpt lat="48.81353" lon="5.15751">
        <ele>235</ele>
        <time>2023-01-30T13:54:51.000Z</time>
      </trkpt>
      <trkpt lat="48.81351" lon="5.15753">
        <ele>235</ele>
        <time>2023-01-30T13:54:52.000Z</time>
      </trkpt>
      <trkpt lat="48.81348" lon="5.15755">
        <ele>235</ele>
        <time>2023-01-30T13:54:53.000Z</time>
      </trkpt>
      <trkpt lat="48.81346" lon="5.15757">
        <ele>235</ele>
        <time>2023-01-30T13:54:54.000Z</time>
      </trkpt>
      <trkpt lat="48.81345" lon="5.15759">
        <ele>235</ele>
        <time>2023-01-30T13:54:55.000Z</time>
      </trkpt>
      <trkpt lat="48.81344" lon="5.1576">
        <ele>235</ele>
        <time>2023-01-30T13:54:56.000Z</time>
      </trkpt>
      <trkpt lat="48.81342" lon="5.15761">
        <ele>235</ele>
        <time>2023-01-30T13:54:57.000Z</time>
      </trkpt>
      <trkpt lat="48.81341" lon="5.15763">
        <ele>235</ele>
        <time>2023-01-30T13:54:58.000Z</time>
      </trkpt>
      <trkpt lat="48.8134" lon="5.15764">
        <ele>235</ele>
        <time>2023-01-30T13:54:59.000Z</time>
      </trkpt>
      <trkpt lat="48.81338" lon="5.15765">
        <ele>235</ele>
        <time>2023-01-30T13:55:00.000Z</time>
      </trkpt>
      <trkpt lat="48.81337" lon="5.15766">
        <ele>235</ele>
        <time>2023-01-30T13:55:01.000Z</time>
      </trkpt>
      <trkpt lat="48.81335" lon="5.15767">
        <ele>235</ele>
        <time>2023-01-30T13:55:02.000Z</time>
      </trkpt>
      <trkpt lat="48.81334" lon="5.15768">
        <ele>235</ele>
        <time>2023-01-30T13:55:03.000Z</time>
      </trkpt>
      <trkpt lat="48.81333" lon="5.15769">
        <ele>235</ele>
        <time>2023-01-30T13:55:04.000Z</time>
      </trkpt>
      <trkpt lat="48.81331" lon="5.1577">
        <ele>235</ele>
        <time>2023-01-30T13:55:05.000Z</time>
      </trkpt>
      <trkpt lat="48.8133" lon="5.15771">
        <ele>235</ele>
        <time>2023-01-30T13:55:06.000Z</time>
      </trkpt>
      <trkpt lat="48.81329" lon="5.15772">
        <ele>235</ele>
        <time>2023-01-30T13:55:07.000Z</time>
      </trkpt>
      <trkpt lat="48.81328" lon="5.15773">
        <ele>235</ele>
        <time>2023-01-30T13:55:08.000Z</time>
      </trkpt>
      <trkpt lat="48.81327" lon="5.15774">
        <ele>235</ele>
        <time>2023-01-30T13:55:09.000Z</time>
      </trkpt>
      <trkpt lat="48.81326" lon="5.15775">
        <ele>235</ele>
        <time>2023-01-30T13:55:10.000Z</time>
      </trkpt>
      <trkpt lat="48.81325" lon="5.15776">
        <ele>235</ele>
        <time>2023-01-30T13:55:11.000Z</time>
      </trkpt>
      <trkpt lat="48.81324" lon="5.15777">
        <ele>235</ele>
        <time>2023-01-30T13:55:12.000Z</time>
      </trkpt>
      <trkpt lat="48.81323" lon="5.15778">
        <ele>235</ele>
        <time>2023-01-30T13:55:13.000Z</time>
      </trkpt>
      <trkpt lat="48.81322" lon="5.15779">
        <ele>235</ele>
        <time>2023-01-30T13:55:14.000Z</time>
      </trkpt>
      <trkpt lat="48.81322" lon="5.1578">
        <ele>235</ele>
        <time>2023-01-30T13:55:15.000Z</time>
      </trkpt>
      <trkpt lat="48.81321" lon="5.15782">
        <ele>235</ele>
        <time>2023-01-30T13:55:16.000Z</time>
      </trkpt>
      <trkpt lat="48.8132" lon="5.15783">
        <ele>235</ele>
        <time>2023-01-30T13:55:17.000Z</time>
      </trkpt>
      <trkpt lat="48.81319" lon="5.15784">
        <ele>235</ele>
        <time>2023-01-30T13:55:18.000Z</time>
      </trkpt>
      <trkpt lat="48.81319" lon="5.15785">
        <ele>235</ele>
        <time>2023-01-30T13:55:19.000Z</time>
      </trkpt>
      <trkpt lat="48.81318" lon="5.15786">
        <ele>235</ele>
        <time>2023-01-30T13:55:20.000Z</time>
      </trkpt>
      <trkpt lat="48.81317" lon="5.15787">
        <ele>235</ele>
        <time>2023-01-30T13:55:21.000Z</time>
      </trkpt>
      <trkpt lat="48.81316" lon="5.15787">
        <ele>235</ele>
        <time>2023-01-30T13:55:22.000Z</time>
      </trkpt>
      <trkpt lat="48.81315" lon="5.15788">
        <ele>235</ele>
        <time>2023-01-30T13:55:23.000Z</time>
      </trkpt>
      <trkpt lat="48.81314" lon="5.15789">
        <ele>235</ele>
        <time>2023-01-30T13:55:24.000Z</time>
      </trkpt>
      <trkpt lat="48.81313" lon="5.1579">
        <ele>235</ele>
        <time>2023-01-30T13:55:25.000Z</time>
      </trkpt>
      <trkpt lat="48.81313" lon="5.15791">
        <ele>235</ele>
        <time>2023-01-30T13:55:26.000Z</time>
      </trkpt>
      <trkpt lat="48.81312" lon="5.15792">
        <ele>235</ele>
        <time>2023-01-30T13:55:27.000Z</time>
      </trkpt>
      <trkpt lat="48.81311" lon="5.15793">
        <ele>235</ele>
        <time>2023-01-30T13:55:28.000Z</time>
      </trkpt>
      <trkpt lat="48.8131" lon="5.15795">
        <ele>235</ele>
        <time>2023-01-30T13:55:29.000Z</time>
      </trkpt>
      <trkpt lat="48.81308" lon="5.15797">
        <ele>235</ele>
        <time>2023-01-30T13:55:30.000Z</time>
      </trkpt>
      <trkpt lat="48.81307" lon="5.15798">
        <ele>235</ele>
        <time>2023-01-30T13:55:31.000Z</time>
      </trkpt>
      <trkpt lat="48.81305" lon="5.158">
        <ele>235</ele>
        <time>2023-01-30T13:55:32.000Z</time>
      </trkpt>
      <trkpt lat="48.81304" lon="5.15801">
        <ele>235</ele>
        <time>2023-01-30T13:55:33.000Z</time>
      </trkpt>
      <trkpt lat="48.81303" lon="5.15802">
        <ele>235</ele>
        <time>2023-01-30T13:55:34.000Z</time>
      </trkpt>
      <trkpt lat="48.81302" lon="5.15804">
        <ele>235</ele>
        <time>2023-01-30T13:55:35.000Z</time>
      </trkpt>
      <trkpt lat="48.813" lon="5.15805">
        <ele>235</ele>
        <time>2023-01-30T13:55:36.000Z</time>
      </trkpt>
      <trkpt lat="48.81299" lon="5.15806">
        <ele>235</ele>
        <time>2023-01-30T13:55:37.000Z</time>
      </trkpt>
      <trkpt lat="48.81298" lon="5.15808">
        <ele>235.5</ele>
        <time>2023-01-30T13:55:38.000Z</time>
      </trkpt>
      <trkpt lat="48.81297" lon="5.15809">
        <ele>236</ele>
        <time>2023-01-30T13:55:39.000Z</time>
      </trkpt>
      <trkpt lat="48.81296" lon="5.1581">
        <ele>236</ele>
        <time>2023-01-30T13:55:40.000Z</time>
      </trkpt>
      <trkpt lat="48.81295" lon="5.15812">
        <ele>236</ele>
        <time>2023-01-30T13:55:41.000Z</time>
      </trkpt>
      <trkpt lat="48.81294" lon="5.15813">
        <ele>236</ele>
        <time>2023-01-30T13:55:42.000Z</time>
      </trkpt>
      <trkpt lat="48.81293" lon="5.15814">
        <ele>236</ele>
        <time>2023-01-30T13:55:43.000Z</time>
      </trkpt>
      <trkpt lat="48.81291" lon="5.15816">
        <ele>236</ele>
        <time>2023-01-30T13:55:44.000Z</time>
      </trkpt>
      <trkpt lat="48.8129" lon="5.15817">
        <ele>236</ele>
        <time>2023-01-30T13:55:45.000Z</time>
      </trkpt>
      <trkpt lat="48.81289" lon="5.15818">
        <ele>236</ele>
        <time>2023-01-30T13:55:46.000Z</time>
      </trkpt>
      <trkpt lat="48.81287" lon="5.15819">
        <ele>236</ele>
        <time>2023-01-30T13:55:47.000Z</time>
      </trkpt>
      <trkpt lat="48.81286" lon="5.1582">
        <ele>236</ele>
        <time>2023-01-30T13:55:48.000Z</time>
      </trkpt>
      <trkpt lat="48.81285" lon="5.15821">
        <ele>236</ele>
        <time>2023-01-30T13:55:49.000Z</time>
      </trkpt>
      <trkpt lat="48.81283" lon="5.15822">
        <ele>236</ele>
        <time>2023-01-30T13:55:50.000Z</time>
      </trkpt>
      <trkpt lat="48.81281" lon="5.15823">
        <ele>236</ele>
        <time>2023-01-30T13:55:51.000Z</time>
      </trkpt>
      <trkpt lat="48.8128" lon="5.15824">
        <ele>236</ele>
        <time>2023-01-30T13:55:52.000Z</time>
      </trkpt>
      <trkpt lat="48.81278" lon="5.15825">
        <ele>236</ele>
        <time>2023-01-30T13:55:53.000Z</time>
      </trkpt>
      <trkpt lat="48.81277" lon="5.15826">
        <ele>236</ele>
        <time>2023-01-30T13:55:54.000Z</time>
      </trkpt>
      <trkpt lat="48.81276" lon="5.15827">
        <ele>236</ele>
        <time>2023-01-30T13:55:55.000Z</time>
      </trkpt>
      <trkpt lat="48.81275" lon="5.15829">
        <ele>236</ele>
        <time>2023-01-30T13:55:56.000Z</time>
      </trkpt>
      <trkpt lat="48.81274" lon="5.1583">
        <ele>236</ele>
        <time>2023-01-30T13:55:57.000Z</time>
      </trkpt>
      <trkpt lat="48.81272" lon="5.15832">
        <ele>236</ele>
        <time>2023-01-30T13:55:58.000Z</time>
      </trkpt>
      <trkpt lat="48.81271" lon="5.15833">
        <ele>236</ele>
        <time>2023-01-30T13:55:59.000Z</time>
      </trkpt>
      <trkpt lat="48.8127" lon="5.15833">
        <ele>236</ele>
        <time>2023-01-30T13:56:00.000Z</time>
      </trkpt>
      <trkpt lat="48.81269" lon="5.15834">
        <ele>236</ele>
        <time>2023-01-30T13:56:01.000Z</time>
      </trkpt>
      <trkpt lat="48.81268" lon="5.15835">
        <ele>236</ele>
        <time>2023-01-30T13:56:02.000Z</time>
      </trkpt>
      <trkpt lat="48.81267" lon="5.15836">
        <ele>236.5</ele>
        <time>2023-01-30T13:56:03.000Z</time>
      </trkpt>
      <trkpt lat="48.81265" lon="5.15837">
        <ele>237</ele>
        <time>2023-01-30T13:56:04.000Z</time>
      </trkpt>
      <trkpt lat="48.81264" lon="5.15838">
        <ele>236.7</ele>
        <time>2023-01-30T13:56:05.000Z</time>
      </trkpt>
      <trkpt lat="48.81263" lon="5.15838">
        <ele>236.3</ele>
        <time>2023-01-30T13:56:06.000Z</time>
      </trkpt>
      <trkpt lat="48.81262" lon="5.15839">
        <ele>236</ele>
        <time>2023-01-30T13:56:07.000Z</time>
      </trkpt>
      <trkpt lat="48.8126" lon="5.1584">
        <ele>236</ele>
        <time>2023-01-30T13:56:08.000Z</time>
      </trkpt>
      <trkpt lat="48.81258" lon="5.15841">
        <ele>236</ele>
        <time>2023-01-30T13:56:09.000Z</time>
      </trkpt>
      <trkpt lat="48.81257" lon="5.15842">
        <ele>236</ele>
        <time>2023-01-30T13:56:10.000Z</time>
      </trkpt>
      <trkpt lat="48.81255" lon="5.15844">
        <ele>236</ele>
        <time>2023-01-30T13:56:11.000Z</time>
      </trkpt>
      <trkpt lat="48.81254" lon="5.15846">
        <ele>236</ele>
        <time>2023-01-30T13:56:12.000Z</time>
      </trkpt>
      <trkpt lat="48.81252" lon="5.15849">
        <ele>236</ele>
        <time>2023-01-30T13:56:13.000Z</time>
      </trkpt>
      <trkpt lat="48.81251" lon="5.15851">
        <ele>236</ele>
        <time>2023-01-30T13:56:14.000Z</time>
      </trkpt>
      <trkpt lat="48.81249" lon="5.15853">
        <ele>236</ele>
        <time>2023-01-30T13:56:15.000Z</time>
      </trkpt>
      <trkpt lat="48.81248" lon="5.15854">
        <ele>236</ele>
        <time>2023-01-30T13:56:16.000Z</time>
      </trkpt>
      <trkpt lat="48.81246" lon="5.15855">
        <ele>236</ele>
        <time>2023-01-30T13:56:17.000Z</time>
      </trkpt>
      <trkpt lat="48.81245" lon="5.15857">
        <ele>236</ele>
        <time>2023-01-30T13:56:18.000Z</time>
      </trkpt>
      <trkpt lat="48.81244" lon="5.15858">
        <ele>236</ele>
        <time>2023-01-30T13:56:19.000Z</time>
      </trkpt>
      <trkpt lat="48.81244" lon="5.1586">
        <ele>236</ele>
        <time>2023-01-30T13:56:20.000Z</time>
      </trkpt>
      <trkpt lat="48.81244" lon="5.15861">
        <ele>236</ele>
        <time>2023-01-30T13:56:21.000Z</time>
      </trkpt>
      <trkpt lat="48.81244" lon="5.15863">
        <ele>237</ele>
        <time>2023-01-30T13:56:22.000Z</time>
      </trkpt>
      <trkpt lat="48.81244" lon="5.15864">
        <ele>237</ele>
        <time>2023-01-30T13:56:23.000Z</time>
      </trkpt>
      <trkpt lat="48.81244" lon="5.15865">
        <ele>237</ele>
        <time>2023-01-30T13:56:24.000Z</time>
      </trkpt>
      <trkpt lat="48.81245" lon="5.15866">
        <ele>237</ele>
        <time>2023-01-30T13:56:25.000Z</time>
      </trkpt>
      <trkpt lat="48.81245" lon="5.15867">
        <ele>237</ele>
        <time>2023-01-30T13:56:26.000Z</time>
      </trkpt>
      <trkpt lat="48.81245" lon="5.15868">
        <ele>237</ele>
        <time>2023-01-30T13:56:27.000Z</time>
      </trkpt>
      <trkpt lat="48.81246" lon="5.15869">
        <ele>237</ele>
        <time>2023-01-30T13:56:28.000Z</time>
      </trkpt>
      <trkpt lat="48.81246" lon="5.1587">
        <ele>237</ele>
        <time>2023-01-30T13:56:29.000Z</time>
      </trkpt>
      <trkpt lat="48.81246" lon="5.1587">
        <ele>237</ele>
        <time>2023-01-30T13:56:30.000Z</time>
      </trkpt>
      <trkpt lat="48.81246" lon="5.15871">
        <ele>237</ele>
        <time>2023-01-30T13:56:31.000Z</time>
      </trkpt>
      <trkpt lat="48.81246" lon="5.15871">
        <ele>237</ele>
        <time>2023-01-30T13:56:32.000Z</time>
      </trkpt>
      <trkpt lat="48.81246" lon="5.15871">
        <ele>237</ele>
        <time>2023-01-30T13:56:33.000Z</time>
      </trkpt>
      <trkpt lat="48.81246" lon="5.15872">
        <ele>237</ele>
        <time>2023-01-30T13:56:34.000Z</time>
      </trkpt>
      <trkpt lat="48.81246" lon="5.15872">
        <ele>237</ele>
        <time>2023-01-30T13:56:35.000Z</time>
      </trkpt>
      <trkpt lat="48.81246" lon="5.15872">
        <ele>237</ele>
        <time>2023-01-30T13:56:36.000Z</time>
      </trkpt>
      <trkpt lat="48.81246" lon="5.15872">
        <ele>237</ele>
        <time>2023-01-30T13:56:37.000Z</time>
      </trkpt>
      <trkpt lat="48.81246" lon="5.15872">
        <ele>237</ele>
        <time>2023-01-30T13:56:38.000Z</time>
      </trkpt>
      <trkpt lat="48.81246" lon="5.15872">
        <ele>237</ele>
        <time>2023-01-30T13:56:39.000Z</time>
      </trkpt>
      <trkpt lat="48.81246" lon="5.15872">
        <ele>237</ele>
        <time>2023-01-30T13:56:40.000Z</time>
      </trkpt>
      <trkpt lat="48.81246" lon="5.15872">
        <ele>237</ele>
        <time>2023-01-30T13:56:41.000Z</time>
      </trkpt>
      <trkpt lat="48.81246" lon="5.15872">
        <ele>237</ele>
        <time>2023-01-30T13:56:42.000Z</time>
      </trkpt>
      <trkpt lat="48.81246" lon="5.15872">
        <ele>237</ele>
        <time>2023-01-30T13:56:43.000Z</time>
      </trkpt>
      <trkpt lat="48.81247" lon="5.15872">
        <ele>237</ele>
        <time>2023-01-30T13:56:44.000Z</time>
      </trkpt>
      <trkpt lat="48.81247" lon="5.15873">
        <ele>237</ele>
        <time>2023-01-30T13:56:45.000Z</time>
      </trkpt>
      <trkpt lat="48.81248" lon="5.15873">
        <ele>237</ele>
        <time>2023-01-30T13:56:46.000Z</time>
      </trkpt>
      <trkpt lat="48.81248" lon="5.15874">
        <ele>237</ele>
        <time>2023-01-30T13:56:47.000Z</time>
      </trkpt>
      <trkpt lat="48.81249" lon="5.15874">
        <ele>237</ele>
        <time>2023-01-30T13:56:48.000Z</time>
      </trkpt>
      <trkpt lat="48.81249" lon="5.15875">
        <ele>237</ele>
        <time>2023-01-30T13:56:49.000Z</time>
      </trkpt>
      <trkpt lat="48.8125" lon="5.15876">
        <ele>237</ele>
        <time>2023-01-30T13:56:50.000Z</time>
      </trkpt>
      <trkpt lat="48.81251" lon="5.15877">
        <ele>237.3</ele>
        <time>2023-01-30T13:56:51.000Z</time>
      </trkpt>
      <trkpt lat="48.81251" lon="5.15878">
        <ele>237.7</ele>
        <time>2023-01-30T13:56:52.000Z</time>
      </trkpt>
      <trkpt lat="48.81252" lon="5.15879">
        <ele>238</ele>
        <time>2023-01-30T13:56:53.000Z</time>
      </trkpt>
      <trkpt lat="48.81252" lon="5.15879">
        <ele>238</ele>
        <time>2023-01-30T13:56:54.000Z</time>
      </trkpt>
      <trkpt lat="48.81252" lon="5.1588">
        <ele>238</ele>
        <time>2023-01-30T13:56:55.000Z</time>
      </trkpt>
      <trkpt lat="48.81252" lon="5.1588">
        <ele>238</ele>
        <time>2023-01-30T13:56:56.000Z</time>
      </trkpt>
      <trkpt lat="48.81252" lon="5.15881">
        <ele>238</ele>
        <time>2023-01-30T13:56:57.000Z</time>
      </trkpt>
      <trkpt lat="48.81252" lon="5.15881">
        <ele>238</ele>
        <time>2023-01-30T13:56:58.000Z</time>
      </trkpt>
      <trkpt lat="48.81252" lon="5.15881">
        <ele>238</ele>
        <time>2023-01-30T13:56:59.000Z</time>
      </trkpt>
      <trkpt lat="48.81252" lon="5.15881">
        <ele>238</ele>
        <time>2023-01-30T13:57:00.000Z</time>
      </trkpt>
      <trkpt lat="48.81253" lon="5.15881">
        <ele>238</ele>
        <time>2023-01-30T13:57:01.000Z</time>
      </trkpt>
      <trkpt lat="48.81253" lon="5.15881">
        <ele>238</ele>
        <time>2023-01-30T13:57:02.000Z</time>
      </trkpt>
      <trkpt lat="48.81253" lon="5.15881">
        <ele>237.7</ele>
        <time>2023-01-30T13:57:03.000Z</time>
      </trkpt>
      <trkpt lat="48.81253" lon="5.15882">
        <ele>237.3</ele>
        <time>2023-01-30T13:57:04.000Z</time>
      </trkpt>
      <trkpt lat="48.81253" lon="5.15882">
        <ele>237</ele>
        <time>2023-01-30T13:57:05.000Z</time>
      </trkpt>
      <trkpt lat="48.81254" lon="5.15883">
        <ele>237.5</ele>
        <time>2023-01-30T13:57:06.000Z</time>
      </trkpt>
      <trkpt lat="48.81254" lon="5.15884">
        <ele>238</ele>
        <time>2023-01-30T13:57:07.000Z</time>
      </trkpt>
      <trkpt lat="48.81255" lon="5.15885">
        <ele>238</ele>
        <time>2023-01-30T13:57:08.000Z</time>
      </trkpt>
      <trkpt lat="48.81255" lon="5.15886">
        <ele>238</ele>
        <time>2023-01-30T13:57:09.000Z</time>
      </trkpt>
      <trkpt lat="48.81256" lon="5.15887">
        <ele>238</ele>
        <time>2023-01-30T13:57:10.000Z</time>
      </trkpt>
      <trkpt lat="48.81256" lon="5.15888">
        <ele>238</ele>
        <time>2023-01-30T13:57:11.000Z</time>
      </trkpt>
      <trkpt lat="48.81256" lon="5.1589">
        <ele>238</ele>
        <time>2023-01-30T13:57:12.000Z</time>
      </trkpt>
      <trkpt lat="48.81256" lon="5.15891">
        <ele>238</ele>
        <time>2023-01-30T13:57:13.000Z</time>
      </trkpt>
      <trkpt lat="48.81255" lon="5.15893">
        <ele>238</ele>
        <time>2023-01-30T13:57:14.000Z</time>
      </trkpt>
      <trkpt lat="48.81255" lon="5.15895">
        <ele>238</ele>
        <time>2023-01-30T13:57:15.000Z</time>
      </trkpt>
      <trkpt lat="48.81255" lon="5.15896">
        <ele>238</ele>
        <time>2023-01-30T13:57:16.000Z</time>
      </trkpt>
      <trkpt lat="48.81256" lon="5.15898">
        <ele>238</ele>
        <time>2023-01-30T13:57:17.000Z</time>
      </trkpt>
      <trkpt lat="48.81256" lon="5.159">
        <ele>238</ele>
        <time>2023-01-30T13:57:18.000Z</time>
      </trkpt>
      <trkpt lat="48.81257" lon="5.15901">
        <ele>238</ele>
        <time>2023-01-30T13:57:19.000Z</time>
      </trkpt>
      <trkpt lat="48.81258" lon="5.15903">
        <ele>238</ele>
        <time>2023-01-30T13:57:20.000Z</time>
      </trkpt>
      <trkpt lat="48.81258" lon="5.15905">
        <ele>238</ele>
        <time>2023-01-30T13:57:21.000Z</time>
      </trkpt>
      <trkpt lat="48.81258" lon="5.15907">
        <ele>238</ele>
        <time>2023-01-30T13:57:22.000Z</time>
      </trkpt>
      <trkpt lat="48.81259" lon="5.15908">
        <ele>238</ele>
        <time>2023-01-30T13:57:23.000Z</time>
      </trkpt>
      <trkpt lat="48.81259" lon="5.1591">
        <ele>238</ele>
        <time>2023-01-30T13:57:24.000Z</time>
      </trkpt>
      <trkpt lat="48.8126" lon="5.15911">
        <ele>238</ele>
        <time>2023-01-30T13:57:25.000Z</time>
      </trkpt>
      <trkpt lat="48.8126" lon="5.15912">
        <ele>238</ele>
        <time>2023-01-30T13:57:26.000Z</time>
      </trkpt>
      <trkpt lat="48.81261" lon="5.15913">
        <ele>238</ele>
        <time>2023-01-30T13:57:27.000Z</time>
      </trkpt>
      <trkpt lat="48.81262" lon="5.15915">
        <ele>238</ele>
        <time>2023-01-30T13:57:28.000Z</time>
      </trkpt>
      <trkpt lat="48.81263" lon="5.15916">
        <ele>238</ele>
        <time>2023-01-30T13:57:29.000Z</time>
      </trkpt>
      <trkpt lat="48.81264" lon="5.15918">
        <ele>238</ele>
        <time>2023-01-30T13:57:30.000Z</time>
      </trkpt>
      <trkpt lat="48.81265" lon="5.1592">
        <ele>238</ele>
        <time>2023-01-30T13:57:31.000Z</time>
      </trkpt>
      <trkpt lat="48.81266" lon="5.15922">
        <ele>238</ele>
        <time>2023-01-30T13:57:32.000Z</time>
      </trkpt>
      <trkpt lat="48.81267" lon="5.15924">
        <ele>238</ele>
        <time>2023-01-30T13:57:33.000Z</time>
      </trkpt>
      <trkpt lat="48.81268" lon="5.15925">
        <ele>238</ele>
        <time>2023-01-30T13:57:34.000Z</time>
      </trkpt>
      <trkpt lat="48.81268" lon="5.15927">
        <ele>238</ele>
        <time>2023-01-30T13:57:35.000Z</time>
      </trkpt>
      <trkpt lat="48.81269" lon="5.15928">
        <ele>238</ele>
        <time>2023-01-30T13:57:36.000Z</time>
      </trkpt>
      <trkpt lat="48.81269" lon="5.15929">
        <ele>238</ele>
        <time>2023-01-30T13:57:37.000Z</time>
      </trkpt>
      <trkpt lat="48.81271" lon="5.15931">
        <ele>238.5</ele>
        <time>2023-01-30T13:57:38.000Z</time>
      </trkpt>
      <trkpt lat="48.81272" lon="5.15933">
        <ele>239</ele>
        <time>2023-01-30T13:57:39.000Z</time>
      </trkpt>
      <trkpt lat="48.81274" lon="5.15936">
        <ele>239</ele>
        <time>2023-01-30T13:57:40.000Z</time>
      </trkpt>
      <trkpt lat="48.81274" lon="5.15938">
        <ele>239</ele>
        <time>2023-01-30T13:57:41.000Z</time>
      </trkpt>
      <trkpt lat="48.81275" lon="5.15941">
        <ele>239</ele>
        <time>2023-01-30T13:57:42.000Z</time>
      </trkpt>
      <trkpt lat="48.81276" lon="5.15944">
        <ele>238.7</ele>
        <time>2023-01-30T13:57:43.000Z</time>
      </trkpt>
      <trkpt lat="48.81276" lon="5.15946">
        <ele>238.3</ele>
        <time>2023-01-30T13:57:44.000Z</time>
      </trkpt>
      <trkpt lat="48.81277" lon="5.15948">
        <ele>238</ele>
        <time>2023-01-30T13:57:45.000Z</time>
      </trkpt>
      <trkpt lat="48.81278" lon="5.1595">
        <ele>238.5</ele>
        <time>2023-01-30T13:57:46.000Z</time>
      </trkpt>
      <trkpt lat="48.81279" lon="5.15952">
        <ele>239</ele>
        <time>2023-01-30T13:57:47.000Z</time>
      </trkpt>
      <trkpt lat="48.8128" lon="5.15954">
        <ele>239</ele>
        <time>2023-01-30T13:57:48.000Z</time>
      </trkpt>
      <trkpt lat="48.8128" lon="5.15956">
        <ele>239</ele>
        <time>2023-01-30T13:57:49.000Z</time>
      </trkpt>
      <trkpt lat="48.8128" lon="5.15958">
        <ele>239</ele>
        <time>2023-01-30T13:57:50.000Z</time>
      </trkpt>
      <trkpt lat="48.81281" lon="5.1596">
        <ele>239</ele>
        <time>2023-01-30T13:57:51.000Z</time>
      </trkpt>
      <trkpt lat="48.81282" lon="5.15962">
        <ele>239</ele>
        <time>2023-01-30T13:57:52.000Z</time>
      </trkpt>
      <trkpt lat="48.81283" lon="5.15964">
        <ele>239</ele>
        <time>2023-01-30T13:57:53.000Z</time>
      </trkpt>
      <trkpt lat="48.81284" lon="5.15966">
        <ele>239</ele>
        <time>2023-01-30T13:57:54.000Z</time>
      </trkpt>
      <trkpt lat="48.81285" lon="5.15968">
        <ele>239</ele>
        <time>2023-01-30T13:57:55.000Z</time>
      </trkpt>
      <trkpt lat="48.81285" lon="5.1597">
        <ele>239</ele>
        <time>2023-01-30T13:57:56.000Z</time>
      </trkpt>
      <trkpt lat="48.81286" lon="5.15972">
        <ele>239</ele>
        <time>2023-01-30T13:57:57.000Z</time>
      </trkpt>
      <trkpt lat="48.81287" lon="5.15974">
        <ele>239</ele>
        <time>2023-01-30T13:57:58.000Z</time>
      </trkpt>
      <trkpt lat="48.81287" lon="5.15975">
        <ele>239</ele>
        <time>2023-01-30T13:57:59.000Z</time>
      </trkpt>
      <trkpt lat="48.81288" lon="5.15976">
        <ele>239</ele>
        <time>2023-01-30T13:58:00.000Z</time>
      </trkpt>
      <trkpt lat="48.81288" lon="5.15977">
        <ele>239</ele>
        <time>2023-01-30T13:58:01.000Z</time>
      </trkpt>
      <trkpt lat="48.81289" lon="5.15978">
        <ele>239</ele>
        <time>2023-01-30T13:58:02.000Z</time>
      </trkpt>
      <trkpt lat="48.8129" lon="5.1598">
        <ele>239</ele>
        <time>2023-01-30T13:58:03.000Z</time>
      </trkpt>
      <trkpt lat="48.81291" lon="5.15982">
        <ele>239</ele>
        <time>2023-01-30T13:58:04.000Z</time>
      </trkpt>
      <trkpt lat="48.81292" lon="5.15984">
        <ele>239</ele>
        <time>2023-01-30T13:58:05.000Z</time>
      </trkpt>
      <trkpt lat="48.81293" lon="5.15985">
        <ele>239</ele>
        <time>2023-01-30T13:58:06.000Z</time>
      </trkpt>
      <trkpt lat="48.81294" lon="5.15987">
        <ele>239</ele>
        <time>2023-01-30T13:58:07.000Z</time>
      </trkpt>
      <trkpt lat="48.81294" lon="5.15989">
        <ele>239</ele>
        <time>2023-01-30T13:58:08.000Z</time>
      </trkpt>
      <trkpt lat="48.81295" lon="5.1599">
        <ele>239</ele>
        <time>2023-01-30T13:58:09.000Z</time>
      </trkpt>
      <trkpt lat="48.81296" lon="5.15991">
        <ele>239</ele>
        <time>2023-01-30T13:58:10.000Z</time>
      </trkpt>
      <trkpt lat="48.81296" lon="5.15992">
        <ele>239</ele>
        <time>2023-01-30T13:58:11.000Z</time>
      </trkpt>
      <trkpt lat="48.81297" lon="5.15994">
        <ele>239</ele>
        <time>2023-01-30T13:58:12.000Z</time>
      </trkpt>
      <trkpt lat="48.81298" lon="5.15995">
        <ele>239</ele>
        <time>2023-01-30T13:58:13.000Z</time>
      </trkpt>
      <trkpt lat="48.81299" lon="5.15998">
        <ele>239</ele>
        <time>2023-01-30T13:58:14.000Z</time>
      </trkpt>
      <trkpt lat="48.81301" lon="5.16">
        <ele>239</ele>
        <time>2023-01-30T13:58:15.000Z</time>
      </trkpt>
      <trkpt lat="48.81302" lon="5.16003">
        <ele>239</ele>
        <time>2023-01-30T13:58:16.000Z</time>
      </trkpt>
      <trkpt lat="48.81303" lon="5.16005">
        <ele>239</ele>
        <time>2023-01-30T13:58:17.000Z</time>
      </trkpt>
      <trkpt lat="48.81304" lon="5.16007">
        <ele>239</ele>
        <time>2023-01-30T13:58:18.000Z</time>
      </trkpt>
      <trkpt lat="48.81304" lon="5.16008">
        <ele>239</ele>
        <time>2023-01-30T13:58:19.000Z</time>
      </trkpt>
      <trkpt lat="48.81305" lon="5.1601">
        <ele>239</ele>
        <time>2023-01-30T13:58:20.000Z</time>
      </trkpt>
      <trkpt lat="48.81305" lon="5.16012">
        <ele>239</ele>
        <time>2023-01-30T13:58:21.000Z</time>
      </trkpt>
      <trkpt lat="48.81306" lon="5.16014">
        <ele>239</ele>
        <time>2023-01-30T13:58:22.000Z</time>
      </trkpt>
      <trkpt lat="48.81307" lon="5.16016">
        <ele>239</ele>
        <time>2023-01-30T13:58:23.000Z</time>
      </trkpt>
      <trkpt lat="48.81307" lon="5.16017">
        <ele>239</ele>
        <time>2023-01-30T13:58:24.000Z</time>
      </trkpt>
      <trkpt lat="48.81308" lon="5.16018">
        <ele>239</ele>
        <time>2023-01-30T13:58:25.000Z</time>
      </trkpt>
      <trkpt lat="48.81309" lon="5.1602">
        <ele>239</ele>
        <time>2023-01-30T13:58:26.000Z</time>
      </trkpt>
      <trkpt lat="48.8131" lon="5.16022">
        <ele>239</ele>
        <time>2023-01-30T13:58:27.000Z</time>
      </trkpt>
      <trkpt lat="48.81311" lon="5.16024">
        <ele>239</ele>
        <time>2023-01-30T13:58:28.000Z</time>
      </trkpt>
      <trkpt lat="48.81312" lon="5.16026">
        <ele>239</ele>
        <time>2023-01-30T13:58:29.000Z</time>
      </trkpt>
      <trkpt lat="48.81313" lon="5.16028">
        <ele>239</ele>
        <time>2023-01-30T13:58:30.000Z</time>
      </trkpt>
      <trkpt lat="48.81313" lon="5.1603">
        <ele>239</ele>
        <time>2023-01-30T13:58:31.000Z</time>
      </trkpt>
      <trkpt lat="48.81314" lon="5.16032">
        <ele>239</ele>
        <time>2023-01-30T13:58:32.000Z</time>
      </trkpt>
      <trkpt lat="48.81316" lon="5.16034">
        <ele>239.3</ele>
        <time>2023-01-30T13:58:33.000Z</time>
      </trkpt>
      <trkpt lat="48.81318" lon="5.16036">
        <ele>239.7</ele>
        <time>2023-01-30T13:58:34.000Z</time>
      </trkpt>
      <trkpt lat="48.81319" lon="5.16037">
        <ele>240</ele>
        <time>2023-01-30T13:58:35.000Z</time>
      </trkpt>
      <trkpt lat="48.8132" lon="5.16039">
        <ele>240</ele>
        <time>2023-01-30T13:58:36.000Z</time>
      </trkpt>
      <trkpt lat="48.81321" lon="5.16041">
        <ele>240</ele>
        <time>2023-01-30T13:58:37.000Z</time>
      </trkpt>
      <trkpt lat="48.81323" lon="5.16043">
        <ele>240</ele>
        <time>2023-01-30T13:58:38.000Z</time>
      </trkpt>
      <trkpt lat="48.81324" lon="5.16045">
        <ele>240</ele>
        <time>2023-01-30T13:58:39.000Z</time>
      </trkpt>
      <trkpt lat="48.81326" lon="5.16048">
        <ele>239.5</ele>
        <time>2023-01-30T13:58:40.000Z</time>
      </trkpt>
      <trkpt lat="48.81327" lon="5.1605">
        <ele>239</ele>
        <time>2023-01-30T13:58:41.000Z</time>
      </trkpt>
      <trkpt lat="48.81328" lon="5.16053">
        <ele>239</ele>
        <time>2023-01-30T13:58:42.000Z</time>
      </trkpt>
      <trkpt lat="48.8133" lon="5.16056">
        <ele>239</ele>
        <time>2023-01-30T13:58:43.000Z</time>
      </trkpt>
      <trkpt lat="48.8133" lon="5.16058">
        <ele>239</ele>
        <time>2023-01-30T13:58:44.000Z</time>
      </trkpt>
      <trkpt lat="48.81331" lon="5.1606">
        <ele>239</ele>
        <time>2023-01-30T13:58:45.000Z</time>
      </trkpt>
      <trkpt lat="48.81332" lon="5.16062">
        <ele>239</ele>
        <time>2023-01-30T13:58:46.000Z</time>
      </trkpt>
      <trkpt lat="48.81333" lon="5.16064">
        <ele>239</ele>
        <time>2023-01-30T13:58:47.000Z</time>
      </trkpt>
      <trkpt lat="48.81334" lon="5.16067">
        <ele>240</ele>
        <time>2023-01-30T13:58:48.000Z</time>
      </trkpt>
      <trkpt lat="48.81335" lon="5.1607">
        <ele>239.7</ele>
        <time>2023-01-30T13:58:49.000Z</time>
      </trkpt>
      <trkpt lat="48.81335" lon="5.16072">
        <ele>239.3</ele>
        <time>2023-01-30T13:58:50.000Z</time>
      </trkpt>
      <trkpt lat="48.81336" lon="5.16075">
        <ele>239</ele>
        <time>2023-01-30T13:58:51.000Z</time>
      </trkpt>
      <trkpt lat="48.81337" lon="5.16076">
        <ele>239</ele>
        <time>2023-01-30T13:58:52.000Z</time>
      </trkpt>
      <trkpt lat="48.81338" lon="5.16078">
        <ele>239</ele>
        <time>2023-01-30T13:58:53.000Z</time>
      </trkpt>
      <trkpt lat="48.81338" lon="5.1608">
        <ele>239</ele>
        <time>2023-01-30T13:58:54.000Z</time>
      </trkpt>
      <trkpt lat="48.81339" lon="5.16081">
        <ele>239</ele>
        <time>2023-01-30T13:58:55.000Z</time>
      </trkpt>
      <trkpt lat="48.8134" lon="5.16082">
        <ele>239</ele>
        <time>2023-01-30T13:58:56.000Z</time>
      </trkpt>
      <trkpt lat="48.8134" lon="5.16083">
        <ele>239</ele>
        <time>2023-01-30T13:58:57.000Z</time>
      </trkpt>
      <trkpt lat="48.81341" lon="5.16085">
        <ele>239</ele>
        <time>2023-01-30T13:58:58.000Z</time>
      </trkpt>
      <trkpt lat="48.81341" lon="5.16086">
        <ele>239</ele>
        <time>2023-01-30T13:58:59.000Z</time>
      </trkpt>
      <trkpt lat="48.81342" lon="5.16088">
        <ele>239</ele>
        <time>2023-01-30T13:59:00.000Z</time>
      </trkpt>
      <trkpt lat="48.81343" lon="5.16089">
        <ele>239</ele>
        <time>2023-01-30T13:59:01.000Z</time>
      </trkpt>
      <trkpt lat="48.81343" lon="5.16091">
        <ele>239</ele>
        <time>2023-01-30T13:59:02.000Z</time>
      </trkpt>
      <trkpt lat="48.81344" lon="5.16093">
        <ele>239</ele>
        <time>2023-01-30T13:59:03.000Z</time>
      </trkpt>
      <trkpt lat="48.81344" lon="5.16095">
        <ele>239</ele>
        <time>2023-01-30T13:59:04.000Z</time>
      </trkpt>
      <trkpt lat="48.81345" lon="5.16097">
        <ele>239</ele>
        <time>2023-01-30T13:59:05.000Z</time>
      </trkpt>
      <trkpt lat="48.81345" lon="5.16099">
        <ele>239</ele>
        <time>2023-01-30T13:59:06.000Z</time>
      </trkpt>
      <trkpt lat="48.81346" lon="5.16101">
        <ele>239</ele>
        <time>2023-01-30T13:59:07.000Z</time>
      </trkpt>
      <trkpt lat="48.81347" lon="5.16102">
        <ele>239</ele>
        <time>2023-01-30T13:59:08.000Z</time>
      </trkpt>
      <trkpt lat="48.81347" lon="5.16103">
        <ele>239</ele>
        <time>2023-01-30T13:59:09.000Z</time>
      </trkpt>
      <trkpt lat="48.81348" lon="5.16104">
        <ele>239</ele>
        <time>2023-01-30T13:59:10.000Z</time>
      </trkpt>
      <trkpt lat="48.81349" lon="5.16105">
        <ele>239</ele>
        <time>2023-01-30T13:59:11.000Z</time>
      </trkpt>
      <trkpt lat="48.81349" lon="5.16107">
        <ele>238</ele>
        <time>2023-01-30T13:59:12.000Z</time>
      </trkpt>
      <trkpt lat="48.8135" lon="5.16108">
        <ele>238</ele>
        <time>2023-01-30T13:59:13.000Z</time>
      </trkpt>
      <trkpt lat="48.81351" lon="5.1611">
        <ele>238</ele>
        <time>2023-01-30T13:59:14.000Z</time>
      </trkpt>
      <trkpt lat="48.81352" lon="5.16112">
        <ele>238</ele>
        <time>2023-01-30T13:59:15.000Z</time>
      </trkpt>
      <trkpt lat="48.81352" lon="5.16115">
        <ele>238</ele>
        <time>2023-01-30T13:59:16.000Z</time>
      </trkpt>
      <trkpt lat="48.81353" lon="5.16117">
        <ele>238</ele>
        <time>2023-01-30T13:59:17.000Z</time>
      </trkpt>
      <trkpt lat="48.81354" lon="5.16119">
        <ele>238</ele>
        <time>2023-01-30T13:59:18.000Z</time>
      </trkpt>
      <trkpt lat="48.81356" lon="5.16122">
        <ele>238</ele>
        <time>2023-01-30T13:59:19.000Z</time>
      </trkpt>
      <trkpt lat="48.81357" lon="5.16124">
        <ele>238</ele>
        <time>2023-01-30T13:59:20.000Z</time>
      </trkpt>
      <trkpt lat="48.81358" lon="5.16126">
        <ele>238</ele>
        <time>2023-01-30T13:59:21.000Z</time>
      </trkpt>
      <trkpt lat="48.81359" lon="5.16127">
        <ele>238</ele>
        <time>2023-01-30T13:59:22.000Z</time>
      </trkpt>
      <trkpt lat="48.8136" lon="5.16129">
        <ele>238</ele>
        <time>2023-01-30T13:59:23.000Z</time>
      </trkpt>
      <trkpt lat="48.81362" lon="5.16131">
        <ele>237.5</ele>
        <time>2023-01-30T13:59:24.000Z</time>
      </trkpt>
      <trkpt lat="48.81363" lon="5.16133">
        <ele>237</ele>
        <time>2023-01-30T13:59:25.000Z</time>
      </trkpt>
      <trkpt lat="48.81365" lon="5.16136">
        <ele>237</ele>
        <time>2023-01-30T13:59:26.000Z</time>
      </trkpt>
      <trkpt lat="48.81365" lon="5.16139">
        <ele>237</ele>
        <time>2023-01-30T13:59:27.000Z</time>
      </trkpt>
      <trkpt lat="48.81366" lon="5.16142">
        <ele>237</ele>
        <time>2023-01-30T13:59:28.000Z</time>
      </trkpt>
      <trkpt lat="48.81366" lon="5.16144">
        <ele>237</ele>
        <time>2023-01-30T13:59:29.000Z</time>
      </trkpt>
      <trkpt lat="48.81367" lon="5.16147">
        <ele>237</ele>
        <time>2023-01-30T13:59:30.000Z</time>
      </trkpt>
      <trkpt lat="48.81367" lon="5.1615">
        <ele>237</ele>
        <time>2023-01-30T13:59:31.000Z</time>
      </trkpt>
      <trkpt lat="48.81367" lon="5.16153">
        <ele>237</ele>
        <time>2023-01-30T13:59:32.000Z</time>
      </trkpt>
      <trkpt lat="48.81368" lon="5.16156">
        <ele>237</ele>
        <time>2023-01-30T13:59:33.000Z</time>
      </trkpt>
      <trkpt lat="48.81368" lon="5.16158">
        <ele>237</ele>
        <time>2023-01-30T13:59:34.000Z</time>
      </trkpt>
      <trkpt lat="48.81369" lon="5.16161">
        <ele>237</ele>
        <time>2023-01-30T13:59:35.000Z</time>
      </trkpt>
      <trkpt lat="48.8137" lon="5.16163">
        <ele>237</ele>
        <time>2023-01-30T13:59:36.000Z</time>
      </trkpt>
      <trkpt lat="48.8137" lon="5.16166">
        <ele>237</ele>
        <time>2023-01-30T13:59:37.000Z</time>
      </trkpt>
      <trkpt lat="48.81371" lon="5.16168">
        <ele>237</ele>
        <time>2023-01-30T13:59:38.000Z</time>
      </trkpt>
      <trkpt lat="48.81372" lon="5.1617">
        <ele>236.7</ele>
        <time>2023-01-30T13:59:39.000Z</time>
      </trkpt>
      <trkpt lat="48.81372" lon="5.16172">
        <ele>236.3</ele>
        <time>2023-01-30T13:59:40.000Z</time>
      </trkpt>
      <trkpt lat="48.81372" lon="5.16173">
        <ele>236</ele>
        <time>2023-01-30T13:59:41.000Z</time>
      </trkpt>
      <trkpt lat="48.81373" lon="5.16175">
        <ele>236</ele>
        <time>2023-01-30T13:59:42.000Z</time>
      </trkpt>
      <trkpt lat="48.81373" lon="5.16176">
        <ele>236</ele>
        <time>2023-01-30T13:59:43.000Z</time>
      </trkpt>
      <trkpt lat="48.81374" lon="5.16178">
        <ele>236</ele>
        <time>2023-01-30T13:59:44.000Z</time>
      </trkpt>
      <trkpt lat="48.81374" lon="5.16179">
        <ele>236</ele>
        <time>2023-01-30T13:59:45.000Z</time>
      </trkpt>
      <trkpt lat="48.81375" lon="5.16181">
        <ele>236</ele>
        <time>2023-01-30T13:59:46.000Z</time>
      </trkpt>
      <trkpt lat="48.81375" lon="5.16182">
        <ele>236</ele>
        <time>2023-01-30T13:59:47.000Z</time>
      </trkpt>
      <trkpt lat="48.81376" lon="5.16184">
        <ele>236</ele>
        <time>2023-01-30T13:59:48.000Z</time>
      </trkpt>
      <trkpt lat="48.81377" lon="5.16186">
        <ele>236</ele>
        <time>2023-01-30T13:59:49.000Z</time>
      </trkpt>
      <trkpt lat="48.81379" lon="5.16188">
        <ele>235.5</ele>
        <time>2023-01-30T13:59:50.000Z</time>
      </trkpt>
      <trkpt lat="48.8138" lon="5.1619">
        <ele>235</ele>
        <time>2023-01-30T13:59:51.000Z</time>
      </trkpt>
      <trkpt lat="48.81381" lon="5.16192">
        <ele>235</ele>
        <time>2023-01-30T13:59:52.000Z</time>
      </trkpt>
      <trkpt lat="48.81383" lon="5.16195">
        <ele>235</ele>
        <time>2023-01-30T13:59:53.000Z</time>
      </trkpt>
      <trkpt lat="48.81384" lon="5.16196">
        <ele>235</ele>
        <time>2023-01-30T13:59:54.000Z</time>
      </trkpt>
      <trkpt lat="48.81385" lon="5.16198">
        <ele>235</ele>
        <time>2023-01-30T13:59:55.000Z</time>
      </trkpt>
      <trkpt lat="48.81385" lon="5.16199">
        <ele>235</ele>
        <time>2023-01-30T13:59:56.000Z</time>
      </trkpt>
      <trkpt lat="48.81385" lon="5.162">
        <ele>235</ele>
        <time>2023-01-30T13:59:57.000Z</time>
      </trkpt>
      <trkpt lat="48.81386" lon="5.16202">
        <ele>235</ele>
        <time>2023-01-30T13:59:58.000Z</time>
      </trkpt>
      <trkpt lat="48.81386" lon="5.16205">
        <ele>235</ele>
        <time>2023-01-30T13:59:59.000Z</time>
      </trkpt>
      <trkpt lat="48.81386" lon="5.16208">
        <ele>235</ele>
        <time>2023-01-30T14:00:00.000Z</time>
      </trkpt>
      <trkpt lat="48.81386" lon="5.16211">
        <ele>235</ele>
        <time>2023-01-30T14:00:01.000Z</time>
      </trkpt>
      <trkpt lat="48.81387" lon="5.16214">
        <ele>235</ele>
        <time>2023-01-30T14:00:02.000Z</time>
      </trkpt>
      <trkpt lat="48.81389" lon="5.16217">
        <ele>235</ele>
        <time>2023-01-30T14:00:03.000Z</time>
      </trkpt>
      <trkpt lat="48.8139" lon="5.16219">
        <ele>235</ele>
        <time>2023-01-30T14:00:04.000Z</time>
      </trkpt>
      <trkpt lat="48.81391" lon="5.16221">
        <ele>235.3</ele>
        <time>2023-01-30T14:00:05.000Z</time>
      </trkpt>
      <trkpt lat="48.81391" lon="5.16223">
        <ele>235.7</ele>
        <time>2023-01-30T14:00:06.000Z</time>
      </trkpt>
      <trkpt lat="48.81392" lon="5.16225">
        <ele>236</ele>
        <time>2023-01-30T14:00:07.000Z</time>
      </trkpt>
      <trkpt lat="48.81394" lon="5.16227">
        <ele>236</ele>
        <time>2023-01-30T14:00:08.000Z</time>
      </trkpt>
      <trkpt lat="48.81395" lon="5.16229">
        <ele>236</ele>
        <time>2023-01-30T14:00:09.000Z</time>
      </trkpt>
      <trkpt lat="48.81396" lon="5.16231">
        <ele>236</ele>
        <time>2023-01-30T14:00:10.000Z</time>
      </trkpt>
      <trkpt lat="48.81397" lon="5.16233">
        <ele>236</ele>
        <time>2023-01-30T14:00:11.000Z</time>
      </trkpt>
      <trkpt lat="48.81398" lon="5.16236">
        <ele>236</ele>
        <time>2023-01-30T14:00:12.000Z</time>
      </trkpt>
      <trkpt lat="48.81399" lon="5.16238">
        <ele>236</ele>
        <time>2023-01-30T14:00:13.000Z</time>
      </trkpt>
      <trkpt lat="48.814" lon="5.1624">
        <ele>236</ele>
        <time>2023-01-30T14:00:14.000Z</time>
      </trkpt>
      <trkpt lat="48.81401" lon="5.16243">
        <ele>236.3</ele>
        <time>2023-01-30T14:00:15.000Z</time>
      </trkpt>
      <trkpt lat="48.81401" lon="5.16245">
        <ele>236.7</ele>
        <time>2023-01-30T14:00:16.000Z</time>
      </trkpt>
      <trkpt lat="48.81402" lon="5.16247">
        <ele>237</ele>
        <time>2023-01-30T14:00:17.000Z</time>
      </trkpt>
      <trkpt lat="48.81402" lon="5.16249">
        <ele>237</ele>
        <time>2023-01-30T14:00:18.000Z</time>
      </trkpt>
      <trkpt lat="48.81402" lon="5.1625">
        <ele>237</ele>
        <time>2023-01-30T14:00:19.000Z</time>
      </trkpt>
      <trkpt lat="48.81403" lon="5.16251">
        <ele>238</ele>
        <time>2023-01-30T14:00:20.000Z</time>
      </trkpt>
      <trkpt lat="48.81403" lon="5.16252">
        <ele>238</ele>
        <time>2023-01-30T14:00:21.000Z</time>
      </trkpt>
      <trkpt lat="48.81403" lon="5.16253">
        <ele>238</ele>
        <time>2023-01-30T14:00:22.000Z</time>
      </trkpt>
      <trkpt lat="48.81404" lon="5.16253">
        <ele>238</ele>
        <time>2023-01-30T14:00:23.000Z</time>
      </trkpt>
      <trkpt lat="48.81404" lon="5.16254">
        <ele>238</ele>
        <time>2023-01-30T14:00:24.000Z</time>
      </trkpt>
      <trkpt lat="48.81405" lon="5.16255">
        <ele>238</ele>
        <time>2023-01-30T14:00:25.000Z</time>
      </trkpt>
      <trkpt lat="48.81406" lon="5.16256">
        <ele>238</ele>
        <time>2023-01-30T14:00:26.000Z</time>
      </trkpt>
      <trkpt lat="48.81406" lon="5.16257">
        <ele>238</ele>
        <time>2023-01-30T14:00:27.000Z</time>
      </trkpt>
      <trkpt lat="48.81407" lon="5.16258">
        <ele>238</ele>
        <time>2023-01-30T14:00:28.000Z</time>
      </trkpt>
      <trkpt lat="48.81407" lon="5.16259">
        <ele>238</ele>
        <time>2023-01-30T14:00:29.000Z</time>
      </trkpt>
      <trkpt lat="48.81408" lon="5.1626">
        <ele>238</ele>
        <time>2023-01-30T14:00:30.000Z</time>
      </trkpt>
      <trkpt lat="48.81408" lon="5.1626">
        <ele>238</ele>
        <time>2023-01-30T14:00:31.000Z</time>
      </trkpt>
      <trkpt lat="48.81408" lon="5.16261">
        <ele>238</ele>
        <time>2023-01-30T14:00:32.000Z</time>
      </trkpt>
      <trkpt lat="48.81408" lon="5.16261">
        <ele>238</ele>
        <time>2023-01-30T14:00:33.000Z</time>
      </trkpt>
      <trkpt lat="48.81409" lon="5.16262">
        <ele>238</ele>
        <time>2023-01-30T14:00:34.000Z</time>
      </trkpt>
      <trkpt lat="48.81409" lon="5.16262">
        <ele>238</ele>
        <time>2023-01-30T14:00:35.000Z</time>
      </trkpt>
      <trkpt lat="48.81409" lon="5.16263">
        <ele>238</ele>
        <time>2023-01-30T14:00:36.000Z</time>
      </trkpt>
      <trkpt lat="48.81409" lon="5.16263">
        <ele>238</ele>
        <time>2023-01-30T14:00:37.000Z</time>
      </trkpt>
      <trkpt lat="48.81409" lon="5.16263">
        <ele>238</ele>
        <time>2023-01-30T14:00:38.000Z</time>
      </trkpt>
      <trkpt lat="48.81409" lon="5.16263">
        <ele>238</ele>
        <time>2023-01-30T14:00:39.000Z</time>
      </trkpt>
      <trkpt lat="48.81409" lon="5.16263">
        <ele>238</ele>
        <time>2023-01-30T14:00:40.000Z</time>
      </trkpt>
      <trkpt lat="48.81409" lon="5.16263">
        <ele>238</ele>
        <time>2023-01-30T14:00:41.000Z</time>
      </trkpt>
      <trkpt lat="48.81409" lon="5.16263">
        <ele>238</ele>
        <time>2023-01-30T14:00:42.000Z</time>
      </trkpt>
      <trkpt lat="48.81409" lon="5.16263">
        <ele>238</ele>
        <time>2023-01-30T14:00:43.000Z</time>
      </trkpt>
      <trkpt lat="48.81409" lon="5.16263">
        <ele>239</ele>
        <time>2023-01-30T14:00:44.000Z</time>
      </trkpt>
      <trkpt lat="48.81409" lon="5.16263">
        <ele>239</ele>
        <time>2023-01-30T14:00:45.000Z</time>
      </trkpt>
      <trkpt lat="48.81409" lon="5.16263">
        <ele>239</ele>
        <time>2023-01-30T14:00:46.000Z</time>
      </trkpt>
      <trkpt lat="48.81409" lon="5.16264">
        <ele>239</ele>
        <time>2023-01-30T14:00:47.000Z</time>
      </trkpt>
      <trkpt lat="48.81409" lon="5.16264">
        <ele>239</ele>
        <time>2023-01-30T14:00:48.000Z</time>
      </trkpt>
      <trkpt lat="48.81409" lon="5.16264">
        <ele>239</ele>
        <time>2023-01-30T14:00:49.000Z</time>
      </trkpt>
      <trkpt lat="48.81409" lon="5.16264">
        <ele>239</ele>
        <time>2023-01-30T14:00:50.000Z</time>
      </trkpt>
      <trkpt lat="48.81409" lon="5.16264">
        <ele>239</ele>
        <time>2023-01-30T14:00:51.000Z</time>
      </trkpt>
      <trkpt lat="48.81409" lon="5.16264">
        <ele>239</ele>
        <time>2023-01-30T14:00:52.000Z</time>
      </trkpt>
      <trkpt lat="48.81409" lon="5.16264">
        <ele>239</ele>
        <time>2023-01-30T14:00:53.000Z</time>
      </trkpt>
      <trkpt lat="48.8141" lon="5.16264">
        <ele>239</ele>
        <time>2023-01-30T14:00:54.000Z</time>
      </trkpt>
      <trkpt lat="48.8141" lon="5.16264">
        <ele>238</ele>
        <time>2023-01-30T14:00:55.000Z</time>
      </trkpt>
      <trkpt lat="48.8141" lon="5.16264">
        <ele>238</ele>
        <time>2023-01-30T14:00:56.000Z</time>
      </trkpt>
      <trkpt lat="48.81411" lon="5.16263">
        <ele>238</ele>
        <time>2023-01-30T14:00:57.000Z</time>
      </trkpt>
      <trkpt lat="48.81412" lon="5.16263">
        <ele>239</ele>
        <time>2023-01-30T14:00:58.000Z</time>
      </trkpt>
      <trkpt lat="48.81413" lon="5.16263">
        <ele>239</ele>
        <time>2023-01-30T14:00:59.000Z</time>
      </trkpt>
      <trkpt lat="48.81413" lon="5.16264">
        <ele>239</ele>
        <time>2023-01-30T14:01:00.000Z</time>
      </trkpt>
      <trkpt lat="48.81413" lon="5.16264">
        <ele>239</ele>
        <time>2023-01-30T14:01:01.000Z</time>
      </trkpt>
      <trkpt lat="48.81413" lon="5.16264">
        <ele>238</ele>
        <time>2023-01-30T14:01:02.000Z</time>
      </trkpt>
      <trkpt lat="48.81413" lon="5.16264">
        <ele>238</ele>
        <time>2023-01-30T14:01:03.000Z</time>
      </trkpt>
      <trkpt lat="48.81413" lon="5.16264">
        <ele>238</ele>
        <time>2023-01-30T14:01:04.000Z</time>
      </trkpt>
      <trkpt lat="48.81413" lon="5.16264">
        <ele>238</ele>
        <time>2023-01-30T14:01:05.000Z</time>
      </trkpt>
      <trkpt lat="48.81413" lon="5.16264">
        <ele>238</ele>
        <time>2023-01-30T14:01:06.000Z</time>
      </trkpt>
      <trkpt lat="48.81413" lon="5.16264">
        <ele>238</ele>
        <time>2023-01-30T14:01:07.000Z</time>
      </trkpt>
      <trkpt lat="48.81413" lon="5.16264">
        <ele>238</ele>
        <time>2023-01-30T14:01:08.000Z</time>
      </trkpt>
      <trkpt lat="48.81413" lon="5.16264">
        <ele>238</ele>
        <time>2023-01-30T14:01:09.000Z</time>
      </trkpt>
      <trkpt lat="48.81413" lon="5.16264">
        <ele>238</ele>
        <time>2023-01-30T14:01:10.000Z</time>
      </trkpt>
      <trkpt lat="48.81413" lon="5.16264">
        <ele>238</ele>
        <time>2023-01-30T14:01:11.000Z</time>
      </trkpt>
      <trkpt lat="48.81413" lon="5.16264">
        <ele>238</ele>
        <time>2023-01-30T14:01:12.000Z</time>
      </trkpt>
      <trkpt lat="48.81413" lon="5.16264">
        <ele>238</ele>
        <time>2023-01-30T14:01:13.000Z</time>
      </trkpt>
      <trkpt lat="48.81413" lon="5.16264">
        <ele>238</ele>
        <time>2023-01-30T14:01:14.000Z</time>
      </trkpt>
      <trkpt lat="48.81413" lon="5.16264">
        <ele>238</ele>
        <time>2023-01-30T14:01:15.000Z</time>
      </trkpt>
      <trkpt lat="48.81414" lon="5.16264">
        <ele>238</ele>
        <time>2023-01-30T14:01:16.000Z</time>
      </trkpt>
      <trkpt lat="48.81414" lon="5.16264">
        <ele>238</ele>
        <time>2023-01-30T14:01:17.000Z</time>
      </trkpt>
      <trkpt lat="48.81414" lon="5.16264">
        <ele>238</ele>
        <time>2023-01-30T14:01:18.000Z</time>
      </trkpt>
      <trkpt lat="48.81414" lon="5.16265">
        <ele>238</ele>
        <time>2023-01-30T14:01:19.000Z</time>
      </trkpt>
      <trkpt lat="48.81414" lon="5.16266">
        <ele>238</ele>
        <time>2023-01-30T14:01:20.000Z</time>
      </trkpt>
      <trkpt lat="48.81415" lon="5.16266">
        <ele>238</ele>
        <time>2023-01-30T14:01:21.000Z</time>
      </trkpt>
      <trkpt lat="48.81415" lon="5.16267">
        <ele>238</ele>
        <time>2023-01-30T14:01:22.000Z</time>
      </trkpt>
      <trkpt lat="48.81415" lon="5.16268">
        <ele>238</ele>
        <time>2023-01-30T14:01:23.000Z</time>
      </trkpt>
      <trkpt lat="48.81416" lon="5.16269">
        <ele>238</ele>
        <time>2023-01-30T14:01:24.000Z</time>
      </trkpt>
      <trkpt lat="48.81416" lon="5.16269">
        <ele>238</ele>
        <time>2023-01-30T14:01:25.000Z</time>
      </trkpt>
      <trkpt lat="48.81416" lon="5.1627">
        <ele>238</ele>
        <time>2023-01-30T14:01:26.000Z</time>
      </trkpt>
      <trkpt lat="48.81415" lon="5.1627">
        <ele>238</ele>
        <time>2023-01-30T14:01:27.000Z</time>
      </trkpt>
      <trkpt lat="48.81415" lon="5.16271">
        <ele>238</ele>
        <time>2023-01-30T14:01:28.000Z</time>
      </trkpt>
      <trkpt lat="48.81415" lon="5.16271">
        <ele>238</ele>
        <time>2023-01-30T14:01:29.000Z</time>
      </trkpt>
      <trkpt lat="48.81415" lon="5.16271">
        <ele>238</ele>
        <time>2023-01-30T14:01:30.000Z</time>
      </trkpt>
      <trkpt lat="48.81415" lon="5.16271">
        <ele>238</ele>
        <time>2023-01-30T14:01:31.000Z</time>
      </trkpt>
      <trkpt lat="48.81415" lon="5.16272">
        <ele>238</ele>
        <time>2023-01-30T14:01:32.000Z</time>
      </trkpt>
      <trkpt lat="48.81415" lon="5.16272">
        <ele>238</ele>
        <time>2023-01-30T14:01:33.000Z</time>
      </trkpt>
      <trkpt lat="48.81415" lon="5.16272">
        <ele>238</ele>
        <time>2023-01-30T14:01:34.000Z</time>
      </trkpt>
      <trkpt lat="48.81415" lon="5.16272">
        <ele>238</ele>
        <time>2023-01-30T14:01:35.000Z</time>
      </trkpt>
      <trkpt lat="48.81415" lon="5.16272">
        <ele>238</ele>
        <time>2023-01-30T14:01:36.000Z</time>
      </trkpt>
      <trkpt lat="48.81416" lon="5.16273">
        <ele>237.7</ele>
        <time>2023-01-30T14:01:37.000Z</time>
      </trkpt>
      <trkpt lat="48.81416" lon="5.16273">
        <ele>237.3</ele>
        <time>2023-01-30T14:01:38.000Z</time>
      </trkpt>
      <trkpt lat="48.81416" lon="5.16274">
        <ele>237</ele>
        <time>2023-01-30T14:01:39.000Z</time>
      </trkpt>
      <trkpt lat="48.81417" lon="5.16274">
        <ele>238</ele>
        <time>2023-01-30T14:01:40.000Z</time>
      </trkpt>
      <trkpt lat="48.81417" lon="5.16275">
        <ele>238</ele>
        <time>2023-01-30T14:01:41.000Z</time>
      </trkpt>
      <trkpt lat="48.81417" lon="5.16277">
        <ele>238</ele>
        <time>2023-01-30T14:01:42.000Z</time>
      </trkpt>
      <trkpt lat="48.81418" lon="5.16278">
        <ele>238</ele>
        <time>2023-01-30T14:01:43.000Z</time>
      </trkpt>
      <trkpt lat="48.81418" lon="5.16279">
        <ele>238</ele>
        <time>2023-01-30T14:01:44.000Z</time>
      </trkpt>
      <trkpt lat="48.81418" lon="5.1628">
        <ele>238</ele>
        <time>2023-01-30T14:01:45.000Z</time>
      </trkpt>
      <trkpt lat="48.81418" lon="5.16281">
        <ele>238</ele>
        <time>2023-01-30T14:01:46.000Z</time>
      </trkpt>
      <trkpt lat="48.81419" lon="5.16282">
        <ele>238</ele>
        <time>2023-01-30T14:01:47.000Z</time>
      </trkpt>
      <trkpt lat="48.81419" lon="5.16282">
        <ele>238</ele>
        <time>2023-01-30T14:01:48.000Z</time>
      </trkpt>
      <trkpt lat="48.81419" lon="5.16283">
        <ele>238</ele>
        <time>2023-01-30T14:01:49.000Z</time>
      </trkpt>
      <trkpt lat="48.8142" lon="5.16284">
        <ele>238</ele>
        <time>2023-01-30T14:01:50.000Z</time>
      </trkpt>
      <trkpt lat="48.8142" lon="5.16286">
        <ele>238</ele>
        <time>2023-01-30T14:01:51.000Z</time>
      </trkpt>
      <trkpt lat="48.81421" lon="5.16288">
        <ele>238</ele>
        <time>2023-01-30T14:01:52.000Z</time>
      </trkpt>
      <trkpt lat="48.81422" lon="5.1629">
        <ele>238</ele>
        <time>2023-01-30T14:01:53.000Z</time>
      </trkpt>
      <trkpt lat="48.81423" lon="5.16292">
        <ele>238</ele>
        <time>2023-01-30T14:01:54.000Z</time>
      </trkpt>
      <trkpt lat="48.81424" lon="5.16293">
        <ele>238</ele>
        <time>2023-01-30T14:01:55.000Z</time>
      </trkpt>
      <trkpt lat="48.81424" lon="5.16294">
        <ele>238</ele>
        <time>2023-01-30T14:01:56.000Z</time>
      </trkpt>
      <trkpt lat="48.81425" lon="5.16295">
        <ele>238</ele>
        <time>2023-01-30T14:01:57.000Z</time>
      </trkpt>
      <trkpt lat="48.81425" lon="5.16296">
        <ele>238</ele>
        <time>2023-01-30T14:01:58.000Z</time>
      </trkpt>
      <trkpt lat="48.81426" lon="5.16298">
        <ele>238</ele>
        <time>2023-01-30T14:01:59.000Z</time>
      </trkpt>
      <trkpt lat="48.81427" lon="5.163">
        <ele>238</ele>
        <time>2023-01-30T14:02:00.000Z</time>
      </trkpt>
      <trkpt lat="48.81428" lon="5.16301">
        <ele>238</ele>
        <time>2023-01-30T14:02:01.000Z</time>
      </trkpt>
      <trkpt lat="48.81429" lon="5.16303">
        <ele>238</ele>
        <time>2023-01-30T14:02:02.000Z</time>
      </trkpt>
      <trkpt lat="48.8143" lon="5.16305">
        <ele>238</ele>
        <time>2023-01-30T14:02:03.000Z</time>
      </trkpt>
      <trkpt lat="48.81431" lon="5.16307">
        <ele>238</ele>
        <time>2023-01-30T14:02:04.000Z</time>
      </trkpt>
      <trkpt lat="48.81432" lon="5.16308">
        <ele>238.3</ele>
        <time>2023-01-30T14:02:05.000Z</time>
      </trkpt>
      <trkpt lat="48.81433" lon="5.16309">
        <ele>238.7</ele>
        <time>2023-01-30T14:02:06.000Z</time>
      </trkpt>
      <trkpt lat="48.81433" lon="5.1631">
        <ele>239</ele>
        <time>2023-01-30T14:02:07.000Z</time>
      </trkpt>
      <trkpt lat="48.81434" lon="5.16311">
        <ele>239</ele>
        <time>2023-01-30T14:02:08.000Z</time>
      </trkpt>
      <trkpt lat="48.81436" lon="5.16313">
        <ele>239</ele>
        <time>2023-01-30T14:02:09.000Z</time>
      </trkpt>
      <trkpt lat="48.81437" lon="5.16316">
        <ele>239</ele>
        <time>2023-01-30T14:02:10.000Z</time>
      </trkpt>
      <trkpt lat="48.81439" lon="5.16319">
        <ele>239</ele>
        <time>2023-01-30T14:02:11.000Z</time>
      </trkpt>
      <trkpt lat="48.81439" lon="5.16323">
        <ele>239</ele>
        <time>2023-01-30T14:02:12.000Z</time>
      </trkpt>
      <trkpt lat="48.8144" lon="5.16326">
        <ele>239</ele>
        <time>2023-01-30T14:02:13.000Z</time>
      </trkpt>
      <trkpt lat="48.81441" lon="5.16329">
        <ele>239</ele>
        <time>2023-01-30T14:02:14.000Z</time>
      </trkpt>
      <trkpt lat="48.81442" lon="5.16331">
        <ele>239</ele>
        <time>2023-01-30T14:02:15.000Z</time>
      </trkpt>
      <trkpt lat="48.81443" lon="5.16333">
        <ele>239</ele>
        <time>2023-01-30T14:02:16.000Z</time>
      </trkpt>
      <trkpt lat="48.81444" lon="5.16334">
        <ele>239</ele>
        <time>2023-01-30T14:02:17.000Z</time>
      </trkpt>
      <trkpt lat="48.81444" lon="5.16336">
        <ele>239</ele>
        <time>2023-01-30T14:02:18.000Z</time>
      </trkpt>
      <trkpt lat="48.81445" lon="5.16337">
        <ele>239</ele>
        <time>2023-01-30T14:02:19.000Z</time>
      </trkpt>
      <trkpt lat="48.81446" lon="5.16339">
        <ele>239</ele>
        <time>2023-01-30T14:02:20.000Z</time>
      </trkpt>
      <trkpt lat="48.81447" lon="5.1634">
        <ele>239</ele>
        <time>2023-01-30T14:02:21.000Z</time>
      </trkpt>
      <trkpt lat="48.81448" lon="5.16341">
        <ele>239</ele>
        <time>2023-01-30T14:02:22.000Z</time>
      </trkpt>
      <trkpt lat="48.81448" lon="5.16343">
        <ele>239</ele>
        <time>2023-01-30T14:02:23.000Z</time>
      </trkpt>
      <trkpt lat="48.81449" lon="5.16345">
        <ele>239</ele>
        <time>2023-01-30T14:02:24.000Z</time>
      </trkpt>
      <trkpt lat="48.81449" lon="5.16346">
        <ele>239</ele>
        <time>2023-01-30T14:02:25.000Z</time>
      </trkpt>
      <trkpt lat="48.8145" lon="5.16348">
        <ele>239</ele>
        <time>2023-01-30T14:02:26.000Z</time>
      </trkpt>
      <trkpt lat="48.81451" lon="5.16351">
        <ele>239</ele>
        <time>2023-01-30T14:02:27.000Z</time>
      </trkpt>
      <trkpt lat="48.81452" lon="5.16353">
        <ele>239</ele>
        <time>2023-01-30T14:02:28.000Z</time>
      </trkpt>
      <trkpt lat="48.81454" lon="5.16355">
        <ele>239</ele>
        <time>2023-01-30T14:02:29.000Z</time>
      </trkpt>
      <trkpt lat="48.81454" lon="5.16358">
        <ele>239</ele>
        <time>2023-01-30T14:02:30.000Z</time>
      </trkpt>
      <trkpt lat="48.81455" lon="5.1636">
        <ele>239</ele>
        <time>2023-01-30T14:02:31.000Z</time>
      </trkpt>
      <trkpt lat="48.81456" lon="5.16362">
        <ele>239</ele>
        <time>2023-01-30T14:02:32.000Z</time>
      </trkpt>
      <trkpt lat="48.81457" lon="5.16363">
        <ele>239</ele>
        <time>2023-01-30T14:02:33.000Z</time>
      </trkpt>
      <trkpt lat="48.81458" lon="5.16365">
        <ele>239</ele>
        <time>2023-01-30T14:02:34.000Z</time>
      </trkpt>
      <trkpt lat="48.81459" lon="5.16366">
        <ele>239</ele>
        <time>2023-01-30T14:02:35.000Z</time>
      </trkpt>
      <trkpt lat="48.8146" lon="5.16368">
        <ele>239</ele>
        <time>2023-01-30T14:02:36.000Z</time>
      </trkpt>
      <trkpt lat="48.81461" lon="5.16369">
        <ele>239</ele>
        <time>2023-01-30T14:02:37.000Z</time>
      </trkpt>
      <trkpt lat="48.81462" lon="5.16371">
        <ele>239</ele>
        <time>2023-01-30T14:02:38.000Z</time>
      </trkpt>
      <trkpt lat="48.81463" lon="5.16373">
        <ele>239</ele>
        <time>2023-01-30T14:02:39.000Z</time>
      </trkpt>
      <trkpt lat="48.81464" lon="5.16374">
        <ele>239</ele>
        <time>2023-01-30T14:02:40.000Z</time>
      </trkpt>
      <trkpt lat="48.81465" lon="5.16376">
        <ele>239</ele>
        <time>2023-01-30T14:02:41.000Z</time>
      </trkpt>
      <trkpt lat="48.81466" lon="5.16378">
        <ele>239</ele>
        <time>2023-01-30T14:02:42.000Z</time>
      </trkpt>
      <trkpt lat="48.81467" lon="5.1638">
        <ele>239</ele>
        <time>2023-01-30T14:02:43.000Z</time>
      </trkpt>
      <trkpt lat="48.81468" lon="5.16382">
        <ele>239</ele>
        <time>2023-01-30T14:02:44.000Z</time>
      </trkpt>
      <trkpt lat="48.81469" lon="5.16384">
        <ele>239</ele>
        <time>2023-01-30T14:02:45.000Z</time>
      </trkpt>
      <trkpt lat="48.8147" lon="5.16386">
        <ele>239</ele>
        <time>2023-01-30T14:02:46.000Z</time>
      </trkpt>
      <trkpt lat="48.8147" lon="5.16387">
        <ele>239</ele>
        <time>2023-01-30T14:02:47.000Z</time>
      </trkpt>
      <trkpt lat="48.81471" lon="5.16389">
        <ele>239</ele>
        <time>2023-01-30T14:02:48.000Z</time>
      </trkpt>
      <trkpt lat="48.81472" lon="5.16391">
        <ele>239</ele>
        <time>2023-01-30T14:02:49.000Z</time>
      </trkpt>
      <trkpt lat="48.81473" lon="5.16393">
        <ele>239</ele>
        <time>2023-01-30T14:02:50.000Z</time>
      </trkpt>
      <trkpt lat="48.81473" lon="5.16395">
        <ele>239</ele>
        <time>2023-01-30T14:02:51.000Z</time>
      </trkpt>
      <trkpt lat="48.81474" lon="5.16397">
        <ele>239</ele>
        <time>2023-01-30T14:02:52.000Z</time>
      </trkpt>
      <trkpt lat="48.81475" lon="5.16399">
        <ele>239</ele>
        <time>2023-01-30T14:02:53.000Z</time>
      </trkpt>
      <trkpt lat="48.81476" lon="5.16401">
        <ele>239</ele>
        <time>2023-01-30T14:02:54.000Z</time>
      </trkpt>
      <trkpt lat="48.81477" lon="5.16403">
        <ele>239</ele>
        <time>2023-01-30T14:02:55.000Z</time>
      </trkpt>
      <trkpt lat="48.81478" lon="5.16405">
        <ele>239.5</ele>
        <time>2023-01-30T14:02:56.000Z</time>
      </trkpt>
      <trkpt lat="48.81478" lon="5.16407">
        <ele>240</ele>
        <time>2023-01-30T14:02:57.000Z</time>
      </trkpt>
      <trkpt lat="48.81479" lon="5.16409">
        <ele>240</ele>
        <time>2023-01-30T14:02:58.000Z</time>
      </trkpt>
      <trkpt lat="48.8148" lon="5.16411">
        <ele>240</ele>
        <time>2023-01-30T14:02:59.000Z</time>
      </trkpt>
      <trkpt lat="48.81481" lon="5.16413">
        <ele>240</ele>
        <time>2023-01-30T14:03:00.000Z</time>
      </trkpt>
      <trkpt lat="48.81481" lon="5.16415">
        <ele>240</ele>
        <time>2023-01-30T14:03:01.000Z</time>
      </trkpt>
      <trkpt lat="48.81482" lon="5.16417">
        <ele>240</ele>
        <time>2023-01-30T14:03:02.000Z</time>
      </trkpt>
      <trkpt lat="48.81483" lon="5.16419">
        <ele>240</ele>
        <time>2023-01-30T14:03:03.000Z</time>
      </trkpt>
      <trkpt lat="48.81483" lon="5.16421">
        <ele>240</ele>
        <time>2023-01-30T14:03:04.000Z</time>
      </trkpt>
      <trkpt lat="48.81484" lon="5.16422">
        <ele>240</ele>
        <time>2023-01-30T14:03:05.000Z</time>
      </trkpt>
      <trkpt lat="48.81485" lon="5.16424">
        <ele>240</ele>
        <time>2023-01-30T14:03:06.000Z</time>
      </trkpt>
      <trkpt lat="48.81486" lon="5.16425">
        <ele>240</ele>
        <time>2023-01-30T14:03:07.000Z</time>
      </trkpt>
      <trkpt lat="48.81486" lon="5.16427">
        <ele>240</ele>
        <time>2023-01-30T14:03:08.000Z</time>
      </trkpt>
      <trkpt lat="48.81487" lon="5.16428">
        <ele>240</ele>
        <time>2023-01-30T14:03:09.000Z</time>
      </trkpt>
      <trkpt lat="48.81488" lon="5.1643">
        <ele>240</ele>
        <time>2023-01-30T14:03:10.000Z</time>
      </trkpt>
      <trkpt lat="48.81488" lon="5.16432">
        <ele>240</ele>
        <time>2023-01-30T14:03:11.000Z</time>
      </trkpt>
      <trkpt lat="48.81489" lon="5.16433">
        <ele>240</ele>
        <time>2023-01-30T14:03:12.000Z</time>
      </trkpt>
      <trkpt lat="48.8149" lon="5.16435">
        <ele>240</ele>
        <time>2023-01-30T14:03:13.000Z</time>
      </trkpt>
      <trkpt lat="48.8149" lon="5.16437">
        <ele>240</ele>
        <time>2023-01-30T14:03:14.000Z</time>
      </trkpt>
      <trkpt lat="48.8149" lon="5.16439">
        <ele>240</ele>
        <time>2023-01-30T14:03:15.000Z</time>
      </trkpt>
      <trkpt lat="48.81491" lon="5.16441">
        <ele>240</ele>
        <time>2023-01-30T14:03:16.000Z</time>
      </trkpt>
      <trkpt lat="48.81492" lon="5.16443">
        <ele>240</ele>
        <time>2023-01-30T14:03:17.000Z</time>
      </trkpt>
      <trkpt lat="48.81492" lon="5.16445">
        <ele>240</ele>
        <time>2023-01-30T14:03:18.000Z</time>
      </trkpt>
      <trkpt lat="48.81494" lon="5.16447">
        <ele>240</ele>
        <time>2023-01-30T14:03:19.000Z</time>
      </trkpt>
      <trkpt lat="48.81495" lon="5.1645">
        <ele>240</ele>
        <time>2023-01-30T14:03:20.000Z</time>
      </trkpt>
      <trkpt lat="48.81496" lon="5.16452">
        <ele>240</ele>
        <time>2023-01-30T14:03:21.000Z</time>
      </trkpt>
      <trkpt lat="48.81497" lon="5.16455">
        <ele>240</ele>
        <time>2023-01-30T14:03:22.000Z</time>
      </trkpt>
      <trkpt lat="48.81498" lon="5.16457">
        <ele>240</ele>
        <time>2023-01-30T14:03:23.000Z</time>
      </trkpt>
      <trkpt lat="48.81499" lon="5.16459">
        <ele>240</ele>
        <time>2023-01-30T14:03:24.000Z</time>
      </trkpt>
      <trkpt lat="48.81499" lon="5.16461">
        <ele>240</ele>
        <time>2023-01-30T14:03:25.000Z</time>
      </trkpt>
      <trkpt lat="48.815" lon="5.16462">
        <ele>240</ele>
        <time>2023-01-30T14:03:26.000Z</time>
      </trkpt>
      <trkpt lat="48.815" lon="5.16463">
        <ele>240</ele>
        <time>2023-01-30T14:03:27.000Z</time>
      </trkpt>
      <trkpt lat="48.81501" lon="5.16464">
        <ele>240</ele>
        <time>2023-01-30T14:03:28.000Z</time>
      </trkpt>
      <trkpt lat="48.81502" lon="5.16465">
        <ele>240</ele>
        <time>2023-01-30T14:03:29.000Z</time>
      </trkpt>
      <trkpt lat="48.81502" lon="5.16466">
        <ele>239.5</ele>
        <time>2023-01-30T14:03:30.000Z</time>
      </trkpt>
      <trkpt lat="48.81503" lon="5.16468">
        <ele>239</ele>
        <time>2023-01-30T14:03:31.000Z</time>
      </trkpt>
      <trkpt lat="48.81503" lon="5.16469">
        <ele>240</ele>
        <time>2023-01-30T14:03:32.000Z</time>
      </trkpt>
      <trkpt lat="48.81504" lon="5.16471">
        <ele>240</ele>
        <time>2023-01-30T14:03:33.000Z</time>
      </trkpt>
      <trkpt lat="48.81504" lon="5.16473">
        <ele>240</ele>
        <time>2023-01-30T14:03:34.000Z</time>
      </trkpt>
      <trkpt lat="48.81505" lon="5.16474">
        <ele>240</ele>
        <time>2023-01-30T14:03:35.000Z</time>
      </trkpt>
      <trkpt lat="48.81506" lon="5.16477">
        <ele>240</ele>
        <time>2023-01-30T14:03:36.000Z</time>
      </trkpt>
      <trkpt lat="48.81507" lon="5.16479">
        <ele>240</ele>
        <time>2023-01-30T14:03:37.000Z</time>
      </trkpt>
      <trkpt lat="48.81508" lon="5.16481">
        <ele>240</ele>
        <time>2023-01-30T14:03:38.000Z</time>
      </trkpt>
      <trkpt lat="48.8151" lon="5.16484">
        <ele>240</ele>
        <time>2023-01-30T14:03:39.000Z</time>
      </trkpt>
      <trkpt lat="48.81512" lon="5.16488">
        <ele>240</ele>
        <time>2023-01-30T14:03:40.000Z</time>
      </trkpt>
      <trkpt lat="48.81514" lon="5.16491">
        <ele>240</ele>
        <time>2023-01-30T14:03:41.000Z</time>
      </trkpt>
      <trkpt lat="48.81515" lon="5.16493">
        <ele>240</ele>
        <time>2023-01-30T14:03:42.000Z</time>
      </trkpt>
      <trkpt lat="48.81516" lon="5.16496">
        <ele>240</ele>
        <time>2023-01-30T14:03:43.000Z</time>
      </trkpt>
      <trkpt lat="48.81518" lon="5.16498">
        <ele>240</ele>
        <time>2023-01-30T14:03:44.000Z</time>
      </trkpt>
      <trkpt lat="48.81519" lon="5.165">
        <ele>240</ele>
        <time>2023-01-30T14:03:45.000Z</time>
      </trkpt>
      <trkpt lat="48.8152" lon="5.16502">
        <ele>240</ele>
        <time>2023-01-30T14:03:46.000Z</time>
      </trkpt>
      <trkpt lat="48.81521" lon="5.16505">
        <ele>240</ele>
        <time>2023-01-30T14:03:47.000Z</time>
      </trkpt>
      <trkpt lat="48.81522" lon="5.16507">
        <ele>240</ele>
        <time>2023-01-30T14:03:48.000Z</time>
      </trkpt>
      <trkpt lat="48.81523" lon="5.16509">
        <ele>240</ele>
        <time>2023-01-30T14:03:49.000Z</time>
      </trkpt>
      <trkpt lat="48.81524" lon="5.16511">
        <ele>240</ele>
        <time>2023-01-30T14:03:50.000Z</time>
      </trkpt>
      <trkpt lat="48.81525" lon="5.16513">
        <ele>240</ele>
        <time>2023-01-30T14:03:51.000Z</time>
      </trkpt>
      <trkpt lat="48.81526" lon="5.16515">
        <ele>240</ele>
        <time>2023-01-30T14:03:52.000Z</time>
      </trkpt>
      <trkpt lat="48.81527" lon="5.16517">
        <ele>240</ele>
        <time>2023-01-30T14:03:53.000Z</time>
      </trkpt>
      <trkpt lat="48.81528" lon="5.16519">
        <ele>240</ele>
        <time>2023-01-30T14:03:54.000Z</time>
      </trkpt>
      <trkpt lat="48.81528" lon="5.16521">
        <ele>240</ele>
        <time>2023-01-30T14:03:55.000Z</time>
      </trkpt>
      <trkpt lat="48.81529" lon="5.16523">
        <ele>240</ele>
        <time>2023-01-30T14:03:56.000Z</time>
      </trkpt>
      <trkpt lat="48.8153" lon="5.16524">
        <ele>240</ele>
        <time>2023-01-30T14:03:57.000Z</time>
      </trkpt>
      <trkpt lat="48.8153" lon="5.16526">
        <ele>240</ele>
        <time>2023-01-30T14:03:58.000Z</time>
      </trkpt>
      <trkpt lat="48.81531" lon="5.16528">
        <ele>239.7</ele>
        <time>2023-01-30T14:03:59.000Z</time>
      </trkpt>
      <trkpt lat="48.81531" lon="5.16529">
        <ele>239.3</ele>
        <time>2023-01-30T14:04:00.000Z</time>
      </trkpt>
      <trkpt lat="48.81532" lon="5.1653">
        <ele>239</ele>
        <time>2023-01-30T14:04:01.000Z</time>
      </trkpt>
      <trkpt lat="48.81532" lon="5.16532">
        <ele>239</ele>
        <time>2023-01-30T14:04:02.000Z</time>
      </trkpt>
      <trkpt lat="48.81533" lon="5.16533">
        <ele>239</ele>
        <time>2023-01-30T14:04:03.000Z</time>
      </trkpt>
      <trkpt lat="48.81534" lon="5.16534">
        <ele>239</ele>
        <time>2023-01-30T14:04:04.000Z</time>
      </trkpt>
      <trkpt lat="48.81534" lon="5.16535">
        <ele>239</ele>
        <time>2023-01-30T14:04:05.000Z</time>
      </trkpt>
      <trkpt lat="48.81535" lon="5.16536">
        <ele>239</ele>
        <time>2023-01-30T14:04:06.000Z</time>
      </trkpt>
      <trkpt lat="48.81537" lon="5.16538">
        <ele>239</ele>
        <time>2023-01-30T14:04:07.000Z</time>
      </trkpt>
      <trkpt lat="48.81538" lon="5.1654">
        <ele>239</ele>
        <time>2023-01-30T14:04:08.000Z</time>
      </trkpt>
      <trkpt lat="48.8154" lon="5.16542">
        <ele>238.7</ele>
        <time>2023-01-30T14:04:09.000Z</time>
      </trkpt>
      <trkpt lat="48.81541" lon="5.16544">
        <ele>238.3</ele>
        <time>2023-01-30T14:04:10.000Z</time>
      </trkpt>
      <trkpt lat="48.81542" lon="5.16546">
        <ele>238</ele>
        <time>2023-01-30T14:04:11.000Z</time>
      </trkpt>
      <trkpt lat="48.81543" lon="5.16548">
        <ele>238</ele>
        <time>2023-01-30T14:04:12.000Z</time>
      </trkpt>
      <trkpt lat="48.81545" lon="5.16549">
        <ele>238</ele>
        <time>2023-01-30T14:04:13.000Z</time>
      </trkpt>
      <trkpt lat="48.81546" lon="5.16551">
        <ele>238</ele>
        <time>2023-01-30T14:04:14.000Z</time>
      </trkpt>
      <trkpt lat="48.81547" lon="5.16552">
        <ele>237.7</ele>
        <time>2023-01-30T14:04:15.000Z</time>
      </trkpt>
      <trkpt lat="48.81547" lon="5.16553">
        <ele>237.3</ele>
        <time>2023-01-30T14:04:16.000Z</time>
      </trkpt>
      <trkpt lat="48.81548" lon="5.16555">
        <ele>237</ele>
        <time>2023-01-30T14:04:17.000Z</time>
      </trkpt>
      <trkpt lat="48.81548" lon="5.16556">
        <ele>237</ele>
        <time>2023-01-30T14:04:18.000Z</time>
      </trkpt>
      <trkpt lat="48.81549" lon="5.16557">
        <ele>237</ele>
        <time>2023-01-30T14:04:19.000Z</time>
      </trkpt>
      <trkpt lat="48.81549" lon="5.16559">
        <ele>237</ele>
        <time>2023-01-30T14:04:20.000Z</time>
      </trkpt>
      <trkpt lat="48.81551" lon="5.1656">
        <ele>237</ele>
        <time>2023-01-30T14:04:21.000Z</time>
      </trkpt>
      <trkpt lat="48.81552" lon="5.16562">
        <ele>236</ele>
        <time>2023-01-30T14:04:22.000Z</time>
      </trkpt>
      <trkpt lat="48.81553" lon="5.16564">
        <ele>236</ele>
        <time>2023-01-30T14:04:23.000Z</time>
      </trkpt>
      <trkpt lat="48.81555" lon="5.16567">
        <ele>236</ele>
        <time>2023-01-30T14:04:24.000Z</time>
      </trkpt>
      <trkpt lat="48.81556" lon="5.16569">
        <ele>236</ele>
        <time>2023-01-30T14:04:25.000Z</time>
      </trkpt>
      <trkpt lat="48.81557" lon="5.1657">
        <ele>236</ele>
        <time>2023-01-30T14:04:26.000Z</time>
      </trkpt>
      <trkpt lat="48.81558" lon="5.16572">
        <ele>236</ele>
        <time>2023-01-30T14:04:27.000Z</time>
      </trkpt>
      <trkpt lat="48.81559" lon="5.16573">
        <ele>236</ele>
        <time>2023-01-30T14:04:28.000Z</time>
      </trkpt>
      <trkpt lat="48.8156" lon="5.16574">
        <ele>236</ele>
        <time>2023-01-30T14:04:29.000Z</time>
      </trkpt>
      <trkpt lat="48.81561" lon="5.16575">
        <ele>236</ele>
        <time>2023-01-30T14:04:30.000Z</time>
      </trkpt>
      <trkpt lat="48.81561" lon="5.16575">
        <ele>236</ele>
        <time>2023-01-30T14:04:31.000Z</time>
      </trkpt>
      <trkpt lat="48.81562" lon="5.16576">
        <ele>236</ele>
        <time>2023-01-30T14:04:32.000Z</time>
      </trkpt>
      <trkpt lat="48.81563" lon="5.16577">
        <ele>236</ele>
        <time>2023-01-30T14:04:33.000Z</time>
      </trkpt>
      <trkpt lat="48.81564" lon="5.16578">
        <ele>236</ele>
        <time>2023-01-30T14:04:34.000Z</time>
      </trkpt>
      <trkpt lat="48.81565" lon="5.16579">
        <ele>236</ele>
        <time>2023-01-30T14:04:35.000Z</time>
      </trkpt>
      <trkpt lat="48.81566" lon="5.1658">
        <ele>236</ele>
        <time>2023-01-30T14:04:36.000Z</time>
      </trkpt>
      <trkpt lat="48.81567" lon="5.16582">
        <ele>236</ele>
        <time>2023-01-30T14:04:37.000Z</time>
      </trkpt>
      <trkpt lat="48.81568" lon="5.16583">
        <ele>236</ele>
        <time>2023-01-30T14:04:38.000Z</time>
      </trkpt>
      <trkpt lat="48.8157" lon="5.16584">
        <ele>236</ele>
        <time>2023-01-30T14:04:39.000Z</time>
      </trkpt>
      <trkpt lat="48.81571" lon="5.16585">
        <ele>236</ele>
        <time>2023-01-30T14:04:40.000Z</time>
      </trkpt>
      <trkpt lat="48.81572" lon="5.16586">
        <ele>236</ele>
        <time>2023-01-30T14:04:41.000Z</time>
      </trkpt>
      <trkpt lat="48.81572" lon="5.16587">
        <ele>236</ele>
        <time>2023-01-30T14:04:42.000Z</time>
      </trkpt>
      <trkpt lat="48.81573" lon="5.16587">
        <ele>236</ele>
        <time>2023-01-30T14:04:43.000Z</time>
      </trkpt>
      <trkpt lat="48.81573" lon="5.16588">
        <ele>236</ele>
        <time>2023-01-30T14:04:44.000Z</time>
      </trkpt>
      <trkpt lat="48.81574" lon="5.16588">
        <ele>236</ele>
        <time>2023-01-30T14:04:45.000Z</time>
      </trkpt>
      <trkpt lat="48.81574" lon="5.16588">
        <ele>236</ele>
        <time>2023-01-30T14:04:46.000Z</time>
      </trkpt>
      <trkpt lat="48.81574" lon="5.16588">
        <ele>236</ele>
        <time>2023-01-30T14:04:47.000Z</time>
      </trkpt>
      <trkpt lat="48.81574" lon="5.16588">
        <ele>236</ele>
        <time>2023-01-30T14:04:48.000Z</time>
      </trkpt>
      <trkpt lat="48.81574" lon="5.16589">
        <ele>236</ele>
        <time>2023-01-30T14:04:49.000Z</time>
      </trkpt>
      <trkpt lat="48.81574" lon="5.16589">
        <ele>236</ele>
        <time>2023-01-30T14:04:50.000Z</time>
      </trkpt>
      <trkpt lat="48.81575" lon="5.1659">
        <ele>236</ele>
        <time>2023-01-30T14:04:51.000Z</time>
      </trkpt>
      <trkpt lat="48.81575" lon="5.1659">
        <ele>236</ele>
        <time>2023-01-30T14:04:52.000Z</time>
      </trkpt>
      <trkpt lat="48.81575" lon="5.1659">
        <ele>236</ele>
        <time>2023-01-30T14:04:53.000Z</time>
      </trkpt>
      <trkpt lat="48.81575" lon="5.1659">
        <ele>236</ele>
        <time>2023-01-30T14:04:54.000Z</time>
      </trkpt>
      <trkpt lat="48.81575" lon="5.1659">
        <ele>236</ele>
        <time>2023-01-30T14:04:55.000Z</time>
      </trkpt>
      <trkpt lat="48.81575" lon="5.16591">
        <ele>236</ele>
        <time>2023-01-30T14:04:56.000Z</time>
      </trkpt>
      <trkpt lat="48.81575" lon="5.16591">
        <ele>236</ele>
        <time>2023-01-30T14:04:57.000Z</time>
      </trkpt>
      <trkpt lat="48.81575" lon="5.16591">
        <ele>236</ele>
        <time>2023-01-30T14:04:58.000Z</time>
      </trkpt>
      <trkpt lat="48.81575" lon="5.16591">
        <ele>236</ele>
        <time>2023-01-30T14:04:59.000Z</time>
      </trkpt>
      <trkpt lat="48.81575" lon="5.16591">
        <ele>236</ele>
        <time>2023-01-30T14:05:00.000Z</time>
      </trkpt>
      <trkpt lat="48.81575" lon="5.16591">
        <ele>236</ele>
        <time>2023-01-30T14:05:01.000Z</time>
      </trkpt>
      <trkpt lat="48.81575" lon="5.1659">
        <ele>236</ele>
        <time>2023-01-30T14:05:02.000Z</time>
      </trkpt>
      <trkpt lat="48.81575" lon="5.1659">
        <ele>236</ele>
        <time>2023-01-30T14:05:03.000Z</time>
      </trkpt>
      <trkpt lat="48.81575" lon="5.1659">
        <ele>236</ele>
        <time>2023-01-30T14:05:04.000Z</time>
      </trkpt>
      <trkpt lat="48.81575" lon="5.1659">
        <ele>236</ele>
        <time>2023-01-30T14:05:05.000Z</time>
      </trkpt>
      <trkpt lat="48.81575" lon="5.1659">
        <ele>236</ele>
        <time>2023-01-30T14:05:06.000Z</time>
      </trkpt>
      <trkpt lat="48.81576" lon="5.1659">
        <ele>236</ele>
        <time>2023-01-30T14:05:07.000Z</time>
      </trkpt>
      <trkpt lat="48.81578" lon="5.1659">
        <ele>236</ele>
        <time>2023-01-30T14:05:08.000Z</time>
      </trkpt>
      <trkpt lat="48.8158" lon="5.1659">
        <ele>236</ele>
        <time>2023-01-30T14:05:09.000Z</time>
      </trkpt>
      <trkpt lat="48.8158" lon="5.1659">
        <ele>236</ele>
        <time>2023-01-30T14:05:10.000Z</time>
      </trkpt>
      <trkpt lat="48.81581" lon="5.1659">
        <ele>235.5</ele>
        <time>2023-01-30T14:05:11.000Z</time>
      </trkpt>
      <trkpt lat="48.81581" lon="5.16589">
        <ele>235</ele>
        <time>2023-01-30T14:05:12.000Z</time>
      </trkpt>
      <trkpt lat="48.81581" lon="5.16589">
        <ele>235</ele>
        <time>2023-01-30T14:05:13.000Z</time>
      </trkpt>
      <trkpt lat="48.81581" lon="5.16589">
        <ele>235</ele>
        <time>2023-01-30T14:05:14.000Z</time>
      </trkpt>
      <trkpt lat="48.81581" lon="5.16589">
        <ele>235</ele>
        <time>2023-01-30T14:05:15.000Z</time>
      </trkpt>
      <trkpt lat="48.81581" lon="5.16589">
        <ele>235</ele>
        <time>2023-01-30T14:05:16.000Z</time>
      </trkpt>
      <trkpt lat="48.81581" lon="5.16589">
        <ele>235</ele>
        <time>2023-01-30T14:05:17.000Z</time>
      </trkpt>
      <trkpt lat="48.81581" lon="5.16589">
        <ele>235</ele>
        <time>2023-01-30T14:05:18.000Z</time>
      </trkpt>
      <trkpt lat="48.81581" lon="5.16589">
        <ele>235</ele>
        <time>2023-01-30T14:05:19.000Z</time>
      </trkpt>
      <trkpt lat="48.81581" lon="5.16589">
        <ele>235</ele>
        <time>2023-01-30T14:05:20.000Z</time>
      </trkpt>
      <trkpt lat="48.81581" lon="5.16589">
        <ele>235</ele>
        <time>2023-01-30T14:05:21.000Z</time>
      </trkpt>
      <trkpt lat="48.81581" lon="5.16589">
        <ele>235</ele>
        <time>2023-01-30T14:05:22.000Z</time>
      </trkpt>
      <trkpt lat="48.81581" lon="5.16589">
        <ele>235</ele>
        <time>2023-01-30T14:05:23.000Z</time>
      </trkpt>
      <trkpt lat="48.81581" lon="5.16589">
        <ele>235</ele>
        <time>2023-01-30T14:05:24.000Z</time>
      </trkpt>
      <trkpt lat="48.81581" lon="5.16589">
        <ele>235</ele>
        <time>2023-01-30T14:05:25.000Z</time>
      </trkpt>
      <trkpt lat="48.81581" lon="5.16589">
        <ele>235</ele>
        <time>2023-01-30T14:05:26.000Z</time>
      </trkpt>
      <trkpt lat="48.81581" lon="5.16589">
        <ele>235</ele>
        <time>2023-01-30T14:05:27.000Z</time>
      </trkpt>
      <trkpt lat="48.81581" lon="5.16589">
        <ele>235</ele>
        <time>2023-01-30T14:05:28.000Z</time>
      </trkpt>
      <trkpt lat="48.81581" lon="5.16589">
        <ele>235</ele>
        <time>2023-01-30T14:05:29.000Z</time>
      </trkpt>
      <trkpt lat="48.81581" lon="5.16589">
        <ele>235</ele>
        <time>2023-01-30T14:05:30.000Z</time>
      </trkpt>
      <trkpt lat="48.81581" lon="5.16589">
        <ele>235</ele>
        <time>2023-01-30T14:05:31.000Z</time>
      </trkpt>
      <trkpt lat="48.81581" lon="5.16589">
        <ele>235</ele>
        <time>2023-01-30T14:05:32.000Z</time>
      </trkpt>
      <trkpt lat="48.81581" lon="5.16589">
        <ele>235</ele>
        <time>2023-01-30T14:05:33.000Z</time>
      </trkpt>
      <trkpt lat="48.81581" lon="5.16589">
        <ele>235</ele>
        <time>2023-01-30T14:05:34.000Z</time>
      </trkpt>
      <trkpt lat="48.81581" lon="5.16589">
        <ele>235</ele>
        <time>2023-01-30T14:05:35.000Z</time>
      </trkpt>
      <trkpt lat="48.81581" lon="5.16589">
        <ele>235</ele>
        <time>2023-01-30T14:05:36.000Z</time>
      </trkpt>
      <trkpt lat="48.81581" lon="5.16589">
        <ele>235</ele>
        <time>2023-01-30T14:05:37.000Z</time>
      </trkpt>
      <trkpt lat="48.81581" lon="5.16589">
        <ele>235</ele>
        <time>2023-01-30T14:05:38.000Z</time>
      </trkpt>
      <trkpt lat="48.81581" lon="5.16589">
        <ele>235</ele>
        <time>2023-01-30T14:05:39.000Z</time>
      </trkpt>
      <trkpt lat="48.81581" lon="5.16589">
        <ele>235</ele>
        <time>2023-01-30T14:05:40.000Z</time>
      </trkpt>
      <trkpt lat="48.81581" lon="5.16589">
        <ele>235</ele>
        <time>2023-01-30T14:05:41.000Z</time>
      </trkpt>
      <trkpt lat="48.81581" lon="5.16589">
        <ele>235</ele>
        <time>2023-01-30T14:05:42.000Z</time>
      </trkpt>
      <trkpt lat="48.81581" lon="5.16589">
        <ele>235</ele>
        <time>2023-01-30T14:05:43.000Z</time>
      </trkpt>
      <trkpt lat="48.81581" lon="5.16589">
        <ele>235</ele>
        <time>2023-01-30T14:05:44.000Z</time>
      </trkpt>
      <trkpt lat="48.81581" lon="5.16589">
        <ele>235</ele>
        <time>2023-01-30T14:05:45.000Z</time>
      </trkpt>
      <trkpt lat="48.81581" lon="5.16589">
        <ele>235</ele>
        <time>2023-01-30T14:05:46.000Z</time>
      </trkpt>
      <trkpt lat="48.81581" lon="5.16589">
        <ele>235</ele>
        <time>2023-01-30T14:05:47.000Z</time>
      </trkpt>
      <trkpt lat="48.81581" lon="5.16589">
        <ele>235</ele>
        <time>2023-01-30T14:05:48.000Z</time>
      </trkpt>
      <trkpt lat="48.81582" lon="5.16589">
        <ele>235</ele>
        <time>2023-01-30T14:05:49.000Z</time>
      </trkpt>
      <trkpt lat="48.81582" lon="5.16589">
        <ele>235</ele>
        <time>2023-01-30T14:05:50.000Z</time>
      </trkpt>
      <trkpt lat="48.81583" lon="5.16589">
        <ele>235</ele>
        <time>2023-01-30T14:05:51.000Z</time>
      </trkpt>
      <trkpt lat="48.81584" lon="5.16588">
        <ele>235</ele>
        <time>2023-01-30T14:05:52.000Z</time>
      </trkpt>
      <trkpt lat="48.81585" lon="5.16587">
        <ele>235</ele>
        <time>2023-01-30T14:05:53.000Z</time>
      </trkpt>
      <trkpt lat="48.81586" lon="5.16586">
        <ele>235</ele>
        <time>2023-01-30T14:05:54.000Z</time>
      </trkpt>
      <trkpt lat="48.81587" lon="5.16585">
        <ele>235</ele>
        <time>2023-01-30T14:05:55.000Z</time>
      </trkpt>
      <trkpt lat="48.81589" lon="5.16583">
        <ele>235</ele>
        <time>2023-01-30T14:05:56.000Z</time>
      </trkpt>
      <trkpt lat="48.8159" lon="5.16582">
        <ele>235</ele>
        <time>2023-01-30T14:05:57.000Z</time>
      </trkpt>
      <trkpt lat="48.81592" lon="5.1658">
        <ele>234.5</ele>
        <time>2023-01-30T14:05:58.000Z</time>
      </trkpt>
      <trkpt lat="48.81594" lon="5.16579">
        <ele>234</ele>
        <time>2023-01-30T14:05:59.000Z</time>
      </trkpt>
      <trkpt lat="48.81596" lon="5.16577">
        <ele>234</ele>
        <time>2023-01-30T14:06:00.000Z</time>
      </trkpt>
      <trkpt lat="48.81598" lon="5.16576">
        <ele>234</ele>
        <time>2023-01-30T14:06:01.000Z</time>
      </trkpt>
      <trkpt lat="48.816" lon="5.16574">
        <ele>234</ele>
        <time>2023-01-30T14:06:02.000Z</time>
      </trkpt>
      <trkpt lat="48.81601" lon="5.16573">
        <ele>234</ele>
        <time>2023-01-30T14:06:03.000Z</time>
      </trkpt>
      <trkpt lat="48.81603" lon="5.16571">
        <ele>234</ele>
        <time>2023-01-30T14:06:04.000Z</time>
      </trkpt>
      <trkpt lat="48.81604" lon="5.1657">
        <ele>234</ele>
        <time>2023-01-30T14:06:05.000Z</time>
      </trkpt>
      <trkpt lat="48.81605" lon="5.16569">
        <ele>234</ele>
        <time>2023-01-30T14:06:06.000Z</time>
      </trkpt>
      <trkpt lat="48.81607" lon="5.16568">
        <ele>233.7</ele>
        <time>2023-01-30T14:06:07.000Z</time>
      </trkpt>
      <trkpt lat="48.81608" lon="5.16567">
        <ele>233.3</ele>
        <time>2023-01-30T14:06:08.000Z</time>
      </trkpt>
      <trkpt lat="48.81608" lon="5.16566">
        <ele>233</ele>
        <time>2023-01-30T14:06:09.000Z</time>
      </trkpt>
      <trkpt lat="48.81609" lon="5.16565">
        <ele>233</ele>
        <time>2023-01-30T14:06:10.000Z</time>
      </trkpt>
      <trkpt lat="48.8161" lon="5.16565">
        <ele>233</ele>
        <time>2023-01-30T14:06:11.000Z</time>
      </trkpt>
      <trkpt lat="48.81611" lon="5.16564">
        <ele>233</ele>
        <time>2023-01-30T14:06:12.000Z</time>
      </trkpt>
      <trkpt lat="48.81612" lon="5.16564">
        <ele>233</ele>
        <time>2023-01-30T14:06:13.000Z</time>
      </trkpt>
      <trkpt lat="48.81613" lon="5.16563">
        <ele>233</ele>
        <time>2023-01-30T14:06:14.000Z</time>
      </trkpt>
      <trkpt lat="48.81614" lon="5.16563">
        <ele>233</ele>
        <time>2023-01-30T14:06:15.000Z</time>
      </trkpt>
      <trkpt lat="48.81615" lon="5.16562">
        <ele>233</ele>
        <time>2023-01-30T14:06:16.000Z</time>
      </trkpt>
      <trkpt lat="48.81616" lon="5.16561">
        <ele>233</ele>
        <time>2023-01-30T14:06:17.000Z</time>
      </trkpt>
      <trkpt lat="48.81617" lon="5.16561">
        <ele>232</ele>
        <time>2023-01-30T14:06:18.000Z</time>
      </trkpt>
      <trkpt lat="48.81618" lon="5.1656">
        <ele>232</ele>
        <time>2023-01-30T14:06:19.000Z</time>
      </trkpt>
      <trkpt lat="48.8162" lon="5.16559">
        <ele>232</ele>
        <time>2023-01-30T14:06:20.000Z</time>
      </trkpt>
      <trkpt lat="48.81621" lon="5.16558">
        <ele>232</ele>
        <time>2023-01-30T14:06:21.000Z</time>
      </trkpt>
      <trkpt lat="48.81622" lon="5.16557">
        <ele>232</ele>
        <time>2023-01-30T14:06:22.000Z</time>
      </trkpt>
      <trkpt lat="48.81623" lon="5.16557">
        <ele>232</ele>
        <time>2023-01-30T14:06:23.000Z</time>
      </trkpt>
      <trkpt lat="48.81623" lon="5.16556">
        <ele>232</ele>
        <time>2023-01-30T14:06:24.000Z</time>
      </trkpt>
      <trkpt lat="48.81624" lon="5.16555">
        <ele>232</ele>
        <time>2023-01-30T14:06:25.000Z</time>
      </trkpt>
      <trkpt lat="48.81625" lon="5.16555">
        <ele>232</ele>
        <time>2023-01-30T14:06:26.000Z</time>
      </trkpt>
      <trkpt lat="48.81626" lon="5.16554">
        <ele>232</ele>
        <time>2023-01-30T14:06:27.000Z</time>
      </trkpt>
      <trkpt lat="48.81627" lon="5.16553">
        <ele>231.5</ele>
        <time>2023-01-30T14:06:28.000Z</time>
      </trkpt>
      <trkpt lat="48.81629" lon="5.16553">
        <ele>231</ele>
        <time>2023-01-30T14:06:29.000Z</time>
      </trkpt>
      <trkpt lat="48.81629" lon="5.16552">
        <ele>231</ele>
        <time>2023-01-30T14:06:30.000Z</time>
      </trkpt>
      <trkpt lat="48.8163" lon="5.16552">
        <ele>231</ele>
        <time>2023-01-30T14:06:31.000Z</time>
      </trkpt>
      <trkpt lat="48.81631" lon="5.16551">
        <ele>231</ele>
        <time>2023-01-30T14:06:32.000Z</time>
      </trkpt>
      <trkpt lat="48.81632" lon="5.16551">
        <ele>231</ele>
        <time>2023-01-30T14:06:33.000Z</time>
      </trkpt>
      <trkpt lat="48.81632" lon="5.1655">
        <ele>231</ele>
        <time>2023-01-30T14:06:34.000Z</time>
      </trkpt>
      <trkpt lat="48.81632" lon="5.1655">
        <ele>231</ele>
        <time>2023-01-30T14:06:35.000Z</time>
      </trkpt>
      <trkpt lat="48.81633" lon="5.1655">
        <ele>231</ele>
        <time>2023-01-30T14:06:36.000Z</time>
      </trkpt>
      <trkpt lat="48.81633" lon="5.1655">
        <ele>231</ele>
        <time>2023-01-30T14:06:37.000Z</time>
      </trkpt>
      <trkpt lat="48.81633" lon="5.1655">
        <ele>231</ele>
        <time>2023-01-30T14:06:38.000Z</time>
      </trkpt>
      <trkpt lat="48.81633" lon="5.1655">
        <ele>231</ele>
        <time>2023-01-30T14:06:39.000Z</time>
      </trkpt>
      <trkpt lat="48.81634" lon="5.1655">
        <ele>231</ele>
        <time>2023-01-30T14:06:40.000Z</time>
      </trkpt>
      <trkpt lat="48.81634" lon="5.1655">
        <ele>231.5</ele>
        <time>2023-01-30T14:06:41.000Z</time>
      </trkpt>
      <trkpt lat="48.81634" lon="5.1655">
        <ele>232</ele>
        <time>2023-01-30T14:06:42.000Z</time>
      </trkpt>
      <trkpt lat="48.81635" lon="5.1655">
        <ele>232</ele>
        <time>2023-01-30T14:06:43.000Z</time>
      </trkpt>
      <trkpt lat="48.81635" lon="5.1655">
        <ele>232</ele>
        <time>2023-01-30T14:06:44.000Z</time>
      </trkpt>
      <trkpt lat="48.81635" lon="5.1655">
        <ele>232</ele>
        <time>2023-01-30T14:06:45.000Z</time>
      </trkpt>
      <trkpt lat="48.81635" lon="5.1655">
        <ele>232</ele>
        <time>2023-01-30T14:06:46.000Z</time>
      </trkpt>
      <trkpt lat="48.81635" lon="5.1655">
        <ele>232</ele>
        <time>2023-01-30T14:06:47.000Z</time>
      </trkpt>
      <trkpt lat="48.81635" lon="5.1655">
        <ele>232</ele>
        <time>2023-01-30T14:06:48.000Z</time>
      </trkpt>
      <trkpt lat="48.81635" lon="5.1655">
        <ele>232</ele>
        <time>2023-01-30T14:06:49.000Z</time>
      </trkpt>
      <trkpt lat="48.81635" lon="5.16549">
        <ele>232</ele>
        <time>2023-01-30T14:06:50.000Z</time>
      </trkpt>
      <trkpt lat="48.81635" lon="5.16549">
        <ele>232</ele>
        <time>2023-01-30T14:06:51.000Z</time>
      </trkpt>
      <trkpt lat="48.81635" lon="5.16549">
        <ele>232</ele>
        <time>2023-01-30T14:06:52.000Z</time>
      </trkpt>
      <trkpt lat="48.81635" lon="5.16549">
        <ele>232</ele>
        <time>2023-01-30T14:06:53.000Z</time>
      </trkpt>
      <trkpt lat="48.81635" lon="5.16548">
        <ele>232</ele>
        <time>2023-01-30T14:06:54.000Z</time>
      </trkpt>
      <trkpt lat="48.81636" lon="5.16548">
        <ele>231.7</ele>
        <time>2023-01-30T14:06:55.000Z</time>
      </trkpt>
      <trkpt lat="48.81637" lon="5.16547">
        <ele>231.3</ele>
        <time>2023-01-30T14:06:56.000Z</time>
      </trkpt>
      <trkpt lat="48.81639" lon="5.16546">
        <ele>231</ele>
        <time>2023-01-30T14:06:57.000Z</time>
      </trkpt>
      <trkpt lat="48.8164" lon="5.16545">
        <ele>231</ele>
        <time>2023-01-30T14:06:58.000Z</time>
      </trkpt>
      <trkpt lat="48.81641" lon="5.16544">
        <ele>231</ele>
        <time>2023-01-30T14:06:59.000Z</time>
      </trkpt>
      <trkpt lat="48.81641" lon="5.16543">
        <ele>231</ele>
        <time>2023-01-30T14:07:00.000Z</time>
      </trkpt>
      <trkpt lat="48.81642" lon="5.16543">
        <ele>231</ele>
        <time>2023-01-30T14:07:01.000Z</time>
      </trkpt>
      <trkpt lat="48.81643" lon="5.16542">
        <ele>231</ele>
        <time>2023-01-30T14:07:02.000Z</time>
      </trkpt>
      <trkpt lat="48.81644" lon="5.16541">
        <ele>231</ele>
        <time>2023-01-30T14:07:03.000Z</time>
      </trkpt>
      <trkpt lat="48.81644" lon="5.16541">
        <ele>231</ele>
        <time>2023-01-30T14:07:04.000Z</time>
      </trkpt>
      <trkpt lat="48.81645" lon="5.1654">
        <ele>231</ele>
        <time>2023-01-30T14:07:05.000Z</time>
      </trkpt>
      <trkpt lat="48.81646" lon="5.1654">
        <ele>231</ele>
        <time>2023-01-30T14:07:06.000Z</time>
      </trkpt>
      <trkpt lat="48.81647" lon="5.16539">
        <ele>231</ele>
        <time>2023-01-30T14:07:07.000Z</time>
      </trkpt>
      <trkpt lat="48.81648" lon="5.16538">
        <ele>231</ele>
        <time>2023-01-30T14:07:08.000Z</time>
      </trkpt>
      <trkpt lat="48.81649" lon="5.16538">
        <ele>231</ele>
        <time>2023-01-30T14:07:09.000Z</time>
      </trkpt>
      <trkpt lat="48.8165" lon="5.16538">
        <ele>231</ele>
        <time>2023-01-30T14:07:10.000Z</time>
      </trkpt>
      <trkpt lat="48.81651" lon="5.16537">
        <ele>231</ele>
        <time>2023-01-30T14:07:11.000Z</time>
      </trkpt>
      <trkpt lat="48.81652" lon="5.16537">
        <ele>231</ele>
        <time>2023-01-30T14:07:12.000Z</time>
      </trkpt>
      <trkpt lat="48.81654" lon="5.16536">
        <ele>231</ele>
        <time>2023-01-30T14:07:13.000Z</time>
      </trkpt>
      <trkpt lat="48.81655" lon="5.16536">
        <ele>231</ele>
        <time>2023-01-30T14:07:14.000Z</time>
      </trkpt>
      <trkpt lat="48.81657" lon="5.16535">
        <ele>231</ele>
        <time>2023-01-30T14:07:15.000Z</time>
      </trkpt>
      <trkpt lat="48.81659" lon="5.16534">
        <ele>231</ele>
        <time>2023-01-30T14:07:16.000Z</time>
      </trkpt>
      <trkpt lat="48.8166" lon="5.16533">
        <ele>231</ele>
        <time>2023-01-30T14:07:17.000Z</time>
      </trkpt>
      <trkpt lat="48.81661" lon="5.16532">
        <ele>231</ele>
        <time>2023-01-30T14:07:18.000Z</time>
      </trkpt>
      <trkpt lat="48.81663" lon="5.16531">
        <ele>231</ele>
        <time>2023-01-30T14:07:19.000Z</time>
      </trkpt>
      <trkpt lat="48.81664" lon="5.1653">
        <ele>231</ele>
        <time>2023-01-30T14:07:20.000Z</time>
      </trkpt>
      <trkpt lat="48.81665" lon="5.16529">
        <ele>231</ele>
        <time>2023-01-30T14:07:21.000Z</time>
      </trkpt>
      <trkpt lat="48.81666" lon="5.16528">
        <ele>230</ele>
        <time>2023-01-30T14:07:22.000Z</time>
      </trkpt>
      <trkpt lat="48.81667" lon="5.16527">
        <ele>230</ele>
        <time>2023-01-30T14:07:23.000Z</time>
      </trkpt>
      <trkpt lat="48.81668" lon="5.16526">
        <ele>230</ele>
        <time>2023-01-30T14:07:24.000Z</time>
      </trkpt>
      <trkpt lat="48.81669" lon="5.16525">
        <ele>230</ele>
        <time>2023-01-30T14:07:25.000Z</time>
      </trkpt>
      <trkpt lat="48.8167" lon="5.16525">
        <ele>230</ele>
        <time>2023-01-30T14:07:26.000Z</time>
      </trkpt>
      <trkpt lat="48.81671" lon="5.16524">
        <ele>230</ele>
        <time>2023-01-30T14:07:27.000Z</time>
      </trkpt>
      <trkpt lat="48.81673" lon="5.16523">
        <ele>230</ele>
        <time>2023-01-30T14:07:28.000Z</time>
      </trkpt>
      <trkpt lat="48.81674" lon="5.16522">
        <ele>230</ele>
        <time>2023-01-30T14:07:29.000Z</time>
      </trkpt>
      <trkpt lat="48.81676" lon="5.16521">
        <ele>230</ele>
        <time>2023-01-30T14:07:30.000Z</time>
      </trkpt>
      <trkpt lat="48.81678" lon="5.1652">
        <ele>230</ele>
        <time>2023-01-30T14:07:31.000Z</time>
      </trkpt>
      <trkpt lat="48.81679" lon="5.16519">
        <ele>230</ele>
        <time>2023-01-30T14:07:32.000Z</time>
      </trkpt>
      <trkpt lat="48.81681" lon="5.16518">
        <ele>230</ele>
        <time>2023-01-30T14:07:33.000Z</time>
      </trkpt>
      <trkpt lat="48.81682" lon="5.16517">
        <ele>230</ele>
        <time>2023-01-30T14:07:34.000Z</time>
      </trkpt>
      <trkpt lat="48.81684" lon="5.16516">
        <ele>230</ele>
        <time>2023-01-30T14:07:35.000Z</time>
      </trkpt>
      <trkpt lat="48.81685" lon="5.16515">
        <ele>229</ele>
        <time>2023-01-30T14:07:36.000Z</time>
      </trkpt>
      <trkpt lat="48.81687" lon="5.16514">
        <ele>229</ele>
        <time>2023-01-30T14:07:37.000Z</time>
      </trkpt>
      <trkpt lat="48.81688" lon="5.16513">
        <ele>229</ele>
        <time>2023-01-30T14:07:38.000Z</time>
      </trkpt>
      <trkpt lat="48.81689" lon="5.16512">
        <ele>229</ele>
        <time>2023-01-30T14:07:39.000Z</time>
      </trkpt>
      <trkpt lat="48.81691" lon="5.16511">
        <ele>229</ele>
        <time>2023-01-30T14:07:40.000Z</time>
      </trkpt>
      <trkpt lat="48.81692" lon="5.1651">
        <ele>229</ele>
        <time>2023-01-30T14:07:41.000Z</time>
      </trkpt>
      <trkpt lat="48.81693" lon="5.16509">
        <ele>229</ele>
        <time>2023-01-30T14:07:42.000Z</time>
      </trkpt>
      <trkpt lat="48.81695" lon="5.16508">
        <ele>229</ele>
        <time>2023-01-30T14:07:43.000Z</time>
      </trkpt>
      <trkpt lat="48.81696" lon="5.16507">
        <ele>229</ele>
        <time>2023-01-30T14:07:44.000Z</time>
      </trkpt>
      <trkpt lat="48.81697" lon="5.16506">
        <ele>229</ele>
        <time>2023-01-30T14:07:45.000Z</time>
      </trkpt>
      <trkpt lat="48.81698" lon="5.16504">
        <ele>229</ele>
        <time>2023-01-30T14:07:46.000Z</time>
      </trkpt>
      <trkpt lat="48.81699" lon="5.16503">
        <ele>229</ele>
        <time>2023-01-30T14:07:47.000Z</time>
      </trkpt>
      <trkpt lat="48.81701" lon="5.16502">
        <ele>229</ele>
        <time>2023-01-30T14:07:48.000Z</time>
      </trkpt>
      <trkpt lat="48.81702" lon="5.16501">
        <ele>229</ele>
        <time>2023-01-30T14:07:49.000Z</time>
      </trkpt>
      <trkpt lat="48.81703" lon="5.165">
        <ele>229</ele>
        <time>2023-01-30T14:07:50.000Z</time>
      </trkpt>
      <trkpt lat="48.81705" lon="5.165">
        <ele>229</ele>
        <time>2023-01-30T14:07:51.000Z</time>
      </trkpt>
      <trkpt lat="48.81706" lon="5.16499">
        <ele>229</ele>
        <time>2023-01-30T14:07:52.000Z</time>
      </trkpt>
      <trkpt lat="48.81708" lon="5.16498">
        <ele>229</ele>
        <time>2023-01-30T14:07:53.000Z</time>
      </trkpt>
      <trkpt lat="48.81709" lon="5.16497">
        <ele>229</ele>
        <time>2023-01-30T14:07:54.000Z</time>
      </trkpt>
      <trkpt lat="48.81711" lon="5.16495">
        <ele>229</ele>
        <time>2023-01-30T14:07:55.000Z</time>
      </trkpt>
      <trkpt lat="48.81712" lon="5.16492">
        <ele>228</ele>
        <time>2023-01-30T14:07:56.000Z</time>
      </trkpt>
      <trkpt lat="48.81714" lon="5.1649">
        <ele>228</ele>
        <time>2023-01-30T14:07:57.000Z</time>
      </trkpt>
      <trkpt lat="48.81716" lon="5.16489">
        <ele>228</ele>
        <time>2023-01-30T14:07:58.000Z</time>
      </trkpt>
      <trkpt lat="48.81717" lon="5.16487">
        <ele>228</ele>
        <time>2023-01-30T14:07:59.000Z</time>
      </trkpt>
      <trkpt lat="48.81719" lon="5.16486">
        <ele>228</ele>
        <time>2023-01-30T14:08:00.000Z</time>
      </trkpt>
      <trkpt lat="48.8172" lon="5.16484">
        <ele>228</ele>
        <time>2023-01-30T14:08:01.000Z</time>
      </trkpt>
      <trkpt lat="48.81721" lon="5.16483">
        <ele>228</ele>
        <time>2023-01-30T14:08:02.000Z</time>
      </trkpt>
      <trkpt lat="48.81723" lon="5.16481">
        <ele>228</ele>
        <time>2023-01-30T14:08:03.000Z</time>
      </trkpt>
      <trkpt lat="48.81724" lon="5.16479">
        <ele>228</ele>
        <time>2023-01-30T14:08:04.000Z</time>
      </trkpt>
      <trkpt lat="48.81725" lon="5.16477">
        <ele>228</ele>
        <time>2023-01-30T14:08:05.000Z</time>
      </trkpt>
      <trkpt lat="48.81726" lon="5.16475">
        <ele>228</ele>
        <time>2023-01-30T14:08:06.000Z</time>
      </trkpt>
      <trkpt lat="48.81728" lon="5.16472">
        <ele>228</ele>
        <time>2023-01-30T14:08:07.000Z</time>
      </trkpt>
      <trkpt lat="48.81729" lon="5.1647">
        <ele>228</ele>
        <time>2023-01-30T14:08:08.000Z</time>
      </trkpt>
      <trkpt lat="48.8173" lon="5.16467">
        <ele>228</ele>
        <time>2023-01-30T14:08:09.000Z</time>
      </trkpt>
      <trkpt lat="48.8173" lon="5.16465">
        <ele>227.5</ele>
        <time>2023-01-30T14:08:10.000Z</time>
      </trkpt>
      <trkpt lat="48.81731" lon="5.16463">
        <ele>227</ele>
        <time>2023-01-30T14:08:11.000Z</time>
      </trkpt>
      <trkpt lat="48.81731" lon="5.1646">
        <ele>227</ele>
        <time>2023-01-30T14:08:12.000Z</time>
      </trkpt>
      <trkpt lat="48.81732" lon="5.16458">
        <ele>227</ele>
        <time>2023-01-30T14:08:13.000Z</time>
      </trkpt>
      <trkpt lat="48.81732" lon="5.16457">
        <ele>227</ele>
        <time>2023-01-30T14:08:14.000Z</time>
      </trkpt>
      <trkpt lat="48.81734" lon="5.16454">
        <ele>227</ele>
        <time>2023-01-30T14:08:15.000Z</time>
      </trkpt>
      <trkpt lat="48.81735" lon="5.16451">
        <ele>227</ele>
        <time>2023-01-30T14:08:16.000Z</time>
      </trkpt>
      <trkpt lat="48.81737" lon="5.16448">
        <ele>227</ele>
        <time>2023-01-30T14:08:17.000Z</time>
      </trkpt>
      <trkpt lat="48.81738" lon="5.16445">
        <ele>227</ele>
        <time>2023-01-30T14:08:18.000Z</time>
      </trkpt>
      <trkpt lat="48.81739" lon="5.16443">
        <ele>227</ele>
        <time>2023-01-30T14:08:19.000Z</time>
      </trkpt>
      <trkpt lat="48.81741" lon="5.16441">
        <ele>227</ele>
        <time>2023-01-30T14:08:20.000Z</time>
      </trkpt>
      <trkpt lat="48.81742" lon="5.16439">
        <ele>227</ele>
        <time>2023-01-30T14:08:21.000Z</time>
      </trkpt>
      <trkpt lat="48.81744" lon="5.16437">
        <ele>227</ele>
        <time>2023-01-30T14:08:22.000Z</time>
      </trkpt>
      <trkpt lat="48.81745" lon="5.16435">
        <ele>227</ele>
        <time>2023-01-30T14:08:23.000Z</time>
      </trkpt>
      <trkpt lat="48.81746" lon="5.16433">
        <ele>227</ele>
        <time>2023-01-30T14:08:24.000Z</time>
      </trkpt>
      <trkpt lat="48.81747" lon="5.16431">
        <ele>227</ele>
        <time>2023-01-30T14:08:25.000Z</time>
      </trkpt>
      <trkpt lat="48.81748" lon="5.16429">
        <ele>227</ele>
        <time>2023-01-30T14:08:26.000Z</time>
      </trkpt>
      <trkpt lat="48.81748" lon="5.16428">
        <ele>227</ele>
        <time>2023-01-30T14:08:27.000Z</time>
      </trkpt>
      <trkpt lat="48.81749" lon="5.16426">
        <ele>227</ele>
        <time>2023-01-30T14:08:28.000Z</time>
      </trkpt>
      <trkpt lat="48.8175" lon="5.16425">
        <ele>227</ele>
        <time>2023-01-30T14:08:29.000Z</time>
      </trkpt>
      <trkpt lat="48.8175" lon="5.16424">
        <ele>227</ele>
        <time>2023-01-30T14:08:30.000Z</time>
      </trkpt>
      <trkpt lat="48.81751" lon="5.16423">
        <ele>227</ele>
        <time>2023-01-30T14:08:31.000Z</time>
      </trkpt>
      <trkpt lat="48.81752" lon="5.16421">
        <ele>227</ele>
        <time>2023-01-30T14:08:32.000Z</time>
      </trkpt>
      <trkpt lat="48.81752" lon="5.1642">
        <ele>227</ele>
        <time>2023-01-30T14:08:33.000Z</time>
      </trkpt>
      <trkpt lat="48.81752" lon="5.16418">
        <ele>227</ele>
        <time>2023-01-30T14:08:34.000Z</time>
      </trkpt>
      <trkpt lat="48.81753" lon="5.16417">
        <ele>227</ele>
        <time>2023-01-30T14:08:35.000Z</time>
      </trkpt>
      <trkpt lat="48.81753" lon="5.16415">
        <ele>227</ele>
        <time>2023-01-30T14:08:36.000Z</time>
      </trkpt>
      <trkpt lat="48.81753" lon="5.16413">
        <ele>227</ele>
        <time>2023-01-30T14:08:37.000Z</time>
      </trkpt>
      <trkpt lat="48.81753" lon="5.16411">
        <ele>227</ele>
        <time>2023-01-30T14:08:38.000Z</time>
      </trkpt>
      <trkpt lat="48.81754" lon="5.16409">
        <ele>227</ele>
        <time>2023-01-30T14:08:39.000Z</time>
      </trkpt>
      <trkpt lat="48.81754" lon="5.16407">
        <ele>227</ele>
        <time>2023-01-30T14:08:40.000Z</time>
      </trkpt>
      <trkpt lat="48.81754" lon="5.16405">
        <ele>227</ele>
        <time>2023-01-30T14:08:41.000Z</time>
      </trkpt>
      <trkpt lat="48.81755" lon="5.16404">
        <ele>227</ele>
        <time>2023-01-30T14:08:42.000Z</time>
      </trkpt>
      <trkpt lat="48.81755" lon="5.16402">
        <ele>227</ele>
        <time>2023-01-30T14:08:43.000Z</time>
      </trkpt>
      <trkpt lat="48.81756" lon="5.164">
        <ele>226.5</ele>
        <time>2023-01-30T14:08:44.000Z</time>
      </trkpt>
      <trkpt lat="48.81756" lon="5.16397">
        <ele>226</ele>
        <time>2023-01-30T14:08:45.000Z</time>
      </trkpt>
      <trkpt lat="48.81757" lon="5.16394">
        <ele>226</ele>
        <time>2023-01-30T14:08:46.000Z</time>
      </trkpt>
      <trkpt lat="48.81758" lon="5.16392">
        <ele>226</ele>
        <time>2023-01-30T14:08:47.000Z</time>
      </trkpt>
      <trkpt lat="48.81758" lon="5.16389">
        <ele>226</ele>
        <time>2023-01-30T14:08:48.000Z</time>
      </trkpt>
      <trkpt lat="48.81758" lon="5.16387">
        <ele>226</ele>
        <time>2023-01-30T14:08:49.000Z</time>
      </trkpt>
      <trkpt lat="48.81759" lon="5.16385">
        <ele>226</ele>
        <time>2023-01-30T14:08:50.000Z</time>
      </trkpt>
      <trkpt lat="48.81759" lon="5.16383">
        <ele>226</ele>
        <time>2023-01-30T14:08:51.000Z</time>
      </trkpt>
      <trkpt lat="48.8176" lon="5.1638">
        <ele>226</ele>
        <time>2023-01-30T14:08:52.000Z</time>
      </trkpt>
      <trkpt lat="48.8176" lon="5.16378">
        <ele>226</ele>
        <time>2023-01-30T14:08:53.000Z</time>
      </trkpt>
      <trkpt lat="48.8176" lon="5.16375">
        <ele>226</ele>
        <time>2023-01-30T14:08:54.000Z</time>
      </trkpt>
      <trkpt lat="48.81761" lon="5.16373">
        <ele>226</ele>
        <time>2023-01-30T14:08:55.000Z</time>
      </trkpt>
      <trkpt lat="48.81761" lon="5.1637">
        <ele>226</ele>
        <time>2023-01-30T14:08:56.000Z</time>
      </trkpt>
      <trkpt lat="48.81762" lon="5.16367">
        <ele>226</ele>
        <time>2023-01-30T14:08:57.000Z</time>
      </trkpt>
      <trkpt lat="48.81762" lon="5.16364">
        <ele>226</ele>
        <time>2023-01-30T14:08:58.000Z</time>
      </trkpt>
      <trkpt lat="48.81763" lon="5.16361">
        <ele>226</ele>
        <time>2023-01-30T14:08:59.000Z</time>
      </trkpt>
      <trkpt lat="48.81763" lon="5.16358">
        <ele>226</ele>
        <time>2023-01-30T14:09:00.000Z</time>
      </trkpt>
      <trkpt lat="48.81763" lon="5.16355">
        <ele>226</ele>
        <time>2023-01-30T14:09:01.000Z</time>
      </trkpt>
      <trkpt lat="48.81764" lon="5.16352">
        <ele>226</ele>
        <time>2023-01-30T14:09:02.000Z</time>
      </trkpt>
      <trkpt lat="48.81764" lon="5.16349">
        <ele>226</ele>
        <time>2023-01-30T14:09:03.000Z</time>
      </trkpt>
      <trkpt lat="48.81764" lon="5.16347">
        <ele>225.5</ele>
        <time>2023-01-30T14:09:04.000Z</time>
      </trkpt>
      <trkpt lat="48.81764" lon="5.16344">
        <ele>225</ele>
        <time>2023-01-30T14:09:05.000Z</time>
      </trkpt>
      <trkpt lat="48.81765" lon="5.16341">
        <ele>225</ele>
        <time>2023-01-30T14:09:06.000Z</time>
      </trkpt>
      <trkpt lat="48.81765" lon="5.16339">
        <ele>225</ele>
        <time>2023-01-30T14:09:07.000Z</time>
      </trkpt>
      <trkpt lat="48.81766" lon="5.16336">
        <ele>225</ele>
        <time>2023-01-30T14:09:08.000Z</time>
      </trkpt>
      <trkpt lat="48.81767" lon="5.16333">
        <ele>225</ele>
        <time>2023-01-30T14:09:09.000Z</time>
      </trkpt>
      <trkpt lat="48.81768" lon="5.16331">
        <ele>225</ele>
        <time>2023-01-30T14:09:10.000Z</time>
      </trkpt>
      <trkpt lat="48.81769" lon="5.16329">
        <ele>225</ele>
        <time>2023-01-30T14:09:11.000Z</time>
      </trkpt>
      <trkpt lat="48.8177" lon="5.16326">
        <ele>225</ele>
        <time>2023-01-30T14:09:12.000Z</time>
      </trkpt>
      <trkpt lat="48.81771" lon="5.16324">
        <ele>225</ele>
        <time>2023-01-30T14:09:13.000Z</time>
      </trkpt>
      <trkpt lat="48.81772" lon="5.16322">
        <ele>225</ele>
        <time>2023-01-30T14:09:14.000Z</time>
      </trkpt>
      <trkpt lat="48.81773" lon="5.1632">
        <ele>225</ele>
        <time>2023-01-30T14:09:15.000Z</time>
      </trkpt>
      <trkpt lat="48.81774" lon="5.16318">
        <ele>225</ele>
        <time>2023-01-30T14:09:16.000Z</time>
      </trkpt>
      <trkpt lat="48.81774" lon="5.16316">
        <ele>225</ele>
        <time>2023-01-30T14:09:17.000Z</time>
      </trkpt>
      <trkpt lat="48.81774" lon="5.16315">
        <ele>225</ele>
        <time>2023-01-30T14:09:18.000Z</time>
      </trkpt>
      <trkpt lat="48.81775" lon="5.16313">
        <ele>225</ele>
        <time>2023-01-30T14:09:19.000Z</time>
      </trkpt>
      <trkpt lat="48.81775" lon="5.16312">
        <ele>225</ele>
        <time>2023-01-30T14:09:20.000Z</time>
      </trkpt>
      <trkpt lat="48.81776" lon="5.16311">
        <ele>225</ele>
        <time>2023-01-30T14:09:21.000Z</time>
      </trkpt>
      <trkpt lat="48.81776" lon="5.16309">
        <ele>225</ele>
        <time>2023-01-30T14:09:22.000Z</time>
      </trkpt>
      <trkpt lat="48.81777" lon="5.16308">
        <ele>225</ele>
        <time>2023-01-30T14:09:23.000Z</time>
      </trkpt>
      <trkpt lat="48.81778" lon="5.16307">
        <ele>225</ele>
        <time>2023-01-30T14:09:24.000Z</time>
      </trkpt>
      <trkpt lat="48.81779" lon="5.16305">
        <ele>225</ele>
        <time>2023-01-30T14:09:25.000Z</time>
      </trkpt>
      <trkpt lat="48.8178" lon="5.16304">
        <ele>224.5</ele>
        <time>2023-01-30T14:09:26.000Z</time>
      </trkpt>
      <trkpt lat="48.81781" lon="5.16302">
        <ele>224</ele>
        <time>2023-01-30T14:09:27.000Z</time>
      </trkpt>
      <trkpt lat="48.81782" lon="5.163">
        <ele>224</ele>
        <time>2023-01-30T14:09:28.000Z</time>
      </trkpt>
      <trkpt lat="48.81782" lon="5.16298">
        <ele>224</ele>
        <time>2023-01-30T14:09:29.000Z</time>
      </trkpt>
      <trkpt lat="48.81783" lon="5.16296">
        <ele>224</ele>
        <time>2023-01-30T14:09:30.000Z</time>
      </trkpt>
      <trkpt lat="48.81783" lon="5.16295">
        <ele>224</ele>
        <time>2023-01-30T14:09:31.000Z</time>
      </trkpt>
      <trkpt lat="48.81784" lon="5.16294">
        <ele>224</ele>
        <time>2023-01-30T14:09:32.000Z</time>
      </trkpt>
      <trkpt lat="48.81785" lon="5.16292">
        <ele>224</ele>
        <time>2023-01-30T14:09:33.000Z</time>
      </trkpt>
      <trkpt lat="48.81785" lon="5.1629">
        <ele>224</ele>
        <time>2023-01-30T14:09:34.000Z</time>
      </trkpt>
      <trkpt lat="48.81786" lon="5.16287">
        <ele>224</ele>
        <time>2023-01-30T14:09:35.000Z</time>
      </trkpt>
      <trkpt lat="48.81787" lon="5.16284">
        <ele>224</ele>
        <time>2023-01-30T14:09:36.000Z</time>
      </trkpt>
      <trkpt lat="48.81788" lon="5.16282">
        <ele>224</ele>
        <time>2023-01-30T14:09:37.000Z</time>
      </trkpt>
      <trkpt lat="48.81789" lon="5.16281">
        <ele>224</ele>
        <time>2023-01-30T14:09:38.000Z</time>
      </trkpt>
      <trkpt lat="48.8179" lon="5.16279">
        <ele>224</ele>
        <time>2023-01-30T14:09:39.000Z</time>
      </trkpt>
      <trkpt lat="48.8179" lon="5.16278">
        <ele>224</ele>
        <time>2023-01-30T14:09:40.000Z</time>
      </trkpt>
      <trkpt lat="48.81791" lon="5.16276">
        <ele>224</ele>
        <time>2023-01-30T14:09:41.000Z</time>
      </trkpt>
      <trkpt lat="48.81792" lon="5.16275">
        <ele>224</ele>
        <time>2023-01-30T14:09:42.000Z</time>
      </trkpt>
      <trkpt lat="48.81793" lon="5.16273">
        <ele>224</ele>
        <time>2023-01-30T14:09:43.000Z</time>
      </trkpt>
      <trkpt lat="48.81793" lon="5.16272">
        <ele>224</ele>
        <time>2023-01-30T14:09:44.000Z</time>
      </trkpt>
      <trkpt lat="48.81794" lon="5.16271">
        <ele>224</ele>
        <time>2023-01-30T14:09:45.000Z</time>
      </trkpt>
      <trkpt lat="48.81794" lon="5.16269">
        <ele>224</ele>
        <time>2023-01-30T14:09:46.000Z</time>
      </trkpt>
      <trkpt lat="48.81795" lon="5.16268">
        <ele>224</ele>
        <time>2023-01-30T14:09:47.000Z</time>
      </trkpt>
      <trkpt lat="48.81795" lon="5.16267">
        <ele>224</ele>
        <time>2023-01-30T14:09:48.000Z</time>
      </trkpt>
      <trkpt lat="48.81796" lon="5.16265">
        <ele>224</ele>
        <time>2023-01-30T14:09:49.000Z</time>
      </trkpt>
      <trkpt lat="48.81796" lon="5.16264">
        <ele>224</ele>
        <time>2023-01-30T14:09:50.000Z</time>
      </trkpt>
      <trkpt lat="48.81797" lon="5.16262">
        <ele>224</ele>
        <time>2023-01-30T14:09:51.000Z</time>
      </trkpt>
      <trkpt lat="48.81797" lon="5.16261">
        <ele>224</ele>
        <time>2023-01-30T14:09:52.000Z</time>
      </trkpt>
      <trkpt lat="48.81799" lon="5.16259">
        <ele>224</ele>
        <time>2023-01-30T14:09:53.000Z</time>
      </trkpt>
      <trkpt lat="48.818" lon="5.16257">
        <ele>224</ele>
        <time>2023-01-30T14:09:54.000Z</time>
      </trkpt>
      <trkpt lat="48.81801" lon="5.16255">
        <ele>224</ele>
        <time>2023-01-30T14:09:55.000Z</time>
      </trkpt>
      <trkpt lat="48.81802" lon="5.16253">
        <ele>224</ele>
        <time>2023-01-30T14:09:56.000Z</time>
      </trkpt>
      <trkpt lat="48.81804" lon="5.1625">
        <ele>224</ele>
        <time>2023-01-30T14:09:57.000Z</time>
      </trkpt>
      <trkpt lat="48.81805" lon="5.16248">
        <ele>223.5</ele>
        <time>2023-01-30T14:09:58.000Z</time>
      </trkpt>
      <trkpt lat="48.81806" lon="5.16246">
        <ele>223</ele>
        <time>2023-01-30T14:09:59.000Z</time>
      </trkpt>
      <trkpt lat="48.81807" lon="5.16244">
        <ele>223</ele>
        <time>2023-01-30T14:10:00.000Z</time>
      </trkpt>
      <trkpt lat="48.81807" lon="5.16241">
        <ele>223</ele>
        <time>2023-01-30T14:10:01.000Z</time>
      </trkpt>
      <trkpt lat="48.81808" lon="5.16239">
        <ele>223</ele>
        <time>2023-01-30T14:10:02.000Z</time>
      </trkpt>
      <trkpt lat="48.81809" lon="5.16236">
        <ele>223</ele>
        <time>2023-01-30T14:10:03.000Z</time>
      </trkpt>
      <trkpt lat="48.8181" lon="5.16234">
        <ele>223</ele>
        <time>2023-01-30T14:10:04.000Z</time>
      </trkpt>
      <trkpt lat="48.81811" lon="5.16232">
        <ele>223</ele>
        <time>2023-01-30T14:10:05.000Z</time>
      </trkpt>
      <trkpt lat="48.81812" lon="5.16229">
        <ele>223</ele>
        <time>2023-01-30T14:10:06.000Z</time>
      </trkpt>
      <trkpt lat="48.81814" lon="5.16226">
        <ele>223</ele>
        <time>2023-01-30T14:10:07.000Z</time>
      </trkpt>
      <trkpt lat="48.81815" lon="5.16223">
        <ele>223</ele>
        <time>2023-01-30T14:10:08.000Z</time>
      </trkpt>
      <trkpt lat="48.81817" lon="5.16221">
        <ele>223</ele>
        <time>2023-01-30T14:10:09.000Z</time>
      </trkpt>
      <trkpt lat="48.81818" lon="5.16218">
        <ele>223</ele>
        <time>2023-01-30T14:10:10.000Z</time>
      </trkpt>
      <trkpt lat="48.81819" lon="5.16215">
        <ele>223</ele>
        <time>2023-01-30T14:10:11.000Z</time>
      </trkpt>
      <trkpt lat="48.81821" lon="5.16212">
        <ele>223</ele>
        <time>2023-01-30T14:10:12.000Z</time>
      </trkpt>
      <trkpt lat="48.81822" lon="5.16209">
        <ele>223</ele>
        <time>2023-01-30T14:10:13.000Z</time>
      </trkpt>
      <trkpt lat="48.81823" lon="5.16207">
        <ele>223</ele>
        <time>2023-01-30T14:10:14.000Z</time>
      </trkpt>
      <trkpt lat="48.81824" lon="5.16205">
        <ele>223</ele>
        <time>2023-01-30T14:10:15.000Z</time>
      </trkpt>
      <trkpt lat="48.81825" lon="5.16202">
        <ele>223</ele>
        <time>2023-01-30T14:10:16.000Z</time>
      </trkpt>
      <trkpt lat="48.81826" lon="5.162">
        <ele>223</ele>
        <time>2023-01-30T14:10:17.000Z</time>
      </trkpt>
      <trkpt lat="48.81827" lon="5.16197">
        <ele>223</ele>
        <time>2023-01-30T14:10:18.000Z</time>
      </trkpt>
      <trkpt lat="48.81828" lon="5.16194">
        <ele>223</ele>
        <time>2023-01-30T14:10:19.000Z</time>
      </trkpt>
      <trkpt lat="48.81828" lon="5.16191">
        <ele>223</ele>
        <time>2023-01-30T14:10:20.000Z</time>
      </trkpt>
      <trkpt lat="48.81829" lon="5.16188">
        <ele>223</ele>
        <time>2023-01-30T14:10:21.000Z</time>
      </trkpt>
      <trkpt lat="48.8183" lon="5.16185">
        <ele>223</ele>
        <time>2023-01-30T14:10:22.000Z</time>
      </trkpt>
      <trkpt lat="48.81831" lon="5.16183">
        <ele>223</ele>
        <time>2023-01-30T14:10:23.000Z</time>
      </trkpt>
      <trkpt lat="48.81832" lon="5.1618">
        <ele>223</ele>
        <time>2023-01-30T14:10:24.000Z</time>
      </trkpt>
      <trkpt lat="48.81833" lon="5.16177">
        <ele>223</ele>
        <time>2023-01-30T14:10:25.000Z</time>
      </trkpt>
      <trkpt lat="48.81833" lon="5.16175">
        <ele>223</ele>
        <time>2023-01-30T14:10:26.000Z</time>
      </trkpt>
      <trkpt lat="48.81834" lon="5.16172">
        <ele>223</ele>
        <time>2023-01-30T14:10:27.000Z</time>
      </trkpt>
      <trkpt lat="48.81835" lon="5.1617">
        <ele>223</ele>
        <time>2023-01-30T14:10:28.000Z</time>
      </trkpt>
      <trkpt lat="48.81835" lon="5.16167">
        <ele>223</ele>
        <time>2023-01-30T14:10:29.000Z</time>
      </trkpt>
      <trkpt lat="48.81836" lon="5.16165">
        <ele>223</ele>
        <time>2023-01-30T14:10:30.000Z</time>
      </trkpt>
      <trkpt lat="48.81837" lon="5.16163">
        <ele>223</ele>
        <time>2023-01-30T14:10:31.000Z</time>
      </trkpt>
      <trkpt lat="48.81837" lon="5.16162">
        <ele>223</ele>
        <time>2023-01-30T14:10:32.000Z</time>
      </trkpt>
      <trkpt lat="48.81838" lon="5.1616">
        <ele>223</ele>
        <time>2023-01-30T14:10:33.000Z</time>
      </trkpt>
      <trkpt lat="48.81838" lon="5.16159">
        <ele>223.5</ele>
        <time>2023-01-30T14:10:34.000Z</time>
      </trkpt>
      <trkpt lat="48.81839" lon="5.16158">
        <ele>224</ele>
        <time>2023-01-30T14:10:35.000Z</time>
      </trkpt>
      <trkpt lat="48.81839" lon="5.16158">
        <ele>224</ele>
        <time>2023-01-30T14:10:36.000Z</time>
      </trkpt>
      <trkpt lat="48.81839" lon="5.16157">
        <ele>224</ele>
        <time>2023-01-30T14:10:37.000Z</time>
      </trkpt>
      <trkpt lat="48.81839" lon="5.16157">
        <ele>224</ele>
        <time>2023-01-30T14:10:38.000Z</time>
      </trkpt>
      <trkpt lat="48.81839" lon="5.16156">
        <ele>224</ele>
        <time>2023-01-30T14:10:39.000Z</time>
      </trkpt>
      <trkpt lat="48.81839" lon="5.16156">
        <ele>224</ele>
        <time>2023-01-30T14:10:40.000Z</time>
      </trkpt>
      <trkpt lat="48.81839" lon="5.16155">
        <ele>224</ele>
        <time>2023-01-30T14:10:41.000Z</time>
      </trkpt>
      <trkpt lat="48.81839" lon="5.16154">
        <ele>224</ele>
        <time>2023-01-30T14:10:42.000Z</time>
      </trkpt>
      <trkpt lat="48.81839" lon="5.16153">
        <ele>224</ele>
        <time>2023-01-30T14:10:43.000Z</time>
      </trkpt>
      <trkpt lat="48.81839" lon="5.16152">
        <ele>224</ele>
        <time>2023-01-30T14:10:44.000Z</time>
      </trkpt>
      <trkpt lat="48.8184" lon="5.16151">
        <ele>224</ele>
        <time>2023-01-30T14:10:45.000Z</time>
      </trkpt>
      <trkpt lat="48.8184" lon="5.1615">
        <ele>224</ele>
        <time>2023-01-30T14:10:46.000Z</time>
      </trkpt>
      <trkpt lat="48.81841" lon="5.16148">
        <ele>224</ele>
        <time>2023-01-30T14:10:47.000Z</time>
      </trkpt>
      <trkpt lat="48.81841" lon="5.16147">
        <ele>224</ele>
        <time>2023-01-30T14:10:48.000Z</time>
      </trkpt>
      <trkpt lat="48.81842" lon="5.16147">
        <ele>224</ele>
        <time>2023-01-30T14:10:49.000Z</time>
      </trkpt>
      <trkpt lat="48.81842" lon="5.16146">
        <ele>224</ele>
        <time>2023-01-30T14:10:50.000Z</time>
      </trkpt>
      <trkpt lat="48.81842" lon="5.16146">
        <ele>224</ele>
        <time>2023-01-30T14:10:51.000Z</time>
      </trkpt>
      <trkpt lat="48.81842" lon="5.16146">
        <ele>224</ele>
        <time>2023-01-30T14:10:52.000Z</time>
      </trkpt>
      <trkpt lat="48.81842" lon="5.16145">
        <ele>224</ele>
        <time>2023-01-30T14:10:53.000Z</time>
      </trkpt>
      <trkpt lat="48.81842" lon="5.16145">
        <ele>224</ele>
        <time>2023-01-30T14:10:54.000Z</time>
      </trkpt>
      <trkpt lat="48.81842" lon="5.16145">
        <ele>224</ele>
        <time>2023-01-30T14:10:55.000Z</time>
      </trkpt>
      <trkpt lat="48.81842" lon="5.16145">
        <ele>224</ele>
        <time>2023-01-30T14:10:56.000Z</time>
      </trkpt>
      <trkpt lat="48.81842" lon="5.16145">
        <ele>224</ele>
        <time>2023-01-30T14:10:57.000Z</time>
      </trkpt>
      <trkpt lat="48.81843" lon="5.16145">
        <ele>224</ele>
        <time>2023-01-30T14:10:58.000Z</time>
      </trkpt>
      <trkpt lat="48.81843" lon="5.16146">
        <ele>224</ele>
        <time>2023-01-30T14:10:59.000Z</time>
      </trkpt>
      <trkpt lat="48.81844" lon="5.16146">
        <ele>224</ele>
        <time>2023-01-30T14:11:00.000Z</time>
      </trkpt>
      <trkpt lat="48.81845" lon="5.16147">
        <ele>224</ele>
        <time>2023-01-30T14:11:01.000Z</time>
      </trkpt>
      <trkpt lat="48.81845" lon="5.16148">
        <ele>224</ele>
        <time>2023-01-30T14:11:02.000Z</time>
      </trkpt>
      <trkpt lat="48.81846" lon="5.16149">
        <ele>224</ele>
        <time>2023-01-30T14:11:03.000Z</time>
      </trkpt>
      <trkpt lat="48.81846" lon="5.1615">
        <ele>224</ele>
        <time>2023-01-30T14:11:04.000Z</time>
      </trkpt>
      <trkpt lat="48.81847" lon="5.16151">
        <ele>224</ele>
        <time>2023-01-30T14:11:05.000Z</time>
      </trkpt>
      <trkpt lat="48.81847" lon="5.16153">
        <ele>224</ele>
        <time>2023-01-30T14:11:06.000Z</time>
      </trkpt>
      <trkpt lat="48.81848" lon="5.16155">
        <ele>224</ele>
        <time>2023-01-30T14:11:07.000Z</time>
      </trkpt>
      <trkpt lat="48.81849" lon="5.16156">
        <ele>224</ele>
        <time>2023-01-30T14:11:08.000Z</time>
      </trkpt>
      <trkpt lat="48.81851" lon="5.16158">
        <ele>224</ele>
        <time>2023-01-30T14:11:09.000Z</time>
      </trkpt>
      <trkpt lat="48.81852" lon="5.16159">
        <ele>224</ele>
        <time>2023-01-30T14:11:10.000Z</time>
      </trkpt>
      <trkpt lat="48.81854" lon="5.1616">
        <ele>224</ele>
        <time>2023-01-30T14:11:11.000Z</time>
      </trkpt>
      <trkpt lat="48.81855" lon="5.1616">
        <ele>224</ele>
        <time>2023-01-30T14:11:12.000Z</time>
      </trkpt>
      <trkpt lat="48.81856" lon="5.16161">
        <ele>224</ele>
        <time>2023-01-30T14:11:13.000Z</time>
      </trkpt>
      <trkpt lat="48.81857" lon="5.16161">
        <ele>224</ele>
        <time>2023-01-30T14:11:14.000Z</time>
      </trkpt>
      <trkpt lat="48.81858" lon="5.16162">
        <ele>224</ele>
        <time>2023-01-30T14:11:15.000Z</time>
      </trkpt>
      <trkpt lat="48.81859" lon="5.16163">
        <ele>224</ele>
        <time>2023-01-30T14:11:16.000Z</time>
      </trkpt>
      <trkpt lat="48.8186" lon="5.16164">
        <ele>224</ele>
        <time>2023-01-30T14:11:17.000Z</time>
      </trkpt>
      <trkpt lat="48.81861" lon="5.16165">
        <ele>224</ele>
        <time>2023-01-30T14:11:18.000Z</time>
      </trkpt>
      <trkpt lat="48.81862" lon="5.16166">
        <ele>224</ele>
        <time>2023-01-30T14:11:19.000Z</time>
      </trkpt>
      <trkpt lat="48.81863" lon="5.16167">
        <ele>224</ele>
        <time>2023-01-30T14:11:20.000Z</time>
      </trkpt>
      <trkpt lat="48.81864" lon="5.16168">
        <ele>224</ele>
        <time>2023-01-30T14:11:21.000Z</time>
      </trkpt>
      <trkpt lat="48.81865" lon="5.16169">
        <ele>224</ele>
        <time>2023-01-30T14:11:22.000Z</time>
      </trkpt>
      <trkpt lat="48.81867" lon="5.1617">
        <ele>224</ele>
        <time>2023-01-30T14:11:23.000Z</time>
      </trkpt>
      <trkpt lat="48.81868" lon="5.16171">
        <ele>224</ele>
        <time>2023-01-30T14:11:24.000Z</time>
      </trkpt>
      <trkpt lat="48.81869" lon="5.16171">
        <ele>224</ele>
        <time>2023-01-30T14:11:25.000Z</time>
      </trkpt>
      <trkpt lat="48.8187" lon="5.16172">
        <ele>225</ele>
        <time>2023-01-30T14:11:26.000Z</time>
      </trkpt>
      <trkpt lat="48.81872" lon="5.16173">
        <ele>225</ele>
        <time>2023-01-30T14:11:27.000Z</time>
      </trkpt>
      <trkpt lat="48.81873" lon="5.16174">
        <ele>225</ele>
        <time>2023-01-30T14:11:28.000Z</time>
      </trkpt>
      <trkpt lat="48.81875" lon="5.16175">
        <ele>225</ele>
        <time>2023-01-30T14:11:29.000Z</time>
      </trkpt>
      <trkpt lat="48.81876" lon="5.16177">
        <ele>225</ele>
        <time>2023-01-30T14:11:30.000Z</time>
      </trkpt>
      <trkpt lat="48.81877" lon="5.16178">
        <ele>225</ele>
        <time>2023-01-30T14:11:31.000Z</time>
      </trkpt>
      <trkpt lat="48.81878" lon="5.16179">
        <ele>225</ele>
        <time>2023-01-30T14:11:32.000Z</time>
      </trkpt>
      <trkpt lat="48.81879" lon="5.1618">
        <ele>225</ele>
        <time>2023-01-30T14:11:33.000Z</time>
      </trkpt>
      <trkpt lat="48.81881" lon="5.16182">
        <ele>225</ele>
        <time>2023-01-30T14:11:34.000Z</time>
      </trkpt>
      <trkpt lat="48.81882" lon="5.16183">
        <ele>225</ele>
        <time>2023-01-30T14:11:35.000Z</time>
      </trkpt>
      <trkpt lat="48.81883" lon="5.16183">
        <ele>225</ele>
        <time>2023-01-30T14:11:36.000Z</time>
      </trkpt>
      <trkpt lat="48.81884" lon="5.16184">
        <ele>225</ele>
        <time>2023-01-30T14:11:37.000Z</time>
      </trkpt>
      <trkpt lat="48.81885" lon="5.16185">
        <ele>225</ele>
        <time>2023-01-30T14:11:38.000Z</time>
      </trkpt>
      <trkpt lat="48.81887" lon="5.16185">
        <ele>225</ele>
        <time>2023-01-30T14:11:39.000Z</time>
      </trkpt>
      <trkpt lat="48.81887" lon="5.16186">
        <ele>225</ele>
        <time>2023-01-30T14:11:40.000Z</time>
      </trkpt>
      <trkpt lat="48.81888" lon="5.16186">
        <ele>225</ele>
        <time>2023-01-30T14:11:41.000Z</time>
      </trkpt>
      <trkpt lat="48.81889" lon="5.16187">
        <ele>225</ele>
        <time>2023-01-30T14:11:42.000Z</time>
      </trkpt>
      <trkpt lat="48.8189" lon="5.16188">
        <ele>225</ele>
        <time>2023-01-30T14:11:43.000Z</time>
      </trkpt>
      <trkpt lat="48.81891" lon="5.16189">
        <ele>225</ele>
        <time>2023-01-30T14:11:44.000Z</time>
      </trkpt>
      <trkpt lat="48.81893" lon="5.16189">
        <ele>225</ele>
        <time>2023-01-30T14:11:45.000Z</time>
      </trkpt>
      <trkpt lat="48.81894" lon="5.1619">
        <ele>225</ele>
        <time>2023-01-30T14:11:46.000Z</time>
      </trkpt>
      <trkpt lat="48.81895" lon="5.16191">
        <ele>225</ele>
        <time>2023-01-30T14:11:47.000Z</time>
      </trkpt>
      <trkpt lat="48.81896" lon="5.16192">
        <ele>225</ele>
        <time>2023-01-30T14:11:48.000Z</time>
      </trkpt>
      <trkpt lat="48.81897" lon="5.16193">
        <ele>225</ele>
        <time>2023-01-30T14:11:49.000Z</time>
      </trkpt>
      <trkpt lat="48.81898" lon="5.16193">
        <ele>225</ele>
        <time>2023-01-30T14:11:50.000Z</time>
      </trkpt>
      <trkpt lat="48.81899" lon="5.16194">
        <ele>224.7</ele>
        <time>2023-01-30T14:11:51.000Z</time>
      </trkpt>
      <trkpt lat="48.819" lon="5.16195">
        <ele>224.3</ele>
        <time>2023-01-30T14:11:52.000Z</time>
      </trkpt>
      <trkpt lat="48.81902" lon="5.16196">
        <ele>224</ele>
        <time>2023-01-30T14:11:53.000Z</time>
      </trkpt>
      <trkpt lat="48.81903" lon="5.16197">
        <ele>224</ele>
        <time>2023-01-30T14:11:54.000Z</time>
      </trkpt>
      <trkpt lat="48.81904" lon="5.16199">
        <ele>224</ele>
        <time>2023-01-30T14:11:55.000Z</time>
      </trkpt>
      <trkpt lat="48.81906" lon="5.162">
        <ele>224</ele>
        <time>2023-01-30T14:11:56.000Z</time>
      </trkpt>
      <trkpt lat="48.81907" lon="5.16202">
        <ele>224</ele>
        <time>2023-01-30T14:11:57.000Z</time>
      </trkpt>
      <trkpt lat="48.81908" lon="5.16203">
        <ele>224</ele>
        <time>2023-01-30T14:11:58.000Z</time>
      </trkpt>
      <trkpt lat="48.81909" lon="5.16205">
        <ele>224</ele>
        <time>2023-01-30T14:11:59.000Z</time>
      </trkpt>
      <trkpt lat="48.81911" lon="5.16206">
        <ele>224</ele>
        <time>2023-01-30T14:12:00.000Z</time>
      </trkpt>
      <trkpt lat="48.81912" lon="5.16208">
        <ele>224</ele>
        <time>2023-01-30T14:12:01.000Z</time>
      </trkpt>
      <trkpt lat="48.81913" lon="5.16209">
        <ele>224</ele>
        <time>2023-01-30T14:12:02.000Z</time>
      </trkpt>
      <trkpt lat="48.81914" lon="5.1621">
        <ele>224</ele>
        <time>2023-01-30T14:12:03.000Z</time>
      </trkpt>
      <trkpt lat="48.81915" lon="5.16211">
        <ele>224</ele>
        <time>2023-01-30T14:12:04.000Z</time>
      </trkpt>
      <trkpt lat="48.81916" lon="5.16211">
        <ele>224.5</ele>
        <time>2023-01-30T14:12:05.000Z</time>
      </trkpt>
      <trkpt lat="48.81917" lon="5.16213">
        <ele>225</ele>
        <time>2023-01-30T14:12:06.000Z</time>
      </trkpt>
      <trkpt lat="48.81918" lon="5.16214">
        <ele>225</ele>
        <time>2023-01-30T14:12:07.000Z</time>
      </trkpt>
      <trkpt lat="48.81919" lon="5.16215">
        <ele>225</ele>
        <time>2023-01-30T14:12:08.000Z</time>
      </trkpt>
      <trkpt lat="48.8192" lon="5.16215">
        <ele>225</ele>
        <time>2023-01-30T14:12:09.000Z</time>
      </trkpt>
      <trkpt lat="48.8192" lon="5.16216">
        <ele>225</ele>
        <time>2023-01-30T14:12:10.000Z</time>
      </trkpt>
      <trkpt lat="48.81921" lon="5.16217">
        <ele>224.5</ele>
        <time>2023-01-30T14:12:11.000Z</time>
      </trkpt>
      <trkpt lat="48.81922" lon="5.16217">
        <ele>224</ele>
        <time>2023-01-30T14:12:12.000Z</time>
      </trkpt>
      <trkpt lat="48.81922" lon="5.16218">
        <ele>224</ele>
        <time>2023-01-30T14:12:13.000Z</time>
      </trkpt>
      <trkpt lat="48.81923" lon="5.16218">
        <ele>224</ele>
        <time>2023-01-30T14:12:14.000Z</time>
      </trkpt>
      <trkpt lat="48.81923" lon="5.16218">
        <ele>224</ele>
        <time>2023-01-30T14:12:15.000Z</time>
      </trkpt>
      <trkpt lat="48.81924" lon="5.16218">
        <ele>224</ele>
        <time>2023-01-30T14:12:16.000Z</time>
      </trkpt>
      <trkpt lat="48.81924" lon="5.16219">
        <ele>224</ele>
        <time>2023-01-30T14:12:17.000Z</time>
      </trkpt>
      <trkpt lat="48.81924" lon="5.16219">
        <ele>224</ele>
        <time>2023-01-30T14:12:18.000Z</time>
      </trkpt>
      <trkpt lat="48.81925" lon="5.16219">
        <ele>224</ele>
        <time>2023-01-30T14:12:19.000Z</time>
      </trkpt>
      <trkpt lat="48.81925" lon="5.16219">
        <ele>224</ele>
        <time>2023-01-30T14:12:20.000Z</time>
      </trkpt>
      <trkpt lat="48.81925" lon="5.16219">
        <ele>224</ele>
        <time>2023-01-30T14:12:21.000Z</time>
      </trkpt>
      <trkpt lat="48.81925" lon="5.16219">
        <ele>224</ele>
        <time>2023-01-30T14:12:22.000Z</time>
      </trkpt>
      <trkpt lat="48.81925" lon="5.16219">
        <ele>224</ele>
        <time>2023-01-30T14:12:23.000Z</time>
      </trkpt>
      <trkpt lat="48.81925" lon="5.16219">
        <ele>224</ele>
        <time>2023-01-30T14:12:24.000Z</time>
      </trkpt>
      <trkpt lat="48.81925" lon="5.16219">
        <ele>224</ele>
        <time>2023-01-30T14:12:25.000Z</time>
      </trkpt>
      <trkpt lat="48.81925" lon="5.16219">
        <ele>224</ele>
        <time>2023-01-30T14:12:26.000Z</time>
      </trkpt>
      <trkpt lat="48.81925" lon="5.16219">
        <ele>224</ele>
        <time>2023-01-30T14:12:27.000Z</time>
      </trkpt>
      <trkpt lat="48.81926" lon="5.1622">
        <ele>224</ele>
        <time>2023-01-30T14:12:28.000Z</time>
      </trkpt>
      <trkpt lat="48.81926" lon="5.16221">
        <ele>224</ele>
        <time>2023-01-30T14:12:29.000Z</time>
      </trkpt>
      <trkpt lat="48.81927" lon="5.16222">
        <ele>224</ele>
        <time>2023-01-30T14:12:30.000Z</time>
      </trkpt>
      <trkpt lat="48.81928" lon="5.16223">
        <ele>224</ele>
        <time>2023-01-30T14:12:31.000Z</time>
      </trkpt>
      <trkpt lat="48.81928" lon="5.16223">
        <ele>224</ele>
        <time>2023-01-30T14:12:32.000Z</time>
      </trkpt>
      <trkpt lat="48.81929" lon="5.16224">
        <ele>224</ele>
        <time>2023-01-30T14:12:33.000Z</time>
      </trkpt>
      <trkpt lat="48.8193" lon="5.16225">
        <ele>224</ele>
        <time>2023-01-30T14:12:34.000Z</time>
      </trkpt>
      <trkpt lat="48.81931" lon="5.16226">
        <ele>224</ele>
        <time>2023-01-30T14:12:35.000Z</time>
      </trkpt>
      <trkpt lat="48.81932" lon="5.16226">
        <ele>224</ele>
        <time>2023-01-30T14:12:36.000Z</time>
      </trkpt>
      <trkpt lat="48.81933" lon="5.16227">
        <ele>224</ele>
        <time>2023-01-30T14:12:37.000Z</time>
      </trkpt>
      <trkpt lat="48.81934" lon="5.16228">
        <ele>224</ele>
        <time>2023-01-30T14:12:38.000Z</time>
      </trkpt>
      <trkpt lat="48.81935" lon="5.16229">
        <ele>224</ele>
        <time>2023-01-30T14:12:39.000Z</time>
      </trkpt>
      <trkpt lat="48.81935" lon="5.16229">
        <ele>224</ele>
        <time>2023-01-30T14:12:40.000Z</time>
      </trkpt>
      <trkpt lat="48.81936" lon="5.1623">
        <ele>224</ele>
        <time>2023-01-30T14:12:41.000Z</time>
      </trkpt>
      <trkpt lat="48.81937" lon="5.16231">
        <ele>224</ele>
        <time>2023-01-30T14:12:42.000Z</time>
      </trkpt>
      <trkpt lat="48.81937" lon="5.16232">
        <ele>223.7</ele>
        <time>2023-01-30T14:12:43.000Z</time>
      </trkpt>
      <trkpt lat="48.81938" lon="5.16233">
        <ele>223.3</ele>
        <time>2023-01-30T14:12:44.000Z</time>
      </trkpt>
      <trkpt lat="48.81938" lon="5.16234">
        <ele>223</ele>
        <time>2023-01-30T14:12:45.000Z</time>
      </trkpt>
      <trkpt lat="48.81939" lon="5.16236">
        <ele>223</ele>
        <time>2023-01-30T14:12:46.000Z</time>
      </trkpt>
      <trkpt lat="48.8194" lon="5.16237">
        <ele>223</ele>
        <time>2023-01-30T14:12:47.000Z</time>
      </trkpt>
      <trkpt lat="48.8194" lon="5.16238">
        <ele>223</ele>
        <time>2023-01-30T14:12:48.000Z</time>
      </trkpt>
      <trkpt lat="48.8194" lon="5.16239">
        <ele>223</ele>
        <time>2023-01-30T14:12:49.000Z</time>
      </trkpt>
      <trkpt lat="48.81941" lon="5.16241">
        <ele>223</ele>
        <time>2023-01-30T14:12:50.000Z</time>
      </trkpt>
      <trkpt lat="48.81941" lon="5.16242">
        <ele>223</ele>
        <time>2023-01-30T14:12:51.000Z</time>
      </trkpt>
      <trkpt lat="48.81942" lon="5.16242">
        <ele>224</ele>
        <time>2023-01-30T14:12:52.000Z</time>
      </trkpt>
      <trkpt lat="48.81942" lon="5.16243">
        <ele>223.7</ele>
        <time>2023-01-30T14:12:53.000Z</time>
      </trkpt>
      <trkpt lat="48.81942" lon="5.16243">
        <ele>223.3</ele>
        <time>2023-01-30T14:12:54.000Z</time>
      </trkpt>
      <trkpt lat="48.81943" lon="5.16243">
        <ele>223</ele>
        <time>2023-01-30T14:12:55.000Z</time>
      </trkpt>
      <trkpt lat="48.81943" lon="5.16243">
        <ele>223</ele>
        <time>2023-01-30T14:12:56.000Z</time>
      </trkpt>
      <trkpt lat="48.81943" lon="5.16243">
        <ele>223</ele>
        <time>2023-01-30T14:12:57.000Z</time>
      </trkpt>
      <trkpt lat="48.81943" lon="5.16243">
        <ele>223</ele>
        <time>2023-01-30T14:12:58.000Z</time>
      </trkpt>
      <trkpt lat="48.81943" lon="5.16243">
        <ele>223</ele>
        <time>2023-01-30T14:12:59.000Z</time>
      </trkpt>
      <trkpt lat="48.81943" lon="5.16243">
        <ele>223</ele>
        <time>2023-01-30T14:13:00.000Z</time>
      </trkpt>
      <trkpt lat="48.81943" lon="5.16243">
        <ele>223</ele>
        <time>2023-01-30T14:13:01.000Z</time>
      </trkpt>
      <trkpt lat="48.81943" lon="5.16243">
        <ele>223</ele>
        <time>2023-01-30T14:13:02.000Z</time>
      </trkpt>
      <trkpt lat="48.81943" lon="5.16243">
        <ele>223</ele>
        <time>2023-01-30T14:13:03.000Z</time>
      </trkpt>
      <trkpt lat="48.81943" lon="5.16244">
        <ele>223</ele>
        <time>2023-01-30T14:13:04.000Z</time>
      </trkpt>
      <trkpt lat="48.81944" lon="5.16244">
        <ele>223</ele>
        <time>2023-01-30T14:13:05.000Z</time>
      </trkpt>
      <trkpt lat="48.81945" lon="5.16244">
        <ele>223</ele>
        <time>2023-01-30T14:13:06.000Z</time>
      </trkpt>
      <trkpt lat="48.81946" lon="5.16245">
        <ele>223</ele>
        <time>2023-01-30T14:13:07.000Z</time>
      </trkpt>
      <trkpt lat="48.81946" lon="5.16247">
        <ele>223</ele>
        <time>2023-01-30T14:13:08.000Z</time>
      </trkpt>
      <trkpt lat="48.81947" lon="5.16249">
        <ele>223</ele>
        <time>2023-01-30T14:13:09.000Z</time>
      </trkpt>
      <trkpt lat="48.81947" lon="5.16251">
        <ele>223</ele>
        <time>2023-01-30T14:13:10.000Z</time>
      </trkpt>
      <trkpt lat="48.81948" lon="5.16253">
        <ele>223</ele>
        <time>2023-01-30T14:13:11.000Z</time>
      </trkpt>
      <trkpt lat="48.81948" lon="5.16255">
        <ele>223</ele>
        <time>2023-01-30T14:13:12.000Z</time>
      </trkpt>
      <trkpt lat="48.81949" lon="5.16257">
        <ele>223</ele>
        <time>2023-01-30T14:13:13.000Z</time>
      </trkpt>
      <trkpt lat="48.81949" lon="5.16258">
        <ele>223</ele>
        <time>2023-01-30T14:13:14.000Z</time>
      </trkpt>
      <trkpt lat="48.81949" lon="5.1626">
        <ele>223</ele>
        <time>2023-01-30T14:13:15.000Z</time>
      </trkpt>
      <trkpt lat="48.8195" lon="5.16261">
        <ele>223</ele>
        <time>2023-01-30T14:13:16.000Z</time>
      </trkpt>
      <trkpt lat="48.8195" lon="5.16262">
        <ele>223</ele>
        <time>2023-01-30T14:13:17.000Z</time>
      </trkpt>
      <trkpt lat="48.8195" lon="5.16262">
        <ele>223</ele>
        <time>2023-01-30T14:13:18.000Z</time>
      </trkpt>
      <trkpt lat="48.8195" lon="5.16263">
        <ele>223.3</ele>
        <time>2023-01-30T14:13:19.000Z</time>
      </trkpt>
      <trkpt lat="48.8195" lon="5.16264">
        <ele>223.7</ele>
        <time>2023-01-30T14:13:20.000Z</time>
      </trkpt>
      <trkpt lat="48.8195" lon="5.16265">
        <ele>224</ele>
        <time>2023-01-30T14:13:21.000Z</time>
      </trkpt>
      <trkpt lat="48.8195" lon="5.16266">
        <ele>224</ele>
        <time>2023-01-30T14:13:22.000Z</time>
      </trkpt>
      <trkpt lat="48.81951" lon="5.16268">
        <ele>224</ele>
        <time>2023-01-30T14:13:23.000Z</time>
      </trkpt>
      <trkpt lat="48.81951" lon="5.16269">
        <ele>224</ele>
        <time>2023-01-30T14:13:24.000Z</time>
      </trkpt>
      <trkpt lat="48.81952" lon="5.16271">
        <ele>224</ele>
        <time>2023-01-30T14:13:25.000Z</time>
      </trkpt>
      <trkpt lat="48.81952" lon="5.16274">
        <ele>224</ele>
        <time>2023-01-30T14:13:26.000Z</time>
      </trkpt>
      <trkpt lat="48.81953" lon="5.16276">
        <ele>224</ele>
        <time>2023-01-30T14:13:27.000Z</time>
      </trkpt>
      <trkpt lat="48.81953" lon="5.16278">
        <ele>224</ele>
        <time>2023-01-30T14:13:28.000Z</time>
      </trkpt>
      <trkpt lat="48.81954" lon="5.1628">
        <ele>224</ele>
        <time>2023-01-30T14:13:29.000Z</time>
      </trkpt>
      <trkpt lat="48.81954" lon="5.16282">
        <ele>224</ele>
        <time>2023-01-30T14:13:30.000Z</time>
      </trkpt>
      <trkpt lat="48.81955" lon="5.16284">
        <ele>224</ele>
        <time>2023-01-30T14:13:31.000Z</time>
      </trkpt>
      <trkpt lat="48.81955" lon="5.16286">
        <ele>224</ele>
        <time>2023-01-30T14:13:32.000Z</time>
      </trkpt>
      <trkpt lat="48.81955" lon="5.16288">
        <ele>224</ele>
        <time>2023-01-30T14:13:33.000Z</time>
      </trkpt>
      <trkpt lat="48.81955" lon="5.1629">
        <ele>224.5</ele>
        <time>2023-01-30T14:13:34.000Z</time>
      </trkpt>
      <trkpt lat="48.81955" lon="5.16292">
        <ele>225</ele>
        <time>2023-01-30T14:13:35.000Z</time>
      </trkpt>
      <trkpt lat="48.81956" lon="5.16294">
        <ele>225</ele>
        <time>2023-01-30T14:13:36.000Z</time>
      </trkpt>
      <trkpt lat="48.81956" lon="5.16296">
        <ele>225</ele>
        <time>2023-01-30T14:13:37.000Z</time>
      </trkpt>
      <trkpt lat="48.81957" lon="5.16298">
        <ele>225</ele>
        <time>2023-01-30T14:13:38.000Z</time>
      </trkpt>
      <trkpt lat="48.81957" lon="5.16299">
        <ele>225</ele>
        <time>2023-01-30T14:13:39.000Z</time>
      </trkpt>
      <trkpt lat="48.81957" lon="5.16301">
        <ele>225</ele>
        <time>2023-01-30T14:13:40.000Z</time>
      </trkpt>
      <trkpt lat="48.81958" lon="5.16302">
        <ele>225</ele>
        <time>2023-01-30T14:13:41.000Z</time>
      </trkpt>
      <trkpt lat="48.81958" lon="5.16304">
        <ele>225</ele>
        <time>2023-01-30T14:13:42.000Z</time>
      </trkpt>
      <trkpt lat="48.81958" lon="5.16306">
        <ele>225.5</ele>
        <time>2023-01-30T14:13:43.000Z</time>
      </trkpt>
      <trkpt lat="48.81958" lon="5.16308">
        <ele>226</ele>
        <time>2023-01-30T14:13:44.000Z</time>
      </trkpt>
      <trkpt lat="48.81958" lon="5.16311">
        <ele>226</ele>
        <time>2023-01-30T14:13:45.000Z</time>
      </trkpt>
      <trkpt lat="48.81958" lon="5.16314">
        <ele>226</ele>
        <time>2023-01-30T14:13:46.000Z</time>
      </trkpt>
      <trkpt lat="48.81958" lon="5.16316">
        <ele>226</ele>
        <time>2023-01-30T14:13:47.000Z</time>
      </trkpt>
      <trkpt lat="48.81959" lon="5.16319">
        <ele>226</ele>
        <time>2023-01-30T14:13:48.000Z</time>
      </trkpt>
      <trkpt lat="48.81959" lon="5.16322">
        <ele>226</ele>
        <time>2023-01-30T14:13:49.000Z</time>
      </trkpt>
      <trkpt lat="48.81959" lon="5.16324">
        <ele>226</ele>
        <time>2023-01-30T14:13:50.000Z</time>
      </trkpt>
      <trkpt lat="48.81959" lon="5.16327">
        <ele>226</ele>
        <time>2023-01-30T14:13:51.000Z</time>
      </trkpt>
      <trkpt lat="48.81959" lon="5.16329">
        <ele>226</ele>
        <time>2023-01-30T14:13:52.000Z</time>
      </trkpt>
      <trkpt lat="48.81959" lon="5.16332">
        <ele>226</ele>
        <time>2023-01-30T14:13:53.000Z</time>
      </trkpt>
      <trkpt lat="48.81959" lon="5.16334">
        <ele>226</ele>
        <time>2023-01-30T14:13:54.000Z</time>
      </trkpt>
      <trkpt lat="48.81959" lon="5.16337">
        <ele>226</ele>
        <time>2023-01-30T14:13:55.000Z</time>
      </trkpt>
      <trkpt lat="48.81959" lon="5.1634">
        <ele>226</ele>
        <time>2023-01-30T14:13:56.000Z</time>
      </trkpt>
      <trkpt lat="48.8196" lon="5.16343">
        <ele>226</ele>
        <time>2023-01-30T14:13:57.000Z</time>
      </trkpt>
      <trkpt lat="48.8196" lon="5.16346">
        <ele>226</ele>
        <time>2023-01-30T14:13:58.000Z</time>
      </trkpt>
      <trkpt lat="48.81961" lon="5.16348">
        <ele>226</ele>
        <time>2023-01-30T14:13:59.000Z</time>
      </trkpt>
      <trkpt lat="48.81961" lon="5.1635">
        <ele>226</ele>
        <time>2023-01-30T14:14:00.000Z</time>
      </trkpt>
      <trkpt lat="48.81961" lon="5.16352">
        <ele>226</ele>
        <time>2023-01-30T14:14:01.000Z</time>
      </trkpt>
      <trkpt lat="48.81962" lon="5.16354">
        <ele>227</ele>
        <time>2023-01-30T14:14:02.000Z</time>
      </trkpt>
      <trkpt lat="48.81962" lon="5.16357">
        <ele>227</ele>
        <time>2023-01-30T14:14:03.000Z</time>
      </trkpt>
      <trkpt lat="48.81962" lon="5.16359">
        <ele>227</ele>
        <time>2023-01-30T14:14:04.000Z</time>
      </trkpt>
      <trkpt lat="48.81962" lon="5.16361">
        <ele>227</ele>
        <time>2023-01-30T14:14:05.000Z</time>
      </trkpt>
      <trkpt lat="48.81961" lon="5.16363">
        <ele>227</ele>
        <time>2023-01-30T14:14:06.000Z</time>
      </trkpt>
      <trkpt lat="48.8196" lon="5.16366">
        <ele>227</ele>
        <time>2023-01-30T14:14:07.000Z</time>
      </trkpt>
      <trkpt lat="48.8196" lon="5.16368">
        <ele>227</ele>
        <time>2023-01-30T14:14:08.000Z</time>
      </trkpt>
      <trkpt lat="48.8196" lon="5.1637">
        <ele>227</ele>
        <time>2023-01-30T14:14:09.000Z</time>
      </trkpt>
      <trkpt lat="48.8196" lon="5.16372">
        <ele>227</ele>
        <time>2023-01-30T14:14:10.000Z</time>
      </trkpt>
      <trkpt lat="48.8196" lon="5.16375">
        <ele>227</ele>
        <time>2023-01-30T14:14:11.000Z</time>
      </trkpt>
      <trkpt lat="48.8196" lon="5.16377">
        <ele>227</ele>
        <time>2023-01-30T14:14:12.000Z</time>
      </trkpt>
      <trkpt lat="48.8196" lon="5.16379">
        <ele>227</ele>
        <time>2023-01-30T14:14:13.000Z</time>
      </trkpt>
      <trkpt lat="48.8196" lon="5.16381">
        <ele>227</ele>
        <time>2023-01-30T14:14:14.000Z</time>
      </trkpt>
      <trkpt lat="48.8196" lon="5.16383">
        <ele>227</ele>
        <time>2023-01-30T14:14:15.000Z</time>
      </trkpt>
      <trkpt lat="48.8196" lon="5.16385">
        <ele>227</ele>
        <time>2023-01-30T14:14:16.000Z</time>
      </trkpt>
      <trkpt lat="48.8196" lon="5.16388">
        <ele>227</ele>
        <time>2023-01-30T14:14:17.000Z</time>
      </trkpt>
      <trkpt lat="48.8196" lon="5.1639">
        <ele>227</ele>
        <time>2023-01-30T14:14:18.000Z</time>
      </trkpt>
      <trkpt lat="48.8196" lon="5.16392">
        <ele>227</ele>
        <time>2023-01-30T14:14:19.000Z</time>
      </trkpt>
      <trkpt lat="48.8196" lon="5.16394">
        <ele>227</ele>
        <time>2023-01-30T14:14:20.000Z</time>
      </trkpt>
      <trkpt lat="48.8196" lon="5.16397">
        <ele>227</ele>
        <time>2023-01-30T14:14:21.000Z</time>
      </trkpt>
      <trkpt lat="48.81959" lon="5.164">
        <ele>228</ele>
        <time>2023-01-30T14:14:22.000Z</time>
      </trkpt>
      <trkpt lat="48.81959" lon="5.16402">
        <ele>228</ele>
        <time>2023-01-30T14:14:23.000Z</time>
      </trkpt>
      <trkpt lat="48.81958" lon="5.16404">
        <ele>228</ele>
        <time>2023-01-30T14:14:24.000Z</time>
      </trkpt>
      <trkpt lat="48.81958" lon="5.16406">
        <ele>228</ele>
        <time>2023-01-30T14:14:25.000Z</time>
      </trkpt>
      <trkpt lat="48.81958" lon="5.16408">
        <ele>228</ele>
        <time>2023-01-30T14:14:26.000Z</time>
      </trkpt>
      <trkpt lat="48.81958" lon="5.1641">
        <ele>228</ele>
        <time>2023-01-30T14:14:27.000Z</time>
      </trkpt>
      <trkpt lat="48.81957" lon="5.16413">
        <ele>228</ele>
        <time>2023-01-30T14:14:28.000Z</time>
      </trkpt>
      <trkpt lat="48.81957" lon="5.16415">
        <ele>228</ele>
        <time>2023-01-30T14:14:29.000Z</time>
      </trkpt>
      <trkpt lat="48.81957" lon="5.16418">
        <ele>228</ele>
        <time>2023-01-30T14:14:30.000Z</time>
      </trkpt>
      <trkpt lat="48.81957" lon="5.1642">
        <ele>228</ele>
        <time>2023-01-30T14:14:31.000Z</time>
      </trkpt>
      <trkpt lat="48.81957" lon="5.16423">
        <ele>229</ele>
        <time>2023-01-30T14:14:32.000Z</time>
      </trkpt>
      <trkpt lat="48.81957" lon="5.16425">
        <ele>229</ele>
        <time>2023-01-30T14:14:33.000Z</time>
      </trkpt>
      <trkpt lat="48.81957" lon="5.16427">
        <ele>229</ele>
        <time>2023-01-30T14:14:34.000Z</time>
      </trkpt>
      <trkpt lat="48.81957" lon="5.16428">
        <ele>229</ele>
        <time>2023-01-30T14:14:35.000Z</time>
      </trkpt>
      <trkpt lat="48.81957" lon="5.1643">
        <ele>229</ele>
        <time>2023-01-30T14:14:36.000Z</time>
      </trkpt>
      <trkpt lat="48.81957" lon="5.16432">
        <ele>229</ele>
        <time>2023-01-30T14:14:37.000Z</time>
      </trkpt>
      <trkpt lat="48.81958" lon="5.16434">
        <ele>229</ele>
        <time>2023-01-30T14:14:38.000Z</time>
      </trkpt>
      <trkpt lat="48.81958" lon="5.16436">
        <ele>229.3</ele>
        <time>2023-01-30T14:14:39.000Z</time>
      </trkpt>
      <trkpt lat="48.81959" lon="5.16438">
        <ele>229.7</ele>
        <time>2023-01-30T14:14:40.000Z</time>
      </trkpt>
      <trkpt lat="48.81959" lon="5.16441">
        <ele>230</ele>
        <time>2023-01-30T14:14:41.000Z</time>
      </trkpt>
      <trkpt lat="48.8196" lon="5.16444">
        <ele>230</ele>
        <time>2023-01-30T14:14:42.000Z</time>
      </trkpt>
      <trkpt lat="48.8196" lon="5.16447">
        <ele>230</ele>
        <time>2023-01-30T14:14:43.000Z</time>
      </trkpt>
      <trkpt lat="48.8196" lon="5.1645">
        <ele>230</ele>
        <time>2023-01-30T14:14:44.000Z</time>
      </trkpt>
      <trkpt lat="48.8196" lon="5.16453">
        <ele>230</ele>
        <time>2023-01-30T14:14:45.000Z</time>
      </trkpt>
      <trkpt lat="48.8196" lon="5.16456">
        <ele>230</ele>
        <time>2023-01-30T14:14:46.000Z</time>
      </trkpt>
      <trkpt lat="48.8196" lon="5.16459">
        <ele>230</ele>
        <time>2023-01-30T14:14:47.000Z</time>
      </trkpt>
      <trkpt lat="48.8196" lon="5.16461">
        <ele>230</ele>
        <time>2023-01-30T14:14:48.000Z</time>
      </trkpt>
      <trkpt lat="48.8196" lon="5.16464">
        <ele>230</ele>
        <time>2023-01-30T14:14:49.000Z</time>
      </trkpt>
      <trkpt lat="48.8196" lon="5.16467">
        <ele>230</ele>
        <time>2023-01-30T14:14:50.000Z</time>
      </trkpt>
      <trkpt lat="48.8196" lon="5.1647">
        <ele>230</ele>
        <time>2023-01-30T14:14:51.000Z</time>
      </trkpt>
      <trkpt lat="48.81961" lon="5.16472">
        <ele>230</ele>
        <time>2023-01-30T14:14:52.000Z</time>
      </trkpt>
      <trkpt lat="48.81961" lon="5.16475">
        <ele>230</ele>
        <time>2023-01-30T14:14:53.000Z</time>
      </trkpt>
      <trkpt lat="48.81961" lon="5.16478">
        <ele>231</ele>
        <time>2023-01-30T14:14:54.000Z</time>
      </trkpt>
      <trkpt lat="48.81961" lon="5.1648">
        <ele>231</ele>
        <time>2023-01-30T14:14:55.000Z</time>
      </trkpt>
      <trkpt lat="48.81961" lon="5.16482">
        <ele>231</ele>
        <time>2023-01-30T14:14:56.000Z</time>
      </trkpt>
      <trkpt lat="48.81961" lon="5.16485">
        <ele>231</ele>
        <time>2023-01-30T14:14:57.000Z</time>
      </trkpt>
      <trkpt lat="48.81961" lon="5.16487">
        <ele>231</ele>
        <time>2023-01-30T14:14:58.000Z</time>
      </trkpt>
      <trkpt lat="48.8196" lon="5.16489">
        <ele>231</ele>
        <time>2023-01-30T14:14:59.000Z</time>
      </trkpt>
      <trkpt lat="48.8196" lon="5.16491">
        <ele>231</ele>
        <time>2023-01-30T14:15:00.000Z</time>
      </trkpt>
      <trkpt lat="48.8196" lon="5.16493">
        <ele>231</ele>
        <time>2023-01-30T14:15:01.000Z</time>
      </trkpt>
      <trkpt lat="48.81959" lon="5.16495">
        <ele>231</ele>
        <time>2023-01-30T14:15:02.000Z</time>
      </trkpt>
      <trkpt lat="48.81959" lon="5.16498">
        <ele>231</ele>
        <time>2023-01-30T14:15:03.000Z</time>
      </trkpt>
      <trkpt lat="48.81959" lon="5.165">
        <ele>231</ele>
        <time>2023-01-30T14:15:04.000Z</time>
      </trkpt>
      <trkpt lat="48.81959" lon="5.16503">
        <ele>231</ele>
        <time>2023-01-30T14:15:05.000Z</time>
      </trkpt>
      <trkpt lat="48.81959" lon="5.16505">
        <ele>232</ele>
        <time>2023-01-30T14:15:06.000Z</time>
      </trkpt>
      <trkpt lat="48.81959" lon="5.16507">
        <ele>232</ele>
        <time>2023-01-30T14:15:07.000Z</time>
      </trkpt>
      <trkpt lat="48.8196" lon="5.1651">
        <ele>232</ele>
        <time>2023-01-30T14:15:08.000Z</time>
      </trkpt>
      <trkpt lat="48.81959" lon="5.16512">
        <ele>232</ele>
        <time>2023-01-30T14:15:09.000Z</time>
      </trkpt>
      <trkpt lat="48.81959" lon="5.16514">
        <ele>232</ele>
        <time>2023-01-30T14:15:10.000Z</time>
      </trkpt>
      <trkpt lat="48.81959" lon="5.16517">
        <ele>232</ele>
        <time>2023-01-30T14:15:11.000Z</time>
      </trkpt>
      <trkpt lat="48.81959" lon="5.16519">
        <ele>232</ele>
        <time>2023-01-30T14:15:12.000Z</time>
      </trkpt>
      <trkpt lat="48.81958" lon="5.16521">
        <ele>232</ele>
        <time>2023-01-30T14:15:13.000Z</time>
      </trkpt>
      <trkpt lat="48.81958" lon="5.16524">
        <ele>232</ele>
        <time>2023-01-30T14:15:14.000Z</time>
      </trkpt>
      <trkpt lat="48.81958" lon="5.16526">
        <ele>232</ele>
        <time>2023-01-30T14:15:15.000Z</time>
      </trkpt>
      <trkpt lat="48.81958" lon="5.1653">
        <ele>232</ele>
        <time>2023-01-30T14:15:16.000Z</time>
      </trkpt>
      <trkpt lat="48.81958" lon="5.16533">
        <ele>232</ele>
        <time>2023-01-30T14:15:17.000Z</time>
      </trkpt>
      <trkpt lat="48.81958" lon="5.16535">
        <ele>232</ele>
        <time>2023-01-30T14:15:18.000Z</time>
      </trkpt>
      <trkpt lat="48.81958" lon="5.16537">
        <ele>232</ele>
        <time>2023-01-30T14:15:19.000Z</time>
      </trkpt>
      <trkpt lat="48.81958" lon="5.16539">
        <ele>232</ele>
        <time>2023-01-30T14:15:20.000Z</time>
      </trkpt>
      <trkpt lat="48.81959" lon="5.1654">
        <ele>232</ele>
        <time>2023-01-30T14:15:21.000Z</time>
      </trkpt>
      <trkpt lat="48.81959" lon="5.16542">
        <ele>232</ele>
        <time>2023-01-30T14:15:22.000Z</time>
      </trkpt>
      <trkpt lat="48.81959" lon="5.16544">
        <ele>232</ele>
        <time>2023-01-30T14:15:23.000Z</time>
      </trkpt>
      <trkpt lat="48.81959" lon="5.16546">
        <ele>232</ele>
        <time>2023-01-30T14:15:24.000Z</time>
      </trkpt>
      <trkpt lat="48.8196" lon="5.16549">
        <ele>232</ele>
        <time>2023-01-30T14:15:25.000Z</time>
      </trkpt>
      <trkpt lat="48.8196" lon="5.16551">
        <ele>232</ele>
        <time>2023-01-30T14:15:26.000Z</time>
      </trkpt>
      <trkpt lat="48.8196" lon="5.16553">
        <ele>232.3</ele>
        <time>2023-01-30T14:15:27.000Z</time>
      </trkpt>
      <trkpt lat="48.8196" lon="5.16555">
        <ele>232.7</ele>
        <time>2023-01-30T14:15:28.000Z</time>
      </trkpt>
      <trkpt lat="48.81961" lon="5.16558">
        <ele>233</ele>
        <time>2023-01-30T14:15:29.000Z</time>
      </trkpt>
      <trkpt lat="48.81961" lon="5.1656">
        <ele>233</ele>
        <time>2023-01-30T14:15:30.000Z</time>
      </trkpt>
      <trkpt lat="48.81961" lon="5.16563">
        <ele>233</ele>
        <time>2023-01-30T14:15:31.000Z</time>
      </trkpt>
      <trkpt lat="48.8196" lon="5.16566">
        <ele>233</ele>
        <time>2023-01-30T14:15:32.000Z</time>
      </trkpt>
      <trkpt lat="48.8196" lon="5.16568">
        <ele>233</ele>
        <time>2023-01-30T14:15:33.000Z</time>
      </trkpt>
      <trkpt lat="48.81959" lon="5.1657">
        <ele>233</ele>
        <time>2023-01-30T14:15:34.000Z</time>
      </trkpt>
      <trkpt lat="48.81959" lon="5.16572">
        <ele>233</ele>
        <time>2023-01-30T14:15:35.000Z</time>
      </trkpt>
      <trkpt lat="48.81958" lon="5.16574">
        <ele>233</ele>
        <time>2023-01-30T14:15:36.000Z</time>
      </trkpt>
      <trkpt lat="48.81958" lon="5.16577">
        <ele>233</ele>
        <time>2023-01-30T14:15:37.000Z</time>
      </trkpt>
      <trkpt lat="48.81957" lon="5.16579">
        <ele>233</ele>
        <time>2023-01-30T14:15:38.000Z</time>
      </trkpt>
      <trkpt lat="48.81957" lon="5.16582">
        <ele>233</ele>
        <time>2023-01-30T14:15:39.000Z</time>
      </trkpt>
      <trkpt lat="48.81957" lon="5.16584">
        <ele>233</ele>
        <time>2023-01-30T14:15:40.000Z</time>
      </trkpt>
      <trkpt lat="48.81957" lon="5.16587">
        <ele>233</ele>
        <time>2023-01-30T14:15:41.000Z</time>
      </trkpt>
      <trkpt lat="48.81957" lon="5.1659">
        <ele>233</ele>
        <time>2023-01-30T14:15:42.000Z</time>
      </trkpt>
      <trkpt lat="48.81957" lon="5.16591">
        <ele>233</ele>
        <time>2023-01-30T14:15:43.000Z</time>
      </trkpt>
      <trkpt lat="48.81957" lon="5.16592">
        <ele>233</ele>
        <time>2023-01-30T14:15:44.000Z</time>
      </trkpt>
      <trkpt lat="48.81957" lon="5.16593">
        <ele>233</ele>
        <time>2023-01-30T14:15:45.000Z</time>
      </trkpt>
      <trkpt lat="48.81957" lon="5.16595">
        <ele>233</ele>
        <time>2023-01-30T14:15:46.000Z</time>
      </trkpt>
      <trkpt lat="48.81957" lon="5.16598">
        <ele>233</ele>
        <time>2023-01-30T14:15:47.000Z</time>
      </trkpt>
      <trkpt lat="48.81958" lon="5.166">
        <ele>233</ele>
        <time>2023-01-30T14:15:48.000Z</time>
      </trkpt>
      <trkpt lat="48.81958" lon="5.16601">
        <ele>233</ele>
        <time>2023-01-30T14:15:49.000Z</time>
      </trkpt>
      <trkpt lat="48.81958" lon="5.16603">
        <ele>233</ele>
        <time>2023-01-30T14:15:50.000Z</time>
      </trkpt>
      <trkpt lat="48.81958" lon="5.16605">
        <ele>233.5</ele>
        <time>2023-01-30T14:15:51.000Z</time>
      </trkpt>
      <trkpt lat="48.81958" lon="5.16608">
        <ele>234</ele>
        <time>2023-01-30T14:15:52.000Z</time>
      </trkpt>
      <trkpt lat="48.81957" lon="5.16609">
        <ele>234</ele>
        <time>2023-01-30T14:15:53.000Z</time>
      </trkpt>
      <trkpt lat="48.81957" lon="5.16611">
        <ele>234</ele>
        <time>2023-01-30T14:15:54.000Z</time>
      </trkpt>
      <trkpt lat="48.81958" lon="5.16613">
        <ele>234</ele>
        <time>2023-01-30T14:15:55.000Z</time>
      </trkpt>
      <trkpt lat="48.81958" lon="5.16615">
        <ele>234</ele>
        <time>2023-01-30T14:15:56.000Z</time>
      </trkpt>
      <trkpt lat="48.81958" lon="5.16618">
        <ele>234</ele>
        <time>2023-01-30T14:15:57.000Z</time>
      </trkpt>
      <trkpt lat="48.81958" lon="5.16621">
        <ele>234</ele>
        <time>2023-01-30T14:15:58.000Z</time>
      </trkpt>
      <trkpt lat="48.81958" lon="5.16624">
        <ele>234</ele>
        <time>2023-01-30T14:15:59.000Z</time>
      </trkpt>
      <trkpt lat="48.81958" lon="5.16626">
        <ele>234</ele>
        <time>2023-01-30T14:16:00.000Z</time>
      </trkpt>
      <trkpt lat="48.81958" lon="5.16628">
        <ele>234</ele>
        <time>2023-01-30T14:16:01.000Z</time>
      </trkpt>
      <trkpt lat="48.81958" lon="5.16629">
        <ele>234</ele>
        <time>2023-01-30T14:16:02.000Z</time>
      </trkpt>
      <trkpt lat="48.81958" lon="5.16631">
        <ele>234</ele>
        <time>2023-01-30T14:16:03.000Z</time>
      </trkpt>
      <trkpt lat="48.81958" lon="5.16632">
        <ele>234</ele>
        <time>2023-01-30T14:16:04.000Z</time>
      </trkpt>
      <trkpt lat="48.81959" lon="5.16634">
        <ele>234</ele>
        <time>2023-01-30T14:16:05.000Z</time>
      </trkpt>
      <trkpt lat="48.81959" lon="5.16636">
        <ele>234</ele>
        <time>2023-01-30T14:16:06.000Z</time>
      </trkpt>
      <trkpt lat="48.81959" lon="5.16639">
        <ele>234</ele>
        <time>2023-01-30T14:16:07.000Z</time>
      </trkpt>
      <trkpt lat="48.81959" lon="5.16641">
        <ele>234</ele>
        <time>2023-01-30T14:16:08.000Z</time>
      </trkpt>
      <trkpt lat="48.81959" lon="5.16644">
        <ele>234</ele>
        <time>2023-01-30T14:16:09.000Z</time>
      </trkpt>
      <trkpt lat="48.81959" lon="5.16647">
        <ele>234</ele>
        <time>2023-01-30T14:16:10.000Z</time>
      </trkpt>
      <trkpt lat="48.8196" lon="5.1665">
        <ele>234</ele>
        <time>2023-01-30T14:16:11.000Z</time>
      </trkpt>
      <trkpt lat="48.8196" lon="5.16652">
        <ele>234</ele>
        <time>2023-01-30T14:16:12.000Z</time>
      </trkpt>
      <trkpt lat="48.8196" lon="5.16655">
        <ele>234.3</ele>
        <time>2023-01-30T14:16:13.000Z</time>
      </trkpt>
      <trkpt lat="48.81961" lon="5.16658">
        <ele>234.7</ele>
        <time>2023-01-30T14:16:14.000Z</time>
      </trkpt>
      <trkpt lat="48.81961" lon="5.16661">
        <ele>235</ele>
        <time>2023-01-30T14:16:15.000Z</time>
      </trkpt>
      <trkpt lat="48.81961" lon="5.16664">
        <ele>235</ele>
        <time>2023-01-30T14:16:16.000Z</time>
      </trkpt>
      <trkpt lat="48.81962" lon="5.16666">
        <ele>235</ele>
        <time>2023-01-30T14:16:17.000Z</time>
      </trkpt>
      <trkpt lat="48.81962" lon="5.16668">
        <ele>235</ele>
        <time>2023-01-30T14:16:18.000Z</time>
      </trkpt>
      <trkpt lat="48.81962" lon="5.1667">
        <ele>235</ele>
        <time>2023-01-30T14:16:19.000Z</time>
      </trkpt>
      <trkpt lat="48.81962" lon="5.16672">
        <ele>235</ele>
        <time>2023-01-30T14:16:20.000Z</time>
      </trkpt>
      <trkpt lat="48.81962" lon="5.16675">
        <ele>235</ele>
        <time>2023-01-30T14:16:21.000Z</time>
      </trkpt>
      <trkpt lat="48.81962" lon="5.16677">
        <ele>235</ele>
        <time>2023-01-30T14:16:22.000Z</time>
      </trkpt>
      <trkpt lat="48.81962" lon="5.1668">
        <ele>235</ele>
        <time>2023-01-30T14:16:23.000Z</time>
      </trkpt>
      <trkpt lat="48.81961" lon="5.16683">
        <ele>235</ele>
        <time>2023-01-30T14:16:24.000Z</time>
      </trkpt>
      <trkpt lat="48.81961" lon="5.16685">
        <ele>235</ele>
        <time>2023-01-30T14:16:25.000Z</time>
      </trkpt>
      <trkpt lat="48.81961" lon="5.16688">
        <ele>235</ele>
        <time>2023-01-30T14:16:26.000Z</time>
      </trkpt>
      <trkpt lat="48.81961" lon="5.16691">
        <ele>235</ele>
        <time>2023-01-30T14:16:27.000Z</time>
      </trkpt>
      <trkpt lat="48.81961" lon="5.16694">
        <ele>236</ele>
        <time>2023-01-30T14:16:28.000Z</time>
      </trkpt>
      <trkpt lat="48.81961" lon="5.16697">
        <ele>236</ele>
        <time>2023-01-30T14:16:29.000Z</time>
      </trkpt>
      <trkpt lat="48.81961" lon="5.16698">
        <ele>236</ele>
        <time>2023-01-30T14:16:30.000Z</time>
      </trkpt>
      <trkpt lat="48.81961" lon="5.167">
        <ele>236</ele>
        <time>2023-01-30T14:16:31.000Z</time>
      </trkpt>
      <trkpt lat="48.81961" lon="5.16703">
        <ele>236</ele>
        <time>2023-01-30T14:16:32.000Z</time>
      </trkpt>
      <trkpt lat="48.81961" lon="5.16705">
        <ele>236</ele>
        <time>2023-01-30T14:16:33.000Z</time>
      </trkpt>
      <trkpt lat="48.81961" lon="5.16708">
        <ele>236</ele>
        <time>2023-01-30T14:16:34.000Z</time>
      </trkpt>
      <trkpt lat="48.81961" lon="5.1671">
        <ele>236</ele>
        <time>2023-01-30T14:16:35.000Z</time>
      </trkpt>
      <trkpt lat="48.81961" lon="5.16713">
        <ele>236</ele>
        <time>2023-01-30T14:16:36.000Z</time>
      </trkpt>
      <trkpt lat="48.81961" lon="5.16715">
        <ele>236</ele>
        <time>2023-01-30T14:16:37.000Z</time>
      </trkpt>
      <trkpt lat="48.81961" lon="5.16717">
        <ele>236</ele>
        <time>2023-01-30T14:16:38.000Z</time>
      </trkpt>
      <trkpt lat="48.81961" lon="5.1672">
        <ele>236</ele>
        <time>2023-01-30T14:16:39.000Z</time>
      </trkpt>
      <trkpt lat="48.81961" lon="5.16722">
        <ele>236</ele>
        <time>2023-01-30T14:16:40.000Z</time>
      </trkpt>
      <trkpt lat="48.81961" lon="5.16724">
        <ele>236</ele>
        <time>2023-01-30T14:16:41.000Z</time>
      </trkpt>
      <trkpt lat="48.81961" lon="5.16726">
        <ele>236</ele>
        <time>2023-01-30T14:16:42.000Z</time>
      </trkpt>
      <trkpt lat="48.81961" lon="5.16728">
        <ele>236.3</ele>
        <time>2023-01-30T14:16:43.000Z</time>
      </trkpt>
      <trkpt lat="48.81961" lon="5.1673">
        <ele>236.7</ele>
        <time>2023-01-30T14:16:44.000Z</time>
      </trkpt>
      <trkpt lat="48.81961" lon="5.16732">
        <ele>237</ele>
        <time>2023-01-30T14:16:45.000Z</time>
      </trkpt>
      <trkpt lat="48.81961" lon="5.16735">
        <ele>237</ele>
        <time>2023-01-30T14:16:46.000Z</time>
      </trkpt>
      <trkpt lat="48.81961" lon="5.16737">
        <ele>237</ele>
        <time>2023-01-30T14:16:47.000Z</time>
      </trkpt>
      <trkpt lat="48.8196" lon="5.1674">
        <ele>237</ele>
        <time>2023-01-30T14:16:48.000Z</time>
      </trkpt>
      <trkpt lat="48.8196" lon="5.16743">
        <ele>237</ele>
        <time>2023-01-30T14:16:49.000Z</time>
      </trkpt>
      <trkpt lat="48.8196" lon="5.16746">
        <ele>237</ele>
        <time>2023-01-30T14:16:50.000Z</time>
      </trkpt>
      <trkpt lat="48.8196" lon="5.16749">
        <ele>237</ele>
        <time>2023-01-30T14:16:51.000Z</time>
      </trkpt>
      <trkpt lat="48.8196" lon="5.16752">
        <ele>237</ele>
        <time>2023-01-30T14:16:52.000Z</time>
      </trkpt>
      <trkpt lat="48.81961" lon="5.16755">
        <ele>237</ele>
        <time>2023-01-30T14:16:53.000Z</time>
      </trkpt>
      <trkpt lat="48.81961" lon="5.16758">
        <ele>237</ele>
        <time>2023-01-30T14:16:54.000Z</time>
      </trkpt>
      <trkpt lat="48.81962" lon="5.1676">
        <ele>237</ele>
        <time>2023-01-30T14:16:55.000Z</time>
      </trkpt>
      <trkpt lat="48.81962" lon="5.16762">
        <ele>237</ele>
        <time>2023-01-30T14:16:56.000Z</time>
      </trkpt>
      <trkpt lat="48.81962" lon="5.16764">
        <ele>237.3</ele>
        <time>2023-01-30T14:16:57.000Z</time>
      </trkpt>
      <trkpt lat="48.81962" lon="5.16766">
        <ele>237.7</ele>
        <time>2023-01-30T14:16:58.000Z</time>
      </trkpt>
      <trkpt lat="48.81962" lon="5.16769">
        <ele>238</ele>
        <time>2023-01-30T14:16:59.000Z</time>
      </trkpt>
      <trkpt lat="48.81962" lon="5.16771">
        <ele>238</ele>
        <time>2023-01-30T14:17:00.000Z</time>
      </trkpt>
      <trkpt lat="48.81962" lon="5.16774">
        <ele>238</ele>
        <time>2023-01-30T14:17:01.000Z</time>
      </trkpt>
      <trkpt lat="48.81962" lon="5.16776">
        <ele>238</ele>
        <time>2023-01-30T14:17:02.000Z</time>
      </trkpt>
      <trkpt lat="48.81962" lon="5.16777">
        <ele>238</ele>
        <time>2023-01-30T14:17:03.000Z</time>
      </trkpt>
      <trkpt lat="48.81962" lon="5.16779">
        <ele>238</ele>
        <time>2023-01-30T14:17:04.000Z</time>
      </trkpt>
      <trkpt lat="48.81962" lon="5.16782">
        <ele>238</ele>
        <time>2023-01-30T14:17:05.000Z</time>
      </trkpt>
      <trkpt lat="48.81962" lon="5.16785">
        <ele>238</ele>
        <time>2023-01-30T14:17:06.000Z</time>
      </trkpt>
      <trkpt lat="48.81962" lon="5.16787">
        <ele>238</ele>
        <time>2023-01-30T14:17:07.000Z</time>
      </trkpt>
      <trkpt lat="48.81962" lon="5.16789">
        <ele>238</ele>
        <time>2023-01-30T14:17:08.000Z</time>
      </trkpt>
      <trkpt lat="48.81962" lon="5.16792">
        <ele>238</ele>
        <time>2023-01-30T14:17:09.000Z</time>
      </trkpt>
      <trkpt lat="48.81962" lon="5.16794">
        <ele>238</ele>
        <time>2023-01-30T14:17:10.000Z</time>
      </trkpt>
      <trkpt lat="48.81962" lon="5.16796">
        <ele>238</ele>
        <time>2023-01-30T14:17:11.000Z</time>
      </trkpt>
      <trkpt lat="48.81962" lon="5.16798">
        <ele>238</ele>
        <time>2023-01-30T14:17:12.000Z</time>
      </trkpt>
      <trkpt lat="48.81962" lon="5.168">
        <ele>238</ele>
        <time>2023-01-30T14:17:13.000Z</time>
      </trkpt>
      <trkpt lat="48.81962" lon="5.16802">
        <ele>238</ele>
        <time>2023-01-30T14:17:14.000Z</time>
      </trkpt>
      <trkpt lat="48.81962" lon="5.16805">
        <ele>238</ele>
        <time>2023-01-30T14:17:15.000Z</time>
      </trkpt>
      <trkpt lat="48.81962" lon="5.16808">
        <ele>239</ele>
        <time>2023-01-30T14:17:16.000Z</time>
      </trkpt>
      <trkpt lat="48.81962" lon="5.1681">
        <ele>239</ele>
        <time>2023-01-30T14:17:17.000Z</time>
      </trkpt>
      <trkpt lat="48.81962" lon="5.16812">
        <ele>239</ele>
        <time>2023-01-30T14:17:18.000Z</time>
      </trkpt>
      <trkpt lat="48.81962" lon="5.16813">
        <ele>239</ele>
        <time>2023-01-30T14:17:19.000Z</time>
      </trkpt>
      <trkpt lat="48.81962" lon="5.16815">
        <ele>239</ele>
        <time>2023-01-30T14:17:20.000Z</time>
      </trkpt>
      <trkpt lat="48.81962" lon="5.16819">
        <ele>239</ele>
        <time>2023-01-30T14:17:21.000Z</time>
      </trkpt>
      <trkpt lat="48.81962" lon="5.16822">
        <ele>239</ele>
        <time>2023-01-30T14:17:22.000Z</time>
      </trkpt>
      <trkpt lat="48.81963" lon="5.16826">
        <ele>239</ele>
        <time>2023-01-30T14:17:23.000Z</time>
      </trkpt>
      <trkpt lat="48.81963" lon="5.1683">
        <ele>239</ele>
        <time>2023-01-30T14:17:24.000Z</time>
      </trkpt>
      <trkpt lat="48.81963" lon="5.16833">
        <ele>239</ele>
        <time>2023-01-30T14:17:25.000Z</time>
      </trkpt>
      <trkpt lat="48.81962" lon="5.16835">
        <ele>239</ele>
        <time>2023-01-30T14:17:26.000Z</time>
      </trkpt>
      <trkpt lat="48.81962" lon="5.16838">
        <ele>239</ele>
        <time>2023-01-30T14:17:27.000Z</time>
      </trkpt>
      <trkpt lat="48.81962" lon="5.1684">
        <ele>239</ele>
        <time>2023-01-30T14:17:28.000Z</time>
      </trkpt>
      <trkpt lat="48.81962" lon="5.16843">
        <ele>239</ele>
        <time>2023-01-30T14:17:29.000Z</time>
      </trkpt>
      <trkpt lat="48.81962" lon="5.16845">
        <ele>239</ele>
        <time>2023-01-30T14:17:30.000Z</time>
      </trkpt>
      <trkpt lat="48.81961" lon="5.16848">
        <ele>239</ele>
        <time>2023-01-30T14:17:31.000Z</time>
      </trkpt>
      <trkpt lat="48.81961" lon="5.1685">
        <ele>239</ele>
        <time>2023-01-30T14:17:32.000Z</time>
      </trkpt>
      <trkpt lat="48.81961" lon="5.16853">
        <ele>239</ele>
        <time>2023-01-30T14:17:33.000Z</time>
      </trkpt>
      <trkpt lat="48.81961" lon="5.16855">
        <ele>239</ele>
        <time>2023-01-30T14:17:34.000Z</time>
      </trkpt>
      <trkpt lat="48.8196" lon="5.16857">
        <ele>239</ele>
        <time>2023-01-30T14:17:35.000Z</time>
      </trkpt>
      <trkpt lat="48.8196" lon="5.16859">
        <ele>239</ele>
        <time>2023-01-30T14:17:36.000Z</time>
      </trkpt>
      <trkpt lat="48.8196" lon="5.16861">
        <ele>239</ele>
        <time>2023-01-30T14:17:37.000Z</time>
      </trkpt>
      <trkpt lat="48.8196" lon="5.16863">
        <ele>239</ele>
        <time>2023-01-30T14:17:38.000Z</time>
      </trkpt>
      <trkpt lat="48.81961" lon="5.16866">
        <ele>239</ele>
        <time>2023-01-30T14:17:39.000Z</time>
      </trkpt>
      <trkpt lat="48.81961" lon="5.16868">
        <ele>239</ele>
        <time>2023-01-30T14:17:40.000Z</time>
      </trkpt>
      <trkpt lat="48.81961" lon="5.1687">
        <ele>239</ele>
        <time>2023-01-30T14:17:41.000Z</time>
      </trkpt>
      <trkpt lat="48.81961" lon="5.16873">
        <ele>239</ele>
        <time>2023-01-30T14:17:42.000Z</time>
      </trkpt>
      <trkpt lat="48.81961" lon="5.16875">
        <ele>239.5</ele>
        <time>2023-01-30T14:17:43.000Z</time>
      </trkpt>
      <trkpt lat="48.81961" lon="5.16877">
        <ele>240</ele>
        <time>2023-01-30T14:17:44.000Z</time>
      </trkpt>
      <trkpt lat="48.81961" lon="5.1688">
        <ele>240</ele>
        <time>2023-01-30T14:17:45.000Z</time>
      </trkpt>
      <trkpt lat="48.81961" lon="5.16882">
        <ele>240</ele>
        <time>2023-01-30T14:17:46.000Z</time>
      </trkpt>
      <trkpt lat="48.81961" lon="5.16884">
        <ele>240</ele>
        <time>2023-01-30T14:17:47.000Z</time>
      </trkpt>
      <trkpt lat="48.81961" lon="5.16886">
        <ele>240</ele>
        <time>2023-01-30T14:17:48.000Z</time>
      </trkpt>
      <trkpt lat="48.81961" lon="5.16889">
        <ele>240</ele>
        <time>2023-01-30T14:17:49.000Z</time>
      </trkpt>
      <trkpt lat="48.81961" lon="5.16891">
        <ele>240</ele>
        <time>2023-01-30T14:17:50.000Z</time>
      </trkpt>
      <trkpt lat="48.81961" lon="5.16893">
        <ele>240</ele>
        <time>2023-01-30T14:17:51.000Z</time>
      </trkpt>
      <trkpt lat="48.81961" lon="5.16895">
        <ele>240</ele>
        <time>2023-01-30T14:17:52.000Z</time>
      </trkpt>
      <trkpt lat="48.81961" lon="5.16897">
        <ele>240</ele>
        <time>2023-01-30T14:17:53.000Z</time>
      </trkpt>
      <trkpt lat="48.8196" lon="5.16898">
        <ele>240</ele>
        <time>2023-01-30T14:17:54.000Z</time>
      </trkpt>
      <trkpt lat="48.8196" lon="5.169">
        <ele>240</ele>
        <time>2023-01-30T14:17:55.000Z</time>
      </trkpt>
      <trkpt lat="48.8196" lon="5.16902">
        <ele>240</ele>
        <time>2023-01-30T14:17:56.000Z</time>
      </trkpt>
      <trkpt lat="48.8196" lon="5.16903">
        <ele>240</ele>
        <time>2023-01-30T14:17:57.000Z</time>
      </trkpt>
      <trkpt lat="48.8196" lon="5.16904">
        <ele>240</ele>
        <time>2023-01-30T14:17:58.000Z</time>
      </trkpt>
      <trkpt lat="48.8196" lon="5.16905">
        <ele>240</ele>
        <time>2023-01-30T14:17:59.000Z</time>
      </trkpt>
      <trkpt lat="48.8196" lon="5.16906">
        <ele>240</ele>
        <time>2023-01-30T14:18:00.000Z</time>
      </trkpt>
      <trkpt lat="48.8196" lon="5.16907">
        <ele>239.7</ele>
        <time>2023-01-30T14:18:01.000Z</time>
      </trkpt>
      <trkpt lat="48.8196" lon="5.16907">
        <ele>239.3</ele>
        <time>2023-01-30T14:18:02.000Z</time>
      </trkpt>
      <trkpt lat="48.8196" lon="5.16907">
        <ele>239</ele>
        <time>2023-01-30T14:18:03.000Z</time>
      </trkpt>
      <trkpt lat="48.8196" lon="5.16907">
        <ele>239</ele>
        <time>2023-01-30T14:18:04.000Z</time>
      </trkpt>
      <trkpt lat="48.8196" lon="5.16907">
        <ele>239</ele>
        <time>2023-01-30T14:18:05.000Z</time>
      </trkpt>
      <trkpt lat="48.8196" lon="5.16908">
        <ele>239</ele>
        <time>2023-01-30T14:18:06.000Z</time>
      </trkpt>
      <trkpt lat="48.8196" lon="5.16908">
        <ele>239</ele>
        <time>2023-01-30T14:18:07.000Z</time>
      </trkpt>
      <trkpt lat="48.8196" lon="5.16908">
        <ele>239</ele>
        <time>2023-01-30T14:18:08.000Z</time>
      </trkpt>
      <trkpt lat="48.8196" lon="5.16908">
        <ele>239</ele>
        <time>2023-01-30T14:18:09.000Z</time>
      </trkpt>
      <trkpt lat="48.8196" lon="5.16908">
        <ele>239</ele>
        <time>2023-01-30T14:18:10.000Z</time>
      </trkpt>
      <trkpt lat="48.8196" lon="5.16908">
        <ele>239</ele>
        <time>2023-01-30T14:18:11.000Z</time>
      </trkpt>
      <trkpt lat="48.8196" lon="5.16908">
        <ele>239</ele>
        <time>2023-01-30T14:18:12.000Z</time>
      </trkpt>
      <trkpt lat="48.8196" lon="5.16908">
        <ele>239</ele>
        <time>2023-01-30T14:18:13.000Z</time>
      </trkpt>
      <trkpt lat="48.8196" lon="5.16908">
        <ele>239</ele>
        <time>2023-01-30T14:18:14.000Z</time>
      </trkpt>
      <trkpt lat="48.8196" lon="5.16908">
        <ele>239</ele>
        <time>2023-01-30T14:18:15.000Z</time>
      </trkpt>
      <trkpt lat="48.8196" lon="5.16908">
        <ele>239</ele>
        <time>2023-01-30T14:18:16.000Z</time>
      </trkpt>
      <trkpt lat="48.8196" lon="5.16908">
        <ele>239</ele>
        <time>2023-01-30T14:18:17.000Z</time>
      </trkpt>
      <trkpt lat="48.81961" lon="5.16908">
        <ele>239</ele>
        <time>2023-01-30T14:18:18.000Z</time>
      </trkpt>
      <trkpt lat="48.81961" lon="5.16909">
        <ele>239</ele>
        <time>2023-01-30T14:18:19.000Z</time>
      </trkpt>
      <trkpt lat="48.81961" lon="5.16909">
        <ele>239</ele>
        <time>2023-01-30T14:18:20.000Z</time>
      </trkpt>
      <trkpt lat="48.81962" lon="5.1691">
        <ele>239</ele>
        <time>2023-01-30T14:18:21.000Z</time>
      </trkpt>
      <trkpt lat="48.81962" lon="5.16911">
        <ele>239</ele>
        <time>2023-01-30T14:18:22.000Z</time>
      </trkpt>
      <trkpt lat="48.81963" lon="5.16912">
        <ele>239</ele>
        <time>2023-01-30T14:18:23.000Z</time>
      </trkpt>
      <trkpt lat="48.81963" lon="5.16913">
        <ele>239</ele>
        <time>2023-01-30T14:18:24.000Z</time>
      </trkpt>
      <trkpt lat="48.81963" lon="5.16914">
        <ele>239</ele>
        <time>2023-01-30T14:18:25.000Z</time>
      </trkpt>
      <trkpt lat="48.81963" lon="5.16914">
        <ele>239</ele>
        <time>2023-01-30T14:18:26.000Z</time>
      </trkpt>
      <trkpt lat="48.81963" lon="5.16915">
        <ele>239</ele>
        <time>2023-01-30T14:18:27.000Z</time>
      </trkpt>
      <trkpt lat="48.81963" lon="5.16915">
        <ele>239</ele>
        <time>2023-01-30T14:18:28.000Z</time>
      </trkpt>
      <trkpt lat="48.81963" lon="5.16915">
        <ele>239</ele>
        <time>2023-01-30T14:18:29.000Z</time>
      </trkpt>
      <trkpt lat="48.81963" lon="5.16915">
        <ele>239</ele>
        <time>2023-01-30T14:18:30.000Z</time>
      </trkpt>
      <trkpt lat="48.81963" lon="5.16916">
        <ele>239</ele>
        <time>2023-01-30T14:18:31.000Z</time>
      </trkpt>
      <trkpt lat="48.81963" lon="5.16916">
        <ele>239</ele>
        <time>2023-01-30T14:18:32.000Z</time>
      </trkpt>
      <trkpt lat="48.81963" lon="5.16916">
        <ele>239</ele>
        <time>2023-01-30T14:18:33.000Z</time>
      </trkpt>
      <trkpt lat="48.81963" lon="5.16916">
        <ele>239</ele>
        <time>2023-01-30T14:18:34.000Z</time>
      </trkpt>
      <trkpt lat="48.81963" lon="5.16916">
        <ele>239</ele>
        <time>2023-01-30T14:18:35.000Z</time>
      </trkpt>
      <trkpt lat="48.81963" lon="5.16916">
        <ele>239</ele>
        <time>2023-01-30T14:18:36.000Z</time>
      </trkpt>
      <trkpt lat="48.81963" lon="5.16916">
        <ele>239</ele>
        <time>2023-01-30T14:18:37.000Z</time>
      </trkpt>
      <trkpt lat="48.81963" lon="5.16916">
        <ele>239</ele>
        <time>2023-01-30T14:18:38.000Z</time>
      </trkpt>
      <trkpt lat="48.81963" lon="5.16916">
        <ele>239</ele>
        <time>2023-01-30T14:18:39.000Z</time>
      </trkpt>
      <trkpt lat="48.81963" lon="5.16916">
        <ele>239</ele>
        <time>2023-01-30T14:18:40.000Z</time>
      </trkpt>
      <trkpt lat="48.81963" lon="5.16916">
        <ele>239</ele>
        <time>2023-01-30T14:18:41.000Z</time>
      </trkpt>
      <trkpt lat="48.81963" lon="5.16916">
        <ele>239</ele>
        <time>2023-01-30T14:18:42.000Z</time>
      </trkpt>
      <trkpt lat="48.81963" lon="5.16916">
        <ele>239</ele>
        <time>2023-01-30T14:18:43.000Z</time>
      </trkpt>
      <trkpt lat="48.81963" lon="5.16916">
        <ele>239</ele>
        <time>2023-01-30T14:18:44.000Z</time>
      </trkpt>
      <trkpt lat="48.81963" lon="5.16916">
        <ele>239</ele>
        <time>2023-01-30T14:18:45.000Z</time>
      </trkpt>
      <trkpt lat="48.81963" lon="5.16916">
        <ele>239</ele>
        <time>2023-01-30T14:18:46.000Z</time>
      </trkpt>
      <trkpt lat="48.81963" lon="5.16916">
        <ele>239</ele>
        <time>2023-01-30T14:18:47.000Z</time>
      </trkpt>
      <trkpt lat="48.81963" lon="5.16916">
        <ele>239</ele>
        <time>2023-01-30T14:18:48.000Z</time>
      </trkpt>
      <trkpt lat="48.81963" lon="5.16916">
        <ele>239</ele>
        <time>2023-01-30T14:18:49.000Z</time>
      </trkpt>
      <trkpt lat="48.81963" lon="5.16916">
        <ele>239</ele>
        <time>2023-01-30T14:18:50.000Z</time>
      </trkpt>
      <trkpt lat="48.81963" lon="5.16916">
        <ele>239</ele>
        <time>2023-01-30T14:18:51.000Z</time>
      </trkpt>
      <trkpt lat="48.81962" lon="5.16916">
        <ele>239</ele>
        <time>2023-01-30T14:18:52.000Z</time>
      </trkpt>
      <trkpt lat="48.81962" lon="5.16917">
        <ele>239</ele>
        <time>2023-01-30T14:18:53.000Z</time>
      </trkpt>
      <trkpt lat="48.81962" lon="5.16918">
        <ele>239</ele>
        <time>2023-01-30T14:18:54.000Z</time>
      </trkpt>
      <trkpt lat="48.81961" lon="5.16918">
        <ele>239</ele>
        <time>2023-01-30T14:18:55.000Z</time>
      </trkpt>
      <trkpt lat="48.81961" lon="5.16918">
        <ele>239</ele>
        <time>2023-01-30T14:18:56.000Z</time>
      </trkpt>
      <trkpt lat="48.81961" lon="5.16919">
        <ele>239</ele>
        <time>2023-01-30T14:18:57.000Z</time>
      </trkpt>
      <trkpt lat="48.81961" lon="5.16919">
        <ele>239</ele>
        <time>2023-01-30T14:18:58.000Z</time>
      </trkpt>
      <trkpt lat="48.81961" lon="5.16919">
        <ele>239</ele>
        <time>2023-01-30T14:18:59.000Z</time>
      </trkpt>
      <trkpt lat="48.81961" lon="5.16919">
        <ele>239</ele>
        <time>2023-01-30T14:19:00.000Z</time>
      </trkpt>
      <trkpt lat="48.81961" lon="5.16919">
        <ele>239</ele>
        <time>2023-01-30T14:19:01.000Z</time>
      </trkpt>
      <trkpt lat="48.81961" lon="5.16919">
        <ele>239</ele>
        <time>2023-01-30T14:19:02.000Z</time>
      </trkpt>
      <trkpt lat="48.81961" lon="5.16919">
        <ele>239</ele>
        <time>2023-01-30T14:19:03.000Z</time>
      </trkpt>
      <trkpt lat="48.81961" lon="5.16919">
        <ele>239</ele>
        <time>2023-01-30T14:19:04.000Z</time>
      </trkpt>
      <trkpt lat="48.81961" lon="5.16919">
        <ele>239.3</ele>
        <time>2023-01-30T14:19:05.000Z</time>
      </trkpt>
      <trkpt lat="48.81961" lon="5.16919">
        <ele>239.7</ele>
        <time>2023-01-30T14:19:06.000Z</time>
      </trkpt>
      <trkpt lat="48.81961" lon="5.16919">
        <ele>240</ele>
        <time>2023-01-30T14:19:07.000Z</time>
      </trkpt>
      <trkpt lat="48.81961" lon="5.16919">
        <ele>240</ele>
        <time>2023-01-30T14:19:08.000Z</time>
      </trkpt>
      <trkpt lat="48.81961" lon="5.16919">
        <ele>240</ele>
        <time>2023-01-30T14:19:09.000Z</time>
      </trkpt>
      <trkpt lat="48.81961" lon="5.16919">
        <ele>240</ele>
        <time>2023-01-30T14:19:10.000Z</time>
      </trkpt>
      <trkpt lat="48.81961" lon="5.16919">
        <ele>240</ele>
        <time>2023-01-30T14:19:11.000Z</time>
      </trkpt>
      <trkpt lat="48.81961" lon="5.16919">
        <ele>240</ele>
        <time>2023-01-30T14:19:12.000Z</time>
      </trkpt>
      <trkpt lat="48.81961" lon="5.16919">
        <ele>240</ele>
        <time>2023-01-30T14:19:13.000Z</time>
      </trkpt>
      <trkpt lat="48.81961" lon="5.16919">
        <ele>240</ele>
        <time>2023-01-30T14:19:14.000Z</time>
      </trkpt>
      <trkpt lat="48.81961" lon="5.16919">
        <ele>240</ele>
        <time>2023-01-30T14:19:15.000Z</time>
      </trkpt>
      <trkpt lat="48.81961" lon="5.16919">
        <ele>240</ele>
        <time>2023-01-30T14:19:16.000Z</time>
      </trkpt>
      <trkpt lat="48.81961" lon="5.16919">
        <ele>240</ele>
        <time>2023-01-30T14:19:17.000Z</time>
      </trkpt>
      <trkpt lat="48.81961" lon="5.16919">
        <ele>240</ele>
        <time>2023-01-30T14:19:18.000Z</time>
      </trkpt>
      <trkpt lat="48.8196" lon="5.1692">
        <ele>240</ele>
        <time>2023-01-30T14:19:19.000Z</time>
      </trkpt>
      <trkpt lat="48.8196" lon="5.1692">
        <ele>240</ele>
        <time>2023-01-30T14:19:20.000Z</time>
      </trkpt>
      <trkpt lat="48.8196" lon="5.1692">
        <ele>240</ele>
        <time>2023-01-30T14:19:21.000Z</time>
      </trkpt>
      <trkpt lat="48.8196" lon="5.1692">
        <ele>240</ele>
        <time>2023-01-30T14:19:22.000Z</time>
      </trkpt>
      <trkpt lat="48.8196" lon="5.1692">
        <ele>240</ele>
        <time>2023-01-30T14:19:23.000Z</time>
      </trkpt>
      <trkpt lat="48.81959" lon="5.1692">
        <ele>240</ele>
        <time>2023-01-30T14:19:24.000Z</time>
      </trkpt>
      <trkpt lat="48.81959" lon="5.1692">
        <ele>240</ele>
        <time>2023-01-30T14:19:25.000Z</time>
      </trkpt>
      <trkpt lat="48.81959" lon="5.1692">
        <ele>240</ele>
        <time>2023-01-30T14:19:26.000Z</time>
      </trkpt>
      <trkpt lat="48.81959" lon="5.1692">
        <ele>240</ele>
        <time>2023-01-30T14:19:27.000Z</time>
      </trkpt>
      <trkpt lat="48.81959" lon="5.1692">
        <ele>240</ele>
        <time>2023-01-30T14:19:28.000Z</time>
      </trkpt>
      <trkpt lat="48.81959" lon="5.1692">
        <ele>240</ele>
        <time>2023-01-30T14:19:29.000Z</time>
      </trkpt>
      <trkpt lat="48.81959" lon="5.1692">
        <ele>240</ele>
        <time>2023-01-30T14:19:30.000Z</time>
      </trkpt>
      <trkpt lat="48.81959" lon="5.1692">
        <ele>240</ele>
        <time>2023-01-30T14:19:31.000Z</time>
      </trkpt>
      <trkpt lat="48.81959" lon="5.1692">
        <ele>240</ele>
        <time>2023-01-30T14:19:32.000Z</time>
      </trkpt>
      <trkpt lat="48.81959" lon="5.1692">
        <ele>240</ele>
        <time>2023-01-30T14:19:33.000Z</time>
      </trkpt>
      <trkpt lat="48.81959" lon="5.1692">
        <ele>240</ele>
        <time>2023-01-30T14:19:34.000Z</time>
      </trkpt>
      <trkpt lat="48.81959" lon="5.1692">
        <ele>240</ele>
        <time>2023-01-30T14:19:35.000Z</time>
      </trkpt>
      <trkpt lat="48.81959" lon="5.16921">
        <ele>240</ele>
        <time>2023-01-30T14:19:36.000Z</time>
      </trkpt>
      <trkpt lat="48.81958" lon="5.16921">
        <ele>240</ele>
        <time>2023-01-30T14:19:37.000Z</time>
      </trkpt>
      <trkpt lat="48.81958" lon="5.16921">
        <ele>240</ele>
        <time>2023-01-30T14:19:38.000Z</time>
      </trkpt>
      <trkpt lat="48.81957" lon="5.16921">
        <ele>240</ele>
        <time>2023-01-30T14:19:39.000Z</time>
      </trkpt>
      <trkpt lat="48.81956" lon="5.16921">
        <ele>240</ele>
        <time>2023-01-30T14:19:40.000Z</time>
      </trkpt>
      <trkpt lat="48.81955" lon="5.16921">
        <ele>240</ele>
        <time>2023-01-30T14:19:41.000Z</time>
      </trkpt>
      <trkpt lat="48.81954" lon="5.16921">
        <ele>240</ele>
        <time>2023-01-30T14:19:42.000Z</time>
      </trkpt>
      <trkpt lat="48.81953" lon="5.16922">
        <ele>240</ele>
        <time>2023-01-30T14:19:43.000Z</time>
      </trkpt>
      <trkpt lat="48.81952" lon="5.16922">
        <ele>240</ele>
        <time>2023-01-30T14:19:44.000Z</time>
      </trkpt>
      <trkpt lat="48.8195" lon="5.16922">
        <ele>240</ele>
        <time>2023-01-30T14:19:45.000Z</time>
      </trkpt>
      <trkpt lat="48.81949" lon="5.16922">
        <ele>240</ele>
        <time>2023-01-30T14:19:46.000Z</time>
      </trkpt>
      <trkpt lat="48.81948" lon="5.16922">
        <ele>240</ele>
        <time>2023-01-30T14:19:47.000Z</time>
      </trkpt>
      <trkpt lat="48.81947" lon="5.16923">
        <ele>240</ele>
        <time>2023-01-30T14:19:48.000Z</time>
      </trkpt>
      <trkpt lat="48.81946" lon="5.16923">
        <ele>240</ele>
        <time>2023-01-30T14:19:49.000Z</time>
      </trkpt>
      <trkpt lat="48.81945" lon="5.16924">
        <ele>240</ele>
        <time>2023-01-30T14:19:50.000Z</time>
      </trkpt>
      <trkpt lat="48.81944" lon="5.16924">
        <ele>240</ele>
        <time>2023-01-30T14:19:51.000Z</time>
      </trkpt>
      <trkpt lat="48.81943" lon="5.16925">
        <ele>241</ele>
        <time>2023-01-30T14:19:52.000Z</time>
      </trkpt>
      <trkpt lat="48.81942" lon="5.16925">
        <ele>241</ele>
        <time>2023-01-30T14:19:53.000Z</time>
      </trkpt>
      <trkpt lat="48.81941" lon="5.16925">
        <ele>241</ele>
        <time>2023-01-30T14:19:54.000Z</time>
      </trkpt>
      <trkpt lat="48.8194" lon="5.16925">
        <ele>241</ele>
        <time>2023-01-30T14:19:55.000Z</time>
      </trkpt>
      <trkpt lat="48.8194" lon="5.16925">
        <ele>241</ele>
        <time>2023-01-30T14:19:56.000Z</time>
      </trkpt>
      <trkpt lat="48.81939" lon="5.16925">
        <ele>241</ele>
        <time>2023-01-30T14:19:57.000Z</time>
      </trkpt>
      <trkpt lat="48.81938" lon="5.16925">
        <ele>241</ele>
        <time>2023-01-30T14:19:58.000Z</time>
      </trkpt>
      <trkpt lat="48.81937" lon="5.16926">
        <ele>241</ele>
        <time>2023-01-30T14:19:59.000Z</time>
      </trkpt>
      <trkpt lat="48.81936" lon="5.16926">
        <ele>241</ele>
        <time>2023-01-30T14:20:00.000Z</time>
      </trkpt>
      <trkpt lat="48.81935" lon="5.16927">
        <ele>241</ele>
        <time>2023-01-30T14:20:01.000Z</time>
      </trkpt>
      <trkpt lat="48.81934" lon="5.16928">
        <ele>242</ele>
        <time>2023-01-30T14:20:02.000Z</time>
      </trkpt>
      <trkpt lat="48.81933" lon="5.16929">
        <ele>242</ele>
        <time>2023-01-30T14:20:03.000Z</time>
      </trkpt>
      <trkpt lat="48.81932" lon="5.16931">
        <ele>242</ele>
        <time>2023-01-30T14:20:04.000Z</time>
      </trkpt>
      <trkpt lat="48.81931" lon="5.16932">
        <ele>242</ele>
        <time>2023-01-30T14:20:05.000Z</time>
      </trkpt>
      <trkpt lat="48.81931" lon="5.16933">
        <ele>242</ele>
        <time>2023-01-30T14:20:06.000Z</time>
      </trkpt>
      <trkpt lat="48.8193" lon="5.16934">
        <ele>242</ele>
        <time>2023-01-30T14:20:07.000Z</time>
      </trkpt>
      <trkpt lat="48.81929" lon="5.16936">
        <ele>242</ele>
        <time>2023-01-30T14:20:08.000Z</time>
      </trkpt>
      <trkpt lat="48.81928" lon="5.16938">
        <ele>242</ele>
        <time>2023-01-30T14:20:09.000Z</time>
      </trkpt>
      <trkpt lat="48.81928" lon="5.16939">
        <ele>242</ele>
        <time>2023-01-30T14:20:10.000Z</time>
      </trkpt>
      <trkpt lat="48.81928" lon="5.16941">
        <ele>242</ele>
        <time>2023-01-30T14:20:11.000Z</time>
      </trkpt>
      <trkpt lat="48.81928" lon="5.16942">
        <ele>242</ele>
        <time>2023-01-30T14:20:12.000Z</time>
      </trkpt>
      <trkpt lat="48.81927" lon="5.16944">
        <ele>242</ele>
        <time>2023-01-30T14:20:13.000Z</time>
      </trkpt>
      <trkpt lat="48.81927" lon="5.16947">
        <ele>242</ele>
        <time>2023-01-30T14:20:14.000Z</time>
      </trkpt>
      <trkpt lat="48.81927" lon="5.1695">
        <ele>242</ele>
        <time>2023-01-30T14:20:15.000Z</time>
      </trkpt>
      <trkpt lat="48.81927" lon="5.16952">
        <ele>242</ele>
        <time>2023-01-30T14:20:16.000Z</time>
      </trkpt>
      <trkpt lat="48.81926" lon="5.16955">
        <ele>242</ele>
        <time>2023-01-30T14:20:17.000Z</time>
      </trkpt>
      <trkpt lat="48.81926" lon="5.16957">
        <ele>242</ele>
        <time>2023-01-30T14:20:18.000Z</time>
      </trkpt>
      <trkpt lat="48.81926" lon="5.16959">
        <ele>242</ele>
        <time>2023-01-30T14:20:19.000Z</time>
      </trkpt>
      <trkpt lat="48.81926" lon="5.16961">
        <ele>242</ele>
        <time>2023-01-30T14:20:20.000Z</time>
      </trkpt>
      <trkpt lat="48.81926" lon="5.16963">
        <ele>242</ele>
        <time>2023-01-30T14:20:21.000Z</time>
      </trkpt>
      <trkpt lat="48.81925" lon="5.16964">
        <ele>242</ele>
        <time>2023-01-30T14:20:22.000Z</time>
      </trkpt>
      <trkpt lat="48.81925" lon="5.16966">
        <ele>242</ele>
        <time>2023-01-30T14:20:23.000Z</time>
      </trkpt>
      <trkpt lat="48.81925" lon="5.16968">
        <ele>242</ele>
        <time>2023-01-30T14:20:24.000Z</time>
      </trkpt>
      <trkpt lat="48.81926" lon="5.16971">
        <ele>242</ele>
        <time>2023-01-30T14:20:25.000Z</time>
      </trkpt>
      <trkpt lat="48.81926" lon="5.16974">
        <ele>242</ele>
        <time>2023-01-30T14:20:26.000Z</time>
      </trkpt>
      <trkpt lat="48.81926" lon="5.16976">
        <ele>242</ele>
        <time>2023-01-30T14:20:27.000Z</time>
      </trkpt>
      <trkpt lat="48.81926" lon="5.16978">
        <ele>242</ele>
        <time>2023-01-30T14:20:28.000Z</time>
      </trkpt>
      <trkpt lat="48.81926" lon="5.16979">
        <ele>242</ele>
        <time>2023-01-30T14:20:29.000Z</time>
      </trkpt>
      <trkpt lat="48.81927" lon="5.1698">
        <ele>242</ele>
        <time>2023-01-30T14:20:30.000Z</time>
      </trkpt>
      <trkpt lat="48.81927" lon="5.16981">
        <ele>242</ele>
        <time>2023-01-30T14:20:31.000Z</time>
      </trkpt>
      <trkpt lat="48.81927" lon="5.16984">
        <ele>241</ele>
        <time>2023-01-30T14:20:32.000Z</time>
      </trkpt>
      <trkpt lat="48.81928" lon="5.16987">
        <ele>241</ele>
        <time>2023-01-30T14:20:33.000Z</time>
      </trkpt>
      <trkpt lat="48.81928" lon="5.1699">
        <ele>241</ele>
        <time>2023-01-30T14:20:34.000Z</time>
      </trkpt>
      <trkpt lat="48.81929" lon="5.16992">
        <ele>241</ele>
        <time>2023-01-30T14:20:35.000Z</time>
      </trkpt>
      <trkpt lat="48.81929" lon="5.16995">
        <ele>241</ele>
        <time>2023-01-30T14:20:36.000Z</time>
      </trkpt>
      <trkpt lat="48.81929" lon="5.16997">
        <ele>241</ele>
        <time>2023-01-30T14:20:37.000Z</time>
      </trkpt>
      <trkpt lat="48.8193" lon="5.17">
        <ele>241</ele>
        <time>2023-01-30T14:20:38.000Z</time>
      </trkpt>
      <trkpt lat="48.8193" lon="5.17003">
        <ele>241</ele>
        <time>2023-01-30T14:20:39.000Z</time>
      </trkpt>
      <trkpt lat="48.8193" lon="5.17005">
        <ele>241</ele>
        <time>2023-01-30T14:20:40.000Z</time>
      </trkpt>
      <trkpt lat="48.8193" lon="5.17007">
        <ele>241</ele>
        <time>2023-01-30T14:20:41.000Z</time>
      </trkpt>
      <trkpt lat="48.8193" lon="5.1701">
        <ele>241</ele>
        <time>2023-01-30T14:20:42.000Z</time>
      </trkpt>
      <trkpt lat="48.8193" lon="5.17012">
        <ele>240.7</ele>
        <time>2023-01-30T14:20:43.000Z</time>
      </trkpt>
      <trkpt lat="48.8193" lon="5.17015">
        <ele>240.3</ele>
        <time>2023-01-30T14:20:44.000Z</time>
      </trkpt>
      <trkpt lat="48.8193" lon="5.17017">
        <ele>240</ele>
        <time>2023-01-30T14:20:45.000Z</time>
      </trkpt>
      <trkpt lat="48.8193" lon="5.1702">
        <ele>240</ele>
        <time>2023-01-30T14:20:46.000Z</time>
      </trkpt>
      <trkpt lat="48.8193" lon="5.17023">
        <ele>240</ele>
        <time>2023-01-30T14:20:47.000Z</time>
      </trkpt>
      <trkpt lat="48.8193" lon="5.17026">
        <ele>240</ele>
        <time>2023-01-30T14:20:48.000Z</time>
      </trkpt>
      <trkpt lat="48.8193" lon="5.17029">
        <ele>240</ele>
        <time>2023-01-30T14:20:49.000Z</time>
      </trkpt>
      <trkpt lat="48.8193" lon="5.17031">
        <ele>240</ele>
        <time>2023-01-30T14:20:50.000Z</time>
      </trkpt>
      <trkpt lat="48.8193" lon="5.17033">
        <ele>240</ele>
        <time>2023-01-30T14:20:51.000Z</time>
      </trkpt>
      <trkpt lat="48.81931" lon="5.17035">
        <ele>240</ele>
        <time>2023-01-30T14:20:52.000Z</time>
      </trkpt>
      <trkpt lat="48.81932" lon="5.17036">
        <ele>240</ele>
        <time>2023-01-30T14:20:53.000Z</time>
      </trkpt>
      <trkpt lat="48.81932" lon="5.17037">
        <ele>240</ele>
        <time>2023-01-30T14:20:54.000Z</time>
      </trkpt>
      <trkpt lat="48.81933" lon="5.17039">
        <ele>239.7</ele>
        <time>2023-01-30T14:20:55.000Z</time>
      </trkpt>
      <trkpt lat="48.81934" lon="5.1704">
        <ele>239.3</ele>
        <time>2023-01-30T14:20:56.000Z</time>
      </trkpt>
      <trkpt lat="48.81935" lon="5.17042">
        <ele>239</ele>
        <time>2023-01-30T14:20:57.000Z</time>
      </trkpt>
      <trkpt lat="48.81935" lon="5.17044">
        <ele>239</ele>
        <time>2023-01-30T14:20:58.000Z</time>
      </trkpt>
      <trkpt lat="48.81936" lon="5.17046">
        <ele>239</ele>
        <time>2023-01-30T14:20:59.000Z</time>
      </trkpt>
      <trkpt lat="48.81936" lon="5.17048">
        <ele>239</ele>
        <time>2023-01-30T14:21:00.000Z</time>
      </trkpt>
      <trkpt lat="48.81937" lon="5.17051">
        <ele>239</ele>
        <time>2023-01-30T14:21:01.000Z</time>
      </trkpt>
      <trkpt lat="48.81937" lon="5.17053">
        <ele>239</ele>
        <time>2023-01-30T14:21:02.000Z</time>
      </trkpt>
      <trkpt lat="48.81937" lon="5.17054">
        <ele>239</ele>
        <time>2023-01-30T14:21:03.000Z</time>
      </trkpt>
      <trkpt lat="48.81937" lon="5.17056">
        <ele>239</ele>
        <time>2023-01-30T14:21:04.000Z</time>
      </trkpt>
      <trkpt lat="48.81937" lon="5.17057">
        <ele>239</ele>
        <time>2023-01-30T14:21:05.000Z</time>
      </trkpt>
      <trkpt lat="48.81937" lon="5.17058">
        <ele>239</ele>
        <time>2023-01-30T14:21:06.000Z</time>
      </trkpt>
      <trkpt lat="48.81938" lon="5.1706">
        <ele>239</ele>
        <time>2023-01-30T14:21:07.000Z</time>
      </trkpt>
      <trkpt lat="48.81939" lon="5.17063">
        <ele>239</ele>
        <time>2023-01-30T14:21:08.000Z</time>
      </trkpt>
      <trkpt lat="48.8194" lon="5.17066">
        <ele>239</ele>
        <time>2023-01-30T14:21:09.000Z</time>
      </trkpt>
      <trkpt lat="48.81941" lon="5.17068">
        <ele>239</ele>
        <time>2023-01-30T14:21:10.000Z</time>
      </trkpt>
      <trkpt lat="48.81941" lon="5.17069">
        <ele>239</ele>
        <time>2023-01-30T14:21:11.000Z</time>
      </trkpt>
      <trkpt lat="48.81942" lon="5.17071">
        <ele>239</ele>
        <time>2023-01-30T14:21:12.000Z</time>
      </trkpt>
      <trkpt lat="48.81942" lon="5.17074">
        <ele>239</ele>
        <time>2023-01-30T14:21:13.000Z</time>
      </trkpt>
      <trkpt lat="48.81943" lon="5.17076">
        <ele>239</ele>
        <time>2023-01-30T14:21:14.000Z</time>
      </trkpt>
      <trkpt lat="48.81944" lon="5.17079">
        <ele>239</ele>
        <time>2023-01-30T14:21:15.000Z</time>
      </trkpt>
      <trkpt lat="48.81944" lon="5.17081">
        <ele>239</ele>
        <time>2023-01-30T14:21:16.000Z</time>
      </trkpt>
      <trkpt lat="48.81944" lon="5.17083">
        <ele>239</ele>
        <time>2023-01-30T14:21:17.000Z</time>
      </trkpt>
      <trkpt lat="48.81944" lon="5.17085">
        <ele>239</ele>
        <time>2023-01-30T14:21:18.000Z</time>
      </trkpt>
      <trkpt lat="48.81944" lon="5.17087">
        <ele>239</ele>
        <time>2023-01-30T14:21:19.000Z</time>
      </trkpt>
      <trkpt lat="48.81945" lon="5.1709">
        <ele>239</ele>
        <time>2023-01-30T14:21:20.000Z</time>
      </trkpt>
      <trkpt lat="48.81945" lon="5.17092">
        <ele>239</ele>
        <time>2023-01-30T14:21:21.000Z</time>
      </trkpt>
      <trkpt lat="48.81945" lon="5.17094">
        <ele>239</ele>
        <time>2023-01-30T14:21:22.000Z</time>
      </trkpt>
      <trkpt lat="48.81945" lon="5.17097">
        <ele>239</ele>
        <time>2023-01-30T14:21:23.000Z</time>
      </trkpt>
      <trkpt lat="48.81944" lon="5.17099">
        <ele>239</ele>
        <time>2023-01-30T14:21:24.000Z</time>
      </trkpt>
      <trkpt lat="48.81943" lon="5.17101">
        <ele>239</ele>
        <time>2023-01-30T14:21:25.000Z</time>
      </trkpt>
      <trkpt lat="48.81943" lon="5.17102">
        <ele>239</ele>
        <time>2023-01-30T14:21:26.000Z</time>
      </trkpt>
      <trkpt lat="48.81942" lon="5.17104">
        <ele>239</ele>
        <time>2023-01-30T14:21:27.000Z</time>
      </trkpt>
      <trkpt lat="48.81941" lon="5.17106">
        <ele>239</ele>
        <time>2023-01-30T14:21:28.000Z</time>
      </trkpt>
      <trkpt lat="48.81941" lon="5.17107">
        <ele>239.3</ele>
        <time>2023-01-30T14:21:29.000Z</time>
      </trkpt>
      <trkpt lat="48.8194" lon="5.17108">
        <ele>239.7</ele>
        <time>2023-01-30T14:21:30.000Z</time>
      </trkpt>
      <trkpt lat="48.81939" lon="5.17109">
        <ele>240</ele>
        <time>2023-01-30T14:21:31.000Z</time>
      </trkpt>
      <trkpt lat="48.81939" lon="5.1711">
        <ele>239</ele>
        <time>2023-01-30T14:21:32.000Z</time>
      </trkpt>
      <trkpt lat="48.81938" lon="5.17111">
        <ele>239.3</ele>
        <time>2023-01-30T14:21:33.000Z</time>
      </trkpt>
      <trkpt lat="48.81937" lon="5.17112">
        <ele>239.7</ele>
        <time>2023-01-30T14:21:34.000Z</time>
      </trkpt>
      <trkpt lat="48.81937" lon="5.17113">
        <ele>240</ele>
        <time>2023-01-30T14:21:35.000Z</time>
      </trkpt>
      <trkpt lat="48.81936" lon="5.17115">
        <ele>240</ele>
        <time>2023-01-30T14:21:36.000Z</time>
      </trkpt>
      <trkpt lat="48.81935" lon="5.17116">
        <ele>240</ele>
        <time>2023-01-30T14:21:37.000Z</time>
      </trkpt>
      <trkpt lat="48.81934" lon="5.17118">
        <ele>240</ele>
        <time>2023-01-30T14:21:38.000Z</time>
      </trkpt>
      <trkpt lat="48.81933" lon="5.17119">
        <ele>240</ele>
        <time>2023-01-30T14:21:39.000Z</time>
      </trkpt>
      <trkpt lat="48.81932" lon="5.17121">
        <ele>240</ele>
        <time>2023-01-30T14:21:40.000Z</time>
      </trkpt>
      <trkpt lat="48.81932" lon="5.17123">
        <ele>240.3</ele>
        <time>2023-01-30T14:21:41.000Z</time>
      </trkpt>
      <trkpt lat="48.81931" lon="5.17124">
        <ele>240.7</ele>
        <time>2023-01-30T14:21:42.000Z</time>
      </trkpt>
      <trkpt lat="48.8193" lon="5.17126">
        <ele>241</ele>
        <time>2023-01-30T14:21:43.000Z</time>
      </trkpt>
      <trkpt lat="48.81929" lon="5.17127">
        <ele>241</ele>
        <time>2023-01-30T14:21:44.000Z</time>
      </trkpt>
      <trkpt lat="48.81929" lon="5.17128">
        <ele>241</ele>
        <time>2023-01-30T14:21:45.000Z</time>
      </trkpt>
      <trkpt lat="48.81928" lon="5.17129">
        <ele>241</ele>
        <time>2023-01-30T14:21:46.000Z</time>
      </trkpt>
      <trkpt lat="48.81927" lon="5.17131">
        <ele>241</ele>
        <time>2023-01-30T14:21:47.000Z</time>
      </trkpt>
      <trkpt lat="48.81926" lon="5.17132">
        <ele>241</ele>
        <time>2023-01-30T14:21:48.000Z</time>
      </trkpt>
      <trkpt lat="48.81924" lon="5.17134">
        <ele>241</ele>
        <time>2023-01-30T14:21:49.000Z</time>
      </trkpt>
      <trkpt lat="48.81923" lon="5.17135">
        <ele>241</ele>
        <time>2023-01-30T14:21:50.000Z</time>
      </trkpt>
      <trkpt lat="48.81921" lon="5.17137">
        <ele>241.3</ele>
        <time>2023-01-30T14:21:51.000Z</time>
      </trkpt>
      <trkpt lat="48.8192" lon="5.17138">
        <ele>241.7</ele>
        <time>2023-01-30T14:21:52.000Z</time>
      </trkpt>
      <trkpt lat="48.81919" lon="5.17139">
        <ele>242</ele>
        <time>2023-01-30T14:21:53.000Z</time>
      </trkpt>
      <trkpt lat="48.81918" lon="5.17141">
        <ele>242</ele>
        <time>2023-01-30T14:21:54.000Z</time>
      </trkpt>
      <trkpt lat="48.81917" lon="5.17142">
        <ele>242</ele>
        <time>2023-01-30T14:21:55.000Z</time>
      </trkpt>
      <trkpt lat="48.81916" lon="5.17143">
        <ele>242</ele>
        <time>2023-01-30T14:21:56.000Z</time>
      </trkpt>
      <trkpt lat="48.81915" lon="5.17144">
        <ele>242</ele>
        <time>2023-01-30T14:21:57.000Z</time>
      </trkpt>
      <trkpt lat="48.81914" lon="5.17145">
        <ele>242</ele>
        <time>2023-01-30T14:21:58.000Z</time>
      </trkpt>
      <trkpt lat="48.81913" lon="5.17146">
        <ele>242</ele>
        <time>2023-01-30T14:21:59.000Z</time>
      </trkpt>
      <trkpt lat="48.81912" lon="5.17148">
        <ele>242</ele>
        <time>2023-01-30T14:22:00.000Z</time>
      </trkpt>
      <trkpt lat="48.81911" lon="5.17149">
        <ele>242</ele>
        <time>2023-01-30T14:22:01.000Z</time>
      </trkpt>
      <trkpt lat="48.8191" lon="5.17151">
        <ele>242</ele>
        <time>2023-01-30T14:22:02.000Z</time>
      </trkpt>
      <trkpt lat="48.81909" lon="5.17152">
        <ele>242</ele>
        <time>2023-01-30T14:22:03.000Z</time>
      </trkpt>
      <trkpt lat="48.81908" lon="5.17153">
        <ele>242</ele>
        <time>2023-01-30T14:22:04.000Z</time>
      </trkpt>
      <trkpt lat="48.81906" lon="5.17154">
        <ele>242</ele>
        <time>2023-01-30T14:22:05.000Z</time>
      </trkpt>
      <trkpt lat="48.81905" lon="5.17156">
        <ele>242</ele>
        <time>2023-01-30T14:22:06.000Z</time>
      </trkpt>
      <trkpt lat="48.81904" lon="5.17157">
        <ele>242.3</ele>
        <time>2023-01-30T14:22:07.000Z</time>
      </trkpt>
      <trkpt lat="48.81903" lon="5.17158">
        <ele>242.7</ele>
        <time>2023-01-30T14:22:08.000Z</time>
      </trkpt>
      <trkpt lat="48.81901" lon="5.1716">
        <ele>243</ele>
        <time>2023-01-30T14:22:09.000Z</time>
      </trkpt>
      <trkpt lat="48.81899" lon="5.17162">
        <ele>243</ele>
        <time>2023-01-30T14:22:10.000Z</time>
      </trkpt>
      <trkpt lat="48.81897" lon="5.17164">
        <ele>243</ele>
        <time>2023-01-30T14:22:11.000Z</time>
      </trkpt>
      <trkpt lat="48.81896" lon="5.17165">
        <ele>243</ele>
        <time>2023-01-30T14:22:12.000Z</time>
      </trkpt>
      <trkpt lat="48.81895" lon="5.17166">
        <ele>243</ele>
        <time>2023-01-30T14:22:13.000Z</time>
      </trkpt>
      <trkpt lat="48.81894" lon="5.17168">
        <ele>243</ele>
        <time>2023-01-30T14:22:14.000Z</time>
      </trkpt>
      <trkpt lat="48.81892" lon="5.1717">
        <ele>243</ele>
        <time>2023-01-30T14:22:15.000Z</time>
      </trkpt>
      <trkpt lat="48.81891" lon="5.17172">
        <ele>243</ele>
        <time>2023-01-30T14:22:16.000Z</time>
      </trkpt>
      <trkpt lat="48.8189" lon="5.17173">
        <ele>243</ele>
        <time>2023-01-30T14:22:17.000Z</time>
      </trkpt>
      <trkpt lat="48.81889" lon="5.17174">
        <ele>244</ele>
        <time>2023-01-30T14:22:18.000Z</time>
      </trkpt>
      <trkpt lat="48.81888" lon="5.17175">
        <ele>244</ele>
        <time>2023-01-30T14:22:19.000Z</time>
      </trkpt>
      <trkpt lat="48.81887" lon="5.17176">
        <ele>244</ele>
        <time>2023-01-30T14:22:20.000Z</time>
      </trkpt>
      <trkpt lat="48.81886" lon="5.17178">
        <ele>244</ele>
        <time>2023-01-30T14:22:21.000Z</time>
      </trkpt>
      <trkpt lat="48.81885" lon="5.17179">
        <ele>244</ele>
        <time>2023-01-30T14:22:22.000Z</time>
      </trkpt>
      <trkpt lat="48.81884" lon="5.1718">
        <ele>244</ele>
        <time>2023-01-30T14:22:23.000Z</time>
      </trkpt>
      <trkpt lat="48.81883" lon="5.17182">
        <ele>244</ele>
        <time>2023-01-30T14:22:24.000Z</time>
      </trkpt>
      <trkpt lat="48.81882" lon="5.17183">
        <ele>244</ele>
        <time>2023-01-30T14:22:25.000Z</time>
      </trkpt>
      <trkpt lat="48.81881" lon="5.17184">
        <ele>244</ele>
        <time>2023-01-30T14:22:26.000Z</time>
      </trkpt>
      <trkpt lat="48.8188" lon="5.17185">
        <ele>244</ele>
        <time>2023-01-30T14:22:27.000Z</time>
      </trkpt>
      <trkpt lat="48.81879" lon="5.17186">
        <ele>244</ele>
        <time>2023-01-30T14:22:28.000Z</time>
      </trkpt>
      <trkpt lat="48.81878" lon="5.17187">
        <ele>244</ele>
        <time>2023-01-30T14:22:29.000Z</time>
      </trkpt>
      <trkpt lat="48.81877" lon="5.17189">
        <ele>244.5</ele>
        <time>2023-01-30T14:22:30.000Z</time>
      </trkpt>
      <trkpt lat="48.81877" lon="5.17191">
        <ele>245</ele>
        <time>2023-01-30T14:22:31.000Z</time>
      </trkpt>
      <trkpt lat="48.81876" lon="5.17192">
        <ele>245</ele>
        <time>2023-01-30T14:22:32.000Z</time>
      </trkpt>
      <trkpt lat="48.81876" lon="5.17195">
        <ele>245</ele>
        <time>2023-01-30T14:22:33.000Z</time>
      </trkpt>
      <trkpt lat="48.81876" lon="5.17197">
        <ele>245</ele>
        <time>2023-01-30T14:22:34.000Z</time>
      </trkpt>
      <trkpt lat="48.81877" lon="5.17199">
        <ele>245</ele>
        <time>2023-01-30T14:22:35.000Z</time>
      </trkpt>
      <trkpt lat="48.81877" lon="5.17202">
        <ele>245</ele>
        <time>2023-01-30T14:22:36.000Z</time>
      </trkpt>
      <trkpt lat="48.81877" lon="5.17204">
        <ele>245</ele>
        <time>2023-01-30T14:22:37.000Z</time>
      </trkpt>
      <trkpt lat="48.81878" lon="5.17206">
        <ele>245</ele>
        <time>2023-01-30T14:22:38.000Z</time>
      </trkpt>
      <trkpt lat="48.81878" lon="5.17208">
        <ele>245</ele>
        <time>2023-01-30T14:22:39.000Z</time>
      </trkpt>
      <trkpt lat="48.81879" lon="5.17209">
        <ele>245</ele>
        <time>2023-01-30T14:22:40.000Z</time>
      </trkpt>
      <trkpt lat="48.81879" lon="5.17211">
        <ele>245</ele>
        <time>2023-01-30T14:22:41.000Z</time>
      </trkpt>
      <trkpt lat="48.81879" lon="5.17213">
        <ele>245</ele>
        <time>2023-01-30T14:22:42.000Z</time>
      </trkpt>
      <trkpt lat="48.81879" lon="5.17215">
        <ele>245</ele>
        <time>2023-01-30T14:22:43.000Z</time>
      </trkpt>
      <trkpt lat="48.81879" lon="5.17217">
        <ele>245</ele>
        <time>2023-01-30T14:22:44.000Z</time>
      </trkpt>
      <trkpt lat="48.81879" lon="5.17219">
        <ele>245</ele>
        <time>2023-01-30T14:22:45.000Z</time>
      </trkpt>
      <trkpt lat="48.8188" lon="5.17222">
        <ele>245</ele>
        <time>2023-01-30T14:22:46.000Z</time>
      </trkpt>
      <trkpt lat="48.8188" lon="5.17224">
        <ele>245</ele>
        <time>2023-01-30T14:22:47.000Z</time>
      </trkpt>
      <trkpt lat="48.8188" lon="5.17226">
        <ele>245</ele>
        <time>2023-01-30T14:22:48.000Z</time>
      </trkpt>
      <trkpt lat="48.8188" lon="5.17227">
        <ele>245</ele>
        <time>2023-01-30T14:22:49.000Z</time>
      </trkpt>
      <trkpt lat="48.8188" lon="5.17229">
        <ele>245</ele>
        <time>2023-01-30T14:22:50.000Z</time>
      </trkpt>
      <trkpt lat="48.8188" lon="5.17231">
        <ele>245</ele>
        <time>2023-01-30T14:22:51.000Z</time>
      </trkpt>
      <trkpt lat="48.8188" lon="5.17233">
        <ele>245</ele>
        <time>2023-01-30T14:22:52.000Z</time>
      </trkpt>
      <trkpt lat="48.81881" lon="5.17234">
        <ele>245</ele>
        <time>2023-01-30T14:22:53.000Z</time>
      </trkpt>
      <trkpt lat="48.81881" lon="5.17236">
        <ele>245</ele>
        <time>2023-01-30T14:22:54.000Z</time>
      </trkpt>
      <trkpt lat="48.81881" lon="5.17238">
        <ele>245</ele>
        <time>2023-01-30T14:22:55.000Z</time>
      </trkpt>
      <trkpt lat="48.81881" lon="5.1724">
        <ele>245</ele>
        <time>2023-01-30T14:22:56.000Z</time>
      </trkpt>
      <trkpt lat="48.81881" lon="5.17241">
        <ele>245</ele>
        <time>2023-01-30T14:22:57.000Z</time>
      </trkpt>
      <trkpt lat="48.81881" lon="5.17243">
        <ele>245</ele>
        <time>2023-01-30T14:22:58.000Z</time>
      </trkpt>
      <trkpt lat="48.81881" lon="5.17244">
        <ele>245</ele>
        <time>2023-01-30T14:22:59.000Z</time>
      </trkpt>
      <trkpt lat="48.81881" lon="5.17246">
        <ele>245</ele>
        <time>2023-01-30T14:23:00.000Z</time>
      </trkpt>
      <trkpt lat="48.81881" lon="5.17248">
        <ele>245</ele>
        <time>2023-01-30T14:23:01.000Z</time>
      </trkpt>
      <trkpt lat="48.81881" lon="5.1725">
        <ele>245</ele>
        <time>2023-01-30T14:23:02.000Z</time>
      </trkpt>
      <trkpt lat="48.81881" lon="5.17252">
        <ele>245.3</ele>
        <time>2023-01-30T14:23:03.000Z</time>
      </trkpt>
      <trkpt lat="48.81881" lon="5.17254">
        <ele>245.7</ele>
        <time>2023-01-30T14:23:04.000Z</time>
      </trkpt>
      <trkpt lat="48.81881" lon="5.17256">
        <ele>246</ele>
        <time>2023-01-30T14:23:05.000Z</time>
      </trkpt>
      <trkpt lat="48.81881" lon="5.17258">
        <ele>245</ele>
        <time>2023-01-30T14:23:06.000Z</time>
      </trkpt>
      <trkpt lat="48.81881" lon="5.1726">
        <ele>245</ele>
        <time>2023-01-30T14:23:07.000Z</time>
      </trkpt>
      <trkpt lat="48.81881" lon="5.17262">
        <ele>245</ele>
        <time>2023-01-30T14:23:08.000Z</time>
      </trkpt>
      <trkpt lat="48.81882" lon="5.17264">
        <ele>245</ele>
        <time>2023-01-30T14:23:09.000Z</time>
      </trkpt>
      <trkpt lat="48.81882" lon="5.17267">
        <ele>245</ele>
        <time>2023-01-30T14:23:10.000Z</time>
      </trkpt>
      <trkpt lat="48.81882" lon="5.1727">
        <ele>245</ele>
        <time>2023-01-30T14:23:11.000Z</time>
      </trkpt>
      <trkpt lat="48.81882" lon="5.17272">
        <ele>246</ele>
        <time>2023-01-30T14:23:12.000Z</time>
      </trkpt>
      <trkpt lat="48.81883" lon="5.17275">
        <ele>246</ele>
        <time>2023-01-30T14:23:13.000Z</time>
      </trkpt>
      <trkpt lat="48.81883" lon="5.17278">
        <ele>246</ele>
        <time>2023-01-30T14:23:14.000Z</time>
      </trkpt>
      <trkpt lat="48.81883" lon="5.1728">
        <ele>246</ele>
        <time>2023-01-30T14:23:15.000Z</time>
      </trkpt>
      <trkpt lat="48.81883" lon="5.17282">
        <ele>246</ele>
        <time>2023-01-30T14:23:16.000Z</time>
      </trkpt>
      <trkpt lat="48.81883" lon="5.17285">
        <ele>246</ele>
        <time>2023-01-30T14:23:17.000Z</time>
      </trkpt>
      <trkpt lat="48.81883" lon="5.17287">
        <ele>246</ele>
        <time>2023-01-30T14:23:18.000Z</time>
      </trkpt>
      <trkpt lat="48.81883" lon="5.1729">
        <ele>246</ele>
        <time>2023-01-30T14:23:19.000Z</time>
      </trkpt>
      <trkpt lat="48.81883" lon="5.17292">
        <ele>246</ele>
        <time>2023-01-30T14:23:20.000Z</time>
      </trkpt>
      <trkpt lat="48.81883" lon="5.17295">
        <ele>245.5</ele>
        <time>2023-01-30T14:23:21.000Z</time>
      </trkpt>
      <trkpt lat="48.81884" lon="5.17297">
        <ele>245</ele>
        <time>2023-01-30T14:23:22.000Z</time>
      </trkpt>
      <trkpt lat="48.81884" lon="5.173">
        <ele>245</ele>
        <time>2023-01-30T14:23:23.000Z</time>
      </trkpt>
      <trkpt lat="48.81884" lon="5.17302">
        <ele>245</ele>
        <time>2023-01-30T14:23:24.000Z</time>
      </trkpt>
      <trkpt lat="48.81884" lon="5.17305">
        <ele>245</ele>
        <time>2023-01-30T14:23:25.000Z</time>
      </trkpt>
      <trkpt lat="48.81884" lon="5.17307">
        <ele>245</ele>
        <time>2023-01-30T14:23:26.000Z</time>
      </trkpt>
      <trkpt lat="48.81884" lon="5.1731">
        <ele>245</ele>
        <time>2023-01-30T14:23:27.000Z</time>
      </trkpt>
      <trkpt lat="48.81884" lon="5.17312">
        <ele>246</ele>
        <time>2023-01-30T14:23:28.000Z</time>
      </trkpt>
      <trkpt lat="48.81884" lon="5.17313">
        <ele>246</ele>
        <time>2023-01-30T14:23:29.000Z</time>
      </trkpt>
      <trkpt lat="48.81883" lon="5.17315">
        <ele>246</ele>
        <time>2023-01-30T14:23:30.000Z</time>
      </trkpt>
      <trkpt lat="48.81883" lon="5.17318">
        <ele>246</ele>
        <time>2023-01-30T14:23:31.000Z</time>
      </trkpt>
      <trkpt lat="48.81883" lon="5.17322">
        <ele>246</ele>
        <time>2023-01-30T14:23:32.000Z</time>
      </trkpt>
      <trkpt lat="48.81883" lon="5.17325">
        <ele>246</ele>
        <time>2023-01-30T14:23:33.000Z</time>
      </trkpt>
      <trkpt lat="48.81883" lon="5.17328">
        <ele>246</ele>
        <time>2023-01-30T14:23:34.000Z</time>
      </trkpt>
      <trkpt lat="48.81883" lon="5.1733">
        <ele>246</ele>
        <time>2023-01-30T14:23:35.000Z</time>
      </trkpt>
      <trkpt lat="48.81883" lon="5.17332">
        <ele>246</ele>
        <time>2023-01-30T14:23:36.000Z</time>
      </trkpt>
      <trkpt lat="48.81883" lon="5.17334">
        <ele>246</ele>
        <time>2023-01-30T14:23:37.000Z</time>
      </trkpt>
      <trkpt lat="48.81883" lon="5.17336">
        <ele>246</ele>
        <time>2023-01-30T14:23:38.000Z</time>
      </trkpt>
      <trkpt lat="48.81883" lon="5.17338">
        <ele>246</ele>
        <time>2023-01-30T14:23:39.000Z</time>
      </trkpt>
      <trkpt lat="48.81883" lon="5.1734">
        <ele>246</ele>
        <time>2023-01-30T14:23:40.000Z</time>
      </trkpt>
      <trkpt lat="48.81883" lon="5.17342">
        <ele>246</ele>
        <time>2023-01-30T14:23:41.000Z</time>
      </trkpt>
      <trkpt lat="48.81883" lon="5.17344">
        <ele>246</ele>
        <time>2023-01-30T14:23:42.000Z</time>
      </trkpt>
      <trkpt lat="48.81883" lon="5.17346">
        <ele>246</ele>
        <time>2023-01-30T14:23:43.000Z</time>
      </trkpt>
      <trkpt lat="48.81883" lon="5.17348">
        <ele>246</ele>
        <time>2023-01-30T14:23:44.000Z</time>
      </trkpt>
      <trkpt lat="48.81883" lon="5.1735">
        <ele>246</ele>
        <time>2023-01-30T14:23:45.000Z</time>
      </trkpt>
      <trkpt lat="48.81883" lon="5.17352">
        <ele>246</ele>
        <time>2023-01-30T14:23:46.000Z</time>
      </trkpt>
      <trkpt lat="48.81883" lon="5.17354">
        <ele>246</ele>
        <time>2023-01-30T14:23:47.000Z</time>
      </trkpt>
      <trkpt lat="48.81883" lon="5.17356">
        <ele>246</ele>
        <time>2023-01-30T14:23:48.000Z</time>
      </trkpt>
      <trkpt lat="48.81884" lon="5.17358">
        <ele>246</ele>
        <time>2023-01-30T14:23:49.000Z</time>
      </trkpt>
      <trkpt lat="48.81884" lon="5.1736">
        <ele>246</ele>
        <time>2023-01-30T14:23:50.000Z</time>
      </trkpt>
      <trkpt lat="48.81884" lon="5.17362">
        <ele>246</ele>
        <time>2023-01-30T14:23:51.000Z</time>
      </trkpt>
      <trkpt lat="48.81884" lon="5.17364">
        <ele>246</ele>
        <time>2023-01-30T14:23:52.000Z</time>
      </trkpt>
      <trkpt lat="48.81884" lon="5.17366">
        <ele>246</ele>
        <time>2023-01-30T14:23:53.000Z</time>
      </trkpt>
      <trkpt lat="48.81883" lon="5.17367">
        <ele>245</ele>
        <time>2023-01-30T14:23:54.000Z</time>
      </trkpt>
      <trkpt lat="48.81884" lon="5.17369">
        <ele>245</ele>
        <time>2023-01-30T14:23:55.000Z</time>
      </trkpt>
      <trkpt lat="48.81884" lon="5.1737">
        <ele>245</ele>
        <time>2023-01-30T14:23:56.000Z</time>
      </trkpt>
      <trkpt lat="48.81884" lon="5.17372">
        <ele>245</ele>
        <time>2023-01-30T14:23:57.000Z</time>
      </trkpt>
      <trkpt lat="48.81885" lon="5.17375">
        <ele>245</ele>
        <time>2023-01-30T14:23:58.000Z</time>
      </trkpt>
      <trkpt lat="48.81885" lon="5.17378">
        <ele>245</ele>
        <time>2023-01-30T14:23:59.000Z</time>
      </trkpt>
      <trkpt lat="48.81886" lon="5.17382">
        <ele>245</ele>
        <time>2023-01-30T14:24:00.000Z</time>
      </trkpt>
      <trkpt lat="48.81887" lon="5.17384">
        <ele>245</ele>
        <time>2023-01-30T14:24:01.000Z</time>
      </trkpt>
      <trkpt lat="48.81887" lon="5.17386">
        <ele>245</ele>
        <time>2023-01-30T14:24:02.000Z</time>
      </trkpt>
      <trkpt lat="48.81888" lon="5.17389">
        <ele>245</ele>
        <time>2023-01-30T14:24:03.000Z</time>
      </trkpt>
      <trkpt lat="48.81889" lon="5.17392">
        <ele>245</ele>
        <time>2023-01-30T14:24:04.000Z</time>
      </trkpt>
      <trkpt lat="48.8189" lon="5.17395">
        <ele>245</ele>
        <time>2023-01-30T14:24:05.000Z</time>
      </trkpt>
      <trkpt lat="48.8189" lon="5.17397">
        <ele>245</ele>
        <time>2023-01-30T14:24:06.000Z</time>
      </trkpt>
      <trkpt lat="48.81891" lon="5.17399">
        <ele>245</ele>
        <time>2023-01-30T14:24:07.000Z</time>
      </trkpt>
      <trkpt lat="48.81891" lon="5.17401">
        <ele>245</ele>
        <time>2023-01-30T14:24:08.000Z</time>
      </trkpt>
      <trkpt lat="48.81891" lon="5.17402">
        <ele>245</ele>
        <time>2023-01-30T14:24:09.000Z</time>
      </trkpt>
      <trkpt lat="48.81892" lon="5.17404">
        <ele>244.5</ele>
        <time>2023-01-30T14:24:10.000Z</time>
      </trkpt>
      <trkpt lat="48.81892" lon="5.17406">
        <ele>244</ele>
        <time>2023-01-30T14:24:11.000Z</time>
      </trkpt>
      <trkpt lat="48.81893" lon="5.17408">
        <ele>244</ele>
        <time>2023-01-30T14:24:12.000Z</time>
      </trkpt>
      <trkpt lat="48.81893" lon="5.1741">
        <ele>244</ele>
        <time>2023-01-30T14:24:13.000Z</time>
      </trkpt>
      <trkpt lat="48.81894" lon="5.17411">
        <ele>244</ele>
        <time>2023-01-30T14:24:14.000Z</time>
      </trkpt>
      <trkpt lat="48.81895" lon="5.17413">
        <ele>244</ele>
        <time>2023-01-30T14:24:15.000Z</time>
      </trkpt>
      <trkpt lat="48.81896" lon="5.17415">
        <ele>244</ele>
        <time>2023-01-30T14:24:16.000Z</time>
      </trkpt>
      <trkpt lat="48.81897" lon="5.17416">
        <ele>244</ele>
        <time>2023-01-30T14:24:17.000Z</time>
      </trkpt>
      <trkpt lat="48.81897" lon="5.17417">
        <ele>244</ele>
        <time>2023-01-30T14:24:18.000Z</time>
      </trkpt>
      <trkpt lat="48.81898" lon="5.17418">
        <ele>244</ele>
        <time>2023-01-30T14:24:19.000Z</time>
      </trkpt>
      <trkpt lat="48.81898" lon="5.1742">
        <ele>244</ele>
        <time>2023-01-30T14:24:20.000Z</time>
      </trkpt>
      <trkpt lat="48.81899" lon="5.17422">
        <ele>244</ele>
        <time>2023-01-30T14:24:21.000Z</time>
      </trkpt>
      <trkpt lat="48.819" lon="5.17424">
        <ele>244</ele>
        <time>2023-01-30T14:24:22.000Z</time>
      </trkpt>
      <trkpt lat="48.819" lon="5.17426">
        <ele>244</ele>
        <time>2023-01-30T14:24:23.000Z</time>
      </trkpt>
      <trkpt lat="48.81901" lon="5.17428">
        <ele>244</ele>
        <time>2023-01-30T14:24:24.000Z</time>
      </trkpt>
      <trkpt lat="48.81901" lon="5.1743">
        <ele>244</ele>
        <time>2023-01-30T14:24:25.000Z</time>
      </trkpt>
      <trkpt lat="48.81901" lon="5.17432">
        <ele>244</ele>
        <time>2023-01-30T14:24:26.000Z</time>
      </trkpt>
      <trkpt lat="48.81902" lon="5.17434">
        <ele>244</ele>
        <time>2023-01-30T14:24:27.000Z</time>
      </trkpt>
      <trkpt lat="48.81902" lon="5.17437">
        <ele>244</ele>
        <time>2023-01-30T14:24:28.000Z</time>
      </trkpt>
      <trkpt lat="48.81903" lon="5.17441">
        <ele>244</ele>
        <time>2023-01-30T14:24:29.000Z</time>
      </trkpt>
      <trkpt lat="48.81903" lon="5.17444">
        <ele>244</ele>
        <time>2023-01-30T14:24:30.000Z</time>
      </trkpt>
      <trkpt lat="48.81903" lon="5.17446">
        <ele>244</ele>
        <time>2023-01-30T14:24:31.000Z</time>
      </trkpt>
      <trkpt lat="48.81903" lon="5.17448">
        <ele>244</ele>
        <time>2023-01-30T14:24:32.000Z</time>
      </trkpt>
      <trkpt lat="48.81903" lon="5.1745">
        <ele>244.3</ele>
        <time>2023-01-30T14:24:33.000Z</time>
      </trkpt>
      <trkpt lat="48.81903" lon="5.17451">
        <ele>244.7</ele>
        <time>2023-01-30T14:24:34.000Z</time>
      </trkpt>
      <trkpt lat="48.81903" lon="5.17453">
        <ele>245</ele>
        <time>2023-01-30T14:24:35.000Z</time>
      </trkpt>
      <trkpt lat="48.81903" lon="5.17456">
        <ele>245</ele>
        <time>2023-01-30T14:24:36.000Z</time>
      </trkpt>
      <trkpt lat="48.81904" lon="5.17458">
        <ele>245</ele>
        <time>2023-01-30T14:24:37.000Z</time>
      </trkpt>
      <trkpt lat="48.81904" lon="5.1746">
        <ele>245</ele>
        <time>2023-01-30T14:24:38.000Z</time>
      </trkpt>
      <trkpt lat="48.81904" lon="5.17462">
        <ele>245</ele>
        <time>2023-01-30T14:24:39.000Z</time>
      </trkpt>
      <trkpt lat="48.81904" lon="5.17464">
        <ele>245</ele>
        <time>2023-01-30T14:24:40.000Z</time>
      </trkpt>
      <trkpt lat="48.81904" lon="5.17466">
        <ele>245</ele>
        <time>2023-01-30T14:24:41.000Z</time>
      </trkpt>
      <trkpt lat="48.81904" lon="5.17468">
        <ele>245</ele>
        <time>2023-01-30T14:24:42.000Z</time>
      </trkpt>
      <trkpt lat="48.81903" lon="5.1747">
        <ele>245</ele>
        <time>2023-01-30T14:24:43.000Z</time>
      </trkpt>
      <trkpt lat="48.81903" lon="5.17472">
        <ele>245</ele>
        <time>2023-01-30T14:24:44.000Z</time>
      </trkpt>
      <trkpt lat="48.81903" lon="5.17474">
        <ele>245</ele>
        <time>2023-01-30T14:24:45.000Z</time>
      </trkpt>
      <trkpt lat="48.81902" lon="5.17475">
        <ele>245</ele>
        <time>2023-01-30T14:24:46.000Z</time>
      </trkpt>
      <trkpt lat="48.81902" lon="5.17477">
        <ele>245</ele>
        <time>2023-01-30T14:24:47.000Z</time>
      </trkpt>
      <trkpt lat="48.81902" lon="5.1748">
        <ele>245</ele>
        <time>2023-01-30T14:24:48.000Z</time>
      </trkpt>
      <trkpt lat="48.81902" lon="5.17484">
        <ele>245</ele>
        <time>2023-01-30T14:24:49.000Z</time>
      </trkpt>
      <trkpt lat="48.81902" lon="5.17487">
        <ele>245</ele>
        <time>2023-01-30T14:24:50.000Z</time>
      </trkpt>
      <trkpt lat="48.81902" lon="5.17489">
        <ele>245</ele>
        <time>2023-01-30T14:24:51.000Z</time>
      </trkpt>
      <trkpt lat="48.81902" lon="5.17491">
        <ele>245</ele>
        <time>2023-01-30T14:24:52.000Z</time>
      </trkpt>
      <trkpt lat="48.81902" lon="5.17493">
        <ele>245</ele>
        <time>2023-01-30T14:24:53.000Z</time>
      </trkpt>
      <trkpt lat="48.81903" lon="5.17496">
        <ele>245</ele>
        <time>2023-01-30T14:24:54.000Z</time>
      </trkpt>
      <trkpt lat="48.81904" lon="5.17499">
        <ele>245</ele>
        <time>2023-01-30T14:24:55.000Z</time>
      </trkpt>
      <trkpt lat="48.81904" lon="5.17502">
        <ele>245</ele>
        <time>2023-01-30T14:24:56.000Z</time>
      </trkpt>
      <trkpt lat="48.81905" lon="5.17505">
        <ele>245</ele>
        <time>2023-01-30T14:24:57.000Z</time>
      </trkpt>
      <trkpt lat="48.81905" lon="5.17508">
        <ele>245</ele>
        <time>2023-01-30T14:24:58.000Z</time>
      </trkpt>
      <trkpt lat="48.81906" lon="5.17512">
        <ele>245</ele>
        <time>2023-01-30T14:24:59.000Z</time>
      </trkpt>
      <trkpt lat="48.81906" lon="5.17515">
        <ele>245</ele>
        <time>2023-01-30T14:25:00.000Z</time>
      </trkpt>
      <trkpt lat="48.81907" lon="5.17518">
        <ele>245</ele>
        <time>2023-01-30T14:25:01.000Z</time>
      </trkpt>
      <trkpt lat="48.81908" lon="5.17522">
        <ele>245</ele>
        <time>2023-01-30T14:25:02.000Z</time>
      </trkpt>
      <trkpt lat="48.81908" lon="5.17525">
        <ele>245</ele>
        <time>2023-01-30T14:25:03.000Z</time>
      </trkpt>
      <trkpt lat="48.81909" lon="5.17529">
        <ele>245</ele>
        <time>2023-01-30T14:25:04.000Z</time>
      </trkpt>
      <trkpt lat="48.8191" lon="5.17532">
        <ele>245</ele>
        <time>2023-01-30T14:25:05.000Z</time>
      </trkpt>
      <trkpt lat="48.8191" lon="5.17534">
        <ele>245</ele>
        <time>2023-01-30T14:25:06.000Z</time>
      </trkpt>
      <trkpt lat="48.81911" lon="5.17536">
        <ele>244.7</ele>
        <time>2023-01-30T14:25:07.000Z</time>
      </trkpt>
      <trkpt lat="48.81911" lon="5.17538">
        <ele>244.3</ele>
        <time>2023-01-30T14:25:08.000Z</time>
      </trkpt>
      <trkpt lat="48.81911" lon="5.1754">
        <ele>244</ele>
        <time>2023-01-30T14:25:09.000Z</time>
      </trkpt>
      <trkpt lat="48.81911" lon="5.17542">
        <ele>244</ele>
        <time>2023-01-30T14:25:10.000Z</time>
      </trkpt>
      <trkpt lat="48.81911" lon="5.17543">
        <ele>244</ele>
        <time>2023-01-30T14:25:11.000Z</time>
      </trkpt>
      <trkpt lat="48.81912" lon="5.17545">
        <ele>244</ele>
        <time>2023-01-30T14:25:12.000Z</time>
      </trkpt>
      <trkpt lat="48.81912" lon="5.17547">
        <ele>244</ele>
        <time>2023-01-30T14:25:13.000Z</time>
      </trkpt>
      <trkpt lat="48.81912" lon="5.17549">
        <ele>244</ele>
        <time>2023-01-30T14:25:14.000Z</time>
      </trkpt>
      <trkpt lat="48.81912" lon="5.17551">
        <ele>244</ele>
        <time>2023-01-30T14:25:15.000Z</time>
      </trkpt>
      <trkpt lat="48.81912" lon="5.17552">
        <ele>244</ele>
        <time>2023-01-30T14:25:16.000Z</time>
      </trkpt>
      <trkpt lat="48.81912" lon="5.17553">
        <ele>244</ele>
        <time>2023-01-30T14:25:17.000Z</time>
      </trkpt>
      <trkpt lat="48.81913" lon="5.17555">
        <ele>244</ele>
        <time>2023-01-30T14:25:18.000Z</time>
      </trkpt>
      <trkpt lat="48.81913" lon="5.17556">
        <ele>243.7</ele>
        <time>2023-01-30T14:25:19.000Z</time>
      </trkpt>
      <trkpt lat="48.81913" lon="5.17558">
        <ele>243.3</ele>
        <time>2023-01-30T14:25:20.000Z</time>
      </trkpt>
      <trkpt lat="48.81913" lon="5.17559">
        <ele>243</ele>
        <time>2023-01-30T14:25:21.000Z</time>
      </trkpt>
      <trkpt lat="48.81913" lon="5.17561">
        <ele>243</ele>
        <time>2023-01-30T14:25:22.000Z</time>
      </trkpt>
      <trkpt lat="48.81913" lon="5.17562">
        <ele>243</ele>
        <time>2023-01-30T14:25:23.000Z</time>
      </trkpt>
      <trkpt lat="48.81914" lon="5.17563">
        <ele>243</ele>
        <time>2023-01-30T14:25:24.000Z</time>
      </trkpt>
      <trkpt lat="48.81915" lon="5.17564">
        <ele>243</ele>
        <time>2023-01-30T14:25:25.000Z</time>
      </trkpt>
      <trkpt lat="48.81916" lon="5.17564">
        <ele>243</ele>
        <time>2023-01-30T14:25:26.000Z</time>
      </trkpt>
      <trkpt lat="48.81917" lon="5.17565">
        <ele>243</ele>
        <time>2023-01-30T14:25:27.000Z</time>
      </trkpt>
      <trkpt lat="48.81918" lon="5.17565">
        <ele>243</ele>
        <time>2023-01-30T14:25:28.000Z</time>
      </trkpt>
      <trkpt lat="48.81919" lon="5.17566">
        <ele>243</ele>
        <time>2023-01-30T14:25:29.000Z</time>
      </trkpt>
      <trkpt lat="48.81921" lon="5.17566">
        <ele>243</ele>
        <time>2023-01-30T14:25:30.000Z</time>
      </trkpt>
      <trkpt lat="48.81922" lon="5.17566">
        <ele>243</ele>
        <time>2023-01-30T14:25:31.000Z</time>
      </trkpt>
      <trkpt lat="48.81923" lon="5.17569">
        <ele>242</ele>
        <time>2023-01-30T14:25:32.000Z</time>
      </trkpt>
      <trkpt lat="48.81924" lon="5.17571">
        <ele>242</ele>
        <time>2023-01-30T14:25:33.000Z</time>
      </trkpt>
      <trkpt lat="48.81925" lon="5.17573">
        <ele>242</ele>
        <time>2023-01-30T14:25:34.000Z</time>
      </trkpt>
      <trkpt lat="48.81926" lon="5.17576">
        <ele>242</ele>
        <time>2023-01-30T14:25:35.000Z</time>
      </trkpt>
      <trkpt lat="48.81927" lon="5.17578">
        <ele>242</ele>
        <time>2023-01-30T14:25:36.000Z</time>
      </trkpt>
      <trkpt lat="48.81928" lon="5.1758">
        <ele>242</ele>
        <time>2023-01-30T14:25:37.000Z</time>
      </trkpt>
      <trkpt lat="48.81928" lon="5.17582">
        <ele>242</ele>
        <time>2023-01-30T14:25:38.000Z</time>
      </trkpt>
      <trkpt lat="48.81928" lon="5.17584">
        <ele>242</ele>
        <time>2023-01-30T14:25:39.000Z</time>
      </trkpt>
      <trkpt lat="48.81929" lon="5.17585">
        <ele>242</ele>
        <time>2023-01-30T14:25:40.000Z</time>
      </trkpt>
      <trkpt lat="48.81929" lon="5.17587">
        <ele>242</ele>
        <time>2023-01-30T14:25:41.000Z</time>
      </trkpt>
      <trkpt lat="48.81929" lon="5.17589">
        <ele>242</ele>
        <time>2023-01-30T14:25:42.000Z</time>
      </trkpt>
      <trkpt lat="48.8193" lon="5.17591">
        <ele>242</ele>
        <time>2023-01-30T14:25:43.000Z</time>
      </trkpt>
      <trkpt lat="48.8193" lon="5.17593">
        <ele>242</ele>
        <time>2023-01-30T14:25:44.000Z</time>
      </trkpt>
      <trkpt lat="48.81931" lon="5.17595">
        <ele>242</ele>
        <time>2023-01-30T14:25:45.000Z</time>
      </trkpt>
      <trkpt lat="48.81932" lon="5.17597">
        <ele>242</ele>
        <time>2023-01-30T14:25:46.000Z</time>
      </trkpt>
      <trkpt lat="48.81933" lon="5.17599">
        <ele>242</ele>
        <time>2023-01-30T14:25:47.000Z</time>
      </trkpt>
      <trkpt lat="48.81934" lon="5.17601">
        <ele>242</ele>
        <time>2023-01-30T14:25:48.000Z</time>
      </trkpt>
      <trkpt lat="48.81935" lon="5.17603">
        <ele>242</ele>
        <time>2023-01-30T14:25:49.000Z</time>
      </trkpt>
      <trkpt lat="48.81937" lon="5.17605">
        <ele>242</ele>
        <time>2023-01-30T14:25:50.000Z</time>
      </trkpt>
      <trkpt lat="48.81938" lon="5.17606">
        <ele>242</ele>
        <time>2023-01-30T14:25:51.000Z</time>
      </trkpt>
      <trkpt lat="48.81939" lon="5.17608">
        <ele>242</ele>
        <time>2023-01-30T14:25:52.000Z</time>
      </trkpt>
      <trkpt lat="48.8194" lon="5.17609">
        <ele>242</ele>
        <time>2023-01-30T14:25:53.000Z</time>
      </trkpt>
      <trkpt lat="48.8194" lon="5.1761">
        <ele>242</ele>
        <time>2023-01-30T14:25:54.000Z</time>
      </trkpt>
      <trkpt lat="48.81941" lon="5.17612">
        <ele>242</ele>
        <time>2023-01-30T14:25:55.000Z</time>
      </trkpt>
      <trkpt lat="48.81941" lon="5.17613">
        <ele>243</ele>
        <time>2023-01-30T14:25:56.000Z</time>
      </trkpt>
      <trkpt lat="48.81941" lon="5.17614">
        <ele>243</ele>
        <time>2023-01-30T14:25:57.000Z</time>
      </trkpt>
      <trkpt lat="48.81942" lon="5.17615">
        <ele>243</ele>
        <time>2023-01-30T14:25:58.000Z</time>
      </trkpt>
      <trkpt lat="48.81942" lon="5.17617">
        <ele>243</ele>
        <time>2023-01-30T14:25:59.000Z</time>
      </trkpt>
      <trkpt lat="48.81942" lon="5.17618">
        <ele>243</ele>
        <time>2023-01-30T14:26:00.000Z</time>
      </trkpt>
      <trkpt lat="48.81942" lon="5.1762">
        <ele>243</ele>
        <time>2023-01-30T14:26:01.000Z</time>
      </trkpt>
      <trkpt lat="48.81943" lon="5.17621">
        <ele>243</ele>
        <time>2023-01-30T14:26:02.000Z</time>
      </trkpt>
      <trkpt lat="48.81943" lon="5.17623">
        <ele>243.3</ele>
        <time>2023-01-30T14:26:03.000Z</time>
      </trkpt>
      <trkpt lat="48.81943" lon="5.17624">
        <ele>243.7</ele>
        <time>2023-01-30T14:26:04.000Z</time>
      </trkpt>
      <trkpt lat="48.81943" lon="5.17626">
        <ele>244</ele>
        <time>2023-01-30T14:26:05.000Z</time>
      </trkpt>
      <trkpt lat="48.81943" lon="5.17627">
        <ele>244</ele>
        <time>2023-01-30T14:26:06.000Z</time>
      </trkpt>
      <trkpt lat="48.81944" lon="5.17629">
        <ele>244</ele>
        <time>2023-01-30T14:26:07.000Z</time>
      </trkpt>
      <trkpt lat="48.81944" lon="5.1763">
        <ele>244</ele>
        <time>2023-01-30T14:26:08.000Z</time>
      </trkpt>
      <trkpt lat="48.81945" lon="5.17632">
        <ele>244</ele>
        <time>2023-01-30T14:26:09.000Z</time>
      </trkpt>
      <trkpt lat="48.81946" lon="5.17633">
        <ele>244</ele>
        <time>2023-01-30T14:26:10.000Z</time>
      </trkpt>
      <trkpt lat="48.81946" lon="5.17635">
        <ele>244</ele>
        <time>2023-01-30T14:26:11.000Z</time>
      </trkpt>
      <trkpt lat="48.81947" lon="5.17636">
        <ele>244</ele>
        <time>2023-01-30T14:26:12.000Z</time>
      </trkpt>
      <trkpt lat="48.81948" lon="5.17637">
        <ele>244</ele>
        <time>2023-01-30T14:26:13.000Z</time>
      </trkpt>
      <trkpt lat="48.81948" lon="5.17639">
        <ele>244.5</ele>
        <time>2023-01-30T14:26:14.000Z</time>
      </trkpt>
      <trkpt lat="48.81949" lon="5.1764">
        <ele>245</ele>
        <time>2023-01-30T14:26:15.000Z</time>
      </trkpt>
      <trkpt lat="48.81949" lon="5.17641">
        <ele>245</ele>
        <time>2023-01-30T14:26:16.000Z</time>
      </trkpt>
      <trkpt lat="48.8195" lon="5.17642">
        <ele>245</ele>
        <time>2023-01-30T14:26:17.000Z</time>
      </trkpt>
      <trkpt lat="48.8195" lon="5.17644">
        <ele>245</ele>
        <time>2023-01-30T14:26:18.000Z</time>
      </trkpt>
      <trkpt lat="48.81951" lon="5.17645">
        <ele>245</ele>
        <time>2023-01-30T14:26:19.000Z</time>
      </trkpt>
      <trkpt lat="48.81952" lon="5.17646">
        <ele>245</ele>
        <time>2023-01-30T14:26:20.000Z</time>
      </trkpt>
      <trkpt lat="48.81953" lon="5.17647">
        <ele>245</ele>
        <time>2023-01-30T14:26:21.000Z</time>
      </trkpt>
      <trkpt lat="48.81954" lon="5.17648">
        <ele>245</ele>
        <time>2023-01-30T14:26:22.000Z</time>
      </trkpt>
      <trkpt lat="48.81955" lon="5.1765">
        <ele>245</ele>
        <time>2023-01-30T14:26:23.000Z</time>
      </trkpt>
      <trkpt lat="48.81956" lon="5.17651">
        <ele>245</ele>
        <time>2023-01-30T14:26:24.000Z</time>
      </trkpt>
      <trkpt lat="48.81957" lon="5.17653">
        <ele>245</ele>
        <time>2023-01-30T14:26:25.000Z</time>
      </trkpt>
      <trkpt lat="48.81957" lon="5.17655">
        <ele>245</ele>
        <time>2023-01-30T14:26:26.000Z</time>
      </trkpt>
      <trkpt lat="48.81958" lon="5.17657">
        <ele>245.3</ele>
        <time>2023-01-30T14:26:27.000Z</time>
      </trkpt>
      <trkpt lat="48.81958" lon="5.17659">
        <ele>245.7</ele>
        <time>2023-01-30T14:26:28.000Z</time>
      </trkpt>
      <trkpt lat="48.81958" lon="5.17661">
        <ele>246</ele>
        <time>2023-01-30T14:26:29.000Z</time>
      </trkpt>
      <trkpt lat="48.81959" lon="5.17664">
        <ele>246</ele>
        <time>2023-01-30T14:26:30.000Z</time>
      </trkpt>
      <trkpt lat="48.8196" lon="5.17667">
        <ele>246</ele>
        <time>2023-01-30T14:26:31.000Z</time>
      </trkpt>
      <trkpt lat="48.81961" lon="5.17668">
        <ele>246</ele>
        <time>2023-01-30T14:26:32.000Z</time>
      </trkpt>
      <trkpt lat="48.81961" lon="5.1767">
        <ele>246</ele>
        <time>2023-01-30T14:26:33.000Z</time>
      </trkpt>
      <trkpt lat="48.81961" lon="5.17672">
        <ele>246</ele>
        <time>2023-01-30T14:26:34.000Z</time>
      </trkpt>
      <trkpt lat="48.81962" lon="5.17674">
        <ele>246</ele>
        <time>2023-01-30T14:26:35.000Z</time>
      </trkpt>
      <trkpt lat="48.81962" lon="5.17676">
        <ele>246</ele>
        <time>2023-01-30T14:26:36.000Z</time>
      </trkpt>
      <trkpt lat="48.81962" lon="5.17679">
        <ele>246</ele>
        <time>2023-01-30T14:26:37.000Z</time>
      </trkpt>
      <trkpt lat="48.81962" lon="5.17681">
        <ele>246</ele>
        <time>2023-01-30T14:26:38.000Z</time>
      </trkpt>
      <trkpt lat="48.81963" lon="5.17683">
        <ele>246</ele>
        <time>2023-01-30T14:26:39.000Z</time>
      </trkpt>
      <trkpt lat="48.81963" lon="5.17685">
        <ele>246</ele>
        <time>2023-01-30T14:26:40.000Z</time>
      </trkpt>
      <trkpt lat="48.81964" lon="5.17686">
        <ele>246</ele>
        <time>2023-01-30T14:26:41.000Z</time>
      </trkpt>
      <trkpt lat="48.81964" lon="5.17688">
        <ele>246.5</ele>
        <time>2023-01-30T14:26:42.000Z</time>
      </trkpt>
      <trkpt lat="48.81965" lon="5.1769">
        <ele>247</ele>
        <time>2023-01-30T14:26:43.000Z</time>
      </trkpt>
      <trkpt lat="48.81966" lon="5.17691">
        <ele>247</ele>
        <time>2023-01-30T14:26:44.000Z</time>
      </trkpt>
      <trkpt lat="48.81966" lon="5.17693">
        <ele>247</ele>
        <time>2023-01-30T14:26:45.000Z</time>
      </trkpt>
      <trkpt lat="48.81967" lon="5.17694">
        <ele>247</ele>
        <time>2023-01-30T14:26:46.000Z</time>
      </trkpt>
      <trkpt lat="48.81968" lon="5.17695">
        <ele>247</ele>
        <time>2023-01-30T14:26:47.000Z</time>
      </trkpt>
      <trkpt lat="48.81969" lon="5.17696">
        <ele>247</ele>
        <time>2023-01-30T14:26:48.000Z</time>
      </trkpt>
      <trkpt lat="48.8197" lon="5.17696">
        <ele>247</ele>
        <time>2023-01-30T14:26:49.000Z</time>
      </trkpt>
      <trkpt lat="48.8197" lon="5.17697">
        <ele>247</ele>
        <time>2023-01-30T14:26:50.000Z</time>
      </trkpt>
      <trkpt lat="48.81971" lon="5.17697">
        <ele>247</ele>
        <time>2023-01-30T14:26:51.000Z</time>
      </trkpt>
      <trkpt lat="48.81972" lon="5.17698">
        <ele>246</ele>
        <time>2023-01-30T14:26:52.000Z</time>
      </trkpt>
      <trkpt lat="48.81972" lon="5.17698">
        <ele>246</ele>
        <time>2023-01-30T14:26:53.000Z</time>
      </trkpt>
      <trkpt lat="48.81973" lon="5.17698">
        <ele>246</ele>
        <time>2023-01-30T14:26:54.000Z</time>
      </trkpt>
      <trkpt lat="48.81973" lon="5.17697">
        <ele>246</ele>
        <time>2023-01-30T14:26:55.000Z</time>
      </trkpt>
      <trkpt lat="48.81974" lon="5.17696">
        <ele>246</ele>
        <time>2023-01-30T14:26:56.000Z</time>
      </trkpt>
      <trkpt lat="48.81976" lon="5.17695">
        <ele>246</ele>
        <time>2023-01-30T14:26:57.000Z</time>
      </trkpt>
      <trkpt lat="48.81977" lon="5.17693">
        <ele>246</ele>
        <time>2023-01-30T14:26:58.000Z</time>
      </trkpt>
      <trkpt lat="48.81978" lon="5.17692">
        <ele>246</ele>
        <time>2023-01-30T14:26:59.000Z</time>
      </trkpt>
      <trkpt lat="48.81979" lon="5.17691">
        <ele>246</ele>
        <time>2023-01-30T14:27:00.000Z</time>
      </trkpt>
      <trkpt lat="48.8198" lon="5.1769">
        <ele>246</ele>
        <time>2023-01-30T14:27:01.000Z</time>
      </trkpt>
      <trkpt lat="48.8198" lon="5.1769">
        <ele>246</ele>
        <time>2023-01-30T14:27:02.000Z</time>
      </trkpt>
      <trkpt lat="48.8198" lon="5.17689">
        <ele>246</ele>
        <time>2023-01-30T14:27:03.000Z</time>
      </trkpt>
      <trkpt lat="48.81981" lon="5.17689">
        <ele>246</ele>
        <time>2023-01-30T14:27:04.000Z</time>
      </trkpt>
      <trkpt lat="48.81981" lon="5.17689">
        <ele>246</ele>
        <time>2023-01-30T14:27:05.000Z</time>
      </trkpt>
      <trkpt lat="48.81982" lon="5.17688">
        <ele>245.5</ele>
        <time>2023-01-30T14:27:06.000Z</time>
      </trkpt>
      <trkpt lat="48.81983" lon="5.17688">
        <ele>245</ele>
        <time>2023-01-30T14:27:07.000Z</time>
      </trkpt>
      <trkpt lat="48.81984" lon="5.17688">
        <ele>245</ele>
        <time>2023-01-30T14:27:08.000Z</time>
      </trkpt>
      <trkpt lat="48.81985" lon="5.17689">
        <ele>245</ele>
        <time>2023-01-30T14:27:09.000Z</time>
      </trkpt>
      <trkpt lat="48.81987" lon="5.17689">
        <ele>245</ele>
        <time>2023-01-30T14:27:10.000Z</time>
      </trkpt>
      <trkpt lat="48.81988" lon="5.17689">
        <ele>245</ele>
        <time>2023-01-30T14:27:11.000Z</time>
      </trkpt>
      <trkpt lat="48.81989" lon="5.17689">
        <ele>245</ele>
        <time>2023-01-30T14:27:12.000Z</time>
      </trkpt>
      <trkpt lat="48.8199" lon="5.17689">
        <ele>245</ele>
        <time>2023-01-30T14:27:13.000Z</time>
      </trkpt>
      <trkpt lat="48.81991" lon="5.1769">
        <ele>245</ele>
        <time>2023-01-30T14:27:14.000Z</time>
      </trkpt>
      <trkpt lat="48.81992" lon="5.1769">
        <ele>245</ele>
        <time>2023-01-30T14:27:15.000Z</time>
      </trkpt>
      <trkpt lat="48.81994" lon="5.1769">
        <ele>245</ele>
        <time>2023-01-30T14:27:16.000Z</time>
      </trkpt>
      <trkpt lat="48.81996" lon="5.1769">
        <ele>245</ele>
        <time>2023-01-30T14:27:17.000Z</time>
      </trkpt>
      <trkpt lat="48.81997" lon="5.1769">
        <ele>245</ele>
        <time>2023-01-30T14:27:18.000Z</time>
      </trkpt>
      <trkpt lat="48.81999" lon="5.1769">
        <ele>245</ele>
        <time>2023-01-30T14:27:19.000Z</time>
      </trkpt>
      <trkpt lat="48.82001" lon="5.1769">
        <ele>245</ele>
        <time>2023-01-30T14:27:20.000Z</time>
      </trkpt>
      <trkpt lat="48.82002" lon="5.1769">
        <ele>245</ele>
        <time>2023-01-30T14:27:21.000Z</time>
      </trkpt>
      <trkpt lat="48.82004" lon="5.1769">
        <ele>245</ele>
        <time>2023-01-30T14:27:22.000Z</time>
      </trkpt>
      <trkpt lat="48.82006" lon="5.1769">
        <ele>245</ele>
        <time>2023-01-30T14:27:23.000Z</time>
      </trkpt>
      <trkpt lat="48.82007" lon="5.17691">
        <ele>246</ele>
        <time>2023-01-30T14:27:24.000Z</time>
      </trkpt>
      <trkpt lat="48.82009" lon="5.17691">
        <ele>246</ele>
        <time>2023-01-30T14:27:25.000Z</time>
      </trkpt>
      <trkpt lat="48.8201" lon="5.17691">
        <ele>246</ele>
        <time>2023-01-30T14:27:26.000Z</time>
      </trkpt>
      <trkpt lat="48.82012" lon="5.17691">
        <ele>246</ele>
        <time>2023-01-30T14:27:27.000Z</time>
      </trkpt>
      <trkpt lat="48.82013" lon="5.1769">
        <ele>246</ele>
        <time>2023-01-30T14:27:28.000Z</time>
      </trkpt>
      <trkpt lat="48.82014" lon="5.1769">
        <ele>246.3</ele>
        <time>2023-01-30T14:27:29.000Z</time>
      </trkpt>
      <trkpt lat="48.82016" lon="5.1769">
        <ele>246.7</ele>
        <time>2023-01-30T14:27:30.000Z</time>
      </trkpt>
      <trkpt lat="48.82017" lon="5.17689">
        <ele>247</ele>
        <time>2023-01-30T14:27:31.000Z</time>
      </trkpt>
      <trkpt lat="48.82018" lon="5.17689">
        <ele>247</ele>
        <time>2023-01-30T14:27:32.000Z</time>
      </trkpt>
      <trkpt lat="48.8202" lon="5.1769">
        <ele>247</ele>
        <time>2023-01-30T14:27:33.000Z</time>
      </trkpt>
      <trkpt lat="48.82021" lon="5.1769">
        <ele>247</ele>
        <time>2023-01-30T14:27:34.000Z</time>
      </trkpt>
      <trkpt lat="48.82022" lon="5.17691">
        <ele>247</ele>
        <time>2023-01-30T14:27:35.000Z</time>
      </trkpt>
      <trkpt lat="48.82024" lon="5.17692">
        <ele>248</ele>
        <time>2023-01-30T14:27:36.000Z</time>
      </trkpt>
      <trkpt lat="48.82025" lon="5.17692">
        <ele>248</ele>
        <time>2023-01-30T14:27:37.000Z</time>
      </trkpt>
      <trkpt lat="48.82026" lon="5.17693">
        <ele>248</ele>
        <time>2023-01-30T14:27:38.000Z</time>
      </trkpt>
      <trkpt lat="48.82027" lon="5.17693">
        <ele>248</ele>
        <time>2023-01-30T14:27:39.000Z</time>
      </trkpt>
      <trkpt lat="48.82028" lon="5.17694">
        <ele>248</ele>
        <time>2023-01-30T14:27:40.000Z</time>
      </trkpt>
      <trkpt lat="48.82029" lon="5.17694">
        <ele>248</ele>
        <time>2023-01-30T14:27:41.000Z</time>
      </trkpt>
      <trkpt lat="48.8203" lon="5.17694">
        <ele>248.5</ele>
        <time>2023-01-30T14:27:42.000Z</time>
      </trkpt>
      <trkpt lat="48.82031" lon="5.17694">
        <ele>249</ele>
        <time>2023-01-30T14:27:43.000Z</time>
      </trkpt>
      <trkpt lat="48.82032" lon="5.17694">
        <ele>249</ele>
        <time>2023-01-30T14:27:44.000Z</time>
      </trkpt>
      <trkpt lat="48.82033" lon="5.17694">
        <ele>249</ele>
        <time>2023-01-30T14:27:45.000Z</time>
      </trkpt>
      <trkpt lat="48.82034" lon="5.17695">
        <ele>249</ele>
        <time>2023-01-30T14:27:46.000Z</time>
      </trkpt>
      <trkpt lat="48.82035" lon="5.17695">
        <ele>249</ele>
        <time>2023-01-30T14:27:47.000Z</time>
      </trkpt>
      <trkpt lat="48.82036" lon="5.17696">
        <ele>249</ele>
        <time>2023-01-30T14:27:48.000Z</time>
      </trkpt>
      <trkpt lat="48.82037" lon="5.17698">
        <ele>249</ele>
        <time>2023-01-30T14:27:49.000Z</time>
      </trkpt>
      <trkpt lat="48.82038" lon="5.177">
        <ele>249</ele>
        <time>2023-01-30T14:27:50.000Z</time>
      </trkpt>
      <trkpt lat="48.82038" lon="5.17701">
        <ele>249.3</ele>
        <time>2023-01-30T14:27:51.000Z</time>
      </trkpt>
      <trkpt lat="48.82039" lon="5.17703">
        <ele>249.7</ele>
        <time>2023-01-30T14:27:52.000Z</time>
      </trkpt>
      <trkpt lat="48.8204" lon="5.17704">
        <ele>250</ele>
        <time>2023-01-30T14:27:53.000Z</time>
      </trkpt>
      <trkpt lat="48.8204" lon="5.17707">
        <ele>250</ele>
        <time>2023-01-30T14:27:54.000Z</time>
      </trkpt>
      <trkpt lat="48.82041" lon="5.17709">
        <ele>250</ele>
        <time>2023-01-30T14:27:55.000Z</time>
      </trkpt>
      <trkpt lat="48.82041" lon="5.17712">
        <ele>250</ele>
        <time>2023-01-30T14:27:56.000Z</time>
      </trkpt>
      <trkpt lat="48.82041" lon="5.17714">
        <ele>250</ele>
        <time>2023-01-30T14:27:57.000Z</time>
      </trkpt>
      <trkpt lat="48.82042" lon="5.17716">
        <ele>250</ele>
        <time>2023-01-30T14:27:58.000Z</time>
      </trkpt>
      <trkpt lat="48.82042" lon="5.17718">
        <ele>250</ele>
        <time>2023-01-30T14:27:59.000Z</time>
      </trkpt>
      <trkpt lat="48.82042" lon="5.1772">
        <ele>250</ele>
        <time>2023-01-30T14:28:00.000Z</time>
      </trkpt>
      <trkpt lat="48.82042" lon="5.17722">
        <ele>250</ele>
        <time>2023-01-30T14:28:01.000Z</time>
      </trkpt>
      <trkpt lat="48.82042" lon="5.17724">
        <ele>250.5</ele>
        <time>2023-01-30T14:28:02.000Z</time>
      </trkpt>
      <trkpt lat="48.82043" lon="5.17727">
        <ele>251</ele>
        <time>2023-01-30T14:28:03.000Z</time>
      </trkpt>
      <trkpt lat="48.82043" lon="5.17729">
        <ele>251</ele>
        <time>2023-01-30T14:28:04.000Z</time>
      </trkpt>
      <trkpt lat="48.82043" lon="5.17731">
        <ele>251</ele>
        <time>2023-01-30T14:28:05.000Z</time>
      </trkpt>
      <trkpt lat="48.82043" lon="5.17733">
        <ele>251</ele>
        <time>2023-01-30T14:28:06.000Z</time>
      </trkpt>
      <trkpt lat="48.82043" lon="5.17734">
        <ele>251</ele>
        <time>2023-01-30T14:28:07.000Z</time>
      </trkpt>
      <trkpt lat="48.82044" lon="5.17736">
        <ele>251</ele>
        <time>2023-01-30T14:28:08.000Z</time>
      </trkpt>
      <trkpt lat="48.82044" lon="5.17738">
        <ele>251</ele>
        <time>2023-01-30T14:28:09.000Z</time>
      </trkpt>
      <trkpt lat="48.82044" lon="5.1774">
        <ele>251</ele>
        <time>2023-01-30T14:28:10.000Z</time>
      </trkpt>
      <trkpt lat="48.82044" lon="5.17741">
        <ele>251</ele>
        <time>2023-01-30T14:28:11.000Z</time>
      </trkpt>
      <trkpt lat="48.82044" lon="5.17743">
        <ele>251</ele>
        <time>2023-01-30T14:28:12.000Z</time>
      </trkpt>
      <trkpt lat="48.82044" lon="5.17745">
        <ele>251</ele>
        <time>2023-01-30T14:28:13.000Z</time>
      </trkpt>
      <trkpt lat="48.82044" lon="5.17746">
        <ele>251</ele>
        <time>2023-01-30T14:28:14.000Z</time>
      </trkpt>
      <trkpt lat="48.82045" lon="5.17748">
        <ele>251</ele>
        <time>2023-01-30T14:28:15.000Z</time>
      </trkpt>
      <trkpt lat="48.82045" lon="5.1775">
        <ele>251</ele>
        <time>2023-01-30T14:28:16.000Z</time>
      </trkpt>
      <trkpt lat="48.82045" lon="5.17751">
        <ele>251</ele>
        <time>2023-01-30T14:28:17.000Z</time>
      </trkpt>
      <trkpt lat="48.82045" lon="5.17753">
        <ele>251</ele>
        <time>2023-01-30T14:28:18.000Z</time>
      </trkpt>
      <trkpt lat="48.82045" lon="5.17755">
        <ele>251</ele>
        <time>2023-01-30T14:28:19.000Z</time>
      </trkpt>
      <trkpt lat="48.82045" lon="5.17756">
        <ele>251</ele>
        <time>2023-01-30T14:28:20.000Z</time>
      </trkpt>
      <trkpt lat="48.82045" lon="5.17758">
        <ele>251</ele>
        <time>2023-01-30T14:28:21.000Z</time>
      </trkpt>
      <trkpt lat="48.82045" lon="5.1776">
        <ele>251</ele>
        <time>2023-01-30T14:28:22.000Z</time>
      </trkpt>
      <trkpt lat="48.82045" lon="5.17761">
        <ele>251</ele>
        <time>2023-01-30T14:28:23.000Z</time>
      </trkpt>
      <trkpt lat="48.82045" lon="5.17763">
        <ele>251</ele>
        <time>2023-01-30T14:28:24.000Z</time>
      </trkpt>
      <trkpt lat="48.82045" lon="5.17766">
        <ele>251</ele>
        <time>2023-01-30T14:28:25.000Z</time>
      </trkpt>
      <trkpt lat="48.82046" lon="5.17769">
        <ele>251</ele>
        <time>2023-01-30T14:28:26.000Z</time>
      </trkpt>
      <trkpt lat="48.82046" lon="5.17772">
        <ele>251</ele>
        <time>2023-01-30T14:28:27.000Z</time>
      </trkpt>
      <trkpt lat="48.82047" lon="5.17773">
        <ele>251</ele>
        <time>2023-01-30T14:28:28.000Z</time>
      </trkpt>
      <trkpt lat="48.82047" lon="5.17775">
        <ele>251</ele>
        <time>2023-01-30T14:28:29.000Z</time>
      </trkpt>
      <trkpt lat="48.82048" lon="5.17777">
        <ele>251</ele>
        <time>2023-01-30T14:28:30.000Z</time>
      </trkpt>
      <trkpt lat="48.82047" lon="5.1778">
        <ele>251</ele>
        <time>2023-01-30T14:28:31.000Z</time>
      </trkpt>
      <trkpt lat="48.82047" lon="5.17783">
        <ele>251</ele>
        <time>2023-01-30T14:28:32.000Z</time>
      </trkpt>
      <trkpt lat="48.82047" lon="5.17786">
        <ele>251</ele>
        <time>2023-01-30T14:28:33.000Z</time>
      </trkpt>
      <trkpt lat="48.82047" lon="5.17789">
        <ele>251</ele>
        <time>2023-01-30T14:28:34.000Z</time>
      </trkpt>
      <trkpt lat="48.82046" lon="5.17791">
        <ele>251</ele>
        <time>2023-01-30T14:28:35.000Z</time>
      </trkpt>
      <trkpt lat="48.82046" lon="5.17794">
        <ele>251</ele>
        <time>2023-01-30T14:28:36.000Z</time>
      </trkpt>
      <trkpt lat="48.82045" lon="5.17796">
        <ele>251</ele>
        <time>2023-01-30T14:28:37.000Z</time>
      </trkpt>
      <trkpt lat="48.82045" lon="5.17798">
        <ele>251</ele>
        <time>2023-01-30T14:28:38.000Z</time>
      </trkpt>
      <trkpt lat="48.82044" lon="5.178">
        <ele>251</ele>
        <time>2023-01-30T14:28:39.000Z</time>
      </trkpt>
      <trkpt lat="48.82044" lon="5.17803">
        <ele>251</ele>
        <time>2023-01-30T14:28:40.000Z</time>
      </trkpt>
      <trkpt lat="48.82044" lon="5.17806">
        <ele>251</ele>
        <time>2023-01-30T14:28:41.000Z</time>
      </trkpt>
      <trkpt lat="48.82044" lon="5.17809">
        <ele>251</ele>
        <time>2023-01-30T14:28:42.000Z</time>
      </trkpt>
      <trkpt lat="48.82043" lon="5.17812">
        <ele>251</ele>
        <time>2023-01-30T14:28:43.000Z</time>
      </trkpt>
      <trkpt lat="48.82043" lon="5.17814">
        <ele>251</ele>
        <time>2023-01-30T14:28:44.000Z</time>
      </trkpt>
      <trkpt lat="48.82042" lon="5.17817">
        <ele>251</ele>
        <time>2023-01-30T14:28:45.000Z</time>
      </trkpt>
      <trkpt lat="48.82042" lon="5.17819">
        <ele>251</ele>
        <time>2023-01-30T14:28:46.000Z</time>
      </trkpt>
      <trkpt lat="48.82042" lon="5.1782">
        <ele>251</ele>
        <time>2023-01-30T14:28:47.000Z</time>
      </trkpt>
      <trkpt lat="48.82042" lon="5.17822">
        <ele>251</ele>
        <time>2023-01-30T14:28:48.000Z</time>
      </trkpt>
      <trkpt lat="48.82042" lon="5.17823">
        <ele>251</ele>
        <time>2023-01-30T14:28:49.000Z</time>
      </trkpt>
      <trkpt lat="48.82042" lon="5.17825">
        <ele>251</ele>
        <time>2023-01-30T14:28:50.000Z</time>
      </trkpt>
      <trkpt lat="48.82042" lon="5.17826">
        <ele>251</ele>
        <time>2023-01-30T14:28:51.000Z</time>
      </trkpt>
      <trkpt lat="48.82042" lon="5.17828">
        <ele>251</ele>
        <time>2023-01-30T14:28:52.000Z</time>
      </trkpt>
      <trkpt lat="48.82042" lon="5.17829">
        <ele>251</ele>
        <time>2023-01-30T14:28:53.000Z</time>
      </trkpt>
      <trkpt lat="48.82042" lon="5.17831">
        <ele>251.5</ele>
        <time>2023-01-30T14:28:54.000Z</time>
      </trkpt>
      <trkpt lat="48.82042" lon="5.17833">
        <ele>252</ele>
        <time>2023-01-30T14:28:55.000Z</time>
      </trkpt>
      <trkpt lat="48.82042" lon="5.17835">
        <ele>252</ele>
        <time>2023-01-30T14:28:56.000Z</time>
      </trkpt>
      <trkpt lat="48.82042" lon="5.17837">
        <ele>252</ele>
        <time>2023-01-30T14:28:57.000Z</time>
      </trkpt>
      <trkpt lat="48.82042" lon="5.17839">
        <ele>252</ele>
        <time>2023-01-30T14:28:58.000Z</time>
      </trkpt>
      <trkpt lat="48.82042" lon="5.17842">
        <ele>252</ele>
        <time>2023-01-30T14:28:59.000Z</time>
      </trkpt>
      <trkpt lat="48.82042" lon="5.17844">
        <ele>252</ele>
        <time>2023-01-30T14:29:00.000Z</time>
      </trkpt>
      <trkpt lat="48.82042" lon="5.17846">
        <ele>252</ele>
        <time>2023-01-30T14:29:01.000Z</time>
      </trkpt>
      <trkpt lat="48.82043" lon="5.17848">
        <ele>252</ele>
        <time>2023-01-30T14:29:02.000Z</time>
      </trkpt>
      <trkpt lat="48.82043" lon="5.17849">
        <ele>252</ele>
        <time>2023-01-30T14:29:03.000Z</time>
      </trkpt>
      <trkpt lat="48.82042" lon="5.1785">
        <ele>252</ele>
        <time>2023-01-30T14:29:04.000Z</time>
      </trkpt>
      <trkpt lat="48.82042" lon="5.17851">
        <ele>252</ele>
        <time>2023-01-30T14:29:05.000Z</time>
      </trkpt>
      <trkpt lat="48.82042" lon="5.17852">
        <ele>252.5</ele>
        <time>2023-01-30T14:29:06.000Z</time>
      </trkpt>
      <trkpt lat="48.82041" lon="5.17853">
        <ele>253</ele>
        <time>2023-01-30T14:29:07.000Z</time>
      </trkpt>
      <trkpt lat="48.82041" lon="5.17854">
        <ele>252</ele>
        <time>2023-01-30T14:29:08.000Z</time>
      </trkpt>
      <trkpt lat="48.8204" lon="5.17855">
        <ele>252</ele>
        <time>2023-01-30T14:29:09.000Z</time>
      </trkpt>
      <trkpt lat="48.8204" lon="5.17856">
        <ele>252</ele>
        <time>2023-01-30T14:29:10.000Z</time>
      </trkpt>
      <trkpt lat="48.82039" lon="5.17856">
        <ele>252</ele>
        <time>2023-01-30T14:29:11.000Z</time>
      </trkpt>
      <trkpt lat="48.82039" lon="5.17857">
        <ele>252</ele>
        <time>2023-01-30T14:29:12.000Z</time>
      </trkpt>
      <trkpt lat="48.82039" lon="5.17858">
        <ele>252</ele>
        <time>2023-01-30T14:29:13.000Z</time>
      </trkpt>
      <trkpt lat="48.82038" lon="5.17859">
        <ele>252</ele>
        <time>2023-01-30T14:29:14.000Z</time>
      </trkpt>
      <trkpt lat="48.82037" lon="5.17859">
        <ele>252</ele>
        <time>2023-01-30T14:29:15.000Z</time>
      </trkpt>
      <trkpt lat="48.82037" lon="5.17861">
        <ele>251.5</ele>
        <time>2023-01-30T14:29:16.000Z</time>
      </trkpt>
      <trkpt lat="48.82036" lon="5.17862">
        <ele>251</ele>
        <time>2023-01-30T14:29:17.000Z</time>
      </trkpt>
      <trkpt lat="48.82035" lon="5.17863">
        <ele>251</ele>
        <time>2023-01-30T14:29:18.000Z</time>
      </trkpt>
      <trkpt lat="48.82035" lon="5.17865">
        <ele>251</ele>
        <time>2023-01-30T14:29:19.000Z</time>
      </trkpt>
      <trkpt lat="48.82034" lon="5.17867">
        <ele>251</ele>
        <time>2023-01-30T14:29:20.000Z</time>
      </trkpt>
      <trkpt lat="48.82034" lon="5.1787">
        <ele>251</ele>
        <time>2023-01-30T14:29:21.000Z</time>
      </trkpt>
      <trkpt lat="48.82032" lon="5.17873">
        <ele>251</ele>
        <time>2023-01-30T14:29:22.000Z</time>
      </trkpt>
      <trkpt lat="48.82031" lon="5.17876">
        <ele>251</ele>
        <time>2023-01-30T14:29:23.000Z</time>
      </trkpt>
      <trkpt lat="48.8203" lon="5.17877">
        <ele>251</ele>
        <time>2023-01-30T14:29:24.000Z</time>
      </trkpt>
      <trkpt lat="48.82028" lon="5.17879">
        <ele>251</ele>
        <time>2023-01-30T14:29:25.000Z</time>
      </trkpt>
      <trkpt lat="48.82027" lon="5.17881">
        <ele>251</ele>
        <time>2023-01-30T14:29:26.000Z</time>
      </trkpt>
      <trkpt lat="48.82025" lon="5.17883">
        <ele>251</ele>
        <time>2023-01-30T14:29:27.000Z</time>
      </trkpt>
      <trkpt lat="48.82023" lon="5.17885">
        <ele>251</ele>
        <time>2023-01-30T14:29:28.000Z</time>
      </trkpt>
      <trkpt lat="48.82021" lon="5.17887">
        <ele>251</ele>
        <time>2023-01-30T14:29:29.000Z</time>
      </trkpt>
      <trkpt lat="48.8202" lon="5.17887">
        <ele>251</ele>
        <time>2023-01-30T14:29:30.000Z</time>
      </trkpt>
      <trkpt lat="48.82018" lon="5.17888">
        <ele>251</ele>
        <time>2023-01-30T14:29:31.000Z</time>
      </trkpt>
      <trkpt lat="48.82016" lon="5.17888">
        <ele>251</ele>
        <time>2023-01-30T14:29:32.000Z</time>
      </trkpt>
      <trkpt lat="48.82014" lon="5.17888">
        <ele>251</ele>
        <time>2023-01-30T14:29:33.000Z</time>
      </trkpt>
      <trkpt lat="48.82012" lon="5.17888">
        <ele>251</ele>
        <time>2023-01-30T14:29:34.000Z</time>
      </trkpt>
      <trkpt lat="48.82011" lon="5.17888">
        <ele>251</ele>
        <time>2023-01-30T14:29:35.000Z</time>
      </trkpt>
      <trkpt lat="48.8201" lon="5.17889">
        <ele>251</ele>
        <time>2023-01-30T14:29:36.000Z</time>
      </trkpt>
      <trkpt lat="48.82009" lon="5.17891">
        <ele>251</ele>
        <time>2023-01-30T14:29:37.000Z</time>
      </trkpt>
      <trkpt lat="48.82009" lon="5.17893">
        <ele>251</ele>
        <time>2023-01-30T14:29:38.000Z</time>
      </trkpt>
      <trkpt lat="48.82008" lon="5.17895">
        <ele>251</ele>
        <time>2023-01-30T14:29:39.000Z</time>
      </trkpt>
      <trkpt lat="48.82008" lon="5.17897">
        <ele>251</ele>
        <time>2023-01-30T14:29:40.000Z</time>
      </trkpt>
      <trkpt lat="48.82007" lon="5.17899">
        <ele>251</ele>
        <time>2023-01-30T14:29:41.000Z</time>
      </trkpt>
      <trkpt lat="48.82007" lon="5.179">
        <ele>251</ele>
        <time>2023-01-30T14:29:42.000Z</time>
      </trkpt>
      <trkpt lat="48.82007" lon="5.17901">
        <ele>251</ele>
        <time>2023-01-30T14:29:43.000Z</time>
      </trkpt>
      <trkpt lat="48.82007" lon="5.17902">
        <ele>251</ele>
        <time>2023-01-30T14:29:44.000Z</time>
      </trkpt>
      <trkpt lat="48.82007" lon="5.17905">
        <ele>251</ele>
        <time>2023-01-30T14:29:45.000Z</time>
      </trkpt>
      <trkpt lat="48.82007" lon="5.17908">
        <ele>251</ele>
        <time>2023-01-30T14:29:46.000Z</time>
      </trkpt>
      <trkpt lat="48.82007" lon="5.17911">
        <ele>251</ele>
        <time>2023-01-30T14:29:47.000Z</time>
      </trkpt>
      <trkpt lat="48.82008" lon="5.17914">
        <ele>251</ele>
        <time>2023-01-30T14:29:48.000Z</time>
      </trkpt>
      <trkpt lat="48.82008" lon="5.17917">
        <ele>251</ele>
        <time>2023-01-30T14:29:49.000Z</time>
      </trkpt>
      <trkpt lat="48.82008" lon="5.17919">
        <ele>251</ele>
        <time>2023-01-30T14:29:50.000Z</time>
      </trkpt>
      <trkpt lat="48.82009" lon="5.17922">
        <ele>251</ele>
        <time>2023-01-30T14:29:51.000Z</time>
      </trkpt>
      <trkpt lat="48.82009" lon="5.17925">
        <ele>251.5</ele>
        <time>2023-01-30T14:29:52.000Z</time>
      </trkpt>
      <trkpt lat="48.82009" lon="5.17927">
        <ele>252</ele>
        <time>2023-01-30T14:29:53.000Z</time>
      </trkpt>
      <trkpt lat="48.82009" lon="5.1793">
        <ele>252</ele>
        <time>2023-01-30T14:29:54.000Z</time>
      </trkpt>
      <trkpt lat="48.82009" lon="5.17932">
        <ele>252</ele>
        <time>2023-01-30T14:29:55.000Z</time>
      </trkpt>
      <trkpt lat="48.82008" lon="5.17934">
        <ele>252</ele>
        <time>2023-01-30T14:29:56.000Z</time>
      </trkpt>
      <trkpt lat="48.82007" lon="5.17936">
        <ele>252</ele>
        <time>2023-01-30T14:29:57.000Z</time>
      </trkpt>
      <trkpt lat="48.82006" lon="5.17938">
        <ele>252</ele>
        <time>2023-01-30T14:29:58.000Z</time>
      </trkpt>
      <trkpt lat="48.82005" lon="5.17939">
        <ele>252</ele>
        <time>2023-01-30T14:29:59.000Z</time>
      </trkpt>
      <trkpt lat="48.82004" lon="5.17939">
        <ele>252</ele>
        <time>2023-01-30T14:30:00.000Z</time>
      </trkpt>
      <trkpt lat="48.82003" lon="5.1794">
        <ele>252</ele>
        <time>2023-01-30T14:30:01.000Z</time>
      </trkpt>
      <trkpt lat="48.82002" lon="5.1794">
        <ele>252</ele>
        <time>2023-01-30T14:30:02.000Z</time>
      </trkpt>
      <trkpt lat="48.82001" lon="5.17941">
        <ele>252</ele>
        <time>2023-01-30T14:30:03.000Z</time>
      </trkpt>
      <trkpt lat="48.82" lon="5.17941">
        <ele>252</ele>
        <time>2023-01-30T14:30:04.000Z</time>
      </trkpt>
      <trkpt lat="48.81999" lon="5.17941">
        <ele>252</ele>
        <time>2023-01-30T14:30:05.000Z</time>
      </trkpt>
      <trkpt lat="48.81998" lon="5.17942">
        <ele>252</ele>
        <time>2023-01-30T14:30:06.000Z</time>
      </trkpt>
      <trkpt lat="48.81997" lon="5.17943">
        <ele>252</ele>
        <time>2023-01-30T14:30:07.000Z</time>
      </trkpt>
      <trkpt lat="48.81997" lon="5.17944">
        <ele>252.5</ele>
        <time>2023-01-30T14:30:08.000Z</time>
      </trkpt>
      <trkpt lat="48.81996" lon="5.17946">
        <ele>253</ele>
        <time>2023-01-30T14:30:09.000Z</time>
      </trkpt>
      <trkpt lat="48.81995" lon="5.17947">
        <ele>253</ele>
        <time>2023-01-30T14:30:10.000Z</time>
      </trkpt>
      <trkpt lat="48.81994" lon="5.17949">
        <ele>253</ele>
        <time>2023-01-30T14:30:11.000Z</time>
      </trkpt>
      <trkpt lat="48.81993" lon="5.1795">
        <ele>253</ele>
        <time>2023-01-30T14:30:12.000Z</time>
      </trkpt>
      <trkpt lat="48.81993" lon="5.17951">
        <ele>253</ele>
        <time>2023-01-30T14:30:13.000Z</time>
      </trkpt>
      <trkpt lat="48.81992" lon="5.17952">
        <ele>254</ele>
        <time>2023-01-30T14:30:14.000Z</time>
      </trkpt>
      <trkpt lat="48.81992" lon="5.17953">
        <ele>254</ele>
        <time>2023-01-30T14:30:15.000Z</time>
      </trkpt>
      <trkpt lat="48.81992" lon="5.17954">
        <ele>254</ele>
        <time>2023-01-30T14:30:16.000Z</time>
      </trkpt>
      <trkpt lat="48.81991" lon="5.17956">
        <ele>254</ele>
        <time>2023-01-30T14:30:17.000Z</time>
      </trkpt>
      <trkpt lat="48.81991" lon="5.17958">
        <ele>254</ele>
        <time>2023-01-30T14:30:18.000Z</time>
      </trkpt>
      <trkpt lat="48.81991" lon="5.1796">
        <ele>254</ele>
        <time>2023-01-30T14:30:19.000Z</time>
      </trkpt>
      <trkpt lat="48.8199" lon="5.17963">
        <ele>254</ele>
        <time>2023-01-30T14:30:20.000Z</time>
      </trkpt>
      <trkpt lat="48.8199" lon="5.17965">
        <ele>254</ele>
        <time>2023-01-30T14:30:21.000Z</time>
      </trkpt>
      <trkpt lat="48.81989" lon="5.17968">
        <ele>254</ele>
        <time>2023-01-30T14:30:22.000Z</time>
      </trkpt>
      <trkpt lat="48.81989" lon="5.17969">
        <ele>254</ele>
        <time>2023-01-30T14:30:23.000Z</time>
      </trkpt>
      <trkpt lat="48.81989" lon="5.17971">
        <ele>254</ele>
        <time>2023-01-30T14:30:24.000Z</time>
      </trkpt>
      <trkpt lat="48.81989" lon="5.17972">
        <ele>254</ele>
        <time>2023-01-30T14:30:25.000Z</time>
      </trkpt>
      <trkpt lat="48.81989" lon="5.17974">
        <ele>254</ele>
        <time>2023-01-30T14:30:26.000Z</time>
      </trkpt>
      <trkpt lat="48.81989" lon="5.17977">
        <ele>254.3</ele>
        <time>2023-01-30T14:30:27.000Z</time>
      </trkpt>
      <trkpt lat="48.81989" lon="5.17979">
        <ele>254.7</ele>
        <time>2023-01-30T14:30:28.000Z</time>
      </trkpt>
      <trkpt lat="48.81989" lon="5.17982">
        <ele>255</ele>
        <time>2023-01-30T14:30:29.000Z</time>
      </trkpt>
      <trkpt lat="48.81989" lon="5.17984">
        <ele>255</ele>
        <time>2023-01-30T14:30:30.000Z</time>
      </trkpt>
      <trkpt lat="48.81989" lon="5.17986">
        <ele>255</ele>
        <time>2023-01-30T14:30:31.000Z</time>
      </trkpt>
      <trkpt lat="48.81989" lon="5.17989">
        <ele>255</ele>
        <time>2023-01-30T14:30:32.000Z</time>
      </trkpt>
      <trkpt lat="48.81989" lon="5.17993">
        <ele>255</ele>
        <time>2023-01-30T14:30:33.000Z</time>
      </trkpt>
      <trkpt lat="48.81989" lon="5.17997">
        <ele>255</ele>
        <time>2023-01-30T14:30:34.000Z</time>
      </trkpt>
      <trkpt lat="48.81989" lon="5.18">
        <ele>255</ele>
        <time>2023-01-30T14:30:35.000Z</time>
      </trkpt>
      <trkpt lat="48.8199" lon="5.18002">
        <ele>255</ele>
        <time>2023-01-30T14:30:36.000Z</time>
      </trkpt>
      <trkpt lat="48.81991" lon="5.18004">
        <ele>255</ele>
        <time>2023-01-30T14:30:37.000Z</time>
      </trkpt>
      <trkpt lat="48.81991" lon="5.18006">
        <ele>255</ele>
        <time>2023-01-30T14:30:38.000Z</time>
      </trkpt>
      <trkpt lat="48.81992" lon="5.18008">
        <ele>255</ele>
        <time>2023-01-30T14:30:39.000Z</time>
      </trkpt>
      <trkpt lat="48.81992" lon="5.18011">
        <ele>255</ele>
        <time>2023-01-30T14:30:40.000Z</time>
      </trkpt>
      <trkpt lat="48.81992" lon="5.18013">
        <ele>255</ele>
        <time>2023-01-30T14:30:41.000Z</time>
      </trkpt>
      <trkpt lat="48.81992" lon="5.18016">
        <ele>255</ele>
        <time>2023-01-30T14:30:42.000Z</time>
      </trkpt>
      <trkpt lat="48.81992" lon="5.18019">
        <ele>255</ele>
        <time>2023-01-30T14:30:43.000Z</time>
      </trkpt>
      <trkpt lat="48.81992" lon="5.18021">
        <ele>255</ele>
        <time>2023-01-30T14:30:44.000Z</time>
      </trkpt>
      <trkpt lat="48.81991" lon="5.18023">
        <ele>255</ele>
        <time>2023-01-30T14:30:45.000Z</time>
      </trkpt>
      <trkpt lat="48.81991" lon="5.18025">
        <ele>255</ele>
        <time>2023-01-30T14:30:46.000Z</time>
      </trkpt>
      <trkpt lat="48.8199" lon="5.18027">
        <ele>255</ele>
        <time>2023-01-30T14:30:47.000Z</time>
      </trkpt>
      <trkpt lat="48.8199" lon="5.18029">
        <ele>255</ele>
        <time>2023-01-30T14:30:48.000Z</time>
      </trkpt>
      <trkpt lat="48.81989" lon="5.18031">
        <ele>255</ele>
        <time>2023-01-30T14:30:49.000Z</time>
      </trkpt>
      <trkpt lat="48.81989" lon="5.18033">
        <ele>255</ele>
        <time>2023-01-30T14:30:50.000Z</time>
      </trkpt>
      <trkpt lat="48.81989" lon="5.18035">
        <ele>255</ele>
        <time>2023-01-30T14:30:51.000Z</time>
      </trkpt>
      <trkpt lat="48.81989" lon="5.18036">
        <ele>255</ele>
        <time>2023-01-30T14:30:52.000Z</time>
      </trkpt>
      <trkpt lat="48.81988" lon="5.18038">
        <ele>255.3</ele>
        <time>2023-01-30T14:30:53.000Z</time>
      </trkpt>
      <trkpt lat="48.81988" lon="5.1804">
        <ele>255.7</ele>
        <time>2023-01-30T14:30:54.000Z</time>
      </trkpt>
      <trkpt lat="48.81987" lon="5.18042">
        <ele>256</ele>
        <time>2023-01-30T14:30:55.000Z</time>
      </trkpt>
      <trkpt lat="48.81987" lon="5.18044">
        <ele>256</ele>
        <time>2023-01-30T14:30:56.000Z</time>
      </trkpt>
      <trkpt lat="48.81986" lon="5.18046">
        <ele>256</ele>
        <time>2023-01-30T14:30:57.000Z</time>
      </trkpt>
      <trkpt lat="48.81985" lon="5.18049">
        <ele>256</ele>
        <time>2023-01-30T14:30:58.000Z</time>
      </trkpt>
      <trkpt lat="48.81984" lon="5.18051">
        <ele>256</ele>
        <time>2023-01-30T14:30:59.000Z</time>
      </trkpt>
      <trkpt lat="48.81984" lon="5.18052">
        <ele>256</ele>
        <time>2023-01-30T14:31:00.000Z</time>
      </trkpt>
      <trkpt lat="48.81983" lon="5.18054">
        <ele>256</ele>
        <time>2023-01-30T14:31:01.000Z</time>
      </trkpt>
      <trkpt lat="48.81982" lon="5.18055">
        <ele>256</ele>
        <time>2023-01-30T14:31:02.000Z</time>
      </trkpt>
      <trkpt lat="48.81981" lon="5.18058">
        <ele>256</ele>
        <time>2023-01-30T14:31:03.000Z</time>
      </trkpt>
      <trkpt lat="48.8198" lon="5.18061">
        <ele>256</ele>
        <time>2023-01-30T14:31:04.000Z</time>
      </trkpt>
      <trkpt lat="48.81979" lon="5.18064">
        <ele>256</ele>
        <time>2023-01-30T14:31:05.000Z</time>
      </trkpt>
      <trkpt lat="48.81978" lon="5.18067">
        <ele>257</ele>
        <time>2023-01-30T14:31:06.000Z</time>
      </trkpt>
      <trkpt lat="48.81977" lon="5.18069">
        <ele>257</ele>
        <time>2023-01-30T14:31:07.000Z</time>
      </trkpt>
      <trkpt lat="48.81977" lon="5.18072">
        <ele>257</ele>
        <time>2023-01-30T14:31:08.000Z</time>
      </trkpt>
      <trkpt lat="48.81977" lon="5.18074">
        <ele>257</ele>
        <time>2023-01-30T14:31:09.000Z</time>
      </trkpt>
      <trkpt lat="48.81976" lon="5.18076">
        <ele>257</ele>
        <time>2023-01-30T14:31:10.000Z</time>
      </trkpt>
      <trkpt lat="48.81976" lon="5.18078">
        <ele>257</ele>
        <time>2023-01-30T14:31:11.000Z</time>
      </trkpt>
      <trkpt lat="48.81977" lon="5.18081">
        <ele>257</ele>
        <time>2023-01-30T14:31:12.000Z</time>
      </trkpt>
      <trkpt lat="48.81977" lon="5.18083">
        <ele>257</ele>
        <time>2023-01-30T14:31:13.000Z</time>
      </trkpt>
      <trkpt lat="48.81977" lon="5.18085">
        <ele>257</ele>
        <time>2023-01-30T14:31:14.000Z</time>
      </trkpt>
      <trkpt lat="48.81978" lon="5.18087">
        <ele>257</ele>
        <time>2023-01-30T14:31:15.000Z</time>
      </trkpt>
      <trkpt lat="48.81978" lon="5.18089">
        <ele>257</ele>
        <time>2023-01-30T14:31:16.000Z</time>
      </trkpt>
      <trkpt lat="48.81978" lon="5.1809">
        <ele>257</ele>
        <time>2023-01-30T14:31:17.000Z</time>
      </trkpt>
      <trkpt lat="48.81978" lon="5.18091">
        <ele>257</ele>
        <time>2023-01-30T14:31:18.000Z</time>
      </trkpt>
      <trkpt lat="48.81977" lon="5.18091">
        <ele>257</ele>
        <time>2023-01-30T14:31:19.000Z</time>
      </trkpt>
      <trkpt lat="48.81977" lon="5.18092">
        <ele>257</ele>
        <time>2023-01-30T14:31:20.000Z</time>
      </trkpt>
      <trkpt lat="48.81977" lon="5.18093">
        <ele>257</ele>
        <time>2023-01-30T14:31:21.000Z</time>
      </trkpt>
      <trkpt lat="48.81977" lon="5.18094">
        <ele>257</ele>
        <time>2023-01-30T14:31:22.000Z</time>
      </trkpt>
      <trkpt lat="48.81977" lon="5.18095">
        <ele>257</ele>
        <time>2023-01-30T14:31:23.000Z</time>
      </trkpt>
      <trkpt lat="48.81977" lon="5.18097">
        <ele>257</ele>
        <time>2023-01-30T14:31:24.000Z</time>
      </trkpt>
      <trkpt lat="48.81977" lon="5.18098">
        <ele>257</ele>
        <time>2023-01-30T14:31:25.000Z</time>
      </trkpt>
      <trkpt lat="48.81977" lon="5.181">
        <ele>257</ele>
        <time>2023-01-30T14:31:26.000Z</time>
      </trkpt>
      <trkpt lat="48.81976" lon="5.18102">
        <ele>258</ele>
        <time>2023-01-30T14:31:27.000Z</time>
      </trkpt>
      <trkpt lat="48.81976" lon="5.18104">
        <ele>258</ele>
        <time>2023-01-30T14:31:28.000Z</time>
      </trkpt>
      <trkpt lat="48.81975" lon="5.18106">
        <ele>258</ele>
        <time>2023-01-30T14:31:29.000Z</time>
      </trkpt>
      <trkpt lat="48.81974" lon="5.18109">
        <ele>258</ele>
        <time>2023-01-30T14:31:30.000Z</time>
      </trkpt>
      <trkpt lat="48.81974" lon="5.18111">
        <ele>258</ele>
        <time>2023-01-30T14:31:31.000Z</time>
      </trkpt>
      <trkpt lat="48.81973" lon="5.18112">
        <ele>258</ele>
        <time>2023-01-30T14:31:32.000Z</time>
      </trkpt>
      <trkpt lat="48.81972" lon="5.18114">
        <ele>258</ele>
        <time>2023-01-30T14:31:33.000Z</time>
      </trkpt>
      <trkpt lat="48.81972" lon="5.18116">
        <ele>258</ele>
        <time>2023-01-30T14:31:34.000Z</time>
      </trkpt>
      <trkpt lat="48.81971" lon="5.1812">
        <ele>258</ele>
        <time>2023-01-30T14:31:35.000Z</time>
      </trkpt>
      <trkpt lat="48.8197" lon="5.18123">
        <ele>258</ele>
        <time>2023-01-30T14:31:36.000Z</time>
      </trkpt>
      <trkpt lat="48.8197" lon="5.18125">
        <ele>258</ele>
        <time>2023-01-30T14:31:37.000Z</time>
      </trkpt>
      <trkpt lat="48.8197" lon="5.18127">
        <ele>258</ele>
        <time>2023-01-30T14:31:38.000Z</time>
      </trkpt>
      <trkpt lat="48.81969" lon="5.1813">
        <ele>258</ele>
        <time>2023-01-30T14:31:39.000Z</time>
      </trkpt>
      <trkpt lat="48.81969" lon="5.18133">
        <ele>258</ele>
        <time>2023-01-30T14:31:40.000Z</time>
      </trkpt>
      <trkpt lat="48.81968" lon="5.18136">
        <ele>258</ele>
        <time>2023-01-30T14:31:41.000Z</time>
      </trkpt>
      <trkpt lat="48.81968" lon="5.18138">
        <ele>258</ele>
        <time>2023-01-30T14:31:42.000Z</time>
      </trkpt>
      <trkpt lat="48.81967" lon="5.18141">
        <ele>258</ele>
        <time>2023-01-30T14:31:43.000Z</time>
      </trkpt>
      <trkpt lat="48.81966" lon="5.18144">
        <ele>258</ele>
        <time>2023-01-30T14:31:44.000Z</time>
      </trkpt>
      <trkpt lat="48.81966" lon="5.18146">
        <ele>258</ele>
        <time>2023-01-30T14:31:45.000Z</time>
      </trkpt>
      <trkpt lat="48.81965" lon="5.18148">
        <ele>258</ele>
        <time>2023-01-30T14:31:46.000Z</time>
      </trkpt>
      <trkpt lat="48.81964" lon="5.1815">
        <ele>258</ele>
        <time>2023-01-30T14:31:47.000Z</time>
      </trkpt>
      <trkpt lat="48.81963" lon="5.18152">
        <ele>258</ele>
        <time>2023-01-30T14:31:48.000Z</time>
      </trkpt>
      <trkpt lat="48.81962" lon="5.18154">
        <ele>258</ele>
        <time>2023-01-30T14:31:49.000Z</time>
      </trkpt>
      <trkpt lat="48.81961" lon="5.18155">
        <ele>258</ele>
        <time>2023-01-30T14:31:50.000Z</time>
      </trkpt>
      <trkpt lat="48.8196" lon="5.18155">
        <ele>258</ele>
        <time>2023-01-30T14:31:51.000Z</time>
      </trkpt>
      <trkpt lat="48.8196" lon="5.18156">
        <ele>258</ele>
        <time>2023-01-30T14:31:52.000Z</time>
      </trkpt>
      <trkpt lat="48.81959" lon="5.18156">
        <ele>258</ele>
        <time>2023-01-30T14:31:53.000Z</time>
      </trkpt>
      <trkpt lat="48.81958" lon="5.18156">
        <ele>258</ele>
        <time>2023-01-30T14:31:54.000Z</time>
      </trkpt>
      <trkpt lat="48.81957" lon="5.18156">
        <ele>258</ele>
        <time>2023-01-30T14:31:55.000Z</time>
      </trkpt>
      <trkpt lat="48.81957" lon="5.18157">
        <ele>258</ele>
        <time>2023-01-30T14:31:56.000Z</time>
      </trkpt>
      <trkpt lat="48.81956" lon="5.18158">
        <ele>258.5</ele>
        <time>2023-01-30T14:31:57.000Z</time>
      </trkpt>
      <trkpt lat="48.81955" lon="5.18159">
        <ele>259</ele>
        <time>2023-01-30T14:31:58.000Z</time>
      </trkpt>
      <trkpt lat="48.81955" lon="5.1816">
        <ele>259</ele>
        <time>2023-01-30T14:31:59.000Z</time>
      </trkpt>
      <trkpt lat="48.81954" lon="5.18161">
        <ele>259</ele>
        <time>2023-01-30T14:32:00.000Z</time>
      </trkpt>
      <trkpt lat="48.81954" lon="5.18162">
        <ele>259</ele>
        <time>2023-01-30T14:32:01.000Z</time>
      </trkpt>
      <trkpt lat="48.81953" lon="5.18162">
        <ele>259</ele>
        <time>2023-01-30T14:32:02.000Z</time>
      </trkpt>
      <trkpt lat="48.81953" lon="5.18164">
        <ele>259</ele>
        <time>2023-01-30T14:32:03.000Z</time>
      </trkpt>
      <trkpt lat="48.81952" lon="5.18166">
        <ele>259</ele>
        <time>2023-01-30T14:32:04.000Z</time>
      </trkpt>
      <trkpt lat="48.81951" lon="5.18168">
        <ele>259</ele>
        <time>2023-01-30T14:32:05.000Z</time>
      </trkpt>
      <trkpt lat="48.81951" lon="5.18171">
        <ele>259</ele>
        <time>2023-01-30T14:32:06.000Z</time>
      </trkpt>
      <trkpt lat="48.8195" lon="5.18173">
        <ele>259</ele>
        <time>2023-01-30T14:32:07.000Z</time>
      </trkpt>
      <trkpt lat="48.81949" lon="5.18176">
        <ele>259</ele>
        <time>2023-01-30T14:32:08.000Z</time>
      </trkpt>
      <trkpt lat="48.81948" lon="5.18178">
        <ele>259</ele>
        <time>2023-01-30T14:32:09.000Z</time>
      </trkpt>
      <trkpt lat="48.81947" lon="5.18179">
        <ele>259</ele>
        <time>2023-01-30T14:32:10.000Z</time>
      </trkpt>
      <trkpt lat="48.81946" lon="5.18181">
        <ele>259</ele>
        <time>2023-01-30T14:32:11.000Z</time>
      </trkpt>
      <trkpt lat="48.81946" lon="5.18181">
        <ele>259</ele>
        <time>2023-01-30T14:32:12.000Z</time>
      </trkpt>
      <trkpt lat="48.81946" lon="5.18182">
        <ele>259</ele>
        <time>2023-01-30T14:32:13.000Z</time>
      </trkpt>
      <trkpt lat="48.81946" lon="5.18182">
        <ele>258.7</ele>
        <time>2023-01-30T14:32:14.000Z</time>
      </trkpt>
      <trkpt lat="48.81946" lon="5.18182">
        <ele>258.3</ele>
        <time>2023-01-30T14:32:15.000Z</time>
      </trkpt>
      <trkpt lat="48.81946" lon="5.18183">
        <ele>258</ele>
        <time>2023-01-30T14:32:16.000Z</time>
      </trkpt>
      <trkpt lat="48.81946" lon="5.18184">
        <ele>258</ele>
        <time>2023-01-30T14:32:17.000Z</time>
      </trkpt>
      <trkpt lat="48.81945" lon="5.18185">
        <ele>258</ele>
        <time>2023-01-30T14:32:18.000Z</time>
      </trkpt>
      <trkpt lat="48.81945" lon="5.18187">
        <ele>258</ele>
        <time>2023-01-30T14:32:19.000Z</time>
      </trkpt>
      <trkpt lat="48.81945" lon="5.1819">
        <ele>258</ele>
        <time>2023-01-30T14:32:20.000Z</time>
      </trkpt>
      <trkpt lat="48.81944" lon="5.18193">
        <ele>258</ele>
        <time>2023-01-30T14:32:21.000Z</time>
      </trkpt>
      <trkpt lat="48.81943" lon="5.18195">
        <ele>258</ele>
        <time>2023-01-30T14:32:22.000Z</time>
      </trkpt>
      <trkpt lat="48.81943" lon="5.18196">
        <ele>258</ele>
        <time>2023-01-30T14:32:23.000Z</time>
      </trkpt>
      <trkpt lat="48.81942" lon="5.18198">
        <ele>258</ele>
        <time>2023-01-30T14:32:24.000Z</time>
      </trkpt>
      <trkpt lat="48.81942" lon="5.18198">
        <ele>258</ele>
        <time>2023-01-30T14:32:25.000Z</time>
      </trkpt>
      <trkpt lat="48.81941" lon="5.18199">
        <ele>258.3</ele>
        <time>2023-01-30T14:32:26.000Z</time>
      </trkpt>
      <trkpt lat="48.8194" lon="5.182">
        <ele>258.7</ele>
        <time>2023-01-30T14:32:27.000Z</time>
      </trkpt>
      <trkpt lat="48.81939" lon="5.18201">
        <ele>259</ele>
        <time>2023-01-30T14:32:28.000Z</time>
      </trkpt>
      <trkpt lat="48.81938" lon="5.18202">
        <ele>259</ele>
        <time>2023-01-30T14:32:29.000Z</time>
      </trkpt>
      <trkpt lat="48.81937" lon="5.18202">
        <ele>259</ele>
        <time>2023-01-30T14:32:30.000Z</time>
      </trkpt>
      <trkpt lat="48.81936" lon="5.18203">
        <ele>259</ele>
        <time>2023-01-30T14:32:31.000Z</time>
      </trkpt>
      <trkpt lat="48.81935" lon="5.18203">
        <ele>259</ele>
        <time>2023-01-30T14:32:32.000Z</time>
      </trkpt>
      <trkpt lat="48.81934" lon="5.18204">
        <ele>259</ele>
        <time>2023-01-30T14:32:33.000Z</time>
      </trkpt>
      <trkpt lat="48.81933" lon="5.18206">
        <ele>259.3</ele>
        <time>2023-01-30T14:32:34.000Z</time>
      </trkpt>
      <trkpt lat="48.81931" lon="5.18207">
        <ele>259.7</ele>
        <time>2023-01-30T14:32:35.000Z</time>
      </trkpt>
      <trkpt lat="48.8193" lon="5.18208">
        <ele>260</ele>
        <time>2023-01-30T14:32:36.000Z</time>
      </trkpt>
      <trkpt lat="48.81929" lon="5.18209">
        <ele>260</ele>
        <time>2023-01-30T14:32:37.000Z</time>
      </trkpt>
      <trkpt lat="48.81928" lon="5.1821">
        <ele>260</ele>
        <time>2023-01-30T14:32:38.000Z</time>
      </trkpt>
      <trkpt lat="48.81927" lon="5.18211">
        <ele>260</ele>
        <time>2023-01-30T14:32:39.000Z</time>
      </trkpt>
      <trkpt lat="48.81926" lon="5.18213">
        <ele>260</ele>
        <time>2023-01-30T14:32:40.000Z</time>
      </trkpt>
      <trkpt lat="48.81924" lon="5.18214">
        <ele>260</ele>
        <time>2023-01-30T14:32:41.000Z</time>
      </trkpt>
      <trkpt lat="48.81922" lon="5.18215">
        <ele>260.5</ele>
        <time>2023-01-30T14:32:42.000Z</time>
      </trkpt>
      <trkpt lat="48.81921" lon="5.18215">
        <ele>261</ele>
        <time>2023-01-30T14:32:43.000Z</time>
      </trkpt>
      <trkpt lat="48.8192" lon="5.18215">
        <ele>261</ele>
        <time>2023-01-30T14:32:44.000Z</time>
      </trkpt>
      <trkpt lat="48.81918" lon="5.18214">
        <ele>261</ele>
        <time>2023-01-30T14:32:45.000Z</time>
      </trkpt>
      <trkpt lat="48.81917" lon="5.18214">
        <ele>261</ele>
        <time>2023-01-30T14:32:46.000Z</time>
      </trkpt>
      <trkpt lat="48.81915" lon="5.18213">
        <ele>261</ele>
        <time>2023-01-30T14:32:47.000Z</time>
      </trkpt>
      <trkpt lat="48.81914" lon="5.18212">
        <ele>261</ele>
        <time>2023-01-30T14:32:48.000Z</time>
      </trkpt>
      <trkpt lat="48.81912" lon="5.18211">
        <ele>261</ele>
        <time>2023-01-30T14:32:49.000Z</time>
      </trkpt>
      <trkpt lat="48.81911" lon="5.1821">
        <ele>261</ele>
        <time>2023-01-30T14:32:50.000Z</time>
      </trkpt>
      <trkpt lat="48.8191" lon="5.18209">
        <ele>261</ele>
        <time>2023-01-30T14:32:51.000Z</time>
      </trkpt>
      <trkpt lat="48.8191" lon="5.18207">
        <ele>261</ele>
        <time>2023-01-30T14:32:52.000Z</time>
      </trkpt>
      <trkpt lat="48.81909" lon="5.18206">
        <ele>261</ele>
        <time>2023-01-30T14:32:53.000Z</time>
      </trkpt>
      <trkpt lat="48.81908" lon="5.18204">
        <ele>261</ele>
        <time>2023-01-30T14:32:54.000Z</time>
      </trkpt>
      <trkpt lat="48.81908" lon="5.18202">
        <ele>261</ele>
        <time>2023-01-30T14:32:55.000Z</time>
      </trkpt>
      <trkpt lat="48.81907" lon="5.182">
        <ele>261</ele>
        <time>2023-01-30T14:32:56.000Z</time>
      </trkpt>
      <trkpt lat="48.81907" lon="5.18198">
        <ele>261</ele>
        <time>2023-01-30T14:32:57.000Z</time>
      </trkpt>
      <trkpt lat="48.81907" lon="5.18197">
        <ele>261</ele>
        <time>2023-01-30T14:32:58.000Z</time>
      </trkpt>
      <trkpt lat="48.81907" lon="5.18196">
        <ele>261</ele>
        <time>2023-01-30T14:32:59.000Z</time>
      </trkpt>
      <trkpt lat="48.81907" lon="5.18194">
        <ele>261</ele>
        <time>2023-01-30T14:33:00.000Z</time>
      </trkpt>
      <trkpt lat="48.81908" lon="5.18193">
        <ele>261</ele>
        <time>2023-01-30T14:33:01.000Z</time>
      </trkpt>
      <trkpt lat="48.81908" lon="5.18191">
        <ele>261.5</ele>
        <time>2023-01-30T14:33:02.000Z</time>
      </trkpt>
      <trkpt lat="48.81907" lon="5.18188">
        <ele>262</ele>
        <time>2023-01-30T14:33:03.000Z</time>
      </trkpt>
      <trkpt lat="48.81907" lon="5.18186">
        <ele>261.7</ele>
        <time>2023-01-30T14:33:04.000Z</time>
      </trkpt>
      <trkpt lat="48.81906" lon="5.18184">
        <ele>261.3</ele>
        <time>2023-01-30T14:33:05.000Z</time>
      </trkpt>
      <trkpt lat="48.81906" lon="5.18182">
        <ele>261</ele>
        <time>2023-01-30T14:33:06.000Z</time>
      </trkpt>
      <trkpt lat="48.81905" lon="5.18179">
        <ele>262</ele>
        <time>2023-01-30T14:33:07.000Z</time>
      </trkpt>
      <trkpt lat="48.81905" lon="5.18177">
        <ele>262</ele>
        <time>2023-01-30T14:33:08.000Z</time>
      </trkpt>
      <trkpt lat="48.81905" lon="5.18175">
        <ele>262</ele>
        <time>2023-01-30T14:33:09.000Z</time>
      </trkpt>
      <trkpt lat="48.81906" lon="5.18173">
        <ele>262</ele>
        <time>2023-01-30T14:33:10.000Z</time>
      </trkpt>
      <trkpt lat="48.81906" lon="5.18171">
        <ele>262</ele>
        <time>2023-01-30T14:33:11.000Z</time>
      </trkpt>
      <trkpt lat="48.81907" lon="5.18169">
        <ele>262</ele>
        <time>2023-01-30T14:33:12.000Z</time>
      </trkpt>
      <trkpt lat="48.81908" lon="5.18168">
        <ele>262</ele>
        <time>2023-01-30T14:33:13.000Z</time>
      </trkpt>
      <trkpt lat="48.81909" lon="5.18167">
        <ele>262</ele>
        <time>2023-01-30T14:33:14.000Z</time>
      </trkpt>
      <trkpt lat="48.81909" lon="5.18166">
        <ele>262</ele>
        <time>2023-01-30T14:33:15.000Z</time>
      </trkpt>
      <trkpt lat="48.81909" lon="5.18165">
        <ele>262</ele>
        <time>2023-01-30T14:33:16.000Z</time>
      </trkpt>
      <trkpt lat="48.81908" lon="5.18165">
        <ele>262</ele>
        <time>2023-01-30T14:33:17.000Z</time>
      </trkpt>
      <trkpt lat="48.81908" lon="5.18164">
        <ele>262</ele>
        <time>2023-01-30T14:33:18.000Z</time>
      </trkpt>
      <trkpt lat="48.81907" lon="5.18163">
        <ele>261.5</ele>
        <time>2023-01-30T14:33:19.000Z</time>
      </trkpt>
      <trkpt lat="48.81906" lon="5.18161">
        <ele>261</ele>
        <time>2023-01-30T14:33:20.000Z</time>
      </trkpt>
      <trkpt lat="48.81906" lon="5.18158">
        <ele>261</ele>
        <time>2023-01-30T14:33:21.000Z</time>
      </trkpt>
      <trkpt lat="48.81906" lon="5.18155">
        <ele>261</ele>
        <time>2023-01-30T14:33:22.000Z</time>
      </trkpt>
      <trkpt lat="48.81905" lon="5.18153">
        <ele>261</ele>
        <time>2023-01-30T14:33:23.000Z</time>
      </trkpt>
      <trkpt lat="48.81905" lon="5.18151">
        <ele>261</ele>
        <time>2023-01-30T14:33:24.000Z</time>
      </trkpt>
      <trkpt lat="48.81904" lon="5.18148">
        <ele>261</ele>
        <time>2023-01-30T14:33:25.000Z</time>
      </trkpt>
      <trkpt lat="48.81904" lon="5.18146">
        <ele>261</ele>
        <time>2023-01-30T14:33:26.000Z</time>
      </trkpt>
      <trkpt lat="48.81903" lon="5.18143">
        <ele>261</ele>
        <time>2023-01-30T14:33:27.000Z</time>
      </trkpt>
      <trkpt lat="48.81902" lon="5.18141">
        <ele>261.3</ele>
        <time>2023-01-30T14:33:28.000Z</time>
      </trkpt>
      <trkpt lat="48.81901" lon="5.18139">
        <ele>261.7</ele>
        <time>2023-01-30T14:33:29.000Z</time>
      </trkpt>
      <trkpt lat="48.81901" lon="5.18136">
        <ele>262</ele>
        <time>2023-01-30T14:33:30.000Z</time>
      </trkpt>
      <trkpt lat="48.819" lon="5.18134">
        <ele>262</ele>
        <time>2023-01-30T14:33:31.000Z</time>
      </trkpt>
      <trkpt lat="48.81899" lon="5.18133">
        <ele>262</ele>
        <time>2023-01-30T14:33:32.000Z</time>
      </trkpt>
      <trkpt lat="48.81898" lon="5.18131">
        <ele>262</ele>
        <time>2023-01-30T14:33:33.000Z</time>
      </trkpt>
      <trkpt lat="48.81898" lon="5.1813">
        <ele>262</ele>
        <time>2023-01-30T14:33:34.000Z</time>
      </trkpt>
      <trkpt lat="48.81897" lon="5.18128">
        <ele>262</ele>
        <time>2023-01-30T14:33:35.000Z</time>
      </trkpt>
      <trkpt lat="48.81896" lon="5.18127">
        <ele>262</ele>
        <time>2023-01-30T14:33:36.000Z</time>
      </trkpt>
      <trkpt lat="48.81895" lon="5.18126">
        <ele>262</ele>
        <time>2023-01-30T14:33:37.000Z</time>
      </trkpt>
      <trkpt lat="48.81894" lon="5.18125">
        <ele>262</ele>
        <time>2023-01-30T14:33:38.000Z</time>
      </trkpt>
      <trkpt lat="48.81893" lon="5.18123">
        <ele>262</ele>
        <time>2023-01-30T14:33:39.000Z</time>
      </trkpt>
      <trkpt lat="48.81893" lon="5.18121">
        <ele>262</ele>
        <time>2023-01-30T14:33:40.000Z</time>
      </trkpt>
      <trkpt lat="48.81892" lon="5.1812">
        <ele>262</ele>
        <time>2023-01-30T14:33:41.000Z</time>
      </trkpt>
      <trkpt lat="48.81891" lon="5.18119">
        <ele>262</ele>
        <time>2023-01-30T14:33:42.000Z</time>
      </trkpt>
      <trkpt lat="48.8189" lon="5.18118">
        <ele>262</ele>
        <time>2023-01-30T14:33:43.000Z</time>
      </trkpt>
      <trkpt lat="48.8189" lon="5.18116">
        <ele>262</ele>
        <time>2023-01-30T14:33:44.000Z</time>
      </trkpt>
      <trkpt lat="48.81889" lon="5.18114">
        <ele>262</ele>
        <time>2023-01-30T14:33:45.000Z</time>
      </trkpt>
      <trkpt lat="48.81888" lon="5.18113">
        <ele>262</ele>
        <time>2023-01-30T14:33:46.000Z</time>
      </trkpt>
      <trkpt lat="48.81887" lon="5.18111">
        <ele>262</ele>
        <time>2023-01-30T14:33:47.000Z</time>
      </trkpt>
      <trkpt lat="48.81886" lon="5.1811">
        <ele>262</ele>
        <time>2023-01-30T14:33:48.000Z</time>
      </trkpt>
      <trkpt lat="48.81885" lon="5.18109">
        <ele>262</ele>
        <time>2023-01-30T14:33:49.000Z</time>
      </trkpt>
      <trkpt lat="48.81884" lon="5.18108">
        <ele>262</ele>
        <time>2023-01-30T14:33:50.000Z</time>
      </trkpt>
      <trkpt lat="48.81883" lon="5.18107">
        <ele>262</ele>
        <time>2023-01-30T14:33:51.000Z</time>
      </trkpt>
      <trkpt lat="48.81883" lon="5.18107">
        <ele>262.3</ele>
        <time>2023-01-30T14:33:52.000Z</time>
      </trkpt>
      <trkpt lat="48.81882" lon="5.18107">
        <ele>262.7</ele>
        <time>2023-01-30T14:33:53.000Z</time>
      </trkpt>
      <trkpt lat="48.81881" lon="5.18106">
        <ele>263</ele>
        <time>2023-01-30T14:33:54.000Z</time>
      </trkpt>
      <trkpt lat="48.8188" lon="5.18106">
        <ele>263</ele>
        <time>2023-01-30T14:33:55.000Z</time>
      </trkpt>
      <trkpt lat="48.81879" lon="5.18106">
        <ele>263</ele>
        <time>2023-01-30T14:33:56.000Z</time>
      </trkpt>
      <trkpt lat="48.81879" lon="5.18106">
        <ele>263</ele>
        <time>2023-01-30T14:33:57.000Z</time>
      </trkpt>
      <trkpt lat="48.81878" lon="5.18106">
        <ele>263</ele>
        <time>2023-01-30T14:33:58.000Z</time>
      </trkpt>
      <trkpt lat="48.81877" lon="5.18105">
        <ele>263</ele>
        <time>2023-01-30T14:33:59.000Z</time>
      </trkpt>
      <trkpt lat="48.81875" lon="5.18105">
        <ele>263</ele>
        <time>2023-01-30T14:34:00.000Z</time>
      </trkpt>
      <trkpt lat="48.81874" lon="5.18104">
        <ele>263</ele>
        <time>2023-01-30T14:34:01.000Z</time>
      </trkpt>
      <trkpt lat="48.81873" lon="5.18104">
        <ele>263</ele>
        <time>2023-01-30T14:34:02.000Z</time>
      </trkpt>
      <trkpt lat="48.81871" lon="5.18103">
        <ele>263</ele>
        <time>2023-01-30T14:34:03.000Z</time>
      </trkpt>
      <trkpt lat="48.8187" lon="5.18103">
        <ele>263</ele>
        <time>2023-01-30T14:34:04.000Z</time>
      </trkpt>
      <trkpt lat="48.81869" lon="5.18102">
        <ele>263</ele>
        <time>2023-01-30T14:34:05.000Z</time>
      </trkpt>
      <trkpt lat="48.81868" lon="5.18102">
        <ele>263</ele>
        <time>2023-01-30T14:34:06.000Z</time>
      </trkpt>
      <trkpt lat="48.81867" lon="5.18101">
        <ele>263</ele>
        <time>2023-01-30T14:34:07.000Z</time>
      </trkpt>
      <trkpt lat="48.81865" lon="5.181">
        <ele>263</ele>
        <time>2023-01-30T14:34:08.000Z</time>
      </trkpt>
      <trkpt lat="48.81863" lon="5.181">
        <ele>263</ele>
        <time>2023-01-30T14:34:09.000Z</time>
      </trkpt>
      <trkpt lat="48.81861" lon="5.18099">
        <ele>263</ele>
        <time>2023-01-30T14:34:10.000Z</time>
      </trkpt>
      <trkpt lat="48.8186" lon="5.18099">
        <ele>263</ele>
        <time>2023-01-30T14:34:11.000Z</time>
      </trkpt>
      <trkpt lat="48.81858" lon="5.18098">
        <ele>263</ele>
        <time>2023-01-30T14:34:12.000Z</time>
      </trkpt>
      <trkpt lat="48.81857" lon="5.18098">
        <ele>263</ele>
        <time>2023-01-30T14:34:13.000Z</time>
      </trkpt>
      <trkpt lat="48.81855" lon="5.18098">
        <ele>263</ele>
        <time>2023-01-30T14:34:14.000Z</time>
      </trkpt>
      <trkpt lat="48.81853" lon="5.18097">
        <ele>263</ele>
        <time>2023-01-30T14:34:15.000Z</time>
      </trkpt>
      <trkpt lat="48.81851" lon="5.18097">
        <ele>263</ele>
        <time>2023-01-30T14:34:16.000Z</time>
      </trkpt>
      <trkpt lat="48.81849" lon="5.18097">
        <ele>263</ele>
        <time>2023-01-30T14:34:17.000Z</time>
      </trkpt>
      <trkpt lat="48.81847" lon="5.18096">
        <ele>263</ele>
        <time>2023-01-30T14:34:18.000Z</time>
      </trkpt>
      <trkpt lat="48.81846" lon="5.18095">
        <ele>263</ele>
        <time>2023-01-30T14:34:19.000Z</time>
      </trkpt>
      <trkpt lat="48.81844" lon="5.18095">
        <ele>263</ele>
        <time>2023-01-30T14:34:20.000Z</time>
      </trkpt>
      <trkpt lat="48.81842" lon="5.18094">
        <ele>263</ele>
        <time>2023-01-30T14:34:21.000Z</time>
      </trkpt>
      <trkpt lat="48.8184" lon="5.18093">
        <ele>263</ele>
        <time>2023-01-30T14:34:22.000Z</time>
      </trkpt>
      <trkpt lat="48.81838" lon="5.18092">
        <ele>263</ele>
        <time>2023-01-30T14:34:23.000Z</time>
      </trkpt>
      <trkpt lat="48.81837" lon="5.18091">
        <ele>263</ele>
        <time>2023-01-30T14:34:24.000Z</time>
      </trkpt>
      <trkpt lat="48.81835" lon="5.1809">
        <ele>263</ele>
        <time>2023-01-30T14:34:25.000Z</time>
      </trkpt>
      <trkpt lat="48.81833" lon="5.1809">
        <ele>263</ele>
        <time>2023-01-30T14:34:26.000Z</time>
      </trkpt>
      <trkpt lat="48.81831" lon="5.1809">
        <ele>263</ele>
        <time>2023-01-30T14:34:27.000Z</time>
      </trkpt>
      <trkpt lat="48.8183" lon="5.1809">
        <ele>263</ele>
        <time>2023-01-30T14:34:28.000Z</time>
      </trkpt>
      <trkpt lat="48.81828" lon="5.18091">
        <ele>263</ele>
        <time>2023-01-30T14:34:29.000Z</time>
      </trkpt>
      <trkpt lat="48.81827" lon="5.18092">
        <ele>263</ele>
        <time>2023-01-30T14:34:30.000Z</time>
      </trkpt>
      <trkpt lat="48.81825" lon="5.18093">
        <ele>263</ele>
        <time>2023-01-30T14:34:31.000Z</time>
      </trkpt>
      <trkpt lat="48.81824" lon="5.18095">
        <ele>263</ele>
        <time>2023-01-30T14:34:32.000Z</time>
      </trkpt>
      <trkpt lat="48.81823" lon="5.18096">
        <ele>263</ele>
        <time>2023-01-30T14:34:33.000Z</time>
      </trkpt>
      <trkpt lat="48.81823" lon="5.18097">
        <ele>263</ele>
        <time>2023-01-30T14:34:34.000Z</time>
      </trkpt>
      <trkpt lat="48.81822" lon="5.18098">
        <ele>263</ele>
        <time>2023-01-30T14:34:35.000Z</time>
      </trkpt>
      <trkpt lat="48.81821" lon="5.18098">
        <ele>263</ele>
        <time>2023-01-30T14:34:36.000Z</time>
      </trkpt>
      <trkpt lat="48.8182" lon="5.18098">
        <ele>263</ele>
        <time>2023-01-30T14:34:37.000Z</time>
      </trkpt>
      <trkpt lat="48.81819" lon="5.18098">
        <ele>263.3</ele>
        <time>2023-01-30T14:34:38.000Z</time>
      </trkpt>
      <trkpt lat="48.81818" lon="5.18097">
        <ele>263.7</ele>
        <time>2023-01-30T14:34:39.000Z</time>
      </trkpt>
      <trkpt lat="48.81817" lon="5.18097">
        <ele>264</ele>
        <time>2023-01-30T14:34:40.000Z</time>
      </trkpt>
      <trkpt lat="48.81817" lon="5.18097">
        <ele>264</ele>
        <time>2023-01-30T14:34:41.000Z</time>
      </trkpt>
      <trkpt lat="48.81816" lon="5.18097">
        <ele>263.5</ele>
        <time>2023-01-30T14:34:42.000Z</time>
      </trkpt>
      <trkpt lat="48.81816" lon="5.18096">
        <ele>263</ele>
        <time>2023-01-30T14:34:43.000Z</time>
      </trkpt>
      <trkpt lat="48.81816" lon="5.18096">
        <ele>263</ele>
        <time>2023-01-30T14:34:44.000Z</time>
      </trkpt>
      <trkpt lat="48.81815" lon="5.18095">
        <ele>263</ele>
        <time>2023-01-30T14:34:45.000Z</time>
      </trkpt>
      <trkpt lat="48.81815" lon="5.18094">
        <ele>263</ele>
        <time>2023-01-30T14:34:46.000Z</time>
      </trkpt>
      <trkpt lat="48.81814" lon="5.18093">
        <ele>263</ele>
        <time>2023-01-30T14:34:47.000Z</time>
      </trkpt>
      <trkpt lat="48.81813" lon="5.18092">
        <ele>263</ele>
        <time>2023-01-30T14:34:48.000Z</time>
      </trkpt>
      <trkpt lat="48.81811" lon="5.1809">
        <ele>263</ele>
        <time>2023-01-30T14:34:49.000Z</time>
      </trkpt>
      <trkpt lat="48.81809" lon="5.18088">
        <ele>263</ele>
        <time>2023-01-30T14:34:50.000Z</time>
      </trkpt>
      <trkpt lat="48.81808" lon="5.18087">
        <ele>263</ele>
        <time>2023-01-30T14:34:51.000Z</time>
      </trkpt>
      <trkpt lat="48.81806" lon="5.18085">
        <ele>263</ele>
        <time>2023-01-30T14:34:52.000Z</time>
      </trkpt>
      <trkpt lat="48.81805" lon="5.18083">
        <ele>263</ele>
        <time>2023-01-30T14:34:53.000Z</time>
      </trkpt>
      <trkpt lat="48.81803" lon="5.18081">
        <ele>263</ele>
        <time>2023-01-30T14:34:54.000Z</time>
      </trkpt>
      <trkpt lat="48.81802" lon="5.18079">
        <ele>263</ele>
        <time>2023-01-30T14:34:55.000Z</time>
      </trkpt>
      <trkpt lat="48.818" lon="5.18078">
        <ele>263</ele>
        <time>2023-01-30T14:34:56.000Z</time>
      </trkpt>
      <trkpt lat="48.81799" lon="5.18076">
        <ele>263</ele>
        <time>2023-01-30T14:34:57.000Z</time>
      </trkpt>
      <trkpt lat="48.81797" lon="5.18076">
        <ele>263</ele>
        <time>2023-01-30T14:34:58.000Z</time>
      </trkpt>
      <trkpt lat="48.81796" lon="5.18075">
        <ele>263</ele>
        <time>2023-01-30T14:34:59.000Z</time>
      </trkpt>
      <trkpt lat="48.81795" lon="5.18074">
        <ele>263</ele>
        <time>2023-01-30T14:35:00.000Z</time>
      </trkpt>
      <trkpt lat="48.81794" lon="5.18074">
        <ele>263</ele>
        <time>2023-01-30T14:35:01.000Z</time>
      </trkpt>
      <trkpt lat="48.81793" lon="5.18074">
        <ele>263</ele>
        <time>2023-01-30T14:35:02.000Z</time>
      </trkpt>
      <trkpt lat="48.81792" lon="5.18074">
        <ele>263</ele>
        <time>2023-01-30T14:35:03.000Z</time>
      </trkpt>
      <trkpt lat="48.81792" lon="5.18075">
        <ele>263</ele>
        <time>2023-01-30T14:35:04.000Z</time>
      </trkpt>
      <trkpt lat="48.81791" lon="5.18075">
        <ele>263</ele>
        <time>2023-01-30T14:35:05.000Z</time>
      </trkpt>
      <trkpt lat="48.8179" lon="5.18075">
        <ele>263</ele>
        <time>2023-01-30T14:35:06.000Z</time>
      </trkpt>
      <trkpt lat="48.81789" lon="5.18075">
        <ele>263</ele>
        <time>2023-01-30T14:35:07.000Z</time>
      </trkpt>
      <trkpt lat="48.81788" lon="5.18075">
        <ele>263</ele>
        <time>2023-01-30T14:35:08.000Z</time>
      </trkpt>
      <trkpt lat="48.81786" lon="5.18074">
        <ele>262</ele>
        <time>2023-01-30T14:35:09.000Z</time>
      </trkpt>
      <trkpt lat="48.81784" lon="5.18073">
        <ele>262</ele>
        <time>2023-01-30T14:35:10.000Z</time>
      </trkpt>
      <trkpt lat="48.81783" lon="5.18072">
        <ele>262</ele>
        <time>2023-01-30T14:35:11.000Z</time>
      </trkpt>
      <trkpt lat="48.81781" lon="5.18071">
        <ele>262</ele>
        <time>2023-01-30T14:35:12.000Z</time>
      </trkpt>
      <trkpt lat="48.81779" lon="5.18071">
        <ele>262</ele>
        <time>2023-01-30T14:35:13.000Z</time>
      </trkpt>
      <trkpt lat="48.81777" lon="5.18071">
        <ele>262</ele>
        <time>2023-01-30T14:35:14.000Z</time>
      </trkpt>
      <trkpt lat="48.81775" lon="5.1807">
        <ele>262</ele>
        <time>2023-01-30T14:35:15.000Z</time>
      </trkpt>
      <trkpt lat="48.81774" lon="5.1807">
        <ele>262</ele>
        <time>2023-01-30T14:35:16.000Z</time>
      </trkpt>
      <trkpt lat="48.81772" lon="5.18069">
        <ele>262</ele>
        <time>2023-01-30T14:35:17.000Z</time>
      </trkpt>
      <trkpt lat="48.8177" lon="5.18068">
        <ele>262</ele>
        <time>2023-01-30T14:35:18.000Z</time>
      </trkpt>
      <trkpt lat="48.81769" lon="5.18067">
        <ele>262</ele>
        <time>2023-01-30T14:35:19.000Z</time>
      </trkpt>
      <trkpt lat="48.81767" lon="5.18065">
        <ele>262</ele>
        <time>2023-01-30T14:35:20.000Z</time>
      </trkpt>
      <trkpt lat="48.81766" lon="5.18065">
        <ele>262</ele>
        <time>2023-01-30T14:35:21.000Z</time>
      </trkpt>
      <trkpt lat="48.81764" lon="5.18064">
        <ele>262</ele>
        <time>2023-01-30T14:35:22.000Z</time>
      </trkpt>
      <trkpt lat="48.81763" lon="5.18064">
        <ele>262</ele>
        <time>2023-01-30T14:35:23.000Z</time>
      </trkpt>
      <trkpt lat="48.81761" lon="5.18064">
        <ele>262</ele>
        <time>2023-01-30T14:35:24.000Z</time>
      </trkpt>
      <trkpt lat="48.8176" lon="5.18065">
        <ele>262</ele>
        <time>2023-01-30T14:35:25.000Z</time>
      </trkpt>
      <trkpt lat="48.81758" lon="5.18065">
        <ele>262</ele>
        <time>2023-01-30T14:35:26.000Z</time>
      </trkpt>
      <trkpt lat="48.81757" lon="5.18065">
        <ele>262</ele>
        <time>2023-01-30T14:35:27.000Z</time>
      </trkpt>
      <trkpt lat="48.81755" lon="5.18065">
        <ele>262</ele>
        <time>2023-01-30T14:35:28.000Z</time>
      </trkpt>
      <trkpt lat="48.81754" lon="5.18065">
        <ele>262</ele>
        <time>2023-01-30T14:35:29.000Z</time>
      </trkpt>
      <trkpt lat="48.81753" lon="5.18065">
        <ele>262</ele>
        <time>2023-01-30T14:35:30.000Z</time>
      </trkpt>
      <trkpt lat="48.81752" lon="5.18065">
        <ele>262</ele>
        <time>2023-01-30T14:35:31.000Z</time>
      </trkpt>
      <trkpt lat="48.81751" lon="5.18065">
        <ele>262</ele>
        <time>2023-01-30T14:35:32.000Z</time>
      </trkpt>
      <trkpt lat="48.8175" lon="5.18064">
        <ele>262</ele>
        <time>2023-01-30T14:35:33.000Z</time>
      </trkpt>
      <trkpt lat="48.81748" lon="5.18064">
        <ele>262</ele>
        <time>2023-01-30T14:35:34.000Z</time>
      </trkpt>
      <trkpt lat="48.81747" lon="5.18063">
        <ele>262</ele>
        <time>2023-01-30T14:35:35.000Z</time>
      </trkpt>
      <trkpt lat="48.81746" lon="5.18062">
        <ele>262</ele>
        <time>2023-01-30T14:35:36.000Z</time>
      </trkpt>
      <trkpt lat="48.81745" lon="5.18062">
        <ele>262</ele>
        <time>2023-01-30T14:35:37.000Z</time>
      </trkpt>
      <trkpt lat="48.81743" lon="5.18062">
        <ele>262</ele>
        <time>2023-01-30T14:35:38.000Z</time>
      </trkpt>
      <trkpt lat="48.81741" lon="5.18061">
        <ele>262</ele>
        <time>2023-01-30T14:35:39.000Z</time>
      </trkpt>
      <trkpt lat="48.81739" lon="5.1806">
        <ele>262</ele>
        <time>2023-01-30T14:35:40.000Z</time>
      </trkpt>
      <trkpt lat="48.81738" lon="5.1806">
        <ele>262</ele>
        <time>2023-01-30T14:35:41.000Z</time>
      </trkpt>
      <trkpt lat="48.81737" lon="5.1806">
        <ele>262</ele>
        <time>2023-01-30T14:35:42.000Z</time>
      </trkpt>
      <trkpt lat="48.81736" lon="5.1806">
        <ele>262</ele>
        <time>2023-01-30T14:35:43.000Z</time>
      </trkpt>
      <trkpt lat="48.81735" lon="5.1806">
        <ele>262</ele>
        <time>2023-01-30T14:35:44.000Z</time>
      </trkpt>
      <trkpt lat="48.81734" lon="5.1806">
        <ele>262</ele>
        <time>2023-01-30T14:35:45.000Z</time>
      </trkpt>
      <trkpt lat="48.81733" lon="5.1806">
        <ele>262</ele>
        <time>2023-01-30T14:35:46.000Z</time>
      </trkpt>
      <trkpt lat="48.81731" lon="5.1806">
        <ele>262</ele>
        <time>2023-01-30T14:35:47.000Z</time>
      </trkpt>
      <trkpt lat="48.8173" lon="5.18061">
        <ele>262</ele>
        <time>2023-01-30T14:35:48.000Z</time>
      </trkpt>
      <trkpt lat="48.81729" lon="5.18061">
        <ele>262</ele>
        <time>2023-01-30T14:35:49.000Z</time>
      </trkpt>
      <trkpt lat="48.81728" lon="5.18061">
        <ele>262</ele>
        <time>2023-01-30T14:35:50.000Z</time>
      </trkpt>
      <trkpt lat="48.81728" lon="5.18062">
        <ele>262</ele>
        <time>2023-01-30T14:35:51.000Z</time>
      </trkpt>
      <trkpt lat="48.81727" lon="5.18062">
        <ele>262</ele>
        <time>2023-01-30T14:35:52.000Z</time>
      </trkpt>
      <trkpt lat="48.81726" lon="5.18062">
        <ele>262</ele>
        <time>2023-01-30T14:35:53.000Z</time>
      </trkpt>
      <trkpt lat="48.81725" lon="5.18063">
        <ele>262</ele>
        <time>2023-01-30T14:35:54.000Z</time>
      </trkpt>
      <trkpt lat="48.81724" lon="5.18063">
        <ele>262</ele>
        <time>2023-01-30T14:35:55.000Z</time>
      </trkpt>
      <trkpt lat="48.81723" lon="5.18064">
        <ele>262.3</ele>
        <time>2023-01-30T14:35:56.000Z</time>
      </trkpt>
      <trkpt lat="48.81722" lon="5.18065">
        <ele>262.7</ele>
        <time>2023-01-30T14:35:57.000Z</time>
      </trkpt>
      <trkpt lat="48.81721" lon="5.18066">
        <ele>263</ele>
        <time>2023-01-30T14:35:58.000Z</time>
      </trkpt>
      <trkpt lat="48.8172" lon="5.18067">
        <ele>263</ele>
        <time>2023-01-30T14:35:59.000Z</time>
      </trkpt>
      <trkpt lat="48.8172" lon="5.18068">
        <ele>263</ele>
        <time>2023-01-30T14:36:00.000Z</time>
      </trkpt>
      <trkpt lat="48.81719" lon="5.1807">
        <ele>263</ele>
        <time>2023-01-30T14:36:01.000Z</time>
      </trkpt>
      <trkpt lat="48.81718" lon="5.18071">
        <ele>263.3</ele>
        <time>2023-01-30T14:36:02.000Z</time>
      </trkpt>
      <trkpt lat="48.81718" lon="5.18073">
        <ele>263.7</ele>
        <time>2023-01-30T14:36:03.000Z</time>
      </trkpt>
      <trkpt lat="48.81718" lon="5.18074">
        <ele>264</ele>
        <time>2023-01-30T14:36:04.000Z</time>
      </trkpt>
      <trkpt lat="48.81718" lon="5.18076">
        <ele>264</ele>
        <time>2023-01-30T14:36:05.000Z</time>
      </trkpt>
      <trkpt lat="48.81718" lon="5.18077">
        <ele>264</ele>
        <time>2023-01-30T14:36:06.000Z</time>
      </trkpt>
      <trkpt lat="48.81718" lon="5.18079">
        <ele>264</ele>
        <time>2023-01-30T14:36:07.000Z</time>
      </trkpt>
      <trkpt lat="48.81719" lon="5.1808">
        <ele>264</ele>
        <time>2023-01-30T14:36:08.000Z</time>
      </trkpt>
      <trkpt lat="48.81719" lon="5.18081">
        <ele>264</ele>
        <time>2023-01-30T14:36:09.000Z</time>
      </trkpt>
      <trkpt lat="48.81719" lon="5.18082">
        <ele>264</ele>
        <time>2023-01-30T14:36:10.000Z</time>
      </trkpt>
      <trkpt lat="48.8172" lon="5.18083">
        <ele>264</ele>
        <time>2023-01-30T14:36:11.000Z</time>
      </trkpt>
      <trkpt lat="48.81721" lon="5.18084">
        <ele>264</ele>
        <time>2023-01-30T14:36:12.000Z</time>
      </trkpt>
      <trkpt lat="48.81721" lon="5.18085">
        <ele>264</ele>
        <time>2023-01-30T14:36:13.000Z</time>
      </trkpt>
      <trkpt lat="48.81722" lon="5.18087">
        <ele>264</ele>
        <time>2023-01-30T14:36:14.000Z</time>
      </trkpt>
      <trkpt lat="48.81722" lon="5.18088">
        <ele>264</ele>
        <time>2023-01-30T14:36:15.000Z</time>
      </trkpt>
      <trkpt lat="48.81722" lon="5.18089">
        <ele>264</ele>
        <time>2023-01-30T14:36:16.000Z</time>
      </trkpt>
      <trkpt lat="48.81723" lon="5.1809">
        <ele>264</ele>
        <time>2023-01-30T14:36:17.000Z</time>
      </trkpt>
      <trkpt lat="48.81723" lon="5.18092">
        <ele>264</ele>
        <time>2023-01-30T14:36:18.000Z</time>
      </trkpt>
      <trkpt lat="48.81724" lon="5.18093">
        <ele>264</ele>
        <time>2023-01-30T14:36:19.000Z</time>
      </trkpt>
      <trkpt lat="48.81724" lon="5.18095">
        <ele>264</ele>
        <time>2023-01-30T14:36:20.000Z</time>
      </trkpt>
      <trkpt lat="48.81725" lon="5.18096">
        <ele>264</ele>
        <time>2023-01-30T14:36:21.000Z</time>
      </trkpt>
      <trkpt lat="48.81725" lon="5.18098">
        <ele>264</ele>
        <time>2023-01-30T14:36:22.000Z</time>
      </trkpt>
      <trkpt lat="48.81726" lon="5.181">
        <ele>264</ele>
        <time>2023-01-30T14:36:23.000Z</time>
      </trkpt>
      <trkpt lat="48.81727" lon="5.18102">
        <ele>264</ele>
        <time>2023-01-30T14:36:24.000Z</time>
      </trkpt>
      <trkpt lat="48.81728" lon="5.18104">
        <ele>264</ele>
        <time>2023-01-30T14:36:25.000Z</time>
      </trkpt>
      <trkpt lat="48.81729" lon="5.18106">
        <ele>264</ele>
        <time>2023-01-30T14:36:26.000Z</time>
      </trkpt>
      <trkpt lat="48.81729" lon="5.18108">
        <ele>264</ele>
        <time>2023-01-30T14:36:27.000Z</time>
      </trkpt>
      <trkpt lat="48.8173" lon="5.1811">
        <ele>264</ele>
        <time>2023-01-30T14:36:28.000Z</time>
      </trkpt>
      <trkpt lat="48.81731" lon="5.18112">
        <ele>264.5</ele>
        <time>2023-01-30T14:36:29.000Z</time>
      </trkpt>
      <trkpt lat="48.81732" lon="5.18115">
        <ele>265</ele>
        <time>2023-01-30T14:36:30.000Z</time>
      </trkpt>
      <trkpt lat="48.81733" lon="5.18117">
        <ele>265</ele>
        <time>2023-01-30T14:36:31.000Z</time>
      </trkpt>
      <trkpt lat="48.81734" lon="5.18119">
        <ele>265</ele>
        <time>2023-01-30T14:36:32.000Z</time>
      </trkpt>
      <trkpt lat="48.81735" lon="5.18121">
        <ele>265</ele>
        <time>2023-01-30T14:36:33.000Z</time>
      </trkpt>
      <trkpt lat="48.81736" lon="5.18122">
        <ele>265</ele>
        <time>2023-01-30T14:36:34.000Z</time>
      </trkpt>
      <trkpt lat="48.81736" lon="5.18124">
        <ele>265</ele>
        <time>2023-01-30T14:36:35.000Z</time>
      </trkpt>
      <trkpt lat="48.81737" lon="5.18126">
        <ele>265</ele>
        <time>2023-01-30T14:36:36.000Z</time>
      </trkpt>
      <trkpt lat="48.81738" lon="5.18127">
        <ele>265</ele>
        <time>2023-01-30T14:36:37.000Z</time>
      </trkpt>
      <trkpt lat="48.81738" lon="5.18129">
        <ele>265.3</ele>
        <time>2023-01-30T14:36:38.000Z</time>
      </trkpt>
      <trkpt lat="48.81739" lon="5.1813">
        <ele>265.7</ele>
        <time>2023-01-30T14:36:39.000Z</time>
      </trkpt>
      <trkpt lat="48.81739" lon="5.18131">
        <ele>266</ele>
        <time>2023-01-30T14:36:40.000Z</time>
      </trkpt>
      <trkpt lat="48.81739" lon="5.18133">
        <ele>266</ele>
        <time>2023-01-30T14:36:41.000Z</time>
      </trkpt>
      <trkpt lat="48.8174" lon="5.18134">
        <ele>266</ele>
        <time>2023-01-30T14:36:42.000Z</time>
      </trkpt>
      <trkpt lat="48.8174" lon="5.18135">
        <ele>266</ele>
        <time>2023-01-30T14:36:43.000Z</time>
      </trkpt>
      <trkpt lat="48.81741" lon="5.18137">
        <ele>266</ele>
        <time>2023-01-30T14:36:44.000Z</time>
      </trkpt>
      <trkpt lat="48.81741" lon="5.18139">
        <ele>266</ele>
        <time>2023-01-30T14:36:45.000Z</time>
      </trkpt>
      <trkpt lat="48.81742" lon="5.18141">
        <ele>266</ele>
        <time>2023-01-30T14:36:46.000Z</time>
      </trkpt>
      <trkpt lat="48.81743" lon="5.18143">
        <ele>266</ele>
        <time>2023-01-30T14:36:47.000Z</time>
      </trkpt>
      <trkpt lat="48.81744" lon="5.18145">
        <ele>266</ele>
        <time>2023-01-30T14:36:48.000Z</time>
      </trkpt>
      <trkpt lat="48.81745" lon="5.18147">
        <ele>266</ele>
        <time>2023-01-30T14:36:49.000Z</time>
      </trkpt>
      <trkpt lat="48.81746" lon="5.18149">
        <ele>266</ele>
        <time>2023-01-30T14:36:50.000Z</time>
      </trkpt>
      <trkpt lat="48.81746" lon="5.1815">
        <ele>266</ele>
        <time>2023-01-30T14:36:51.000Z</time>
      </trkpt>
      <trkpt lat="48.81747" lon="5.18152">
        <ele>266</ele>
        <time>2023-01-30T14:36:52.000Z</time>
      </trkpt>
      <trkpt lat="48.81748" lon="5.18154">
        <ele>266</ele>
        <time>2023-01-30T14:36:53.000Z</time>
      </trkpt>
      <trkpt lat="48.81749" lon="5.18156">
        <ele>266</ele>
        <time>2023-01-30T14:36:54.000Z</time>
      </trkpt>
      <trkpt lat="48.8175" lon="5.18158">
        <ele>266</ele>
        <time>2023-01-30T14:36:55.000Z</time>
      </trkpt>
      <trkpt lat="48.81752" lon="5.18161">
        <ele>266</ele>
        <time>2023-01-30T14:36:56.000Z</time>
      </trkpt>
      <trkpt lat="48.81753" lon="5.18163">
        <ele>266</ele>
        <time>2023-01-30T14:36:57.000Z</time>
      </trkpt>
      <trkpt lat="48.81754" lon="5.18165">
        <ele>266</ele>
        <time>2023-01-30T14:36:58.000Z</time>
      </trkpt>
      <trkpt lat="48.81755" lon="5.18168">
        <ele>266</ele>
        <time>2023-01-30T14:36:59.000Z</time>
      </trkpt>
      <trkpt lat="48.81756" lon="5.1817">
        <ele>266</ele>
        <time>2023-01-30T14:37:00.000Z</time>
      </trkpt>
      <trkpt lat="48.81757" lon="5.18172">
        <ele>266</ele>
        <time>2023-01-30T14:37:01.000Z</time>
      </trkpt>
      <trkpt lat="48.81758" lon="5.18174">
        <ele>266</ele>
        <time>2023-01-30T14:37:02.000Z</time>
      </trkpt>
      <trkpt lat="48.81759" lon="5.18175">
        <ele>266</ele>
        <time>2023-01-30T14:37:03.000Z</time>
      </trkpt>
      <trkpt lat="48.81759" lon="5.18177">
        <ele>266</ele>
        <time>2023-01-30T14:37:04.000Z</time>
      </trkpt>
      <trkpt lat="48.8176" lon="5.18179">
        <ele>266</ele>
        <time>2023-01-30T14:37:05.000Z</time>
      </trkpt>
      <trkpt lat="48.8176" lon="5.1818">
        <ele>266</ele>
        <time>2023-01-30T14:37:06.000Z</time>
      </trkpt>
      <trkpt lat="48.81761" lon="5.18182">
        <ele>266</ele>
        <time>2023-01-30T14:37:07.000Z</time>
      </trkpt>
      <trkpt lat="48.81762" lon="5.18184">
        <ele>266</ele>
        <time>2023-01-30T14:37:08.000Z</time>
      </trkpt>
      <trkpt lat="48.81763" lon="5.18185">
        <ele>266</ele>
        <time>2023-01-30T14:37:09.000Z</time>
      </trkpt>
      <trkpt lat="48.81764" lon="5.18187">
        <ele>266</ele>
        <time>2023-01-30T14:37:10.000Z</time>
      </trkpt>
      <trkpt lat="48.81764" lon="5.18189">
        <ele>266</ele>
        <time>2023-01-30T14:37:11.000Z</time>
      </trkpt>
      <trkpt lat="48.81765" lon="5.18191">
        <ele>266</ele>
        <time>2023-01-30T14:37:12.000Z</time>
      </trkpt>
      <trkpt lat="48.81766" lon="5.18192">
        <ele>266</ele>
        <time>2023-01-30T14:37:13.000Z</time>
      </trkpt>
      <trkpt lat="48.81767" lon="5.18194">
        <ele>266</ele>
        <time>2023-01-30T14:37:14.000Z</time>
      </trkpt>
      <trkpt lat="48.81767" lon="5.18195">
        <ele>266</ele>
        <time>2023-01-30T14:37:15.000Z</time>
      </trkpt>
      <trkpt lat="48.81768" lon="5.18197">
        <ele>266</ele>
        <time>2023-01-30T14:37:16.000Z</time>
      </trkpt>
      <trkpt lat="48.81768" lon="5.18199">
        <ele>266</ele>
        <time>2023-01-30T14:37:17.000Z</time>
      </trkpt>
      <trkpt lat="48.81769" lon="5.182">
        <ele>266</ele>
        <time>2023-01-30T14:37:18.000Z</time>
      </trkpt>
      <trkpt lat="48.81769" lon="5.18202">
        <ele>266</ele>
        <time>2023-01-30T14:37:19.000Z</time>
      </trkpt>
      <trkpt lat="48.8177" lon="5.18204">
        <ele>266</ele>
        <time>2023-01-30T14:37:20.000Z</time>
      </trkpt>
      <trkpt lat="48.8177" lon="5.18206">
        <ele>266</ele>
        <time>2023-01-30T14:37:21.000Z</time>
      </trkpt>
      <trkpt lat="48.81771" lon="5.18208">
        <ele>266</ele>
        <time>2023-01-30T14:37:22.000Z</time>
      </trkpt>
      <trkpt lat="48.81772" lon="5.1821">
        <ele>266</ele>
        <time>2023-01-30T14:37:23.000Z</time>
      </trkpt>
      <trkpt lat="48.81773" lon="5.18212">
        <ele>266</ele>
        <time>2023-01-30T14:37:24.000Z</time>
      </trkpt>
      <trkpt lat="48.81774" lon="5.18214">
        <ele>266</ele>
        <time>2023-01-30T14:37:25.000Z</time>
      </trkpt>
      <trkpt lat="48.81775" lon="5.18216">
        <ele>266</ele>
        <time>2023-01-30T14:37:26.000Z</time>
      </trkpt>
      <trkpt lat="48.81776" lon="5.18217">
        <ele>266</ele>
        <time>2023-01-30T14:37:27.000Z</time>
      </trkpt>
      <trkpt lat="48.81777" lon="5.18219">
        <ele>266</ele>
        <time>2023-01-30T14:37:28.000Z</time>
      </trkpt>
      <trkpt lat="48.81779" lon="5.1822">
        <ele>266</ele>
        <time>2023-01-30T14:37:29.000Z</time>
      </trkpt>
      <trkpt lat="48.8178" lon="5.18222">
        <ele>266</ele>
        <time>2023-01-30T14:37:30.000Z</time>
      </trkpt>
      <trkpt lat="48.81781" lon="5.18223">
        <ele>266</ele>
        <time>2023-01-30T14:37:31.000Z</time>
      </trkpt>
      <trkpt lat="48.81782" lon="5.18225">
        <ele>266</ele>
        <time>2023-01-30T14:37:32.000Z</time>
      </trkpt>
      <trkpt lat="48.81784" lon="5.18227">
        <ele>266</ele>
        <time>2023-01-30T14:37:33.000Z</time>
      </trkpt>
      <trkpt lat="48.81785" lon="5.18229">
        <ele>266</ele>
        <time>2023-01-30T14:37:34.000Z</time>
      </trkpt>
      <trkpt lat="48.81786" lon="5.18232">
        <ele>266</ele>
        <time>2023-01-30T14:37:35.000Z</time>
      </trkpt>
      <trkpt lat="48.81787" lon="5.18235">
        <ele>266</ele>
        <time>2023-01-30T14:37:36.000Z</time>
      </trkpt>
      <trkpt lat="48.81788" lon="5.18237">
        <ele>266</ele>
        <time>2023-01-30T14:37:37.000Z</time>
      </trkpt>
      <trkpt lat="48.81789" lon="5.1824">
        <ele>266</ele>
        <time>2023-01-30T14:37:38.000Z</time>
      </trkpt>
      <trkpt lat="48.8179" lon="5.18243">
        <ele>266</ele>
        <time>2023-01-30T14:37:39.000Z</time>
      </trkpt>
      <trkpt lat="48.81791" lon="5.18245">
        <ele>266</ele>
        <time>2023-01-30T14:37:40.000Z</time>
      </trkpt>
      <trkpt lat="48.81791" lon="5.18248">
        <ele>266</ele>
        <time>2023-01-30T14:37:41.000Z</time>
      </trkpt>
      <trkpt lat="48.81792" lon="5.1825">
        <ele>266</ele>
        <time>2023-01-30T14:37:42.000Z</time>
      </trkpt>
      <trkpt lat="48.81793" lon="5.18252">
        <ele>266</ele>
        <time>2023-01-30T14:37:43.000Z</time>
      </trkpt>
      <trkpt lat="48.81793" lon="5.18254">
        <ele>266</ele>
        <time>2023-01-30T14:37:44.000Z</time>
      </trkpt>
      <trkpt lat="48.81794" lon="5.18256">
        <ele>266</ele>
        <time>2023-01-30T14:37:45.000Z</time>
      </trkpt>
      <trkpt lat="48.81795" lon="5.18258">
        <ele>266</ele>
        <time>2023-01-30T14:37:46.000Z</time>
      </trkpt>
      <trkpt lat="48.81796" lon="5.1826">
        <ele>266</ele>
        <time>2023-01-30T14:37:47.000Z</time>
      </trkpt>
      <trkpt lat="48.81797" lon="5.18263">
        <ele>266</ele>
        <time>2023-01-30T14:37:48.000Z</time>
      </trkpt>
      <trkpt lat="48.81797" lon="5.18265">
        <ele>266</ele>
        <time>2023-01-30T14:37:49.000Z</time>
      </trkpt>
      <trkpt lat="48.81798" lon="5.18267">
        <ele>266</ele>
        <time>2023-01-30T14:37:50.000Z</time>
      </trkpt>
      <trkpt lat="48.81799" lon="5.1827">
        <ele>266</ele>
        <time>2023-01-30T14:37:51.000Z</time>
      </trkpt>
      <trkpt lat="48.818" lon="5.18273">
        <ele>266</ele>
        <time>2023-01-30T14:37:52.000Z</time>
      </trkpt>
      <trkpt lat="48.81801" lon="5.18275">
        <ele>266</ele>
        <time>2023-01-30T14:37:53.000Z</time>
      </trkpt>
      <trkpt lat="48.81802" lon="5.18278">
        <ele>266</ele>
        <time>2023-01-30T14:37:54.000Z</time>
      </trkpt>
      <trkpt lat="48.81803" lon="5.1828">
        <ele>266</ele>
        <time>2023-01-30T14:37:55.000Z</time>
      </trkpt>
      <trkpt lat="48.81804" lon="5.18283">
        <ele>266</ele>
        <time>2023-01-30T14:37:56.000Z</time>
      </trkpt>
      <trkpt lat="48.81805" lon="5.18285">
        <ele>266</ele>
        <time>2023-01-30T14:37:57.000Z</time>
      </trkpt>
      <trkpt lat="48.81806" lon="5.18288">
        <ele>266</ele>
        <time>2023-01-30T14:37:58.000Z</time>
      </trkpt>
      <trkpt lat="48.81807" lon="5.1829">
        <ele>266</ele>
        <time>2023-01-30T14:37:59.000Z</time>
      </trkpt>
      <trkpt lat="48.81807" lon="5.18292">
        <ele>266</ele>
        <time>2023-01-30T14:38:00.000Z</time>
      </trkpt>
      <trkpt lat="48.81808" lon="5.18294">
        <ele>266</ele>
        <time>2023-01-30T14:38:01.000Z</time>
      </trkpt>
      <trkpt lat="48.81809" lon="5.18296">
        <ele>266</ele>
        <time>2023-01-30T14:38:02.000Z</time>
      </trkpt>
      <trkpt lat="48.8181" lon="5.18298">
        <ele>266</ele>
        <time>2023-01-30T14:38:03.000Z</time>
      </trkpt>
      <trkpt lat="48.81811" lon="5.183">
        <ele>266</ele>
        <time>2023-01-30T14:38:04.000Z</time>
      </trkpt>
      <trkpt lat="48.81812" lon="5.18302">
        <ele>266</ele>
        <time>2023-01-30T14:38:05.000Z</time>
      </trkpt>
      <trkpt lat="48.81813" lon="5.18304">
        <ele>266</ele>
        <time>2023-01-30T14:38:06.000Z</time>
      </trkpt>
      <trkpt lat="48.81814" lon="5.18306">
        <ele>266</ele>
        <time>2023-01-30T14:38:07.000Z</time>
      </trkpt>
      <trkpt lat="48.81815" lon="5.18309">
        <ele>266</ele>
        <time>2023-01-30T14:38:08.000Z</time>
      </trkpt>
      <trkpt lat="48.81816" lon="5.18311">
        <ele>266</ele>
        <time>2023-01-30T14:38:09.000Z</time>
      </trkpt>
      <trkpt lat="48.81817" lon="5.18313">
        <ele>266</ele>
        <time>2023-01-30T14:38:10.000Z</time>
      </trkpt>
      <trkpt lat="48.81817" lon="5.18316">
        <ele>266</ele>
        <time>2023-01-30T14:38:11.000Z</time>
      </trkpt>
      <trkpt lat="48.81818" lon="5.18318">
        <ele>266</ele>
        <time>2023-01-30T14:38:12.000Z</time>
      </trkpt>
      <trkpt lat="48.81819" lon="5.1832">
        <ele>266</ele>
        <time>2023-01-30T14:38:13.000Z</time>
      </trkpt>
      <trkpt lat="48.8182" lon="5.18322">
        <ele>266</ele>
        <time>2023-01-30T14:38:14.000Z</time>
      </trkpt>
      <trkpt lat="48.8182" lon="5.18323">
        <ele>266</ele>
        <time>2023-01-30T14:38:15.000Z</time>
      </trkpt>
      <trkpt lat="48.81821" lon="5.18325">
        <ele>266</ele>
        <time>2023-01-30T14:38:16.000Z</time>
      </trkpt>
      <trkpt lat="48.81821" lon="5.18327">
        <ele>266</ele>
        <time>2023-01-30T14:38:17.000Z</time>
      </trkpt>
      <trkpt lat="48.81822" lon="5.18328">
        <ele>266</ele>
        <time>2023-01-30T14:38:18.000Z</time>
      </trkpt>
      <trkpt lat="48.81823" lon="5.1833">
        <ele>266</ele>
        <time>2023-01-30T14:38:19.000Z</time>
      </trkpt>
      <trkpt lat="48.81824" lon="5.18331">
        <ele>266</ele>
        <time>2023-01-30T14:38:20.000Z</time>
      </trkpt>
      <trkpt lat="48.81824" lon="5.18333">
        <ele>266</ele>
        <time>2023-01-30T14:38:21.000Z</time>
      </trkpt>
      <trkpt lat="48.81825" lon="5.18335">
        <ele>266</ele>
        <time>2023-01-30T14:38:22.000Z</time>
      </trkpt>
      <trkpt lat="48.81826" lon="5.18336">
        <ele>266</ele>
        <time>2023-01-30T14:38:23.000Z</time>
      </trkpt>
      <trkpt lat="48.81827" lon="5.18338">
        <ele>266</ele>
        <time>2023-01-30T14:38:24.000Z</time>
      </trkpt>
      <trkpt lat="48.81827" lon="5.18339">
        <ele>266</ele>
        <time>2023-01-30T14:38:25.000Z</time>
      </trkpt>
      <trkpt lat="48.81828" lon="5.18341">
        <ele>266</ele>
        <time>2023-01-30T14:38:26.000Z</time>
      </trkpt>
      <trkpt lat="48.81828" lon="5.18343">
        <ele>266</ele>
        <time>2023-01-30T14:38:27.000Z</time>
      </trkpt>
      <trkpt lat="48.81829" lon="5.18345">
        <ele>266</ele>
        <time>2023-01-30T14:38:28.000Z</time>
      </trkpt>
      <trkpt lat="48.81829" lon="5.18346">
        <ele>266</ele>
        <time>2023-01-30T14:38:29.000Z</time>
      </trkpt>
      <trkpt lat="48.8183" lon="5.18348">
        <ele>266</ele>
        <time>2023-01-30T14:38:30.000Z</time>
      </trkpt>
      <trkpt lat="48.8183" lon="5.1835">
        <ele>266</ele>
        <time>2023-01-30T14:38:31.000Z</time>
      </trkpt>
      <trkpt lat="48.81831" lon="5.18352">
        <ele>266</ele>
        <time>2023-01-30T14:38:32.000Z</time>
      </trkpt>
      <trkpt lat="48.81832" lon="5.18354">
        <ele>266</ele>
        <time>2023-01-30T14:38:33.000Z</time>
      </trkpt>
      <trkpt lat="48.81833" lon="5.18356">
        <ele>266</ele>
        <time>2023-01-30T14:38:34.000Z</time>
      </trkpt>
      <trkpt lat="48.81833" lon="5.18357">
        <ele>266</ele>
        <time>2023-01-30T14:38:35.000Z</time>
      </trkpt>
      <trkpt lat="48.81834" lon="5.18359">
        <ele>266</ele>
        <time>2023-01-30T14:38:36.000Z</time>
      </trkpt>
      <trkpt lat="48.81835" lon="5.18361">
        <ele>266</ele>
        <time>2023-01-30T14:38:37.000Z</time>
      </trkpt>
      <trkpt lat="48.81836" lon="5.18362">
        <ele>266</ele>
        <time>2023-01-30T14:38:38.000Z</time>
      </trkpt>
      <trkpt lat="48.81837" lon="5.18364">
        <ele>266</ele>
        <time>2023-01-30T14:38:39.000Z</time>
      </trkpt>
      <trkpt lat="48.81838" lon="5.18365">
        <ele>266</ele>
        <time>2023-01-30T14:38:40.000Z</time>
      </trkpt>
      <trkpt lat="48.81838" lon="5.18367">
        <ele>266</ele>
        <time>2023-01-30T14:38:41.000Z</time>
      </trkpt>
      <trkpt lat="48.81839" lon="5.18369">
        <ele>266</ele>
        <time>2023-01-30T14:38:42.000Z</time>
      </trkpt>
      <trkpt lat="48.8184" lon="5.1837">
        <ele>266</ele>
        <time>2023-01-30T14:38:43.000Z</time>
      </trkpt>
      <trkpt lat="48.81841" lon="5.18372">
        <ele>266</ele>
        <time>2023-01-30T14:38:44.000Z</time>
      </trkpt>
      <trkpt lat="48.81841" lon="5.18374">
        <ele>266</ele>
        <time>2023-01-30T14:38:45.000Z</time>
      </trkpt>
      <trkpt lat="48.81841" lon="5.18377">
        <ele>266.3</ele>
        <time>2023-01-30T14:38:46.000Z</time>
      </trkpt>
      <trkpt lat="48.81841" lon="5.18379">
        <ele>266.7</ele>
        <time>2023-01-30T14:38:47.000Z</time>
      </trkpt>
      <trkpt lat="48.81842" lon="5.1838">
        <ele>267</ele>
        <time>2023-01-30T14:38:48.000Z</time>
      </trkpt>
      <trkpt lat="48.81842" lon="5.18382">
        <ele>267</ele>
        <time>2023-01-30T14:38:49.000Z</time>
      </trkpt>
      <trkpt lat="48.81843" lon="5.18384">
        <ele>267</ele>
        <time>2023-01-30T14:38:50.000Z</time>
      </trkpt>
      <trkpt lat="48.81843" lon="5.18386">
        <ele>267</ele>
        <time>2023-01-30T14:38:51.000Z</time>
      </trkpt>
      <trkpt lat="48.81844" lon="5.18388">
        <ele>267</ele>
        <time>2023-01-30T14:38:52.000Z</time>
      </trkpt>
      <trkpt lat="48.81844" lon="5.1839">
        <ele>267</ele>
        <time>2023-01-30T14:38:53.000Z</time>
      </trkpt>
      <trkpt lat="48.81845" lon="5.18392">
        <ele>267</ele>
        <time>2023-01-30T14:38:54.000Z</time>
      </trkpt>
      <trkpt lat="48.81846" lon="5.18394">
        <ele>267</ele>
        <time>2023-01-30T14:38:55.000Z</time>
      </trkpt>
      <trkpt lat="48.81847" lon="5.18396">
        <ele>267</ele>
        <time>2023-01-30T14:38:56.000Z</time>
      </trkpt>
      <trkpt lat="48.81847" lon="5.18398">
        <ele>267</ele>
        <time>2023-01-30T14:38:57.000Z</time>
      </trkpt>
      <trkpt lat="48.81848" lon="5.18399">
        <ele>267</ele>
        <time>2023-01-30T14:38:58.000Z</time>
      </trkpt>
      <trkpt lat="48.81849" lon="5.18401">
        <ele>267</ele>
        <time>2023-01-30T14:38:59.000Z</time>
      </trkpt>
      <trkpt lat="48.8185" lon="5.18403">
        <ele>267</ele>
        <time>2023-01-30T14:39:00.000Z</time>
      </trkpt>
      <trkpt lat="48.8185" lon="5.18404">
        <ele>267</ele>
        <time>2023-01-30T14:39:01.000Z</time>
      </trkpt>
      <trkpt lat="48.81851" lon="5.18406">
        <ele>267</ele>
        <time>2023-01-30T14:39:02.000Z</time>
      </trkpt>
      <trkpt lat="48.81852" lon="5.18408">
        <ele>267</ele>
        <time>2023-01-30T14:39:03.000Z</time>
      </trkpt>
      <trkpt lat="48.81853" lon="5.18409">
        <ele>267</ele>
        <time>2023-01-30T14:39:04.000Z</time>
      </trkpt>
      <trkpt lat="48.81854" lon="5.18411">
        <ele>267</ele>
        <time>2023-01-30T14:39:05.000Z</time>
      </trkpt>
      <trkpt lat="48.81854" lon="5.18413">
        <ele>267</ele>
        <time>2023-01-30T14:39:06.000Z</time>
      </trkpt>
      <trkpt lat="48.81855" lon="5.18414">
        <ele>267</ele>
        <time>2023-01-30T14:39:07.000Z</time>
      </trkpt>
      <trkpt lat="48.81855" lon="5.18416">
        <ele>267</ele>
        <time>2023-01-30T14:39:08.000Z</time>
      </trkpt>
      <trkpt lat="48.81856" lon="5.18418">
        <ele>268</ele>
        <time>2023-01-30T14:39:09.000Z</time>
      </trkpt>
      <trkpt lat="48.81856" lon="5.1842">
        <ele>268</ele>
        <time>2023-01-30T14:39:10.000Z</time>
      </trkpt>
      <trkpt lat="48.81857" lon="5.18422">
        <ele>268</ele>
        <time>2023-01-30T14:39:11.000Z</time>
      </trkpt>
      <trkpt lat="48.81858" lon="5.18424">
        <ele>268</ele>
        <time>2023-01-30T14:39:12.000Z</time>
      </trkpt>
      <trkpt lat="48.81859" lon="5.18427">
        <ele>268</ele>
        <time>2023-01-30T14:39:13.000Z</time>
      </trkpt>
      <trkpt lat="48.81859" lon="5.18429">
        <ele>268</ele>
        <time>2023-01-30T14:39:14.000Z</time>
      </trkpt>
      <trkpt lat="48.8186" lon="5.18431">
        <ele>268</ele>
        <time>2023-01-30T14:39:15.000Z</time>
      </trkpt>
      <trkpt lat="48.8186" lon="5.18433">
        <ele>268</ele>
        <time>2023-01-30T14:39:16.000Z</time>
      </trkpt>
      <trkpt lat="48.8186" lon="5.18435">
        <ele>268</ele>
        <time>2023-01-30T14:39:17.000Z</time>
      </trkpt>
      <trkpt lat="48.81861" lon="5.18437">
        <ele>268</ele>
        <time>2023-01-30T14:39:18.000Z</time>
      </trkpt>
      <trkpt lat="48.81862" lon="5.1844">
        <ele>268</ele>
        <time>2023-01-30T14:39:19.000Z</time>
      </trkpt>
      <trkpt lat="48.81862" lon="5.18442">
        <ele>268.3</ele>
        <time>2023-01-30T14:39:20.000Z</time>
      </trkpt>
      <trkpt lat="48.81863" lon="5.18444">
        <ele>268.7</ele>
        <time>2023-01-30T14:39:21.000Z</time>
      </trkpt>
      <trkpt lat="48.81863" lon="5.18446">
        <ele>269</ele>
        <time>2023-01-30T14:39:22.000Z</time>
      </trkpt>
      <trkpt lat="48.81863" lon="5.18448">
        <ele>269</ele>
        <time>2023-01-30T14:39:23.000Z</time>
      </trkpt>
      <trkpt lat="48.81864" lon="5.1845">
        <ele>269</ele>
        <time>2023-01-30T14:39:24.000Z</time>
      </trkpt>
      <trkpt lat="48.81864" lon="5.18452">
        <ele>269</ele>
        <time>2023-01-30T14:39:25.000Z</time>
      </trkpt>
      <trkpt lat="48.81865" lon="5.18454">
        <ele>269</ele>
        <time>2023-01-30T14:39:26.000Z</time>
      </trkpt>
      <trkpt lat="48.81866" lon="5.18456">
        <ele>269</ele>
        <time>2023-01-30T14:39:27.000Z</time>
      </trkpt>
      <trkpt lat="48.81866" lon="5.18458">
        <ele>269</ele>
        <time>2023-01-30T14:39:28.000Z</time>
      </trkpt>
      <trkpt lat="48.81867" lon="5.1846">
        <ele>269</ele>
        <time>2023-01-30T14:39:29.000Z</time>
      </trkpt>
      <trkpt lat="48.81868" lon="5.18462">
        <ele>269</ele>
        <time>2023-01-30T14:39:30.000Z</time>
      </trkpt>
      <trkpt lat="48.81869" lon="5.18464">
        <ele>269</ele>
        <time>2023-01-30T14:39:31.000Z</time>
      </trkpt>
      <trkpt lat="48.81869" lon="5.18465">
        <ele>269</ele>
        <time>2023-01-30T14:39:32.000Z</time>
      </trkpt>
      <trkpt lat="48.8187" lon="5.18467">
        <ele>269</ele>
        <time>2023-01-30T14:39:33.000Z</time>
      </trkpt>
      <trkpt lat="48.8187" lon="5.18469">
        <ele>269</ele>
        <time>2023-01-30T14:39:34.000Z</time>
      </trkpt>
      <trkpt lat="48.8187" lon="5.18471">
        <ele>269.5</ele>
        <time>2023-01-30T14:39:35.000Z</time>
      </trkpt>
      <trkpt lat="48.81871" lon="5.18474">
        <ele>270</ele>
        <time>2023-01-30T14:39:36.000Z</time>
      </trkpt>
      <trkpt lat="48.81871" lon="5.18476">
        <ele>270</ele>
        <time>2023-01-30T14:39:37.000Z</time>
      </trkpt>
      <trkpt lat="48.81872" lon="5.18478">
        <ele>270</ele>
        <time>2023-01-30T14:39:38.000Z</time>
      </trkpt>
      <trkpt lat="48.81873" lon="5.18481">
        <ele>270</ele>
        <time>2023-01-30T14:39:39.000Z</time>
      </trkpt>
      <trkpt lat="48.81874" lon="5.18483">
        <ele>270</ele>
        <time>2023-01-30T14:39:40.000Z</time>
      </trkpt>
      <trkpt lat="48.81874" lon="5.18485">
        <ele>270</ele>
        <time>2023-01-30T14:39:41.000Z</time>
      </trkpt>
      <trkpt lat="48.81875" lon="5.18487">
        <ele>270</ele>
        <time>2023-01-30T14:39:42.000Z</time>
      </trkpt>
      <trkpt lat="48.81876" lon="5.18489">
        <ele>270</ele>
        <time>2023-01-30T14:39:43.000Z</time>
      </trkpt>
      <trkpt lat="48.81876" lon="5.18491">
        <ele>270</ele>
        <time>2023-01-30T14:39:44.000Z</time>
      </trkpt>
      <trkpt lat="48.81877" lon="5.18494">
        <ele>270.5</ele>
        <time>2023-01-30T14:39:45.000Z</time>
      </trkpt>
      <trkpt lat="48.81878" lon="5.18496">
        <ele>271</ele>
        <time>2023-01-30T14:39:46.000Z</time>
      </trkpt>
      <trkpt lat="48.81878" lon="5.18498">
        <ele>271</ele>
        <time>2023-01-30T14:39:47.000Z</time>
      </trkpt>
      <trkpt lat="48.81879" lon="5.18501">
        <ele>271</ele>
        <time>2023-01-30T14:39:48.000Z</time>
      </trkpt>
      <trkpt lat="48.81879" lon="5.18503">
        <ele>271</ele>
        <time>2023-01-30T14:39:49.000Z</time>
      </trkpt>
      <trkpt lat="48.8188" lon="5.18506">
        <ele>271</ele>
        <time>2023-01-30T14:39:50.000Z</time>
      </trkpt>
      <trkpt lat="48.81881" lon="5.18509">
        <ele>271</ele>
        <time>2023-01-30T14:39:51.000Z</time>
      </trkpt>
      <trkpt lat="48.81881" lon="5.18512">
        <ele>271</ele>
        <time>2023-01-30T14:39:52.000Z</time>
      </trkpt>
      <trkpt lat="48.81881" lon="5.18514">
        <ele>271</ele>
        <time>2023-01-30T14:39:53.000Z</time>
      </trkpt>
      <trkpt lat="48.81881" lon="5.18517">
        <ele>271</ele>
        <time>2023-01-30T14:39:54.000Z</time>
      </trkpt>
      <trkpt lat="48.81881" lon="5.18519">
        <ele>271</ele>
        <time>2023-01-30T14:39:55.000Z</time>
      </trkpt>
      <trkpt lat="48.81881" lon="5.18522">
        <ele>271</ele>
        <time>2023-01-30T14:39:56.000Z</time>
      </trkpt>
      <trkpt lat="48.81881" lon="5.18524">
        <ele>271.5</ele>
        <time>2023-01-30T14:39:57.000Z</time>
      </trkpt>
      <trkpt lat="48.81882" lon="5.18526">
        <ele>272</ele>
        <time>2023-01-30T14:39:58.000Z</time>
      </trkpt>
      <trkpt lat="48.81882" lon="5.18528">
        <ele>272</ele>
        <time>2023-01-30T14:39:59.000Z</time>
      </trkpt>
      <trkpt lat="48.81883" lon="5.1853">
        <ele>272</ele>
        <time>2023-01-30T14:40:00.000Z</time>
      </trkpt>
      <trkpt lat="48.81883" lon="5.18533">
        <ele>272</ele>
        <time>2023-01-30T14:40:01.000Z</time>
      </trkpt>
      <trkpt lat="48.81884" lon="5.18535">
        <ele>272</ele>
        <time>2023-01-30T14:40:02.000Z</time>
      </trkpt>
      <trkpt lat="48.81884" lon="5.18538">
        <ele>272</ele>
        <time>2023-01-30T14:40:03.000Z</time>
      </trkpt>
      <trkpt lat="48.81885" lon="5.1854">
        <ele>272</ele>
        <time>2023-01-30T14:40:04.000Z</time>
      </trkpt>
      <trkpt lat="48.81885" lon="5.18543">
        <ele>272</ele>
        <time>2023-01-30T14:40:05.000Z</time>
      </trkpt>
      <trkpt lat="48.81885" lon="5.18546">
        <ele>272</ele>
        <time>2023-01-30T14:40:06.000Z</time>
      </trkpt>
      <trkpt lat="48.81885" lon="5.18548">
        <ele>272</ele>
        <time>2023-01-30T14:40:07.000Z</time>
      </trkpt>
      <trkpt lat="48.81886" lon="5.1855">
        <ele>272</ele>
        <time>2023-01-30T14:40:08.000Z</time>
      </trkpt>
      <trkpt lat="48.81886" lon="5.18553">
        <ele>273</ele>
        <time>2023-01-30T14:40:09.000Z</time>
      </trkpt>
      <trkpt lat="48.81886" lon="5.18556">
        <ele>273</ele>
        <time>2023-01-30T14:40:10.000Z</time>
      </trkpt>
      <trkpt lat="48.81886" lon="5.18558">
        <ele>273</ele>
        <time>2023-01-30T14:40:11.000Z</time>
      </trkpt>
      <trkpt lat="48.81887" lon="5.18561">
        <ele>273</ele>
        <time>2023-01-30T14:40:12.000Z</time>
      </trkpt>
      <trkpt lat="48.81887" lon="5.18563">
        <ele>273</ele>
        <time>2023-01-30T14:40:13.000Z</time>
      </trkpt>
      <trkpt lat="48.81888" lon="5.18566">
        <ele>273</ele>
        <time>2023-01-30T14:40:14.000Z</time>
      </trkpt>
      <trkpt lat="48.81888" lon="5.18568">
        <ele>273</ele>
        <time>2023-01-30T14:40:15.000Z</time>
      </trkpt>
      <trkpt lat="48.81889" lon="5.18571">
        <ele>273</ele>
        <time>2023-01-30T14:40:16.000Z</time>
      </trkpt>
      <trkpt lat="48.8189" lon="5.18573">
        <ele>273</ele>
        <time>2023-01-30T14:40:17.000Z</time>
      </trkpt>
      <trkpt lat="48.8189" lon="5.18575">
        <ele>273</ele>
        <time>2023-01-30T14:40:18.000Z</time>
      </trkpt>
      <trkpt lat="48.81891" lon="5.18578">
        <ele>273</ele>
        <time>2023-01-30T14:40:19.000Z</time>
      </trkpt>
      <trkpt lat="48.81891" lon="5.1858">
        <ele>273</ele>
        <time>2023-01-30T14:40:20.000Z</time>
      </trkpt>
      <trkpt lat="48.81892" lon="5.18583">
        <ele>273</ele>
        <time>2023-01-30T14:40:21.000Z</time>
      </trkpt>
      <trkpt lat="48.81892" lon="5.18585">
        <ele>273</ele>
        <time>2023-01-30T14:40:22.000Z</time>
      </trkpt>
      <trkpt lat="48.81892" lon="5.18587">
        <ele>273</ele>
        <time>2023-01-30T14:40:23.000Z</time>
      </trkpt>
      <trkpt lat="48.81893" lon="5.18589">
        <ele>273</ele>
        <time>2023-01-30T14:40:24.000Z</time>
      </trkpt>
      <trkpt lat="48.81893" lon="5.18591">
        <ele>273</ele>
        <time>2023-01-30T14:40:25.000Z</time>
      </trkpt>
      <trkpt lat="48.81894" lon="5.18594">
        <ele>273</ele>
        <time>2023-01-30T14:40:26.000Z</time>
      </trkpt>
      <trkpt lat="48.81895" lon="5.18596">
        <ele>273.5</ele>
        <time>2023-01-30T14:40:27.000Z</time>
      </trkpt>
      <trkpt lat="48.81895" lon="5.18598">
        <ele>274</ele>
        <time>2023-01-30T14:40:28.000Z</time>
      </trkpt>
      <trkpt lat="48.81895" lon="5.186">
        <ele>274</ele>
        <time>2023-01-30T14:40:29.000Z</time>
      </trkpt>
      <trkpt lat="48.81895" lon="5.18603">
        <ele>274</ele>
        <time>2023-01-30T14:40:30.000Z</time>
      </trkpt>
      <trkpt lat="48.81895" lon="5.18605">
        <ele>274</ele>
        <time>2023-01-30T14:40:31.000Z</time>
      </trkpt>
      <trkpt lat="48.81895" lon="5.18608">
        <ele>274</ele>
        <time>2023-01-30T14:40:32.000Z</time>
      </trkpt>
      <trkpt lat="48.81896" lon="5.1861">
        <ele>274</ele>
        <time>2023-01-30T14:40:33.000Z</time>
      </trkpt>
      <trkpt lat="48.81897" lon="5.18612">
        <ele>274</ele>
        <time>2023-01-30T14:40:34.000Z</time>
      </trkpt>
      <trkpt lat="48.81898" lon="5.18614">
        <ele>274</ele>
        <time>2023-01-30T14:40:35.000Z</time>
      </trkpt>
      <trkpt lat="48.81898" lon="5.18616">
        <ele>274</ele>
        <time>2023-01-30T14:40:36.000Z</time>
      </trkpt>
      <trkpt lat="48.81899" lon="5.18619">
        <ele>274</ele>
        <time>2023-01-30T14:40:37.000Z</time>
      </trkpt>
      <trkpt lat="48.81899" lon="5.18621">
        <ele>274</ele>
        <time>2023-01-30T14:40:38.000Z</time>
      </trkpt>
      <trkpt lat="48.81899" lon="5.18623">
        <ele>274</ele>
        <time>2023-01-30T14:40:39.000Z</time>
      </trkpt>
      <trkpt lat="48.81899" lon="5.18626">
        <ele>274</ele>
        <time>2023-01-30T14:40:40.000Z</time>
      </trkpt>
      <trkpt lat="48.819" lon="5.18628">
        <ele>274</ele>
        <time>2023-01-30T14:40:41.000Z</time>
      </trkpt>
      <trkpt lat="48.819" lon="5.1863">
        <ele>274</ele>
        <time>2023-01-30T14:40:42.000Z</time>
      </trkpt>
      <trkpt lat="48.81901" lon="5.18633">
        <ele>274</ele>
        <time>2023-01-30T14:40:43.000Z</time>
      </trkpt>
      <trkpt lat="48.81901" lon="5.18635">
        <ele>274</ele>
        <time>2023-01-30T14:40:44.000Z</time>
      </trkpt>
      <trkpt lat="48.81901" lon="5.18638">
        <ele>275</ele>
        <time>2023-01-30T14:40:45.000Z</time>
      </trkpt>
      <trkpt lat="48.81902" lon="5.1864">
        <ele>275</ele>
        <time>2023-01-30T14:40:46.000Z</time>
      </trkpt>
      <trkpt lat="48.81903" lon="5.18642">
        <ele>275</ele>
        <time>2023-01-30T14:40:47.000Z</time>
      </trkpt>
      <trkpt lat="48.81903" lon="5.18645">
        <ele>275</ele>
        <time>2023-01-30T14:40:48.000Z</time>
      </trkpt>
      <trkpt lat="48.81904" lon="5.18647">
        <ele>275</ele>
        <time>2023-01-30T14:40:49.000Z</time>
      </trkpt>
      <trkpt lat="48.81904" lon="5.18649">
        <ele>275</ele>
        <time>2023-01-30T14:40:50.000Z</time>
      </trkpt>
      <trkpt lat="48.81905" lon="5.18652">
        <ele>275</ele>
        <time>2023-01-30T14:40:51.000Z</time>
      </trkpt>
      <trkpt lat="48.81905" lon="5.18654">
        <ele>275</ele>
        <time>2023-01-30T14:40:52.000Z</time>
      </trkpt>
      <trkpt lat="48.81905" lon="5.18656">
        <ele>275</ele>
        <time>2023-01-30T14:40:53.000Z</time>
      </trkpt>
      <trkpt lat="48.81906" lon="5.18658">
        <ele>275</ele>
        <time>2023-01-30T14:40:54.000Z</time>
      </trkpt>
      <trkpt lat="48.81906" lon="5.1866">
        <ele>275</ele>
        <time>2023-01-30T14:40:55.000Z</time>
      </trkpt>
      <trkpt lat="48.81907" lon="5.18662">
        <ele>275</ele>
        <time>2023-01-30T14:40:56.000Z</time>
      </trkpt>
      <trkpt lat="48.81908" lon="5.18664">
        <ele>275</ele>
        <time>2023-01-30T14:40:57.000Z</time>
      </trkpt>
      <trkpt lat="48.81908" lon="5.18666">
        <ele>275</ele>
        <time>2023-01-30T14:40:58.000Z</time>
      </trkpt>
      <trkpt lat="48.81909" lon="5.18667">
        <ele>275</ele>
        <time>2023-01-30T14:40:59.000Z</time>
      </trkpt>
      <trkpt lat="48.8191" lon="5.18669">
        <ele>275</ele>
        <time>2023-01-30T14:41:00.000Z</time>
      </trkpt>
      <trkpt lat="48.81911" lon="5.18671">
        <ele>275</ele>
        <time>2023-01-30T14:41:01.000Z</time>
      </trkpt>
      <trkpt lat="48.81912" lon="5.18673">
        <ele>275</ele>
        <time>2023-01-30T14:41:02.000Z</time>
      </trkpt>
      <trkpt lat="48.81912" lon="5.18675">
        <ele>276</ele>
        <time>2023-01-30T14:41:03.000Z</time>
      </trkpt>
      <trkpt lat="48.81913" lon="5.18676">
        <ele>276</ele>
        <time>2023-01-30T14:41:04.000Z</time>
      </trkpt>
      <trkpt lat="48.81913" lon="5.18678">
        <ele>276</ele>
        <time>2023-01-30T14:41:05.000Z</time>
      </trkpt>
      <trkpt lat="48.81914" lon="5.18679">
        <ele>276</ele>
        <time>2023-01-30T14:41:06.000Z</time>
      </trkpt>
      <trkpt lat="48.81914" lon="5.18681">
        <ele>276</ele>
        <time>2023-01-30T14:41:07.000Z</time>
      </trkpt>
      <trkpt lat="48.81915" lon="5.18683">
        <ele>276</ele>
        <time>2023-01-30T14:41:08.000Z</time>
      </trkpt>
      <trkpt lat="48.81915" lon="5.18684">
        <ele>276</ele>
        <time>2023-01-30T14:41:09.000Z</time>
      </trkpt>
      <trkpt lat="48.81916" lon="5.18686">
        <ele>276</ele>
        <time>2023-01-30T14:41:10.000Z</time>
      </trkpt>
      <trkpt lat="48.81916" lon="5.18688">
        <ele>276</ele>
        <time>2023-01-30T14:41:11.000Z</time>
      </trkpt>
      <trkpt lat="48.81917" lon="5.1869">
        <ele>276</ele>
        <time>2023-01-30T14:41:12.000Z</time>
      </trkpt>
      <trkpt lat="48.81917" lon="5.18692">
        <ele>276</ele>
        <time>2023-01-30T14:41:13.000Z</time>
      </trkpt>
      <trkpt lat="48.81918" lon="5.18694">
        <ele>276</ele>
        <time>2023-01-30T14:41:14.000Z</time>
      </trkpt>
      <trkpt lat="48.81918" lon="5.18696">
        <ele>276</ele>
        <time>2023-01-30T14:41:15.000Z</time>
      </trkpt>
      <trkpt lat="48.81918" lon="5.18698">
        <ele>276</ele>
        <time>2023-01-30T14:41:16.000Z</time>
      </trkpt>
      <trkpt lat="48.81918" lon="5.187">
        <ele>276</ele>
        <time>2023-01-30T14:41:17.000Z</time>
      </trkpt>
      <trkpt lat="48.81918" lon="5.18702">
        <ele>276</ele>
        <time>2023-01-30T14:41:18.000Z</time>
      </trkpt>
      <trkpt lat="48.81918" lon="5.18704">
        <ele>276</ele>
        <time>2023-01-30T14:41:19.000Z</time>
      </trkpt>
      <trkpt lat="48.81919" lon="5.18706">
        <ele>276</ele>
        <time>2023-01-30T14:41:20.000Z</time>
      </trkpt>
      <trkpt lat="48.81919" lon="5.18708">
        <ele>276</ele>
        <time>2023-01-30T14:41:21.000Z</time>
      </trkpt>
      <trkpt lat="48.8192" lon="5.1871">
        <ele>276</ele>
        <time>2023-01-30T14:41:22.000Z</time>
      </trkpt>
      <trkpt lat="48.8192" lon="5.18712">
        <ele>277</ele>
        <time>2023-01-30T14:41:23.000Z</time>
      </trkpt>
      <trkpt lat="48.8192" lon="5.18714">
        <ele>277</ele>
        <time>2023-01-30T14:41:24.000Z</time>
      </trkpt>
      <trkpt lat="48.81921" lon="5.18716">
        <ele>277</ele>
        <time>2023-01-30T14:41:25.000Z</time>
      </trkpt>
      <trkpt lat="48.81921" lon="5.18718">
        <ele>277</ele>
        <time>2023-01-30T14:41:26.000Z</time>
      </trkpt>
      <trkpt lat="48.81922" lon="5.1872">
        <ele>277</ele>
        <time>2023-01-30T14:41:27.000Z</time>
      </trkpt>
      <trkpt lat="48.81923" lon="5.18722">
        <ele>277</ele>
        <time>2023-01-30T14:41:28.000Z</time>
      </trkpt>
      <trkpt lat="48.81924" lon="5.18724">
        <ele>277</ele>
        <time>2023-01-30T14:41:29.000Z</time>
      </trkpt>
      <trkpt lat="48.81924" lon="5.18726">
        <ele>277</ele>
        <time>2023-01-30T14:41:30.000Z</time>
      </trkpt>
      <trkpt lat="48.81924" lon="5.18728">
        <ele>277</ele>
        <time>2023-01-30T14:41:31.000Z</time>
      </trkpt>
      <trkpt lat="48.81925" lon="5.18729">
        <ele>277</ele>
        <time>2023-01-30T14:41:32.000Z</time>
      </trkpt>
      <trkpt lat="48.81925" lon="5.18731">
        <ele>277</ele>
        <time>2023-01-30T14:41:33.000Z</time>
      </trkpt>
      <trkpt lat="48.81926" lon="5.18733">
        <ele>277</ele>
        <time>2023-01-30T14:41:34.000Z</time>
      </trkpt>
      <trkpt lat="48.81926" lon="5.18734">
        <ele>277</ele>
        <time>2023-01-30T14:41:35.000Z</time>
      </trkpt>
      <trkpt lat="48.81927" lon="5.18736">
        <ele>277</ele>
        <time>2023-01-30T14:41:36.000Z</time>
      </trkpt>
      <trkpt lat="48.81927" lon="5.18737">
        <ele>277</ele>
        <time>2023-01-30T14:41:37.000Z</time>
      </trkpt>
      <trkpt lat="48.81928" lon="5.18738">
        <ele>277</ele>
        <time>2023-01-30T14:41:38.000Z</time>
      </trkpt>
      <trkpt lat="48.81928" lon="5.1874">
        <ele>277</ele>
        <time>2023-01-30T14:41:39.000Z</time>
      </trkpt>
      <trkpt lat="48.81929" lon="5.18741">
        <ele>277</ele>
        <time>2023-01-30T14:41:40.000Z</time>
      </trkpt>
      <trkpt lat="48.8193" lon="5.18743">
        <ele>277</ele>
        <time>2023-01-30T14:41:41.000Z</time>
      </trkpt>
      <trkpt lat="48.81931" lon="5.18745">
        <ele>277</ele>
        <time>2023-01-30T14:41:42.000Z</time>
      </trkpt>
      <trkpt lat="48.81932" lon="5.18747">
        <ele>277</ele>
        <time>2023-01-30T14:41:43.000Z</time>
      </trkpt>
      <trkpt lat="48.81933" lon="5.18749">
        <ele>277.3</ele>
        <time>2023-01-30T14:41:44.000Z</time>
      </trkpt>
      <trkpt lat="48.81934" lon="5.18751">
        <ele>277.7</ele>
        <time>2023-01-30T14:41:45.000Z</time>
      </trkpt>
      <trkpt lat="48.81934" lon="5.18754">
        <ele>278</ele>
        <time>2023-01-30T14:41:46.000Z</time>
      </trkpt>
      <trkpt lat="48.81935" lon="5.18756">
        <ele>278</ele>
        <time>2023-01-30T14:41:47.000Z</time>
      </trkpt>
      <trkpt lat="48.81935" lon="5.18758">
        <ele>278</ele>
        <time>2023-01-30T14:41:48.000Z</time>
      </trkpt>
      <trkpt lat="48.81936" lon="5.1876">
        <ele>278</ele>
        <time>2023-01-30T14:41:49.000Z</time>
      </trkpt>
      <trkpt lat="48.81936" lon="5.18762">
        <ele>278</ele>
        <time>2023-01-30T14:41:50.000Z</time>
      </trkpt>
      <trkpt lat="48.81937" lon="5.18765">
        <ele>278</ele>
        <time>2023-01-30T14:41:51.000Z</time>
      </trkpt>
      <trkpt lat="48.81937" lon="5.18767">
        <ele>278</ele>
        <time>2023-01-30T14:41:52.000Z</time>
      </trkpt>
      <trkpt lat="48.81938" lon="5.1877">
        <ele>278</ele>
        <time>2023-01-30T14:41:53.000Z</time>
      </trkpt>
      <trkpt lat="48.81939" lon="5.18772">
        <ele>278</ele>
        <time>2023-01-30T14:41:54.000Z</time>
      </trkpt>
      <trkpt lat="48.81939" lon="5.18775">
        <ele>278</ele>
        <time>2023-01-30T14:41:55.000Z</time>
      </trkpt>
      <trkpt lat="48.8194" lon="5.18778">
        <ele>278</ele>
        <time>2023-01-30T14:41:56.000Z</time>
      </trkpt>
      <trkpt lat="48.8194" lon="5.1878">
        <ele>278</ele>
        <time>2023-01-30T14:41:57.000Z</time>
      </trkpt>
      <trkpt lat="48.81941" lon="5.18783">
        <ele>278</ele>
        <time>2023-01-30T14:41:58.000Z</time>
      </trkpt>
      <trkpt lat="48.81942" lon="5.18785">
        <ele>278</ele>
        <time>2023-01-30T14:41:59.000Z</time>
      </trkpt>
      <trkpt lat="48.81943" lon="5.18786">
        <ele>278</ele>
        <time>2023-01-30T14:42:00.000Z</time>
      </trkpt>
      <trkpt lat="48.81943" lon="5.18788">
        <ele>278</ele>
        <time>2023-01-30T14:42:01.000Z</time>
      </trkpt>
      <trkpt lat="48.81944" lon="5.1879">
        <ele>278</ele>
        <time>2023-01-30T14:42:02.000Z</time>
      </trkpt>
      <trkpt lat="48.81945" lon="5.18791">
        <ele>278</ele>
        <time>2023-01-30T14:42:03.000Z</time>
      </trkpt>
      <trkpt lat="48.81945" lon="5.18793">
        <ele>278</ele>
        <time>2023-01-30T14:42:04.000Z</time>
      </trkpt>
      <trkpt lat="48.81946" lon="5.18795">
        <ele>278</ele>
        <time>2023-01-30T14:42:05.000Z</time>
      </trkpt>
      <trkpt lat="48.81946" lon="5.18797">
        <ele>278</ele>
        <time>2023-01-30T14:42:06.000Z</time>
      </trkpt>
      <trkpt lat="48.81946" lon="5.18798">
        <ele>278</ele>
        <time>2023-01-30T14:42:07.000Z</time>
      </trkpt>
      <trkpt lat="48.81946" lon="5.188">
        <ele>278</ele>
        <time>2023-01-30T14:42:08.000Z</time>
      </trkpt>
      <trkpt lat="48.81946" lon="5.18801">
        <ele>278</ele>
        <time>2023-01-30T14:42:09.000Z</time>
      </trkpt>
      <trkpt lat="48.81947" lon="5.18803">
        <ele>278</ele>
        <time>2023-01-30T14:42:10.000Z</time>
      </trkpt>
      <trkpt lat="48.81947" lon="5.18805">
        <ele>278</ele>
        <time>2023-01-30T14:42:11.000Z</time>
      </trkpt>
      <trkpt lat="48.81947" lon="5.18807">
        <ele>278</ele>
        <time>2023-01-30T14:42:12.000Z</time>
      </trkpt>
      <trkpt lat="48.81948" lon="5.18809">
        <ele>278</ele>
        <time>2023-01-30T14:42:13.000Z</time>
      </trkpt>
      <trkpt lat="48.81949" lon="5.18812">
        <ele>278</ele>
        <time>2023-01-30T14:42:14.000Z</time>
      </trkpt>
      <trkpt lat="48.81949" lon="5.18814">
        <ele>278</ele>
        <time>2023-01-30T14:42:15.000Z</time>
      </trkpt>
      <trkpt lat="48.8195" lon="5.18817">
        <ele>278</ele>
        <time>2023-01-30T14:42:16.000Z</time>
      </trkpt>
      <trkpt lat="48.81951" lon="5.18819">
        <ele>278</ele>
        <time>2023-01-30T14:42:17.000Z</time>
      </trkpt>
      <trkpt lat="48.81952" lon="5.18822">
        <ele>278</ele>
        <time>2023-01-30T14:42:18.000Z</time>
      </trkpt>
      <trkpt lat="48.81952" lon="5.18824">
        <ele>278</ele>
        <time>2023-01-30T14:42:19.000Z</time>
      </trkpt>
      <trkpt lat="48.81953" lon="5.18826">
        <ele>278</ele>
        <time>2023-01-30T14:42:20.000Z</time>
      </trkpt>
      <trkpt lat="48.81953" lon="5.18829">
        <ele>278</ele>
        <time>2023-01-30T14:42:21.000Z</time>
      </trkpt>
      <trkpt lat="48.81954" lon="5.18832">
        <ele>278</ele>
        <time>2023-01-30T14:42:22.000Z</time>
      </trkpt>
      <trkpt lat="48.81954" lon="5.18835">
        <ele>278</ele>
        <time>2023-01-30T14:42:23.000Z</time>
      </trkpt>
      <trkpt lat="48.81955" lon="5.18838">
        <ele>278</ele>
        <time>2023-01-30T14:42:24.000Z</time>
      </trkpt>
      <trkpt lat="48.81956" lon="5.18841">
        <ele>278.5</ele>
        <time>2023-01-30T14:42:25.000Z</time>
      </trkpt>
      <trkpt lat="48.81956" lon="5.18843">
        <ele>279</ele>
        <time>2023-01-30T14:42:26.000Z</time>
      </trkpt>
      <trkpt lat="48.81957" lon="5.18846">
        <ele>279</ele>
        <time>2023-01-30T14:42:27.000Z</time>
      </trkpt>
      <trkpt lat="48.81958" lon="5.18849">
        <ele>279</ele>
        <time>2023-01-30T14:42:28.000Z</time>
      </trkpt>
      <trkpt lat="48.81958" lon="5.18852">
        <ele>279</ele>
        <time>2023-01-30T14:42:29.000Z</time>
      </trkpt>
      <trkpt lat="48.81959" lon="5.18855">
        <ele>279</ele>
        <time>2023-01-30T14:42:30.000Z</time>
      </trkpt>
      <trkpt lat="48.81959" lon="5.18858">
        <ele>279</ele>
        <time>2023-01-30T14:42:31.000Z</time>
      </trkpt>
      <trkpt lat="48.8196" lon="5.18861">
        <ele>279</ele>
        <time>2023-01-30T14:42:32.000Z</time>
      </trkpt>
      <trkpt lat="48.81961" lon="5.18864">
        <ele>279</ele>
        <time>2023-01-30T14:42:33.000Z</time>
      </trkpt>
      <trkpt lat="48.81961" lon="5.18866">
        <ele>279</ele>
        <time>2023-01-30T14:42:34.000Z</time>
      </trkpt>
      <trkpt lat="48.81962" lon="5.18869">
        <ele>279</ele>
        <time>2023-01-30T14:42:35.000Z</time>
      </trkpt>
      <trkpt lat="48.81962" lon="5.18872">
        <ele>279</ele>
        <time>2023-01-30T14:42:36.000Z</time>
      </trkpt>
      <trkpt lat="48.81963" lon="5.18875">
        <ele>279</ele>
        <time>2023-01-30T14:42:37.000Z</time>
      </trkpt>
      <trkpt lat="48.81963" lon="5.18877">
        <ele>279</ele>
        <time>2023-01-30T14:42:38.000Z</time>
      </trkpt>
      <trkpt lat="48.81964" lon="5.1888">
        <ele>279</ele>
        <time>2023-01-30T14:42:39.000Z</time>
      </trkpt>
      <trkpt lat="48.81965" lon="5.18883">
        <ele>279</ele>
        <time>2023-01-30T14:42:40.000Z</time>
      </trkpt>
      <trkpt lat="48.81966" lon="5.18885">
        <ele>279</ele>
        <time>2023-01-30T14:42:41.000Z</time>
      </trkpt>
      <trkpt lat="48.81966" lon="5.18887">
        <ele>279</ele>
        <time>2023-01-30T14:42:42.000Z</time>
      </trkpt>
      <trkpt lat="48.81967" lon="5.18889">
        <ele>279</ele>
        <time>2023-01-30T14:42:43.000Z</time>
      </trkpt>
      <trkpt lat="48.81968" lon="5.1889">
        <ele>279</ele>
        <time>2023-01-30T14:42:44.000Z</time>
      </trkpt>
      <trkpt lat="48.81969" lon="5.18892">
        <ele>279</ele>
        <time>2023-01-30T14:42:45.000Z</time>
      </trkpt>
      <trkpt lat="48.8197" lon="5.18894">
        <ele>279</ele>
        <time>2023-01-30T14:42:46.000Z</time>
      </trkpt>
      <trkpt lat="48.8197" lon="5.18896">
        <ele>279</ele>
        <time>2023-01-30T14:42:47.000Z</time>
      </trkpt>
      <trkpt lat="48.81971" lon="5.18898">
        <ele>279</ele>
        <time>2023-01-30T14:42:48.000Z</time>
      </trkpt>
      <trkpt lat="48.81972" lon="5.189">
        <ele>279</ele>
        <time>2023-01-30T14:42:49.000Z</time>
      </trkpt>
      <trkpt lat="48.81973" lon="5.18902">
        <ele>279</ele>
        <time>2023-01-30T14:42:50.000Z</time>
      </trkpt>
      <trkpt lat="48.81974" lon="5.18905">
        <ele>279</ele>
        <time>2023-01-30T14:42:51.000Z</time>
      </trkpt>
      <trkpt lat="48.81975" lon="5.18907">
        <ele>279</ele>
        <time>2023-01-30T14:42:52.000Z</time>
      </trkpt>
      <trkpt lat="48.81975" lon="5.18909">
        <ele>279</ele>
        <time>2023-01-30T14:42:53.000Z</time>
      </trkpt>
      <trkpt lat="48.81976" lon="5.18911">
        <ele>279</ele>
        <time>2023-01-30T14:42:54.000Z</time>
      </trkpt>
      <trkpt lat="48.81976" lon="5.18913">
        <ele>279</ele>
        <time>2023-01-30T14:42:55.000Z</time>
      </trkpt>
      <trkpt lat="48.81977" lon="5.18915">
        <ele>279</ele>
        <time>2023-01-30T14:42:56.000Z</time>
      </trkpt>
      <trkpt lat="48.81977" lon="5.18918">
        <ele>279</ele>
        <time>2023-01-30T14:42:57.000Z</time>
      </trkpt>
      <trkpt lat="48.81978" lon="5.1892">
        <ele>279</ele>
        <time>2023-01-30T14:42:58.000Z</time>
      </trkpt>
      <trkpt lat="48.81979" lon="5.18922">
        <ele>279</ele>
        <time>2023-01-30T14:42:59.000Z</time>
      </trkpt>
      <trkpt lat="48.8198" lon="5.18924">
        <ele>279</ele>
        <time>2023-01-30T14:43:00.000Z</time>
      </trkpt>
      <trkpt lat="48.81981" lon="5.18926">
        <ele>279</ele>
        <time>2023-01-30T14:43:01.000Z</time>
      </trkpt>
      <trkpt lat="48.81981" lon="5.18928">
        <ele>279</ele>
        <time>2023-01-30T14:43:02.000Z</time>
      </trkpt>
      <trkpt lat="48.81982" lon="5.1893">
        <ele>279</ele>
        <time>2023-01-30T14:43:03.000Z</time>
      </trkpt>
      <trkpt lat="48.81983" lon="5.18932">
        <ele>279</ele>
        <time>2023-01-30T14:43:04.000Z</time>
      </trkpt>
      <trkpt lat="48.81984" lon="5.18934">
        <ele>279</ele>
        <time>2023-01-30T14:43:05.000Z</time>
      </trkpt>
      <trkpt lat="48.81985" lon="5.18936">
        <ele>279</ele>
        <time>2023-01-30T14:43:06.000Z</time>
      </trkpt>
      <trkpt lat="48.81985" lon="5.18938">
        <ele>279</ele>
        <time>2023-01-30T14:43:07.000Z</time>
      </trkpt>
      <trkpt lat="48.81986" lon="5.1894">
        <ele>279</ele>
        <time>2023-01-30T14:43:08.000Z</time>
      </trkpt>
      <trkpt lat="48.81987" lon="5.18941">
        <ele>279</ele>
        <time>2023-01-30T14:43:09.000Z</time>
      </trkpt>
      <trkpt lat="48.81988" lon="5.18943">
        <ele>279</ele>
        <time>2023-01-30T14:43:10.000Z</time>
      </trkpt>
      <trkpt lat="48.81989" lon="5.18945">
        <ele>279</ele>
        <time>2023-01-30T14:43:11.000Z</time>
      </trkpt>
      <trkpt lat="48.81989" lon="5.18947">
        <ele>279</ele>
        <time>2023-01-30T14:43:12.000Z</time>
      </trkpt>
      <trkpt lat="48.8199" lon="5.18949">
        <ele>279</ele>
        <time>2023-01-30T14:43:13.000Z</time>
      </trkpt>
      <trkpt lat="48.81991" lon="5.18951">
        <ele>279</ele>
        <time>2023-01-30T14:43:14.000Z</time>
      </trkpt>
      <trkpt lat="48.81991" lon="5.18953">
        <ele>279</ele>
        <time>2023-01-30T14:43:15.000Z</time>
      </trkpt>
      <trkpt lat="48.81992" lon="5.18955">
        <ele>279</ele>
        <time>2023-01-30T14:43:16.000Z</time>
      </trkpt>
      <trkpt lat="48.81992" lon="5.18957">
        <ele>279</ele>
        <time>2023-01-30T14:43:17.000Z</time>
      </trkpt>
      <trkpt lat="48.81992" lon="5.18959">
        <ele>279</ele>
        <time>2023-01-30T14:43:18.000Z</time>
      </trkpt>
      <trkpt lat="48.81993" lon="5.18961">
        <ele>279</ele>
        <time>2023-01-30T14:43:19.000Z</time>
      </trkpt>
      <trkpt lat="48.81993" lon="5.18963">
        <ele>279</ele>
        <time>2023-01-30T14:43:20.000Z</time>
      </trkpt>
      <trkpt lat="48.81993" lon="5.18965">
        <ele>279</ele>
        <time>2023-01-30T14:43:21.000Z</time>
      </trkpt>
      <trkpt lat="48.81994" lon="5.18966">
        <ele>279</ele>
        <time>2023-01-30T14:43:22.000Z</time>
      </trkpt>
      <trkpt lat="48.81995" lon="5.18967">
        <ele>279</ele>
        <time>2023-01-30T14:43:23.000Z</time>
      </trkpt>
      <trkpt lat="48.81996" lon="5.18969">
        <ele>279</ele>
        <time>2023-01-30T14:43:24.000Z</time>
      </trkpt>
      <trkpt lat="48.81996" lon="5.1897">
        <ele>279</ele>
        <time>2023-01-30T14:43:25.000Z</time>
      </trkpt>
      <trkpt lat="48.81997" lon="5.18972">
        <ele>279</ele>
        <time>2023-01-30T14:43:26.000Z</time>
      </trkpt>
      <trkpt lat="48.81998" lon="5.18973">
        <ele>279.5</ele>
        <time>2023-01-30T14:43:27.000Z</time>
      </trkpt>
      <trkpt lat="48.81998" lon="5.18975">
        <ele>280</ele>
        <time>2023-01-30T14:43:28.000Z</time>
      </trkpt>
      <trkpt lat="48.81999" lon="5.18976">
        <ele>280</ele>
        <time>2023-01-30T14:43:29.000Z</time>
      </trkpt>
      <trkpt lat="48.82" lon="5.18978">
        <ele>280</ele>
        <time>2023-01-30T14:43:30.000Z</time>
      </trkpt>
      <trkpt lat="48.82001" lon="5.18979">
        <ele>280</ele>
        <time>2023-01-30T14:43:31.000Z</time>
      </trkpt>
      <trkpt lat="48.82002" lon="5.18981">
        <ele>280</ele>
        <time>2023-01-30T14:43:32.000Z</time>
      </trkpt>
      <trkpt lat="48.82004" lon="5.18983">
        <ele>280</ele>
        <time>2023-01-30T14:43:33.000Z</time>
      </trkpt>
      <trkpt lat="48.82005" lon="5.18985">
        <ele>280</ele>
        <time>2023-01-30T14:43:34.000Z</time>
      </trkpt>
      <trkpt lat="48.82006" lon="5.18987">
        <ele>280</ele>
        <time>2023-01-30T14:43:35.000Z</time>
      </trkpt>
      <trkpt lat="48.82007" lon="5.18988">
        <ele>280</ele>
        <time>2023-01-30T14:43:36.000Z</time>
      </trkpt>
      <trkpt lat="48.82008" lon="5.1899">
        <ele>280</ele>
        <time>2023-01-30T14:43:37.000Z</time>
      </trkpt>
      <trkpt lat="48.82009" lon="5.18992">
        <ele>280</ele>
        <time>2023-01-30T14:43:38.000Z</time>
      </trkpt>
      <trkpt lat="48.8201" lon="5.18993">
        <ele>280</ele>
        <time>2023-01-30T14:43:39.000Z</time>
      </trkpt>
      <trkpt lat="48.82011" lon="5.18995">
        <ele>280</ele>
        <time>2023-01-30T14:43:40.000Z</time>
      </trkpt>
      <trkpt lat="48.82012" lon="5.18997">
        <ele>280</ele>
        <time>2023-01-30T14:43:41.000Z</time>
      </trkpt>
      <trkpt lat="48.82012" lon="5.18998">
        <ele>280</ele>
        <time>2023-01-30T14:43:42.000Z</time>
      </trkpt>
      <trkpt lat="48.82013" lon="5.19">
        <ele>279</ele>
        <time>2023-01-30T14:43:43.000Z</time>
      </trkpt>
      <trkpt lat="48.82014" lon="5.19002">
        <ele>279</ele>
        <time>2023-01-30T14:43:44.000Z</time>
      </trkpt>
      <trkpt lat="48.82015" lon="5.19005">
        <ele>279</ele>
        <time>2023-01-30T14:43:45.000Z</time>
      </trkpt>
      <trkpt lat="48.82015" lon="5.19007">
        <ele>279</ele>
        <time>2023-01-30T14:43:46.000Z</time>
      </trkpt>
      <trkpt lat="48.82016" lon="5.19009">
        <ele>279</ele>
        <time>2023-01-30T14:43:47.000Z</time>
      </trkpt>
      <trkpt lat="48.82016" lon="5.19012">
        <ele>279</ele>
        <time>2023-01-30T14:43:48.000Z</time>
      </trkpt>
      <trkpt lat="48.82017" lon="5.19014">
        <ele>279</ele>
        <time>2023-01-30T14:43:49.000Z</time>
      </trkpt>
      <trkpt lat="48.82017" lon="5.19017">
        <ele>279</ele>
        <time>2023-01-30T14:43:50.000Z</time>
      </trkpt>
      <trkpt lat="48.82018" lon="5.19019">
        <ele>279</ele>
        <time>2023-01-30T14:43:51.000Z</time>
      </trkpt>
      <trkpt lat="48.82018" lon="5.19021">
        <ele>279</ele>
        <time>2023-01-30T14:43:52.000Z</time>
      </trkpt>
      <trkpt lat="48.82019" lon="5.19023">
        <ele>279</ele>
        <time>2023-01-30T14:43:53.000Z</time>
      </trkpt>
      <trkpt lat="48.82019" lon="5.19026">
        <ele>279</ele>
        <time>2023-01-30T14:43:54.000Z</time>
      </trkpt>
      <trkpt lat="48.8202" lon="5.19028">
        <ele>279</ele>
        <time>2023-01-30T14:43:55.000Z</time>
      </trkpt>
      <trkpt lat="48.8202" lon="5.19029">
        <ele>279</ele>
        <time>2023-01-30T14:43:56.000Z</time>
      </trkpt>
      <trkpt lat="48.8202" lon="5.1903">
        <ele>279</ele>
        <time>2023-01-30T14:43:57.000Z</time>
      </trkpt>
      <trkpt lat="48.82021" lon="5.19031">
        <ele>279</ele>
        <time>2023-01-30T14:43:58.000Z</time>
      </trkpt>
      <trkpt lat="48.82021" lon="5.19033">
        <ele>279</ele>
        <time>2023-01-30T14:43:59.000Z</time>
      </trkpt>
      <trkpt lat="48.82021" lon="5.19035">
        <ele>279</ele>
        <time>2023-01-30T14:44:00.000Z</time>
      </trkpt>
      <trkpt lat="48.82021" lon="5.19036">
        <ele>279</ele>
        <time>2023-01-30T14:44:01.000Z</time>
      </trkpt>
      <trkpt lat="48.82021" lon="5.19038">
        <ele>279</ele>
        <time>2023-01-30T14:44:02.000Z</time>
      </trkpt>
      <trkpt lat="48.82021" lon="5.1904">
        <ele>279</ele>
        <time>2023-01-30T14:44:03.000Z</time>
      </trkpt>
      <trkpt lat="48.82021" lon="5.19042">
        <ele>279</ele>
        <time>2023-01-30T14:44:04.000Z</time>
      </trkpt>
      <trkpt lat="48.82021" lon="5.19043">
        <ele>279</ele>
        <time>2023-01-30T14:44:05.000Z</time>
      </trkpt>
      <trkpt lat="48.82021" lon="5.19045">
        <ele>279</ele>
        <time>2023-01-30T14:44:06.000Z</time>
      </trkpt>
      <trkpt lat="48.82021" lon="5.19046">
        <ele>279</ele>
        <time>2023-01-30T14:44:07.000Z</time>
      </trkpt>
      <trkpt lat="48.82021" lon="5.19048">
        <ele>279</ele>
        <time>2023-01-30T14:44:08.000Z</time>
      </trkpt>
      <trkpt lat="48.82021" lon="5.19049">
        <ele>279</ele>
        <time>2023-01-30T14:44:09.000Z</time>
      </trkpt>
      <trkpt lat="48.82021" lon="5.19051">
        <ele>279</ele>
        <time>2023-01-30T14:44:10.000Z</time>
      </trkpt>
      <trkpt lat="48.82021" lon="5.19053">
        <ele>279</ele>
        <time>2023-01-30T14:44:11.000Z</time>
      </trkpt>
      <trkpt lat="48.82021" lon="5.19055">
        <ele>279</ele>
        <time>2023-01-30T14:44:12.000Z</time>
      </trkpt>
      <trkpt lat="48.82021" lon="5.19057">
        <ele>279</ele>
        <time>2023-01-30T14:44:13.000Z</time>
      </trkpt>
      <trkpt lat="48.82021" lon="5.1906">
        <ele>279</ele>
        <time>2023-01-30T14:44:14.000Z</time>
      </trkpt>
      <trkpt lat="48.82021" lon="5.19062">
        <ele>279</ele>
        <time>2023-01-30T14:44:15.000Z</time>
      </trkpt>
      <trkpt lat="48.82021" lon="5.19063">
        <ele>279</ele>
        <time>2023-01-30T14:44:16.000Z</time>
      </trkpt>
      <trkpt lat="48.82021" lon="5.19065">
        <ele>279</ele>
        <time>2023-01-30T14:44:17.000Z</time>
      </trkpt>
      <trkpt lat="48.82021" lon="5.19066">
        <ele>279</ele>
        <time>2023-01-30T14:44:18.000Z</time>
      </trkpt>
      <trkpt lat="48.82021" lon="5.19068">
        <ele>279</ele>
        <time>2023-01-30T14:44:19.000Z</time>
      </trkpt>
      <trkpt lat="48.82021" lon="5.1907">
        <ele>279</ele>
        <time>2023-01-30T14:44:20.000Z</time>
      </trkpt>
      <trkpt lat="48.82021" lon="5.19073">
        <ele>279</ele>
        <time>2023-01-30T14:44:21.000Z</time>
      </trkpt>
      <trkpt lat="48.82021" lon="5.19075">
        <ele>279</ele>
        <time>2023-01-30T14:44:22.000Z</time>
      </trkpt>
      <trkpt lat="48.82022" lon="5.19078">
        <ele>279</ele>
        <time>2023-01-30T14:44:23.000Z</time>
      </trkpt>
      <trkpt lat="48.82023" lon="5.1908">
        <ele>279</ele>
        <time>2023-01-30T14:44:24.000Z</time>
      </trkpt>
      <trkpt lat="48.82023" lon="5.19082">
        <ele>279</ele>
        <time>2023-01-30T14:44:25.000Z</time>
      </trkpt>
      <trkpt lat="48.82024" lon="5.19084">
        <ele>279</ele>
        <time>2023-01-30T14:44:26.000Z</time>
      </trkpt>
      <trkpt lat="48.82024" lon="5.19086">
        <ele>279</ele>
        <time>2023-01-30T14:44:27.000Z</time>
      </trkpt>
      <trkpt lat="48.82025" lon="5.19088">
        <ele>279</ele>
        <time>2023-01-30T14:44:28.000Z</time>
      </trkpt>
      <trkpt lat="48.82025" lon="5.19089">
        <ele>279</ele>
        <time>2023-01-30T14:44:29.000Z</time>
      </trkpt>
      <trkpt lat="48.82025" lon="5.19091">
        <ele>279</ele>
        <time>2023-01-30T14:44:30.000Z</time>
      </trkpt>
      <trkpt lat="48.82025" lon="5.19093">
        <ele>279</ele>
        <time>2023-01-30T14:44:31.000Z</time>
      </trkpt>
      <trkpt lat="48.82025" lon="5.19096">
        <ele>279</ele>
        <time>2023-01-30T14:44:32.000Z</time>
      </trkpt>
      <trkpt lat="48.82025" lon="5.19098">
        <ele>279</ele>
        <time>2023-01-30T14:44:33.000Z</time>
      </trkpt>
      <trkpt lat="48.82025" lon="5.191">
        <ele>279</ele>
        <time>2023-01-30T14:44:34.000Z</time>
      </trkpt>
      <trkpt lat="48.82025" lon="5.19103">
        <ele>279</ele>
        <time>2023-01-30T14:44:35.000Z</time>
      </trkpt>
      <trkpt lat="48.82025" lon="5.19106">
        <ele>279</ele>
        <time>2023-01-30T14:44:36.000Z</time>
      </trkpt>
      <trkpt lat="48.82025" lon="5.19109">
        <ele>279</ele>
        <time>2023-01-30T14:44:37.000Z</time>
      </trkpt>
      <trkpt lat="48.82025" lon="5.19112">
        <ele>279</ele>
        <time>2023-01-30T14:44:38.000Z</time>
      </trkpt>
      <trkpt lat="48.82025" lon="5.19115">
        <ele>279</ele>
        <time>2023-01-30T14:44:39.000Z</time>
      </trkpt>
      <trkpt lat="48.82025" lon="5.19118">
        <ele>279</ele>
        <time>2023-01-30T14:44:40.000Z</time>
      </trkpt>
      <trkpt lat="48.82025" lon="5.19121">
        <ele>279</ele>
        <time>2023-01-30T14:44:41.000Z</time>
      </trkpt>
      <trkpt lat="48.82026" lon="5.19124">
        <ele>279</ele>
        <time>2023-01-30T14:44:42.000Z</time>
      </trkpt>
      <trkpt lat="48.82026" lon="5.19126">
        <ele>279</ele>
        <time>2023-01-30T14:44:43.000Z</time>
      </trkpt>
      <trkpt lat="48.82026" lon="5.19129">
        <ele>279</ele>
        <time>2023-01-30T14:44:44.000Z</time>
      </trkpt>
      <trkpt lat="48.82026" lon="5.19131">
        <ele>279</ele>
        <time>2023-01-30T14:44:45.000Z</time>
      </trkpt>
      <trkpt lat="48.82025" lon="5.19134">
        <ele>279</ele>
        <time>2023-01-30T14:44:46.000Z</time>
      </trkpt>
      <trkpt lat="48.82025" lon="5.19136">
        <ele>279</ele>
        <time>2023-01-30T14:44:47.000Z</time>
      </trkpt>
      <trkpt lat="48.82025" lon="5.19138">
        <ele>279</ele>
        <time>2023-01-30T14:44:48.000Z</time>
      </trkpt>
      <trkpt lat="48.82024" lon="5.19139">
        <ele>279</ele>
        <time>2023-01-30T14:44:49.000Z</time>
      </trkpt>
      <trkpt lat="48.82024" lon="5.1914">
        <ele>279</ele>
        <time>2023-01-30T14:44:50.000Z</time>
      </trkpt>
      <trkpt lat="48.82023" lon="5.19141">
        <ele>279</ele>
        <time>2023-01-30T14:44:51.000Z</time>
      </trkpt>
      <trkpt lat="48.82022" lon="5.19141">
        <ele>279</ele>
        <time>2023-01-30T14:44:52.000Z</time>
      </trkpt>
      <trkpt lat="48.82021" lon="5.19141">
        <ele>279</ele>
        <time>2023-01-30T14:44:53.000Z</time>
      </trkpt>
      <trkpt lat="48.82019" lon="5.19141">
        <ele>279.5</ele>
        <time>2023-01-30T14:44:54.000Z</time>
      </trkpt>
      <trkpt lat="48.82018" lon="5.19141">
        <ele>280</ele>
        <time>2023-01-30T14:44:55.000Z</time>
      </trkpt>
      <trkpt lat="48.82017" lon="5.19141">
        <ele>280</ele>
        <time>2023-01-30T14:44:56.000Z</time>
      </trkpt>
      <trkpt lat="48.82015" lon="5.1914">
        <ele>280</ele>
        <time>2023-01-30T14:44:57.000Z</time>
      </trkpt>
      <trkpt lat="48.82014" lon="5.1914">
        <ele>280</ele>
        <time>2023-01-30T14:44:58.000Z</time>
      </trkpt>
      <trkpt lat="48.82012" lon="5.19139">
        <ele>280</ele>
        <time>2023-01-30T14:44:59.000Z</time>
      </trkpt>
      <trkpt lat="48.82011" lon="5.19139">
        <ele>280</ele>
        <time>2023-01-30T14:45:00.000Z</time>
      </trkpt>
      <trkpt lat="48.8201" lon="5.19138">
        <ele>280</ele>
        <time>2023-01-30T14:45:01.000Z</time>
      </trkpt>
      <trkpt lat="48.82009" lon="5.19137">
        <ele>280</ele>
        <time>2023-01-30T14:45:02.000Z</time>
      </trkpt>
      <trkpt lat="48.82008" lon="5.19137">
        <ele>280</ele>
        <time>2023-01-30T14:45:03.000Z</time>
      </trkpt>
      <trkpt lat="48.82007" lon="5.19136">
        <ele>280</ele>
        <time>2023-01-30T14:45:04.000Z</time>
      </trkpt>
      <trkpt lat="48.82006" lon="5.19135">
        <ele>280</ele>
        <time>2023-01-30T14:45:05.000Z</time>
      </trkpt>
      <trkpt lat="48.82005" lon="5.19134">
        <ele>280</ele>
        <time>2023-01-30T14:45:06.000Z</time>
      </trkpt>
      <trkpt lat="48.82005" lon="5.19133">
        <ele>280</ele>
        <time>2023-01-30T14:45:07.000Z</time>
      </trkpt>
      <trkpt lat="48.82004" lon="5.19132">
        <ele>280</ele>
        <time>2023-01-30T14:45:08.000Z</time>
      </trkpt>
      <trkpt lat="48.82003" lon="5.19131">
        <ele>280</ele>
        <time>2023-01-30T14:45:09.000Z</time>
      </trkpt>
      <trkpt lat="48.82003" lon="5.1913">
        <ele>280</ele>
        <time>2023-01-30T14:45:10.000Z</time>
      </trkpt>
      <trkpt lat="48.82002" lon="5.19129">
        <ele>280</ele>
        <time>2023-01-30T14:45:11.000Z</time>
      </trkpt>
      <trkpt lat="48.82001" lon="5.19128">
        <ele>280</ele>
        <time>2023-01-30T14:45:12.000Z</time>
      </trkpt>
      <trkpt lat="48.82" lon="5.19128">
        <ele>280</ele>
        <time>2023-01-30T14:45:13.000Z</time>
      </trkpt>
      <trkpt lat="48.81998" lon="5.19127">
        <ele>280</ele>
        <time>2023-01-30T14:45:14.000Z</time>
      </trkpt>
      <trkpt lat="48.81997" lon="5.19126">
        <ele>280</ele>
        <time>2023-01-30T14:45:15.000Z</time>
      </trkpt>
      <trkpt lat="48.81995" lon="5.19124">
        <ele>280</ele>
        <time>2023-01-30T14:45:16.000Z</time>
      </trkpt>
      <trkpt lat="48.81993" lon="5.19124">
        <ele>280</ele>
        <time>2023-01-30T14:45:17.000Z</time>
      </trkpt>
      <trkpt lat="48.81991" lon="5.19123">
        <ele>280</ele>
        <time>2023-01-30T14:45:18.000Z</time>
      </trkpt>
      <trkpt lat="48.81989" lon="5.19122">
        <ele>280</ele>
        <time>2023-01-30T14:45:19.000Z</time>
      </trkpt>
      <trkpt lat="48.81987" lon="5.19121">
        <ele>280</ele>
        <time>2023-01-30T14:45:20.000Z</time>
      </trkpt>
      <trkpt lat="48.81986" lon="5.1912">
        <ele>280</ele>
        <time>2023-01-30T14:45:21.000Z</time>
      </trkpt>
      <trkpt lat="48.81984" lon="5.19119">
        <ele>280</ele>
        <time>2023-01-30T14:45:22.000Z</time>
      </trkpt>
      <trkpt lat="48.81983" lon="5.19118">
        <ele>280</ele>
        <time>2023-01-30T14:45:23.000Z</time>
      </trkpt>
      <trkpt lat="48.81981" lon="5.19117">
        <ele>280</ele>
        <time>2023-01-30T14:45:24.000Z</time>
      </trkpt>
      <trkpt lat="48.8198" lon="5.19116">
        <ele>280</ele>
        <time>2023-01-30T14:45:25.000Z</time>
      </trkpt>
      <trkpt lat="48.81979" lon="5.19115">
        <ele>280</ele>
        <time>2023-01-30T14:45:26.000Z</time>
      </trkpt>
      <trkpt lat="48.81977" lon="5.19114">
        <ele>280</ele>
        <time>2023-01-30T14:45:27.000Z</time>
      </trkpt>
      <trkpt lat="48.81976" lon="5.19113">
        <ele>280</ele>
        <time>2023-01-30T14:45:28.000Z</time>
      </trkpt>
      <trkpt lat="48.81975" lon="5.19111">
        <ele>280</ele>
        <time>2023-01-30T14:45:29.000Z</time>
      </trkpt>
      <trkpt lat="48.81973" lon="5.19109">
        <ele>280</ele>
        <time>2023-01-30T14:45:30.000Z</time>
      </trkpt>
      <trkpt lat="48.81972" lon="5.19106">
        <ele>280</ele>
        <time>2023-01-30T14:45:31.000Z</time>
      </trkpt>
      <trkpt lat="48.81971" lon="5.19104">
        <ele>280</ele>
        <time>2023-01-30T14:45:32.000Z</time>
      </trkpt>
      <trkpt lat="48.8197" lon="5.19102">
        <ele>280</ele>
        <time>2023-01-30T14:45:33.000Z</time>
      </trkpt>
      <trkpt lat="48.81969" lon="5.191">
        <ele>279.5</ele>
        <time>2023-01-30T14:45:34.000Z</time>
      </trkpt>
      <trkpt lat="48.81968" lon="5.19099">
        <ele>279</ele>
        <time>2023-01-30T14:45:35.000Z</time>
      </trkpt>
      <trkpt lat="48.81968" lon="5.19097">
        <ele>279</ele>
        <time>2023-01-30T14:45:36.000Z</time>
      </trkpt>
      <trkpt lat="48.81967" lon="5.19095">
        <ele>279</ele>
        <time>2023-01-30T14:45:37.000Z</time>
      </trkpt>
      <trkpt lat="48.81966" lon="5.19093">
        <ele>279</ele>
        <time>2023-01-30T14:45:38.000Z</time>
      </trkpt>
      <trkpt lat="48.81965" lon="5.19092">
        <ele>279</ele>
        <time>2023-01-30T14:45:39.000Z</time>
      </trkpt>
      <trkpt lat="48.81964" lon="5.1909">
        <ele>279</ele>
        <time>2023-01-30T14:45:40.000Z</time>
      </trkpt>
      <trkpt lat="48.81962" lon="5.19089">
        <ele>279</ele>
        <time>2023-01-30T14:45:41.000Z</time>
      </trkpt>
      <trkpt lat="48.81961" lon="5.19089">
        <ele>279</ele>
        <time>2023-01-30T14:45:42.000Z</time>
      </trkpt>
      <trkpt lat="48.81959" lon="5.19088">
        <ele>279</ele>
        <time>2023-01-30T14:45:43.000Z</time>
      </trkpt>
      <trkpt lat="48.81958" lon="5.19087">
        <ele>279</ele>
        <time>2023-01-30T14:45:44.000Z</time>
      </trkpt>
      <trkpt lat="48.81957" lon="5.19086">
        <ele>279</ele>
        <time>2023-01-30T14:45:45.000Z</time>
      </trkpt>
      <trkpt lat="48.81955" lon="5.19085">
        <ele>279</ele>
        <time>2023-01-30T14:45:46.000Z</time>
      </trkpt>
      <trkpt lat="48.81954" lon="5.19085">
        <ele>279</ele>
        <time>2023-01-30T14:45:47.000Z</time>
      </trkpt>
      <trkpt lat="48.81953" lon="5.19085">
        <ele>279</ele>
        <time>2023-01-30T14:45:48.000Z</time>
      </trkpt>
      <trkpt lat="48.81952" lon="5.19085">
        <ele>279</ele>
        <time>2023-01-30T14:45:49.000Z</time>
      </trkpt>
      <trkpt lat="48.81951" lon="5.19085">
        <ele>279</ele>
        <time>2023-01-30T14:45:50.000Z</time>
      </trkpt>
      <trkpt lat="48.8195" lon="5.19085">
        <ele>279</ele>
        <time>2023-01-30T14:45:51.000Z</time>
      </trkpt>
      <trkpt lat="48.81949" lon="5.19084">
        <ele>279</ele>
        <time>2023-01-30T14:45:52.000Z</time>
      </trkpt>
      <trkpt lat="48.81948" lon="5.19084">
        <ele>279</ele>
        <time>2023-01-30T14:45:53.000Z</time>
      </trkpt>
      <trkpt lat="48.81948" lon="5.19083">
        <ele>279</ele>
        <time>2023-01-30T14:45:54.000Z</time>
      </trkpt>
      <trkpt lat="48.81947" lon="5.19083">
        <ele>279</ele>
        <time>2023-01-30T14:45:55.000Z</time>
      </trkpt>
      <trkpt lat="48.81946" lon="5.19082">
        <ele>279</ele>
        <time>2023-01-30T14:45:56.000Z</time>
      </trkpt>
      <trkpt lat="48.81945" lon="5.19081">
        <ele>279</ele>
        <time>2023-01-30T14:45:57.000Z</time>
      </trkpt>
      <trkpt lat="48.81944" lon="5.19081">
        <ele>278.5</ele>
        <time>2023-01-30T14:45:58.000Z</time>
      </trkpt>
      <trkpt lat="48.81943" lon="5.1908">
        <ele>278</ele>
        <time>2023-01-30T14:45:59.000Z</time>
      </trkpt>
      <trkpt lat="48.81942" lon="5.1908">
        <ele>278</ele>
        <time>2023-01-30T14:46:00.000Z</time>
      </trkpt>
      <trkpt lat="48.81941" lon="5.1908">
        <ele>278</ele>
        <time>2023-01-30T14:46:01.000Z</time>
      </trkpt>
      <trkpt lat="48.8194" lon="5.1908">
        <ele>278</ele>
        <time>2023-01-30T14:46:02.000Z</time>
      </trkpt>
      <trkpt lat="48.8194" lon="5.1908">
        <ele>278</ele>
        <time>2023-01-30T14:46:03.000Z</time>
      </trkpt>
      <trkpt lat="48.81939" lon="5.19079">
        <ele>278</ele>
        <time>2023-01-30T14:46:04.000Z</time>
      </trkpt>
      <trkpt lat="48.81939" lon="5.19079">
        <ele>278</ele>
        <time>2023-01-30T14:46:05.000Z</time>
      </trkpt>
      <trkpt lat="48.81938" lon="5.19079">
        <ele>278</ele>
        <time>2023-01-30T14:46:06.000Z</time>
      </trkpt>
      <trkpt lat="48.81937" lon="5.19079">
        <ele>278</ele>
        <time>2023-01-30T14:46:07.000Z</time>
      </trkpt>
      <trkpt lat="48.81937" lon="5.19078">
        <ele>278</ele>
        <time>2023-01-30T14:46:08.000Z</time>
      </trkpt>
      <trkpt lat="48.81936" lon="5.19078">
        <ele>278</ele>
        <time>2023-01-30T14:46:09.000Z</time>
      </trkpt>
      <trkpt lat="48.81935" lon="5.19077">
        <ele>277</ele>
        <time>2023-01-30T14:46:10.000Z</time>
      </trkpt>
      <trkpt lat="48.81934" lon="5.19077">
        <ele>277</ele>
        <time>2023-01-30T14:46:11.000Z</time>
      </trkpt>
      <trkpt lat="48.81934" lon="5.19076">
        <ele>277</ele>
        <time>2023-01-30T14:46:12.000Z</time>
      </trkpt>
      <trkpt lat="48.81933" lon="5.19075">
        <ele>277</ele>
        <time>2023-01-30T14:46:13.000Z</time>
      </trkpt>
      <trkpt lat="48.81933" lon="5.19075">
        <ele>277</ele>
        <time>2023-01-30T14:46:14.000Z</time>
      </trkpt>
      <trkpt lat="48.81932" lon="5.19074">
        <ele>277</ele>
        <time>2023-01-30T14:46:15.000Z</time>
      </trkpt>
      <trkpt lat="48.81931" lon="5.19074">
        <ele>277</ele>
        <time>2023-01-30T14:46:16.000Z</time>
      </trkpt>
      <trkpt lat="48.8193" lon="5.19073">
        <ele>277</ele>
        <time>2023-01-30T14:46:17.000Z</time>
      </trkpt>
      <trkpt lat="48.81928" lon="5.19073">
        <ele>277</ele>
        <time>2023-01-30T14:46:18.000Z</time>
      </trkpt>
      <trkpt lat="48.81927" lon="5.19072">
        <ele>277</ele>
        <time>2023-01-30T14:46:19.000Z</time>
      </trkpt>
      <trkpt lat="48.81926" lon="5.1907">
        <ele>276</ele>
        <time>2023-01-30T14:46:20.000Z</time>
      </trkpt>
      <trkpt lat="48.81924" lon="5.19069">
        <ele>276</ele>
        <time>2023-01-30T14:46:21.000Z</time>
      </trkpt>
      <trkpt lat="48.81923" lon="5.19068">
        <ele>276</ele>
        <time>2023-01-30T14:46:22.000Z</time>
      </trkpt>
      <trkpt lat="48.81922" lon="5.19067">
        <ele>276</ele>
        <time>2023-01-30T14:46:23.000Z</time>
      </trkpt>
      <trkpt lat="48.8192" lon="5.19066">
        <ele>276</ele>
        <time>2023-01-30T14:46:24.000Z</time>
      </trkpt>
      <trkpt lat="48.81918" lon="5.19065">
        <ele>275.7</ele>
        <time>2023-01-30T14:46:25.000Z</time>
      </trkpt>
      <trkpt lat="48.81917" lon="5.19065">
        <ele>275.3</ele>
        <time>2023-01-30T14:46:26.000Z</time>
      </trkpt>
      <trkpt lat="48.81915" lon="5.19064">
        <ele>275</ele>
        <time>2023-01-30T14:46:27.000Z</time>
      </trkpt>
      <trkpt lat="48.81914" lon="5.19064">
        <ele>275</ele>
        <time>2023-01-30T14:46:28.000Z</time>
      </trkpt>
      <trkpt lat="48.81912" lon="5.19063">
        <ele>275</ele>
        <time>2023-01-30T14:46:29.000Z</time>
      </trkpt>
      <trkpt lat="48.81911" lon="5.19062">
        <ele>275</ele>
        <time>2023-01-30T14:46:30.000Z</time>
      </trkpt>
      <trkpt lat="48.8191" lon="5.19061">
        <ele>275</ele>
        <time>2023-01-30T14:46:31.000Z</time>
      </trkpt>
      <trkpt lat="48.81909" lon="5.1906">
        <ele>275</ele>
        <time>2023-01-30T14:46:32.000Z</time>
      </trkpt>
      <trkpt lat="48.81909" lon="5.19059">
        <ele>275</ele>
        <time>2023-01-30T14:46:33.000Z</time>
      </trkpt>
      <trkpt lat="48.81908" lon="5.19059">
        <ele>274.5</ele>
        <time>2023-01-30T14:46:34.000Z</time>
      </trkpt>
      <trkpt lat="48.81907" lon="5.19058">
        <ele>274</ele>
        <time>2023-01-30T14:46:35.000Z</time>
      </trkpt>
      <trkpt lat="48.81906" lon="5.19058">
        <ele>274</ele>
        <time>2023-01-30T14:46:36.000Z</time>
      </trkpt>
      <trkpt lat="48.81905" lon="5.19058">
        <ele>274</ele>
        <time>2023-01-30T14:46:37.000Z</time>
      </trkpt>
      <trkpt lat="48.81904" lon="5.19058">
        <ele>273.5</ele>
        <time>2023-01-30T14:46:38.000Z</time>
      </trkpt>
      <trkpt lat="48.81903" lon="5.19058">
        <ele>273</ele>
        <time>2023-01-30T14:46:39.000Z</time>
      </trkpt>
      <trkpt lat="48.81901" lon="5.19058">
        <ele>273</ele>
        <time>2023-01-30T14:46:40.000Z</time>
      </trkpt>
      <trkpt lat="48.819" lon="5.19057">
        <ele>273</ele>
        <time>2023-01-30T14:46:41.000Z</time>
      </trkpt>
      <trkpt lat="48.81899" lon="5.19056">
        <ele>273</ele>
        <time>2023-01-30T14:46:42.000Z</time>
      </trkpt>
      <trkpt lat="48.81898" lon="5.19056">
        <ele>272.7</ele>
        <time>2023-01-30T14:46:43.000Z</time>
      </trkpt>
      <trkpt lat="48.81897" lon="5.19055">
        <ele>272.3</ele>
        <time>2023-01-30T14:46:44.000Z</time>
      </trkpt>
      <trkpt lat="48.81895" lon="5.19053">
        <ele>272</ele>
        <time>2023-01-30T14:46:45.000Z</time>
      </trkpt>
      <trkpt lat="48.81893" lon="5.19052">
        <ele>272</ele>
        <time>2023-01-30T14:46:46.000Z</time>
      </trkpt>
      <trkpt lat="48.81891" lon="5.1905">
        <ele>272</ele>
        <time>2023-01-30T14:46:47.000Z</time>
      </trkpt>
      <trkpt lat="48.81889" lon="5.19049">
        <ele>272</ele>
        <time>2023-01-30T14:46:48.000Z</time>
      </trkpt>
      <trkpt lat="48.81887" lon="5.19049">
        <ele>272</ele>
        <time>2023-01-30T14:46:49.000Z</time>
      </trkpt>
      <trkpt lat="48.81885" lon="5.19048">
        <ele>271.5</ele>
        <time>2023-01-30T14:46:50.000Z</time>
      </trkpt>
      <trkpt lat="48.81884" lon="5.19048">
        <ele>271</ele>
        <time>2023-01-30T14:46:51.000Z</time>
      </trkpt>
      <trkpt lat="48.81881" lon="5.19047">
        <ele>271</ele>
        <time>2023-01-30T14:46:52.000Z</time>
      </trkpt>
      <trkpt lat="48.81879" lon="5.19047">
        <ele>271</ele>
        <time>2023-01-30T14:46:53.000Z</time>
      </trkpt>
      <trkpt lat="48.81878" lon="5.19046">
        <ele>271</ele>
        <time>2023-01-30T14:46:54.000Z</time>
      </trkpt>
      <trkpt lat="48.81876" lon="5.19046">
        <ele>271</ele>
        <time>2023-01-30T14:46:55.000Z</time>
      </trkpt>
      <trkpt lat="48.81876" lon="5.19046">
        <ele>271</ele>
        <time>2023-01-30T14:46:56.000Z</time>
      </trkpt>
      <trkpt lat="48.81875" lon="5.19046">
        <ele>271</ele>
        <time>2023-01-30T14:46:57.000Z</time>
      </trkpt>
      <trkpt lat="48.81873" lon="5.19045">
        <ele>271</ele>
        <time>2023-01-30T14:46:58.000Z</time>
      </trkpt>
      <trkpt lat="48.81871" lon="5.19044">
        <ele>271</ele>
        <time>2023-01-30T14:46:59.000Z</time>
      </trkpt>
      <trkpt lat="48.8187" lon="5.19044">
        <ele>271</ele>
        <time>2023-01-30T14:47:00.000Z</time>
      </trkpt>
      <trkpt lat="48.81869" lon="5.19043">
        <ele>271</ele>
        <time>2023-01-30T14:47:01.000Z</time>
      </trkpt>
      <trkpt lat="48.81868" lon="5.19043">
        <ele>270.5</ele>
        <time>2023-01-30T14:47:02.000Z</time>
      </trkpt>
      <trkpt lat="48.81868" lon="5.19043">
        <ele>270</ele>
        <time>2023-01-30T14:47:03.000Z</time>
      </trkpt>
      <trkpt lat="48.81867" lon="5.19043">
        <ele>270</ele>
        <time>2023-01-30T14:47:04.000Z</time>
      </trkpt>
      <trkpt lat="48.81867" lon="5.19043">
        <ele>270</ele>
        <time>2023-01-30T14:47:05.000Z</time>
      </trkpt>
      <trkpt lat="48.81866" lon="5.19042">
        <ele>270</ele>
        <time>2023-01-30T14:47:06.000Z</time>
      </trkpt>
      <trkpt lat="48.81866" lon="5.19042">
        <ele>270</ele>
        <time>2023-01-30T14:47:07.000Z</time>
      </trkpt>
      <trkpt lat="48.81865" lon="5.19042">
        <ele>270</ele>
        <time>2023-01-30T14:47:08.000Z</time>
      </trkpt>
      <trkpt lat="48.81864" lon="5.19042">
        <ele>270</ele>
        <time>2023-01-30T14:47:09.000Z</time>
      </trkpt>
      <trkpt lat="48.81862" lon="5.19042">
        <ele>270</ele>
        <time>2023-01-30T14:47:10.000Z</time>
      </trkpt>
      <trkpt lat="48.81861" lon="5.19041">
        <ele>270</ele>
        <time>2023-01-30T14:47:11.000Z</time>
      </trkpt>
      <trkpt lat="48.8186" lon="5.1904">
        <ele>270</ele>
        <time>2023-01-30T14:47:12.000Z</time>
      </trkpt>
      <trkpt lat="48.81859" lon="5.19039">
        <ele>270</ele>
        <time>2023-01-30T14:47:13.000Z</time>
      </trkpt>
      <trkpt lat="48.81859" lon="5.19038">
        <ele>270</ele>
        <time>2023-01-30T14:47:14.000Z</time>
      </trkpt>
      <trkpt lat="48.81858" lon="5.19037">
        <ele>270</ele>
        <time>2023-01-30T14:47:15.000Z</time>
      </trkpt>
      <trkpt lat="48.81856" lon="5.19036">
        <ele>270</ele>
        <time>2023-01-30T14:47:16.000Z</time>
      </trkpt>
      <trkpt lat="48.81854" lon="5.19035">
        <ele>270</ele>
        <time>2023-01-30T14:47:17.000Z</time>
      </trkpt>
      <trkpt lat="48.81853" lon="5.19034">
        <ele>270</ele>
        <time>2023-01-30T14:47:18.000Z</time>
      </trkpt>
      <trkpt lat="48.81852" lon="5.19034">
        <ele>270</ele>
        <time>2023-01-30T14:47:19.000Z</time>
      </trkpt>
      <trkpt lat="48.81851" lon="5.19033">
        <ele>270</ele>
        <time>2023-01-30T14:47:20.000Z</time>
      </trkpt>
      <trkpt lat="48.8185" lon="5.19032">
        <ele>270</ele>
        <time>2023-01-30T14:47:21.000Z</time>
      </trkpt>
      <trkpt lat="48.81849" lon="5.19031">
        <ele>270</ele>
        <time>2023-01-30T14:47:22.000Z</time>
      </trkpt>
      <trkpt lat="48.81848" lon="5.1903">
        <ele>270</ele>
        <time>2023-01-30T14:47:23.000Z</time>
      </trkpt>
      <trkpt lat="48.81846" lon="5.19029">
        <ele>269.5</ele>
        <time>2023-01-30T14:47:24.000Z</time>
      </trkpt>
      <trkpt lat="48.81845" lon="5.19028">
        <ele>269</ele>
        <time>2023-01-30T14:47:25.000Z</time>
      </trkpt>
      <trkpt lat="48.81843" lon="5.19026">
        <ele>269</ele>
        <time>2023-01-30T14:47:26.000Z</time>
      </trkpt>
      <trkpt lat="48.81841" lon="5.19026">
        <ele>269</ele>
        <time>2023-01-30T14:47:27.000Z</time>
      </trkpt>
      <trkpt lat="48.81841" lon="5.19025">
        <ele>269</ele>
        <time>2023-01-30T14:47:28.000Z</time>
      </trkpt>
      <trkpt lat="48.81839" lon="5.19024">
        <ele>269</ele>
        <time>2023-01-30T14:47:29.000Z</time>
      </trkpt>
      <trkpt lat="48.81838" lon="5.19023">
        <ele>269</ele>
        <time>2023-01-30T14:47:30.000Z</time>
      </trkpt>
      <trkpt lat="48.81836" lon="5.19022">
        <ele>269</ele>
        <time>2023-01-30T14:47:31.000Z</time>
      </trkpt>
      <trkpt lat="48.81835" lon="5.19021">
        <ele>268.5</ele>
        <time>2023-01-30T14:47:32.000Z</time>
      </trkpt>
      <trkpt lat="48.81834" lon="5.1902">
        <ele>268</ele>
        <time>2023-01-30T14:47:33.000Z</time>
      </trkpt>
      <trkpt lat="48.81832" lon="5.19019">
        <ele>268</ele>
        <time>2023-01-30T14:47:34.000Z</time>
      </trkpt>
      <trkpt lat="48.81831" lon="5.19018">
        <ele>268</ele>
        <time>2023-01-30T14:47:35.000Z</time>
      </trkpt>
      <trkpt lat="48.8183" lon="5.19017">
        <ele>268</ele>
        <time>2023-01-30T14:47:36.000Z</time>
      </trkpt>
      <trkpt lat="48.81828" lon="5.19015">
        <ele>268</ele>
        <time>2023-01-30T14:47:37.000Z</time>
      </trkpt>
      <trkpt lat="48.81827" lon="5.19014">
        <ele>268</ele>
        <time>2023-01-30T14:47:38.000Z</time>
      </trkpt>
      <trkpt lat="48.81825" lon="5.19013">
        <ele>268</ele>
        <time>2023-01-30T14:47:39.000Z</time>
      </trkpt>
      <trkpt lat="48.81824" lon="5.19011">
        <ele>268</ele>
        <time>2023-01-30T14:47:40.000Z</time>
      </trkpt>
      <trkpt lat="48.81822" lon="5.1901">
        <ele>267.7</ele>
        <time>2023-01-30T14:47:41.000Z</time>
      </trkpt>
      <trkpt lat="48.81821" lon="5.19009">
        <ele>267.3</ele>
        <time>2023-01-30T14:47:42.000Z</time>
      </trkpt>
      <trkpt lat="48.81819" lon="5.19007">
        <ele>267</ele>
        <time>2023-01-30T14:47:43.000Z</time>
      </trkpt>
      <trkpt lat="48.81818" lon="5.19005">
        <ele>267</ele>
        <time>2023-01-30T14:47:44.000Z</time>
      </trkpt>
      <trkpt lat="48.81817" lon="5.19004">
        <ele>267</ele>
        <time>2023-01-30T14:47:45.000Z</time>
      </trkpt>
      <trkpt lat="48.81816" lon="5.19002">
        <ele>267</ele>
        <time>2023-01-30T14:47:46.000Z</time>
      </trkpt>
      <trkpt lat="48.81815" lon="5.19001">
        <ele>267</ele>
        <time>2023-01-30T14:47:47.000Z</time>
      </trkpt>
      <trkpt lat="48.81814" lon="5.19">
        <ele>267</ele>
        <time>2023-01-30T14:47:48.000Z</time>
      </trkpt>
      <trkpt lat="48.81813" lon="5.18998">
        <ele>267</ele>
        <time>2023-01-30T14:47:49.000Z</time>
      </trkpt>
      <trkpt lat="48.81812" lon="5.18997">
        <ele>267</ele>
        <time>2023-01-30T14:47:50.000Z</time>
      </trkpt>
      <trkpt lat="48.8181" lon="5.18995">
        <ele>267</ele>
        <time>2023-01-30T14:47:51.000Z</time>
      </trkpt>
      <trkpt lat="48.81808" lon="5.18993">
        <ele>267</ele>
        <time>2023-01-30T14:47:52.000Z</time>
      </trkpt>
      <trkpt lat="48.81806" lon="5.18991">
        <ele>266.7</ele>
        <time>2023-01-30T14:47:53.000Z</time>
      </trkpt>
      <trkpt lat="48.81805" lon="5.18989">
        <ele>266.3</ele>
        <time>2023-01-30T14:47:54.000Z</time>
      </trkpt>
      <trkpt lat="48.81804" lon="5.18988">
        <ele>266</ele>
        <time>2023-01-30T14:47:55.000Z</time>
      </trkpt>
      <trkpt lat="48.81802" lon="5.18986">
        <ele>266</ele>
        <time>2023-01-30T14:47:56.000Z</time>
      </trkpt>
      <trkpt lat="48.818" lon="5.18985">
        <ele>266</ele>
        <time>2023-01-30T14:47:57.000Z</time>
      </trkpt>
      <trkpt lat="48.81799" lon="5.18983">
        <ele>266</ele>
        <time>2023-01-30T14:47:58.000Z</time>
      </trkpt>
      <trkpt lat="48.81798" lon="5.18981">
        <ele>266</ele>
        <time>2023-01-30T14:47:59.000Z</time>
      </trkpt>
      <trkpt lat="48.81797" lon="5.18979">
        <ele>266</ele>
        <time>2023-01-30T14:48:00.000Z</time>
      </trkpt>
      <trkpt lat="48.81796" lon="5.18977">
        <ele>265.7</ele>
        <time>2023-01-30T14:48:01.000Z</time>
      </trkpt>
      <trkpt lat="48.81795" lon="5.18975">
        <ele>265.3</ele>
        <time>2023-01-30T14:48:02.000Z</time>
      </trkpt>
      <trkpt lat="48.81794" lon="5.18973">
        <ele>265</ele>
        <time>2023-01-30T14:48:03.000Z</time>
      </trkpt>
      <trkpt lat="48.81793" lon="5.18972">
        <ele>265</ele>
        <time>2023-01-30T14:48:04.000Z</time>
      </trkpt>
      <trkpt lat="48.81793" lon="5.18971">
        <ele>265</ele>
        <time>2023-01-30T14:48:05.000Z</time>
      </trkpt>
      <trkpt lat="48.81791" lon="5.1897">
        <ele>265</ele>
        <time>2023-01-30T14:48:06.000Z</time>
      </trkpt>
      <trkpt lat="48.8179" lon="5.18969">
        <ele>265</ele>
        <time>2023-01-30T14:48:07.000Z</time>
      </trkpt>
      <trkpt lat="48.81789" lon="5.18968">
        <ele>265</ele>
        <time>2023-01-30T14:48:08.000Z</time>
      </trkpt>
      <trkpt lat="48.81788" lon="5.18968">
        <ele>265</ele>
        <time>2023-01-30T14:48:09.000Z</time>
      </trkpt>
      <trkpt lat="48.81787" lon="5.18967">
        <ele>265</ele>
        <time>2023-01-30T14:48:10.000Z</time>
      </trkpt>
      <trkpt lat="48.81786" lon="5.18966">
        <ele>265</ele>
        <time>2023-01-30T14:48:11.000Z</time>
      </trkpt>
      <trkpt lat="48.81785" lon="5.18964">
        <ele>265</ele>
        <time>2023-01-30T14:48:12.000Z</time>
      </trkpt>
      <trkpt lat="48.81784" lon="5.18963">
        <ele>265</ele>
        <time>2023-01-30T14:48:13.000Z</time>
      </trkpt>
      <trkpt lat="48.81783" lon="5.18961">
        <ele>264.5</ele>
        <time>2023-01-30T14:48:14.000Z</time>
      </trkpt>
      <trkpt lat="48.81782" lon="5.18959">
        <ele>264</ele>
        <time>2023-01-30T14:48:15.000Z</time>
      </trkpt>
      <trkpt lat="48.81781" lon="5.18957">
        <ele>264</ele>
        <time>2023-01-30T14:48:16.000Z</time>
      </trkpt>
      <trkpt lat="48.8178" lon="5.18955">
        <ele>264</ele>
        <time>2023-01-30T14:48:17.000Z</time>
      </trkpt>
      <trkpt lat="48.81779" lon="5.18954">
        <ele>264</ele>
        <time>2023-01-30T14:48:18.000Z</time>
      </trkpt>
      <trkpt lat="48.81777" lon="5.18952">
        <ele>264</ele>
        <time>2023-01-30T14:48:19.000Z</time>
      </trkpt>
      <trkpt lat="48.81777" lon="5.18951">
        <ele>264</ele>
        <time>2023-01-30T14:48:20.000Z</time>
      </trkpt>
      <trkpt lat="48.81776" lon="5.18949">
        <ele>264</ele>
        <time>2023-01-30T14:48:21.000Z</time>
      </trkpt>
      <trkpt lat="48.81775" lon="5.18947">
        <ele>264</ele>
        <time>2023-01-30T14:48:22.000Z</time>
      </trkpt>
      <trkpt lat="48.81775" lon="5.18945">
        <ele>264</ele>
        <time>2023-01-30T14:48:23.000Z</time>
      </trkpt>
      <trkpt lat="48.81774" lon="5.18944">
        <ele>264</ele>
        <time>2023-01-30T14:48:24.000Z</time>
      </trkpt>
      <trkpt lat="48.81774" lon="5.18942">
        <ele>264</ele>
        <time>2023-01-30T14:48:25.000Z</time>
      </trkpt>
      <trkpt lat="48.81773" lon="5.1894">
        <ele>263.5</ele>
        <time>2023-01-30T14:48:26.000Z</time>
      </trkpt>
      <trkpt lat="48.81772" lon="5.18939">
        <ele>263</ele>
        <time>2023-01-30T14:48:27.000Z</time>
      </trkpt>
      <trkpt lat="48.81771" lon="5.18937">
        <ele>263</ele>
        <time>2023-01-30T14:48:28.000Z</time>
      </trkpt>
      <trkpt lat="48.81769" lon="5.18935">
        <ele>263</ele>
        <time>2023-01-30T14:48:29.000Z</time>
      </trkpt>
      <trkpt lat="48.81768" lon="5.18933">
        <ele>263</ele>
        <time>2023-01-30T14:48:30.000Z</time>
      </trkpt>
      <trkpt lat="48.81767" lon="5.1893">
        <ele>263</ele>
        <time>2023-01-30T14:48:31.000Z</time>
      </trkpt>
      <trkpt lat="48.81766" lon="5.18928">
        <ele>263</ele>
        <time>2023-01-30T14:48:32.000Z</time>
      </trkpt>
      <trkpt lat="48.81765" lon="5.18926">
        <ele>263</ele>
        <time>2023-01-30T14:48:33.000Z</time>
      </trkpt>
      <trkpt lat="48.81764" lon="5.18923">
        <ele>263</ele>
        <time>2023-01-30T14:48:34.000Z</time>
      </trkpt>
      <trkpt lat="48.81763" lon="5.18921">
        <ele>263</ele>
        <time>2023-01-30T14:48:35.000Z</time>
      </trkpt>
      <trkpt lat="48.81763" lon="5.18918">
        <ele>263</ele>
        <time>2023-01-30T14:48:36.000Z</time>
      </trkpt>
      <trkpt lat="48.81762" lon="5.18916">
        <ele>263</ele>
        <time>2023-01-30T14:48:37.000Z</time>
      </trkpt>
      <trkpt lat="48.8176" lon="5.18914">
        <ele>263</ele>
        <time>2023-01-30T14:48:38.000Z</time>
      </trkpt>
      <trkpt lat="48.81759" lon="5.18912">
        <ele>263</ele>
        <time>2023-01-30T14:48:39.000Z</time>
      </trkpt>
      <trkpt lat="48.81758" lon="5.18911">
        <ele>263</ele>
        <time>2023-01-30T14:48:40.000Z</time>
      </trkpt>
      <trkpt lat="48.81757" lon="5.18909">
        <ele>263</ele>
        <time>2023-01-30T14:48:41.000Z</time>
      </trkpt>
      <trkpt lat="48.81756" lon="5.18907">
        <ele>262.5</ele>
        <time>2023-01-30T14:48:42.000Z</time>
      </trkpt>
      <trkpt lat="48.81754" lon="5.18906">
        <ele>262</ele>
        <time>2023-01-30T14:48:43.000Z</time>
      </trkpt>
      <trkpt lat="48.81753" lon="5.18904">
        <ele>262</ele>
        <time>2023-01-30T14:48:44.000Z</time>
      </trkpt>
      <trkpt lat="48.81752" lon="5.18903">
        <ele>262</ele>
        <time>2023-01-30T14:48:45.000Z</time>
      </trkpt>
      <trkpt lat="48.81751" lon="5.18902">
        <ele>262</ele>
        <time>2023-01-30T14:48:46.000Z</time>
      </trkpt>
      <trkpt lat="48.8175" lon="5.18901">
        <ele>262</ele>
        <time>2023-01-30T14:48:47.000Z</time>
      </trkpt>
      <trkpt lat="48.8175" lon="5.189">
        <ele>262</ele>
        <time>2023-01-30T14:48:48.000Z</time>
      </trkpt>
      <trkpt lat="48.81748" lon="5.18898">
        <ele>262</ele>
        <time>2023-01-30T14:48:49.000Z</time>
      </trkpt>
      <trkpt lat="48.81747" lon="5.18897">
        <ele>262</ele>
        <time>2023-01-30T14:48:50.000Z</time>
      </trkpt>
      <trkpt lat="48.81746" lon="5.18896">
        <ele>262</ele>
        <time>2023-01-30T14:48:51.000Z</time>
      </trkpt>
      <trkpt lat="48.81745" lon="5.18895">
        <ele>262</ele>
        <time>2023-01-30T14:48:52.000Z</time>
      </trkpt>
      <trkpt lat="48.81744" lon="5.18894">
        <ele>262</ele>
        <time>2023-01-30T14:48:53.000Z</time>
      </trkpt>
      <trkpt lat="48.81743" lon="5.18892">
        <ele>262</ele>
        <time>2023-01-30T14:48:54.000Z</time>
      </trkpt>
      <trkpt lat="48.81742" lon="5.18891">
        <ele>262</ele>
        <time>2023-01-30T14:48:55.000Z</time>
      </trkpt>
      <trkpt lat="48.81741" lon="5.1889">
        <ele>262</ele>
        <time>2023-01-30T14:48:56.000Z</time>
      </trkpt>
      <trkpt lat="48.8174" lon="5.18889">
        <ele>261.7</ele>
        <time>2023-01-30T14:48:57.000Z</time>
      </trkpt>
      <trkpt lat="48.81739" lon="5.18887">
        <ele>261.3</ele>
        <time>2023-01-30T14:48:58.000Z</time>
      </trkpt>
      <trkpt lat="48.81738" lon="5.18886">
        <ele>261</ele>
        <time>2023-01-30T14:48:59.000Z</time>
      </trkpt>
      <trkpt lat="48.81737" lon="5.18884">
        <ele>261</ele>
        <time>2023-01-30T14:49:00.000Z</time>
      </trkpt>
      <trkpt lat="48.81735" lon="5.18882">
        <ele>261</ele>
        <time>2023-01-30T14:49:01.000Z</time>
      </trkpt>
      <trkpt lat="48.81734" lon="5.1888">
        <ele>261</ele>
        <time>2023-01-30T14:49:02.000Z</time>
      </trkpt>
      <trkpt lat="48.81733" lon="5.18879">
        <ele>261</ele>
        <time>2023-01-30T14:49:03.000Z</time>
      </trkpt>
      <trkpt lat="48.81731" lon="5.18877">
        <ele>261</ele>
        <time>2023-01-30T14:49:04.000Z</time>
      </trkpt>
      <trkpt lat="48.81729" lon="5.18876">
        <ele>261</ele>
        <time>2023-01-30T14:49:05.000Z</time>
      </trkpt>
      <trkpt lat="48.81728" lon="5.18875">
        <ele>261</ele>
        <time>2023-01-30T14:49:06.000Z</time>
      </trkpt>
      <trkpt lat="48.81727" lon="5.18874">
        <ele>261</ele>
        <time>2023-01-30T14:49:07.000Z</time>
      </trkpt>
      <trkpt lat="48.81726" lon="5.18872">
        <ele>261</ele>
        <time>2023-01-30T14:49:08.000Z</time>
      </trkpt>
      <trkpt lat="48.81725" lon="5.18871">
        <ele>261</ele>
        <time>2023-01-30T14:49:09.000Z</time>
      </trkpt>
      <trkpt lat="48.81724" lon="5.1887">
        <ele>261</ele>
        <time>2023-01-30T14:49:10.000Z</time>
      </trkpt>
      <trkpt lat="48.81723" lon="5.18869">
        <ele>261</ele>
        <time>2023-01-30T14:49:11.000Z</time>
      </trkpt>
      <trkpt lat="48.81723" lon="5.18868">
        <ele>261</ele>
        <time>2023-01-30T14:49:12.000Z</time>
      </trkpt>
      <trkpt lat="48.81722" lon="5.18867">
        <ele>261</ele>
        <time>2023-01-30T14:49:13.000Z</time>
      </trkpt>
      <trkpt lat="48.81722" lon="5.18867">
        <ele>261</ele>
        <time>2023-01-30T14:49:14.000Z</time>
      </trkpt>
      <trkpt lat="48.81722" lon="5.18866">
        <ele>261</ele>
        <time>2023-01-30T14:49:15.000Z</time>
      </trkpt>
      <trkpt lat="48.81721" lon="5.18864">
        <ele>260</ele>
        <time>2023-01-30T14:49:16.000Z</time>
      </trkpt>
      <trkpt lat="48.81721" lon="5.18862">
        <ele>260</ele>
        <time>2023-01-30T14:49:17.000Z</time>
      </trkpt>
      <trkpt lat="48.81721" lon="5.18861">
        <ele>260</ele>
        <time>2023-01-30T14:49:18.000Z</time>
      </trkpt>
      <trkpt lat="48.8172" lon="5.1886">
        <ele>260</ele>
        <time>2023-01-30T14:49:19.000Z</time>
      </trkpt>
      <trkpt lat="48.8172" lon="5.18859">
        <ele>260</ele>
        <time>2023-01-30T14:49:20.000Z</time>
      </trkpt>
      <trkpt lat="48.8172" lon="5.18858">
        <ele>260</ele>
        <time>2023-01-30T14:49:21.000Z</time>
      </trkpt>
      <trkpt lat="48.81719" lon="5.18857">
        <ele>260</ele>
        <time>2023-01-30T14:49:22.000Z</time>
      </trkpt>
      <trkpt lat="48.81718" lon="5.18856">
        <ele>260</ele>
        <time>2023-01-30T14:49:23.000Z</time>
      </trkpt>
      <trkpt lat="48.81717" lon="5.18855">
        <ele>260</ele>
        <time>2023-01-30T14:49:24.000Z</time>
      </trkpt>
      <trkpt lat="48.81716" lon="5.18854">
        <ele>260</ele>
        <time>2023-01-30T14:49:25.000Z</time>
      </trkpt>
      <trkpt lat="48.81715" lon="5.18853">
        <ele>260</ele>
        <time>2023-01-30T14:49:26.000Z</time>
      </trkpt>
      <trkpt lat="48.81714" lon="5.18852">
        <ele>260</ele>
        <time>2023-01-30T14:49:27.000Z</time>
      </trkpt>
      <trkpt lat="48.81712" lon="5.18852">
        <ele>260</ele>
        <time>2023-01-30T14:49:28.000Z</time>
      </trkpt>
      <trkpt lat="48.81711" lon="5.18851">
        <ele>260</ele>
        <time>2023-01-30T14:49:29.000Z</time>
      </trkpt>
      <trkpt lat="48.8171" lon="5.1885">
        <ele>260</ele>
        <time>2023-01-30T14:49:30.000Z</time>
      </trkpt>
      <trkpt lat="48.81709" lon="5.18849">
        <ele>259.7</ele>
        <time>2023-01-30T14:49:31.000Z</time>
      </trkpt>
      <trkpt lat="48.81708" lon="5.18848">
        <ele>259.3</ele>
        <time>2023-01-30T14:49:32.000Z</time>
      </trkpt>
      <trkpt lat="48.81707" lon="5.18847">
        <ele>259</ele>
        <time>2023-01-30T14:49:33.000Z</time>
      </trkpt>
      <trkpt lat="48.81706" lon="5.18846">
        <ele>259</ele>
        <time>2023-01-30T14:49:34.000Z</time>
      </trkpt>
      <trkpt lat="48.81705" lon="5.18844">
        <ele>259</ele>
        <time>2023-01-30T14:49:35.000Z</time>
      </trkpt>
      <trkpt lat="48.81703" lon="5.18843">
        <ele>259</ele>
        <time>2023-01-30T14:49:36.000Z</time>
      </trkpt>
      <trkpt lat="48.81702" lon="5.18842">
        <ele>259</ele>
        <time>2023-01-30T14:49:37.000Z</time>
      </trkpt>
      <trkpt lat="48.817" lon="5.18842">
        <ele>259</ele>
        <time>2023-01-30T14:49:38.000Z</time>
      </trkpt>
      <trkpt lat="48.81699" lon="5.18841">
        <ele>259</ele>
        <time>2023-01-30T14:49:39.000Z</time>
      </trkpt>
      <trkpt lat="48.81698" lon="5.18841">
        <ele>259</ele>
        <time>2023-01-30T14:49:40.000Z</time>
      </trkpt>
      <trkpt lat="48.81697" lon="5.1884">
        <ele>259</ele>
        <time>2023-01-30T14:49:41.000Z</time>
      </trkpt>
      <trkpt lat="48.81696" lon="5.18839">
        <ele>259</ele>
        <time>2023-01-30T14:49:42.000Z</time>
      </trkpt>
      <trkpt lat="48.81695" lon="5.18838">
        <ele>259</ele>
        <time>2023-01-30T14:49:43.000Z</time>
      </trkpt>
      <trkpt lat="48.81694" lon="5.18837">
        <ele>259</ele>
        <time>2023-01-30T14:49:44.000Z</time>
      </trkpt>
      <trkpt lat="48.81693" lon="5.18836">
        <ele>259</ele>
        <time>2023-01-30T14:49:45.000Z</time>
      </trkpt>
      <trkpt lat="48.81692" lon="5.18835">
        <ele>259</ele>
        <time>2023-01-30T14:49:46.000Z</time>
      </trkpt>
      <trkpt lat="48.81691" lon="5.18833">
        <ele>259</ele>
        <time>2023-01-30T14:49:47.000Z</time>
      </trkpt>
      <trkpt lat="48.8169" lon="5.18832">
        <ele>259</ele>
        <time>2023-01-30T14:49:48.000Z</time>
      </trkpt>
      <trkpt lat="48.81689" lon="5.18831">
        <ele>259</ele>
        <time>2023-01-30T14:49:49.000Z</time>
      </trkpt>
      <trkpt lat="48.81688" lon="5.1883">
        <ele>259</ele>
        <time>2023-01-30T14:49:50.000Z</time>
      </trkpt>
      <trkpt lat="48.81687" lon="5.18829">
        <ele>259</ele>
        <time>2023-01-30T14:49:51.000Z</time>
      </trkpt>
      <trkpt lat="48.81686" lon="5.18829">
        <ele>259</ele>
        <time>2023-01-30T14:49:52.000Z</time>
      </trkpt>
      <trkpt lat="48.81686" lon="5.18828">
        <ele>259</ele>
        <time>2023-01-30T14:49:53.000Z</time>
      </trkpt>
      <trkpt lat="48.81685" lon="5.18827">
        <ele>259</ele>
        <time>2023-01-30T14:49:54.000Z</time>
      </trkpt>
      <trkpt lat="48.81683" lon="5.18827">
        <ele>259</ele>
        <time>2023-01-30T14:49:55.000Z</time>
      </trkpt>
      <trkpt lat="48.81682" lon="5.18826">
        <ele>259</ele>
        <time>2023-01-30T14:49:56.000Z</time>
      </trkpt>
      <trkpt lat="48.81681" lon="5.18825">
        <ele>259</ele>
        <time>2023-01-30T14:49:57.000Z</time>
      </trkpt>
      <trkpt lat="48.81679" lon="5.18824">
        <ele>258.5</ele>
        <time>2023-01-30T14:49:58.000Z</time>
      </trkpt>
      <trkpt lat="48.81677" lon="5.18824">
        <ele>258</ele>
        <time>2023-01-30T14:49:59.000Z</time>
      </trkpt>
      <trkpt lat="48.81676" lon="5.18823">
        <ele>258</ele>
        <time>2023-01-30T14:50:00.000Z</time>
      </trkpt>
      <trkpt lat="48.81674" lon="5.18822">
        <ele>258</ele>
        <time>2023-01-30T14:50:01.000Z</time>
      </trkpt>
      <trkpt lat="48.81672" lon="5.18821">
        <ele>258</ele>
        <time>2023-01-30T14:50:02.000Z</time>
      </trkpt>
      <trkpt lat="48.8167" lon="5.1882">
        <ele>258</ele>
        <time>2023-01-30T14:50:03.000Z</time>
      </trkpt>
      <trkpt lat="48.81669" lon="5.18819">
        <ele>258</ele>
        <time>2023-01-30T14:50:04.000Z</time>
      </trkpt>
      <trkpt lat="48.81667" lon="5.18819">
        <ele>258</ele>
        <time>2023-01-30T14:50:05.000Z</time>
      </trkpt>
      <trkpt lat="48.81666" lon="5.18818">
        <ele>258</ele>
        <time>2023-01-30T14:50:06.000Z</time>
      </trkpt>
      <trkpt lat="48.81665" lon="5.18817">
        <ele>258</ele>
        <time>2023-01-30T14:50:07.000Z</time>
      </trkpt>
      <trkpt lat="48.81664" lon="5.18817">
        <ele>258</ele>
        <time>2023-01-30T14:50:08.000Z</time>
      </trkpt>
      <trkpt lat="48.81662" lon="5.18816">
        <ele>258</ele>
        <time>2023-01-30T14:50:09.000Z</time>
      </trkpt>
      <trkpt lat="48.81661" lon="5.18815">
        <ele>258</ele>
        <time>2023-01-30T14:50:10.000Z</time>
      </trkpt>
      <trkpt lat="48.8166" lon="5.18814">
        <ele>258</ele>
        <time>2023-01-30T14:50:11.000Z</time>
      </trkpt>
      <trkpt lat="48.81659" lon="5.18813">
        <ele>258</ele>
        <time>2023-01-30T14:50:12.000Z</time>
      </trkpt>
      <trkpt lat="48.81657" lon="5.18813">
        <ele>258</ele>
        <time>2023-01-30T14:50:13.000Z</time>
      </trkpt>
      <trkpt lat="48.81656" lon="5.18812">
        <ele>258</ele>
        <time>2023-01-30T14:50:14.000Z</time>
      </trkpt>
      <trkpt lat="48.81654" lon="5.18811">
        <ele>258</ele>
        <time>2023-01-30T14:50:15.000Z</time>
      </trkpt>
      <trkpt lat="48.81653" lon="5.1881">
        <ele>258</ele>
        <time>2023-01-30T14:50:16.000Z</time>
      </trkpt>
      <trkpt lat="48.81652" lon="5.18809">
        <ele>258</ele>
        <time>2023-01-30T14:50:17.000Z</time>
      </trkpt>
      <trkpt lat="48.8165" lon="5.18808">
        <ele>258</ele>
        <time>2023-01-30T14:50:18.000Z</time>
      </trkpt>
      <trkpt lat="48.81649" lon="5.18807">
        <ele>258</ele>
        <time>2023-01-30T14:50:19.000Z</time>
      </trkpt>
      <trkpt lat="48.81648" lon="5.18807">
        <ele>258</ele>
        <time>2023-01-30T14:50:20.000Z</time>
      </trkpt>
      <trkpt lat="48.81647" lon="5.18806">
        <ele>258</ele>
        <time>2023-01-30T14:50:21.000Z</time>
      </trkpt>
      <trkpt lat="48.81646" lon="5.18806">
        <ele>258</ele>
        <time>2023-01-30T14:50:22.000Z</time>
      </trkpt>
      <trkpt lat="48.81645" lon="5.18806">
        <ele>258</ele>
        <time>2023-01-30T14:50:23.000Z</time>
      </trkpt>
      <trkpt lat="48.81644" lon="5.18805">
        <ele>257.5</ele>
        <time>2023-01-30T14:50:24.000Z</time>
      </trkpt>
      <trkpt lat="48.81644" lon="5.18805">
        <ele>257</ele>
        <time>2023-01-30T14:50:25.000Z</time>
      </trkpt>
      <trkpt lat="48.81643" lon="5.18804">
        <ele>257</ele>
        <time>2023-01-30T14:50:26.000Z</time>
      </trkpt>
      <trkpt lat="48.81642" lon="5.18804">
        <ele>257</ele>
        <time>2023-01-30T14:50:27.000Z</time>
      </trkpt>
      <trkpt lat="48.81641" lon="5.18803">
        <ele>257</ele>
        <time>2023-01-30T14:50:28.000Z</time>
      </trkpt>
      <trkpt lat="48.81641" lon="5.18802">
        <ele>257</ele>
        <time>2023-01-30T14:50:29.000Z</time>
      </trkpt>
      <trkpt lat="48.8164" lon="5.18802">
        <ele>257</ele>
        <time>2023-01-30T14:50:30.000Z</time>
      </trkpt>
      <trkpt lat="48.81639" lon="5.18801">
        <ele>257</ele>
        <time>2023-01-30T14:50:31.000Z</time>
      </trkpt>
      <trkpt lat="48.81638" lon="5.188">
        <ele>257</ele>
        <time>2023-01-30T14:50:32.000Z</time>
      </trkpt>
      <trkpt lat="48.81637" lon="5.188">
        <ele>257</ele>
        <time>2023-01-30T14:50:33.000Z</time>
      </trkpt>
      <trkpt lat="48.81636" lon="5.18799">
        <ele>257</ele>
        <time>2023-01-30T14:50:34.000Z</time>
      </trkpt>
      <trkpt lat="48.81635" lon="5.18798">
        <ele>257</ele>
        <time>2023-01-30T14:50:35.000Z</time>
      </trkpt>
      <trkpt lat="48.81633" lon="5.18798">
        <ele>257</ele>
        <time>2023-01-30T14:50:36.000Z</time>
      </trkpt>
      <trkpt lat="48.81632" lon="5.18797">
        <ele>257</ele>
        <time>2023-01-30T14:50:37.000Z</time>
      </trkpt>
      <trkpt lat="48.81631" lon="5.18796">
        <ele>257</ele>
        <time>2023-01-30T14:50:38.000Z</time>
      </trkpt>
      <trkpt lat="48.81629" lon="5.18794">
        <ele>257</ele>
        <time>2023-01-30T14:50:39.000Z</time>
      </trkpt>
      <trkpt lat="48.81628" lon="5.18793">
        <ele>257</ele>
        <time>2023-01-30T14:50:40.000Z</time>
      </trkpt>
      <trkpt lat="48.81627" lon="5.18792">
        <ele>257</ele>
        <time>2023-01-30T14:50:41.000Z</time>
      </trkpt>
      <trkpt lat="48.81626" lon="5.18791">
        <ele>257</ele>
        <time>2023-01-30T14:50:42.000Z</time>
      </trkpt>
      <trkpt lat="48.81624" lon="5.1879">
        <ele>256.7</ele>
        <time>2023-01-30T14:50:43.000Z</time>
      </trkpt>
      <trkpt lat="48.81623" lon="5.18789">
        <ele>256.3</ele>
        <time>2023-01-30T14:50:44.000Z</time>
      </trkpt>
      <trkpt lat="48.81622" lon="5.18788">
        <ele>256</ele>
        <time>2023-01-30T14:50:45.000Z</time>
      </trkpt>
      <trkpt lat="48.81621" lon="5.18788">
        <ele>256</ele>
        <time>2023-01-30T14:50:46.000Z</time>
      </trkpt>
      <trkpt lat="48.8162" lon="5.18787">
        <ele>256</ele>
        <time>2023-01-30T14:50:47.000Z</time>
      </trkpt>
      <trkpt lat="48.81618" lon="5.18786">
        <ele>256</ele>
        <time>2023-01-30T14:50:48.000Z</time>
      </trkpt>
      <trkpt lat="48.81616" lon="5.18786">
        <ele>256</ele>
        <time>2023-01-30T14:50:49.000Z</time>
      </trkpt>
      <trkpt lat="48.81615" lon="5.18786">
        <ele>256</ele>
        <time>2023-01-30T14:50:50.000Z</time>
      </trkpt>
      <trkpt lat="48.81614" lon="5.18785">
        <ele>256</ele>
        <time>2023-01-30T14:50:51.000Z</time>
      </trkpt>
      <trkpt lat="48.81612" lon="5.18785">
        <ele>256</ele>
        <time>2023-01-30T14:50:52.000Z</time>
      </trkpt>
      <trkpt lat="48.81612" lon="5.18785">
        <ele>256</ele>
        <time>2023-01-30T14:50:53.000Z</time>
      </trkpt>
      <trkpt lat="48.81611" lon="5.18785">
        <ele>256</ele>
        <time>2023-01-30T14:50:54.000Z</time>
      </trkpt>
      <trkpt lat="48.8161" lon="5.18785">
        <ele>256</ele>
        <time>2023-01-30T14:50:55.000Z</time>
      </trkpt>
      <trkpt lat="48.81609" lon="5.18785">
        <ele>256</ele>
        <time>2023-01-30T14:50:56.000Z</time>
      </trkpt>
      <trkpt lat="48.81608" lon="5.18785">
        <ele>256</ele>
        <time>2023-01-30T14:50:57.000Z</time>
      </trkpt>
      <trkpt lat="48.81606" lon="5.18785">
        <ele>256</ele>
        <time>2023-01-30T14:50:58.000Z</time>
      </trkpt>
      <trkpt lat="48.81605" lon="5.18785">
        <ele>256</ele>
        <time>2023-01-30T14:50:59.000Z</time>
      </trkpt>
      <trkpt lat="48.81604" lon="5.18784">
        <ele>256</ele>
        <time>2023-01-30T14:51:00.000Z</time>
      </trkpt>
      <trkpt lat="48.81603" lon="5.18783">
        <ele>256</ele>
        <time>2023-01-30T14:51:01.000Z</time>
      </trkpt>
      <trkpt lat="48.81602" lon="5.18782">
        <ele>256</ele>
        <time>2023-01-30T14:51:02.000Z</time>
      </trkpt>
      <trkpt lat="48.81601" lon="5.18781">
        <ele>256</ele>
        <time>2023-01-30T14:51:03.000Z</time>
      </trkpt>
      <trkpt lat="48.81599" lon="5.1878">
        <ele>256</ele>
        <time>2023-01-30T14:51:04.000Z</time>
      </trkpt>
      <trkpt lat="48.81598" lon="5.18779">
        <ele>256</ele>
        <time>2023-01-30T14:51:05.000Z</time>
      </trkpt>
      <trkpt lat="48.81596" lon="5.18778">
        <ele>255.5</ele>
        <time>2023-01-30T14:51:06.000Z</time>
      </trkpt>
      <trkpt lat="48.81595" lon="5.18777">
        <ele>255</ele>
        <time>2023-01-30T14:51:07.000Z</time>
      </trkpt>
      <trkpt lat="48.81593" lon="5.18775">
        <ele>255</ele>
        <time>2023-01-30T14:51:08.000Z</time>
      </trkpt>
      <trkpt lat="48.81592" lon="5.18774">
        <ele>255</ele>
        <time>2023-01-30T14:51:09.000Z</time>
      </trkpt>
      <trkpt lat="48.8159" lon="5.18773">
        <ele>255</ele>
        <time>2023-01-30T14:51:10.000Z</time>
      </trkpt>
      <trkpt lat="48.81588" lon="5.18772">
        <ele>255</ele>
        <time>2023-01-30T14:51:11.000Z</time>
      </trkpt>
      <trkpt lat="48.81586" lon="5.18771">
        <ele>255</ele>
        <time>2023-01-30T14:51:12.000Z</time>
      </trkpt>
      <trkpt lat="48.81584" lon="5.1877">
        <ele>255</ele>
        <time>2023-01-30T14:51:13.000Z</time>
      </trkpt>
      <trkpt lat="48.81582" lon="5.18769">
        <ele>255</ele>
        <time>2023-01-30T14:51:14.000Z</time>
      </trkpt>
      <trkpt lat="48.8158" lon="5.18769">
        <ele>255</ele>
        <time>2023-01-30T14:51:15.000Z</time>
      </trkpt>
      <trkpt lat="48.81579" lon="5.18768">
        <ele>255</ele>
        <time>2023-01-30T14:51:16.000Z</time>
      </trkpt>
      <trkpt lat="48.81578" lon="5.18768">
        <ele>255</ele>
        <time>2023-01-30T14:51:17.000Z</time>
      </trkpt>
      <trkpt lat="48.81577" lon="5.18767">
        <ele>255</ele>
        <time>2023-01-30T14:51:18.000Z</time>
      </trkpt>
      <trkpt lat="48.81576" lon="5.18767">
        <ele>254.7</ele>
        <time>2023-01-30T14:51:19.000Z</time>
      </trkpt>
      <trkpt lat="48.81575" lon="5.18767">
        <ele>254.3</ele>
        <time>2023-01-30T14:51:20.000Z</time>
      </trkpt>
      <trkpt lat="48.81574" lon="5.18767">
        <ele>254</ele>
        <time>2023-01-30T14:51:21.000Z</time>
      </trkpt>
      <trkpt lat="48.81572" lon="5.18767">
        <ele>254</ele>
        <time>2023-01-30T14:51:22.000Z</time>
      </trkpt>
      <trkpt lat="48.8157" lon="5.18767">
        <ele>254</ele>
        <time>2023-01-30T14:51:23.000Z</time>
      </trkpt>
      <trkpt lat="48.81568" lon="5.18767">
        <ele>254</ele>
        <time>2023-01-30T14:51:24.000Z</time>
      </trkpt>
      <trkpt lat="48.81565" lon="5.18767">
        <ele>254</ele>
        <time>2023-01-30T14:51:25.000Z</time>
      </trkpt>
      <trkpt lat="48.81563" lon="5.18767">
        <ele>254</ele>
        <time>2023-01-30T14:51:26.000Z</time>
      </trkpt>
      <trkpt lat="48.81561" lon="5.18767">
        <ele>254</ele>
        <time>2023-01-30T14:51:27.000Z</time>
      </trkpt>
      <trkpt lat="48.81559" lon="5.18767">
        <ele>253.5</ele>
        <time>2023-01-30T14:51:28.000Z</time>
      </trkpt>
      <trkpt lat="48.81557" lon="5.18767">
        <ele>253</ele>
        <time>2023-01-30T14:51:29.000Z</time>
      </trkpt>
      <trkpt lat="48.81556" lon="5.18766">
        <ele>253</ele>
        <time>2023-01-30T14:51:30.000Z</time>
      </trkpt>
      <trkpt lat="48.81554" lon="5.18766">
        <ele>253</ele>
        <time>2023-01-30T14:51:31.000Z</time>
      </trkpt>
      <trkpt lat="48.81553" lon="5.18766">
        <ele>253</ele>
        <time>2023-01-30T14:51:32.000Z</time>
      </trkpt>
      <trkpt lat="48.81551" lon="5.18765">
        <ele>253</ele>
        <time>2023-01-30T14:51:33.000Z</time>
      </trkpt>
      <trkpt lat="48.81549" lon="5.18764">
        <ele>253</ele>
        <time>2023-01-30T14:51:34.000Z</time>
      </trkpt>
      <trkpt lat="48.81548" lon="5.18764">
        <ele>253</ele>
        <time>2023-01-30T14:51:35.000Z</time>
      </trkpt>
      <trkpt lat="48.81547" lon="5.18763">
        <ele>252.5</ele>
        <time>2023-01-30T14:51:36.000Z</time>
      </trkpt>
      <trkpt lat="48.81546" lon="5.18762">
        <ele>252</ele>
        <time>2023-01-30T14:51:37.000Z</time>
      </trkpt>
      <trkpt lat="48.81545" lon="5.18762">
        <ele>252</ele>
        <time>2023-01-30T14:51:38.000Z</time>
      </trkpt>
      <trkpt lat="48.81544" lon="5.18761">
        <ele>252</ele>
        <time>2023-01-30T14:51:39.000Z</time>
      </trkpt>
      <trkpt lat="48.81544" lon="5.18761">
        <ele>252</ele>
        <time>2023-01-30T14:51:40.000Z</time>
      </trkpt>
      <trkpt lat="48.81543" lon="5.1876">
        <ele>252</ele>
        <time>2023-01-30T14:51:41.000Z</time>
      </trkpt>
      <trkpt lat="48.81542" lon="5.18759">
        <ele>252</ele>
        <time>2023-01-30T14:51:42.000Z</time>
      </trkpt>
      <trkpt lat="48.81541" lon="5.18758">
        <ele>252</ele>
        <time>2023-01-30T14:51:43.000Z</time>
      </trkpt>
      <trkpt lat="48.8154" lon="5.18758">
        <ele>252</ele>
        <time>2023-01-30T14:51:44.000Z</time>
      </trkpt>
      <trkpt lat="48.8154" lon="5.18757">
        <ele>251.7</ele>
        <time>2023-01-30T14:51:45.000Z</time>
      </trkpt>
      <trkpt lat="48.81539" lon="5.18756">
        <ele>251.3</ele>
        <time>2023-01-30T14:51:46.000Z</time>
      </trkpt>
      <trkpt lat="48.81538" lon="5.18756">
        <ele>251</ele>
        <time>2023-01-30T14:51:47.000Z</time>
      </trkpt>
      <trkpt lat="48.81536" lon="5.18755">
        <ele>251</ele>
        <time>2023-01-30T14:51:48.000Z</time>
      </trkpt>
      <trkpt lat="48.81535" lon="5.18754">
        <ele>251</ele>
        <time>2023-01-30T14:51:49.000Z</time>
      </trkpt>
      <trkpt lat="48.81534" lon="5.18753">
        <ele>251</ele>
        <time>2023-01-30T14:51:50.000Z</time>
      </trkpt>
      <trkpt lat="48.81533" lon="5.18752">
        <ele>251</ele>
        <time>2023-01-30T14:51:51.000Z</time>
      </trkpt>
      <trkpt lat="48.81532" lon="5.18751">
        <ele>251</ele>
        <time>2023-01-30T14:51:52.000Z</time>
      </trkpt>
      <trkpt lat="48.8153" lon="5.1875">
        <ele>251</ele>
        <time>2023-01-30T14:51:53.000Z</time>
      </trkpt>
      <trkpt lat="48.81529" lon="5.18749">
        <ele>251</ele>
        <time>2023-01-30T14:51:54.000Z</time>
      </trkpt>
      <trkpt lat="48.81527" lon="5.18748">
        <ele>250.7</ele>
        <time>2023-01-30T14:51:55.000Z</time>
      </trkpt>
      <trkpt lat="48.81526" lon="5.18747">
        <ele>250.3</ele>
        <time>2023-01-30T14:51:56.000Z</time>
      </trkpt>
      <trkpt lat="48.81525" lon="5.18746">
        <ele>250</ele>
        <time>2023-01-30T14:51:57.000Z</time>
      </trkpt>
      <trkpt lat="48.81523" lon="5.18745">
        <ele>250</ele>
        <time>2023-01-30T14:51:58.000Z</time>
      </trkpt>
      <trkpt lat="48.81522" lon="5.18744">
        <ele>250</ele>
        <time>2023-01-30T14:51:59.000Z</time>
      </trkpt>
      <trkpt lat="48.8152" lon="5.18743">
        <ele>250</ele>
        <time>2023-01-30T14:52:00.000Z</time>
      </trkpt>
      <trkpt lat="48.81519" lon="5.18742">
        <ele>250</ele>
        <time>2023-01-30T14:52:01.000Z</time>
      </trkpt>
      <trkpt lat="48.81518" lon="5.18741">
        <ele>250</ele>
        <time>2023-01-30T14:52:02.000Z</time>
      </trkpt>
      <trkpt lat="48.81516" lon="5.18739">
        <ele>250</ele>
        <time>2023-01-30T14:52:03.000Z</time>
      </trkpt>
      <trkpt lat="48.81514" lon="5.18738">
        <ele>249</ele>
        <time>2023-01-30T14:52:04.000Z</time>
      </trkpt>
      <trkpt lat="48.81513" lon="5.18736">
        <ele>249</ele>
        <time>2023-01-30T14:52:05.000Z</time>
      </trkpt>
      <trkpt lat="48.81511" lon="5.18734">
        <ele>249</ele>
        <time>2023-01-30T14:52:06.000Z</time>
      </trkpt>
      <trkpt lat="48.8151" lon="5.18733">
        <ele>249</ele>
        <time>2023-01-30T14:52:07.000Z</time>
      </trkpt>
      <trkpt lat="48.81509" lon="5.18731">
        <ele>249</ele>
        <time>2023-01-30T14:52:08.000Z</time>
      </trkpt>
      <trkpt lat="48.81507" lon="5.1873">
        <ele>249</ele>
        <time>2023-01-30T14:52:09.000Z</time>
      </trkpt>
      <trkpt lat="48.81506" lon="5.18728">
        <ele>249</ele>
        <time>2023-01-30T14:52:10.000Z</time>
      </trkpt>
      <trkpt lat="48.81505" lon="5.18727">
        <ele>249</ele>
        <time>2023-01-30T14:52:11.000Z</time>
      </trkpt>
      <trkpt lat="48.81503" lon="5.18726">
        <ele>249</ele>
        <time>2023-01-30T14:52:12.000Z</time>
      </trkpt>
      <trkpt lat="48.81502" lon="5.18724">
        <ele>249</ele>
        <time>2023-01-30T14:52:13.000Z</time>
      </trkpt>
      <trkpt lat="48.815" lon="5.18723">
        <ele>249</ele>
        <time>2023-01-30T14:52:14.000Z</time>
      </trkpt>
      <trkpt lat="48.81499" lon="5.18721">
        <ele>249</ele>
        <time>2023-01-30T14:52:15.000Z</time>
      </trkpt>
      <trkpt lat="48.81498" lon="5.1872">
        <ele>249</ele>
        <time>2023-01-30T14:52:16.000Z</time>
      </trkpt>
      <trkpt lat="48.81496" lon="5.18718">
        <ele>249</ele>
        <time>2023-01-30T14:52:17.000Z</time>
      </trkpt>
      <trkpt lat="48.81495" lon="5.18717">
        <ele>249</ele>
        <time>2023-01-30T14:52:18.000Z</time>
      </trkpt>
      <trkpt lat="48.81494" lon="5.18715">
        <ele>249</ele>
        <time>2023-01-30T14:52:19.000Z</time>
      </trkpt>
      <trkpt lat="48.81492" lon="5.18714">
        <ele>249</ele>
        <time>2023-01-30T14:52:20.000Z</time>
      </trkpt>
      <trkpt lat="48.81491" lon="5.18713">
        <ele>249</ele>
        <time>2023-01-30T14:52:21.000Z</time>
      </trkpt>
      <trkpt lat="48.8149" lon="5.18711">
        <ele>249</ele>
        <time>2023-01-30T14:52:22.000Z</time>
      </trkpt>
      <trkpt lat="48.81488" lon="5.1871">
        <ele>249</ele>
        <time>2023-01-30T14:52:23.000Z</time>
      </trkpt>
      <trkpt lat="48.81487" lon="5.18709">
        <ele>248.5</ele>
        <time>2023-01-30T14:52:24.000Z</time>
      </trkpt>
      <trkpt lat="48.81486" lon="5.18708">
        <ele>248</ele>
        <time>2023-01-30T14:52:25.000Z</time>
      </trkpt>
      <trkpt lat="48.81485" lon="5.18707">
        <ele>248</ele>
        <time>2023-01-30T14:52:26.000Z</time>
      </trkpt>
      <trkpt lat="48.81483" lon="5.18706">
        <ele>248</ele>
        <time>2023-01-30T14:52:27.000Z</time>
      </trkpt>
      <trkpt lat="48.81482" lon="5.18706">
        <ele>248</ele>
        <time>2023-01-30T14:52:28.000Z</time>
      </trkpt>
      <trkpt lat="48.81481" lon="5.18705">
        <ele>248</ele>
        <time>2023-01-30T14:52:29.000Z</time>
      </trkpt>
      <trkpt lat="48.8148" lon="5.18704">
        <ele>248</ele>
        <time>2023-01-30T14:52:30.000Z</time>
      </trkpt>
      <trkpt lat="48.81478" lon="5.18702">
        <ele>248</ele>
        <time>2023-01-30T14:52:31.000Z</time>
      </trkpt>
      <trkpt lat="48.81476" lon="5.18701">
        <ele>248</ele>
        <time>2023-01-30T14:52:32.000Z</time>
      </trkpt>
      <trkpt lat="48.81475" lon="5.187">
        <ele>248</ele>
        <time>2023-01-30T14:52:33.000Z</time>
      </trkpt>
      <trkpt lat="48.81473" lon="5.18699">
        <ele>248</ele>
        <time>2023-01-30T14:52:34.000Z</time>
      </trkpt>
      <trkpt lat="48.81471" lon="5.18697">
        <ele>248</ele>
        <time>2023-01-30T14:52:35.000Z</time>
      </trkpt>
      <trkpt lat="48.81469" lon="5.18696">
        <ele>248</ele>
        <time>2023-01-30T14:52:36.000Z</time>
      </trkpt>
      <trkpt lat="48.81468" lon="5.18695">
        <ele>248</ele>
        <time>2023-01-30T14:52:37.000Z</time>
      </trkpt>
      <trkpt lat="48.81466" lon="5.18693">
        <ele>248</ele>
        <time>2023-01-30T14:52:38.000Z</time>
      </trkpt>
      <trkpt lat="48.81464" lon="5.18692">
        <ele>248</ele>
        <time>2023-01-30T14:52:39.000Z</time>
      </trkpt>
      <trkpt lat="48.81462" lon="5.18691">
        <ele>248</ele>
        <time>2023-01-30T14:52:40.000Z</time>
      </trkpt>
      <trkpt lat="48.8146" lon="5.18691">
        <ele>248</ele>
        <time>2023-01-30T14:52:41.000Z</time>
      </trkpt>
      <trkpt lat="48.81459" lon="5.1869">
        <ele>248</ele>
        <time>2023-01-30T14:52:42.000Z</time>
      </trkpt>
      <trkpt lat="48.81457" lon="5.1869">
        <ele>248</ele>
        <time>2023-01-30T14:52:43.000Z</time>
      </trkpt>
      <trkpt lat="48.81455" lon="5.18689">
        <ele>247.5</ele>
        <time>2023-01-30T14:52:44.000Z</time>
      </trkpt>
      <trkpt lat="48.81454" lon="5.18688">
        <ele>247</ele>
        <time>2023-01-30T14:52:45.000Z</time>
      </trkpt>
      <trkpt lat="48.81454" lon="5.18688">
        <ele>247</ele>
        <time>2023-01-30T14:52:46.000Z</time>
      </trkpt>
      <trkpt lat="48.81453" lon="5.18687">
        <ele>247</ele>
        <time>2023-01-30T14:52:47.000Z</time>
      </trkpt>
      <trkpt lat="48.81453" lon="5.18686">
        <ele>247</ele>
        <time>2023-01-30T14:52:48.000Z</time>
      </trkpt>
      <trkpt lat="48.81452" lon="5.18685">
        <ele>247</ele>
        <time>2023-01-30T14:52:49.000Z</time>
      </trkpt>
      <trkpt lat="48.81452" lon="5.18684">
        <ele>247</ele>
        <time>2023-01-30T14:52:50.000Z</time>
      </trkpt>
      <trkpt lat="48.81451" lon="5.18683">
        <ele>247</ele>
        <time>2023-01-30T14:52:51.000Z</time>
      </trkpt>
      <trkpt lat="48.81451" lon="5.18683">
        <ele>247</ele>
        <time>2023-01-30T14:52:52.000Z</time>
      </trkpt>
      <trkpt lat="48.8145" lon="5.18682">
        <ele>247</ele>
        <time>2023-01-30T14:52:53.000Z</time>
      </trkpt>
      <trkpt lat="48.8145" lon="5.18681">
        <ele>247</ele>
        <time>2023-01-30T14:52:54.000Z</time>
      </trkpt>
      <trkpt lat="48.81449" lon="5.18681">
        <ele>247</ele>
        <time>2023-01-30T14:52:55.000Z</time>
      </trkpt>
      <trkpt lat="48.81448" lon="5.1868">
        <ele>246.5</ele>
        <time>2023-01-30T14:52:56.000Z</time>
      </trkpt>
      <trkpt lat="48.81447" lon="5.18679">
        <ele>246</ele>
        <time>2023-01-30T14:52:57.000Z</time>
      </trkpt>
      <trkpt lat="48.81447" lon="5.18678">
        <ele>246</ele>
        <time>2023-01-30T14:52:58.000Z</time>
      </trkpt>
      <trkpt lat="48.81446" lon="5.18677">
        <ele>246</ele>
        <time>2023-01-30T14:52:59.000Z</time>
      </trkpt>
      <trkpt lat="48.81445" lon="5.18677">
        <ele>246</ele>
        <time>2023-01-30T14:53:00.000Z</time>
      </trkpt>
      <trkpt lat="48.81444" lon="5.18676">
        <ele>246</ele>
        <time>2023-01-30T14:53:01.000Z</time>
      </trkpt>
      <trkpt lat="48.81443" lon="5.18675">
        <ele>246</ele>
        <time>2023-01-30T14:53:02.000Z</time>
      </trkpt>
      <trkpt lat="48.81442" lon="5.18674">
        <ele>246</ele>
        <time>2023-01-30T14:53:03.000Z</time>
      </trkpt>
      <trkpt lat="48.81442" lon="5.18673">
        <ele>246</ele>
        <time>2023-01-30T14:53:04.000Z</time>
      </trkpt>
      <trkpt lat="48.81441" lon="5.18672">
        <ele>246</ele>
        <time>2023-01-30T14:53:05.000Z</time>
      </trkpt>
      <trkpt lat="48.8144" lon="5.18671">
        <ele>246</ele>
        <time>2023-01-30T14:53:06.000Z</time>
      </trkpt>
      <trkpt lat="48.81439" lon="5.1867">
        <ele>245.7</ele>
        <time>2023-01-30T14:53:07.000Z</time>
      </trkpt>
      <trkpt lat="48.81439" lon="5.18669">
        <ele>245.3</ele>
        <time>2023-01-30T14:53:08.000Z</time>
      </trkpt>
      <trkpt lat="48.81438" lon="5.18668">
        <ele>245</ele>
        <time>2023-01-30T14:53:09.000Z</time>
      </trkpt>
      <trkpt lat="48.81437" lon="5.18668">
        <ele>245</ele>
        <time>2023-01-30T14:53:10.000Z</time>
      </trkpt>
      <trkpt lat="48.81435" lon="5.18666">
        <ele>245</ele>
        <time>2023-01-30T14:53:11.000Z</time>
      </trkpt>
      <trkpt lat="48.81432" lon="5.18664">
        <ele>245</ele>
        <time>2023-01-30T14:53:12.000Z</time>
      </trkpt>
      <trkpt lat="48.8143" lon="5.18662">
        <ele>245</ele>
        <time>2023-01-30T14:53:13.000Z</time>
      </trkpt>
      <trkpt lat="48.81428" lon="5.18659">
        <ele>245</ele>
        <time>2023-01-30T14:53:14.000Z</time>
      </trkpt>
      <trkpt lat="48.81426" lon="5.18658">
        <ele>245</ele>
        <time>2023-01-30T14:53:15.000Z</time>
      </trkpt>
      <trkpt lat="48.81424" lon="5.18657">
        <ele>245</ele>
        <time>2023-01-30T14:53:16.000Z</time>
      </trkpt>
      <trkpt lat="48.81423" lon="5.18656">
        <ele>245</ele>
        <time>2023-01-30T14:53:17.000Z</time>
      </trkpt>
      <trkpt lat="48.81422" lon="5.18655">
        <ele>245</ele>
        <time>2023-01-30T14:53:18.000Z</time>
      </trkpt>
      <trkpt lat="48.81421" lon="5.18654">
        <ele>245</ele>
        <time>2023-01-30T14:53:19.000Z</time>
      </trkpt>
      <trkpt lat="48.8142" lon="5.18653">
        <ele>244.5</ele>
        <time>2023-01-30T14:53:20.000Z</time>
      </trkpt>
      <trkpt lat="48.81419" lon="5.18652">
        <ele>244</ele>
        <time>2023-01-30T14:53:21.000Z</time>
      </trkpt>
      <trkpt lat="48.81418" lon="5.1865">
        <ele>244</ele>
        <time>2023-01-30T14:53:22.000Z</time>
      </trkpt>
      <trkpt lat="48.81416" lon="5.18648">
        <ele>244</ele>
        <time>2023-01-30T14:53:23.000Z</time>
      </trkpt>
      <trkpt lat="48.81415" lon="5.18647">
        <ele>244</ele>
        <time>2023-01-30T14:53:24.000Z</time>
      </trkpt>
      <trkpt lat="48.81414" lon="5.18645">
        <ele>244</ele>
        <time>2023-01-30T14:53:25.000Z</time>
      </trkpt>
      <trkpt lat="48.81414" lon="5.18644">
        <ele>244</ele>
        <time>2023-01-30T14:53:26.000Z</time>
      </trkpt>
      <trkpt lat="48.81413" lon="5.18643">
        <ele>244</ele>
        <time>2023-01-30T14:53:27.000Z</time>
      </trkpt>
      <trkpt lat="48.81412" lon="5.18641">
        <ele>244</ele>
        <time>2023-01-30T14:53:28.000Z</time>
      </trkpt>
      <trkpt lat="48.81411" lon="5.1864">
        <ele>244</ele>
        <time>2023-01-30T14:53:29.000Z</time>
      </trkpt>
      <trkpt lat="48.8141" lon="5.18638">
        <ele>244</ele>
        <time>2023-01-30T14:53:30.000Z</time>
      </trkpt>
      <trkpt lat="48.81409" lon="5.18636">
        <ele>244</ele>
        <time>2023-01-30T14:53:31.000Z</time>
      </trkpt>
      <trkpt lat="48.81408" lon="5.18634">
        <ele>244</ele>
        <time>2023-01-30T14:53:32.000Z</time>
      </trkpt>
      <trkpt lat="48.81406" lon="5.18633">
        <ele>244</ele>
        <time>2023-01-30T14:53:33.000Z</time>
      </trkpt>
      <trkpt lat="48.81404" lon="5.18631">
        <ele>243</ele>
        <time>2023-01-30T14:53:34.000Z</time>
      </trkpt>
      <trkpt lat="48.81402" lon="5.1863">
        <ele>243</ele>
        <time>2023-01-30T14:53:35.000Z</time>
      </trkpt>
      <trkpt lat="48.814" lon="5.18628">
        <ele>243</ele>
        <time>2023-01-30T14:53:36.000Z</time>
      </trkpt>
      <trkpt lat="48.81398" lon="5.18627">
        <ele>243</ele>
        <time>2023-01-30T14:53:37.000Z</time>
      </trkpt>
      <trkpt lat="48.81397" lon="5.18625">
        <ele>243</ele>
        <time>2023-01-30T14:53:38.000Z</time>
      </trkpt>
      <trkpt lat="48.81395" lon="5.18624">
        <ele>243</ele>
        <time>2023-01-30T14:53:39.000Z</time>
      </trkpt>
      <trkpt lat="48.81393" lon="5.18623">
        <ele>243</ele>
        <time>2023-01-30T14:53:40.000Z</time>
      </trkpt>
      <trkpt lat="48.81392" lon="5.18621">
        <ele>243</ele>
        <time>2023-01-30T14:53:41.000Z</time>
      </trkpt>
      <trkpt lat="48.8139" lon="5.1862">
        <ele>243</ele>
        <time>2023-01-30T14:53:42.000Z</time>
      </trkpt>
      <trkpt lat="48.81388" lon="5.18619">
        <ele>243</ele>
        <time>2023-01-30T14:53:43.000Z</time>
      </trkpt>
      <trkpt lat="48.81386" lon="5.18618">
        <ele>243</ele>
        <time>2023-01-30T14:53:44.000Z</time>
      </trkpt>
      <trkpt lat="48.81385" lon="5.18617">
        <ele>242.7</ele>
        <time>2023-01-30T14:53:45.000Z</time>
      </trkpt>
      <trkpt lat="48.81383" lon="5.18616">
        <ele>242.3</ele>
        <time>2023-01-30T14:53:46.000Z</time>
      </trkpt>
      <trkpt lat="48.81382" lon="5.18614">
        <ele>242</ele>
        <time>2023-01-30T14:53:47.000Z</time>
      </trkpt>
      <trkpt lat="48.81381" lon="5.18613">
        <ele>242</ele>
        <time>2023-01-30T14:53:48.000Z</time>
      </trkpt>
      <trkpt lat="48.8138" lon="5.18612">
        <ele>242</ele>
        <time>2023-01-30T14:53:49.000Z</time>
      </trkpt>
      <trkpt lat="48.81379" lon="5.1861">
        <ele>242</ele>
        <time>2023-01-30T14:53:50.000Z</time>
      </trkpt>
      <trkpt lat="48.81378" lon="5.18609">
        <ele>242</ele>
        <time>2023-01-30T14:53:51.000Z</time>
      </trkpt>
      <trkpt lat="48.81377" lon="5.18608">
        <ele>242</ele>
        <time>2023-01-30T14:53:52.000Z</time>
      </trkpt>
      <trkpt lat="48.81376" lon="5.18607">
        <ele>242</ele>
        <time>2023-01-30T14:53:53.000Z</time>
      </trkpt>
      <trkpt lat="48.81375" lon="5.18606">
        <ele>242</ele>
        <time>2023-01-30T14:53:54.000Z</time>
      </trkpt>
      <trkpt lat="48.81374" lon="5.18605">
        <ele>242</ele>
        <time>2023-01-30T14:53:55.000Z</time>
      </trkpt>
      <trkpt lat="48.81373" lon="5.18605">
        <ele>242</ele>
        <time>2023-01-30T14:53:56.000Z</time>
      </trkpt>
      <trkpt lat="48.81372" lon="5.18605">
        <ele>242</ele>
        <time>2023-01-30T14:53:57.000Z</time>
      </trkpt>
      <trkpt lat="48.81371" lon="5.18605">
        <ele>242</ele>
        <time>2023-01-30T14:53:58.000Z</time>
      </trkpt>
      <trkpt lat="48.8137" lon="5.18605">
        <ele>242</ele>
        <time>2023-01-30T14:53:59.000Z</time>
      </trkpt>
      <trkpt lat="48.81369" lon="5.18606">
        <ele>242</ele>
        <time>2023-01-30T14:54:00.000Z</time>
      </trkpt>
      <trkpt lat="48.81368" lon="5.18606">
        <ele>242</ele>
        <time>2023-01-30T14:54:01.000Z</time>
      </trkpt>
      <trkpt lat="48.81367" lon="5.18606">
        <ele>242</ele>
        <time>2023-01-30T14:54:02.000Z</time>
      </trkpt>
      <trkpt lat="48.81366" lon="5.18606">
        <ele>242</ele>
        <time>2023-01-30T14:54:03.000Z</time>
      </trkpt>
      <trkpt lat="48.81365" lon="5.18606">
        <ele>241.5</ele>
        <time>2023-01-30T14:54:04.000Z</time>
      </trkpt>
      <trkpt lat="48.81364" lon="5.18605">
        <ele>241</ele>
        <time>2023-01-30T14:54:05.000Z</time>
      </trkpt>
      <trkpt lat="48.81363" lon="5.18605">
        <ele>241</ele>
        <time>2023-01-30T14:54:06.000Z</time>
      </trkpt>
      <trkpt lat="48.81362" lon="5.18605">
        <ele>241</ele>
        <time>2023-01-30T14:54:07.000Z</time>
      </trkpt>
      <trkpt lat="48.81361" lon="5.18605">
        <ele>241</ele>
        <time>2023-01-30T14:54:08.000Z</time>
      </trkpt>
      <trkpt lat="48.8136" lon="5.18604">
        <ele>241</ele>
        <time>2023-01-30T14:54:09.000Z</time>
      </trkpt>
      <trkpt lat="48.81359" lon="5.18604">
        <ele>241</ele>
        <time>2023-01-30T14:54:10.000Z</time>
      </trkpt>
      <trkpt lat="48.81358" lon="5.18603">
        <ele>241</ele>
        <time>2023-01-30T14:54:11.000Z</time>
      </trkpt>
      <trkpt lat="48.81357" lon="5.18602">
        <ele>241</ele>
        <time>2023-01-30T14:54:12.000Z</time>
      </trkpt>
      <trkpt lat="48.81357" lon="5.18601">
        <ele>241</ele>
        <time>2023-01-30T14:54:13.000Z</time>
      </trkpt>
      <trkpt lat="48.81356" lon="5.186">
        <ele>241</ele>
        <time>2023-01-30T14:54:14.000Z</time>
      </trkpt>
      <trkpt lat="48.81355" lon="5.18599">
        <ele>241</ele>
        <time>2023-01-30T14:54:15.000Z</time>
      </trkpt>
      <trkpt lat="48.81354" lon="5.18598">
        <ele>241</ele>
        <time>2023-01-30T14:54:16.000Z</time>
      </trkpt>
      <trkpt lat="48.81353" lon="5.18597">
        <ele>241</ele>
        <time>2023-01-30T14:54:17.000Z</time>
      </trkpt>
      <trkpt lat="48.81352" lon="5.18596">
        <ele>241</ele>
        <time>2023-01-30T14:54:18.000Z</time>
      </trkpt>
      <trkpt lat="48.81351" lon="5.18595">
        <ele>241</ele>
        <time>2023-01-30T14:54:19.000Z</time>
      </trkpt>
      <trkpt lat="48.8135" lon="5.18593">
        <ele>241</ele>
        <time>2023-01-30T14:54:20.000Z</time>
      </trkpt>
      <trkpt lat="48.81349" lon="5.18592">
        <ele>241</ele>
        <time>2023-01-30T14:54:21.000Z</time>
      </trkpt>
      <trkpt lat="48.81349" lon="5.1859">
        <ele>241</ele>
        <time>2023-01-30T14:54:22.000Z</time>
      </trkpt>
      <trkpt lat="48.81349" lon="5.1859">
        <ele>241</ele>
        <time>2023-01-30T14:54:23.000Z</time>
      </trkpt>
      <trkpt lat="48.81348" lon="5.18589">
        <ele>241</ele>
        <time>2023-01-30T14:54:24.000Z</time>
      </trkpt>
      <trkpt lat="48.81348" lon="5.18589">
        <ele>241</ele>
        <time>2023-01-30T14:54:25.000Z</time>
      </trkpt>
      <trkpt lat="48.81347" lon="5.18588">
        <ele>241</ele>
        <time>2023-01-30T14:54:26.000Z</time>
      </trkpt>
      <trkpt lat="48.81346" lon="5.18587">
        <ele>241</ele>
        <time>2023-01-30T14:54:27.000Z</time>
      </trkpt>
      <trkpt lat="48.81346" lon="5.18587">
        <ele>242</ele>
        <time>2023-01-30T14:54:28.000Z</time>
      </trkpt>
      <trkpt lat="48.81345" lon="5.18586">
        <ele>242</ele>
        <time>2023-01-30T14:54:29.000Z</time>
      </trkpt>
      <trkpt lat="48.81344" lon="5.18585">
        <ele>242</ele>
        <time>2023-01-30T14:54:30.000Z</time>
      </trkpt>
      <trkpt lat="48.81344" lon="5.18584">
        <ele>242</ele>
        <time>2023-01-30T14:54:31.000Z</time>
      </trkpt>
      <trkpt lat="48.81343" lon="5.18583">
        <ele>242</ele>
        <time>2023-01-30T14:54:32.000Z</time>
      </trkpt>
      <trkpt lat="48.81343" lon="5.18582">
        <ele>242</ele>
        <time>2023-01-30T14:54:33.000Z</time>
      </trkpt>
      <trkpt lat="48.81342" lon="5.18581">
        <ele>242</ele>
        <time>2023-01-30T14:54:34.000Z</time>
      </trkpt>
      <trkpt lat="48.81342" lon="5.1858">
        <ele>242.3</ele>
        <time>2023-01-30T14:54:35.000Z</time>
      </trkpt>
      <trkpt lat="48.81341" lon="5.18579">
        <ele>242.7</ele>
        <time>2023-01-30T14:54:36.000Z</time>
      </trkpt>
      <trkpt lat="48.81341" lon="5.18578">
        <ele>243</ele>
        <time>2023-01-30T14:54:37.000Z</time>
      </trkpt>
      <trkpt lat="48.8134" lon="5.18577">
        <ele>243</ele>
        <time>2023-01-30T14:54:38.000Z</time>
      </trkpt>
      <trkpt lat="48.81339" lon="5.18576">
        <ele>243</ele>
        <time>2023-01-30T14:54:39.000Z</time>
      </trkpt>
      <trkpt lat="48.81338" lon="5.18575">
        <ele>243</ele>
        <time>2023-01-30T14:54:40.000Z</time>
      </trkpt>
      <trkpt lat="48.81336" lon="5.18574">
        <ele>243</ele>
        <time>2023-01-30T14:54:41.000Z</time>
      </trkpt>
      <trkpt lat="48.81334" lon="5.18573">
        <ele>243</ele>
        <time>2023-01-30T14:54:42.000Z</time>
      </trkpt>
      <trkpt lat="48.81333" lon="5.18572">
        <ele>243</ele>
        <time>2023-01-30T14:54:43.000Z</time>
      </trkpt>
      <trkpt lat="48.81331" lon="5.18571">
        <ele>243</ele>
        <time>2023-01-30T14:54:44.000Z</time>
      </trkpt>
      <trkpt lat="48.81329" lon="5.18571">
        <ele>243</ele>
        <time>2023-01-30T14:54:45.000Z</time>
      </trkpt>
      <trkpt lat="48.81328" lon="5.18571">
        <ele>243</ele>
        <time>2023-01-30T14:54:46.000Z</time>
      </trkpt>
      <trkpt lat="48.81327" lon="5.1857">
        <ele>243</ele>
        <time>2023-01-30T14:54:47.000Z</time>
      </trkpt>
      <trkpt lat="48.81325" lon="5.1857">
        <ele>243</ele>
        <time>2023-01-30T14:54:48.000Z</time>
      </trkpt>
      <trkpt lat="48.81324" lon="5.1857">
        <ele>243</ele>
        <time>2023-01-30T14:54:49.000Z</time>
      </trkpt>
      <trkpt lat="48.81323" lon="5.18569">
        <ele>243</ele>
        <time>2023-01-30T14:54:50.000Z</time>
      </trkpt>
      <trkpt lat="48.81322" lon="5.18569">
        <ele>243</ele>
        <time>2023-01-30T14:54:51.000Z</time>
      </trkpt>
      <trkpt lat="48.81321" lon="5.18568">
        <ele>243.5</ele>
        <time>2023-01-30T14:54:52.000Z</time>
      </trkpt>
      <trkpt lat="48.8132" lon="5.18567">
        <ele>244</ele>
        <time>2023-01-30T14:54:53.000Z</time>
      </trkpt>
      <trkpt lat="48.81318" lon="5.18566">
        <ele>244</ele>
        <time>2023-01-30T14:54:54.000Z</time>
      </trkpt>
      <trkpt lat="48.81316" lon="5.18565">
        <ele>244</ele>
        <time>2023-01-30T14:54:55.000Z</time>
      </trkpt>
      <trkpt lat="48.81315" lon="5.18564">
        <ele>244</ele>
        <time>2023-01-30T14:54:56.000Z</time>
      </trkpt>
      <trkpt lat="48.81314" lon="5.18562">
        <ele>244</ele>
        <time>2023-01-30T14:54:57.000Z</time>
      </trkpt>
      <trkpt lat="48.81313" lon="5.18561">
        <ele>244</ele>
        <time>2023-01-30T14:54:58.000Z</time>
      </trkpt>
      <trkpt lat="48.81312" lon="5.1856">
        <ele>244</ele>
        <time>2023-01-30T14:54:59.000Z</time>
      </trkpt>
      <trkpt lat="48.81311" lon="5.18559">
        <ele>244</ele>
        <time>2023-01-30T14:55:00.000Z</time>
      </trkpt>
      <trkpt lat="48.81311" lon="5.18558">
        <ele>244</ele>
        <time>2023-01-30T14:55:01.000Z</time>
      </trkpt>
      <trkpt lat="48.8131" lon="5.18557">
        <ele>244.5</ele>
        <time>2023-01-30T14:55:02.000Z</time>
      </trkpt>
      <trkpt lat="48.81308" lon="5.18556">
        <ele>245</ele>
        <time>2023-01-30T14:55:03.000Z</time>
      </trkpt>
      <trkpt lat="48.81307" lon="5.18555">
        <ele>245</ele>
        <time>2023-01-30T14:55:04.000Z</time>
      </trkpt>
      <trkpt lat="48.81306" lon="5.18554">
        <ele>245</ele>
        <time>2023-01-30T14:55:05.000Z</time>
      </trkpt>
      <trkpt lat="48.81305" lon="5.18553">
        <ele>245</ele>
        <time>2023-01-30T14:55:06.000Z</time>
      </trkpt>
      <trkpt lat="48.81305" lon="5.18553">
        <ele>245.3</ele>
        <time>2023-01-30T14:55:07.000Z</time>
      </trkpt>
      <trkpt lat="48.81304" lon="5.18552">
        <ele>245.7</ele>
        <time>2023-01-30T14:55:08.000Z</time>
      </trkpt>
      <trkpt lat="48.81303" lon="5.18552">
        <ele>246</ele>
        <time>2023-01-30T14:55:09.000Z</time>
      </trkpt>
      <trkpt lat="48.81303" lon="5.18552">
        <ele>246</ele>
        <time>2023-01-30T14:55:10.000Z</time>
      </trkpt>
      <trkpt lat="48.81302" lon="5.18551">
        <ele>246</ele>
        <time>2023-01-30T14:55:11.000Z</time>
      </trkpt>
      <trkpt lat="48.81301" lon="5.18551">
        <ele>246</ele>
        <time>2023-01-30T14:55:12.000Z</time>
      </trkpt>
      <trkpt lat="48.81299" lon="5.18551">
        <ele>246</ele>
        <time>2023-01-30T14:55:13.000Z</time>
      </trkpt>
      <trkpt lat="48.81298" lon="5.1855">
        <ele>247</ele>
        <time>2023-01-30T14:55:14.000Z</time>
      </trkpt>
      <trkpt lat="48.81296" lon="5.1855">
        <ele>247</ele>
        <time>2023-01-30T14:55:15.000Z</time>
      </trkpt>
      <trkpt lat="48.81295" lon="5.18549">
        <ele>247</ele>
        <time>2023-01-30T14:55:16.000Z</time>
      </trkpt>
      <trkpt lat="48.81294" lon="5.18549">
        <ele>247</ele>
        <time>2023-01-30T14:55:17.000Z</time>
      </trkpt>
      <trkpt lat="48.81293" lon="5.18548">
        <ele>247</ele>
        <time>2023-01-30T14:55:18.000Z</time>
      </trkpt>
      <trkpt lat="48.81292" lon="5.18548">
        <ele>247</ele>
        <time>2023-01-30T14:55:19.000Z</time>
      </trkpt>
      <trkpt lat="48.8129" lon="5.18547">
        <ele>247.5</ele>
        <time>2023-01-30T14:55:20.000Z</time>
      </trkpt>
      <trkpt lat="48.81288" lon="5.18546">
        <ele>248</ele>
        <time>2023-01-30T14:55:21.000Z</time>
      </trkpt>
      <trkpt lat="48.81287" lon="5.18545">
        <ele>248</ele>
        <time>2023-01-30T14:55:22.000Z</time>
      </trkpt>
      <trkpt lat="48.81285" lon="5.18544">
        <ele>248</ele>
        <time>2023-01-30T14:55:23.000Z</time>
      </trkpt>
      <trkpt lat="48.81284" lon="5.18544">
        <ele>248</ele>
        <time>2023-01-30T14:55:24.000Z</time>
      </trkpt>
      <trkpt lat="48.81283" lon="5.18543">
        <ele>248</ele>
        <time>2023-01-30T14:55:25.000Z</time>
      </trkpt>
      <trkpt lat="48.81282" lon="5.18542">
        <ele>248</ele>
        <time>2023-01-30T14:55:26.000Z</time>
      </trkpt>
      <trkpt lat="48.81281" lon="5.18542">
        <ele>248</ele>
        <time>2023-01-30T14:55:27.000Z</time>
      </trkpt>
      <trkpt lat="48.8128" lon="5.18541">
        <ele>248.5</ele>
        <time>2023-01-30T14:55:28.000Z</time>
      </trkpt>
      <trkpt lat="48.81279" lon="5.18541">
        <ele>249</ele>
        <time>2023-01-30T14:55:29.000Z</time>
      </trkpt>
      <trkpt lat="48.81278" lon="5.1854">
        <ele>249</ele>
        <time>2023-01-30T14:55:30.000Z</time>
      </trkpt>
      <trkpt lat="48.81277" lon="5.18539">
        <ele>249</ele>
        <time>2023-01-30T14:55:31.000Z</time>
      </trkpt>
      <trkpt lat="48.81276" lon="5.18539">
        <ele>249</ele>
        <time>2023-01-30T14:55:32.000Z</time>
      </trkpt>
      <trkpt lat="48.81275" lon="5.18538">
        <ele>249</ele>
        <time>2023-01-30T14:55:33.000Z</time>
      </trkpt>
      <trkpt lat="48.81273" lon="5.18537">
        <ele>249</ele>
        <time>2023-01-30T14:55:34.000Z</time>
      </trkpt>
      <trkpt lat="48.81272" lon="5.18536">
        <ele>249</ele>
        <time>2023-01-30T14:55:35.000Z</time>
      </trkpt>
      <trkpt lat="48.81271" lon="5.18536">
        <ele>249.5</ele>
        <time>2023-01-30T14:55:36.000Z</time>
      </trkpt>
      <trkpt lat="48.8127" lon="5.18535">
        <ele>250</ele>
        <time>2023-01-30T14:55:37.000Z</time>
      </trkpt>
      <trkpt lat="48.81269" lon="5.18534">
        <ele>250</ele>
        <time>2023-01-30T14:55:38.000Z</time>
      </trkpt>
      <trkpt lat="48.81268" lon="5.18533">
        <ele>250</ele>
        <time>2023-01-30T14:55:39.000Z</time>
      </trkpt>
      <trkpt lat="48.81267" lon="5.18533">
        <ele>250</ele>
        <time>2023-01-30T14:55:40.000Z</time>
      </trkpt>
      <trkpt lat="48.81266" lon="5.18532">
        <ele>250</ele>
        <time>2023-01-30T14:55:41.000Z</time>
      </trkpt>
      <trkpt lat="48.81265" lon="5.18532">
        <ele>250</ele>
        <time>2023-01-30T14:55:42.000Z</time>
      </trkpt>
      <trkpt lat="48.81264" lon="5.18532">
        <ele>250</ele>
        <time>2023-01-30T14:55:43.000Z</time>
      </trkpt>
      <trkpt lat="48.81262" lon="5.18531">
        <ele>250</ele>
        <time>2023-01-30T14:55:44.000Z</time>
      </trkpt>
      <trkpt lat="48.81261" lon="5.18531">
        <ele>250</ele>
        <time>2023-01-30T14:55:45.000Z</time>
      </trkpt>
      <trkpt lat="48.81259" lon="5.1853">
        <ele>250</ele>
        <time>2023-01-30T14:55:46.000Z</time>
      </trkpt>
      <trkpt lat="48.81258" lon="5.1853">
        <ele>250.3</ele>
        <time>2023-01-30T14:55:47.000Z</time>
      </trkpt>
      <trkpt lat="48.81257" lon="5.1853">
        <ele>250.7</ele>
        <time>2023-01-30T14:55:48.000Z</time>
      </trkpt>
      <trkpt lat="48.81256" lon="5.1853">
        <ele>251</ele>
        <time>2023-01-30T14:55:49.000Z</time>
      </trkpt>
      <trkpt lat="48.81254" lon="5.1853">
        <ele>251</ele>
        <time>2023-01-30T14:55:50.000Z</time>
      </trkpt>
      <trkpt lat="48.81253" lon="5.18531">
        <ele>251</ele>
        <time>2023-01-30T14:55:51.000Z</time>
      </trkpt>
      <trkpt lat="48.81251" lon="5.18531">
        <ele>251</ele>
        <time>2023-01-30T14:55:52.000Z</time>
      </trkpt>
      <trkpt lat="48.8125" lon="5.18531">
        <ele>251</ele>
        <time>2023-01-30T14:55:53.000Z</time>
      </trkpt>
      <trkpt lat="48.81249" lon="5.18531">
        <ele>251</ele>
        <time>2023-01-30T14:55:54.000Z</time>
      </trkpt>
      <trkpt lat="48.81247" lon="5.18531">
        <ele>251</ele>
        <time>2023-01-30T14:55:55.000Z</time>
      </trkpt>
      <trkpt lat="48.81245" lon="5.18531">
        <ele>251</ele>
        <time>2023-01-30T14:55:56.000Z</time>
      </trkpt>
      <trkpt lat="48.81243" lon="5.1853">
        <ele>251</ele>
        <time>2023-01-30T14:55:57.000Z</time>
      </trkpt>
      <trkpt lat="48.81241" lon="5.1853">
        <ele>251</ele>
        <time>2023-01-30T14:55:58.000Z</time>
      </trkpt>
      <trkpt lat="48.8124" lon="5.1853">
        <ele>251</ele>
        <time>2023-01-30T14:55:59.000Z</time>
      </trkpt>
      <trkpt lat="48.81239" lon="5.18529">
        <ele>251</ele>
        <time>2023-01-30T14:56:00.000Z</time>
      </trkpt>
      <trkpt lat="48.81237" lon="5.18528">
        <ele>251.3</ele>
        <time>2023-01-30T14:56:01.000Z</time>
      </trkpt>
      <trkpt lat="48.81236" lon="5.18528">
        <ele>251.7</ele>
        <time>2023-01-30T14:56:02.000Z</time>
      </trkpt>
      <trkpt lat="48.81235" lon="5.18528">
        <ele>252</ele>
        <time>2023-01-30T14:56:03.000Z</time>
      </trkpt>
      <trkpt lat="48.81234" lon="5.18528">
        <ele>252</ele>
        <time>2023-01-30T14:56:04.000Z</time>
      </trkpt>
      <trkpt lat="48.81233" lon="5.18527">
        <ele>252</ele>
        <time>2023-01-30T14:56:05.000Z</time>
      </trkpt>
      <trkpt lat="48.81231" lon="5.18527">
        <ele>252</ele>
        <time>2023-01-30T14:56:06.000Z</time>
      </trkpt>
      <trkpt lat="48.8123" lon="5.18527">
        <ele>252</ele>
        <time>2023-01-30T14:56:07.000Z</time>
      </trkpt>
      <trkpt lat="48.81229" lon="5.18527">
        <ele>252</ele>
        <time>2023-01-30T14:56:08.000Z</time>
      </trkpt>
      <trkpt lat="48.81228" lon="5.18527">
        <ele>252</ele>
        <time>2023-01-30T14:56:09.000Z</time>
      </trkpt>
      <trkpt lat="48.81227" lon="5.18527">
        <ele>252</ele>
        <time>2023-01-30T14:56:10.000Z</time>
      </trkpt>
      <trkpt lat="48.81226" lon="5.18527">
        <ele>252</ele>
        <time>2023-01-30T14:56:11.000Z</time>
      </trkpt>
      <trkpt lat="48.81225" lon="5.18527">
        <ele>252</ele>
        <time>2023-01-30T14:56:12.000Z</time>
      </trkpt>
      <trkpt lat="48.81224" lon="5.18527">
        <ele>252</ele>
        <time>2023-01-30T14:56:13.000Z</time>
      </trkpt>
      <trkpt lat="48.81223" lon="5.18527">
        <ele>252.5</ele>
        <time>2023-01-30T14:56:14.000Z</time>
      </trkpt>
      <trkpt lat="48.81222" lon="5.18527">
        <ele>253</ele>
        <time>2023-01-30T14:56:15.000Z</time>
      </trkpt>
      <trkpt lat="48.8122" lon="5.18527">
        <ele>253</ele>
        <time>2023-01-30T14:56:16.000Z</time>
      </trkpt>
      <trkpt lat="48.81219" lon="5.18527">
        <ele>253</ele>
        <time>2023-01-30T14:56:17.000Z</time>
      </trkpt>
      <trkpt lat="48.81218" lon="5.18527">
        <ele>253</ele>
        <time>2023-01-30T14:56:18.000Z</time>
      </trkpt>
      <trkpt lat="48.81217" lon="5.18527">
        <ele>253</ele>
        <time>2023-01-30T14:56:19.000Z</time>
      </trkpt>
      <trkpt lat="48.81216" lon="5.18527">
        <ele>253</ele>
        <time>2023-01-30T14:56:20.000Z</time>
      </trkpt>
      <trkpt lat="48.81215" lon="5.18527">
        <ele>253</ele>
        <time>2023-01-30T14:56:21.000Z</time>
      </trkpt>
      <trkpt lat="48.81214" lon="5.18527">
        <ele>253</ele>
        <time>2023-01-30T14:56:22.000Z</time>
      </trkpt>
      <trkpt lat="48.81213" lon="5.18527">
        <ele>253</ele>
        <time>2023-01-30T14:56:23.000Z</time>
      </trkpt>
      <trkpt lat="48.81213" lon="5.18527">
        <ele>253.5</ele>
        <time>2023-01-30T14:56:24.000Z</time>
      </trkpt>
      <trkpt lat="48.81212" lon="5.18527">
        <ele>254</ele>
        <time>2023-01-30T14:56:25.000Z</time>
      </trkpt>
      <trkpt lat="48.81211" lon="5.18526">
        <ele>254</ele>
        <time>2023-01-30T14:56:26.000Z</time>
      </trkpt>
      <trkpt lat="48.8121" lon="5.18526">
        <ele>254</ele>
        <time>2023-01-30T14:56:27.000Z</time>
      </trkpt>
      <trkpt lat="48.81209" lon="5.18526">
        <ele>254</ele>
        <time>2023-01-30T14:56:28.000Z</time>
      </trkpt>
      <trkpt lat="48.81207" lon="5.18526">
        <ele>254</ele>
        <time>2023-01-30T14:56:29.000Z</time>
      </trkpt>
      <trkpt lat="48.81206" lon="5.18525">
        <ele>254</ele>
        <time>2023-01-30T14:56:30.000Z</time>
      </trkpt>
      <trkpt lat="48.81205" lon="5.18525">
        <ele>254.3</ele>
        <time>2023-01-30T14:56:31.000Z</time>
      </trkpt>
      <trkpt lat="48.81204" lon="5.18525">
        <ele>254.7</ele>
        <time>2023-01-30T14:56:32.000Z</time>
      </trkpt>
      <trkpt lat="48.81202" lon="5.18525">
        <ele>255</ele>
        <time>2023-01-30T14:56:33.000Z</time>
      </trkpt>
      <trkpt lat="48.81201" lon="5.18525">
        <ele>255</ele>
        <time>2023-01-30T14:56:34.000Z</time>
      </trkpt>
      <trkpt lat="48.812" lon="5.18525">
        <ele>255</ele>
        <time>2023-01-30T14:56:35.000Z</time>
      </trkpt>
      <trkpt lat="48.81199" lon="5.18524">
        <ele>255</ele>
        <time>2023-01-30T14:56:36.000Z</time>
      </trkpt>
      <trkpt lat="48.81198" lon="5.18524">
        <ele>255</ele>
        <time>2023-01-30T14:56:37.000Z</time>
      </trkpt>
      <trkpt lat="48.81197" lon="5.18523">
        <ele>255</ele>
        <time>2023-01-30T14:56:38.000Z</time>
      </trkpt>
      <trkpt lat="48.81195" lon="5.18522">
        <ele>255</ele>
        <time>2023-01-30T14:56:39.000Z</time>
      </trkpt>
      <trkpt lat="48.81194" lon="5.18522">
        <ele>255</ele>
        <time>2023-01-30T14:56:40.000Z</time>
      </trkpt>
      <trkpt lat="48.81193" lon="5.18521">
        <ele>255</ele>
        <time>2023-01-30T14:56:41.000Z</time>
      </trkpt>
      <trkpt lat="48.81191" lon="5.18521">
        <ele>256</ele>
        <time>2023-01-30T14:56:42.000Z</time>
      </trkpt>
      <trkpt lat="48.8119" lon="5.18521">
        <ele>256</ele>
        <time>2023-01-30T14:56:43.000Z</time>
      </trkpt>
      <trkpt lat="48.81188" lon="5.18521">
        <ele>256</ele>
        <time>2023-01-30T14:56:44.000Z</time>
      </trkpt>
      <trkpt lat="48.81187" lon="5.1852">
        <ele>256</ele>
        <time>2023-01-30T14:56:45.000Z</time>
      </trkpt>
      <trkpt lat="48.81186" lon="5.1852">
        <ele>256</ele>
        <time>2023-01-30T14:56:46.000Z</time>
      </trkpt>
      <trkpt lat="48.81185" lon="5.1852">
        <ele>256</ele>
        <time>2023-01-30T14:56:47.000Z</time>
      </trkpt>
      <trkpt lat="48.81184" lon="5.18519">
        <ele>256</ele>
        <time>2023-01-30T14:56:48.000Z</time>
      </trkpt>
      <trkpt lat="48.81182" lon="5.18519">
        <ele>256</ele>
        <time>2023-01-30T14:56:49.000Z</time>
      </trkpt>
      <trkpt lat="48.81181" lon="5.18519">
        <ele>256</ele>
        <time>2023-01-30T14:56:50.000Z</time>
      </trkpt>
      <trkpt lat="48.8118" lon="5.18518">
        <ele>256</ele>
        <time>2023-01-30T14:56:51.000Z</time>
      </trkpt>
      <trkpt lat="48.81179" lon="5.18518">
        <ele>256.5</ele>
        <time>2023-01-30T14:56:52.000Z</time>
      </trkpt>
      <trkpt lat="48.81178" lon="5.18518">
        <ele>257</ele>
        <time>2023-01-30T14:56:53.000Z</time>
      </trkpt>
      <trkpt lat="48.81177" lon="5.18517">
        <ele>257</ele>
        <time>2023-01-30T14:56:54.000Z</time>
      </trkpt>
      <trkpt lat="48.81176" lon="5.18517">
        <ele>257</ele>
        <time>2023-01-30T14:56:55.000Z</time>
      </trkpt>
      <trkpt lat="48.81175" lon="5.18516">
        <ele>257</ele>
        <time>2023-01-30T14:56:56.000Z</time>
      </trkpt>
      <trkpt lat="48.81174" lon="5.18516">
        <ele>257</ele>
        <time>2023-01-30T14:56:57.000Z</time>
      </trkpt>
      <trkpt lat="48.81172" lon="5.18516">
        <ele>257</ele>
        <time>2023-01-30T14:56:58.000Z</time>
      </trkpt>
      <trkpt lat="48.81171" lon="5.18515">
        <ele>257</ele>
        <time>2023-01-30T14:56:59.000Z</time>
      </trkpt>
      <trkpt lat="48.8117" lon="5.18515">
        <ele>257</ele>
        <time>2023-01-30T14:57:00.000Z</time>
      </trkpt>
      <trkpt lat="48.81169" lon="5.18514">
        <ele>257</ele>
        <time>2023-01-30T14:57:01.000Z</time>
      </trkpt>
      <trkpt lat="48.81167" lon="5.18514">
        <ele>257</ele>
        <time>2023-01-30T14:57:02.000Z</time>
      </trkpt>
      <trkpt lat="48.81166" lon="5.18514">
        <ele>257</ele>
        <time>2023-01-30T14:57:03.000Z</time>
      </trkpt>
      <trkpt lat="48.81164" lon="5.18513">
        <ele>257</ele>
        <time>2023-01-30T14:57:04.000Z</time>
      </trkpt>
      <trkpt lat="48.81163" lon="5.18513">
        <ele>257</ele>
        <time>2023-01-30T14:57:05.000Z</time>
      </trkpt>
      <trkpt lat="48.81162" lon="5.18513">
        <ele>257</ele>
        <time>2023-01-30T14:57:06.000Z</time>
      </trkpt>
      <trkpt lat="48.81161" lon="5.18512">
        <ele>257</ele>
        <time>2023-01-30T14:57:07.000Z</time>
      </trkpt>
      <trkpt lat="48.8116" lon="5.18512">
        <ele>257</ele>
        <time>2023-01-30T14:57:08.000Z</time>
      </trkpt>
      <trkpt lat="48.81159" lon="5.18511">
        <ele>257</ele>
        <time>2023-01-30T14:57:09.000Z</time>
      </trkpt>
      <trkpt lat="48.81157" lon="5.18511">
        <ele>257.5</ele>
        <time>2023-01-30T14:57:10.000Z</time>
      </trkpt>
      <trkpt lat="48.81156" lon="5.18511">
        <ele>258</ele>
        <time>2023-01-30T14:57:11.000Z</time>
      </trkpt>
      <trkpt lat="48.81154" lon="5.1851">
        <ele>258</ele>
        <time>2023-01-30T14:57:12.000Z</time>
      </trkpt>
      <trkpt lat="48.81153" lon="5.1851">
        <ele>258</ele>
        <time>2023-01-30T14:57:13.000Z</time>
      </trkpt>
      <trkpt lat="48.81151" lon="5.1851">
        <ele>258</ele>
        <time>2023-01-30T14:57:14.000Z</time>
      </trkpt>
      <trkpt lat="48.81149" lon="5.18509">
        <ele>258</ele>
        <time>2023-01-30T14:57:15.000Z</time>
      </trkpt>
      <trkpt lat="48.81147" lon="5.18509">
        <ele>258</ele>
        <time>2023-01-30T14:57:16.000Z</time>
      </trkpt>
      <trkpt lat="48.81145" lon="5.18509">
        <ele>258</ele>
        <time>2023-01-30T14:57:17.000Z</time>
      </trkpt>
      <trkpt lat="48.81142" lon="5.18509">
        <ele>258</ele>
        <time>2023-01-30T14:57:18.000Z</time>
      </trkpt>
      <trkpt lat="48.8114" lon="5.18509">
        <ele>258</ele>
        <time>2023-01-30T14:57:19.000Z</time>
      </trkpt>
      <trkpt lat="48.81139" lon="5.18509">
        <ele>258</ele>
        <time>2023-01-30T14:57:20.000Z</time>
      </trkpt>
      <trkpt lat="48.81137" lon="5.18509">
        <ele>258</ele>
        <time>2023-01-30T14:57:21.000Z</time>
      </trkpt>
      <trkpt lat="48.81136" lon="5.18508">
        <ele>258</ele>
        <time>2023-01-30T14:57:22.000Z</time>
      </trkpt>
      <trkpt lat="48.81135" lon="5.18508">
        <ele>258</ele>
        <time>2023-01-30T14:57:23.000Z</time>
      </trkpt>
      <trkpt lat="48.81133" lon="5.18508">
        <ele>258</ele>
        <time>2023-01-30T14:57:24.000Z</time>
      </trkpt>
      <trkpt lat="48.81132" lon="5.18507">
        <ele>258</ele>
        <time>2023-01-30T14:57:25.000Z</time>
      </trkpt>
      <trkpt lat="48.8113" lon="5.18507">
        <ele>258</ele>
        <time>2023-01-30T14:57:26.000Z</time>
      </trkpt>
      <trkpt lat="48.81129" lon="5.18507">
        <ele>258</ele>
        <time>2023-01-30T14:57:27.000Z</time>
      </trkpt>
      <trkpt lat="48.81127" lon="5.18507">
        <ele>258</ele>
        <time>2023-01-30T14:57:28.000Z</time>
      </trkpt>
      <trkpt lat="48.81125" lon="5.18507">
        <ele>258</ele>
        <time>2023-01-30T14:57:29.000Z</time>
      </trkpt>
      <trkpt lat="48.81124" lon="5.18507">
        <ele>258</ele>
        <time>2023-01-30T14:57:30.000Z</time>
      </trkpt>
      <trkpt lat="48.81123" lon="5.18507">
        <ele>258</ele>
        <time>2023-01-30T14:57:31.000Z</time>
      </trkpt>
      <trkpt lat="48.81122" lon="5.18507">
        <ele>258</ele>
        <time>2023-01-30T14:57:32.000Z</time>
      </trkpt>
      <trkpt lat="48.8112" lon="5.18507">
        <ele>258</ele>
        <time>2023-01-30T14:57:33.000Z</time>
      </trkpt>
      <trkpt lat="48.81119" lon="5.18507">
        <ele>258</ele>
        <time>2023-01-30T14:57:34.000Z</time>
      </trkpt>
      <trkpt lat="48.81118" lon="5.18507">
        <ele>258</ele>
        <time>2023-01-30T14:57:35.000Z</time>
      </trkpt>
      <trkpt lat="48.81117" lon="5.18508">
        <ele>258</ele>
        <time>2023-01-30T14:57:36.000Z</time>
      </trkpt>
      <trkpt lat="48.81115" lon="5.18508">
        <ele>258</ele>
        <time>2023-01-30T14:57:37.000Z</time>
      </trkpt>
      <trkpt lat="48.81114" lon="5.18509">
        <ele>258.5</ele>
        <time>2023-01-30T14:57:38.000Z</time>
      </trkpt>
      <trkpt lat="48.81112" lon="5.1851">
        <ele>259</ele>
        <time>2023-01-30T14:57:39.000Z</time>
      </trkpt>
      <trkpt lat="48.81111" lon="5.18511">
        <ele>259</ele>
        <time>2023-01-30T14:57:40.000Z</time>
      </trkpt>
      <trkpt lat="48.81109" lon="5.18512">
        <ele>259</ele>
        <time>2023-01-30T14:57:41.000Z</time>
      </trkpt>
      <trkpt lat="48.81108" lon="5.18513">
        <ele>259</ele>
        <time>2023-01-30T14:57:42.000Z</time>
      </trkpt>
      <trkpt lat="48.81106" lon="5.18513">
        <ele>259</ele>
        <time>2023-01-30T14:57:43.000Z</time>
      </trkpt>
      <trkpt lat="48.81104" lon="5.18514">
        <ele>259</ele>
        <time>2023-01-30T14:57:44.000Z</time>
      </trkpt>
      <trkpt lat="48.81102" lon="5.18514">
        <ele>259</ele>
        <time>2023-01-30T14:57:45.000Z</time>
      </trkpt>
      <trkpt lat="48.81101" lon="5.18515">
        <ele>259</ele>
        <time>2023-01-30T14:57:46.000Z</time>
      </trkpt>
      <trkpt lat="48.811" lon="5.18515">
        <ele>259</ele>
        <time>2023-01-30T14:57:47.000Z</time>
      </trkpt>
      <trkpt lat="48.81098" lon="5.18516">
        <ele>259</ele>
        <time>2023-01-30T14:57:48.000Z</time>
      </trkpt>
      <trkpt lat="48.81096" lon="5.18516">
        <ele>259</ele>
        <time>2023-01-30T14:57:49.000Z</time>
      </trkpt>
      <trkpt lat="48.81095" lon="5.18516">
        <ele>259</ele>
        <time>2023-01-30T14:57:50.000Z</time>
      </trkpt>
      <trkpt lat="48.81093" lon="5.18516">
        <ele>259</ele>
        <time>2023-01-30T14:57:51.000Z</time>
      </trkpt>
      <trkpt lat="48.81092" lon="5.18516">
        <ele>259</ele>
        <time>2023-01-30T14:57:52.000Z</time>
      </trkpt>
      <trkpt lat="48.8109" lon="5.18516">
        <ele>259</ele>
        <time>2023-01-30T14:57:53.000Z</time>
      </trkpt>
      <trkpt lat="48.81089" lon="5.18517">
        <ele>260</ele>
        <time>2023-01-30T14:57:54.000Z</time>
      </trkpt>
      <trkpt lat="48.81088" lon="5.18517">
        <ele>260</ele>
        <time>2023-01-30T14:57:55.000Z</time>
      </trkpt>
      <trkpt lat="48.81087" lon="5.18517">
        <ele>260</ele>
        <time>2023-01-30T14:57:56.000Z</time>
      </trkpt>
      <trkpt lat="48.81086" lon="5.18517">
        <ele>260</ele>
        <time>2023-01-30T14:57:57.000Z</time>
      </trkpt>
      <trkpt lat="48.81085" lon="5.18518">
        <ele>260</ele>
        <time>2023-01-30T14:57:58.000Z</time>
      </trkpt>
      <trkpt lat="48.81084" lon="5.18518">
        <ele>260</ele>
        <time>2023-01-30T14:57:59.000Z</time>
      </trkpt>
      <trkpt lat="48.81082" lon="5.18519">
        <ele>260</ele>
        <time>2023-01-30T14:58:00.000Z</time>
      </trkpt>
      <trkpt lat="48.81081" lon="5.18519">
        <ele>260</ele>
        <time>2023-01-30T14:58:01.000Z</time>
      </trkpt>
      <trkpt lat="48.81079" lon="5.18519">
        <ele>260</ele>
        <time>2023-01-30T14:58:02.000Z</time>
      </trkpt>
      <trkpt lat="48.81078" lon="5.18519">
        <ele>260</ele>
        <time>2023-01-30T14:58:03.000Z</time>
      </trkpt>
      <trkpt lat="48.81076" lon="5.1852">
        <ele>260</ele>
        <time>2023-01-30T14:58:04.000Z</time>
      </trkpt>
      <trkpt lat="48.81074" lon="5.1852">
        <ele>260.3</ele>
        <time>2023-01-30T14:58:05.000Z</time>
      </trkpt>
      <trkpt lat="48.81072" lon="5.1852">
        <ele>260.7</ele>
        <time>2023-01-30T14:58:06.000Z</time>
      </trkpt>
      <trkpt lat="48.81071" lon="5.1852">
        <ele>261</ele>
        <time>2023-01-30T14:58:07.000Z</time>
      </trkpt>
      <trkpt lat="48.81069" lon="5.1852">
        <ele>261</ele>
        <time>2023-01-30T14:58:08.000Z</time>
      </trkpt>
      <trkpt lat="48.81067" lon="5.18519">
        <ele>261</ele>
        <time>2023-01-30T14:58:09.000Z</time>
      </trkpt>
      <trkpt lat="48.81066" lon="5.18519">
        <ele>261</ele>
        <time>2023-01-30T14:58:10.000Z</time>
      </trkpt>
      <trkpt lat="48.81064" lon="5.18519">
        <ele>261</ele>
        <time>2023-01-30T14:58:11.000Z</time>
      </trkpt>
      <trkpt lat="48.81063" lon="5.18519">
        <ele>261</ele>
        <time>2023-01-30T14:58:12.000Z</time>
      </trkpt>
      <trkpt lat="48.81061" lon="5.18519">
        <ele>261</ele>
        <time>2023-01-30T14:58:13.000Z</time>
      </trkpt>
      <trkpt lat="48.81059" lon="5.18519">
        <ele>261</ele>
        <time>2023-01-30T14:58:14.000Z</time>
      </trkpt>
      <trkpt lat="48.81058" lon="5.18519">
        <ele>261</ele>
        <time>2023-01-30T14:58:15.000Z</time>
      </trkpt>
      <trkpt lat="48.81056" lon="5.18519">
        <ele>261</ele>
        <time>2023-01-30T14:58:16.000Z</time>
      </trkpt>
      <trkpt lat="48.81055" lon="5.18518">
        <ele>261</ele>
        <time>2023-01-30T14:58:17.000Z</time>
      </trkpt>
      <trkpt lat="48.81054" lon="5.18517">
        <ele>261</ele>
        <time>2023-01-30T14:58:18.000Z</time>
      </trkpt>
      <trkpt lat="48.81052" lon="5.18516">
        <ele>261</ele>
        <time>2023-01-30T14:58:19.000Z</time>
      </trkpt>
      <trkpt lat="48.8105" lon="5.18516">
        <ele>261</ele>
        <time>2023-01-30T14:58:20.000Z</time>
      </trkpt>
      <trkpt lat="48.81048" lon="5.18516">
        <ele>261</ele>
        <time>2023-01-30T14:58:21.000Z</time>
      </trkpt>
      <trkpt lat="48.81047" lon="5.18515">
        <ele>261</ele>
        <time>2023-01-30T14:58:22.000Z</time>
      </trkpt>
      <trkpt lat="48.81045" lon="5.18514">
        <ele>261</ele>
        <time>2023-01-30T14:58:23.000Z</time>
      </trkpt>
      <trkpt lat="48.81043" lon="5.18513">
        <ele>261</ele>
        <time>2023-01-30T14:58:24.000Z</time>
      </trkpt>
      <trkpt lat="48.81042" lon="5.18513">
        <ele>261</ele>
        <time>2023-01-30T14:58:25.000Z</time>
      </trkpt>
      <trkpt lat="48.81041" lon="5.18512">
        <ele>261.5</ele>
        <time>2023-01-30T14:58:26.000Z</time>
      </trkpt>
      <trkpt lat="48.8104" lon="5.18512">
        <ele>262</ele>
        <time>2023-01-30T14:58:27.000Z</time>
      </trkpt>
      <trkpt lat="48.81039" lon="5.18512">
        <ele>262</ele>
        <time>2023-01-30T14:58:28.000Z</time>
      </trkpt>
      <trkpt lat="48.81038" lon="5.18512">
        <ele>262</ele>
        <time>2023-01-30T14:58:29.000Z</time>
      </trkpt>
      <trkpt lat="48.81037" lon="5.18511">
        <ele>262</ele>
        <time>2023-01-30T14:58:30.000Z</time>
      </trkpt>
      <trkpt lat="48.81036" lon="5.18511">
        <ele>262</ele>
        <time>2023-01-30T14:58:31.000Z</time>
      </trkpt>
      <trkpt lat="48.81035" lon="5.1851">
        <ele>263</ele>
        <time>2023-01-30T14:58:32.000Z</time>
      </trkpt>
      <trkpt lat="48.81033" lon="5.18509">
        <ele>263</ele>
        <time>2023-01-30T14:58:33.000Z</time>
      </trkpt>
      <trkpt lat="48.81032" lon="5.18509">
        <ele>263</ele>
        <time>2023-01-30T14:58:34.000Z</time>
      </trkpt>
      <trkpt lat="48.8103" lon="5.18509">
        <ele>263</ele>
        <time>2023-01-30T14:58:35.000Z</time>
      </trkpt>
      <trkpt lat="48.81029" lon="5.18509">
        <ele>263</ele>
        <time>2023-01-30T14:58:36.000Z</time>
      </trkpt>
      <trkpt lat="48.81028" lon="5.18509">
        <ele>263</ele>
        <time>2023-01-30T14:58:37.000Z</time>
      </trkpt>
      <trkpt lat="48.81027" lon="5.18509">
        <ele>263</ele>
        <time>2023-01-30T14:58:38.000Z</time>
      </trkpt>
      <trkpt lat="48.81026" lon="5.18509">
        <ele>263</ele>
        <time>2023-01-30T14:58:39.000Z</time>
      </trkpt>
      <trkpt lat="48.81025" lon="5.18509">
        <ele>263.5</ele>
        <time>2023-01-30T14:58:40.000Z</time>
      </trkpt>
      <trkpt lat="48.81024" lon="5.18508">
        <ele>264</ele>
        <time>2023-01-30T14:58:41.000Z</time>
      </trkpt>
      <trkpt lat="48.81023" lon="5.18508">
        <ele>264</ele>
        <time>2023-01-30T14:58:42.000Z</time>
      </trkpt>
      <trkpt lat="48.81022" lon="5.18508">
        <ele>264</ele>
        <time>2023-01-30T14:58:43.000Z</time>
      </trkpt>
      <trkpt lat="48.81021" lon="5.18508">
        <ele>264</ele>
        <time>2023-01-30T14:58:44.000Z</time>
      </trkpt>
      <trkpt lat="48.8102" lon="5.18507">
        <ele>264</ele>
        <time>2023-01-30T14:58:45.000Z</time>
      </trkpt>
      <trkpt lat="48.81019" lon="5.18507">
        <ele>265</ele>
        <time>2023-01-30T14:58:46.000Z</time>
      </trkpt>
      <trkpt lat="48.81018" lon="5.18506">
        <ele>265</ele>
        <time>2023-01-30T14:58:47.000Z</time>
      </trkpt>
      <trkpt lat="48.81017" lon="5.18506">
        <ele>265</ele>
        <time>2023-01-30T14:58:48.000Z</time>
      </trkpt>
      <trkpt lat="48.81016" lon="5.18505">
        <ele>265</ele>
        <time>2023-01-30T14:58:49.000Z</time>
      </trkpt>
      <trkpt lat="48.81015" lon="5.18504">
        <ele>265</ele>
        <time>2023-01-30T14:58:50.000Z</time>
      </trkpt>
      <trkpt lat="48.81014" lon="5.18504">
        <ele>265</ele>
        <time>2023-01-30T14:58:51.000Z</time>
      </trkpt>
      <trkpt lat="48.81013" lon="5.18503">
        <ele>265</ele>
        <time>2023-01-30T14:58:52.000Z</time>
      </trkpt>
      <trkpt lat="48.81012" lon="5.18503">
        <ele>265</ele>
        <time>2023-01-30T14:58:53.000Z</time>
      </trkpt>
      <trkpt lat="48.81011" lon="5.18502">
        <ele>265</ele>
        <time>2023-01-30T14:58:54.000Z</time>
      </trkpt>
      <trkpt lat="48.8101" lon="5.18501">
        <ele>265</ele>
        <time>2023-01-30T14:58:55.000Z</time>
      </trkpt>
      <trkpt lat="48.81008" lon="5.18501">
        <ele>265</ele>
        <time>2023-01-30T14:58:56.000Z</time>
      </trkpt>
      <trkpt lat="48.81007" lon="5.185">
        <ele>265</ele>
        <time>2023-01-30T14:58:57.000Z</time>
      </trkpt>
      <trkpt lat="48.81005" lon="5.185">
        <ele>265.5</ele>
        <time>2023-01-30T14:58:58.000Z</time>
      </trkpt>
      <trkpt lat="48.81004" lon="5.18499">
        <ele>266</ele>
        <time>2023-01-30T14:58:59.000Z</time>
      </trkpt>
      <trkpt lat="48.81002" lon="5.18499">
        <ele>266</ele>
        <time>2023-01-30T14:59:00.000Z</time>
      </trkpt>
      <trkpt lat="48.81001" lon="5.18498">
        <ele>266</ele>
        <time>2023-01-30T14:59:01.000Z</time>
      </trkpt>
      <trkpt lat="48.80999" lon="5.18497">
        <ele>266</ele>
        <time>2023-01-30T14:59:02.000Z</time>
      </trkpt>
      <trkpt lat="48.80998" lon="5.18497">
        <ele>266</ele>
        <time>2023-01-30T14:59:03.000Z</time>
      </trkpt>
      <trkpt lat="48.80996" lon="5.18496">
        <ele>266</ele>
        <time>2023-01-30T14:59:04.000Z</time>
      </trkpt>
      <trkpt lat="48.80995" lon="5.18495">
        <ele>266.3</ele>
        <time>2023-01-30T14:59:05.000Z</time>
      </trkpt>
      <trkpt lat="48.80993" lon="5.18495">
        <ele>266.7</ele>
        <time>2023-01-30T14:59:06.000Z</time>
      </trkpt>
      <trkpt lat="48.80992" lon="5.18494">
        <ele>267</ele>
        <time>2023-01-30T14:59:07.000Z</time>
      </trkpt>
      <trkpt lat="48.80991" lon="5.18493">
        <ele>267</ele>
        <time>2023-01-30T14:59:08.000Z</time>
      </trkpt>
      <trkpt lat="48.8099" lon="5.18493">
        <ele>267</ele>
        <time>2023-01-30T14:59:09.000Z</time>
      </trkpt>
      <trkpt lat="48.80989" lon="5.18492">
        <ele>267</ele>
        <time>2023-01-30T14:59:10.000Z</time>
      </trkpt>
      <trkpt lat="48.80988" lon="5.18492">
        <ele>267</ele>
        <time>2023-01-30T14:59:11.000Z</time>
      </trkpt>
      <trkpt lat="48.80987" lon="5.18492">
        <ele>267</ele>
        <time>2023-01-30T14:59:12.000Z</time>
      </trkpt>
      <trkpt lat="48.80986" lon="5.18491">
        <ele>267</ele>
        <time>2023-01-30T14:59:13.000Z</time>
      </trkpt>
      <trkpt lat="48.80985" lon="5.18491">
        <ele>267</ele>
        <time>2023-01-30T14:59:14.000Z</time>
      </trkpt>
      <trkpt lat="48.80984" lon="5.1849">
        <ele>267</ele>
        <time>2023-01-30T14:59:15.000Z</time>
      </trkpt>
      <trkpt lat="48.80983" lon="5.1849">
        <ele>267</ele>
        <time>2023-01-30T14:59:16.000Z</time>
      </trkpt>
      <trkpt lat="48.80982" lon="5.18489">
        <ele>267</ele>
        <time>2023-01-30T14:59:17.000Z</time>
      </trkpt>
      <trkpt lat="48.8098" lon="5.18489">
        <ele>267.5</ele>
        <time>2023-01-30T14:59:18.000Z</time>
      </trkpt>
      <trkpt lat="48.80979" lon="5.18488">
        <ele>268</ele>
        <time>2023-01-30T14:59:19.000Z</time>
      </trkpt>
      <trkpt lat="48.80977" lon="5.18487">
        <ele>268</ele>
        <time>2023-01-30T14:59:20.000Z</time>
      </trkpt>
      <trkpt lat="48.80976" lon="5.18486">
        <ele>268</ele>
        <time>2023-01-30T14:59:21.000Z</time>
      </trkpt>
      <trkpt lat="48.80974" lon="5.18485">
        <ele>268</ele>
        <time>2023-01-30T14:59:22.000Z</time>
      </trkpt>
      <trkpt lat="48.80973" lon="5.18484">
        <ele>268</ele>
        <time>2023-01-30T14:59:23.000Z</time>
      </trkpt>
      <trkpt lat="48.80971" lon="5.18484">
        <ele>268</ele>
        <time>2023-01-30T14:59:24.000Z</time>
      </trkpt>
      <trkpt lat="48.8097" lon="5.18483">
        <ele>268</ele>
        <time>2023-01-30T14:59:25.000Z</time>
      </trkpt>
      <trkpt lat="48.80968" lon="5.18483">
        <ele>268</ele>
        <time>2023-01-30T14:59:26.000Z</time>
      </trkpt>
      <trkpt lat="48.80967" lon="5.18482">
        <ele>268</ele>
        <time>2023-01-30T14:59:27.000Z</time>
      </trkpt>
      <trkpt lat="48.80966" lon="5.18482">
        <ele>269</ele>
        <time>2023-01-30T14:59:28.000Z</time>
      </trkpt>
      <trkpt lat="48.80964" lon="5.18482">
        <ele>269</ele>
        <time>2023-01-30T14:59:29.000Z</time>
      </trkpt>
      <trkpt lat="48.80963" lon="5.18483">
        <ele>269</ele>
        <time>2023-01-30T14:59:30.000Z</time>
      </trkpt>
      <trkpt lat="48.80962" lon="5.18483">
        <ele>269</ele>
        <time>2023-01-30T14:59:31.000Z</time>
      </trkpt>
      <trkpt lat="48.8096" lon="5.18483">
        <ele>269</ele>
        <time>2023-01-30T14:59:32.000Z</time>
      </trkpt>
      <trkpt lat="48.80958" lon="5.18483">
        <ele>269</ele>
        <time>2023-01-30T14:59:33.000Z</time>
      </trkpt>
      <trkpt lat="48.80957" lon="5.18483">
        <ele>269</ele>
        <time>2023-01-30T14:59:34.000Z</time>
      </trkpt>
      <trkpt lat="48.80955" lon="5.18483">
        <ele>269</ele>
        <time>2023-01-30T14:59:35.000Z</time>
      </trkpt>
      <trkpt lat="48.80954" lon="5.18482">
        <ele>269</ele>
        <time>2023-01-30T14:59:36.000Z</time>
      </trkpt>
      <trkpt lat="48.80953" lon="5.18482">
        <ele>269</ele>
        <time>2023-01-30T14:59:37.000Z</time>
      </trkpt>
      <trkpt lat="48.80952" lon="5.18481">
        <ele>269</ele>
        <time>2023-01-30T14:59:38.000Z</time>
      </trkpt>
      <trkpt lat="48.80951" lon="5.18481">
        <ele>269</ele>
        <time>2023-01-30T14:59:39.000Z</time>
      </trkpt>
      <trkpt lat="48.8095" lon="5.1848">
        <ele>269.5</ele>
        <time>2023-01-30T14:59:40.000Z</time>
      </trkpt>
      <trkpt lat="48.80949" lon="5.18479">
        <ele>270</ele>
        <time>2023-01-30T14:59:41.000Z</time>
      </trkpt>
      <trkpt lat="48.80948" lon="5.18478">
        <ele>270</ele>
        <time>2023-01-30T14:59:42.000Z</time>
      </trkpt>
      <trkpt lat="48.80947" lon="5.18478">
        <ele>270</ele>
        <time>2023-01-30T14:59:43.000Z</time>
      </trkpt>
      <trkpt lat="48.80946" lon="5.18477">
        <ele>270</ele>
        <time>2023-01-30T14:59:44.000Z</time>
      </trkpt>
      <trkpt lat="48.80945" lon="5.18476">
        <ele>270</ele>
        <time>2023-01-30T14:59:45.000Z</time>
      </trkpt>
      <trkpt lat="48.80944" lon="5.18475">
        <ele>270</ele>
        <time>2023-01-30T14:59:46.000Z</time>
      </trkpt>
      <trkpt lat="48.80942" lon="5.18474">
        <ele>270</ele>
        <time>2023-01-30T14:59:47.000Z</time>
      </trkpt>
      <trkpt lat="48.80941" lon="5.18473">
        <ele>270.5</ele>
        <time>2023-01-30T14:59:48.000Z</time>
      </trkpt>
      <trkpt lat="48.8094" lon="5.18472">
        <ele>271</ele>
        <time>2023-01-30T14:59:49.000Z</time>
      </trkpt>
      <trkpt lat="48.80938" lon="5.18472">
        <ele>271</ele>
        <time>2023-01-30T14:59:50.000Z</time>
      </trkpt>
      <trkpt lat="48.80937" lon="5.18471">
        <ele>271</ele>
        <time>2023-01-30T14:59:51.000Z</time>
      </trkpt>
      <trkpt lat="48.80935" lon="5.1847">
        <ele>271</ele>
        <time>2023-01-30T14:59:52.000Z</time>
      </trkpt>
      <trkpt lat="48.80934" lon="5.18469">
        <ele>271</ele>
        <time>2023-01-30T14:59:53.000Z</time>
      </trkpt>
      <trkpt lat="48.80933" lon="5.18469">
        <ele>271</ele>
        <time>2023-01-30T14:59:54.000Z</time>
      </trkpt>
      <trkpt lat="48.80932" lon="5.18468">
        <ele>271</ele>
        <time>2023-01-30T14:59:55.000Z</time>
      </trkpt>
      <trkpt lat="48.80931" lon="5.18468">
        <ele>271</ele>
        <time>2023-01-30T14:59:56.000Z</time>
      </trkpt>
      <trkpt lat="48.8093" lon="5.18468">
        <ele>271</ele>
        <time>2023-01-30T14:59:57.000Z</time>
      </trkpt>
      <trkpt lat="48.80929" lon="5.18467">
        <ele>271</ele>
        <time>2023-01-30T14:59:58.000Z</time>
      </trkpt>
      <trkpt lat="48.80927" lon="5.18467">
        <ele>271</ele>
        <time>2023-01-30T14:59:59.000Z</time>
      </trkpt>
      <trkpt lat="48.80926" lon="5.18467">
        <ele>271</ele>
        <time>2023-01-30T15:00:00.000Z</time>
      </trkpt>
      <trkpt lat="48.80925" lon="5.18466">
        <ele>271</ele>
        <time>2023-01-30T15:00:01.000Z</time>
      </trkpt>
      <trkpt lat="48.80923" lon="5.18466">
        <ele>271</ele>
        <time>2023-01-30T15:00:02.000Z</time>
      </trkpt>
      <trkpt lat="48.80922" lon="5.18465">
        <ele>271</ele>
        <time>2023-01-30T15:00:03.000Z</time>
      </trkpt>
      <trkpt lat="48.80921" lon="5.18464">
        <ele>271</ele>
        <time>2023-01-30T15:00:04.000Z</time>
      </trkpt>
      <trkpt lat="48.8092" lon="5.18464">
        <ele>271</ele>
        <time>2023-01-30T15:00:05.000Z</time>
      </trkpt>
      <trkpt lat="48.80918" lon="5.18463">
        <ele>271.5</ele>
        <time>2023-01-30T15:00:06.000Z</time>
      </trkpt>
      <trkpt lat="48.80917" lon="5.18462">
        <ele>272</ele>
        <time>2023-01-30T15:00:07.000Z</time>
      </trkpt>
      <trkpt lat="48.80916" lon="5.18461">
        <ele>272</ele>
        <time>2023-01-30T15:00:08.000Z</time>
      </trkpt>
      <trkpt lat="48.80915" lon="5.1846">
        <ele>272</ele>
        <time>2023-01-30T15:00:09.000Z</time>
      </trkpt>
      <trkpt lat="48.80914" lon="5.18459">
        <ele>272</ele>
        <time>2023-01-30T15:00:10.000Z</time>
      </trkpt>
      <trkpt lat="48.80913" lon="5.18458">
        <ele>272</ele>
        <time>2023-01-30T15:00:11.000Z</time>
      </trkpt>
      <trkpt lat="48.80912" lon="5.18456">
        <ele>272</ele>
        <time>2023-01-30T15:00:12.000Z</time>
      </trkpt>
      <trkpt lat="48.80911" lon="5.18455">
        <ele>272</ele>
        <time>2023-01-30T15:00:13.000Z</time>
      </trkpt>
      <trkpt lat="48.8091" lon="5.18454">
        <ele>272</ele>
        <time>2023-01-30T15:00:14.000Z</time>
      </trkpt>
      <trkpt lat="48.80908" lon="5.18453">
        <ele>272</ele>
        <time>2023-01-30T15:00:15.000Z</time>
      </trkpt>
      <trkpt lat="48.80907" lon="5.18452">
        <ele>272</ele>
        <time>2023-01-30T15:00:16.000Z</time>
      </trkpt>
      <trkpt lat="48.80905" lon="5.18451">
        <ele>272</ele>
        <time>2023-01-30T15:00:17.000Z</time>
      </trkpt>
      <trkpt lat="48.80904" lon="5.18449">
        <ele>272</ele>
        <time>2023-01-30T15:00:18.000Z</time>
      </trkpt>
      <trkpt lat="48.80902" lon="5.18448">
        <ele>272</ele>
        <time>2023-01-30T15:00:19.000Z</time>
      </trkpt>
      <trkpt lat="48.80901" lon="5.18447">
        <ele>272</ele>
        <time>2023-01-30T15:00:20.000Z</time>
      </trkpt>
      <trkpt lat="48.809" lon="5.18447">
        <ele>272</ele>
        <time>2023-01-30T15:00:21.000Z</time>
      </trkpt>
      <trkpt lat="48.80898" lon="5.18446">
        <ele>272</ele>
        <time>2023-01-30T15:00:22.000Z</time>
      </trkpt>
      <trkpt lat="48.80897" lon="5.18445">
        <ele>272</ele>
        <time>2023-01-30T15:00:23.000Z</time>
      </trkpt>
      <trkpt lat="48.80895" lon="5.18444">
        <ele>273</ele>
        <time>2023-01-30T15:00:24.000Z</time>
      </trkpt>
      <trkpt lat="48.80894" lon="5.18443">
        <ele>273</ele>
        <time>2023-01-30T15:00:25.000Z</time>
      </trkpt>
      <trkpt lat="48.80893" lon="5.18443">
        <ele>273</ele>
        <time>2023-01-30T15:00:26.000Z</time>
      </trkpt>
      <trkpt lat="48.80892" lon="5.18442">
        <ele>273</ele>
        <time>2023-01-30T15:00:27.000Z</time>
      </trkpt>
      <trkpt lat="48.8089" lon="5.18442">
        <ele>273</ele>
        <time>2023-01-30T15:00:28.000Z</time>
      </trkpt>
      <trkpt lat="48.80888" lon="5.18441">
        <ele>273</ele>
        <time>2023-01-30T15:00:29.000Z</time>
      </trkpt>
      <trkpt lat="48.80887" lon="5.1844">
        <ele>273</ele>
        <time>2023-01-30T15:00:30.000Z</time>
      </trkpt>
      <trkpt lat="48.80886" lon="5.1844">
        <ele>273</ele>
        <time>2023-01-30T15:00:31.000Z</time>
      </trkpt>
      <trkpt lat="48.80884" lon="5.18439">
        <ele>273</ele>
        <time>2023-01-30T15:00:32.000Z</time>
      </trkpt>
      <trkpt lat="48.80883" lon="5.18439">
        <ele>273</ele>
        <time>2023-01-30T15:00:33.000Z</time>
      </trkpt>
      <trkpt lat="48.80882" lon="5.18438">
        <ele>273</ele>
        <time>2023-01-30T15:00:34.000Z</time>
      </trkpt>
      <trkpt lat="48.80881" lon="5.18437">
        <ele>273</ele>
        <time>2023-01-30T15:00:35.000Z</time>
      </trkpt>
      <trkpt lat="48.80879" lon="5.18436">
        <ele>273</ele>
        <time>2023-01-30T15:00:36.000Z</time>
      </trkpt>
      <trkpt lat="48.80878" lon="5.18435">
        <ele>273</ele>
        <time>2023-01-30T15:00:37.000Z</time>
      </trkpt>
      <trkpt lat="48.80876" lon="5.18434">
        <ele>273</ele>
        <time>2023-01-30T15:00:38.000Z</time>
      </trkpt>
      <trkpt lat="48.80875" lon="5.18433">
        <ele>273</ele>
        <time>2023-01-30T15:00:39.000Z</time>
      </trkpt>
      <trkpt lat="48.80874" lon="5.18432">
        <ele>273</ele>
        <time>2023-01-30T15:00:40.000Z</time>
      </trkpt>
      <trkpt lat="48.80873" lon="5.18431">
        <ele>273</ele>
        <time>2023-01-30T15:00:41.000Z</time>
      </trkpt>
      <trkpt lat="48.80872" lon="5.18431">
        <ele>274</ele>
        <time>2023-01-30T15:00:42.000Z</time>
      </trkpt>
      <trkpt lat="48.80871" lon="5.1843">
        <ele>274</ele>
        <time>2023-01-30T15:00:43.000Z</time>
      </trkpt>
      <trkpt lat="48.8087" lon="5.18429">
        <ele>274</ele>
        <time>2023-01-30T15:00:44.000Z</time>
      </trkpt>
      <trkpt lat="48.80869" lon="5.18428">
        <ele>274</ele>
        <time>2023-01-30T15:00:45.000Z</time>
      </trkpt>
      <trkpt lat="48.80868" lon="5.18428">
        <ele>274</ele>
        <time>2023-01-30T15:00:46.000Z</time>
      </trkpt>
      <trkpt lat="48.80866" lon="5.18427">
        <ele>274</ele>
        <time>2023-01-30T15:00:47.000Z</time>
      </trkpt>
      <trkpt lat="48.80865" lon="5.18426">
        <ele>274</ele>
        <time>2023-01-30T15:00:48.000Z</time>
      </trkpt>
      <trkpt lat="48.80863" lon="5.18426">
        <ele>274</ele>
        <time>2023-01-30T15:00:49.000Z</time>
      </trkpt>
      <trkpt lat="48.80861" lon="5.18425">
        <ele>274</ele>
        <time>2023-01-30T15:00:50.000Z</time>
      </trkpt>
      <trkpt lat="48.8086" lon="5.18424">
        <ele>274</ele>
        <time>2023-01-30T15:00:51.000Z</time>
      </trkpt>
      <trkpt lat="48.80859" lon="5.18423">
        <ele>274</ele>
        <time>2023-01-30T15:00:52.000Z</time>
      </trkpt>
      <trkpt lat="48.80858" lon="5.18423">
        <ele>274</ele>
        <time>2023-01-30T15:00:53.000Z</time>
      </trkpt>
      <trkpt lat="48.80856" lon="5.18423">
        <ele>274</ele>
        <time>2023-01-30T15:00:54.000Z</time>
      </trkpt>
      <trkpt lat="48.80855" lon="5.18423">
        <ele>274.3</ele>
        <time>2023-01-30T15:00:55.000Z</time>
      </trkpt>
      <trkpt lat="48.80854" lon="5.18423">
        <ele>274.7</ele>
        <time>2023-01-30T15:00:56.000Z</time>
      </trkpt>
      <trkpt lat="48.80853" lon="5.18423">
        <ele>275</ele>
        <time>2023-01-30T15:00:57.000Z</time>
      </trkpt>
      <trkpt lat="48.80852" lon="5.18423">
        <ele>275</ele>
        <time>2023-01-30T15:00:58.000Z</time>
      </trkpt>
      <trkpt lat="48.80851" lon="5.18422">
        <ele>275</ele>
        <time>2023-01-30T15:00:59.000Z</time>
      </trkpt>
      <trkpt lat="48.8085" lon="5.18422">
        <ele>275</ele>
        <time>2023-01-30T15:01:00.000Z</time>
      </trkpt>
      <trkpt lat="48.80849" lon="5.18422">
        <ele>275</ele>
        <time>2023-01-30T15:01:01.000Z</time>
      </trkpt>
      <trkpt lat="48.80848" lon="5.18422">
        <ele>275</ele>
        <time>2023-01-30T15:01:02.000Z</time>
      </trkpt>
      <trkpt lat="48.80847" lon="5.18421">
        <ele>275</ele>
        <time>2023-01-30T15:01:03.000Z</time>
      </trkpt>
      <trkpt lat="48.80846" lon="5.18421">
        <ele>275</ele>
        <time>2023-01-30T15:01:04.000Z</time>
      </trkpt>
      <trkpt lat="48.80844" lon="5.18421">
        <ele>275</ele>
        <time>2023-01-30T15:01:05.000Z</time>
      </trkpt>
      <trkpt lat="48.80843" lon="5.18421">
        <ele>275</ele>
        <time>2023-01-30T15:01:06.000Z</time>
      </trkpt>
      <trkpt lat="48.80842" lon="5.18421">
        <ele>275.3</ele>
        <time>2023-01-30T15:01:07.000Z</time>
      </trkpt>
      <trkpt lat="48.80841" lon="5.18421">
        <ele>275.7</ele>
        <time>2023-01-30T15:01:08.000Z</time>
      </trkpt>
      <trkpt lat="48.8084" lon="5.18422">
        <ele>276</ele>
        <time>2023-01-30T15:01:09.000Z</time>
      </trkpt>
      <trkpt lat="48.80838" lon="5.18422">
        <ele>276</ele>
        <time>2023-01-30T15:01:10.000Z</time>
      </trkpt>
      <trkpt lat="48.80837" lon="5.18422">
        <ele>276</ele>
        <time>2023-01-30T15:01:11.000Z</time>
      </trkpt>
      <trkpt lat="48.80836" lon="5.18422">
        <ele>276</ele>
        <time>2023-01-30T15:01:12.000Z</time>
      </trkpt>
      <trkpt lat="48.80834" lon="5.18422">
        <ele>276</ele>
        <time>2023-01-30T15:01:13.000Z</time>
      </trkpt>
      <trkpt lat="48.80832" lon="5.18422">
        <ele>276</ele>
        <time>2023-01-30T15:01:14.000Z</time>
      </trkpt>
      <trkpt lat="48.8083" lon="5.18421">
        <ele>276</ele>
        <time>2023-01-30T15:01:15.000Z</time>
      </trkpt>
      <trkpt lat="48.80828" lon="5.1842">
        <ele>276</ele>
        <time>2023-01-30T15:01:16.000Z</time>
      </trkpt>
      <trkpt lat="48.80827" lon="5.18419">
        <ele>276</ele>
        <time>2023-01-30T15:01:17.000Z</time>
      </trkpt>
      <trkpt lat="48.80825" lon="5.18419">
        <ele>276</ele>
        <time>2023-01-30T15:01:18.000Z</time>
      </trkpt>
      <trkpt lat="48.80824" lon="5.18418">
        <ele>276</ele>
        <time>2023-01-30T15:01:19.000Z</time>
      </trkpt>
      <trkpt lat="48.80823" lon="5.18417">
        <ele>276</ele>
        <time>2023-01-30T15:01:20.000Z</time>
      </trkpt>
      <trkpt lat="48.80821" lon="5.18416">
        <ele>276</ele>
        <time>2023-01-30T15:01:21.000Z</time>
      </trkpt>
      <trkpt lat="48.80818" lon="5.18416">
        <ele>276</ele>
        <time>2023-01-30T15:01:22.000Z</time>
      </trkpt>
      <trkpt lat="48.80816" lon="5.18415">
        <ele>276</ele>
        <time>2023-01-30T15:01:23.000Z</time>
      </trkpt>
      <trkpt lat="48.80814" lon="5.18415">
        <ele>276</ele>
        <time>2023-01-30T15:01:24.000Z</time>
      </trkpt>
      <trkpt lat="48.80813" lon="5.18414">
        <ele>276</ele>
        <time>2023-01-30T15:01:25.000Z</time>
      </trkpt>
      <trkpt lat="48.80811" lon="5.18414">
        <ele>276</ele>
        <time>2023-01-30T15:01:26.000Z</time>
      </trkpt>
      <trkpt lat="48.8081" lon="5.18413">
        <ele>276</ele>
        <time>2023-01-30T15:01:27.000Z</time>
      </trkpt>
      <trkpt lat="48.80809" lon="5.18413">
        <ele>276</ele>
        <time>2023-01-30T15:01:28.000Z</time>
      </trkpt>
      <trkpt lat="48.80808" lon="5.18412">
        <ele>276</ele>
        <time>2023-01-30T15:01:29.000Z</time>
      </trkpt>
      <trkpt lat="48.80807" lon="5.18411">
        <ele>276.5</ele>
        <time>2023-01-30T15:01:30.000Z</time>
      </trkpt>
      <trkpt lat="48.80806" lon="5.18411">
        <ele>277</ele>
        <time>2023-01-30T15:01:31.000Z</time>
      </trkpt>
      <trkpt lat="48.80805" lon="5.1841">
        <ele>277</ele>
        <time>2023-01-30T15:01:32.000Z</time>
      </trkpt>
      <trkpt lat="48.80804" lon="5.18409">
        <ele>277</ele>
        <time>2023-01-30T15:01:33.000Z</time>
      </trkpt>
      <trkpt lat="48.80803" lon="5.18409">
        <ele>277</ele>
        <time>2023-01-30T15:01:34.000Z</time>
      </trkpt>
      <trkpt lat="48.80801" lon="5.18408">
        <ele>277</ele>
        <time>2023-01-30T15:01:35.000Z</time>
      </trkpt>
      <trkpt lat="48.808" lon="5.18408">
        <ele>277</ele>
        <time>2023-01-30T15:01:36.000Z</time>
      </trkpt>
      <trkpt lat="48.80799" lon="5.18407">
        <ele>277</ele>
        <time>2023-01-30T15:01:37.000Z</time>
      </trkpt>
      <trkpt lat="48.80798" lon="5.18406">
        <ele>277</ele>
        <time>2023-01-30T15:01:38.000Z</time>
      </trkpt>
      <trkpt lat="48.80796" lon="5.18406">
        <ele>277</ele>
        <time>2023-01-30T15:01:39.000Z</time>
      </trkpt>
      <trkpt lat="48.80795" lon="5.18405">
        <ele>277</ele>
        <time>2023-01-30T15:01:40.000Z</time>
      </trkpt>
      <trkpt lat="48.80793" lon="5.18405">
        <ele>277</ele>
        <time>2023-01-30T15:01:41.000Z</time>
      </trkpt>
      <trkpt lat="48.80792" lon="5.18404">
        <ele>277</ele>
        <time>2023-01-30T15:01:42.000Z</time>
      </trkpt>
      <trkpt lat="48.8079" lon="5.18403">
        <ele>277</ele>
        <time>2023-01-30T15:01:43.000Z</time>
      </trkpt>
      <trkpt lat="48.80789" lon="5.18403">
        <ele>277</ele>
        <time>2023-01-30T15:01:44.000Z</time>
      </trkpt>
      <trkpt lat="48.80787" lon="5.18402">
        <ele>277</ele>
        <time>2023-01-30T15:01:45.000Z</time>
      </trkpt>
      <trkpt lat="48.80786" lon="5.18401">
        <ele>277</ele>
        <time>2023-01-30T15:01:46.000Z</time>
      </trkpt>
      <trkpt lat="48.80785" lon="5.18401">
        <ele>277</ele>
        <time>2023-01-30T15:01:47.000Z</time>
      </trkpt>
      <trkpt lat="48.80783" lon="5.18401">
        <ele>277</ele>
        <time>2023-01-30T15:01:48.000Z</time>
      </trkpt>
      <trkpt lat="48.80782" lon="5.184">
        <ele>277</ele>
        <time>2023-01-30T15:01:49.000Z</time>
      </trkpt>
      <trkpt lat="48.80781" lon="5.184">
        <ele>277.5</ele>
        <time>2023-01-30T15:01:50.000Z</time>
      </trkpt>
      <trkpt lat="48.8078" lon="5.184">
        <ele>278</ele>
        <time>2023-01-30T15:01:51.000Z</time>
      </trkpt>
      <trkpt lat="48.80778" lon="5.18399">
        <ele>278</ele>
        <time>2023-01-30T15:01:52.000Z</time>
      </trkpt>
      <trkpt lat="48.80777" lon="5.18399">
        <ele>278</ele>
        <time>2023-01-30T15:01:53.000Z</time>
      </trkpt>
      <trkpt lat="48.80775" lon="5.18399">
        <ele>278</ele>
        <time>2023-01-30T15:01:54.000Z</time>
      </trkpt>
      <trkpt lat="48.80774" lon="5.18398">
        <ele>278</ele>
        <time>2023-01-30T15:01:55.000Z</time>
      </trkpt>
      <trkpt lat="48.80772" lon="5.18398">
        <ele>278</ele>
        <time>2023-01-30T15:01:56.000Z</time>
      </trkpt>
      <trkpt lat="48.80771" lon="5.18397">
        <ele>278</ele>
        <time>2023-01-30T15:01:57.000Z</time>
      </trkpt>
      <trkpt lat="48.8077" lon="5.18397">
        <ele>278</ele>
        <time>2023-01-30T15:01:58.000Z</time>
      </trkpt>
      <trkpt lat="48.80768" lon="5.18396">
        <ele>278</ele>
        <time>2023-01-30T15:01:59.000Z</time>
      </trkpt>
      <trkpt lat="48.80767" lon="5.18395">
        <ele>278</ele>
        <time>2023-01-30T15:02:00.000Z</time>
      </trkpt>
      <trkpt lat="48.80766" lon="5.18394">
        <ele>278</ele>
        <time>2023-01-30T15:02:01.000Z</time>
      </trkpt>
      <trkpt lat="48.80765" lon="5.18394">
        <ele>278</ele>
        <time>2023-01-30T15:02:02.000Z</time>
      </trkpt>
      <trkpt lat="48.80763" lon="5.18393">
        <ele>278</ele>
        <time>2023-01-30T15:02:03.000Z</time>
      </trkpt>
      <trkpt lat="48.80762" lon="5.18393">
        <ele>278</ele>
        <time>2023-01-30T15:02:04.000Z</time>
      </trkpt>
      <trkpt lat="48.80761" lon="5.18393">
        <ele>278</ele>
        <time>2023-01-30T15:02:05.000Z</time>
      </trkpt>
      <trkpt lat="48.80759" lon="5.18393">
        <ele>278</ele>
        <time>2023-01-30T15:02:06.000Z</time>
      </trkpt>
      <trkpt lat="48.80758" lon="5.18393">
        <ele>278</ele>
        <time>2023-01-30T15:02:07.000Z</time>
      </trkpt>
      <trkpt lat="48.80756" lon="5.18393">
        <ele>278</ele>
        <time>2023-01-30T15:02:08.000Z</time>
      </trkpt>
      <trkpt lat="48.80755" lon="5.18392">
        <ele>278</ele>
        <time>2023-01-30T15:02:09.000Z</time>
      </trkpt>
      <trkpt lat="48.80754" lon="5.18392">
        <ele>278</ele>
        <time>2023-01-30T15:02:10.000Z</time>
      </trkpt>
      <trkpt lat="48.80753" lon="5.18392">
        <ele>278</ele>
        <time>2023-01-30T15:02:11.000Z</time>
      </trkpt>
      <trkpt lat="48.80753" lon="5.18391">
        <ele>278</ele>
        <time>2023-01-30T15:02:12.000Z</time>
      </trkpt>
      <trkpt lat="48.80752" lon="5.18391">
        <ele>278</ele>
        <time>2023-01-30T15:02:13.000Z</time>
      </trkpt>
      <trkpt lat="48.80751" lon="5.1839">
        <ele>278</ele>
        <time>2023-01-30T15:02:14.000Z</time>
      </trkpt>
      <trkpt lat="48.8075" lon="5.1839">
        <ele>278.3</ele>
        <time>2023-01-30T15:02:15.000Z</time>
      </trkpt>
      <trkpt lat="48.80749" lon="5.1839">
        <ele>278.7</ele>
        <time>2023-01-30T15:02:16.000Z</time>
      </trkpt>
      <trkpt lat="48.80748" lon="5.1839">
        <ele>279</ele>
        <time>2023-01-30T15:02:17.000Z</time>
      </trkpt>
      <trkpt lat="48.80746" lon="5.1839">
        <ele>279</ele>
        <time>2023-01-30T15:02:18.000Z</time>
      </trkpt>
      <trkpt lat="48.80745" lon="5.1839">
        <ele>279</ele>
        <time>2023-01-30T15:02:19.000Z</time>
      </trkpt>
      <trkpt lat="48.80744" lon="5.1839">
        <ele>279</ele>
        <time>2023-01-30T15:02:20.000Z</time>
      </trkpt>
      <trkpt lat="48.80743" lon="5.1839">
        <ele>279</ele>
        <time>2023-01-30T15:02:21.000Z</time>
      </trkpt>
      <trkpt lat="48.80742" lon="5.1839">
        <ele>279</ele>
        <time>2023-01-30T15:02:22.000Z</time>
      </trkpt>
      <trkpt lat="48.80741" lon="5.1839">
        <ele>279</ele>
        <time>2023-01-30T15:02:23.000Z</time>
      </trkpt>
      <trkpt lat="48.8074" lon="5.1839">
        <ele>279</ele>
        <time>2023-01-30T15:02:24.000Z</time>
      </trkpt>
      <trkpt lat="48.80738" lon="5.18389">
        <ele>279</ele>
        <time>2023-01-30T15:02:25.000Z</time>
      </trkpt>
      <trkpt lat="48.80736" lon="5.18389">
        <ele>279</ele>
        <time>2023-01-30T15:02:26.000Z</time>
      </trkpt>
      <trkpt lat="48.80735" lon="5.18389">
        <ele>279</ele>
        <time>2023-01-30T15:02:27.000Z</time>
      </trkpt>
      <trkpt lat="48.80734" lon="5.18388">
        <ele>279</ele>
        <time>2023-01-30T15:02:28.000Z</time>
      </trkpt>
      <trkpt lat="48.80733" lon="5.18388">
        <ele>279</ele>
        <time>2023-01-30T15:02:29.000Z</time>
      </trkpt>
      <trkpt lat="48.80731" lon="5.18388">
        <ele>279</ele>
        <time>2023-01-30T15:02:30.000Z</time>
      </trkpt>
      <trkpt lat="48.80729" lon="5.18388">
        <ele>279</ele>
        <time>2023-01-30T15:02:31.000Z</time>
      </trkpt>
      <trkpt lat="48.80728" lon="5.18388">
        <ele>279</ele>
        <time>2023-01-30T15:02:32.000Z</time>
      </trkpt>
      <trkpt lat="48.80727" lon="5.18388">
        <ele>279</ele>
        <time>2023-01-30T15:02:33.000Z</time>
      </trkpt>
      <trkpt lat="48.80726" lon="5.18388">
        <ele>279</ele>
        <time>2023-01-30T15:02:34.000Z</time>
      </trkpt>
      <trkpt lat="48.80725" lon="5.18388">
        <ele>279</ele>
        <time>2023-01-30T15:02:35.000Z</time>
      </trkpt>
      <trkpt lat="48.80725" lon="5.18388">
        <ele>279</ele>
        <time>2023-01-30T15:02:36.000Z</time>
      </trkpt>
      <trkpt lat="48.80724" lon="5.18388">
        <ele>279</ele>
        <time>2023-01-30T15:02:37.000Z</time>
      </trkpt>
      <trkpt lat="48.80724" lon="5.18388">
        <ele>279</ele>
        <time>2023-01-30T15:02:38.000Z</time>
      </trkpt>
      <trkpt lat="48.80723" lon="5.18388">
        <ele>279</ele>
        <time>2023-01-30T15:02:39.000Z</time>
      </trkpt>
      <trkpt lat="48.80722" lon="5.18388">
        <ele>279</ele>
        <time>2023-01-30T15:02:40.000Z</time>
      </trkpt>
      <trkpt lat="48.80721" lon="5.18388">
        <ele>279</ele>
        <time>2023-01-30T15:02:41.000Z</time>
      </trkpt>
      <trkpt lat="48.80719" lon="5.18387">
        <ele>279</ele>
        <time>2023-01-30T15:02:42.000Z</time>
      </trkpt>
      <trkpt lat="48.80717" lon="5.18387">
        <ele>279</ele>
        <time>2023-01-30T15:02:43.000Z</time>
      </trkpt>
      <trkpt lat="48.80715" lon="5.18387">
        <ele>279</ele>
        <time>2023-01-30T15:02:44.000Z</time>
      </trkpt>
      <trkpt lat="48.80714" lon="5.18387">
        <ele>279</ele>
        <time>2023-01-30T15:02:45.000Z</time>
      </trkpt>
      <trkpt lat="48.80712" lon="5.18387">
        <ele>279</ele>
        <time>2023-01-30T15:02:46.000Z</time>
      </trkpt>
      <trkpt lat="48.80712" lon="5.18387">
        <ele>279</ele>
        <time>2023-01-30T15:02:47.000Z</time>
      </trkpt>
      <trkpt lat="48.80711" lon="5.18387">
        <ele>279</ele>
        <time>2023-01-30T15:02:48.000Z</time>
      </trkpt>
      <trkpt lat="48.8071" lon="5.18387">
        <ele>279</ele>
        <time>2023-01-30T15:02:49.000Z</time>
      </trkpt>
      <trkpt lat="48.80709" lon="5.18387">
        <ele>279</ele>
        <time>2023-01-30T15:02:50.000Z</time>
      </trkpt>
      <trkpt lat="48.80707" lon="5.18387">
        <ele>279</ele>
        <time>2023-01-30T15:02:51.000Z</time>
      </trkpt>
      <trkpt lat="48.80706" lon="5.18387">
        <ele>279</ele>
        <time>2023-01-30T15:02:52.000Z</time>
      </trkpt>
      <trkpt lat="48.80704" lon="5.18387">
        <ele>279</ele>
        <time>2023-01-30T15:02:53.000Z</time>
      </trkpt>
      <trkpt lat="48.80702" lon="5.18387">
        <ele>279</ele>
        <time>2023-01-30T15:02:54.000Z</time>
      </trkpt>
      <trkpt lat="48.807" lon="5.18387">
        <ele>279</ele>
        <time>2023-01-30T15:02:55.000Z</time>
      </trkpt>
      <trkpt lat="48.80698" lon="5.18387">
        <ele>279</ele>
        <time>2023-01-30T15:02:56.000Z</time>
      </trkpt>
      <trkpt lat="48.80697" lon="5.18387">
        <ele>279</ele>
        <time>2023-01-30T15:02:57.000Z</time>
      </trkpt>
      <trkpt lat="48.80695" lon="5.18388">
        <ele>279</ele>
        <time>2023-01-30T15:02:58.000Z</time>
      </trkpt>
      <trkpt lat="48.80693" lon="5.18388">
        <ele>279</ele>
        <time>2023-01-30T15:02:59.000Z</time>
      </trkpt>
      <trkpt lat="48.80692" lon="5.18388">
        <ele>279</ele>
        <time>2023-01-30T15:03:00.000Z</time>
      </trkpt>
      <trkpt lat="48.8069" lon="5.18388">
        <ele>279</ele>
        <time>2023-01-30T15:03:01.000Z</time>
      </trkpt>
      <trkpt lat="48.80689" lon="5.18388">
        <ele>279</ele>
        <time>2023-01-30T15:03:02.000Z</time>
      </trkpt>
      <trkpt lat="48.80688" lon="5.18388">
        <ele>279</ele>
        <time>2023-01-30T15:03:03.000Z</time>
      </trkpt>
      <trkpt lat="48.80686" lon="5.18388">
        <ele>279</ele>
        <time>2023-01-30T15:03:04.000Z</time>
      </trkpt>
      <trkpt lat="48.80685" lon="5.18388">
        <ele>279</ele>
        <time>2023-01-30T15:03:05.000Z</time>
      </trkpt>
      <trkpt lat="48.80683" lon="5.18388">
        <ele>279</ele>
        <time>2023-01-30T15:03:06.000Z</time>
      </trkpt>
      <trkpt lat="48.80682" lon="5.18388">
        <ele>279</ele>
        <time>2023-01-30T15:03:07.000Z</time>
      </trkpt>
      <trkpt lat="48.80681" lon="5.18387">
        <ele>279</ele>
        <time>2023-01-30T15:03:08.000Z</time>
      </trkpt>
      <trkpt lat="48.80679" lon="5.18387">
        <ele>279</ele>
        <time>2023-01-30T15:03:09.000Z</time>
      </trkpt>
      <trkpt lat="48.80678" lon="5.18387">
        <ele>279</ele>
        <time>2023-01-30T15:03:10.000Z</time>
      </trkpt>
      <trkpt lat="48.80676" lon="5.18386">
        <ele>279</ele>
        <time>2023-01-30T15:03:11.000Z</time>
      </trkpt>
      <trkpt lat="48.80675" lon="5.18386">
        <ele>279</ele>
        <time>2023-01-30T15:03:12.000Z</time>
      </trkpt>
      <trkpt lat="48.80673" lon="5.18386">
        <ele>279</ele>
        <time>2023-01-30T15:03:13.000Z</time>
      </trkpt>
      <trkpt lat="48.80672" lon="5.18386">
        <ele>279</ele>
        <time>2023-01-30T15:03:14.000Z</time>
      </trkpt>
      <trkpt lat="48.80671" lon="5.18386">
        <ele>279</ele>
        <time>2023-01-30T15:03:15.000Z</time>
      </trkpt>
      <trkpt lat="48.80668" lon="5.18387">
        <ele>279</ele>
        <time>2023-01-30T15:03:16.000Z</time>
      </trkpt>
      <trkpt lat="48.80666" lon="5.18387">
        <ele>279</ele>
        <time>2023-01-30T15:03:17.000Z</time>
      </trkpt>
      <trkpt lat="48.80665" lon="5.18388">
        <ele>279</ele>
        <time>2023-01-30T15:03:18.000Z</time>
      </trkpt>
      <trkpt lat="48.80664" lon="5.18388">
        <ele>279</ele>
        <time>2023-01-30T15:03:19.000Z</time>
      </trkpt>
      <trkpt lat="48.80663" lon="5.18388">
        <ele>279</ele>
        <time>2023-01-30T15:03:20.000Z</time>
      </trkpt>
      <trkpt lat="48.80662" lon="5.18387">
        <ele>279</ele>
        <time>2023-01-30T15:03:21.000Z</time>
      </trkpt>
      <trkpt lat="48.80661" lon="5.18387">
        <ele>279</ele>
        <time>2023-01-30T15:03:22.000Z</time>
      </trkpt>
      <trkpt lat="48.80659" lon="5.18387">
        <ele>279</ele>
        <time>2023-01-30T15:03:23.000Z</time>
      </trkpt>
      <trkpt lat="48.80658" lon="5.18386">
        <ele>279</ele>
        <time>2023-01-30T15:03:24.000Z</time>
      </trkpt>
      <trkpt lat="48.80657" lon="5.18386">
        <ele>279</ele>
        <time>2023-01-30T15:03:25.000Z</time>
      </trkpt>
      <trkpt lat="48.80656" lon="5.18385">
        <ele>279</ele>
        <time>2023-01-30T15:03:26.000Z</time>
      </trkpt>
      <trkpt lat="48.80655" lon="5.18385">
        <ele>279</ele>
        <time>2023-01-30T15:03:27.000Z</time>
      </trkpt>
      <trkpt lat="48.80653" lon="5.18384">
        <ele>279</ele>
        <time>2023-01-30T15:03:28.000Z</time>
      </trkpt>
      <trkpt lat="48.80652" lon="5.18384">
        <ele>279</ele>
        <time>2023-01-30T15:03:29.000Z</time>
      </trkpt>
      <trkpt lat="48.80651" lon="5.18383">
        <ele>279</ele>
        <time>2023-01-30T15:03:30.000Z</time>
      </trkpt>
      <trkpt lat="48.80649" lon="5.18382">
        <ele>279</ele>
        <time>2023-01-30T15:03:31.000Z</time>
      </trkpt>
      <trkpt lat="48.80648" lon="5.18382">
        <ele>279</ele>
        <time>2023-01-30T15:03:32.000Z</time>
      </trkpt>
      <trkpt lat="48.80646" lon="5.18381">
        <ele>279</ele>
        <time>2023-01-30T15:03:33.000Z</time>
      </trkpt>
      <trkpt lat="48.80644" lon="5.18381">
        <ele>278</ele>
        <time>2023-01-30T15:03:34.000Z</time>
      </trkpt>
      <trkpt lat="48.80642" lon="5.1838">
        <ele>278</ele>
        <time>2023-01-30T15:03:35.000Z</time>
      </trkpt>
      <trkpt lat="48.8064" lon="5.1838">
        <ele>278</ele>
        <time>2023-01-30T15:03:36.000Z</time>
      </trkpt>
      <trkpt lat="48.80639" lon="5.1838">
        <ele>278</ele>
        <time>2023-01-30T15:03:37.000Z</time>
      </trkpt>
      <trkpt lat="48.80637" lon="5.18379">
        <ele>278</ele>
        <time>2023-01-30T15:03:38.000Z</time>
      </trkpt>
      <trkpt lat="48.80636" lon="5.18379">
        <ele>278</ele>
        <time>2023-01-30T15:03:39.000Z</time>
      </trkpt>
      <trkpt lat="48.80634" lon="5.18378">
        <ele>278</ele>
        <time>2023-01-30T15:03:40.000Z</time>
      </trkpt>
      <trkpt lat="48.80632" lon="5.18378">
        <ele>278</ele>
        <time>2023-01-30T15:03:41.000Z</time>
      </trkpt>
      <trkpt lat="48.8063" lon="5.18377">
        <ele>278</ele>
        <time>2023-01-30T15:03:42.000Z</time>
      </trkpt>
      <trkpt lat="48.80628" lon="5.18377">
        <ele>278</ele>
        <time>2023-01-30T15:03:43.000Z</time>
      </trkpt>
      <trkpt lat="48.80627" lon="5.18376">
        <ele>278</ele>
        <time>2023-01-30T15:03:44.000Z</time>
      </trkpt>
      <trkpt lat="48.80625" lon="5.18376">
        <ele>278</ele>
        <time>2023-01-30T15:03:45.000Z</time>
      </trkpt>
      <trkpt lat="48.80624" lon="5.18376">
        <ele>278</ele>
        <time>2023-01-30T15:03:46.000Z</time>
      </trkpt>
      <trkpt lat="48.80622" lon="5.18375">
        <ele>278</ele>
        <time>2023-01-30T15:03:47.000Z</time>
      </trkpt>
      <trkpt lat="48.80621" lon="5.18375">
        <ele>278</ele>
        <time>2023-01-30T15:03:48.000Z</time>
      </trkpt>
      <trkpt lat="48.80619" lon="5.18375">
        <ele>278</ele>
        <time>2023-01-30T15:03:49.000Z</time>
      </trkpt>
      <trkpt lat="48.80618" lon="5.18374">
        <ele>278</ele>
        <time>2023-01-30T15:03:50.000Z</time>
      </trkpt>
      <trkpt lat="48.80616" lon="5.18374">
        <ele>278</ele>
        <time>2023-01-30T15:03:51.000Z</time>
      </trkpt>
      <trkpt lat="48.80615" lon="5.18374">
        <ele>278</ele>
        <time>2023-01-30T15:03:52.000Z</time>
      </trkpt>
      <trkpt lat="48.80614" lon="5.18374">
        <ele>278</ele>
        <time>2023-01-30T15:03:53.000Z</time>
      </trkpt>
      <trkpt lat="48.80612" lon="5.18374">
        <ele>278</ele>
        <time>2023-01-30T15:03:54.000Z</time>
      </trkpt>
      <trkpt lat="48.80611" lon="5.18373">
        <ele>278</ele>
        <time>2023-01-30T15:03:55.000Z</time>
      </trkpt>
      <trkpt lat="48.8061" lon="5.18373">
        <ele>277.5</ele>
        <time>2023-01-30T15:03:56.000Z</time>
      </trkpt>
      <trkpt lat="48.80608" lon="5.18372">
        <ele>277</ele>
        <time>2023-01-30T15:03:57.000Z</time>
      </trkpt>
      <trkpt lat="48.80607" lon="5.18372">
        <ele>277</ele>
        <time>2023-01-30T15:03:58.000Z</time>
      </trkpt>
      <trkpt lat="48.80606" lon="5.18371">
        <ele>277</ele>
        <time>2023-01-30T15:03:59.000Z</time>
      </trkpt>
      <trkpt lat="48.80605" lon="5.18371">
        <ele>277</ele>
        <time>2023-01-30T15:04:00.000Z</time>
      </trkpt>
      <trkpt lat="48.80603" lon="5.18371">
        <ele>277</ele>
        <time>2023-01-30T15:04:01.000Z</time>
      </trkpt>
      <trkpt lat="48.80602" lon="5.1837">
        <ele>277</ele>
        <time>2023-01-30T15:04:02.000Z</time>
      </trkpt>
      <trkpt lat="48.80601" lon="5.1837">
        <ele>277</ele>
        <time>2023-01-30T15:04:03.000Z</time>
      </trkpt>
      <trkpt lat="48.80599" lon="5.1837">
        <ele>277</ele>
        <time>2023-01-30T15:04:04.000Z</time>
      </trkpt>
      <trkpt lat="48.80598" lon="5.1837">
        <ele>277</ele>
        <time>2023-01-30T15:04:05.000Z</time>
      </trkpt>
      <trkpt lat="48.80596" lon="5.1837">
        <ele>277</ele>
        <time>2023-01-30T15:04:06.000Z</time>
      </trkpt>
      <trkpt lat="48.80595" lon="5.1837">
        <ele>277</ele>
        <time>2023-01-30T15:04:07.000Z</time>
      </trkpt>
      <trkpt lat="48.80593" lon="5.1837">
        <ele>277</ele>
        <time>2023-01-30T15:04:08.000Z</time>
      </trkpt>
      <trkpt lat="48.80591" lon="5.1837">
        <ele>277</ele>
        <time>2023-01-30T15:04:09.000Z</time>
      </trkpt>
      <trkpt lat="48.8059" lon="5.1837">
        <ele>277</ele>
        <time>2023-01-30T15:04:10.000Z</time>
      </trkpt>
      <trkpt lat="48.80588" lon="5.1837">
        <ele>276.5</ele>
        <time>2023-01-30T15:04:11.000Z</time>
      </trkpt>
      <trkpt lat="48.80587" lon="5.1837">
        <ele>276</ele>
        <time>2023-01-30T15:04:12.000Z</time>
      </trkpt>
      <trkpt lat="48.80585" lon="5.1837">
        <ele>276</ele>
        <time>2023-01-30T15:04:13.000Z</time>
      </trkpt>
      <trkpt lat="48.80584" lon="5.18369">
        <ele>276</ele>
        <time>2023-01-30T15:04:14.000Z</time>
      </trkpt>
      <trkpt lat="48.80583" lon="5.18369">
        <ele>276</ele>
        <time>2023-01-30T15:04:15.000Z</time>
      </trkpt>
      <trkpt lat="48.80582" lon="5.18369">
        <ele>276</ele>
        <time>2023-01-30T15:04:16.000Z</time>
      </trkpt>
      <trkpt lat="48.80581" lon="5.18369">
        <ele>276</ele>
        <time>2023-01-30T15:04:17.000Z</time>
      </trkpt>
      <trkpt lat="48.80579" lon="5.18368">
        <ele>276</ele>
        <time>2023-01-30T15:04:18.000Z</time>
      </trkpt>
      <trkpt lat="48.80578" lon="5.18368">
        <ele>276</ele>
        <time>2023-01-30T15:04:19.000Z</time>
      </trkpt>
      <trkpt lat="48.80577" lon="5.18367">
        <ele>276</ele>
        <time>2023-01-30T15:04:20.000Z</time>
      </trkpt>
      <trkpt lat="48.80576" lon="5.18367">
        <ele>276</ele>
        <time>2023-01-30T15:04:21.000Z</time>
      </trkpt>
      <trkpt lat="48.80575" lon="5.18366">
        <ele>275</ele>
        <time>2023-01-30T15:04:22.000Z</time>
      </trkpt>
      <trkpt lat="48.80574" lon="5.18365">
        <ele>275</ele>
        <time>2023-01-30T15:04:23.000Z</time>
      </trkpt>
      <trkpt lat="48.80572" lon="5.18364">
        <ele>275</ele>
        <time>2023-01-30T15:04:24.000Z</time>
      </trkpt>
      <trkpt lat="48.80571" lon="5.18363">
        <ele>275</ele>
        <time>2023-01-30T15:04:25.000Z</time>
      </trkpt>
      <trkpt lat="48.8057" lon="5.18362">
        <ele>275</ele>
        <time>2023-01-30T15:04:26.000Z</time>
      </trkpt>
      <trkpt lat="48.80568" lon="5.18362">
        <ele>275</ele>
        <time>2023-01-30T15:04:27.000Z</time>
      </trkpt>
      <trkpt lat="48.80567" lon="5.18362">
        <ele>275</ele>
        <time>2023-01-30T15:04:28.000Z</time>
      </trkpt>
      <trkpt lat="48.80565" lon="5.18362">
        <ele>275</ele>
        <time>2023-01-30T15:04:29.000Z</time>
      </trkpt>
      <trkpt lat="48.80563" lon="5.18362">
        <ele>275</ele>
        <time>2023-01-30T15:04:30.000Z</time>
      </trkpt>
      <trkpt lat="48.80562" lon="5.18362">
        <ele>275</ele>
        <time>2023-01-30T15:04:31.000Z</time>
      </trkpt>
      <trkpt lat="48.8056" lon="5.18362">
        <ele>275</ele>
        <time>2023-01-30T15:04:32.000Z</time>
      </trkpt>
      <trkpt lat="48.80559" lon="5.18362">
        <ele>275</ele>
        <time>2023-01-30T15:04:33.000Z</time>
      </trkpt>
      <trkpt lat="48.80557" lon="5.18362">
        <ele>275</ele>
        <time>2023-01-30T15:04:34.000Z</time>
      </trkpt>
      <trkpt lat="48.80556" lon="5.18362">
        <ele>275</ele>
        <time>2023-01-30T15:04:35.000Z</time>
      </trkpt>
      <trkpt lat="48.80555" lon="5.18363">
        <ele>274.5</ele>
        <time>2023-01-30T15:04:36.000Z</time>
      </trkpt>
      <trkpt lat="48.80554" lon="5.18363">
        <ele>274</ele>
        <time>2023-01-30T15:04:37.000Z</time>
      </trkpt>
      <trkpt lat="48.80552" lon="5.18363">
        <ele>274</ele>
        <time>2023-01-30T15:04:38.000Z</time>
      </trkpt>
      <trkpt lat="48.80551" lon="5.18363">
        <ele>274</ele>
        <time>2023-01-30T15:04:39.000Z</time>
      </trkpt>
      <trkpt lat="48.8055" lon="5.18363">
        <ele>274</ele>
        <time>2023-01-30T15:04:40.000Z</time>
      </trkpt>
      <trkpt lat="48.80548" lon="5.18363">
        <ele>274</ele>
        <time>2023-01-30T15:04:41.000Z</time>
      </trkpt>
      <trkpt lat="48.80547" lon="5.18363">
        <ele>274</ele>
        <time>2023-01-30T15:04:42.000Z</time>
      </trkpt>
      <trkpt lat="48.80546" lon="5.18363">
        <ele>273.5</ele>
        <time>2023-01-30T15:04:43.000Z</time>
      </trkpt>
      <trkpt lat="48.80546" lon="5.18363">
        <ele>273</ele>
        <time>2023-01-30T15:04:44.000Z</time>
      </trkpt>
      <trkpt lat="48.80545" lon="5.18363">
        <ele>273</ele>
        <time>2023-01-30T15:04:45.000Z</time>
      </trkpt>
      <trkpt lat="48.80544" lon="5.18363">
        <ele>273</ele>
        <time>2023-01-30T15:04:46.000Z</time>
      </trkpt>
      <trkpt lat="48.80544" lon="5.18364">
        <ele>273</ele>
        <time>2023-01-30T15:04:47.000Z</time>
      </trkpt>
      <trkpt lat="48.80542" lon="5.18364">
        <ele>273</ele>
        <time>2023-01-30T15:04:48.000Z</time>
      </trkpt>
      <trkpt lat="48.80541" lon="5.18365">
        <ele>273</ele>
        <time>2023-01-30T15:04:49.000Z</time>
      </trkpt>
      <trkpt lat="48.8054" lon="5.18365">
        <ele>273</ele>
        <time>2023-01-30T15:04:50.000Z</time>
      </trkpt>
      <trkpt lat="48.80539" lon="5.18366">
        <ele>273</ele>
        <time>2023-01-30T15:04:51.000Z</time>
      </trkpt>
      <trkpt lat="48.80538" lon="5.18366">
        <ele>273</ele>
        <time>2023-01-30T15:04:52.000Z</time>
      </trkpt>
      <trkpt lat="48.80537" lon="5.18366">
        <ele>273</ele>
        <time>2023-01-30T15:04:53.000Z</time>
      </trkpt>
      <trkpt lat="48.80537" lon="5.18366">
        <ele>273</ele>
        <time>2023-01-30T15:04:54.000Z</time>
      </trkpt>
      <trkpt lat="48.80536" lon="5.18367">
        <ele>273</ele>
        <time>2023-01-30T15:04:55.000Z</time>
      </trkpt>
      <trkpt lat="48.80535" lon="5.18367">
        <ele>273</ele>
        <time>2023-01-30T15:04:56.000Z</time>
      </trkpt>
      <trkpt lat="48.80535" lon="5.18367">
        <ele>273</ele>
        <time>2023-01-30T15:04:57.000Z</time>
      </trkpt>
      <trkpt lat="48.80534" lon="5.18367">
        <ele>272.5</ele>
        <time>2023-01-30T15:04:58.000Z</time>
      </trkpt>
      <trkpt lat="48.80533" lon="5.18368">
        <ele>272</ele>
        <time>2023-01-30T15:04:59.000Z</time>
      </trkpt>
      <trkpt lat="48.80532" lon="5.18369">
        <ele>272</ele>
        <time>2023-01-30T15:05:00.000Z</time>
      </trkpt>
      <trkpt lat="48.80531" lon="5.18369">
        <ele>272</ele>
        <time>2023-01-30T15:05:01.000Z</time>
      </trkpt>
      <trkpt lat="48.8053" lon="5.1837">
        <ele>272</ele>
        <time>2023-01-30T15:05:02.000Z</time>
      </trkpt>
      <trkpt lat="48.80529" lon="5.1837">
        <ele>272</ele>
        <time>2023-01-30T15:05:03.000Z</time>
      </trkpt>
      <trkpt lat="48.80527" lon="5.18371">
        <ele>272</ele>
        <time>2023-01-30T15:05:04.000Z</time>
      </trkpt>
      <trkpt lat="48.80526" lon="5.18371">
        <ele>272</ele>
        <time>2023-01-30T15:05:05.000Z</time>
      </trkpt>
      <trkpt lat="48.80524" lon="5.18371">
        <ele>271.5</ele>
        <time>2023-01-30T15:05:06.000Z</time>
      </trkpt>
      <trkpt lat="48.80522" lon="5.1837">
        <ele>271</ele>
        <time>2023-01-30T15:05:07.000Z</time>
      </trkpt>
      <trkpt lat="48.80519" lon="5.1837">
        <ele>271</ele>
        <time>2023-01-30T15:05:08.000Z</time>
      </trkpt>
      <trkpt lat="48.80517" lon="5.1837">
        <ele>270.7</ele>
        <time>2023-01-30T15:05:09.000Z</time>
      </trkpt>
      <trkpt lat="48.80516" lon="5.18369">
        <ele>270.3</ele>
        <time>2023-01-30T15:05:10.000Z</time>
      </trkpt>
      <trkpt lat="48.80515" lon="5.18368">
        <ele>270</ele>
        <time>2023-01-30T15:05:11.000Z</time>
      </trkpt>
      <trkpt lat="48.80513" lon="5.18368">
        <ele>270</ele>
        <time>2023-01-30T15:05:12.000Z</time>
      </trkpt>
      <trkpt lat="48.80512" lon="5.18368">
        <ele>270</ele>
        <time>2023-01-30T15:05:13.000Z</time>
      </trkpt>
      <trkpt lat="48.80511" lon="5.18367">
        <ele>270</ele>
        <time>2023-01-30T15:05:14.000Z</time>
      </trkpt>
      <trkpt lat="48.8051" lon="5.18367">
        <ele>269.7</ele>
        <time>2023-01-30T15:05:15.000Z</time>
      </trkpt>
      <trkpt lat="48.8051" lon="5.18366">
        <ele>269.3</ele>
        <time>2023-01-30T15:05:16.000Z</time>
      </trkpt>
      <trkpt lat="48.80509" lon="5.18366">
        <ele>269</ele>
        <time>2023-01-30T15:05:17.000Z</time>
      </trkpt>
      <trkpt lat="48.80509" lon="5.18366">
        <ele>269</ele>
        <time>2023-01-30T15:05:18.000Z</time>
      </trkpt>
      <trkpt lat="48.80508" lon="5.18366">
        <ele>269</ele>
        <time>2023-01-30T15:05:19.000Z</time>
      </trkpt>
      <trkpt lat="48.80507" lon="5.18366">
        <ele>268.5</ele>
        <time>2023-01-30T15:05:20.000Z</time>
      </trkpt>
      <trkpt lat="48.80506" lon="5.18365">
        <ele>268</ele>
        <time>2023-01-30T15:05:21.000Z</time>
      </trkpt>
      <trkpt lat="48.80505" lon="5.18365">
        <ele>268</ele>
        <time>2023-01-30T15:05:22.000Z</time>
      </trkpt>
      <trkpt lat="48.80504" lon="5.18365">
        <ele>267.7</ele>
        <time>2023-01-30T15:05:23.000Z</time>
      </trkpt>
      <trkpt lat="48.80503" lon="5.18365">
        <ele>267.3</ele>
        <time>2023-01-30T15:05:24.000Z</time>
      </trkpt>
      <trkpt lat="48.80502" lon="5.18365">
        <ele>267</ele>
        <time>2023-01-30T15:05:25.000Z</time>
      </trkpt>
      <trkpt lat="48.80501" lon="5.18365">
        <ele>267</ele>
        <time>2023-01-30T15:05:26.000Z</time>
      </trkpt>
      <trkpt lat="48.805" lon="5.18364">
        <ele>267</ele>
        <time>2023-01-30T15:05:27.000Z</time>
      </trkpt>
      <trkpt lat="48.80498" lon="5.18364">
        <ele>266</ele>
        <time>2023-01-30T15:05:28.000Z</time>
      </trkpt>
      <trkpt lat="48.80496" lon="5.18363">
        <ele>266</ele>
        <time>2023-01-30T15:05:29.000Z</time>
      </trkpt>
      <trkpt lat="48.80495" lon="5.18363">
        <ele>266</ele>
        <time>2023-01-30T15:05:30.000Z</time>
      </trkpt>
      <trkpt lat="48.80493" lon="5.18362">
        <ele>266</ele>
        <time>2023-01-30T15:05:31.000Z</time>
      </trkpt>
      <trkpt lat="48.80492" lon="5.18361">
        <ele>265.5</ele>
        <time>2023-01-30T15:05:32.000Z</time>
      </trkpt>
      <trkpt lat="48.80491" lon="5.18361">
        <ele>265</ele>
        <time>2023-01-30T15:05:33.000Z</time>
      </trkpt>
      <trkpt lat="48.8049" lon="5.1836">
        <ele>265</ele>
        <time>2023-01-30T15:05:34.000Z</time>
      </trkpt>
      <trkpt lat="48.80489" lon="5.18359">
        <ele>265</ele>
        <time>2023-01-30T15:05:35.000Z</time>
      </trkpt>
      <trkpt lat="48.80488" lon="5.18358">
        <ele>264.5</ele>
        <time>2023-01-30T15:05:36.000Z</time>
      </trkpt>
      <trkpt lat="48.80487" lon="5.18357">
        <ele>264</ele>
        <time>2023-01-30T15:05:37.000Z</time>
      </trkpt>
      <trkpt lat="48.80487" lon="5.18356">
        <ele>264</ele>
        <time>2023-01-30T15:05:38.000Z</time>
      </trkpt>
      <trkpt lat="48.80487" lon="5.18355">
        <ele>264</ele>
        <time>2023-01-30T15:05:39.000Z</time>
      </trkpt>
      <trkpt lat="48.80486" lon="5.18352">
        <ele>263</ele>
        <time>2023-01-30T15:05:40.000Z</time>
      </trkpt>
      <trkpt lat="48.80485" lon="5.1835">
        <ele>263</ele>
        <time>2023-01-30T15:05:41.000Z</time>
      </trkpt>
      <trkpt lat="48.80485" lon="5.18349">
        <ele>263</ele>
        <time>2023-01-30T15:05:42.000Z</time>
      </trkpt>
      <trkpt lat="48.80485" lon="5.18348">
        <ele>263</ele>
        <time>2023-01-30T15:05:43.000Z</time>
      </trkpt>
      <trkpt lat="48.80484" lon="5.18346">
        <ele>262</ele>
        <time>2023-01-30T15:05:44.000Z</time>
      </trkpt>
      <trkpt lat="48.80482" lon="5.18344">
        <ele>262</ele>
        <time>2023-01-30T15:05:45.000Z</time>
      </trkpt>
      <trkpt lat="48.8048" lon="5.18342">
        <ele>262</ele>
        <time>2023-01-30T15:05:46.000Z</time>
      </trkpt>
      <trkpt lat="48.80478" lon="5.1834">
        <ele>262</ele>
        <time>2023-01-30T15:05:47.000Z</time>
      </trkpt>
      <trkpt lat="48.80476" lon="5.18338">
        <ele>261</ele>
        <time>2023-01-30T15:05:48.000Z</time>
      </trkpt>
      <trkpt lat="48.80475" lon="5.18336">
        <ele>261</ele>
        <time>2023-01-30T15:05:49.000Z</time>
      </trkpt>
      <trkpt lat="48.80474" lon="5.18334">
        <ele>261</ele>
        <time>2023-01-30T15:05:50.000Z</time>
      </trkpt>
      <trkpt lat="48.80473" lon="5.18332">
        <ele>261</ele>
        <time>2023-01-30T15:05:51.000Z</time>
      </trkpt>
      <trkpt lat="48.80472" lon="5.1833">
        <ele>261</ele>
        <time>2023-01-30T15:05:52.000Z</time>
      </trkpt>
      <trkpt lat="48.8047" lon="5.18329">
        <ele>261</ele>
        <time>2023-01-30T15:05:53.000Z</time>
      </trkpt>
      <trkpt lat="48.80469" lon="5.18327">
        <ele>260</ele>
        <time>2023-01-30T15:05:54.000Z</time>
      </trkpt>
      <trkpt lat="48.80467" lon="5.18325">
        <ele>260</ele>
        <time>2023-01-30T15:05:55.000Z</time>
      </trkpt>
      <trkpt lat="48.80466" lon="5.18324">
        <ele>260</ele>
        <time>2023-01-30T15:05:56.000Z</time>
      </trkpt>
      <trkpt lat="48.80465" lon="5.18322">
        <ele>260</ele>
        <time>2023-01-30T15:05:57.000Z</time>
      </trkpt>
      <trkpt lat="48.80464" lon="5.18321">
        <ele>259.5</ele>
        <time>2023-01-30T15:05:58.000Z</time>
      </trkpt>
      <trkpt lat="48.80463" lon="5.1832">
        <ele>259</ele>
        <time>2023-01-30T15:05:59.000Z</time>
      </trkpt>
      <trkpt lat="48.80462" lon="5.18319">
        <ele>259</ele>
        <time>2023-01-30T15:06:00.000Z</time>
      </trkpt>
      <trkpt lat="48.80462" lon="5.18318">
        <ele>259</ele>
        <time>2023-01-30T15:06:01.000Z</time>
      </trkpt>
      <trkpt lat="48.80461" lon="5.18317">
        <ele>259</ele>
        <time>2023-01-30T15:06:02.000Z</time>
      </trkpt>
      <trkpt lat="48.8046" lon="5.18316">
        <ele>259</ele>
        <time>2023-01-30T15:06:03.000Z</time>
      </trkpt>
      <trkpt lat="48.8046" lon="5.18316">
        <ele>259</ele>
        <time>2023-01-30T15:06:04.000Z</time>
      </trkpt>
      <trkpt lat="48.80459" lon="5.18316">
        <ele>259</ele>
        <time>2023-01-30T15:06:05.000Z</time>
      </trkpt>
      <trkpt lat="48.80459" lon="5.18316">
        <ele>258.5</ele>
        <time>2023-01-30T15:06:06.000Z</time>
      </trkpt>
      <trkpt lat="48.80458" lon="5.18316">
        <ele>258</ele>
        <time>2023-01-30T15:06:07.000Z</time>
      </trkpt>
      <trkpt lat="48.80458" lon="5.18316">
        <ele>258</ele>
        <time>2023-01-30T15:06:08.000Z</time>
      </trkpt>
      <trkpt lat="48.80457" lon="5.18316">
        <ele>258</ele>
        <time>2023-01-30T15:06:09.000Z</time>
      </trkpt>
      <trkpt lat="48.80456" lon="5.18316">
        <ele>258</ele>
        <time>2023-01-30T15:06:10.000Z</time>
      </trkpt>
      <trkpt lat="48.80455" lon="5.18315">
        <ele>258</ele>
        <time>2023-01-30T15:06:11.000Z</time>
      </trkpt>
      <trkpt lat="48.80454" lon="5.18315">
        <ele>258</ele>
        <time>2023-01-30T15:06:12.000Z</time>
      </trkpt>
      <trkpt lat="48.80453" lon="5.18314">
        <ele>258</ele>
        <time>2023-01-30T15:06:13.000Z</time>
      </trkpt>
      <trkpt lat="48.80453" lon="5.18314">
        <ele>258</ele>
        <time>2023-01-30T15:06:14.000Z</time>
      </trkpt>
      <trkpt lat="48.80452" lon="5.18313">
        <ele>258</ele>
        <time>2023-01-30T15:06:15.000Z</time>
      </trkpt>
      <trkpt lat="48.80452" lon="5.18313">
        <ele>258</ele>
        <time>2023-01-30T15:06:16.000Z</time>
      </trkpt>
      <trkpt lat="48.80451" lon="5.18312">
        <ele>258</ele>
        <time>2023-01-30T15:06:17.000Z</time>
      </trkpt>
      <trkpt lat="48.8045" lon="5.18312">
        <ele>258</ele>
        <time>2023-01-30T15:06:18.000Z</time>
      </trkpt>
      <trkpt lat="48.80448" lon="5.18311">
        <ele>258</ele>
        <time>2023-01-30T15:06:19.000Z</time>
      </trkpt>
      <trkpt lat="48.80447" lon="5.1831">
        <ele>258</ele>
        <time>2023-01-30T15:06:20.000Z</time>
      </trkpt>
      <trkpt lat="48.80446" lon="5.1831">
        <ele>258</ele>
        <time>2023-01-30T15:06:21.000Z</time>
      </trkpt>
      <trkpt lat="48.80445" lon="5.18309">
        <ele>258</ele>
        <time>2023-01-30T15:06:22.000Z</time>
      </trkpt>
      <trkpt lat="48.80444" lon="5.18308">
        <ele>258</ele>
        <time>2023-01-30T15:06:23.000Z</time>
      </trkpt>
      <trkpt lat="48.80443" lon="5.18308">
        <ele>258</ele>
        <time>2023-01-30T15:06:24.000Z</time>
      </trkpt>
      <trkpt lat="48.80443" lon="5.18308">
        <ele>258</ele>
        <time>2023-01-30T15:06:25.000Z</time>
      </trkpt>
      <trkpt lat="48.80442" lon="5.18307">
        <ele>258</ele>
        <time>2023-01-30T15:06:26.000Z</time>
      </trkpt>
      <trkpt lat="48.80441" lon="5.18307">
        <ele>258</ele>
        <time>2023-01-30T15:06:27.000Z</time>
      </trkpt>
      <trkpt lat="48.80439" lon="5.18306">
        <ele>258</ele>
        <time>2023-01-30T15:06:28.000Z</time>
      </trkpt>
      <trkpt lat="48.80438" lon="5.18306">
        <ele>258</ele>
        <time>2023-01-30T15:06:29.000Z</time>
      </trkpt>
      <trkpt lat="48.80438" lon="5.18305">
        <ele>258</ele>
        <time>2023-01-30T15:06:30.000Z</time>
      </trkpt>
      <trkpt lat="48.80437" lon="5.18305">
        <ele>258</ele>
        <time>2023-01-30T15:06:31.000Z</time>
      </trkpt>
      <trkpt lat="48.80437" lon="5.18305">
        <ele>258.5</ele>
        <time>2023-01-30T15:06:32.000Z</time>
      </trkpt>
      <trkpt lat="48.80436" lon="5.18305">
        <ele>259</ele>
        <time>2023-01-30T15:06:33.000Z</time>
      </trkpt>
      <trkpt lat="48.80435" lon="5.18304">
        <ele>259</ele>
        <time>2023-01-30T15:06:34.000Z</time>
      </trkpt>
      <trkpt lat="48.80434" lon="5.18304">
        <ele>259</ele>
        <time>2023-01-30T15:06:35.000Z</time>
      </trkpt>
      <trkpt lat="48.80432" lon="5.18303">
        <ele>259</ele>
        <time>2023-01-30T15:06:36.000Z</time>
      </trkpt>
      <trkpt lat="48.8043" lon="5.18302">
        <ele>259</ele>
        <time>2023-01-30T15:06:37.000Z</time>
      </trkpt>
      <trkpt lat="48.80428" lon="5.18301">
        <ele>259</ele>
        <time>2023-01-30T15:06:38.000Z</time>
      </trkpt>
      <trkpt lat="48.80426" lon="5.183">
        <ele>259</ele>
        <time>2023-01-30T15:06:39.000Z</time>
      </trkpt>
      <trkpt lat="48.80425" lon="5.18299">
        <ele>259</ele>
        <time>2023-01-30T15:06:40.000Z</time>
      </trkpt>
      <trkpt lat="48.80424" lon="5.18298">
        <ele>259.3</ele>
        <time>2023-01-30T15:06:41.000Z</time>
      </trkpt>
      <trkpt lat="48.80423" lon="5.18297">
        <ele>259.7</ele>
        <time>2023-01-30T15:06:42.000Z</time>
      </trkpt>
      <trkpt lat="48.80422" lon="5.18296">
        <ele>260</ele>
        <time>2023-01-30T15:06:43.000Z</time>
      </trkpt>
      <trkpt lat="48.8042" lon="5.18295">
        <ele>260</ele>
        <time>2023-01-30T15:06:44.000Z</time>
      </trkpt>
      <trkpt lat="48.80418" lon="5.18294">
        <ele>260.3</ele>
        <time>2023-01-30T15:06:45.000Z</time>
      </trkpt>
      <trkpt lat="48.80417" lon="5.18293">
        <ele>260.7</ele>
        <time>2023-01-30T15:06:46.000Z</time>
      </trkpt>
      <trkpt lat="48.80415" lon="5.18291">
        <ele>261</ele>
        <time>2023-01-30T15:06:47.000Z</time>
      </trkpt>
      <trkpt lat="48.80414" lon="5.1829">
        <ele>261</ele>
        <time>2023-01-30T15:06:48.000Z</time>
      </trkpt>
      <trkpt lat="48.80412" lon="5.18289">
        <ele>261</ele>
        <time>2023-01-30T15:06:49.000Z</time>
      </trkpt>
      <trkpt lat="48.80411" lon="5.18287">
        <ele>261</ele>
        <time>2023-01-30T15:06:50.000Z</time>
      </trkpt>
      <trkpt lat="48.80409" lon="5.18286">
        <ele>261</ele>
        <time>2023-01-30T15:06:51.000Z</time>
      </trkpt>
      <trkpt lat="48.80407" lon="5.18284">
        <ele>261</ele>
        <time>2023-01-30T15:06:52.000Z</time>
      </trkpt>
      <trkpt lat="48.80405" lon="5.18283">
        <ele>261</ele>
        <time>2023-01-30T15:06:53.000Z</time>
      </trkpt>
      <trkpt lat="48.80403" lon="5.18282">
        <ele>262</ele>
        <time>2023-01-30T15:06:54.000Z</time>
      </trkpt>
      <trkpt lat="48.80401" lon="5.18281">
        <ele>262</ele>
        <time>2023-01-30T15:06:55.000Z</time>
      </trkpt>
      <trkpt lat="48.804" lon="5.1828">
        <ele>262</ele>
        <time>2023-01-30T15:06:56.000Z</time>
      </trkpt>
      <trkpt lat="48.80398" lon="5.18279">
        <ele>262</ele>
        <time>2023-01-30T15:06:57.000Z</time>
      </trkpt>
      <trkpt lat="48.80397" lon="5.18279">
        <ele>262</ele>
        <time>2023-01-30T15:06:58.000Z</time>
      </trkpt>
      <trkpt lat="48.80396" lon="5.18278">
        <ele>262</ele>
        <time>2023-01-30T15:06:59.000Z</time>
      </trkpt>
      <trkpt lat="48.80395" lon="5.18277">
        <ele>262</ele>
        <time>2023-01-30T15:07:00.000Z</time>
      </trkpt>
      <trkpt lat="48.80393" lon="5.18277">
        <ele>262.3</ele>
        <time>2023-01-30T15:07:01.000Z</time>
      </trkpt>
      <trkpt lat="48.80392" lon="5.18276">
        <ele>262.7</ele>
        <time>2023-01-30T15:07:02.000Z</time>
      </trkpt>
      <trkpt lat="48.8039" lon="5.18276">
        <ele>263</ele>
        <time>2023-01-30T15:07:03.000Z</time>
      </trkpt>
      <trkpt lat="48.80389" lon="5.18275">
        <ele>263</ele>
        <time>2023-01-30T15:07:04.000Z</time>
      </trkpt>
      <trkpt lat="48.80388" lon="5.18275">
        <ele>263</ele>
        <time>2023-01-30T15:07:05.000Z</time>
      </trkpt>
      <trkpt lat="48.80387" lon="5.18274">
        <ele>263</ele>
        <time>2023-01-30T15:07:06.000Z</time>
      </trkpt>
      <trkpt lat="48.80386" lon="5.18274">
        <ele>263</ele>
        <time>2023-01-30T15:07:07.000Z</time>
      </trkpt>
      <trkpt lat="48.80386" lon="5.18273">
        <ele>263.5</ele>
        <time>2023-01-30T15:07:08.000Z</time>
      </trkpt>
      <trkpt lat="48.80385" lon="5.18273">
        <ele>264</ele>
        <time>2023-01-30T15:07:09.000Z</time>
      </trkpt>
      <trkpt lat="48.80384" lon="5.18273">
        <ele>264</ele>
        <time>2023-01-30T15:07:10.000Z</time>
      </trkpt>
      <trkpt lat="48.80383" lon="5.18272">
        <ele>264</ele>
        <time>2023-01-30T15:07:11.000Z</time>
      </trkpt>
      <trkpt lat="48.80382" lon="5.18272">
        <ele>264</ele>
        <time>2023-01-30T15:07:12.000Z</time>
      </trkpt>
      <trkpt lat="48.80381" lon="5.18271">
        <ele>264</ele>
        <time>2023-01-30T15:07:13.000Z</time>
      </trkpt>
      <trkpt lat="48.8038" lon="5.18271">
        <ele>265</ele>
        <time>2023-01-30T15:07:14.000Z</time>
      </trkpt>
      <trkpt lat="48.80379" lon="5.18271">
        <ele>265</ele>
        <time>2023-01-30T15:07:15.000Z</time>
      </trkpt>
      <trkpt lat="48.80378" lon="5.1827">
        <ele>265</ele>
        <time>2023-01-30T15:07:16.000Z</time>
      </trkpt>
      <trkpt lat="48.80377" lon="5.1827">
        <ele>265</ele>
        <time>2023-01-30T15:07:17.000Z</time>
      </trkpt>
      <trkpt lat="48.80376" lon="5.18269">
        <ele>266</ele>
        <time>2023-01-30T15:07:18.000Z</time>
      </trkpt>
      <trkpt lat="48.80374" lon="5.18268">
        <ele>266</ele>
        <time>2023-01-30T15:07:19.000Z</time>
      </trkpt>
      <trkpt lat="48.80373" lon="5.18267">
        <ele>266</ele>
        <time>2023-01-30T15:07:20.000Z</time>
      </trkpt>
      <trkpt lat="48.80372" lon="5.18266">
        <ele>266</ele>
        <time>2023-01-30T15:07:21.000Z</time>
      </trkpt>
      <trkpt lat="48.80371" lon="5.18266">
        <ele>266</ele>
        <time>2023-01-30T15:07:22.000Z</time>
      </trkpt>
      <trkpt lat="48.8037" lon="5.18265">
        <ele>266</ele>
        <time>2023-01-30T15:07:23.000Z</time>
      </trkpt>
      <trkpt lat="48.80368" lon="5.18264">
        <ele>267</ele>
        <time>2023-01-30T15:07:24.000Z</time>
      </trkpt>
      <trkpt lat="48.80366" lon="5.18263">
        <ele>267</ele>
        <time>2023-01-30T15:07:25.000Z</time>
      </trkpt>
      <trkpt lat="48.80365" lon="5.18262">
        <ele>267</ele>
        <time>2023-01-30T15:07:26.000Z</time>
      </trkpt>
      <trkpt lat="48.80363" lon="5.18261">
        <ele>267</ele>
        <time>2023-01-30T15:07:27.000Z</time>
      </trkpt>
      <trkpt lat="48.80362" lon="5.1826">
        <ele>267</ele>
        <time>2023-01-30T15:07:28.000Z</time>
      </trkpt>
      <trkpt lat="48.80361" lon="5.18258">
        <ele>267.3</ele>
        <time>2023-01-30T15:07:29.000Z</time>
      </trkpt>
      <trkpt lat="48.80359" lon="5.18257">
        <ele>267.7</ele>
        <time>2023-01-30T15:07:30.000Z</time>
      </trkpt>
      <trkpt lat="48.80358" lon="5.18256">
        <ele>268</ele>
        <time>2023-01-30T15:07:31.000Z</time>
      </trkpt>
      <trkpt lat="48.80356" lon="5.18255">
        <ele>268</ele>
        <time>2023-01-30T15:07:32.000Z</time>
      </trkpt>
      <trkpt lat="48.80355" lon="5.18254">
        <ele>268</ele>
        <time>2023-01-30T15:07:33.000Z</time>
      </trkpt>
      <trkpt lat="48.80353" lon="5.18253">
        <ele>268</ele>
        <time>2023-01-30T15:07:34.000Z</time>
      </trkpt>
      <trkpt lat="48.80352" lon="5.18253">
        <ele>268</ele>
        <time>2023-01-30T15:07:35.000Z</time>
      </trkpt>
      <trkpt lat="48.8035" lon="5.18252">
        <ele>268</ele>
        <time>2023-01-30T15:07:36.000Z</time>
      </trkpt>
      <trkpt lat="48.80349" lon="5.18251">
        <ele>268.3</ele>
        <time>2023-01-30T15:07:37.000Z</time>
      </trkpt>
      <trkpt lat="48.80347" lon="5.1825">
        <ele>268.7</ele>
        <time>2023-01-30T15:07:38.000Z</time>
      </trkpt>
      <trkpt lat="48.80345" lon="5.18248">
        <ele>269</ele>
        <time>2023-01-30T15:07:39.000Z</time>
      </trkpt>
      <trkpt lat="48.80344" lon="5.18247">
        <ele>269</ele>
        <time>2023-01-30T15:07:40.000Z</time>
      </trkpt>
      <trkpt lat="48.80343" lon="5.18246">
        <ele>269</ele>
        <time>2023-01-30T15:07:41.000Z</time>
      </trkpt>
      <trkpt lat="48.80342" lon="5.18245">
        <ele>269</ele>
        <time>2023-01-30T15:07:42.000Z</time>
      </trkpt>
      <trkpt lat="48.80341" lon="5.18244">
        <ele>269.3</ele>
        <time>2023-01-30T15:07:43.000Z</time>
      </trkpt>
      <trkpt lat="48.80341" lon="5.18243">
        <ele>269.7</ele>
        <time>2023-01-30T15:07:44.000Z</time>
      </trkpt>
      <trkpt lat="48.8034" lon="5.18242">
        <ele>270</ele>
        <time>2023-01-30T15:07:45.000Z</time>
      </trkpt>
      <trkpt lat="48.8034" lon="5.18241">
        <ele>270</ele>
        <time>2023-01-30T15:07:46.000Z</time>
      </trkpt>
      <trkpt lat="48.80339" lon="5.1824">
        <ele>270</ele>
        <time>2023-01-30T15:07:47.000Z</time>
      </trkpt>
      <trkpt lat="48.80339" lon="5.18239">
        <ele>270</ele>
        <time>2023-01-30T15:07:48.000Z</time>
      </trkpt>
      <trkpt lat="48.80338" lon="5.18238">
        <ele>270</ele>
        <time>2023-01-30T15:07:49.000Z</time>
      </trkpt>
      <trkpt lat="48.80338" lon="5.18237">
        <ele>271</ele>
        <time>2023-01-30T15:07:50.000Z</time>
      </trkpt>
      <trkpt lat="48.80337" lon="5.18236">
        <ele>271</ele>
        <time>2023-01-30T15:07:51.000Z</time>
      </trkpt>
      <trkpt lat="48.80336" lon="5.18234">
        <ele>271</ele>
        <time>2023-01-30T15:07:52.000Z</time>
      </trkpt>
      <trkpt lat="48.80336" lon="5.18233">
        <ele>271</ele>
        <time>2023-01-30T15:07:53.000Z</time>
      </trkpt>
      <trkpt lat="48.80336" lon="5.18231">
        <ele>271</ele>
        <time>2023-01-30T15:07:54.000Z</time>
      </trkpt>
      <trkpt lat="48.80335" lon="5.1823">
        <ele>271</ele>
        <time>2023-01-30T15:07:55.000Z</time>
      </trkpt>
      <trkpt lat="48.80335" lon="5.18228">
        <ele>271</ele>
        <time>2023-01-30T15:07:56.000Z</time>
      </trkpt>
      <trkpt lat="48.80335" lon="5.18227">
        <ele>271</ele>
        <time>2023-01-30T15:07:57.000Z</time>
      </trkpt>
      <trkpt lat="48.80335" lon="5.18225">
        <ele>271</ele>
        <time>2023-01-30T15:07:58.000Z</time>
      </trkpt>
      <trkpt lat="48.80334" lon="5.18223">
        <ele>271</ele>
        <time>2023-01-30T15:07:59.000Z</time>
      </trkpt>
      <trkpt lat="48.80334" lon="5.1822">
        <ele>271</ele>
        <time>2023-01-30T15:08:00.000Z</time>
      </trkpt>
      <trkpt lat="48.80334" lon="5.18218">
        <ele>271</ele>
        <time>2023-01-30T15:08:01.000Z</time>
      </trkpt>
      <trkpt lat="48.80334" lon="5.18216">
        <ele>271</ele>
        <time>2023-01-30T15:08:02.000Z</time>
      </trkpt>
      <trkpt lat="48.80334" lon="5.18214">
        <ele>271</ele>
        <time>2023-01-30T15:08:03.000Z</time>
      </trkpt>
      <trkpt lat="48.80333" lon="5.18212">
        <ele>271</ele>
        <time>2023-01-30T15:08:04.000Z</time>
      </trkpt>
      <trkpt lat="48.80333" lon="5.1821">
        <ele>271</ele>
        <time>2023-01-30T15:08:05.000Z</time>
      </trkpt>
      <trkpt lat="48.80333" lon="5.18208">
        <ele>271</ele>
        <time>2023-01-30T15:08:06.000Z</time>
      </trkpt>
      <trkpt lat="48.80333" lon="5.18206">
        <ele>271</ele>
        <time>2023-01-30T15:08:07.000Z</time>
      </trkpt>
      <trkpt lat="48.80333" lon="5.18205">
        <ele>271</ele>
        <time>2023-01-30T15:08:08.000Z</time>
      </trkpt>
      <trkpt lat="48.80333" lon="5.18203">
        <ele>270.7</ele>
        <time>2023-01-30T15:08:09.000Z</time>
      </trkpt>
      <trkpt lat="48.80333" lon="5.18201">
        <ele>270.3</ele>
        <time>2023-01-30T15:08:10.000Z</time>
      </trkpt>
      <trkpt lat="48.80332" lon="5.18199">
        <ele>270</ele>
        <time>2023-01-30T15:08:11.000Z</time>
      </trkpt>
      <trkpt lat="48.80332" lon="5.18196">
        <ele>270</ele>
        <time>2023-01-30T15:08:12.000Z</time>
      </trkpt>
      <trkpt lat="48.80333" lon="5.18194">
        <ele>270</ele>
        <time>2023-01-30T15:08:13.000Z</time>
      </trkpt>
      <trkpt lat="48.80333" lon="5.18192">
        <ele>270</ele>
        <time>2023-01-30T15:08:14.000Z</time>
      </trkpt>
      <trkpt lat="48.80333" lon="5.1819">
        <ele>270</ele>
        <time>2023-01-30T15:08:15.000Z</time>
      </trkpt>
      <trkpt lat="48.80334" lon="5.18188">
        <ele>270</ele>
        <time>2023-01-30T15:08:16.000Z</time>
      </trkpt>
      <trkpt lat="48.80335" lon="5.18186">
        <ele>270</ele>
        <time>2023-01-30T15:08:17.000Z</time>
      </trkpt>
      <trkpt lat="48.80336" lon="5.18185">
        <ele>270</ele>
        <time>2023-01-30T15:08:18.000Z</time>
      </trkpt>
      <trkpt lat="48.80337" lon="5.18184">
        <ele>270</ele>
        <time>2023-01-30T15:08:19.000Z</time>
      </trkpt>
      <trkpt lat="48.80337" lon="5.18182">
        <ele>270</ele>
        <time>2023-01-30T15:08:20.000Z</time>
      </trkpt>
      <trkpt lat="48.80338" lon="5.18179">
        <ele>270</ele>
        <time>2023-01-30T15:08:21.000Z</time>
      </trkpt>
      <trkpt lat="48.80338" lon="5.18176">
        <ele>270</ele>
        <time>2023-01-30T15:08:22.000Z</time>
      </trkpt>
      <trkpt lat="48.80338" lon="5.18173">
        <ele>270</ele>
        <time>2023-01-30T15:08:23.000Z</time>
      </trkpt>
      <trkpt lat="48.80338" lon="5.1817">
        <ele>270</ele>
        <time>2023-01-30T15:08:24.000Z</time>
      </trkpt>
      <trkpt lat="48.80338" lon="5.18168">
        <ele>270</ele>
        <time>2023-01-30T15:08:25.000Z</time>
      </trkpt>
      <trkpt lat="48.80338" lon="5.18166">
        <ele>270</ele>
        <time>2023-01-30T15:08:26.000Z</time>
      </trkpt>
      <trkpt lat="48.80338" lon="5.18164">
        <ele>270</ele>
        <time>2023-01-30T15:08:27.000Z</time>
      </trkpt>
      <trkpt lat="48.80338" lon="5.18162">
        <ele>270</ele>
        <time>2023-01-30T15:08:28.000Z</time>
      </trkpt>
      <trkpt lat="48.80338" lon="5.18161">
        <ele>270</ele>
        <time>2023-01-30T15:08:29.000Z</time>
      </trkpt>
      <trkpt lat="48.80338" lon="5.18159">
        <ele>270</ele>
        <time>2023-01-30T15:08:30.000Z</time>
      </trkpt>
      <trkpt lat="48.80337" lon="5.18158">
        <ele>270</ele>
        <time>2023-01-30T15:08:31.000Z</time>
      </trkpt>
      <trkpt lat="48.80337" lon="5.18156">
        <ele>270</ele>
        <time>2023-01-30T15:08:32.000Z</time>
      </trkpt>
      <trkpt lat="48.80337" lon="5.18155">
        <ele>270</ele>
        <time>2023-01-30T15:08:33.000Z</time>
      </trkpt>
      <trkpt lat="48.80337" lon="5.18153">
        <ele>270</ele>
        <time>2023-01-30T15:08:34.000Z</time>
      </trkpt>
      <trkpt lat="48.80337" lon="5.18151">
        <ele>270</ele>
        <time>2023-01-30T15:08:35.000Z</time>
      </trkpt>
      <trkpt lat="48.80337" lon="5.18149">
        <ele>270</ele>
        <time>2023-01-30T15:08:36.000Z</time>
      </trkpt>
      <trkpt lat="48.80337" lon="5.18147">
        <ele>270</ele>
        <time>2023-01-30T15:08:37.000Z</time>
      </trkpt>
      <trkpt lat="48.80337" lon="5.18146">
        <ele>270</ele>
        <time>2023-01-30T15:08:38.000Z</time>
      </trkpt>
      <trkpt lat="48.80337" lon="5.18144">
        <ele>270</ele>
        <time>2023-01-30T15:08:39.000Z</time>
      </trkpt>
      <trkpt lat="48.80338" lon="5.18143">
        <ele>270</ele>
        <time>2023-01-30T15:08:40.000Z</time>
      </trkpt>
      <trkpt lat="48.80338" lon="5.18142">
        <ele>270</ele>
        <time>2023-01-30T15:08:41.000Z</time>
      </trkpt>
      <trkpt lat="48.80338" lon="5.1814">
        <ele>270.5</ele>
        <time>2023-01-30T15:08:42.000Z</time>
      </trkpt>
      <trkpt lat="48.80339" lon="5.18137">
        <ele>271</ele>
        <time>2023-01-30T15:08:43.000Z</time>
      </trkpt>
      <trkpt lat="48.80339" lon="5.18135">
        <ele>271</ele>
        <time>2023-01-30T15:08:44.000Z</time>
      </trkpt>
      <trkpt lat="48.80339" lon="5.18133">
        <ele>271</ele>
        <time>2023-01-30T15:08:45.000Z</time>
      </trkpt>
      <trkpt lat="48.80339" lon="5.1813">
        <ele>271</ele>
        <time>2023-01-30T15:08:46.000Z</time>
      </trkpt>
      <trkpt lat="48.8034" lon="5.18128">
        <ele>271</ele>
        <time>2023-01-30T15:08:47.000Z</time>
      </trkpt>
      <trkpt lat="48.8034" lon="5.18126">
        <ele>271</ele>
        <time>2023-01-30T15:08:48.000Z</time>
      </trkpt>
      <trkpt lat="48.8034" lon="5.18124">
        <ele>271</ele>
        <time>2023-01-30T15:08:49.000Z</time>
      </trkpt>
      <trkpt lat="48.8034" lon="5.18121">
        <ele>271</ele>
        <time>2023-01-30T15:08:50.000Z</time>
      </trkpt>
      <trkpt lat="48.8034" lon="5.18118">
        <ele>271</ele>
        <time>2023-01-30T15:08:51.000Z</time>
      </trkpt>
      <trkpt lat="48.8034" lon="5.18115">
        <ele>271</ele>
        <time>2023-01-30T15:08:52.000Z</time>
      </trkpt>
      <trkpt lat="48.8034" lon="5.18112">
        <ele>271</ele>
        <time>2023-01-30T15:08:53.000Z</time>
      </trkpt>
      <trkpt lat="48.8034" lon="5.18109">
        <ele>271</ele>
        <time>2023-01-30T15:08:54.000Z</time>
      </trkpt>
      <trkpt lat="48.8034" lon="5.18105">
        <ele>271</ele>
        <time>2023-01-30T15:08:55.000Z</time>
      </trkpt>
      <trkpt lat="48.80341" lon="5.18102">
        <ele>271</ele>
        <time>2023-01-30T15:08:56.000Z</time>
      </trkpt>
      <trkpt lat="48.80341" lon="5.18099">
        <ele>271</ele>
        <time>2023-01-30T15:08:57.000Z</time>
      </trkpt>
      <trkpt lat="48.80342" lon="5.18096">
        <ele>271</ele>
        <time>2023-01-30T15:08:58.000Z</time>
      </trkpt>
      <trkpt lat="48.80342" lon="5.18093">
        <ele>271</ele>
        <time>2023-01-30T15:08:59.000Z</time>
      </trkpt>
      <trkpt lat="48.80342" lon="5.1809">
        <ele>271</ele>
        <time>2023-01-30T15:09:00.000Z</time>
      </trkpt>
      <trkpt lat="48.80343" lon="5.18087">
        <ele>271</ele>
        <time>2023-01-30T15:09:01.000Z</time>
      </trkpt>
      <trkpt lat="48.80343" lon="5.18084">
        <ele>271</ele>
        <time>2023-01-30T15:09:02.000Z</time>
      </trkpt>
      <trkpt lat="48.80343" lon="5.18081">
        <ele>271</ele>
        <time>2023-01-30T15:09:03.000Z</time>
      </trkpt>
      <trkpt lat="48.80344" lon="5.18078">
        <ele>271</ele>
        <time>2023-01-30T15:09:04.000Z</time>
      </trkpt>
      <trkpt lat="48.80344" lon="5.18075">
        <ele>271</ele>
        <time>2023-01-30T15:09:05.000Z</time>
      </trkpt>
      <trkpt lat="48.80345" lon="5.18072">
        <ele>271</ele>
        <time>2023-01-30T15:09:06.000Z</time>
      </trkpt>
      <trkpt lat="48.80344" lon="5.1807">
        <ele>271</ele>
        <time>2023-01-30T15:09:07.000Z</time>
      </trkpt>
      <trkpt lat="48.80344" lon="5.18067">
        <ele>271</ele>
        <time>2023-01-30T15:09:08.000Z</time>
      </trkpt>
      <trkpt lat="48.80344" lon="5.18065">
        <ele>271</ele>
        <time>2023-01-30T15:09:09.000Z</time>
      </trkpt>
      <trkpt lat="48.80344" lon="5.18062">
        <ele>271</ele>
        <time>2023-01-30T15:09:10.000Z</time>
      </trkpt>
      <trkpt lat="48.80344" lon="5.1806">
        <ele>271</ele>
        <time>2023-01-30T15:09:11.000Z</time>
      </trkpt>
      <trkpt lat="48.80344" lon="5.18057">
        <ele>271</ele>
        <time>2023-01-30T15:09:12.000Z</time>
      </trkpt>
      <trkpt lat="48.80344" lon="5.18055">
        <ele>271</ele>
        <time>2023-01-30T15:09:13.000Z</time>
      </trkpt>
      <trkpt lat="48.80344" lon="5.18053">
        <ele>271</ele>
        <time>2023-01-30T15:09:14.000Z</time>
      </trkpt>
      <trkpt lat="48.80344" lon="5.18051">
        <ele>271</ele>
        <time>2023-01-30T15:09:15.000Z</time>
      </trkpt>
      <trkpt lat="48.80344" lon="5.18048">
        <ele>271</ele>
        <time>2023-01-30T15:09:16.000Z</time>
      </trkpt>
      <trkpt lat="48.80343" lon="5.18046">
        <ele>271</ele>
        <time>2023-01-30T15:09:17.000Z</time>
      </trkpt>
      <trkpt lat="48.80343" lon="5.18044">
        <ele>271</ele>
        <time>2023-01-30T15:09:18.000Z</time>
      </trkpt>
      <trkpt lat="48.80343" lon="5.18042">
        <ele>271</ele>
        <time>2023-01-30T15:09:19.000Z</time>
      </trkpt>
      <trkpt lat="48.80343" lon="5.18041">
        <ele>271</ele>
        <time>2023-01-30T15:09:20.000Z</time>
      </trkpt>
      <trkpt lat="48.80343" lon="5.1804">
        <ele>271</ele>
        <time>2023-01-30T15:09:21.000Z</time>
      </trkpt>
      <trkpt lat="48.80343" lon="5.18039">
        <ele>271</ele>
        <time>2023-01-30T15:09:22.000Z</time>
      </trkpt>
      <trkpt lat="48.80343" lon="5.18037">
        <ele>271</ele>
        <time>2023-01-30T15:09:23.000Z</time>
      </trkpt>
      <trkpt lat="48.80343" lon="5.18036">
        <ele>271</ele>
        <time>2023-01-30T15:09:24.000Z</time>
      </trkpt>
      <trkpt lat="48.80343" lon="5.18034">
        <ele>271</ele>
        <time>2023-01-30T15:09:25.000Z</time>
      </trkpt>
      <trkpt lat="48.80343" lon="5.18032">
        <ele>271</ele>
        <time>2023-01-30T15:09:26.000Z</time>
      </trkpt>
      <trkpt lat="48.80343" lon="5.1803">
        <ele>271</ele>
        <time>2023-01-30T15:09:27.000Z</time>
      </trkpt>
      <trkpt lat="48.80344" lon="5.18028">
        <ele>270</ele>
        <time>2023-01-30T15:09:28.000Z</time>
      </trkpt>
      <trkpt lat="48.80344" lon="5.18026">
        <ele>270</ele>
        <time>2023-01-30T15:09:29.000Z</time>
      </trkpt>
      <trkpt lat="48.80345" lon="5.18023">
        <ele>270</ele>
        <time>2023-01-30T15:09:30.000Z</time>
      </trkpt>
      <trkpt lat="48.80347" lon="5.18022">
        <ele>270</ele>
        <time>2023-01-30T15:09:31.000Z</time>
      </trkpt>
      <trkpt lat="48.80348" lon="5.1802">
        <ele>270</ele>
        <time>2023-01-30T15:09:32.000Z</time>
      </trkpt>
      <trkpt lat="48.8035" lon="5.1802">
        <ele>270</ele>
        <time>2023-01-30T15:09:33.000Z</time>
      </trkpt>
      <trkpt lat="48.80352" lon="5.18019">
        <ele>270</ele>
        <time>2023-01-30T15:09:34.000Z</time>
      </trkpt>
      <trkpt lat="48.80354" lon="5.18019">
        <ele>270</ele>
        <time>2023-01-30T15:09:35.000Z</time>
      </trkpt>
      <trkpt lat="48.80357" lon="5.18019">
        <ele>269</ele>
        <time>2023-01-30T15:09:36.000Z</time>
      </trkpt>
      <trkpt lat="48.80359" lon="5.1802">
        <ele>269</ele>
        <time>2023-01-30T15:09:37.000Z</time>
      </trkpt>
      <trkpt lat="48.8036" lon="5.18019">
        <ele>269</ele>
        <time>2023-01-30T15:09:38.000Z</time>
      </trkpt>
      <trkpt lat="48.80361" lon="5.18018">
        <ele>269</ele>
        <time>2023-01-30T15:09:39.000Z</time>
      </trkpt>
      <trkpt lat="48.80361" lon="5.18018">
        <ele>269</ele>
        <time>2023-01-30T15:09:40.000Z</time>
      </trkpt>
      <trkpt lat="48.80362" lon="5.18017">
        <ele>269</ele>
        <time>2023-01-30T15:09:41.000Z</time>
      </trkpt>
      <trkpt lat="48.80363" lon="5.18015">
        <ele>269</ele>
        <time>2023-01-30T15:09:42.000Z</time>
      </trkpt>
      <trkpt lat="48.80363" lon="5.18013">
        <ele>269</ele>
        <time>2023-01-30T15:09:43.000Z</time>
      </trkpt>
      <trkpt lat="48.80364" lon="5.18011">
        <ele>269</ele>
        <time>2023-01-30T15:09:44.000Z</time>
      </trkpt>
      <trkpt lat="48.80365" lon="5.18009">
        <ele>268.7</ele>
        <time>2023-01-30T15:09:45.000Z</time>
      </trkpt>
      <trkpt lat="48.80365" lon="5.18006">
        <ele>268.3</ele>
        <time>2023-01-30T15:09:46.000Z</time>
      </trkpt>
      <trkpt lat="48.80366" lon="5.18004">
        <ele>268</ele>
        <time>2023-01-30T15:09:47.000Z</time>
      </trkpt>
      <trkpt lat="48.80366" lon="5.18002">
        <ele>268</ele>
        <time>2023-01-30T15:09:48.000Z</time>
      </trkpt>
      <trkpt lat="48.80366" lon="5.17999">
        <ele>268</ele>
        <time>2023-01-30T15:09:49.000Z</time>
      </trkpt>
      <trkpt lat="48.80366" lon="5.17997">
        <ele>268</ele>
        <time>2023-01-30T15:09:50.000Z</time>
      </trkpt>
      <trkpt lat="48.80366" lon="5.17995">
        <ele>268</ele>
        <time>2023-01-30T15:09:51.000Z</time>
      </trkpt>
      <trkpt lat="48.80366" lon="5.17992">
        <ele>268</ele>
        <time>2023-01-30T15:09:52.000Z</time>
      </trkpt>
      <trkpt lat="48.80366" lon="5.17989">
        <ele>268</ele>
        <time>2023-01-30T15:09:53.000Z</time>
      </trkpt>
      <trkpt lat="48.80366" lon="5.17986">
        <ele>268</ele>
        <time>2023-01-30T15:09:54.000Z</time>
      </trkpt>
      <trkpt lat="48.80366" lon="5.17984">
        <ele>268</ele>
        <time>2023-01-30T15:09:55.000Z</time>
      </trkpt>
      <trkpt lat="48.80366" lon="5.17982">
        <ele>268</ele>
        <time>2023-01-30T15:09:56.000Z</time>
      </trkpt>
      <trkpt lat="48.80366" lon="5.17981">
        <ele>268</ele>
        <time>2023-01-30T15:09:57.000Z</time>
      </trkpt>
      <trkpt lat="48.80366" lon="5.17979">
        <ele>268</ele>
        <time>2023-01-30T15:09:58.000Z</time>
      </trkpt>
      <trkpt lat="48.80367" lon="5.17978">
        <ele>268</ele>
        <time>2023-01-30T15:09:59.000Z</time>
      </trkpt>
      <trkpt lat="48.80367" lon="5.17976">
        <ele>268</ele>
        <time>2023-01-30T15:10:00.000Z</time>
      </trkpt>
      <trkpt lat="48.80367" lon="5.17974">
        <ele>268</ele>
        <time>2023-01-30T15:10:01.000Z</time>
      </trkpt>
      <trkpt lat="48.80366" lon="5.17972">
        <ele>268</ele>
        <time>2023-01-30T15:10:02.000Z</time>
      </trkpt>
      <trkpt lat="48.80366" lon="5.1797">
        <ele>268</ele>
        <time>2023-01-30T15:10:03.000Z</time>
      </trkpt>
      <trkpt lat="48.80366" lon="5.17968">
        <ele>268</ele>
        <time>2023-01-30T15:10:04.000Z</time>
      </trkpt>
      <trkpt lat="48.80365" lon="5.17965">
        <ele>268</ele>
        <time>2023-01-30T15:10:05.000Z</time>
      </trkpt>
      <trkpt lat="48.80365" lon="5.17963">
        <ele>268</ele>
        <time>2023-01-30T15:10:06.000Z</time>
      </trkpt>
      <trkpt lat="48.80365" lon="5.1796">
        <ele>268</ele>
        <time>2023-01-30T15:10:07.000Z</time>
      </trkpt>
      <trkpt lat="48.80364" lon="5.17957">
        <ele>268</ele>
        <time>2023-01-30T15:10:08.000Z</time>
      </trkpt>
      <trkpt lat="48.80364" lon="5.17954">
        <ele>268</ele>
        <time>2023-01-30T15:10:09.000Z</time>
      </trkpt>
      <trkpt lat="48.80363" lon="5.17952">
        <ele>268</ele>
        <time>2023-01-30T15:10:10.000Z</time>
      </trkpt>
      <trkpt lat="48.80363" lon="5.1795">
        <ele>268</ele>
        <time>2023-01-30T15:10:11.000Z</time>
      </trkpt>
      <trkpt lat="48.80363" lon="5.17947">
        <ele>268</ele>
        <time>2023-01-30T15:10:12.000Z</time>
      </trkpt>
      <trkpt lat="48.80363" lon="5.17945">
        <ele>268</ele>
        <time>2023-01-30T15:10:13.000Z</time>
      </trkpt>
      <trkpt lat="48.80363" lon="5.17943">
        <ele>268</ele>
        <time>2023-01-30T15:10:14.000Z</time>
      </trkpt>
      <trkpt lat="48.80362" lon="5.17941">
        <ele>267.7</ele>
        <time>2023-01-30T15:10:15.000Z</time>
      </trkpt>
      <trkpt lat="48.80362" lon="5.17939">
        <ele>267.3</ele>
        <time>2023-01-30T15:10:16.000Z</time>
      </trkpt>
      <trkpt lat="48.80362" lon="5.17937">
        <ele>267</ele>
        <time>2023-01-30T15:10:17.000Z</time>
      </trkpt>
      <trkpt lat="48.80363" lon="5.17936">
        <ele>267</ele>
        <time>2023-01-30T15:10:18.000Z</time>
      </trkpt>
      <trkpt lat="48.80365" lon="5.17935">
        <ele>267</ele>
        <time>2023-01-30T15:10:19.000Z</time>
      </trkpt>
      <trkpt lat="48.80366" lon="5.17934">
        <ele>267</ele>
        <time>2023-01-30T15:10:20.000Z</time>
      </trkpt>
      <trkpt lat="48.80366" lon="5.17934">
        <ele>267</ele>
        <time>2023-01-30T15:10:21.000Z</time>
      </trkpt>
      <trkpt lat="48.80366" lon="5.17933">
        <ele>267</ele>
        <time>2023-01-30T15:10:22.000Z</time>
      </trkpt>
      <trkpt lat="48.80367" lon="5.17933">
        <ele>266.5</ele>
        <time>2023-01-30T15:10:23.000Z</time>
      </trkpt>
      <trkpt lat="48.80367" lon="5.17932">
        <ele>266</ele>
        <time>2023-01-30T15:10:24.000Z</time>
      </trkpt>
      <trkpt lat="48.80367" lon="5.17932">
        <ele>266</ele>
        <time>2023-01-30T15:10:25.000Z</time>
      </trkpt>
      <trkpt lat="48.80367" lon="5.17931">
        <ele>266</ele>
        <time>2023-01-30T15:10:26.000Z</time>
      </trkpt>
      <trkpt lat="48.80368" lon="5.1793">
        <ele>266</ele>
        <time>2023-01-30T15:10:27.000Z</time>
      </trkpt>
      <trkpt lat="48.80369" lon="5.17929">
        <ele>266</ele>
        <time>2023-01-30T15:10:28.000Z</time>
      </trkpt>
      <trkpt lat="48.80369" lon="5.17928">
        <ele>266</ele>
        <time>2023-01-30T15:10:29.000Z</time>
      </trkpt>
      <trkpt lat="48.8037" lon="5.17926">
        <ele>266</ele>
        <time>2023-01-30T15:10:30.000Z</time>
      </trkpt>
      <trkpt lat="48.8037" lon="5.17924">
        <ele>266</ele>
        <time>2023-01-30T15:10:31.000Z</time>
      </trkpt>
      <trkpt lat="48.8037" lon="5.17922">
        <ele>266</ele>
        <time>2023-01-30T15:10:32.000Z</time>
      </trkpt>
      <trkpt lat="48.8037" lon="5.1792">
        <ele>266</ele>
        <time>2023-01-30T15:10:33.000Z</time>
      </trkpt>
      <trkpt lat="48.8037" lon="5.17918">
        <ele>266</ele>
        <time>2023-01-30T15:10:34.000Z</time>
      </trkpt>
      <trkpt lat="48.8037" lon="5.17916">
        <ele>265.5</ele>
        <time>2023-01-30T15:10:35.000Z</time>
      </trkpt>
      <trkpt lat="48.8037" lon="5.17915">
        <ele>265</ele>
        <time>2023-01-30T15:10:36.000Z</time>
      </trkpt>
      <trkpt lat="48.8037" lon="5.17913">
        <ele>265</ele>
        <time>2023-01-30T15:10:37.000Z</time>
      </trkpt>
      <trkpt lat="48.8037" lon="5.17912">
        <ele>265</ele>
        <time>2023-01-30T15:10:38.000Z</time>
      </trkpt>
      <trkpt lat="48.8037" lon="5.1791">
        <ele>265</ele>
        <time>2023-01-30T15:10:39.000Z</time>
      </trkpt>
      <trkpt lat="48.8037" lon="5.17908">
        <ele>265</ele>
        <time>2023-01-30T15:10:40.000Z</time>
      </trkpt>
      <trkpt lat="48.8037" lon="5.17905">
        <ele>265</ele>
        <time>2023-01-30T15:10:41.000Z</time>
      </trkpt>
      <trkpt lat="48.80369" lon="5.17902">
        <ele>265</ele>
        <time>2023-01-30T15:10:42.000Z</time>
      </trkpt>
      <trkpt lat="48.80369" lon="5.17899">
        <ele>265</ele>
        <time>2023-01-30T15:10:43.000Z</time>
      </trkpt>
      <trkpt lat="48.80369" lon="5.17897">
        <ele>265</ele>
        <time>2023-01-30T15:10:44.000Z</time>
      </trkpt>
      <trkpt lat="48.80369" lon="5.17894">
        <ele>265</ele>
        <time>2023-01-30T15:10:45.000Z</time>
      </trkpt>
      <trkpt lat="48.80369" lon="5.17891">
        <ele>265</ele>
        <time>2023-01-30T15:10:46.000Z</time>
      </trkpt>
      <trkpt lat="48.80369" lon="5.17889">
        <ele>265</ele>
        <time>2023-01-30T15:10:47.000Z</time>
      </trkpt>
      <trkpt lat="48.80369" lon="5.17887">
        <ele>265</ele>
        <time>2023-01-30T15:10:48.000Z</time>
      </trkpt>
      <trkpt lat="48.80369" lon="5.17884">
        <ele>265</ele>
        <time>2023-01-30T15:10:49.000Z</time>
      </trkpt>
      <trkpt lat="48.80369" lon="5.17882">
        <ele>265</ele>
        <time>2023-01-30T15:10:50.000Z</time>
      </trkpt>
      <trkpt lat="48.80369" lon="5.1788">
        <ele>265</ele>
        <time>2023-01-30T15:10:51.000Z</time>
      </trkpt>
      <trkpt lat="48.80369" lon="5.17879">
        <ele>265</ele>
        <time>2023-01-30T15:10:52.000Z</time>
      </trkpt>
      <trkpt lat="48.80369" lon="5.17876">
        <ele>265</ele>
        <time>2023-01-30T15:10:53.000Z</time>
      </trkpt>
      <trkpt lat="48.80369" lon="5.17873">
        <ele>265</ele>
        <time>2023-01-30T15:10:54.000Z</time>
      </trkpt>
      <trkpt lat="48.80369" lon="5.1787">
        <ele>265</ele>
        <time>2023-01-30T15:10:55.000Z</time>
      </trkpt>
      <trkpt lat="48.80369" lon="5.17868">
        <ele>265</ele>
        <time>2023-01-30T15:10:56.000Z</time>
      </trkpt>
      <trkpt lat="48.80369" lon="5.17865">
        <ele>265</ele>
        <time>2023-01-30T15:10:57.000Z</time>
      </trkpt>
      <trkpt lat="48.80369" lon="5.17862">
        <ele>265</ele>
        <time>2023-01-30T15:10:58.000Z</time>
      </trkpt>
      <trkpt lat="48.80369" lon="5.1786">
        <ele>265</ele>
        <time>2023-01-30T15:10:59.000Z</time>
      </trkpt>
      <trkpt lat="48.80368" lon="5.17857">
        <ele>264</ele>
        <time>2023-01-30T15:11:00.000Z</time>
      </trkpt>
      <trkpt lat="48.80368" lon="5.17854">
        <ele>264</ele>
        <time>2023-01-30T15:11:01.000Z</time>
      </trkpt>
      <trkpt lat="48.80368" lon="5.17852">
        <ele>264</ele>
        <time>2023-01-30T15:11:02.000Z</time>
      </trkpt>
      <trkpt lat="48.80368" lon="5.1785">
        <ele>264</ele>
        <time>2023-01-30T15:11:03.000Z</time>
      </trkpt>
      <trkpt lat="48.80368" lon="5.17847">
        <ele>264</ele>
        <time>2023-01-30T15:11:04.000Z</time>
      </trkpt>
      <trkpt lat="48.80368" lon="5.17845">
        <ele>264</ele>
        <time>2023-01-30T15:11:05.000Z</time>
      </trkpt>
      <trkpt lat="48.80368" lon="5.17843">
        <ele>264</ele>
        <time>2023-01-30T15:11:06.000Z</time>
      </trkpt>
      <trkpt lat="48.80368" lon="5.17842">
        <ele>264</ele>
        <time>2023-01-30T15:11:07.000Z</time>
      </trkpt>
      <trkpt lat="48.80368" lon="5.1784">
        <ele>264</ele>
        <time>2023-01-30T15:11:08.000Z</time>
      </trkpt>
      <trkpt lat="48.80368" lon="5.17839">
        <ele>264</ele>
        <time>2023-01-30T15:11:09.000Z</time>
      </trkpt>
      <trkpt lat="48.80368" lon="5.17838">
        <ele>264</ele>
        <time>2023-01-30T15:11:10.000Z</time>
      </trkpt>
      <trkpt lat="48.80368" lon="5.17837">
        <ele>264</ele>
        <time>2023-01-30T15:11:11.000Z</time>
      </trkpt>
      <trkpt lat="48.80368" lon="5.17835">
        <ele>264</ele>
        <time>2023-01-30T15:11:12.000Z</time>
      </trkpt>
      <trkpt lat="48.80368" lon="5.17834">
        <ele>264</ele>
        <time>2023-01-30T15:11:13.000Z</time>
      </trkpt>
      <trkpt lat="48.80367" lon="5.17831">
        <ele>264</ele>
        <time>2023-01-30T15:11:14.000Z</time>
      </trkpt>
      <trkpt lat="48.80366" lon="5.17829">
        <ele>263.7</ele>
        <time>2023-01-30T15:11:15.000Z</time>
      </trkpt>
      <trkpt lat="48.80366" lon="5.17827">
        <ele>263.3</ele>
        <time>2023-01-30T15:11:16.000Z</time>
      </trkpt>
      <trkpt lat="48.80366" lon="5.17825">
        <ele>263</ele>
        <time>2023-01-30T15:11:17.000Z</time>
      </trkpt>
      <trkpt lat="48.80366" lon="5.17823">
        <ele>263</ele>
        <time>2023-01-30T15:11:18.000Z</time>
      </trkpt>
      <trkpt lat="48.80366" lon="5.1782">
        <ele>263</ele>
        <time>2023-01-30T15:11:19.000Z</time>
      </trkpt>
      <trkpt lat="48.80365" lon="5.17817">
        <ele>263</ele>
        <time>2023-01-30T15:11:20.000Z</time>
      </trkpt>
      <trkpt lat="48.80365" lon="5.17814">
        <ele>263</ele>
        <time>2023-01-30T15:11:21.000Z</time>
      </trkpt>
      <trkpt lat="48.80364" lon="5.17811">
        <ele>263</ele>
        <time>2023-01-30T15:11:22.000Z</time>
      </trkpt>
      <trkpt lat="48.80364" lon="5.17808">
        <ele>263</ele>
        <time>2023-01-30T15:11:23.000Z</time>
      </trkpt>
      <trkpt lat="48.80363" lon="5.17806">
        <ele>263</ele>
        <time>2023-01-30T15:11:24.000Z</time>
      </trkpt>
      <trkpt lat="48.80363" lon="5.17804">
        <ele>263</ele>
        <time>2023-01-30T15:11:25.000Z</time>
      </trkpt>
      <trkpt lat="48.80362" lon="5.17802">
        <ele>263</ele>
        <time>2023-01-30T15:11:26.000Z</time>
      </trkpt>
      <trkpt lat="48.80362" lon="5.178">
        <ele>263</ele>
        <time>2023-01-30T15:11:27.000Z</time>
      </trkpt>
      <trkpt lat="48.80361" lon="5.17797">
        <ele>263</ele>
        <time>2023-01-30T15:11:28.000Z</time>
      </trkpt>
      <trkpt lat="48.8036" lon="5.17795">
        <ele>263</ele>
        <time>2023-01-30T15:11:29.000Z</time>
      </trkpt>
      <trkpt lat="48.8036" lon="5.17793">
        <ele>263</ele>
        <time>2023-01-30T15:11:30.000Z</time>
      </trkpt>
      <trkpt lat="48.8036" lon="5.1779">
        <ele>263</ele>
        <time>2023-01-30T15:11:31.000Z</time>
      </trkpt>
      <trkpt lat="48.8036" lon="5.17789">
        <ele>262</ele>
        <time>2023-01-30T15:11:32.000Z</time>
      </trkpt>
      <trkpt lat="48.80361" lon="5.17787">
        <ele>262.3</ele>
        <time>2023-01-30T15:11:33.000Z</time>
      </trkpt>
      <trkpt lat="48.80361" lon="5.17785">
        <ele>262.7</ele>
        <time>2023-01-30T15:11:34.000Z</time>
      </trkpt>
      <trkpt lat="48.80361" lon="5.17784">
        <ele>263</ele>
        <time>2023-01-30T15:11:35.000Z</time>
      </trkpt>
      <trkpt lat="48.80361" lon="5.17782">
        <ele>263</ele>
        <time>2023-01-30T15:11:36.000Z</time>
      </trkpt>
      <trkpt lat="48.80361" lon="5.1778">
        <ele>263</ele>
        <time>2023-01-30T15:11:37.000Z</time>
      </trkpt>
      <trkpt lat="48.80361" lon="5.17778">
        <ele>263</ele>
        <time>2023-01-30T15:11:38.000Z</time>
      </trkpt>
      <trkpt lat="48.80361" lon="5.17776">
        <ele>262.7</ele>
        <time>2023-01-30T15:11:39.000Z</time>
      </trkpt>
      <trkpt lat="48.80361" lon="5.17775">
        <ele>262.3</ele>
        <time>2023-01-30T15:11:40.000Z</time>
      </trkpt>
      <trkpt lat="48.80361" lon="5.17773">
        <ele>262</ele>
        <time>2023-01-30T15:11:41.000Z</time>
      </trkpt>
      <trkpt lat="48.80361" lon="5.17771">
        <ele>262</ele>
        <time>2023-01-30T15:11:42.000Z</time>
      </trkpt>
      <trkpt lat="48.80361" lon="5.17769">
        <ele>262</ele>
        <time>2023-01-30T15:11:43.000Z</time>
      </trkpt>
      <trkpt lat="48.80361" lon="5.17767">
        <ele>262</ele>
        <time>2023-01-30T15:11:44.000Z</time>
      </trkpt>
      <trkpt lat="48.80361" lon="5.17765">
        <ele>262</ele>
        <time>2023-01-30T15:11:45.000Z</time>
      </trkpt>
      <trkpt lat="48.80361" lon="5.17763">
        <ele>262</ele>
        <time>2023-01-30T15:11:46.000Z</time>
      </trkpt>
      <trkpt lat="48.80361" lon="5.1776">
        <ele>262</ele>
        <time>2023-01-30T15:11:47.000Z</time>
      </trkpt>
      <trkpt lat="48.8036" lon="5.17758">
        <ele>262</ele>
        <time>2023-01-30T15:11:48.000Z</time>
      </trkpt>
      <trkpt lat="48.8036" lon="5.17756">
        <ele>262</ele>
        <time>2023-01-30T15:11:49.000Z</time>
      </trkpt>
      <trkpt lat="48.8036" lon="5.17754">
        <ele>262</ele>
        <time>2023-01-30T15:11:50.000Z</time>
      </trkpt>
      <trkpt lat="48.8036" lon="5.17751">
        <ele>262</ele>
        <time>2023-01-30T15:11:51.000Z</time>
      </trkpt>
      <trkpt lat="48.80359" lon="5.17748">
        <ele>262</ele>
        <time>2023-01-30T15:11:52.000Z</time>
      </trkpt>
      <trkpt lat="48.80358" lon="5.17745">
        <ele>262</ele>
        <time>2023-01-30T15:11:53.000Z</time>
      </trkpt>
      <trkpt lat="48.80357" lon="5.17743">
        <ele>262</ele>
        <time>2023-01-30T15:11:54.000Z</time>
      </trkpt>
      <trkpt lat="48.80357" lon="5.1774">
        <ele>262</ele>
        <time>2023-01-30T15:11:55.000Z</time>
      </trkpt>
      <trkpt lat="48.80356" lon="5.17738">
        <ele>262</ele>
        <time>2023-01-30T15:11:56.000Z</time>
      </trkpt>
      <trkpt lat="48.80356" lon="5.17736">
        <ele>262</ele>
        <time>2023-01-30T15:11:57.000Z</time>
      </trkpt>
      <trkpt lat="48.80355" lon="5.17734">
        <ele>262</ele>
        <time>2023-01-30T15:11:58.000Z</time>
      </trkpt>
      <trkpt lat="48.80355" lon="5.17732">
        <ele>261.7</ele>
        <time>2023-01-30T15:11:59.000Z</time>
      </trkpt>
      <trkpt lat="48.80355" lon="5.1773">
        <ele>261.3</ele>
        <time>2023-01-30T15:12:00.000Z</time>
      </trkpt>
      <trkpt lat="48.80354" lon="5.17728">
        <ele>261</ele>
        <time>2023-01-30T15:12:01.000Z</time>
      </trkpt>
      <trkpt lat="48.80354" lon="5.17725">
        <ele>261</ele>
        <time>2023-01-30T15:12:02.000Z</time>
      </trkpt>
      <trkpt lat="48.80354" lon="5.17723">
        <ele>261</ele>
        <time>2023-01-30T15:12:03.000Z</time>
      </trkpt>
      <trkpt lat="48.80354" lon="5.1772">
        <ele>261</ele>
        <time>2023-01-30T15:12:04.000Z</time>
      </trkpt>
      <trkpt lat="48.80354" lon="5.17718">
        <ele>261</ele>
        <time>2023-01-30T15:12:05.000Z</time>
      </trkpt>
      <trkpt lat="48.80354" lon="5.17715">
        <ele>261</ele>
        <time>2023-01-30T15:12:06.000Z</time>
      </trkpt>
      <trkpt lat="48.80354" lon="5.17713">
        <ele>261</ele>
        <time>2023-01-30T15:12:07.000Z</time>
      </trkpt>
      <trkpt lat="48.80354" lon="5.1771">
        <ele>261</ele>
        <time>2023-01-30T15:12:08.000Z</time>
      </trkpt>
      <trkpt lat="48.80353" lon="5.17708">
        <ele>261</ele>
        <time>2023-01-30T15:12:09.000Z</time>
      </trkpt>
      <trkpt lat="48.80353" lon="5.17706">
        <ele>261</ele>
        <time>2023-01-30T15:12:10.000Z</time>
      </trkpt>
      <trkpt lat="48.80352" lon="5.17704">
        <ele>261</ele>
        <time>2023-01-30T15:12:11.000Z</time>
      </trkpt>
      <trkpt lat="48.80351" lon="5.17702">
        <ele>261</ele>
        <time>2023-01-30T15:12:12.000Z</time>
      </trkpt>
      <trkpt lat="48.80351" lon="5.177">
        <ele>261</ele>
        <time>2023-01-30T15:12:13.000Z</time>
      </trkpt>
      <trkpt lat="48.8035" lon="5.17699">
        <ele>261</ele>
        <time>2023-01-30T15:12:14.000Z</time>
      </trkpt>
      <trkpt lat="48.8035" lon="5.17697">
        <ele>261</ele>
        <time>2023-01-30T15:12:15.000Z</time>
      </trkpt>
      <trkpt lat="48.8035" lon="5.17696">
        <ele>261</ele>
        <time>2023-01-30T15:12:16.000Z</time>
      </trkpt>
      <trkpt lat="48.8035" lon="5.17694">
        <ele>261</ele>
        <time>2023-01-30T15:12:17.000Z</time>
      </trkpt>
      <trkpt lat="48.80349" lon="5.17692">
        <ele>261</ele>
        <time>2023-01-30T15:12:18.000Z</time>
      </trkpt>
      <trkpt lat="48.80349" lon="5.1769">
        <ele>261</ele>
        <time>2023-01-30T15:12:19.000Z</time>
      </trkpt>
      <trkpt lat="48.80349" lon="5.17688">
        <ele>261</ele>
        <time>2023-01-30T15:12:20.000Z</time>
      </trkpt>
      <trkpt lat="48.80349" lon="5.17686">
        <ele>261</ele>
        <time>2023-01-30T15:12:21.000Z</time>
      </trkpt>
      <trkpt lat="48.80348" lon="5.17683">
        <ele>260</ele>
        <time>2023-01-30T15:12:22.000Z</time>
      </trkpt>
      <trkpt lat="48.80348" lon="5.17681">
        <ele>260</ele>
        <time>2023-01-30T15:12:23.000Z</time>
      </trkpt>
      <trkpt lat="48.80348" lon="5.17678">
        <ele>260</ele>
        <time>2023-01-30T15:12:24.000Z</time>
      </trkpt>
      <trkpt lat="48.80348" lon="5.17676">
        <ele>260</ele>
        <time>2023-01-30T15:12:25.000Z</time>
      </trkpt>
      <trkpt lat="48.80348" lon="5.17674">
        <ele>260</ele>
        <time>2023-01-30T15:12:26.000Z</time>
      </trkpt>
      <trkpt lat="48.80348" lon="5.17673">
        <ele>260</ele>
        <time>2023-01-30T15:12:27.000Z</time>
      </trkpt>
      <trkpt lat="48.80348" lon="5.17671">
        <ele>260</ele>
        <time>2023-01-30T15:12:28.000Z</time>
      </trkpt>
      <trkpt lat="48.80348" lon="5.1767">
        <ele>260</ele>
        <time>2023-01-30T15:12:29.000Z</time>
      </trkpt>
      <trkpt lat="48.80348" lon="5.17668">
        <ele>260</ele>
        <time>2023-01-30T15:12:30.000Z</time>
      </trkpt>
      <trkpt lat="48.80348" lon="5.17667">
        <ele>259.7</ele>
        <time>2023-01-30T15:12:31.000Z</time>
      </trkpt>
      <trkpt lat="48.80349" lon="5.17666">
        <ele>259.3</ele>
        <time>2023-01-30T15:12:32.000Z</time>
      </trkpt>
      <trkpt lat="48.80349" lon="5.17664">
        <ele>259</ele>
        <time>2023-01-30T15:12:33.000Z</time>
      </trkpt>
      <trkpt lat="48.8035" lon="5.17663">
        <ele>259</ele>
        <time>2023-01-30T15:12:34.000Z</time>
      </trkpt>
      <trkpt lat="48.80351" lon="5.17661">
        <ele>259</ele>
        <time>2023-01-30T15:12:35.000Z</time>
      </trkpt>
      <trkpt lat="48.80352" lon="5.17659">
        <ele>259</ele>
        <time>2023-01-30T15:12:36.000Z</time>
      </trkpt>
      <trkpt lat="48.80352" lon="5.17658">
        <ele>259</ele>
        <time>2023-01-30T15:12:37.000Z</time>
      </trkpt>
      <trkpt lat="48.80353" lon="5.17656">
        <ele>259</ele>
        <time>2023-01-30T15:12:38.000Z</time>
      </trkpt>
      <trkpt lat="48.80353" lon="5.17653">
        <ele>259</ele>
        <time>2023-01-30T15:12:39.000Z</time>
      </trkpt>
      <trkpt lat="48.80353" lon="5.1765">
        <ele>258</ele>
        <time>2023-01-30T15:12:40.000Z</time>
      </trkpt>
      <trkpt lat="48.80353" lon="5.17647">
        <ele>258</ele>
        <time>2023-01-30T15:12:41.000Z</time>
      </trkpt>
      <trkpt lat="48.80354" lon="5.17645">
        <ele>258</ele>
        <time>2023-01-30T15:12:42.000Z</time>
      </trkpt>
      <trkpt lat="48.80354" lon="5.17642">
        <ele>258</ele>
        <time>2023-01-30T15:12:43.000Z</time>
      </trkpt>
      <trkpt lat="48.80355" lon="5.1764">
        <ele>258</ele>
        <time>2023-01-30T15:12:44.000Z</time>
      </trkpt>
      <trkpt lat="48.80355" lon="5.17638">
        <ele>258</ele>
        <time>2023-01-30T15:12:45.000Z</time>
      </trkpt>
      <trkpt lat="48.80355" lon="5.17636">
        <ele>258</ele>
        <time>2023-01-30T15:12:46.000Z</time>
      </trkpt>
      <trkpt lat="48.80355" lon="5.17634">
        <ele>258</ele>
        <time>2023-01-30T15:12:47.000Z</time>
      </trkpt>
      <trkpt lat="48.80354" lon="5.17632">
        <ele>258</ele>
        <time>2023-01-30T15:12:48.000Z</time>
      </trkpt>
      <trkpt lat="48.80354" lon="5.1763">
        <ele>258</ele>
        <time>2023-01-30T15:12:49.000Z</time>
      </trkpt>
      <trkpt lat="48.80353" lon="5.17628">
        <ele>258</ele>
        <time>2023-01-30T15:12:50.000Z</time>
      </trkpt>
      <trkpt lat="48.80353" lon="5.17626">
        <ele>257</ele>
        <time>2023-01-30T15:12:51.000Z</time>
      </trkpt>
      <trkpt lat="48.80352" lon="5.17623">
        <ele>257</ele>
        <time>2023-01-30T15:12:52.000Z</time>
      </trkpt>
      <trkpt lat="48.80352" lon="5.17621">
        <ele>257</ele>
        <time>2023-01-30T15:12:53.000Z</time>
      </trkpt>
      <trkpt lat="48.80352" lon="5.17618">
        <ele>257</ele>
        <time>2023-01-30T15:12:54.000Z</time>
      </trkpt>
      <trkpt lat="48.80352" lon="5.17615">
        <ele>257</ele>
        <time>2023-01-30T15:12:55.000Z</time>
      </trkpt>
      <trkpt lat="48.80352" lon="5.17612">
        <ele>257</ele>
        <time>2023-01-30T15:12:56.000Z</time>
      </trkpt>
      <trkpt lat="48.80352" lon="5.17609">
        <ele>257</ele>
        <time>2023-01-30T15:12:57.000Z</time>
      </trkpt>
      <trkpt lat="48.80351" lon="5.17607">
        <ele>257</ele>
        <time>2023-01-30T15:12:58.000Z</time>
      </trkpt>
      <trkpt lat="48.80351" lon="5.17606">
        <ele>257</ele>
        <time>2023-01-30T15:12:59.000Z</time>
      </trkpt>
      <trkpt lat="48.80351" lon="5.17605">
        <ele>257</ele>
        <time>2023-01-30T15:13:00.000Z</time>
      </trkpt>
      <trkpt lat="48.80351" lon="5.17603">
        <ele>257</ele>
        <time>2023-01-30T15:13:01.000Z</time>
      </trkpt>
      <trkpt lat="48.8035" lon="5.17601">
        <ele>257</ele>
        <time>2023-01-30T15:13:02.000Z</time>
      </trkpt>
      <trkpt lat="48.8035" lon="5.176">
        <ele>257</ele>
        <time>2023-01-30T15:13:03.000Z</time>
      </trkpt>
      <trkpt lat="48.8035" lon="5.17598">
        <ele>257</ele>
        <time>2023-01-30T15:13:04.000Z</time>
      </trkpt>
      <trkpt lat="48.8035" lon="5.17596">
        <ele>257</ele>
        <time>2023-01-30T15:13:05.000Z</time>
      </trkpt>
      <trkpt lat="48.8035" lon="5.17594">
        <ele>256</ele>
        <time>2023-01-30T15:13:06.000Z</time>
      </trkpt>
      <trkpt lat="48.8035" lon="5.17592">
        <ele>256</ele>
        <time>2023-01-30T15:13:07.000Z</time>
      </trkpt>
      <trkpt lat="48.8035" lon="5.17589">
        <ele>256</ele>
        <time>2023-01-30T15:13:08.000Z</time>
      </trkpt>
      <trkpt lat="48.8035" lon="5.17587">
        <ele>256</ele>
        <time>2023-01-30T15:13:09.000Z</time>
      </trkpt>
      <trkpt lat="48.8035" lon="5.17584">
        <ele>256</ele>
        <time>2023-01-30T15:13:10.000Z</time>
      </trkpt>
      <trkpt lat="48.8035" lon="5.17581">
        <ele>256</ele>
        <time>2023-01-30T15:13:11.000Z</time>
      </trkpt>
      <trkpt lat="48.8035" lon="5.17579">
        <ele>256</ele>
        <time>2023-01-30T15:13:12.000Z</time>
      </trkpt>
      <trkpt lat="48.80349" lon="5.17576">
        <ele>256</ele>
        <time>2023-01-30T15:13:13.000Z</time>
      </trkpt>
      <trkpt lat="48.80349" lon="5.17574">
        <ele>256</ele>
        <time>2023-01-30T15:13:14.000Z</time>
      </trkpt>
      <trkpt lat="48.80349" lon="5.17571">
        <ele>256</ele>
        <time>2023-01-30T15:13:15.000Z</time>
      </trkpt>
      <trkpt lat="48.80348" lon="5.17569">
        <ele>256</ele>
        <time>2023-01-30T15:13:16.000Z</time>
      </trkpt>
      <trkpt lat="48.80348" lon="5.17567">
        <ele>256</ele>
        <time>2023-01-30T15:13:17.000Z</time>
      </trkpt>
      <trkpt lat="48.80348" lon="5.17565">
        <ele>256</ele>
        <time>2023-01-30T15:13:18.000Z</time>
      </trkpt>
      <trkpt lat="48.80348" lon="5.17564">
        <ele>256</ele>
        <time>2023-01-30T15:13:19.000Z</time>
      </trkpt>
      <trkpt lat="48.80348" lon="5.17562">
        <ele>256</ele>
        <time>2023-01-30T15:13:20.000Z</time>
      </trkpt>
      <trkpt lat="48.80348" lon="5.1756">
        <ele>256</ele>
        <time>2023-01-30T15:13:21.000Z</time>
      </trkpt>
      <trkpt lat="48.80348" lon="5.17558">
        <ele>256</ele>
        <time>2023-01-30T15:13:22.000Z</time>
      </trkpt>
      <trkpt lat="48.80348" lon="5.17556">
        <ele>256</ele>
        <time>2023-01-30T15:13:23.000Z</time>
      </trkpt>
      <trkpt lat="48.80347" lon="5.17554">
        <ele>256</ele>
        <time>2023-01-30T15:13:24.000Z</time>
      </trkpt>
      <trkpt lat="48.80347" lon="5.17552">
        <ele>256</ele>
        <time>2023-01-30T15:13:25.000Z</time>
      </trkpt>
      <trkpt lat="48.80346" lon="5.17549">
        <ele>256</ele>
        <time>2023-01-30T15:13:26.000Z</time>
      </trkpt>
      <trkpt lat="48.80346" lon="5.17547">
        <ele>256</ele>
        <time>2023-01-30T15:13:27.000Z</time>
      </trkpt>
      <trkpt lat="48.80346" lon="5.17545">
        <ele>256</ele>
        <time>2023-01-30T15:13:28.000Z</time>
      </trkpt>
      <trkpt lat="48.80345" lon="5.17543">
        <ele>256</ele>
        <time>2023-01-30T15:13:29.000Z</time>
      </trkpt>
      <trkpt lat="48.80345" lon="5.1754">
        <ele>256</ele>
        <time>2023-01-30T15:13:30.000Z</time>
      </trkpt>
      <trkpt lat="48.80345" lon="5.17538">
        <ele>256</ele>
        <time>2023-01-30T15:13:31.000Z</time>
      </trkpt>
      <trkpt lat="48.80344" lon="5.17537">
        <ele>255.5</ele>
        <time>2023-01-30T15:13:32.000Z</time>
      </trkpt>
      <trkpt lat="48.80343" lon="5.17535">
        <ele>255</ele>
        <time>2023-01-30T15:13:33.000Z</time>
      </trkpt>
      <trkpt lat="48.80342" lon="5.17533">
        <ele>255</ele>
        <time>2023-01-30T15:13:34.000Z</time>
      </trkpt>
      <trkpt lat="48.80342" lon="5.17532">
        <ele>255</ele>
        <time>2023-01-30T15:13:35.000Z</time>
      </trkpt>
      <trkpt lat="48.80341" lon="5.1753">
        <ele>255</ele>
        <time>2023-01-30T15:13:36.000Z</time>
      </trkpt>
      <trkpt lat="48.8034" lon="5.17528">
        <ele>255</ele>
        <time>2023-01-30T15:13:37.000Z</time>
      </trkpt>
      <trkpt lat="48.8034" lon="5.17527">
        <ele>255</ele>
        <time>2023-01-30T15:13:38.000Z</time>
      </trkpt>
      <trkpt lat="48.80339" lon="5.17525">
        <ele>255</ele>
        <time>2023-01-30T15:13:39.000Z</time>
      </trkpt>
      <trkpt lat="48.80339" lon="5.17523">
        <ele>255</ele>
        <time>2023-01-30T15:13:40.000Z</time>
      </trkpt>
      <trkpt lat="48.80339" lon="5.17522">
        <ele>255</ele>
        <time>2023-01-30T15:13:41.000Z</time>
      </trkpt>
      <trkpt lat="48.80338" lon="5.1752">
        <ele>255</ele>
        <time>2023-01-30T15:13:42.000Z</time>
      </trkpt>
      <trkpt lat="48.80338" lon="5.17518">
        <ele>255</ele>
        <time>2023-01-30T15:13:43.000Z</time>
      </trkpt>
      <trkpt lat="48.80338" lon="5.17516">
        <ele>255</ele>
        <time>2023-01-30T15:13:44.000Z</time>
      </trkpt>
      <trkpt lat="48.80337" lon="5.17514">
        <ele>255</ele>
        <time>2023-01-30T15:13:45.000Z</time>
      </trkpt>
      <trkpt lat="48.80336" lon="5.17512">
        <ele>255</ele>
        <time>2023-01-30T15:13:46.000Z</time>
      </trkpt>
      <trkpt lat="48.80336" lon="5.17509">
        <ele>255</ele>
        <time>2023-01-30T15:13:47.000Z</time>
      </trkpt>
      <trkpt lat="48.80335" lon="5.17507">
        <ele>255</ele>
        <time>2023-01-30T15:13:48.000Z</time>
      </trkpt>
      <trkpt lat="48.80335" lon="5.17505">
        <ele>255</ele>
        <time>2023-01-30T15:13:49.000Z</time>
      </trkpt>
      <trkpt lat="48.80334" lon="5.17503">
        <ele>255</ele>
        <time>2023-01-30T15:13:50.000Z</time>
      </trkpt>
      <trkpt lat="48.80334" lon="5.17501">
        <ele>255</ele>
        <time>2023-01-30T15:13:51.000Z</time>
      </trkpt>
      <trkpt lat="48.80334" lon="5.17499">
        <ele>255</ele>
        <time>2023-01-30T15:13:52.000Z</time>
      </trkpt>
      <trkpt lat="48.80333" lon="5.17497">
        <ele>255</ele>
        <time>2023-01-30T15:13:53.000Z</time>
      </trkpt>
      <trkpt lat="48.80332" lon="5.17496">
        <ele>255</ele>
        <time>2023-01-30T15:13:54.000Z</time>
      </trkpt>
      <trkpt lat="48.80331" lon="5.17495">
        <ele>255</ele>
        <time>2023-01-30T15:13:55.000Z</time>
      </trkpt>
      <trkpt lat="48.8033" lon="5.17494">
        <ele>255</ele>
        <time>2023-01-30T15:13:56.000Z</time>
      </trkpt>
      <trkpt lat="48.80329" lon="5.17493">
        <ele>255</ele>
        <time>2023-01-30T15:13:57.000Z</time>
      </trkpt>
      <trkpt lat="48.80329" lon="5.17492">
        <ele>254</ele>
        <time>2023-01-30T15:13:58.000Z</time>
      </trkpt>
      <trkpt lat="48.80328" lon="5.17491">
        <ele>254.3</ele>
        <time>2023-01-30T15:13:59.000Z</time>
      </trkpt>
      <trkpt lat="48.80327" lon="5.1749">
        <ele>254.7</ele>
        <time>2023-01-30T15:14:00.000Z</time>
      </trkpt>
      <trkpt lat="48.80326" lon="5.17489">
        <ele>255</ele>
        <time>2023-01-30T15:14:01.000Z</time>
      </trkpt>
      <trkpt lat="48.80325" lon="5.17488">
        <ele>255</ele>
        <time>2023-01-30T15:14:02.000Z</time>
      </trkpt>
      <trkpt lat="48.80324" lon="5.17487">
        <ele>255</ele>
        <time>2023-01-30T15:14:03.000Z</time>
      </trkpt>
      <trkpt lat="48.80322" lon="5.17487">
        <ele>255</ele>
        <time>2023-01-30T15:14:04.000Z</time>
      </trkpt>
      <trkpt lat="48.80321" lon="5.17486">
        <ele>255</ele>
        <time>2023-01-30T15:14:05.000Z</time>
      </trkpt>
      <trkpt lat="48.80319" lon="5.17486">
        <ele>255</ele>
        <time>2023-01-30T15:14:06.000Z</time>
      </trkpt>
      <trkpt lat="48.80318" lon="5.17486">
        <ele>255</ele>
        <time>2023-01-30T15:14:07.000Z</time>
      </trkpt>
      <trkpt lat="48.80316" lon="5.17486">
        <ele>255</ele>
        <time>2023-01-30T15:14:08.000Z</time>
      </trkpt>
      <trkpt lat="48.80315" lon="5.17485">
        <ele>255</ele>
        <time>2023-01-30T15:14:09.000Z</time>
      </trkpt>
      <trkpt lat="48.80314" lon="5.17486">
        <ele>256</ele>
        <time>2023-01-30T15:14:10.000Z</time>
      </trkpt>
      <trkpt lat="48.80313" lon="5.17486">
        <ele>256</ele>
        <time>2023-01-30T15:14:11.000Z</time>
      </trkpt>
      <trkpt lat="48.80312" lon="5.17486">
        <ele>256</ele>
        <time>2023-01-30T15:14:12.000Z</time>
      </trkpt>
      <trkpt lat="48.80311" lon="5.17487">
        <ele>256</ele>
        <time>2023-01-30T15:14:13.000Z</time>
      </trkpt>
      <trkpt lat="48.8031" lon="5.17488">
        <ele>256</ele>
        <time>2023-01-30T15:14:14.000Z</time>
      </trkpt>
      <trkpt lat="48.80309" lon="5.17488">
        <ele>256</ele>
        <time>2023-01-30T15:14:15.000Z</time>
      </trkpt>
      <trkpt lat="48.80307" lon="5.17489">
        <ele>257</ele>
        <time>2023-01-30T15:14:16.000Z</time>
      </trkpt>
      <trkpt lat="48.80306" lon="5.17488">
        <ele>257</ele>
        <time>2023-01-30T15:14:17.000Z</time>
      </trkpt>
      <trkpt lat="48.80304" lon="5.17488">
        <ele>257</ele>
        <time>2023-01-30T15:14:18.000Z</time>
      </trkpt>
      <trkpt lat="48.80303" lon="5.17487">
        <ele>257</ele>
        <time>2023-01-30T15:14:19.000Z</time>
      </trkpt>
      <trkpt lat="48.80302" lon="5.17486">
        <ele>257</ele>
        <time>2023-01-30T15:14:20.000Z</time>
      </trkpt>
      <trkpt lat="48.80301" lon="5.17485">
        <ele>257</ele>
        <time>2023-01-30T15:14:21.000Z</time>
      </trkpt>
      <trkpt lat="48.803" lon="5.17484">
        <ele>257</ele>
        <time>2023-01-30T15:14:22.000Z</time>
      </trkpt>
      <trkpt lat="48.80299" lon="5.17483">
        <ele>257</ele>
        <time>2023-01-30T15:14:23.000Z</time>
      </trkpt>
      <trkpt lat="48.80299" lon="5.17482">
        <ele>257</ele>
        <time>2023-01-30T15:14:24.000Z</time>
      </trkpt>
      <trkpt lat="48.80298" lon="5.17481">
        <ele>257</ele>
        <time>2023-01-30T15:14:25.000Z</time>
      </trkpt>
      <trkpt lat="48.80298" lon="5.1748">
        <ele>257</ele>
        <time>2023-01-30T15:14:26.000Z</time>
      </trkpt>
      <trkpt lat="48.80298" lon="5.1748">
        <ele>257</ele>
        <time>2023-01-30T15:14:27.000Z</time>
      </trkpt>
      <trkpt lat="48.80297" lon="5.17479">
        <ele>257</ele>
        <time>2023-01-30T15:14:28.000Z</time>
      </trkpt>
      <trkpt lat="48.80297" lon="5.17478">
        <ele>257</ele>
        <time>2023-01-30T15:14:29.000Z</time>
      </trkpt>
      <trkpt lat="48.80297" lon="5.17477">
        <ele>257</ele>
        <time>2023-01-30T15:14:30.000Z</time>
      </trkpt>
      <trkpt lat="48.80297" lon="5.17476">
        <ele>257</ele>
        <time>2023-01-30T15:14:31.000Z</time>
      </trkpt>
      <trkpt lat="48.80297" lon="5.17475">
        <ele>256.5</ele>
        <time>2023-01-30T15:14:32.000Z</time>
      </trkpt>
      <trkpt lat="48.80297" lon="5.17473">
        <ele>256</ele>
        <time>2023-01-30T15:14:33.000Z</time>
      </trkpt>
      <trkpt lat="48.80296" lon="5.17472">
        <ele>256</ele>
        <time>2023-01-30T15:14:34.000Z</time>
      </trkpt>
      <trkpt lat="48.80296" lon="5.1747">
        <ele>256</ele>
        <time>2023-01-30T15:14:35.000Z</time>
      </trkpt>
      <trkpt lat="48.80296" lon="5.17469">
        <ele>256</ele>
        <time>2023-01-30T15:14:36.000Z</time>
      </trkpt>
      <trkpt lat="48.80295" lon="5.17468">
        <ele>256</ele>
        <time>2023-01-30T15:14:37.000Z</time>
      </trkpt>
      <trkpt lat="48.80295" lon="5.17467">
        <ele>256</ele>
        <time>2023-01-30T15:14:38.000Z</time>
      </trkpt>
      <trkpt lat="48.80295" lon="5.17467">
        <ele>256</ele>
        <time>2023-01-30T15:14:39.000Z</time>
      </trkpt>
      <trkpt lat="48.80295" lon="5.17466">
        <ele>256</ele>
        <time>2023-01-30T15:14:40.000Z</time>
      </trkpt>
      <trkpt lat="48.80295" lon="5.17466">
        <ele>256</ele>
        <time>2023-01-30T15:14:41.000Z</time>
      </trkpt>
      <trkpt lat="48.80294" lon="5.17465">
        <ele>256</ele>
        <time>2023-01-30T15:14:42.000Z</time>
      </trkpt>
      <trkpt lat="48.80294" lon="5.17465">
        <ele>256</ele>
        <time>2023-01-30T15:14:43.000Z</time>
      </trkpt>
      <trkpt lat="48.80293" lon="5.17464">
        <ele>256</ele>
        <time>2023-01-30T15:14:44.000Z</time>
      </trkpt>
      <trkpt lat="48.80291" lon="5.17462">
        <ele>256.3</ele>
        <time>2023-01-30T15:14:45.000Z</time>
      </trkpt>
      <trkpt lat="48.8029" lon="5.17461">
        <ele>256.7</ele>
        <time>2023-01-30T15:14:46.000Z</time>
      </trkpt>
      <trkpt lat="48.80288" lon="5.1746">
        <ele>257</ele>
        <time>2023-01-30T15:14:47.000Z</time>
      </trkpt>
      <trkpt lat="48.80288" lon="5.1746">
        <ele>257</ele>
        <time>2023-01-30T15:14:48.000Z</time>
      </trkpt>
      <trkpt lat="48.80287" lon="5.1746">
        <ele>257</ele>
        <time>2023-01-30T15:14:49.000Z</time>
      </trkpt>
      <trkpt lat="48.80286" lon="5.1746">
        <ele>257</ele>
        <time>2023-01-30T15:14:50.000Z</time>
      </trkpt>
      <trkpt lat="48.80285" lon="5.1746">
        <ele>257</ele>
        <time>2023-01-30T15:14:51.000Z</time>
      </trkpt>
      <trkpt lat="48.80285" lon="5.1746">
        <ele>257</ele>
        <time>2023-01-30T15:14:52.000Z</time>
      </trkpt>
      <trkpt lat="48.80284" lon="5.1746">
        <ele>257.3</ele>
        <time>2023-01-30T15:14:53.000Z</time>
      </trkpt>
      <trkpt lat="48.80283" lon="5.17461">
        <ele>257.7</ele>
        <time>2023-01-30T15:14:54.000Z</time>
      </trkpt>
      <trkpt lat="48.80282" lon="5.17461">
        <ele>258</ele>
        <time>2023-01-30T15:14:55.000Z</time>
      </trkpt>
      <trkpt lat="48.80281" lon="5.17462">
        <ele>258</ele>
        <time>2023-01-30T15:14:56.000Z</time>
      </trkpt>
      <trkpt lat="48.80281" lon="5.17462">
        <ele>258</ele>
        <time>2023-01-30T15:14:57.000Z</time>
      </trkpt>
      <trkpt lat="48.8028" lon="5.17463">
        <ele>258</ele>
        <time>2023-01-30T15:14:58.000Z</time>
      </trkpt>
      <trkpt lat="48.80279" lon="5.17463">
        <ele>258</ele>
        <time>2023-01-30T15:14:59.000Z</time>
      </trkpt>
      <trkpt lat="48.80279" lon="5.17464">
        <ele>258</ele>
        <time>2023-01-30T15:15:00.000Z</time>
      </trkpt>
      <trkpt lat="48.80278" lon="5.17465">
        <ele>258.3</ele>
        <time>2023-01-30T15:15:01.000Z</time>
      </trkpt>
      <trkpt lat="48.80278" lon="5.17465">
        <ele>258.7</ele>
        <time>2023-01-30T15:15:02.000Z</time>
      </trkpt>
      <trkpt lat="48.80277" lon="5.17466">
        <ele>259</ele>
        <time>2023-01-30T15:15:03.000Z</time>
      </trkpt>
      <trkpt lat="48.80277" lon="5.17466">
        <ele>259</ele>
        <time>2023-01-30T15:15:04.000Z</time>
      </trkpt>
      <trkpt lat="48.80276" lon="5.17467">
        <ele>259</ele>
        <time>2023-01-30T15:15:05.000Z</time>
      </trkpt>
      <trkpt lat="48.80276" lon="5.17468">
        <ele>259</ele>
        <time>2023-01-30T15:15:06.000Z</time>
      </trkpt>
      <trkpt lat="48.80275" lon="5.17469">
        <ele>259.3</ele>
        <time>2023-01-30T15:15:07.000Z</time>
      </trkpt>
      <trkpt lat="48.80274" lon="5.1747">
        <ele>259.7</ele>
        <time>2023-01-30T15:15:08.000Z</time>
      </trkpt>
      <trkpt lat="48.80273" lon="5.17472">
        <ele>260</ele>
        <time>2023-01-30T15:15:09.000Z</time>
      </trkpt>
      <trkpt lat="48.80272" lon="5.17473">
        <ele>260</ele>
        <time>2023-01-30T15:15:10.000Z</time>
      </trkpt>
      <trkpt lat="48.80272" lon="5.17475">
        <ele>260</ele>
        <time>2023-01-30T15:15:11.000Z</time>
      </trkpt>
      <trkpt lat="48.80271" lon="5.17477">
        <ele>260</ele>
        <time>2023-01-30T15:15:12.000Z</time>
      </trkpt>
      <trkpt lat="48.8027" lon="5.17478">
        <ele>260</ele>
        <time>2023-01-30T15:15:13.000Z</time>
      </trkpt>
      <trkpt lat="48.80269" lon="5.17479">
        <ele>260.5</ele>
        <time>2023-01-30T15:15:14.000Z</time>
      </trkpt>
      <trkpt lat="48.80269" lon="5.17481">
        <ele>261</ele>
        <time>2023-01-30T15:15:15.000Z</time>
      </trkpt>
      <trkpt lat="48.80268" lon="5.17482">
        <ele>261</ele>
        <time>2023-01-30T15:15:16.000Z</time>
      </trkpt>
      <trkpt lat="48.80268" lon="5.17483">
        <ele>261</ele>
        <time>2023-01-30T15:15:17.000Z</time>
      </trkpt>
      <trkpt lat="48.80267" lon="5.17484">
        <ele>261</ele>
        <time>2023-01-30T15:15:18.000Z</time>
      </trkpt>
      <trkpt lat="48.80267" lon="5.17485">
        <ele>261.3</ele>
        <time>2023-01-30T15:15:19.000Z</time>
      </trkpt>
      <trkpt lat="48.80266" lon="5.17487">
        <ele>261.7</ele>
        <time>2023-01-30T15:15:20.000Z</time>
      </trkpt>
      <trkpt lat="48.80265" lon="5.17488">
        <ele>262</ele>
        <time>2023-01-30T15:15:21.000Z</time>
      </trkpt>
      <trkpt lat="48.80264" lon="5.17489">
        <ele>262</ele>
        <time>2023-01-30T15:15:22.000Z</time>
      </trkpt>
      <trkpt lat="48.80264" lon="5.17491">
        <ele>262</ele>
        <time>2023-01-30T15:15:23.000Z</time>
      </trkpt>
      <trkpt lat="48.80263" lon="5.17492">
        <ele>262</ele>
        <time>2023-01-30T15:15:24.000Z</time>
      </trkpt>
      <trkpt lat="48.80262" lon="5.17493">
        <ele>262</ele>
        <time>2023-01-30T15:15:25.000Z</time>
      </trkpt>
      <trkpt lat="48.80261" lon="5.17494">
        <ele>263</ele>
        <time>2023-01-30T15:15:26.000Z</time>
      </trkpt>
      <trkpt lat="48.8026" lon="5.17495">
        <ele>263</ele>
        <time>2023-01-30T15:15:27.000Z</time>
      </trkpt>
      <trkpt lat="48.8026" lon="5.17496">
        <ele>263</ele>
        <time>2023-01-30T15:15:28.000Z</time>
      </trkpt>
      <trkpt lat="48.80259" lon="5.17498">
        <ele>263</ele>
        <time>2023-01-30T15:15:29.000Z</time>
      </trkpt>
      <trkpt lat="48.80258" lon="5.17499">
        <ele>263</ele>
        <time>2023-01-30T15:15:30.000Z</time>
      </trkpt>
      <trkpt lat="48.80257" lon="5.17501">
        <ele>263</ele>
        <time>2023-01-30T15:15:31.000Z</time>
      </trkpt>
      <trkpt lat="48.80256" lon="5.17503">
        <ele>264</ele>
        <time>2023-01-30T15:15:32.000Z</time>
      </trkpt>
      <trkpt lat="48.80256" lon="5.17504">
        <ele>264</ele>
        <time>2023-01-30T15:15:33.000Z</time>
      </trkpt>
      <trkpt lat="48.80254" lon="5.17506">
        <ele>264</ele>
        <time>2023-01-30T15:15:34.000Z</time>
      </trkpt>
      <trkpt lat="48.80253" lon="5.17508">
        <ele>264</ele>
        <time>2023-01-30T15:15:35.000Z</time>
      </trkpt>
      <trkpt lat="48.80252" lon="5.17509">
        <ele>264</ele>
        <time>2023-01-30T15:15:36.000Z</time>
      </trkpt>
      <trkpt lat="48.80251" lon="5.1751">
        <ele>264.3</ele>
        <time>2023-01-30T15:15:37.000Z</time>
      </trkpt>
      <trkpt lat="48.8025" lon="5.17512">
        <ele>264.7</ele>
        <time>2023-01-30T15:15:38.000Z</time>
      </trkpt>
      <trkpt lat="48.80249" lon="5.17513">
        <ele>265</ele>
        <time>2023-01-30T15:15:39.000Z</time>
      </trkpt>
      <trkpt lat="48.80248" lon="5.17514">
        <ele>265</ele>
        <time>2023-01-30T15:15:40.000Z</time>
      </trkpt>
      <trkpt lat="48.80247" lon="5.17516">
        <ele>265</ele>
        <time>2023-01-30T15:15:41.000Z</time>
      </trkpt>
      <trkpt lat="48.80245" lon="5.17518">
        <ele>265</ele>
        <time>2023-01-30T15:15:42.000Z</time>
      </trkpt>
      <trkpt lat="48.80243" lon="5.1752">
        <ele>265</ele>
        <time>2023-01-30T15:15:43.000Z</time>
      </trkpt>
      <trkpt lat="48.80242" lon="5.17521">
        <ele>265</ele>
        <time>2023-01-30T15:15:44.000Z</time>
      </trkpt>
      <trkpt lat="48.80241" lon="5.17522">
        <ele>265.3</ele>
        <time>2023-01-30T15:15:45.000Z</time>
      </trkpt>
      <trkpt lat="48.8024" lon="5.17523">
        <ele>265.7</ele>
        <time>2023-01-30T15:15:46.000Z</time>
      </trkpt>
      <trkpt lat="48.80239" lon="5.17524">
        <ele>266</ele>
        <time>2023-01-30T15:15:47.000Z</time>
      </trkpt>
      <trkpt lat="48.80237" lon="5.17525">
        <ele>266</ele>
        <time>2023-01-30T15:15:48.000Z</time>
      </trkpt>
      <trkpt lat="48.80236" lon="5.17527">
        <ele>266</ele>
        <time>2023-01-30T15:15:49.000Z</time>
      </trkpt>
      <trkpt lat="48.80234" lon="5.17529">
        <ele>266</ele>
        <time>2023-01-30T15:15:50.000Z</time>
      </trkpt>
      <trkpt lat="48.80233" lon="5.17531">
        <ele>266</ele>
        <time>2023-01-30T15:15:51.000Z</time>
      </trkpt>
      <trkpt lat="48.80232" lon="5.17532">
        <ele>266</ele>
        <time>2023-01-30T15:15:52.000Z</time>
      </trkpt>
      <trkpt lat="48.80231" lon="5.17533">
        <ele>266</ele>
        <time>2023-01-30T15:15:53.000Z</time>
      </trkpt>
      <trkpt lat="48.80229" lon="5.17535">
        <ele>267</ele>
        <time>2023-01-30T15:15:54.000Z</time>
      </trkpt>
      <trkpt lat="48.80228" lon="5.17536">
        <ele>267</ele>
        <time>2023-01-30T15:15:55.000Z</time>
      </trkpt>
      <trkpt lat="48.80227" lon="5.17538">
        <ele>267</ele>
        <time>2023-01-30T15:15:56.000Z</time>
      </trkpt>
      <trkpt lat="48.80227" lon="5.17539">
        <ele>267</ele>
        <time>2023-01-30T15:15:57.000Z</time>
      </trkpt>
      <trkpt lat="48.80226" lon="5.1754">
        <ele>267</ele>
        <time>2023-01-30T15:15:58.000Z</time>
      </trkpt>
      <trkpt lat="48.80225" lon="5.17541">
        <ele>267</ele>
        <time>2023-01-30T15:15:59.000Z</time>
      </trkpt>
      <trkpt lat="48.80224" lon="5.17542">
        <ele>268</ele>
        <time>2023-01-30T15:16:00.000Z</time>
      </trkpt>
      <trkpt lat="48.80223" lon="5.17543">
        <ele>268</ele>
        <time>2023-01-30T15:16:01.000Z</time>
      </trkpt>
      <trkpt lat="48.80222" lon="5.17544">
        <ele>268</ele>
        <time>2023-01-30T15:16:02.000Z</time>
      </trkpt>
      <trkpt lat="48.80221" lon="5.17545">
        <ele>268</ele>
        <time>2023-01-30T15:16:03.000Z</time>
      </trkpt>
      <trkpt lat="48.80221" lon="5.17546">
        <ele>268</ele>
        <time>2023-01-30T15:16:04.000Z</time>
      </trkpt>
      <trkpt lat="48.8022" lon="5.17546">
        <ele>268</ele>
        <time>2023-01-30T15:16:05.000Z</time>
      </trkpt>
      <trkpt lat="48.80219" lon="5.17547">
        <ele>268</ele>
        <time>2023-01-30T15:16:06.000Z</time>
      </trkpt>
      <trkpt lat="48.80218" lon="5.17548">
        <ele>268.3</ele>
        <time>2023-01-30T15:16:07.000Z</time>
      </trkpt>
      <trkpt lat="48.80218" lon="5.17549">
        <ele>268.7</ele>
        <time>2023-01-30T15:16:08.000Z</time>
      </trkpt>
      <trkpt lat="48.80217" lon="5.17551">
        <ele>269</ele>
        <time>2023-01-30T15:16:09.000Z</time>
      </trkpt>
      <trkpt lat="48.80216" lon="5.17552">
        <ele>269</ele>
        <time>2023-01-30T15:16:10.000Z</time>
      </trkpt>
      <trkpt lat="48.80214" lon="5.17554">
        <ele>269</ele>
        <time>2023-01-30T15:16:11.000Z</time>
      </trkpt>
      <trkpt lat="48.80213" lon="5.17556">
        <ele>269</ele>
        <time>2023-01-30T15:16:12.000Z</time>
      </trkpt>
      <trkpt lat="48.80213" lon="5.17557">
        <ele>269</ele>
        <time>2023-01-30T15:16:13.000Z</time>
      </trkpt>
      <trkpt lat="48.80211" lon="5.17558">
        <ele>269</ele>
        <time>2023-01-30T15:16:14.000Z</time>
      </trkpt>
      <trkpt lat="48.8021" lon="5.1756">
        <ele>269</ele>
        <time>2023-01-30T15:16:15.000Z</time>
      </trkpt>
      <trkpt lat="48.80208" lon="5.17562">
        <ele>269</ele>
        <time>2023-01-30T15:16:16.000Z</time>
      </trkpt>
      <trkpt lat="48.80206" lon="5.17564">
        <ele>269</ele>
        <time>2023-01-30T15:16:17.000Z</time>
      </trkpt>
      <trkpt lat="48.80204" lon="5.17566">
        <ele>269</ele>
        <time>2023-01-30T15:16:18.000Z</time>
      </trkpt>
      <trkpt lat="48.80203" lon="5.17567">
        <ele>269</ele>
        <time>2023-01-30T15:16:19.000Z</time>
      </trkpt>
      <trkpt lat="48.80202" lon="5.17568">
        <ele>269</ele>
        <time>2023-01-30T15:16:20.000Z</time>
      </trkpt>
      <trkpt lat="48.802" lon="5.17568">
        <ele>269.3</ele>
        <time>2023-01-30T15:16:21.000Z</time>
      </trkpt>
      <trkpt lat="48.80199" lon="5.17569">
        <ele>269.7</ele>
        <time>2023-01-30T15:16:22.000Z</time>
      </trkpt>
      <trkpt lat="48.80197" lon="5.17569">
        <ele>270</ele>
        <time>2023-01-30T15:16:23.000Z</time>
      </trkpt>
      <trkpt lat="48.80195" lon="5.1757">
        <ele>270</ele>
        <time>2023-01-30T15:16:24.000Z</time>
      </trkpt>
      <trkpt lat="48.80193" lon="5.17571">
        <ele>270</ele>
        <time>2023-01-30T15:16:25.000Z</time>
      </trkpt>
      <trkpt lat="48.80192" lon="5.17572">
        <ele>270</ele>
        <time>2023-01-30T15:16:26.000Z</time>
      </trkpt>
      <trkpt lat="48.8019" lon="5.17572">
        <ele>270</ele>
        <time>2023-01-30T15:16:27.000Z</time>
      </trkpt>
      <trkpt lat="48.80188" lon="5.17572">
        <ele>270</ele>
        <time>2023-01-30T15:16:28.000Z</time>
      </trkpt>
      <trkpt lat="48.80187" lon="5.17573">
        <ele>270.3</ele>
        <time>2023-01-30T15:16:29.000Z</time>
      </trkpt>
      <trkpt lat="48.80185" lon="5.17573">
        <ele>270.7</ele>
        <time>2023-01-30T15:16:30.000Z</time>
      </trkpt>
      <trkpt lat="48.80183" lon="5.17574">
        <ele>271</ele>
        <time>2023-01-30T15:16:31.000Z</time>
      </trkpt>
      <trkpt lat="48.80182" lon="5.17574">
        <ele>271</ele>
        <time>2023-01-30T15:16:32.000Z</time>
      </trkpt>
      <trkpt lat="48.8018" lon="5.17575">
        <ele>271</ele>
        <time>2023-01-30T15:16:33.000Z</time>
      </trkpt>
      <trkpt lat="48.80178" lon="5.17576">
        <ele>272</ele>
        <time>2023-01-30T15:16:34.000Z</time>
      </trkpt>
      <trkpt lat="48.80177" lon="5.17577">
        <ele>272</ele>
        <time>2023-01-30T15:16:35.000Z</time>
      </trkpt>
      <trkpt lat="48.80175" lon="5.17578">
        <ele>272</ele>
        <time>2023-01-30T15:16:36.000Z</time>
      </trkpt>
      <trkpt lat="48.80173" lon="5.17579">
        <ele>272</ele>
        <time>2023-01-30T15:16:37.000Z</time>
      </trkpt>
      <trkpt lat="48.80172" lon="5.1758">
        <ele>272</ele>
        <time>2023-01-30T15:16:38.000Z</time>
      </trkpt>
      <trkpt lat="48.8017" lon="5.17581">
        <ele>272</ele>
        <time>2023-01-30T15:16:39.000Z</time>
      </trkpt>
      <trkpt lat="48.80169" lon="5.17581">
        <ele>273</ele>
        <time>2023-01-30T15:16:40.000Z</time>
      </trkpt>
      <trkpt lat="48.80167" lon="5.17582">
        <ele>273</ele>
        <time>2023-01-30T15:16:41.000Z</time>
      </trkpt>
      <trkpt lat="48.80166" lon="5.17582">
        <ele>273</ele>
        <time>2023-01-30T15:16:42.000Z</time>
      </trkpt>
      <trkpt lat="48.80165" lon="5.17583">
        <ele>273</ele>
        <time>2023-01-30T15:16:43.000Z</time>
      </trkpt>
      <trkpt lat="48.80164" lon="5.17583">
        <ele>273</ele>
        <time>2023-01-30T15:16:44.000Z</time>
      </trkpt>
      <trkpt lat="48.80163" lon="5.17584">
        <ele>273</ele>
        <time>2023-01-30T15:16:45.000Z</time>
      </trkpt>
      <trkpt lat="48.80162" lon="5.17584">
        <ele>273</ele>
        <time>2023-01-30T15:16:46.000Z</time>
      </trkpt>
      <trkpt lat="48.80161" lon="5.17584">
        <ele>273</ele>
        <time>2023-01-30T15:16:47.000Z</time>
      </trkpt>
      <trkpt lat="48.80159" lon="5.17585">
        <ele>274</ele>
        <time>2023-01-30T15:16:48.000Z</time>
      </trkpt>
      <trkpt lat="48.80158" lon="5.17586">
        <ele>274</ele>
        <time>2023-01-30T15:16:49.000Z</time>
      </trkpt>
      <trkpt lat="48.80157" lon="5.17586">
        <ele>274</ele>
        <time>2023-01-30T15:16:50.000Z</time>
      </trkpt>
      <trkpt lat="48.80156" lon="5.17586">
        <ele>274</ele>
        <time>2023-01-30T15:16:51.000Z</time>
      </trkpt>
      <trkpt lat="48.80155" lon="5.17586">
        <ele>274</ele>
        <time>2023-01-30T15:16:52.000Z</time>
      </trkpt>
      <trkpt lat="48.80154" lon="5.17587">
        <ele>274</ele>
        <time>2023-01-30T15:16:53.000Z</time>
      </trkpt>
      <trkpt lat="48.80153" lon="5.17587">
        <ele>275</ele>
        <time>2023-01-30T15:16:54.000Z</time>
      </trkpt>
      <trkpt lat="48.80151" lon="5.17587">
        <ele>275</ele>
        <time>2023-01-30T15:16:55.000Z</time>
      </trkpt>
      <trkpt lat="48.8015" lon="5.17588">
        <ele>275</ele>
        <time>2023-01-30T15:16:56.000Z</time>
      </trkpt>
      <trkpt lat="48.80148" lon="5.17588">
        <ele>275</ele>
        <time>2023-01-30T15:16:57.000Z</time>
      </trkpt>
      <trkpt lat="48.80147" lon="5.17589">
        <ele>275</ele>
        <time>2023-01-30T15:16:58.000Z</time>
      </trkpt>
      <trkpt lat="48.80146" lon="5.17589">
        <ele>275</ele>
        <time>2023-01-30T15:16:59.000Z</time>
      </trkpt>
      <trkpt lat="48.80145" lon="5.1759">
        <ele>275</ele>
        <time>2023-01-30T15:17:00.000Z</time>
      </trkpt>
      <trkpt lat="48.80143" lon="5.1759">
        <ele>275</ele>
        <time>2023-01-30T15:17:01.000Z</time>
      </trkpt>
      <trkpt lat="48.80142" lon="5.17591">
        <ele>275.5</ele>
        <time>2023-01-30T15:17:02.000Z</time>
      </trkpt>
      <trkpt lat="48.80141" lon="5.17591">
        <ele>276</ele>
        <time>2023-01-30T15:17:03.000Z</time>
      </trkpt>
      <trkpt lat="48.8014" lon="5.17592">
        <ele>276</ele>
        <time>2023-01-30T15:17:04.000Z</time>
      </trkpt>
      <trkpt lat="48.80138" lon="5.17592">
        <ele>276</ele>
        <time>2023-01-30T15:17:05.000Z</time>
      </trkpt>
      <trkpt lat="48.80137" lon="5.17592">
        <ele>276</ele>
        <time>2023-01-30T15:17:06.000Z</time>
      </trkpt>
      <trkpt lat="48.80136" lon="5.17592">
        <ele>276</ele>
        <time>2023-01-30T15:17:07.000Z</time>
      </trkpt>
      <trkpt lat="48.80133" lon="5.17593">
        <ele>277</ele>
        <time>2023-01-30T15:17:08.000Z</time>
      </trkpt>
      <trkpt lat="48.80131" lon="5.17594">
        <ele>277</ele>
        <time>2023-01-30T15:17:09.000Z</time>
      </trkpt>
      <trkpt lat="48.80129" lon="5.17594">
        <ele>277</ele>
        <time>2023-01-30T15:17:10.000Z</time>
      </trkpt>
      <trkpt lat="48.80127" lon="5.17595">
        <ele>277</ele>
        <time>2023-01-30T15:17:11.000Z</time>
      </trkpt>
      <trkpt lat="48.80126" lon="5.17596">
        <ele>277</ele>
        <time>2023-01-30T15:17:12.000Z</time>
      </trkpt>
      <trkpt lat="48.80124" lon="5.17596">
        <ele>277</ele>
        <time>2023-01-30T15:17:13.000Z</time>
      </trkpt>
      <trkpt lat="48.80121" lon="5.17597">
        <ele>277</ele>
        <time>2023-01-30T15:17:14.000Z</time>
      </trkpt>
      <trkpt lat="48.80118" lon="5.17598">
        <ele>277</ele>
        <time>2023-01-30T15:17:15.000Z</time>
      </trkpt>
      <trkpt lat="48.80116" lon="5.17599">
        <ele>277</ele>
        <time>2023-01-30T15:17:16.000Z</time>
      </trkpt>
      <trkpt lat="48.80116" lon="5.17599">
        <ele>277</ele>
        <time>2023-01-30T15:17:17.000Z</time>
      </trkpt>
      <trkpt lat="48.80115" lon="5.17599">
        <ele>277</ele>
        <time>2023-01-30T15:17:18.000Z</time>
      </trkpt>
      <trkpt lat="48.80114" lon="5.176">
        <ele>277</ele>
        <time>2023-01-30T15:17:19.000Z</time>
      </trkpt>
      <trkpt lat="48.80113" lon="5.176">
        <ele>277</ele>
        <time>2023-01-30T15:17:20.000Z</time>
      </trkpt>
      <trkpt lat="48.80111" lon="5.176">
        <ele>277</ele>
        <time>2023-01-30T15:17:21.000Z</time>
      </trkpt>
      <trkpt lat="48.8011" lon="5.176">
        <ele>277</ele>
        <time>2023-01-30T15:17:22.000Z</time>
      </trkpt>
      <trkpt lat="48.80108" lon="5.176">
        <ele>277</ele>
        <time>2023-01-30T15:17:23.000Z</time>
      </trkpt>
      <trkpt lat="48.80105" lon="5.17601">
        <ele>277</ele>
        <time>2023-01-30T15:17:24.000Z</time>
      </trkpt>
      <trkpt lat="48.80103" lon="5.17602">
        <ele>277</ele>
        <time>2023-01-30T15:17:25.000Z</time>
      </trkpt>
      <trkpt lat="48.801" lon="5.17602">
        <ele>277</ele>
        <time>2023-01-30T15:17:26.000Z</time>
      </trkpt>
      <trkpt lat="48.80098" lon="5.17602">
        <ele>277</ele>
        <time>2023-01-30T15:17:27.000Z</time>
      </trkpt>
      <trkpt lat="48.80096" lon="5.17603">
        <ele>277</ele>
        <time>2023-01-30T15:17:28.000Z</time>
      </trkpt>
      <trkpt lat="48.80094" lon="5.17603">
        <ele>277</ele>
        <time>2023-01-30T15:17:29.000Z</time>
      </trkpt>
      <trkpt lat="48.80091" lon="5.17604">
        <ele>277</ele>
        <time>2023-01-30T15:17:30.000Z</time>
      </trkpt>
      <trkpt lat="48.8009" lon="5.17604">
        <ele>277</ele>
        <time>2023-01-30T15:17:31.000Z</time>
      </trkpt>
      <trkpt lat="48.80088" lon="5.17605">
        <ele>277</ele>
        <time>2023-01-30T15:17:32.000Z</time>
      </trkpt>
      <trkpt lat="48.80087" lon="5.17605">
        <ele>277</ele>
        <time>2023-01-30T15:17:33.000Z</time>
      </trkpt>
      <trkpt lat="48.80085" lon="5.17606">
        <ele>277</ele>
        <time>2023-01-30T15:17:34.000Z</time>
      </trkpt>
      <trkpt lat="48.80084" lon="5.17607">
        <ele>277</ele>
        <time>2023-01-30T15:17:35.000Z</time>
      </trkpt>
      <trkpt lat="48.80083" lon="5.17607">
        <ele>277</ele>
        <time>2023-01-30T15:17:36.000Z</time>
      </trkpt>
      <trkpt lat="48.80081" lon="5.17608">
        <ele>277</ele>
        <time>2023-01-30T15:17:37.000Z</time>
      </trkpt>
      <trkpt lat="48.8008" lon="5.17609">
        <ele>276.5</ele>
        <time>2023-01-30T15:17:38.000Z</time>
      </trkpt>
      <trkpt lat="48.8008" lon="5.17609">
        <ele>276</ele>
        <time>2023-01-30T15:17:39.000Z</time>
      </trkpt>
      <trkpt lat="48.80079" lon="5.17609">
        <ele>276</ele>
        <time>2023-01-30T15:17:40.000Z</time>
      </trkpt>
      <trkpt lat="48.80079" lon="5.17609">
        <ele>276</ele>
        <time>2023-01-30T15:17:41.000Z</time>
      </trkpt>
      <trkpt lat="48.80079" lon="5.17609">
        <ele>276</ele>
        <time>2023-01-30T15:17:42.000Z</time>
      </trkpt>
      <trkpt lat="48.80078" lon="5.1761">
        <ele>276</ele>
        <time>2023-01-30T15:17:43.000Z</time>
      </trkpt>
      <trkpt lat="48.80077" lon="5.1761">
        <ele>275.5</ele>
        <time>2023-01-30T15:17:44.000Z</time>
      </trkpt>
      <trkpt lat="48.80076" lon="5.17611">
        <ele>275</ele>
        <time>2023-01-30T15:17:45.000Z</time>
      </trkpt>
      <trkpt lat="48.80073" lon="5.17612">
        <ele>275</ele>
        <time>2023-01-30T15:17:46.000Z</time>
      </trkpt>
      <trkpt lat="48.80071" lon="5.17613">
        <ele>275</ele>
        <time>2023-01-30T15:17:47.000Z</time>
      </trkpt>
      <trkpt lat="48.80069" lon="5.17613">
        <ele>275</ele>
        <time>2023-01-30T15:17:48.000Z</time>
      </trkpt>
      <trkpt lat="48.80067" lon="5.17614">
        <ele>275</ele>
        <time>2023-01-30T15:17:49.000Z</time>
      </trkpt>
      <trkpt lat="48.80065" lon="5.17615">
        <ele>275</ele>
        <time>2023-01-30T15:17:50.000Z</time>
      </trkpt>
      <trkpt lat="48.80063" lon="5.17616">
        <ele>275</ele>
        <time>2023-01-30T15:17:51.000Z</time>
      </trkpt>
      <trkpt lat="48.8006" lon="5.17616">
        <ele>275</ele>
        <time>2023-01-30T15:17:52.000Z</time>
      </trkpt>
      <trkpt lat="48.80058" lon="5.17616">
        <ele>275</ele>
        <time>2023-01-30T15:17:53.000Z</time>
      </trkpt>
      <trkpt lat="48.80056" lon="5.17617">
        <ele>275</ele>
        <time>2023-01-30T15:17:54.000Z</time>
      </trkpt>
      <trkpt lat="48.80054" lon="5.17617">
        <ele>275</ele>
        <time>2023-01-30T15:17:55.000Z</time>
      </trkpt>
      <trkpt lat="48.80051" lon="5.17618">
        <ele>274</ele>
        <time>2023-01-30T15:17:56.000Z</time>
      </trkpt>
      <trkpt lat="48.80049" lon="5.17619">
        <ele>274</ele>
        <time>2023-01-30T15:17:57.000Z</time>
      </trkpt>
      <trkpt lat="48.80047" lon="5.1762">
        <ele>274</ele>
        <time>2023-01-30T15:17:58.000Z</time>
      </trkpt>
      <trkpt lat="48.80045" lon="5.17622">
        <ele>274</ele>
        <time>2023-01-30T15:17:59.000Z</time>
      </trkpt>
      <trkpt lat="48.80044" lon="5.17623">
        <ele>274</ele>
        <time>2023-01-30T15:18:00.000Z</time>
      </trkpt>
      <trkpt lat="48.80042" lon="5.17624">
        <ele>274</ele>
        <time>2023-01-30T15:18:01.000Z</time>
      </trkpt>
      <trkpt lat="48.8004" lon="5.17624">
        <ele>274</ele>
        <time>2023-01-30T15:18:02.000Z</time>
      </trkpt>
      <trkpt lat="48.80039" lon="5.17625">
        <ele>274</ele>
        <time>2023-01-30T15:18:03.000Z</time>
      </trkpt>
      <trkpt lat="48.80037" lon="5.17626">
        <ele>274</ele>
        <time>2023-01-30T15:18:04.000Z</time>
      </trkpt>
      <trkpt lat="48.80035" lon="5.17627">
        <ele>274</ele>
        <time>2023-01-30T15:18:05.000Z</time>
      </trkpt>
      <trkpt lat="48.80034" lon="5.17628">
        <ele>274</ele>
        <time>2023-01-30T15:18:06.000Z</time>
      </trkpt>
      <trkpt lat="48.80033" lon="5.17629">
        <ele>273.7</ele>
        <time>2023-01-30T15:18:07.000Z</time>
      </trkpt>
      <trkpt lat="48.80031" lon="5.1763">
        <ele>273.3</ele>
        <time>2023-01-30T15:18:08.000Z</time>
      </trkpt>
      <trkpt lat="48.8003" lon="5.17631">
        <ele>273</ele>
        <time>2023-01-30T15:18:09.000Z</time>
      </trkpt>
      <trkpt lat="48.80028" lon="5.17632">
        <ele>273</ele>
        <time>2023-01-30T15:18:10.000Z</time>
      </trkpt>
      <trkpt lat="48.80027" lon="5.17633">
        <ele>273</ele>
        <time>2023-01-30T15:18:11.000Z</time>
      </trkpt>
      <trkpt lat="48.80025" lon="5.17635">
        <ele>273</ele>
        <time>2023-01-30T15:18:12.000Z</time>
      </trkpt>
      <trkpt lat="48.80023" lon="5.17636">
        <ele>273</ele>
        <time>2023-01-30T15:18:13.000Z</time>
      </trkpt>
      <trkpt lat="48.80022" lon="5.17636">
        <ele>273</ele>
        <time>2023-01-30T15:18:14.000Z</time>
      </trkpt>
      <trkpt lat="48.80021" lon="5.17637">
        <ele>272.7</ele>
        <time>2023-01-30T15:18:15.000Z</time>
      </trkpt>
      <trkpt lat="48.8002" lon="5.17637">
        <ele>272.3</ele>
        <time>2023-01-30T15:18:16.000Z</time>
      </trkpt>
      <trkpt lat="48.80019" lon="5.17638">
        <ele>272</ele>
        <time>2023-01-30T15:18:17.000Z</time>
      </trkpt>
      <trkpt lat="48.80019" lon="5.17638">
        <ele>272</ele>
        <time>2023-01-30T15:18:18.000Z</time>
      </trkpt>
      <trkpt lat="48.80018" lon="5.17639">
        <ele>272</ele>
        <time>2023-01-30T15:18:19.000Z</time>
      </trkpt>
      <trkpt lat="48.80017" lon="5.17639">
        <ele>272</ele>
        <time>2023-01-30T15:18:20.000Z</time>
      </trkpt>
      <trkpt lat="48.80017" lon="5.17639">
        <ele>272</ele>
        <time>2023-01-30T15:18:21.000Z</time>
      </trkpt>
      <trkpt lat="48.80016" lon="5.1764">
        <ele>272</ele>
        <time>2023-01-30T15:18:22.000Z</time>
      </trkpt>
      <trkpt lat="48.80014" lon="5.17641">
        <ele>272</ele>
        <time>2023-01-30T15:18:23.000Z</time>
      </trkpt>
      <trkpt lat="48.80013" lon="5.17643">
        <ele>271</ele>
        <time>2023-01-30T15:18:24.000Z</time>
      </trkpt>
      <trkpt lat="48.80011" lon="5.17644">
        <ele>271</ele>
        <time>2023-01-30T15:18:25.000Z</time>
      </trkpt>
      <trkpt lat="48.8001" lon="5.17646">
        <ele>271</ele>
        <time>2023-01-30T15:18:26.000Z</time>
      </trkpt>
      <trkpt lat="48.80008" lon="5.17647">
        <ele>271</ele>
        <time>2023-01-30T15:18:27.000Z</time>
      </trkpt>
      <trkpt lat="48.80006" lon="5.17649">
        <ele>271</ele>
        <time>2023-01-30T15:18:28.000Z</time>
      </trkpt>
      <trkpt lat="48.80004" lon="5.17651">
        <ele>271</ele>
        <time>2023-01-30T15:18:29.000Z</time>
      </trkpt>
      <trkpt lat="48.80003" lon="5.17653">
        <ele>271</ele>
        <time>2023-01-30T15:18:30.000Z</time>
      </trkpt>
      <trkpt lat="48.80002" lon="5.17655">
        <ele>271</ele>
        <time>2023-01-30T15:18:31.000Z</time>
      </trkpt>
      <trkpt lat="48.8" lon="5.17657">
        <ele>270</ele>
        <time>2023-01-30T15:18:32.000Z</time>
      </trkpt>
      <trkpt lat="48.79998" lon="5.17659">
        <ele>270</ele>
        <time>2023-01-30T15:18:33.000Z</time>
      </trkpt>
      <trkpt lat="48.79996" lon="5.17662">
        <ele>270</ele>
        <time>2023-01-30T15:18:34.000Z</time>
      </trkpt>
      <trkpt lat="48.79995" lon="5.17664">
        <ele>270</ele>
        <time>2023-01-30T15:18:35.000Z</time>
      </trkpt>
      <trkpt lat="48.79993" lon="5.17666">
        <ele>270</ele>
        <time>2023-01-30T15:18:36.000Z</time>
      </trkpt>
      <trkpt lat="48.79991" lon="5.17667">
        <ele>270</ele>
        <time>2023-01-30T15:18:37.000Z</time>
      </trkpt>
      <trkpt lat="48.79989" lon="5.17668">
        <ele>270</ele>
        <time>2023-01-30T15:18:38.000Z</time>
      </trkpt>
      <trkpt lat="48.79988" lon="5.17669">
        <ele>270</ele>
        <time>2023-01-30T15:18:39.000Z</time>
      </trkpt>
      <trkpt lat="48.79986" lon="5.1767">
        <ele>270</ele>
        <time>2023-01-30T15:18:40.000Z</time>
      </trkpt>
      <trkpt lat="48.79983" lon="5.17669">
        <ele>270</ele>
        <time>2023-01-30T15:18:41.000Z</time>
      </trkpt>
      <trkpt lat="48.79982" lon="5.17666">
        <ele>270</ele>
        <time>2023-01-30T15:18:42.000Z</time>
      </trkpt>
      <trkpt lat="48.79981" lon="5.17663">
        <ele>269.7</ele>
        <time>2023-01-30T15:18:43.000Z</time>
      </trkpt>
      <trkpt lat="48.79981" lon="5.1766">
        <ele>269.3</ele>
        <time>2023-01-30T15:18:44.000Z</time>
      </trkpt>
      <trkpt lat="48.79981" lon="5.17657">
        <ele>269</ele>
        <time>2023-01-30T15:18:45.000Z</time>
      </trkpt>
      <trkpt lat="48.79981" lon="5.17654">
        <ele>269</ele>
        <time>2023-01-30T15:18:46.000Z</time>
      </trkpt>
      <trkpt lat="48.79981" lon="5.17652">
        <ele>269</ele>
        <time>2023-01-30T15:18:47.000Z</time>
      </trkpt>
      <trkpt lat="48.79981" lon="5.1765">
        <ele>269</ele>
        <time>2023-01-30T15:18:48.000Z</time>
      </trkpt>
      <trkpt lat="48.79981" lon="5.17648">
        <ele>269</ele>
        <time>2023-01-30T15:18:49.000Z</time>
      </trkpt>
      <trkpt lat="48.79981" lon="5.17646">
        <ele>269</ele>
        <time>2023-01-30T15:18:50.000Z</time>
      </trkpt>
      <trkpt lat="48.79981" lon="5.17645">
        <ele>269</ele>
        <time>2023-01-30T15:18:51.000Z</time>
      </trkpt>
      <trkpt lat="48.79981" lon="5.17644">
        <ele>269</ele>
        <time>2023-01-30T15:18:52.000Z</time>
      </trkpt>
      <trkpt lat="48.79981" lon="5.17643">
        <ele>268.7</ele>
        <time>2023-01-30T15:18:53.000Z</time>
      </trkpt>
      <trkpt lat="48.79981" lon="5.17642">
        <ele>268.3</ele>
        <time>2023-01-30T15:18:54.000Z</time>
      </trkpt>
      <trkpt lat="48.79981" lon="5.17641">
        <ele>268</ele>
        <time>2023-01-30T15:18:55.000Z</time>
      </trkpt>
      <trkpt lat="48.79981" lon="5.1764">
        <ele>268</ele>
        <time>2023-01-30T15:18:56.000Z</time>
      </trkpt>
      <trkpt lat="48.79981" lon="5.17639">
        <ele>268</ele>
        <time>2023-01-30T15:18:57.000Z</time>
      </trkpt>
      <trkpt lat="48.79981" lon="5.17637">
        <ele>268</ele>
        <time>2023-01-30T15:18:58.000Z</time>
      </trkpt>
      <trkpt lat="48.79981" lon="5.17635">
        <ele>268</ele>
        <time>2023-01-30T15:18:59.000Z</time>
      </trkpt>
      <trkpt lat="48.79981" lon="5.17632">
        <ele>268</ele>
        <time>2023-01-30T15:19:00.000Z</time>
      </trkpt>
      <trkpt lat="48.79981" lon="5.17629">
        <ele>268</ele>
        <time>2023-01-30T15:19:01.000Z</time>
      </trkpt>
      <trkpt lat="48.79981" lon="5.17627">
        <ele>268</ele>
        <time>2023-01-30T15:19:02.000Z</time>
      </trkpt>
      <trkpt lat="48.79981" lon="5.17623">
        <ele>268</ele>
        <time>2023-01-30T15:19:03.000Z</time>
      </trkpt>
      <trkpt lat="48.79981" lon="5.1762">
        <ele>268</ele>
        <time>2023-01-30T15:19:04.000Z</time>
      </trkpt>
      <trkpt lat="48.79981" lon="5.17617">
        <ele>268</ele>
        <time>2023-01-30T15:19:05.000Z</time>
      </trkpt>
      <trkpt lat="48.79982" lon="5.17613">
        <ele>268</ele>
        <time>2023-01-30T15:19:06.000Z</time>
      </trkpt>
      <trkpt lat="48.79982" lon="5.17609">
        <ele>268</ele>
        <time>2023-01-30T15:19:07.000Z</time>
      </trkpt>
      <trkpt lat="48.79982" lon="5.17606">
        <ele>268</ele>
        <time>2023-01-30T15:19:08.000Z</time>
      </trkpt>
      <trkpt lat="48.79983" lon="5.17602">
        <ele>268</ele>
        <time>2023-01-30T15:19:09.000Z</time>
      </trkpt>
      <trkpt lat="48.79983" lon="5.17599">
        <ele>268</ele>
        <time>2023-01-30T15:19:10.000Z</time>
      </trkpt>
      <trkpt lat="48.79983" lon="5.17596">
        <ele>268</ele>
        <time>2023-01-30T15:19:11.000Z</time>
      </trkpt>
      <trkpt lat="48.79984" lon="5.17593">
        <ele>268</ele>
        <time>2023-01-30T15:19:12.000Z</time>
      </trkpt>
      <trkpt lat="48.79984" lon="5.1759">
        <ele>268</ele>
        <time>2023-01-30T15:19:13.000Z</time>
      </trkpt>
      <trkpt lat="48.79984" lon="5.17587">
        <ele>268</ele>
        <time>2023-01-30T15:19:14.000Z</time>
      </trkpt>
      <trkpt lat="48.79984" lon="5.17585">
        <ele>268</ele>
        <time>2023-01-30T15:19:15.000Z</time>
      </trkpt>
      <trkpt lat="48.79983" lon="5.17583">
        <ele>268</ele>
        <time>2023-01-30T15:19:16.000Z</time>
      </trkpt>
      <trkpt lat="48.79983" lon="5.17582">
        <ele>268</ele>
        <time>2023-01-30T15:19:17.000Z</time>
      </trkpt>
      <trkpt lat="48.79983" lon="5.17581">
        <ele>268</ele>
        <time>2023-01-30T15:19:18.000Z</time>
      </trkpt>
      <trkpt lat="48.79983" lon="5.1758">
        <ele>268</ele>
        <time>2023-01-30T15:19:19.000Z</time>
      </trkpt>
      <trkpt lat="48.79982" lon="5.17579">
        <ele>268</ele>
        <time>2023-01-30T15:19:20.000Z</time>
      </trkpt>
      <trkpt lat="48.79982" lon="5.17577">
        <ele>268</ele>
        <time>2023-01-30T15:19:21.000Z</time>
      </trkpt>
      <trkpt lat="48.79982" lon="5.17576">
        <ele>268</ele>
        <time>2023-01-30T15:19:22.000Z</time>
      </trkpt>
      <trkpt lat="48.79981" lon="5.17574">
        <ele>268</ele>
        <time>2023-01-30T15:19:23.000Z</time>
      </trkpt>
      <trkpt lat="48.79981" lon="5.17573">
        <ele>268</ele>
        <time>2023-01-30T15:19:24.000Z</time>
      </trkpt>
      <trkpt lat="48.79981" lon="5.17571">
        <ele>268</ele>
        <time>2023-01-30T15:19:25.000Z</time>
      </trkpt>
      <trkpt lat="48.79981" lon="5.17569">
        <ele>268</ele>
        <time>2023-01-30T15:19:26.000Z</time>
      </trkpt>
      <trkpt lat="48.7998" lon="5.17566">
        <ele>268</ele>
        <time>2023-01-30T15:19:27.000Z</time>
      </trkpt>
      <trkpt lat="48.7998" lon="5.17564">
        <ele>268</ele>
        <time>2023-01-30T15:19:28.000Z</time>
      </trkpt>
      <trkpt lat="48.79981" lon="5.1756">
        <ele>268</ele>
        <time>2023-01-30T15:19:29.000Z</time>
      </trkpt>
      <trkpt lat="48.79981" lon="5.17557">
        <ele>268</ele>
        <time>2023-01-30T15:19:30.000Z</time>
      </trkpt>
      <trkpt lat="48.79982" lon="5.17552">
        <ele>268</ele>
        <time>2023-01-30T15:19:31.000Z</time>
      </trkpt>
      <trkpt lat="48.79982" lon="5.17549">
        <ele>268</ele>
        <time>2023-01-30T15:19:32.000Z</time>
      </trkpt>
      <trkpt lat="48.79983" lon="5.17545">
        <ele>268</ele>
        <time>2023-01-30T15:19:33.000Z</time>
      </trkpt>
      <trkpt lat="48.79984" lon="5.17542">
        <ele>268</ele>
        <time>2023-01-30T15:19:34.000Z</time>
      </trkpt>
      <trkpt lat="48.79984" lon="5.17538">
        <ele>268</ele>
        <time>2023-01-30T15:19:35.000Z</time>
      </trkpt>
      <trkpt lat="48.79985" lon="5.17535">
        <ele>268</ele>
        <time>2023-01-30T15:19:36.000Z</time>
      </trkpt>
      <trkpt lat="48.79985" lon="5.17531">
        <ele>268</ele>
        <time>2023-01-30T15:19:37.000Z</time>
      </trkpt>
      <trkpt lat="48.79986" lon="5.17528">
        <ele>268</ele>
        <time>2023-01-30T15:19:38.000Z</time>
      </trkpt>
      <trkpt lat="48.79987" lon="5.17525">
        <ele>268</ele>
        <time>2023-01-30T15:19:39.000Z</time>
      </trkpt>
      <trkpt lat="48.79987" lon="5.17522">
        <ele>268</ele>
        <time>2023-01-30T15:19:40.000Z</time>
      </trkpt>
      <trkpt lat="48.79988" lon="5.17519">
        <ele>268</ele>
        <time>2023-01-30T15:19:41.000Z</time>
      </trkpt>
      <trkpt lat="48.79989" lon="5.17516">
        <ele>268</ele>
        <time>2023-01-30T15:19:42.000Z</time>
      </trkpt>
      <trkpt lat="48.79989" lon="5.17513">
        <ele>268</ele>
        <time>2023-01-30T15:19:43.000Z</time>
      </trkpt>
      <trkpt lat="48.7999" lon="5.17511">
        <ele>268</ele>
        <time>2023-01-30T15:19:44.000Z</time>
      </trkpt>
      <trkpt lat="48.7999" lon="5.17509">
        <ele>268</ele>
        <time>2023-01-30T15:19:45.000Z</time>
      </trkpt>
      <trkpt lat="48.7999" lon="5.17507">
        <ele>268</ele>
        <time>2023-01-30T15:19:46.000Z</time>
      </trkpt>
      <trkpt lat="48.7999" lon="5.17505">
        <ele>267.5</ele>
        <time>2023-01-30T15:19:47.000Z</time>
      </trkpt>
      <trkpt lat="48.7999" lon="5.17504">
        <ele>267</ele>
        <time>2023-01-30T15:19:48.000Z</time>
      </trkpt>
      <trkpt lat="48.7999" lon="5.17503">
        <ele>267</ele>
        <time>2023-01-30T15:19:49.000Z</time>
      </trkpt>
      <trkpt lat="48.7999" lon="5.17501">
        <ele>267</ele>
        <time>2023-01-30T15:19:50.000Z</time>
      </trkpt>
      <trkpt lat="48.79989" lon="5.175">
        <ele>267</ele>
        <time>2023-01-30T15:19:51.000Z</time>
      </trkpt>
      <trkpt lat="48.79989" lon="5.17498">
        <ele>267</ele>
        <time>2023-01-30T15:19:52.000Z</time>
      </trkpt>
      <trkpt lat="48.79989" lon="5.17496">
        <ele>267</ele>
        <time>2023-01-30T15:19:53.000Z</time>
      </trkpt>
      <trkpt lat="48.79988" lon="5.17493">
        <ele>267</ele>
        <time>2023-01-30T15:19:54.000Z</time>
      </trkpt>
      <trkpt lat="48.79988" lon="5.1749">
        <ele>267</ele>
        <time>2023-01-30T15:19:55.000Z</time>
      </trkpt>
      <trkpt lat="48.79989" lon="5.17486">
        <ele>267</ele>
        <time>2023-01-30T15:19:56.000Z</time>
      </trkpt>
      <trkpt lat="48.79989" lon="5.17483">
        <ele>267</ele>
        <time>2023-01-30T15:19:57.000Z</time>
      </trkpt>
      <trkpt lat="48.7999" lon="5.17479">
        <ele>267</ele>
        <time>2023-01-30T15:19:58.000Z</time>
      </trkpt>
      <trkpt lat="48.79991" lon="5.17476">
        <ele>267</ele>
        <time>2023-01-30T15:19:59.000Z</time>
      </trkpt>
      <trkpt lat="48.79991" lon="5.17473">
        <ele>267</ele>
        <time>2023-01-30T15:20:00.000Z</time>
      </trkpt>
      <trkpt lat="48.79991" lon="5.1747">
        <ele>267</ele>
        <time>2023-01-30T15:20:01.000Z</time>
      </trkpt>
      <trkpt lat="48.79991" lon="5.17468">
        <ele>267</ele>
        <time>2023-01-30T15:20:02.000Z</time>
      </trkpt>
      <trkpt lat="48.79991" lon="5.17467">
        <ele>267</ele>
        <time>2023-01-30T15:20:03.000Z</time>
      </trkpt>
      <trkpt lat="48.79991" lon="5.17465">
        <ele>267</ele>
        <time>2023-01-30T15:20:04.000Z</time>
      </trkpt>
      <trkpt lat="48.79991" lon="5.17464">
        <ele>267</ele>
        <time>2023-01-30T15:20:05.000Z</time>
      </trkpt>
      <trkpt lat="48.79991" lon="5.17463">
        <ele>267</ele>
        <time>2023-01-30T15:20:06.000Z</time>
      </trkpt>
      <trkpt lat="48.79991" lon="5.17461">
        <ele>267</ele>
        <time>2023-01-30T15:20:07.000Z</time>
      </trkpt>
      <trkpt lat="48.79991" lon="5.1746">
        <ele>267</ele>
        <time>2023-01-30T15:20:08.000Z</time>
      </trkpt>
      <trkpt lat="48.79991" lon="5.17458">
        <ele>267</ele>
        <time>2023-01-30T15:20:09.000Z</time>
      </trkpt>
      <trkpt lat="48.79991" lon="5.17454">
        <ele>267</ele>
        <time>2023-01-30T15:20:10.000Z</time>
      </trkpt>
      <trkpt lat="48.79992" lon="5.1745">
        <ele>267</ele>
        <time>2023-01-30T15:20:11.000Z</time>
      </trkpt>
      <trkpt lat="48.79992" lon="5.17446">
        <ele>267</ele>
        <time>2023-01-30T15:20:12.000Z</time>
      </trkpt>
      <trkpt lat="48.79992" lon="5.17442">
        <ele>267</ele>
        <time>2023-01-30T15:20:13.000Z</time>
      </trkpt>
      <trkpt lat="48.79993" lon="5.17438">
        <ele>267</ele>
        <time>2023-01-30T15:20:14.000Z</time>
      </trkpt>
      <trkpt lat="48.79993" lon="5.17435">
        <ele>267</ele>
        <time>2023-01-30T15:20:15.000Z</time>
      </trkpt>
      <trkpt lat="48.79992" lon="5.17433">
        <ele>267</ele>
        <time>2023-01-30T15:20:16.000Z</time>
      </trkpt>
      <trkpt lat="48.79992" lon="5.17431">
        <ele>266.5</ele>
        <time>2023-01-30T15:20:17.000Z</time>
      </trkpt>
      <trkpt lat="48.79992" lon="5.1743">
        <ele>266</ele>
        <time>2023-01-30T15:20:18.000Z</time>
      </trkpt>
      <trkpt lat="48.79992" lon="5.17429">
        <ele>266</ele>
        <time>2023-01-30T15:20:19.000Z</time>
      </trkpt>
      <trkpt lat="48.79992" lon="5.17428">
        <ele>266</ele>
        <time>2023-01-30T15:20:20.000Z</time>
      </trkpt>
      <trkpt lat="48.79991" lon="5.17427">
        <ele>266</ele>
        <time>2023-01-30T15:20:21.000Z</time>
      </trkpt>
      <trkpt lat="48.79991" lon="5.17425">
        <ele>266</ele>
        <time>2023-01-30T15:20:22.000Z</time>
      </trkpt>
      <trkpt lat="48.79991" lon="5.17423">
        <ele>266</ele>
        <time>2023-01-30T15:20:23.000Z</time>
      </trkpt>
      <trkpt lat="48.79992" lon="5.17419">
        <ele>266</ele>
        <time>2023-01-30T15:20:24.000Z</time>
      </trkpt>
      <trkpt lat="48.79993" lon="5.17416">
        <ele>266</ele>
        <time>2023-01-30T15:20:25.000Z</time>
      </trkpt>
      <trkpt lat="48.79994" lon="5.17414">
        <ele>266</ele>
        <time>2023-01-30T15:20:26.000Z</time>
      </trkpt>
      <trkpt lat="48.79994" lon="5.17412">
        <ele>266</ele>
        <time>2023-01-30T15:20:27.000Z</time>
      </trkpt>
      <trkpt lat="48.79994" lon="5.17411">
        <ele>266</ele>
        <time>2023-01-30T15:20:28.000Z</time>
      </trkpt>
      <trkpt lat="48.79995" lon="5.17409">
        <ele>266</ele>
        <time>2023-01-30T15:20:29.000Z</time>
      </trkpt>
      <trkpt lat="48.79995" lon="5.17407">
        <ele>266</ele>
        <time>2023-01-30T15:20:30.000Z</time>
      </trkpt>
      <trkpt lat="48.79995" lon="5.17405">
        <ele>266</ele>
        <time>2023-01-30T15:20:31.000Z</time>
      </trkpt>
      <trkpt lat="48.79996" lon="5.17403">
        <ele>266</ele>
        <time>2023-01-30T15:20:32.000Z</time>
      </trkpt>
      <trkpt lat="48.79996" lon="5.174">
        <ele>266</ele>
        <time>2023-01-30T15:20:33.000Z</time>
      </trkpt>
      <trkpt lat="48.79997" lon="5.17398">
        <ele>266</ele>
        <time>2023-01-30T15:20:34.000Z</time>
      </trkpt>
      <trkpt lat="48.79999" lon="5.17396">
        <ele>266</ele>
        <time>2023-01-30T15:20:35.000Z</time>
      </trkpt>
      <trkpt lat="48.8" lon="5.17395">
        <ele>266</ele>
        <time>2023-01-30T15:20:36.000Z</time>
      </trkpt>
      <trkpt lat="48.8" lon="5.17393">
        <ele>266</ele>
        <time>2023-01-30T15:20:37.000Z</time>
      </trkpt>
      <trkpt lat="48.8" lon="5.17391">
        <ele>266</ele>
        <time>2023-01-30T15:20:38.000Z</time>
      </trkpt>
      <trkpt lat="48.8" lon="5.17389">
        <ele>266</ele>
        <time>2023-01-30T15:20:39.000Z</time>
      </trkpt>
      <trkpt lat="48.8" lon="5.17387">
        <ele>266</ele>
        <time>2023-01-30T15:20:40.000Z</time>
      </trkpt>
      <trkpt lat="48.8" lon="5.17385">
        <ele>266</ele>
        <time>2023-01-30T15:20:41.000Z</time>
      </trkpt>
      <trkpt lat="48.8" lon="5.17384">
        <ele>266</ele>
        <time>2023-01-30T15:20:42.000Z</time>
      </trkpt>
      <trkpt lat="48.8" lon="5.17383">
        <ele>266</ele>
        <time>2023-01-30T15:20:43.000Z</time>
      </trkpt>
      <trkpt lat="48.8" lon="5.17381">
        <ele>266</ele>
        <time>2023-01-30T15:20:44.000Z</time>
      </trkpt>
      <trkpt lat="48.80001" lon="5.17379">
        <ele>266</ele>
        <time>2023-01-30T15:20:45.000Z</time>
      </trkpt>
      <trkpt lat="48.80002" lon="5.17375">
        <ele>266</ele>
        <time>2023-01-30T15:20:46.000Z</time>
      </trkpt>
      <trkpt lat="48.80003" lon="5.17371">
        <ele>266</ele>
        <time>2023-01-30T15:20:47.000Z</time>
      </trkpt>
      <trkpt lat="48.80004" lon="5.17369">
        <ele>266</ele>
        <time>2023-01-30T15:20:48.000Z</time>
      </trkpt>
      <trkpt lat="48.80004" lon="5.17366">
        <ele>266</ele>
        <time>2023-01-30T15:20:49.000Z</time>
      </trkpt>
      <trkpt lat="48.80004" lon="5.17364">
        <ele>266</ele>
        <time>2023-01-30T15:20:50.000Z</time>
      </trkpt>
      <trkpt lat="48.80004" lon="5.17362">
        <ele>266</ele>
        <time>2023-01-30T15:20:51.000Z</time>
      </trkpt>
      <trkpt lat="48.80004" lon="5.1736">
        <ele>266</ele>
        <time>2023-01-30T15:20:52.000Z</time>
      </trkpt>
      <trkpt lat="48.80005" lon="5.17358">
        <ele>266</ele>
        <time>2023-01-30T15:20:53.000Z</time>
      </trkpt>
      <trkpt lat="48.80004" lon="5.17355">
        <ele>266</ele>
        <time>2023-01-30T15:20:54.000Z</time>
      </trkpt>
      <trkpt lat="48.80004" lon="5.17353">
        <ele>266</ele>
        <time>2023-01-30T15:20:55.000Z</time>
      </trkpt>
      <trkpt lat="48.80004" lon="5.1735">
        <ele>266</ele>
        <time>2023-01-30T15:20:56.000Z</time>
      </trkpt>
      <trkpt lat="48.80004" lon="5.17348">
        <ele>266</ele>
        <time>2023-01-30T15:20:57.000Z</time>
      </trkpt>
      <trkpt lat="48.80003" lon="5.17345">
        <ele>266</ele>
        <time>2023-01-30T15:20:58.000Z</time>
      </trkpt>
      <trkpt lat="48.80003" lon="5.17342">
        <ele>266</ele>
        <time>2023-01-30T15:20:59.000Z</time>
      </trkpt>
      <trkpt lat="48.80004" lon="5.17338">
        <ele>266</ele>
        <time>2023-01-30T15:21:00.000Z</time>
      </trkpt>
      <trkpt lat="48.80005" lon="5.17335">
        <ele>266</ele>
        <time>2023-01-30T15:21:01.000Z</time>
      </trkpt>
      <trkpt lat="48.80005" lon="5.17333">
        <ele>266</ele>
        <time>2023-01-30T15:21:02.000Z</time>
      </trkpt>
      <trkpt lat="48.80006" lon="5.17332">
        <ele>266</ele>
        <time>2023-01-30T15:21:03.000Z</time>
      </trkpt>
      <trkpt lat="48.80007" lon="5.17331">
        <ele>266</ele>
        <time>2023-01-30T15:21:04.000Z</time>
      </trkpt>
      <trkpt lat="48.80007" lon="5.17329">
        <ele>266</ele>
        <time>2023-01-30T15:21:05.000Z</time>
      </trkpt>
      <trkpt lat="48.80008" lon="5.17327">
        <ele>266</ele>
        <time>2023-01-30T15:21:06.000Z</time>
      </trkpt>
      <trkpt lat="48.80008" lon="5.17325">
        <ele>266</ele>
        <time>2023-01-30T15:21:07.000Z</time>
      </trkpt>
      <trkpt lat="48.80008" lon="5.17323">
        <ele>266</ele>
        <time>2023-01-30T15:21:08.000Z</time>
      </trkpt>
      <trkpt lat="48.80007" lon="5.1732">
        <ele>266</ele>
        <time>2023-01-30T15:21:09.000Z</time>
      </trkpt>
      <trkpt lat="48.80007" lon="5.17317">
        <ele>266</ele>
        <time>2023-01-30T15:21:10.000Z</time>
      </trkpt>
      <trkpt lat="48.80008" lon="5.17314">
        <ele>266</ele>
        <time>2023-01-30T15:21:11.000Z</time>
      </trkpt>
      <trkpt lat="48.80008" lon="5.17311">
        <ele>266</ele>
        <time>2023-01-30T15:21:12.000Z</time>
      </trkpt>
      <trkpt lat="48.80009" lon="5.17307">
        <ele>266</ele>
        <time>2023-01-30T15:21:13.000Z</time>
      </trkpt>
      <trkpt lat="48.8001" lon="5.17304">
        <ele>266</ele>
        <time>2023-01-30T15:21:14.000Z</time>
      </trkpt>
      <trkpt lat="48.8001" lon="5.17302">
        <ele>266</ele>
        <time>2023-01-30T15:21:15.000Z</time>
      </trkpt>
      <trkpt lat="48.80011" lon="5.173">
        <ele>266</ele>
        <time>2023-01-30T15:21:16.000Z</time>
      </trkpt>
      <trkpt lat="48.80012" lon="5.17299">
        <ele>266</ele>
        <time>2023-01-30T15:21:17.000Z</time>
      </trkpt>
      <trkpt lat="48.80012" lon="5.17298">
        <ele>266</ele>
        <time>2023-01-30T15:21:18.000Z</time>
      </trkpt>
      <trkpt lat="48.80012" lon="5.17296">
        <ele>266</ele>
        <time>2023-01-30T15:21:19.000Z</time>
      </trkpt>
      <trkpt lat="48.80014" lon="5.17293">
        <ele>266</ele>
        <time>2023-01-30T15:21:20.000Z</time>
      </trkpt>
      <trkpt lat="48.80015" lon="5.17289">
        <ele>266</ele>
        <time>2023-01-30T15:21:21.000Z</time>
      </trkpt>
      <trkpt lat="48.80016" lon="5.17286">
        <ele>266</ele>
        <time>2023-01-30T15:21:22.000Z</time>
      </trkpt>
      <trkpt lat="48.80017" lon="5.17282">
        <ele>266</ele>
        <time>2023-01-30T15:21:23.000Z</time>
      </trkpt>
      <trkpt lat="48.80017" lon="5.17279">
        <ele>266</ele>
        <time>2023-01-30T15:21:24.000Z</time>
      </trkpt>
      <trkpt lat="48.80018" lon="5.17276">
        <ele>266</ele>
        <time>2023-01-30T15:21:25.000Z</time>
      </trkpt>
      <trkpt lat="48.80018" lon="5.17274">
        <ele>266</ele>
        <time>2023-01-30T15:21:26.000Z</time>
      </trkpt>
      <trkpt lat="48.80018" lon="5.17272">
        <ele>266</ele>
        <time>2023-01-30T15:21:27.000Z</time>
      </trkpt>
      <trkpt lat="48.80018" lon="5.1727">
        <ele>266</ele>
        <time>2023-01-30T15:21:28.000Z</time>
      </trkpt>
      <trkpt lat="48.80018" lon="5.17269">
        <ele>266</ele>
        <time>2023-01-30T15:21:29.000Z</time>
      </trkpt>
      <trkpt lat="48.80018" lon="5.17267">
        <ele>266</ele>
        <time>2023-01-30T15:21:30.000Z</time>
      </trkpt>
      <trkpt lat="48.80018" lon="5.17265">
        <ele>266</ele>
        <time>2023-01-30T15:21:31.000Z</time>
      </trkpt>
      <trkpt lat="48.80017" lon="5.17264">
        <ele>266</ele>
        <time>2023-01-30T15:21:32.000Z</time>
      </trkpt>
      <trkpt lat="48.80017" lon="5.17262">
        <ele>266</ele>
        <time>2023-01-30T15:21:33.000Z</time>
      </trkpt>
      <trkpt lat="48.80018" lon="5.1726">
        <ele>266</ele>
        <time>2023-01-30T15:21:34.000Z</time>
      </trkpt>
      <trkpt lat="48.80018" lon="5.17258">
        <ele>266</ele>
        <time>2023-01-30T15:21:35.000Z</time>
      </trkpt>
      <trkpt lat="48.80018" lon="5.17255">
        <ele>267</ele>
        <time>2023-01-30T15:21:36.000Z</time>
      </trkpt>
      <trkpt lat="48.80019" lon="5.17251">
        <ele>267</ele>
        <time>2023-01-30T15:21:37.000Z</time>
      </trkpt>
      <trkpt lat="48.80019" lon="5.17247">
        <ele>267</ele>
        <time>2023-01-30T15:21:38.000Z</time>
      </trkpt>
      <trkpt lat="48.8002" lon="5.17243">
        <ele>267</ele>
        <time>2023-01-30T15:21:39.000Z</time>
      </trkpt>
      <trkpt lat="48.8002" lon="5.17239">
        <ele>267</ele>
        <time>2023-01-30T15:21:40.000Z</time>
      </trkpt>
      <trkpt lat="48.8002" lon="5.17237">
        <ele>267</ele>
        <time>2023-01-30T15:21:41.000Z</time>
      </trkpt>
      <trkpt lat="48.80021" lon="5.17235">
        <ele>267</ele>
        <time>2023-01-30T15:21:42.000Z</time>
      </trkpt>
      <trkpt lat="48.80021" lon="5.17234">
        <ele>267</ele>
        <time>2023-01-30T15:21:43.000Z</time>
      </trkpt>
      <trkpt lat="48.80022" lon="5.17232">
        <ele>267</ele>
        <time>2023-01-30T15:21:44.000Z</time>
      </trkpt>
      <trkpt lat="48.80022" lon="5.17231">
        <ele>267</ele>
        <time>2023-01-30T15:21:45.000Z</time>
      </trkpt>
      <trkpt lat="48.80022" lon="5.1723">
        <ele>267</ele>
        <time>2023-01-30T15:21:46.000Z</time>
      </trkpt>
      <trkpt lat="48.80022" lon="5.17228">
        <ele>267</ele>
        <time>2023-01-30T15:21:47.000Z</time>
      </trkpt>
      <trkpt lat="48.80022" lon="5.17225">
        <ele>267</ele>
        <time>2023-01-30T15:21:48.000Z</time>
      </trkpt>
      <trkpt lat="48.80023" lon="5.17223">
        <ele>267</ele>
        <time>2023-01-30T15:21:49.000Z</time>
      </trkpt>
      <trkpt lat="48.80023" lon="5.1722">
        <ele>267</ele>
        <time>2023-01-30T15:21:50.000Z</time>
      </trkpt>
      <trkpt lat="48.80023" lon="5.17217">
        <ele>267</ele>
        <time>2023-01-30T15:21:51.000Z</time>
      </trkpt>
      <trkpt lat="48.80024" lon="5.17214">
        <ele>267.5</ele>
        <time>2023-01-30T15:21:52.000Z</time>
      </trkpt>
      <trkpt lat="48.80024" lon="5.1721">
        <ele>268</ele>
        <time>2023-01-30T15:21:53.000Z</time>
      </trkpt>
      <trkpt lat="48.80024" lon="5.17205">
        <ele>268</ele>
        <time>2023-01-30T15:21:54.000Z</time>
      </trkpt>
      <trkpt lat="48.80024" lon="5.17203">
        <ele>268</ele>
        <time>2023-01-30T15:21:55.000Z</time>
      </trkpt>
      <trkpt lat="48.80024" lon="5.17201">
        <ele>268</ele>
        <time>2023-01-30T15:21:56.000Z</time>
      </trkpt>
      <trkpt lat="48.80024" lon="5.17199">
        <ele>268</ele>
        <time>2023-01-30T15:21:57.000Z</time>
      </trkpt>
      <trkpt lat="48.80024" lon="5.17198">
        <ele>268</ele>
        <time>2023-01-30T15:21:58.000Z</time>
      </trkpt>
      <trkpt lat="48.80024" lon="5.17196">
        <ele>268</ele>
        <time>2023-01-30T15:21:59.000Z</time>
      </trkpt>
      <trkpt lat="48.80024" lon="5.17194">
        <ele>268</ele>
        <time>2023-01-30T15:22:00.000Z</time>
      </trkpt>
      <trkpt lat="48.80024" lon="5.17192">
        <ele>268</ele>
        <time>2023-01-30T15:22:01.000Z</time>
      </trkpt>
      <trkpt lat="48.80024" lon="5.1719">
        <ele>268</ele>
        <time>2023-01-30T15:22:02.000Z</time>
      </trkpt>
      <trkpt lat="48.80024" lon="5.17188">
        <ele>268</ele>
        <time>2023-01-30T15:22:03.000Z</time>
      </trkpt>
      <trkpt lat="48.80023" lon="5.17185">
        <ele>268</ele>
        <time>2023-01-30T15:22:04.000Z</time>
      </trkpt>
      <trkpt lat="48.80023" lon="5.17182">
        <ele>268</ele>
        <time>2023-01-30T15:22:05.000Z</time>
      </trkpt>
      <trkpt lat="48.80022" lon="5.17179">
        <ele>268</ele>
        <time>2023-01-30T15:22:06.000Z</time>
      </trkpt>
      <trkpt lat="48.80022" lon="5.17175">
        <ele>268</ele>
        <time>2023-01-30T15:22:07.000Z</time>
      </trkpt>
      <trkpt lat="48.80023" lon="5.17171">
        <ele>268</ele>
        <time>2023-01-30T15:22:08.000Z</time>
      </trkpt>
      <trkpt lat="48.80024" lon="5.17168">
        <ele>268</ele>
        <time>2023-01-30T15:22:09.000Z</time>
      </trkpt>
      <trkpt lat="48.80025" lon="5.17165">
        <ele>268</ele>
        <time>2023-01-30T15:22:10.000Z</time>
      </trkpt>
      <trkpt lat="48.80025" lon="5.17163">
        <ele>268</ele>
        <time>2023-01-30T15:22:11.000Z</time>
      </trkpt>
      <trkpt lat="48.80026" lon="5.17161">
        <ele>268.5</ele>
        <time>2023-01-30T15:22:12.000Z</time>
      </trkpt>
      <trkpt lat="48.80027" lon="5.17159">
        <ele>269</ele>
        <time>2023-01-30T15:22:13.000Z</time>
      </trkpt>
      <trkpt lat="48.80028" lon="5.17158">
        <ele>269</ele>
        <time>2023-01-30T15:22:14.000Z</time>
      </trkpt>
      <trkpt lat="48.80029" lon="5.17157">
        <ele>269</ele>
        <time>2023-01-30T15:22:15.000Z</time>
      </trkpt>
      <trkpt lat="48.80029" lon="5.17156">
        <ele>269</ele>
        <time>2023-01-30T15:22:16.000Z</time>
      </trkpt>
      <trkpt lat="48.8003" lon="5.17154">
        <ele>269</ele>
        <time>2023-01-30T15:22:17.000Z</time>
      </trkpt>
      <trkpt lat="48.8003" lon="5.17151">
        <ele>269</ele>
        <time>2023-01-30T15:22:18.000Z</time>
      </trkpt>
      <trkpt lat="48.80031" lon="5.17148">
        <ele>269</ele>
        <time>2023-01-30T15:22:19.000Z</time>
      </trkpt>
      <trkpt lat="48.80031" lon="5.17145">
        <ele>269</ele>
        <time>2023-01-30T15:22:20.000Z</time>
      </trkpt>
      <trkpt lat="48.80031" lon="5.17142">
        <ele>269</ele>
        <time>2023-01-30T15:22:21.000Z</time>
      </trkpt>
      <trkpt lat="48.80031" lon="5.17139">
        <ele>269</ele>
        <time>2023-01-30T15:22:22.000Z</time>
      </trkpt>
      <trkpt lat="48.80032" lon="5.17136">
        <ele>269.5</ele>
        <time>2023-01-30T15:22:23.000Z</time>
      </trkpt>
      <trkpt lat="48.80033" lon="5.17133">
        <ele>270</ele>
        <time>2023-01-30T15:22:24.000Z</time>
      </trkpt>
      <trkpt lat="48.80034" lon="5.1713">
        <ele>270</ele>
        <time>2023-01-30T15:22:25.000Z</time>
      </trkpt>
      <trkpt lat="48.80036" lon="5.17127">
        <ele>270</ele>
        <time>2023-01-30T15:22:26.000Z</time>
      </trkpt>
      <trkpt lat="48.80037" lon="5.17125">
        <ele>270</ele>
        <time>2023-01-30T15:22:27.000Z</time>
      </trkpt>
      <trkpt lat="48.80038" lon="5.17123">
        <ele>270</ele>
        <time>2023-01-30T15:22:28.000Z</time>
      </trkpt>
      <trkpt lat="48.80039" lon="5.1712">
        <ele>270</ele>
        <time>2023-01-30T15:22:29.000Z</time>
      </trkpt>
      <trkpt lat="48.8004" lon="5.17118">
        <ele>270</ele>
        <time>2023-01-30T15:22:30.000Z</time>
      </trkpt>
      <trkpt lat="48.80041" lon="5.17117">
        <ele>270</ele>
        <time>2023-01-30T15:22:31.000Z</time>
      </trkpt>
      <trkpt lat="48.80041" lon="5.17115">
        <ele>270</ele>
        <time>2023-01-30T15:22:32.000Z</time>
      </trkpt>
      <trkpt lat="48.80042" lon="5.17114">
        <ele>270</ele>
        <time>2023-01-30T15:22:33.000Z</time>
      </trkpt>
      <trkpt lat="48.80043" lon="5.17113">
        <ele>270</ele>
        <time>2023-01-30T15:22:34.000Z</time>
      </trkpt>
      <trkpt lat="48.80043" lon="5.17111">
        <ele>270</ele>
        <time>2023-01-30T15:22:35.000Z</time>
      </trkpt>
      <trkpt lat="48.80044" lon="5.1711">
        <ele>270</ele>
        <time>2023-01-30T15:22:36.000Z</time>
      </trkpt>
      <trkpt lat="48.80045" lon="5.17108">
        <ele>270</ele>
        <time>2023-01-30T15:22:37.000Z</time>
      </trkpt>
      <trkpt lat="48.80046" lon="5.17107">
        <ele>270</ele>
        <time>2023-01-30T15:22:38.000Z</time>
      </trkpt>
      <trkpt lat="48.80047" lon="5.17105">
        <ele>270</ele>
        <time>2023-01-30T15:22:39.000Z</time>
      </trkpt>
      <trkpt lat="48.80048" lon="5.17102">
        <ele>270</ele>
        <time>2023-01-30T15:22:40.000Z</time>
      </trkpt>
      <trkpt lat="48.80049" lon="5.17099">
        <ele>270</ele>
        <time>2023-01-30T15:22:41.000Z</time>
      </trkpt>
      <trkpt lat="48.8005" lon="5.17096">
        <ele>270</ele>
        <time>2023-01-30T15:22:42.000Z</time>
      </trkpt>
      <trkpt lat="48.80052" lon="5.17093">
        <ele>270</ele>
        <time>2023-01-30T15:22:43.000Z</time>
      </trkpt>
      <trkpt lat="48.80053" lon="5.1709">
        <ele>270</ele>
        <time>2023-01-30T15:22:44.000Z</time>
      </trkpt>
      <trkpt lat="48.80053" lon="5.17087">
        <ele>270</ele>
        <time>2023-01-30T15:22:45.000Z</time>
      </trkpt>
      <trkpt lat="48.80054" lon="5.17084">
        <ele>270</ele>
        <time>2023-01-30T15:22:46.000Z</time>
      </trkpt>
      <trkpt lat="48.80056" lon="5.17081">
        <ele>270</ele>
        <time>2023-01-30T15:22:47.000Z</time>
      </trkpt>
      <trkpt lat="48.80057" lon="5.17078">
        <ele>271</ele>
        <time>2023-01-30T15:22:48.000Z</time>
      </trkpt>
      <trkpt lat="48.80058" lon="5.17074">
        <ele>271</ele>
        <time>2023-01-30T15:22:49.000Z</time>
      </trkpt>
      <trkpt lat="48.80058" lon="5.17072">
        <ele>271</ele>
        <time>2023-01-30T15:22:50.000Z</time>
      </trkpt>
      <trkpt lat="48.80059" lon="5.17069">
        <ele>271</ele>
        <time>2023-01-30T15:22:51.000Z</time>
      </trkpt>
      <trkpt lat="48.80059" lon="5.17067">
        <ele>271</ele>
        <time>2023-01-30T15:22:52.000Z</time>
      </trkpt>
      <trkpt lat="48.80059" lon="5.17066">
        <ele>271</ele>
        <time>2023-01-30T15:22:53.000Z</time>
      </trkpt>
      <trkpt lat="48.80059" lon="5.17064">
        <ele>271</ele>
        <time>2023-01-30T15:22:54.000Z</time>
      </trkpt>
      <trkpt lat="48.80059" lon="5.17063">
        <ele>271</ele>
        <time>2023-01-30T15:22:55.000Z</time>
      </trkpt>
      <trkpt lat="48.80059" lon="5.17061">
        <ele>271</ele>
        <time>2023-01-30T15:22:56.000Z</time>
      </trkpt>
      <trkpt lat="48.80059" lon="5.1706">
        <ele>271</ele>
        <time>2023-01-30T15:22:57.000Z</time>
      </trkpt>
      <trkpt lat="48.80059" lon="5.17058">
        <ele>271</ele>
        <time>2023-01-30T15:22:58.000Z</time>
      </trkpt>
      <trkpt lat="48.80059" lon="5.17056">
        <ele>271</ele>
        <time>2023-01-30T15:22:59.000Z</time>
      </trkpt>
      <trkpt lat="48.80058" lon="5.17053">
        <ele>271</ele>
        <time>2023-01-30T15:23:00.000Z</time>
      </trkpt>
      <trkpt lat="48.80058" lon="5.1705">
        <ele>271</ele>
        <time>2023-01-30T15:23:01.000Z</time>
      </trkpt>
      <trkpt lat="48.80058" lon="5.17047">
        <ele>271</ele>
        <time>2023-01-30T15:23:02.000Z</time>
      </trkpt>
      <trkpt lat="48.80058" lon="5.17044">
        <ele>271</ele>
        <time>2023-01-30T15:23:03.000Z</time>
      </trkpt>
      <trkpt lat="48.80058" lon="5.1704">
        <ele>271.5</ele>
        <time>2023-01-30T15:23:04.000Z</time>
      </trkpt>
      <trkpt lat="48.80058" lon="5.17036">
        <ele>272</ele>
        <time>2023-01-30T15:23:05.000Z</time>
      </trkpt>
      <trkpt lat="48.80058" lon="5.17033">
        <ele>271</ele>
        <time>2023-01-30T15:23:06.000Z</time>
      </trkpt>
      <trkpt lat="48.80058" lon="5.17029">
        <ele>271.3</ele>
        <time>2023-01-30T15:23:07.000Z</time>
      </trkpt>
      <trkpt lat="48.80057" lon="5.17026">
        <ele>271.7</ele>
        <time>2023-01-30T15:23:08.000Z</time>
      </trkpt>
      <trkpt lat="48.80057" lon="5.17024">
        <ele>272</ele>
        <time>2023-01-30T15:23:09.000Z</time>
      </trkpt>
      <trkpt lat="48.80057" lon="5.17022">
        <ele>272</ele>
        <time>2023-01-30T15:23:10.000Z</time>
      </trkpt>
      <trkpt lat="48.80057" lon="5.17021">
        <ele>271.7</ele>
        <time>2023-01-30T15:23:11.000Z</time>
      </trkpt>
      <trkpt lat="48.80056" lon="5.17019">
        <ele>271.3</ele>
        <time>2023-01-30T15:23:12.000Z</time>
      </trkpt>
      <trkpt lat="48.80056" lon="5.17018">
        <ele>271</ele>
        <time>2023-01-30T15:23:13.000Z</time>
      </trkpt>
      <trkpt lat="48.80055" lon="5.17016">
        <ele>272</ele>
        <time>2023-01-30T15:23:14.000Z</time>
      </trkpt>
      <trkpt lat="48.80055" lon="5.17013">
        <ele>272</ele>
        <time>2023-01-30T15:23:15.000Z</time>
      </trkpt>
      <trkpt lat="48.80054" lon="5.17011">
        <ele>272</ele>
        <time>2023-01-30T15:23:16.000Z</time>
      </trkpt>
      <trkpt lat="48.80054" lon="5.17008">
        <ele>272</ele>
        <time>2023-01-30T15:23:17.000Z</time>
      </trkpt>
      <trkpt lat="48.80053" lon="5.17006">
        <ele>272</ele>
        <time>2023-01-30T15:23:18.000Z</time>
      </trkpt>
      <trkpt lat="48.80053" lon="5.17003">
        <ele>272</ele>
        <time>2023-01-30T15:23:19.000Z</time>
      </trkpt>
      <trkpt lat="48.80052" lon="5.16999">
        <ele>272</ele>
        <time>2023-01-30T15:23:20.000Z</time>
      </trkpt>
      <trkpt lat="48.80052" lon="5.16996">
        <ele>272</ele>
        <time>2023-01-30T15:23:21.000Z</time>
      </trkpt>
      <trkpt lat="48.80051" lon="5.16994">
        <ele>272</ele>
        <time>2023-01-30T15:23:22.000Z</time>
      </trkpt>
      <trkpt lat="48.80051" lon="5.16991">
        <ele>272</ele>
        <time>2023-01-30T15:23:23.000Z</time>
      </trkpt>
      <trkpt lat="48.80051" lon="5.16988">
        <ele>272</ele>
        <time>2023-01-30T15:23:24.000Z</time>
      </trkpt>
      <trkpt lat="48.8005" lon="5.16986">
        <ele>272</ele>
        <time>2023-01-30T15:23:25.000Z</time>
      </trkpt>
      <trkpt lat="48.8005" lon="5.16985">
        <ele>272</ele>
        <time>2023-01-30T15:23:26.000Z</time>
      </trkpt>
      <trkpt lat="48.80049" lon="5.16983">
        <ele>272</ele>
        <time>2023-01-30T15:23:27.000Z</time>
      </trkpt>
      <trkpt lat="48.80049" lon="5.16982">
        <ele>272</ele>
        <time>2023-01-30T15:23:28.000Z</time>
      </trkpt>
      <trkpt lat="48.80049" lon="5.16981">
        <ele>272</ele>
        <time>2023-01-30T15:23:29.000Z</time>
      </trkpt>
      <trkpt lat="48.80048" lon="5.16979">
        <ele>272</ele>
        <time>2023-01-30T15:23:30.000Z</time>
      </trkpt>
      <trkpt lat="48.80048" lon="5.16978">
        <ele>272</ele>
        <time>2023-01-30T15:23:31.000Z</time>
      </trkpt>
      <trkpt lat="48.80048" lon="5.16976">
        <ele>272</ele>
        <time>2023-01-30T15:23:32.000Z</time>
      </trkpt>
      <trkpt lat="48.80047" lon="5.16974">
        <ele>272</ele>
        <time>2023-01-30T15:23:33.000Z</time>
      </trkpt>
      <trkpt lat="48.80046" lon="5.16972">
        <ele>272</ele>
        <time>2023-01-30T15:23:34.000Z</time>
      </trkpt>
      <trkpt lat="48.80045" lon="5.16969">
        <ele>272</ele>
        <time>2023-01-30T15:23:35.000Z</time>
      </trkpt>
      <trkpt lat="48.80045" lon="5.16967">
        <ele>272</ele>
        <time>2023-01-30T15:23:36.000Z</time>
      </trkpt>
      <trkpt lat="48.80044" lon="5.16965">
        <ele>272</ele>
        <time>2023-01-30T15:23:37.000Z</time>
      </trkpt>
      <trkpt lat="48.80043" lon="5.16963">
        <ele>272</ele>
        <time>2023-01-30T15:23:38.000Z</time>
      </trkpt>
      <trkpt lat="48.80042" lon="5.16961">
        <ele>272</ele>
        <time>2023-01-30T15:23:39.000Z</time>
      </trkpt>
      <trkpt lat="48.80041" lon="5.16958">
        <ele>272</ele>
        <time>2023-01-30T15:23:40.000Z</time>
      </trkpt>
      <trkpt lat="48.8004" lon="5.16954">
        <ele>272</ele>
        <time>2023-01-30T15:23:41.000Z</time>
      </trkpt>
      <trkpt lat="48.80039" lon="5.16949">
        <ele>272</ele>
        <time>2023-01-30T15:23:42.000Z</time>
      </trkpt>
      <trkpt lat="48.80039" lon="5.16946">
        <ele>272</ele>
        <time>2023-01-30T15:23:43.000Z</time>
      </trkpt>
      <trkpt lat="48.80039" lon="5.16943">
        <ele>272</ele>
        <time>2023-01-30T15:23:44.000Z</time>
      </trkpt>
      <trkpt lat="48.80038" lon="5.16941">
        <ele>272</ele>
        <time>2023-01-30T15:23:45.000Z</time>
      </trkpt>
      <trkpt lat="48.80038" lon="5.16939">
        <ele>272</ele>
        <time>2023-01-30T15:23:46.000Z</time>
      </trkpt>
      <trkpt lat="48.80037" lon="5.16938">
        <ele>272</ele>
        <time>2023-01-30T15:23:47.000Z</time>
      </trkpt>
      <trkpt lat="48.80037" lon="5.16936">
        <ele>272</ele>
        <time>2023-01-30T15:23:48.000Z</time>
      </trkpt>
      <trkpt lat="48.80037" lon="5.16935">
        <ele>272</ele>
        <time>2023-01-30T15:23:49.000Z</time>
      </trkpt>
      <trkpt lat="48.80036" lon="5.16933">
        <ele>272</ele>
        <time>2023-01-30T15:23:50.000Z</time>
      </trkpt>
      <trkpt lat="48.80035" lon="5.16932">
        <ele>272</ele>
        <time>2023-01-30T15:23:51.000Z</time>
      </trkpt>
      <trkpt lat="48.80034" lon="5.16929">
        <ele>272</ele>
        <time>2023-01-30T15:23:52.000Z</time>
      </trkpt>
      <trkpt lat="48.80033" lon="5.16927">
        <ele>272</ele>
        <time>2023-01-30T15:23:53.000Z</time>
      </trkpt>
      <trkpt lat="48.80032" lon="5.16924">
        <ele>272</ele>
        <time>2023-01-30T15:23:54.000Z</time>
      </trkpt>
      <trkpt lat="48.80031" lon="5.16922">
        <ele>272</ele>
        <time>2023-01-30T15:23:55.000Z</time>
      </trkpt>
      <trkpt lat="48.80031" lon="5.16919">
        <ele>272</ele>
        <time>2023-01-30T15:23:56.000Z</time>
      </trkpt>
      <trkpt lat="48.8003" lon="5.16917">
        <ele>272</ele>
        <time>2023-01-30T15:23:57.000Z</time>
      </trkpt>
      <trkpt lat="48.8003" lon="5.16914">
        <ele>272</ele>
        <time>2023-01-30T15:23:58.000Z</time>
      </trkpt>
      <trkpt lat="48.80029" lon="5.16911">
        <ele>272</ele>
        <time>2023-01-30T15:23:59.000Z</time>
      </trkpt>
      <trkpt lat="48.80028" lon="5.16907">
        <ele>272</ele>
        <time>2023-01-30T15:24:00.000Z</time>
      </trkpt>
      <trkpt lat="48.80027" lon="5.16904">
        <ele>272</ele>
        <time>2023-01-30T15:24:01.000Z</time>
      </trkpt>
      <trkpt lat="48.80026" lon="5.169">
        <ele>272</ele>
        <time>2023-01-30T15:24:02.000Z</time>
      </trkpt>
      <trkpt lat="48.80026" lon="5.16898">
        <ele>272</ele>
        <time>2023-01-30T15:24:03.000Z</time>
      </trkpt>
      <trkpt lat="48.80025" lon="5.16895">
        <ele>272</ele>
        <time>2023-01-30T15:24:04.000Z</time>
      </trkpt>
      <trkpt lat="48.80025" lon="5.16893">
        <ele>272</ele>
        <time>2023-01-30T15:24:05.000Z</time>
      </trkpt>
      <trkpt lat="48.80024" lon="5.16891">
        <ele>272</ele>
        <time>2023-01-30T15:24:06.000Z</time>
      </trkpt>
      <trkpt lat="48.80024" lon="5.16889">
        <ele>272</ele>
        <time>2023-01-30T15:24:07.000Z</time>
      </trkpt>
      <trkpt lat="48.80023" lon="5.16887">
        <ele>272</ele>
        <time>2023-01-30T15:24:08.000Z</time>
      </trkpt>
      <trkpt lat="48.80023" lon="5.16886">
        <ele>272</ele>
        <time>2023-01-30T15:24:09.000Z</time>
      </trkpt>
      <trkpt lat="48.80022" lon="5.16885">
        <ele>272</ele>
        <time>2023-01-30T15:24:10.000Z</time>
      </trkpt>
      <trkpt lat="48.80021" lon="5.16883">
        <ele>272</ele>
        <time>2023-01-30T15:24:11.000Z</time>
      </trkpt>
      <trkpt lat="48.8002" lon="5.16881">
        <ele>272</ele>
        <time>2023-01-30T15:24:12.000Z</time>
      </trkpt>
      <trkpt lat="48.8002" lon="5.16879">
        <ele>272</ele>
        <time>2023-01-30T15:24:13.000Z</time>
      </trkpt>
      <trkpt lat="48.80019" lon="5.16876">
        <ele>272</ele>
        <time>2023-01-30T15:24:14.000Z</time>
      </trkpt>
      <trkpt lat="48.80018" lon="5.16873">
        <ele>272</ele>
        <time>2023-01-30T15:24:15.000Z</time>
      </trkpt>
      <trkpt lat="48.80017" lon="5.1687">
        <ele>272</ele>
        <time>2023-01-30T15:24:16.000Z</time>
      </trkpt>
      <trkpt lat="48.80017" lon="5.16867">
        <ele>272</ele>
        <time>2023-01-30T15:24:17.000Z</time>
      </trkpt>
      <trkpt lat="48.80016" lon="5.16863">
        <ele>272</ele>
        <time>2023-01-30T15:24:18.000Z</time>
      </trkpt>
      <trkpt lat="48.80016" lon="5.1686">
        <ele>272</ele>
        <time>2023-01-30T15:24:19.000Z</time>
      </trkpt>
      <trkpt lat="48.80015" lon="5.16856">
        <ele>272</ele>
        <time>2023-01-30T15:24:20.000Z</time>
      </trkpt>
      <trkpt lat="48.80014" lon="5.16853">
        <ele>272</ele>
        <time>2023-01-30T15:24:21.000Z</time>
      </trkpt>
      <trkpt lat="48.80013" lon="5.1685">
        <ele>272</ele>
        <time>2023-01-30T15:24:22.000Z</time>
      </trkpt>
      <trkpt lat="48.80013" lon="5.16849">
        <ele>272</ele>
        <time>2023-01-30T15:24:23.000Z</time>
      </trkpt>
      <trkpt lat="48.80013" lon="5.16847">
        <ele>272</ele>
        <time>2023-01-30T15:24:24.000Z</time>
      </trkpt>
      <trkpt lat="48.80012" lon="5.16846">
        <ele>272</ele>
        <time>2023-01-30T15:24:25.000Z</time>
      </trkpt>
      <trkpt lat="48.80011" lon="5.16844">
        <ele>272</ele>
        <time>2023-01-30T15:24:26.000Z</time>
      </trkpt>
      <trkpt lat="48.8001" lon="5.16842">
        <ele>272</ele>
        <time>2023-01-30T15:24:27.000Z</time>
      </trkpt>
      <trkpt lat="48.8001" lon="5.1684">
        <ele>272</ele>
        <time>2023-01-30T15:24:28.000Z</time>
      </trkpt>
      <trkpt lat="48.80009" lon="5.16838">
        <ele>272</ele>
        <time>2023-01-30T15:24:29.000Z</time>
      </trkpt>
      <trkpt lat="48.80009" lon="5.16837">
        <ele>272</ele>
        <time>2023-01-30T15:24:30.000Z</time>
      </trkpt>
      <trkpt lat="48.80008" lon="5.16835">
        <ele>272</ele>
        <time>2023-01-30T15:24:31.000Z</time>
      </trkpt>
      <trkpt lat="48.80007" lon="5.16833">
        <ele>272</ele>
        <time>2023-01-30T15:24:32.000Z</time>
      </trkpt>
      <trkpt lat="48.80007" lon="5.16831">
        <ele>272</ele>
        <time>2023-01-30T15:24:33.000Z</time>
      </trkpt>
      <trkpt lat="48.80006" lon="5.16829">
        <ele>272</ele>
        <time>2023-01-30T15:24:34.000Z</time>
      </trkpt>
      <trkpt lat="48.80006" lon="5.16826">
        <ele>272</ele>
        <time>2023-01-30T15:24:35.000Z</time>
      </trkpt>
      <trkpt lat="48.80005" lon="5.16823">
        <ele>272</ele>
        <time>2023-01-30T15:24:36.000Z</time>
      </trkpt>
      <trkpt lat="48.80005" lon="5.1682">
        <ele>272</ele>
        <time>2023-01-30T15:24:37.000Z</time>
      </trkpt>
      <trkpt lat="48.80004" lon="5.16817">
        <ele>272</ele>
        <time>2023-01-30T15:24:38.000Z</time>
      </trkpt>
      <trkpt lat="48.80004" lon="5.16814">
        <ele>272</ele>
        <time>2023-01-30T15:24:39.000Z</time>
      </trkpt>
      <trkpt lat="48.80003" lon="5.16811">
        <ele>272</ele>
        <time>2023-01-30T15:24:40.000Z</time>
      </trkpt>
      <trkpt lat="48.80002" lon="5.16808">
        <ele>272</ele>
        <time>2023-01-30T15:24:41.000Z</time>
      </trkpt>
      <trkpt lat="48.80001" lon="5.16805">
        <ele>272</ele>
        <time>2023-01-30T15:24:42.000Z</time>
      </trkpt>
      <trkpt lat="48.8" lon="5.16802">
        <ele>272</ele>
        <time>2023-01-30T15:24:43.000Z</time>
      </trkpt>
      <trkpt lat="48.8" lon="5.16799">
        <ele>271</ele>
        <time>2023-01-30T15:24:44.000Z</time>
      </trkpt>
      <trkpt lat="48.79999" lon="5.16795">
        <ele>271</ele>
        <time>2023-01-30T15:24:45.000Z</time>
      </trkpt>
      <trkpt lat="48.79998" lon="5.16792">
        <ele>271</ele>
        <time>2023-01-30T15:24:46.000Z</time>
      </trkpt>
      <trkpt lat="48.79997" lon="5.16789">
        <ele>271</ele>
        <time>2023-01-30T15:24:47.000Z</time>
      </trkpt>
      <trkpt lat="48.79996" lon="5.16786">
        <ele>271</ele>
        <time>2023-01-30T15:24:48.000Z</time>
      </trkpt>
      <trkpt lat="48.79996" lon="5.16784">
        <ele>271</ele>
        <time>2023-01-30T15:24:49.000Z</time>
      </trkpt>
      <trkpt lat="48.79995" lon="5.16782">
        <ele>271</ele>
        <time>2023-01-30T15:24:50.000Z</time>
      </trkpt>
      <trkpt lat="48.79995" lon="5.16779">
        <ele>271</ele>
        <time>2023-01-30T15:24:51.000Z</time>
      </trkpt>
      <trkpt lat="48.79994" lon="5.16778">
        <ele>271</ele>
        <time>2023-01-30T15:24:52.000Z</time>
      </trkpt>
      <trkpt lat="48.79994" lon="5.16776">
        <ele>271</ele>
        <time>2023-01-30T15:24:53.000Z</time>
      </trkpt>
      <trkpt lat="48.79993" lon="5.16775">
        <ele>271</ele>
        <time>2023-01-30T15:24:54.000Z</time>
      </trkpt>
      <trkpt lat="48.79993" lon="5.16774">
        <ele>271</ele>
        <time>2023-01-30T15:24:55.000Z</time>
      </trkpt>
      <trkpt lat="48.79992" lon="5.16773">
        <ele>271</ele>
        <time>2023-01-30T15:24:56.000Z</time>
      </trkpt>
      <trkpt lat="48.79992" lon="5.16772">
        <ele>271</ele>
        <time>2023-01-30T15:24:57.000Z</time>
      </trkpt>
      <trkpt lat="48.79991" lon="5.16771">
        <ele>271</ele>
        <time>2023-01-30T15:24:58.000Z</time>
      </trkpt>
      <trkpt lat="48.79991" lon="5.1677">
        <ele>271</ele>
        <time>2023-01-30T15:24:59.000Z</time>
      </trkpt>
      <trkpt lat="48.7999" lon="5.16769">
        <ele>271</ele>
        <time>2023-01-30T15:25:00.000Z</time>
      </trkpt>
      <trkpt lat="48.7999" lon="5.16768">
        <ele>271</ele>
        <time>2023-01-30T15:25:01.000Z</time>
      </trkpt>
      <trkpt lat="48.79989" lon="5.16767">
        <ele>271</ele>
        <time>2023-01-30T15:25:02.000Z</time>
      </trkpt>
      <trkpt lat="48.79989" lon="5.16766">
        <ele>271</ele>
        <time>2023-01-30T15:25:03.000Z</time>
      </trkpt>
      <trkpt lat="48.79988" lon="5.16764">
        <ele>271</ele>
        <time>2023-01-30T15:25:04.000Z</time>
      </trkpt>
      <trkpt lat="48.79988" lon="5.16762">
        <ele>271</ele>
        <time>2023-01-30T15:25:05.000Z</time>
      </trkpt>
      <trkpt lat="48.79987" lon="5.1676">
        <ele>271</ele>
        <time>2023-01-30T15:25:06.000Z</time>
      </trkpt>
      <trkpt lat="48.79987" lon="5.16758">
        <ele>271</ele>
        <time>2023-01-30T15:25:07.000Z</time>
      </trkpt>
      <trkpt lat="48.79986" lon="5.16754">
        <ele>271</ele>
        <time>2023-01-30T15:25:08.000Z</time>
      </trkpt>
      <trkpt lat="48.79985" lon="5.16752">
        <ele>270.7</ele>
        <time>2023-01-30T15:25:09.000Z</time>
      </trkpt>
      <trkpt lat="48.79984" lon="5.16749">
        <ele>270.3</ele>
        <time>2023-01-30T15:25:10.000Z</time>
      </trkpt>
      <trkpt lat="48.79984" lon="5.16746">
        <ele>270</ele>
        <time>2023-01-30T15:25:11.000Z</time>
      </trkpt>
      <trkpt lat="48.79983" lon="5.16743">
        <ele>270</ele>
        <time>2023-01-30T15:25:12.000Z</time>
      </trkpt>
      <trkpt lat="48.79982" lon="5.1674">
        <ele>270</ele>
        <time>2023-01-30T15:25:13.000Z</time>
      </trkpt>
      <trkpt lat="48.79981" lon="5.16736">
        <ele>270</ele>
        <time>2023-01-30T15:25:14.000Z</time>
      </trkpt>
      <trkpt lat="48.7998" lon="5.16733">
        <ele>270</ele>
        <time>2023-01-30T15:25:15.000Z</time>
      </trkpt>
      <trkpt lat="48.79979" lon="5.1673">
        <ele>270</ele>
        <time>2023-01-30T15:25:16.000Z</time>
      </trkpt>
      <trkpt lat="48.79978" lon="5.16727">
        <ele>270</ele>
        <time>2023-01-30T15:25:17.000Z</time>
      </trkpt>
      <trkpt lat="48.79977" lon="5.16724">
        <ele>270</ele>
        <time>2023-01-30T15:25:18.000Z</time>
      </trkpt>
      <trkpt lat="48.79976" lon="5.16722">
        <ele>270</ele>
        <time>2023-01-30T15:25:19.000Z</time>
      </trkpt>
      <trkpt lat="48.79976" lon="5.1672">
        <ele>270</ele>
        <time>2023-01-30T15:25:20.000Z</time>
      </trkpt>
      <trkpt lat="48.79975" lon="5.16718">
        <ele>270</ele>
        <time>2023-01-30T15:25:21.000Z</time>
      </trkpt>
      <trkpt lat="48.79974" lon="5.16717">
        <ele>270</ele>
        <time>2023-01-30T15:25:22.000Z</time>
      </trkpt>
      <trkpt lat="48.79974" lon="5.16716">
        <ele>270</ele>
        <time>2023-01-30T15:25:23.000Z</time>
      </trkpt>
      <trkpt lat="48.79974" lon="5.16714">
        <ele>270</ele>
        <time>2023-01-30T15:25:24.000Z</time>
      </trkpt>
      <trkpt lat="48.79973" lon="5.16713">
        <ele>270</ele>
        <time>2023-01-30T15:25:25.000Z</time>
      </trkpt>
      <trkpt lat="48.79973" lon="5.16712">
        <ele>270</ele>
        <time>2023-01-30T15:25:26.000Z</time>
      </trkpt>
      <trkpt lat="48.79972" lon="5.16711">
        <ele>270</ele>
        <time>2023-01-30T15:25:27.000Z</time>
      </trkpt>
      <trkpt lat="48.79972" lon="5.16709">
        <ele>270</ele>
        <time>2023-01-30T15:25:28.000Z</time>
      </trkpt>
      <trkpt lat="48.79971" lon="5.16708">
        <ele>270</ele>
        <time>2023-01-30T15:25:29.000Z</time>
      </trkpt>
      <trkpt lat="48.79971" lon="5.16706">
        <ele>270</ele>
        <time>2023-01-30T15:25:30.000Z</time>
      </trkpt>
      <trkpt lat="48.7997" lon="5.16703">
        <ele>270</ele>
        <time>2023-01-30T15:25:31.000Z</time>
      </trkpt>
      <trkpt lat="48.7997" lon="5.167">
        <ele>270</ele>
        <time>2023-01-30T15:25:32.000Z</time>
      </trkpt>
      <trkpt lat="48.79969" lon="5.16698">
        <ele>269.7</ele>
        <time>2023-01-30T15:25:33.000Z</time>
      </trkpt>
      <trkpt lat="48.79968" lon="5.16695">
        <ele>269.3</ele>
        <time>2023-01-30T15:25:34.000Z</time>
      </trkpt>
      <trkpt lat="48.79967" lon="5.16691">
        <ele>269</ele>
        <time>2023-01-30T15:25:35.000Z</time>
      </trkpt>
      <trkpt lat="48.79967" lon="5.16688">
        <ele>269</ele>
        <time>2023-01-30T15:25:36.000Z</time>
      </trkpt>
      <trkpt lat="48.79966" lon="5.16685">
        <ele>269</ele>
        <time>2023-01-30T15:25:37.000Z</time>
      </trkpt>
      <trkpt lat="48.79965" lon="5.16682">
        <ele>269</ele>
        <time>2023-01-30T15:25:38.000Z</time>
      </trkpt>
      <trkpt lat="48.79965" lon="5.16679">
        <ele>269</ele>
        <time>2023-01-30T15:25:39.000Z</time>
      </trkpt>
      <trkpt lat="48.79964" lon="5.16676">
        <ele>269</ele>
        <time>2023-01-30T15:25:40.000Z</time>
      </trkpt>
      <trkpt lat="48.79964" lon="5.16673">
        <ele>269</ele>
        <time>2023-01-30T15:25:41.000Z</time>
      </trkpt>
      <trkpt lat="48.79964" lon="5.1667">
        <ele>269</ele>
        <time>2023-01-30T15:25:42.000Z</time>
      </trkpt>
      <trkpt lat="48.79964" lon="5.16667">
        <ele>269</ele>
        <time>2023-01-30T15:25:43.000Z</time>
      </trkpt>
      <trkpt lat="48.79963" lon="5.16665">
        <ele>269</ele>
        <time>2023-01-30T15:25:44.000Z</time>
      </trkpt>
      <trkpt lat="48.79963" lon="5.16663">
        <ele>269</ele>
        <time>2023-01-30T15:25:45.000Z</time>
      </trkpt>
      <trkpt lat="48.79963" lon="5.16661">
        <ele>269</ele>
        <time>2023-01-30T15:25:46.000Z</time>
      </trkpt>
      <trkpt lat="48.79963" lon="5.16659">
        <ele>269</ele>
        <time>2023-01-30T15:25:47.000Z</time>
      </trkpt>
      <trkpt lat="48.79963" lon="5.16658">
        <ele>269</ele>
        <time>2023-01-30T15:25:48.000Z</time>
      </trkpt>
      <trkpt lat="48.79962" lon="5.16656">
        <ele>269</ele>
        <time>2023-01-30T15:25:49.000Z</time>
      </trkpt>
      <trkpt lat="48.79962" lon="5.16655">
        <ele>269</ele>
        <time>2023-01-30T15:25:50.000Z</time>
      </trkpt>
      <trkpt lat="48.79962" lon="5.16653">
        <ele>269</ele>
        <time>2023-01-30T15:25:51.000Z</time>
      </trkpt>
      <trkpt lat="48.79961" lon="5.16651">
        <ele>269</ele>
        <time>2023-01-30T15:25:52.000Z</time>
      </trkpt>
      <trkpt lat="48.79961" lon="5.1665">
        <ele>269</ele>
        <time>2023-01-30T15:25:53.000Z</time>
      </trkpt>
      <trkpt lat="48.7996" lon="5.16648">
        <ele>269</ele>
        <time>2023-01-30T15:25:54.000Z</time>
      </trkpt>
      <trkpt lat="48.79959" lon="5.16646">
        <ele>269</ele>
        <time>2023-01-30T15:25:55.000Z</time>
      </trkpt>
      <trkpt lat="48.79958" lon="5.16645">
        <ele>268.5</ele>
        <time>2023-01-30T15:25:56.000Z</time>
      </trkpt>
      <trkpt lat="48.79958" lon="5.16643">
        <ele>268</ele>
        <time>2023-01-30T15:25:57.000Z</time>
      </trkpt>
      <trkpt lat="48.79957" lon="5.16641">
        <ele>268</ele>
        <time>2023-01-30T15:25:58.000Z</time>
      </trkpt>
      <trkpt lat="48.79956" lon="5.16638">
        <ele>268</ele>
        <time>2023-01-30T15:25:59.000Z</time>
      </trkpt>
      <trkpt lat="48.79955" lon="5.16635">
        <ele>268</ele>
        <time>2023-01-30T15:26:00.000Z</time>
      </trkpt>
      <trkpt lat="48.79955" lon="5.16632">
        <ele>268</ele>
        <time>2023-01-30T15:26:01.000Z</time>
      </trkpt>
      <trkpt lat="48.79954" lon="5.16629">
        <ele>268</ele>
        <time>2023-01-30T15:26:02.000Z</time>
      </trkpt>
      <trkpt lat="48.79954" lon="5.16626">
        <ele>268</ele>
        <time>2023-01-30T15:26:03.000Z</time>
      </trkpt>
      <trkpt lat="48.79953" lon="5.16624">
        <ele>268</ele>
        <time>2023-01-30T15:26:04.000Z</time>
      </trkpt>
      <trkpt lat="48.79953" lon="5.16622">
        <ele>268</ele>
        <time>2023-01-30T15:26:05.000Z</time>
      </trkpt>
      <trkpt lat="48.79952" lon="5.1662">
        <ele>268</ele>
        <time>2023-01-30T15:26:06.000Z</time>
      </trkpt>
      <trkpt lat="48.79952" lon="5.16618">
        <ele>268</ele>
        <time>2023-01-30T15:26:07.000Z</time>
      </trkpt>
      <trkpt lat="48.79952" lon="5.16616">
        <ele>268</ele>
        <time>2023-01-30T15:26:08.000Z</time>
      </trkpt>
      <trkpt lat="48.79952" lon="5.16614">
        <ele>268</ele>
        <time>2023-01-30T15:26:09.000Z</time>
      </trkpt>
      <trkpt lat="48.79952" lon="5.16612">
        <ele>268</ele>
        <time>2023-01-30T15:26:10.000Z</time>
      </trkpt>
      <trkpt lat="48.79952" lon="5.16611">
        <ele>268</ele>
        <time>2023-01-30T15:26:11.000Z</time>
      </trkpt>
      <trkpt lat="48.79952" lon="5.1661">
        <ele>268</ele>
        <time>2023-01-30T15:26:12.000Z</time>
      </trkpt>
      <trkpt lat="48.79952" lon="5.16608">
        <ele>268</ele>
        <time>2023-01-30T15:26:13.000Z</time>
      </trkpt>
      <trkpt lat="48.79951" lon="5.16607">
        <ele>268</ele>
        <time>2023-01-30T15:26:14.000Z</time>
      </trkpt>
      <trkpt lat="48.79951" lon="5.16604">
        <ele>268</ele>
        <time>2023-01-30T15:26:15.000Z</time>
      </trkpt>
      <trkpt lat="48.7995" lon="5.16603">
        <ele>267</ele>
        <time>2023-01-30T15:26:16.000Z</time>
      </trkpt>
      <trkpt lat="48.7995" lon="5.16602">
        <ele>267</ele>
        <time>2023-01-30T15:26:17.000Z</time>
      </trkpt>
      <trkpt lat="48.7995" lon="5.16601">
        <ele>267</ele>
        <time>2023-01-30T15:26:18.000Z</time>
      </trkpt>
      <trkpt lat="48.79949" lon="5.16599">
        <ele>267</ele>
        <time>2023-01-30T15:26:19.000Z</time>
      </trkpt>
      <trkpt lat="48.79949" lon="5.16598">
        <ele>267</ele>
        <time>2023-01-30T15:26:20.000Z</time>
      </trkpt>
      <trkpt lat="48.79949" lon="5.16596">
        <ele>267</ele>
        <time>2023-01-30T15:26:21.000Z</time>
      </trkpt>
      <trkpt lat="48.79949" lon="5.16594">
        <ele>267</ele>
        <time>2023-01-30T15:26:22.000Z</time>
      </trkpt>
      <trkpt lat="48.79948" lon="5.16592">
        <ele>267</ele>
        <time>2023-01-30T15:26:23.000Z</time>
      </trkpt>
      <trkpt lat="48.79948" lon="5.1659">
        <ele>267</ele>
        <time>2023-01-30T15:26:24.000Z</time>
      </trkpt>
      <trkpt lat="48.79948" lon="5.16588">
        <ele>267</ele>
        <time>2023-01-30T15:26:25.000Z</time>
      </trkpt>
      <trkpt lat="48.79948" lon="5.16585">
        <ele>267</ele>
        <time>2023-01-30T15:26:26.000Z</time>
      </trkpt>
      <trkpt lat="48.79947" lon="5.16583">
        <ele>267</ele>
        <time>2023-01-30T15:26:27.000Z</time>
      </trkpt>
      <trkpt lat="48.79947" lon="5.1658">
        <ele>266.5</ele>
        <time>2023-01-30T15:26:28.000Z</time>
      </trkpt>
      <trkpt lat="48.79947" lon="5.16577">
        <ele>266</ele>
        <time>2023-01-30T15:26:29.000Z</time>
      </trkpt>
      <trkpt lat="48.79946" lon="5.16573">
        <ele>266</ele>
        <time>2023-01-30T15:26:30.000Z</time>
      </trkpt>
      <trkpt lat="48.79946" lon="5.1657">
        <ele>266</ele>
        <time>2023-01-30T15:26:31.000Z</time>
      </trkpt>
      <trkpt lat="48.79945" lon="5.16566">
        <ele>266</ele>
        <time>2023-01-30T15:26:32.000Z</time>
      </trkpt>
      <trkpt lat="48.79944" lon="5.16563">
        <ele>266</ele>
        <time>2023-01-30T15:26:33.000Z</time>
      </trkpt>
      <trkpt lat="48.79944" lon="5.1656">
        <ele>266</ele>
        <time>2023-01-30T15:26:34.000Z</time>
      </trkpt>
      <trkpt lat="48.79943" lon="5.16557">
        <ele>266</ele>
        <time>2023-01-30T15:26:35.000Z</time>
      </trkpt>
      <trkpt lat="48.79943" lon="5.16553">
        <ele>266</ele>
        <time>2023-01-30T15:26:36.000Z</time>
      </trkpt>
      <trkpt lat="48.79943" lon="5.16551">
        <ele>266</ele>
        <time>2023-01-30T15:26:37.000Z</time>
      </trkpt>
      <trkpt lat="48.79942" lon="5.16548">
        <ele>266</ele>
        <time>2023-01-30T15:26:38.000Z</time>
      </trkpt>
      <trkpt lat="48.79941" lon="5.16544">
        <ele>266</ele>
        <time>2023-01-30T15:26:39.000Z</time>
      </trkpt>
      <trkpt lat="48.7994" lon="5.16541">
        <ele>266</ele>
        <time>2023-01-30T15:26:40.000Z</time>
      </trkpt>
      <trkpt lat="48.79939" lon="5.16538">
        <ele>265.7</ele>
        <time>2023-01-30T15:26:41.000Z</time>
      </trkpt>
      <trkpt lat="48.79938" lon="5.16534">
        <ele>265.3</ele>
        <time>2023-01-30T15:26:42.000Z</time>
      </trkpt>
      <trkpt lat="48.79936" lon="5.16531">
        <ele>265</ele>
        <time>2023-01-30T15:26:43.000Z</time>
      </trkpt>
      <trkpt lat="48.79936" lon="5.16528">
        <ele>265</ele>
        <time>2023-01-30T15:26:44.000Z</time>
      </trkpt>
      <trkpt lat="48.79935" lon="5.16525">
        <ele>265</ele>
        <time>2023-01-30T15:26:45.000Z</time>
      </trkpt>
      <trkpt lat="48.79934" lon="5.16522">
        <ele>265</ele>
        <time>2023-01-30T15:26:46.000Z</time>
      </trkpt>
      <trkpt lat="48.79934" lon="5.1652">
        <ele>265</ele>
        <time>2023-01-30T15:26:47.000Z</time>
      </trkpt>
      <trkpt lat="48.79933" lon="5.16518">
        <ele>265</ele>
        <time>2023-01-30T15:26:48.000Z</time>
      </trkpt>
      <trkpt lat="48.79933" lon="5.16515">
        <ele>265</ele>
        <time>2023-01-30T15:26:49.000Z</time>
      </trkpt>
      <trkpt lat="48.79932" lon="5.16513">
        <ele>265</ele>
        <time>2023-01-30T15:26:50.000Z</time>
      </trkpt>
      <trkpt lat="48.79931" lon="5.1651">
        <ele>265</ele>
        <time>2023-01-30T15:26:51.000Z</time>
      </trkpt>
      <trkpt lat="48.79931" lon="5.16508">
        <ele>264.5</ele>
        <time>2023-01-30T15:26:52.000Z</time>
      </trkpt>
      <trkpt lat="48.7993" lon="5.16505">
        <ele>264</ele>
        <time>2023-01-30T15:26:53.000Z</time>
      </trkpt>
      <trkpt lat="48.79929" lon="5.16503">
        <ele>264</ele>
        <time>2023-01-30T15:26:54.000Z</time>
      </trkpt>
      <trkpt lat="48.79928" lon="5.165">
        <ele>264</ele>
        <time>2023-01-30T15:26:55.000Z</time>
      </trkpt>
      <trkpt lat="48.79928" lon="5.16498">
        <ele>264</ele>
        <time>2023-01-30T15:26:56.000Z</time>
      </trkpt>
      <trkpt lat="48.79927" lon="5.16495">
        <ele>264</ele>
        <time>2023-01-30T15:26:57.000Z</time>
      </trkpt>
      <trkpt lat="48.79927" lon="5.16492">
        <ele>264</ele>
        <time>2023-01-30T15:26:58.000Z</time>
      </trkpt>
      <trkpt lat="48.79926" lon="5.1649">
        <ele>264</ele>
        <time>2023-01-30T15:26:59.000Z</time>
      </trkpt>
      <trkpt lat="48.79925" lon="5.16487">
        <ele>264</ele>
        <time>2023-01-30T15:27:00.000Z</time>
      </trkpt>
      <trkpt lat="48.79924" lon="5.16485">
        <ele>264</ele>
        <time>2023-01-30T15:27:01.000Z</time>
      </trkpt>
      <trkpt lat="48.79924" lon="5.16483">
        <ele>264</ele>
        <time>2023-01-30T15:27:02.000Z</time>
      </trkpt>
      <trkpt lat="48.79923" lon="5.16481">
        <ele>264</ele>
        <time>2023-01-30T15:27:03.000Z</time>
      </trkpt>
      <trkpt lat="48.79923" lon="5.16479">
        <ele>264</ele>
        <time>2023-01-30T15:27:04.000Z</time>
      </trkpt>
      <trkpt lat="48.79923" lon="5.16476">
        <ele>264</ele>
        <time>2023-01-30T15:27:05.000Z</time>
      </trkpt>
      <trkpt lat="48.79922" lon="5.16474">
        <ele>264</ele>
        <time>2023-01-30T15:27:06.000Z</time>
      </trkpt>
      <trkpt lat="48.79922" lon="5.16472">
        <ele>264</ele>
        <time>2023-01-30T15:27:07.000Z</time>
      </trkpt>
      <trkpt lat="48.79921" lon="5.1647">
        <ele>263</ele>
        <time>2023-01-30T15:27:08.000Z</time>
      </trkpt>
      <trkpt lat="48.79921" lon="5.16468">
        <ele>263</ele>
        <time>2023-01-30T15:27:09.000Z</time>
      </trkpt>
      <trkpt lat="48.7992" lon="5.16466">
        <ele>263</ele>
        <time>2023-01-30T15:27:10.000Z</time>
      </trkpt>
      <trkpt lat="48.7992" lon="5.16464">
        <ele>263</ele>
        <time>2023-01-30T15:27:11.000Z</time>
      </trkpt>
      <trkpt lat="48.7992" lon="5.16463">
        <ele>263</ele>
        <time>2023-01-30T15:27:12.000Z</time>
      </trkpt>
      <trkpt lat="48.79919" lon="5.16461">
        <ele>263</ele>
        <time>2023-01-30T15:27:13.000Z</time>
      </trkpt>
      <trkpt lat="48.79919" lon="5.16459">
        <ele>263</ele>
        <time>2023-01-30T15:27:14.000Z</time>
      </trkpt>
      <trkpt lat="48.79919" lon="5.16458">
        <ele>263</ele>
        <time>2023-01-30T15:27:15.000Z</time>
      </trkpt>
      <trkpt lat="48.79919" lon="5.16456">
        <ele>262</ele>
        <time>2023-01-30T15:27:16.000Z</time>
      </trkpt>
      <trkpt lat="48.79919" lon="5.16455">
        <ele>262</ele>
        <time>2023-01-30T15:27:17.000Z</time>
      </trkpt>
      <trkpt lat="48.79919" lon="5.16453">
        <ele>262</ele>
        <time>2023-01-30T15:27:18.000Z</time>
      </trkpt>
      <trkpt lat="48.79919" lon="5.1645">
        <ele>262</ele>
        <time>2023-01-30T15:27:19.000Z</time>
      </trkpt>
      <trkpt lat="48.79918" lon="5.16448">
        <ele>262</ele>
        <time>2023-01-30T15:27:20.000Z</time>
      </trkpt>
      <trkpt lat="48.79918" lon="5.16445">
        <ele>262</ele>
        <time>2023-01-30T15:27:21.000Z</time>
      </trkpt>
      <trkpt lat="48.79918" lon="5.16443">
        <ele>262</ele>
        <time>2023-01-30T15:27:22.000Z</time>
      </trkpt>
      <trkpt lat="48.79917" lon="5.1644">
        <ele>262</ele>
        <time>2023-01-30T15:27:23.000Z</time>
      </trkpt>
      <trkpt lat="48.79917" lon="5.16437">
        <ele>262</ele>
        <time>2023-01-30T15:27:24.000Z</time>
      </trkpt>
      <trkpt lat="48.79917" lon="5.16435">
        <ele>262</ele>
        <time>2023-01-30T15:27:25.000Z</time>
      </trkpt>
      <trkpt lat="48.79918" lon="5.16433">
        <ele>262</ele>
        <time>2023-01-30T15:27:26.000Z</time>
      </trkpt>
      <trkpt lat="48.79919" lon="5.16432">
        <ele>262</ele>
        <time>2023-01-30T15:27:27.000Z</time>
      </trkpt>
      <trkpt lat="48.79919" lon="5.16431">
        <ele>262</ele>
        <time>2023-01-30T15:27:28.000Z</time>
      </trkpt>
      <trkpt lat="48.7992" lon="5.1643">
        <ele>261.7</ele>
        <time>2023-01-30T15:27:29.000Z</time>
      </trkpt>
      <trkpt lat="48.79921" lon="5.16429">
        <ele>261.3</ele>
        <time>2023-01-30T15:27:30.000Z</time>
      </trkpt>
      <trkpt lat="48.79921" lon="5.16428">
        <ele>261</ele>
        <time>2023-01-30T15:27:31.000Z</time>
      </trkpt>
      <trkpt lat="48.79921" lon="5.16427">
        <ele>261</ele>
        <time>2023-01-30T15:27:32.000Z</time>
      </trkpt>
      <trkpt lat="48.79922" lon="5.16426">
        <ele>261</ele>
        <time>2023-01-30T15:27:33.000Z</time>
      </trkpt>
      <trkpt lat="48.79922" lon="5.16425">
        <ele>261</ele>
        <time>2023-01-30T15:27:34.000Z</time>
      </trkpt>
      <trkpt lat="48.79922" lon="5.16424">
        <ele>261</ele>
        <time>2023-01-30T15:27:35.000Z</time>
      </trkpt>
      <trkpt lat="48.79923" lon="5.16422">
        <ele>261</ele>
        <time>2023-01-30T15:27:36.000Z</time>
      </trkpt>
      <trkpt lat="48.79923" lon="5.1642">
        <ele>261</ele>
        <time>2023-01-30T15:27:37.000Z</time>
      </trkpt>
      <trkpt lat="48.79922" lon="5.16418">
        <ele>261</ele>
        <time>2023-01-30T15:27:38.000Z</time>
      </trkpt>
      <trkpt lat="48.79922" lon="5.16416">
        <ele>261</ele>
        <time>2023-01-30T15:27:39.000Z</time>
      </trkpt>
      <trkpt lat="48.79922" lon="5.16414">
        <ele>261</ele>
        <time>2023-01-30T15:27:40.000Z</time>
      </trkpt>
      <trkpt lat="48.79922" lon="5.16412">
        <ele>261</ele>
        <time>2023-01-30T15:27:41.000Z</time>
      </trkpt>
      <trkpt lat="48.79922" lon="5.16411">
        <ele>261</ele>
        <time>2023-01-30T15:27:42.000Z</time>
      </trkpt>
      <trkpt lat="48.79922" lon="5.16409">
        <ele>260.5</ele>
        <time>2023-01-30T15:27:43.000Z</time>
      </trkpt>
      <trkpt lat="48.79922" lon="5.16407">
        <ele>260</ele>
        <time>2023-01-30T15:27:44.000Z</time>
      </trkpt>
      <trkpt lat="48.79922" lon="5.16405">
        <ele>260</ele>
        <time>2023-01-30T15:27:45.000Z</time>
      </trkpt>
      <trkpt lat="48.79922" lon="5.16404">
        <ele>260</ele>
        <time>2023-01-30T15:27:46.000Z</time>
      </trkpt>
      <trkpt lat="48.79922" lon="5.16402">
        <ele>260</ele>
        <time>2023-01-30T15:27:47.000Z</time>
      </trkpt>
      <trkpt lat="48.79922" lon="5.164">
        <ele>260</ele>
        <time>2023-01-30T15:27:48.000Z</time>
      </trkpt>
      <trkpt lat="48.79922" lon="5.16398">
        <ele>260</ele>
        <time>2023-01-30T15:27:49.000Z</time>
      </trkpt>
      <trkpt lat="48.79921" lon="5.16397">
        <ele>260</ele>
        <time>2023-01-30T15:27:50.000Z</time>
      </trkpt>
      <trkpt lat="48.79921" lon="5.16395">
        <ele>260</ele>
        <time>2023-01-30T15:27:51.000Z</time>
      </trkpt>
      <trkpt lat="48.79921" lon="5.16394">
        <ele>260</ele>
        <time>2023-01-30T15:27:52.000Z</time>
      </trkpt>
      <trkpt lat="48.79921" lon="5.16392">
        <ele>260</ele>
        <time>2023-01-30T15:27:53.000Z</time>
      </trkpt>
      <trkpt lat="48.79921" lon="5.16391">
        <ele>260</ele>
        <time>2023-01-30T15:27:54.000Z</time>
      </trkpt>
      <trkpt lat="48.79921" lon="5.16389">
        <ele>260</ele>
        <time>2023-01-30T15:27:55.000Z</time>
      </trkpt>
      <trkpt lat="48.79921" lon="5.16387">
        <ele>260</ele>
        <time>2023-01-30T15:27:56.000Z</time>
      </trkpt>
      <trkpt lat="48.7992" lon="5.16384">
        <ele>260</ele>
        <time>2023-01-30T15:27:57.000Z</time>
      </trkpt>
      <trkpt lat="48.79921" lon="5.16383">
        <ele>259</ele>
        <time>2023-01-30T15:27:58.000Z</time>
      </trkpt>
      <trkpt lat="48.79921" lon="5.16381">
        <ele>259</ele>
        <time>2023-01-30T15:27:59.000Z</time>
      </trkpt>
      <trkpt lat="48.79922" lon="5.16379">
        <ele>259</ele>
        <time>2023-01-30T15:28:00.000Z</time>
      </trkpt>
      <trkpt lat="48.79922" lon="5.16377">
        <ele>259</ele>
        <time>2023-01-30T15:28:01.000Z</time>
      </trkpt>
      <trkpt lat="48.79922" lon="5.16375">
        <ele>259</ele>
        <time>2023-01-30T15:28:02.000Z</time>
      </trkpt>
      <trkpt lat="48.79921" lon="5.16373">
        <ele>259</ele>
        <time>2023-01-30T15:28:03.000Z</time>
      </trkpt>
      <trkpt lat="48.79921" lon="5.16371">
        <ele>259</ele>
        <time>2023-01-30T15:28:04.000Z</time>
      </trkpt>
      <trkpt lat="48.79921" lon="5.16369">
        <ele>259</ele>
        <time>2023-01-30T15:28:05.000Z</time>
      </trkpt>
      <trkpt lat="48.79921" lon="5.16367">
        <ele>259</ele>
        <time>2023-01-30T15:28:06.000Z</time>
      </trkpt>
      <trkpt lat="48.79921" lon="5.16365">
        <ele>259</ele>
        <time>2023-01-30T15:28:07.000Z</time>
      </trkpt>
      <trkpt lat="48.7992" lon="5.16363">
        <ele>259</ele>
        <time>2023-01-30T15:28:08.000Z</time>
      </trkpt>
      <trkpt lat="48.7992" lon="5.16361">
        <ele>259</ele>
        <time>2023-01-30T15:28:09.000Z</time>
      </trkpt>
      <trkpt lat="48.7992" lon="5.16359">
        <ele>259</ele>
        <time>2023-01-30T15:28:10.000Z</time>
      </trkpt>
      <trkpt lat="48.7992" lon="5.16356">
        <ele>259</ele>
        <time>2023-01-30T15:28:11.000Z</time>
      </trkpt>
      <trkpt lat="48.7992" lon="5.16353">
        <ele>259</ele>
        <time>2023-01-30T15:28:12.000Z</time>
      </trkpt>
      <trkpt lat="48.7992" lon="5.1635">
        <ele>259</ele>
        <time>2023-01-30T15:28:13.000Z</time>
      </trkpt>
      <trkpt lat="48.79919" lon="5.16348">
        <ele>259</ele>
        <time>2023-01-30T15:28:14.000Z</time>
      </trkpt>
      <trkpt lat="48.79919" lon="5.16345">
        <ele>259</ele>
        <time>2023-01-30T15:28:15.000Z</time>
      </trkpt>
      <trkpt lat="48.79918" lon="5.16343">
        <ele>259</ele>
        <time>2023-01-30T15:28:16.000Z</time>
      </trkpt>
      <trkpt lat="48.79918" lon="5.1634">
        <ele>258.7</ele>
        <time>2023-01-30T15:28:17.000Z</time>
      </trkpt>
      <trkpt lat="48.79917" lon="5.16338">
        <ele>258.3</ele>
        <time>2023-01-30T15:28:18.000Z</time>
      </trkpt>
      <trkpt lat="48.79917" lon="5.16335">
        <ele>258</ele>
        <time>2023-01-30T15:28:19.000Z</time>
      </trkpt>
      <trkpt lat="48.79916" lon="5.16332">
        <ele>258</ele>
        <time>2023-01-30T15:28:20.000Z</time>
      </trkpt>
      <trkpt lat="48.79916" lon="5.16329">
        <ele>258</ele>
        <time>2023-01-30T15:28:21.000Z</time>
      </trkpt>
      <trkpt lat="48.79915" lon="5.16327">
        <ele>258</ele>
        <time>2023-01-30T15:28:22.000Z</time>
      </trkpt>
      <trkpt lat="48.79915" lon="5.16324">
        <ele>258</ele>
        <time>2023-01-30T15:28:23.000Z</time>
      </trkpt>
      <trkpt lat="48.79915" lon="5.16321">
        <ele>258</ele>
        <time>2023-01-30T15:28:24.000Z</time>
      </trkpt>
      <trkpt lat="48.79916" lon="5.16319">
        <ele>258</ele>
        <time>2023-01-30T15:28:25.000Z</time>
      </trkpt>
      <trkpt lat="48.79916" lon="5.16317">
        <ele>258</ele>
        <time>2023-01-30T15:28:26.000Z</time>
      </trkpt>
      <trkpt lat="48.79916" lon="5.16314">
        <ele>258</ele>
        <time>2023-01-30T15:28:27.000Z</time>
      </trkpt>
      <trkpt lat="48.79915" lon="5.16311">
        <ele>258</ele>
        <time>2023-01-30T15:28:28.000Z</time>
      </trkpt>
      <trkpt lat="48.79915" lon="5.16308">
        <ele>258</ele>
        <time>2023-01-30T15:28:29.000Z</time>
      </trkpt>
      <trkpt lat="48.79914" lon="5.16306">
        <ele>258</ele>
        <time>2023-01-30T15:28:30.000Z</time>
      </trkpt>
      <trkpt lat="48.79915" lon="5.16304">
        <ele>258</ele>
        <time>2023-01-30T15:28:31.000Z</time>
      </trkpt>
      <trkpt lat="48.79915" lon="5.16302">
        <ele>258</ele>
        <time>2023-01-30T15:28:32.000Z</time>
      </trkpt>
      <trkpt lat="48.79914" lon="5.163">
        <ele>258</ele>
        <time>2023-01-30T15:28:33.000Z</time>
      </trkpt>
      <trkpt lat="48.79914" lon="5.16297">
        <ele>258</ele>
        <time>2023-01-30T15:28:34.000Z</time>
      </trkpt>
      <trkpt lat="48.79913" lon="5.16295">
        <ele>258</ele>
        <time>2023-01-30T15:28:35.000Z</time>
      </trkpt>
      <trkpt lat="48.79913" lon="5.16293">
        <ele>258</ele>
        <time>2023-01-30T15:28:36.000Z</time>
      </trkpt>
      <trkpt lat="48.79913" lon="5.16292">
        <ele>258</ele>
        <time>2023-01-30T15:28:37.000Z</time>
      </trkpt>
      <trkpt lat="48.79913" lon="5.1629">
        <ele>258</ele>
        <time>2023-01-30T15:28:38.000Z</time>
      </trkpt>
      <trkpt lat="48.79912" lon="5.16288">
        <ele>258</ele>
        <time>2023-01-30T15:28:39.000Z</time>
      </trkpt>
      <trkpt lat="48.79912" lon="5.16287">
        <ele>258</ele>
        <time>2023-01-30T15:28:40.000Z</time>
      </trkpt>
      <trkpt lat="48.79912" lon="5.16285">
        <ele>258</ele>
        <time>2023-01-30T15:28:41.000Z</time>
      </trkpt>
      <trkpt lat="48.79912" lon="5.16283">
        <ele>258</ele>
        <time>2023-01-30T15:28:42.000Z</time>
      </trkpt>
      <trkpt lat="48.79912" lon="5.1628">
        <ele>258</ele>
        <time>2023-01-30T15:28:43.000Z</time>
      </trkpt>
      <trkpt lat="48.79912" lon="5.16278">
        <ele>257</ele>
        <time>2023-01-30T15:28:44.000Z</time>
      </trkpt>
      <trkpt lat="48.79912" lon="5.16276">
        <ele>257</ele>
        <time>2023-01-30T15:28:45.000Z</time>
      </trkpt>
      <trkpt lat="48.79912" lon="5.16274">
        <ele>257</ele>
        <time>2023-01-30T15:28:46.000Z</time>
      </trkpt>
      <trkpt lat="48.79912" lon="5.16272">
        <ele>257</ele>
        <time>2023-01-30T15:28:47.000Z</time>
      </trkpt>
      <trkpt lat="48.79912" lon="5.16269">
        <ele>257</ele>
        <time>2023-01-30T15:28:48.000Z</time>
      </trkpt>
      <trkpt lat="48.79912" lon="5.16267">
        <ele>257</ele>
        <time>2023-01-30T15:28:49.000Z</time>
      </trkpt>
      <trkpt lat="48.79911" lon="5.16265">
        <ele>257</ele>
        <time>2023-01-30T15:28:50.000Z</time>
      </trkpt>
      <trkpt lat="48.79911" lon="5.16262">
        <ele>257</ele>
        <time>2023-01-30T15:28:51.000Z</time>
      </trkpt>
      <trkpt lat="48.7991" lon="5.1626">
        <ele>257</ele>
        <time>2023-01-30T15:28:52.000Z</time>
      </trkpt>
      <trkpt lat="48.7991" lon="5.16257">
        <ele>257</ele>
        <time>2023-01-30T15:28:53.000Z</time>
      </trkpt>
      <trkpt lat="48.79909" lon="5.16255">
        <ele>257</ele>
        <time>2023-01-30T15:28:54.000Z</time>
      </trkpt>
      <trkpt lat="48.79909" lon="5.16252">
        <ele>257</ele>
        <time>2023-01-30T15:28:55.000Z</time>
      </trkpt>
      <trkpt lat="48.79909" lon="5.1625">
        <ele>257</ele>
        <time>2023-01-30T15:28:56.000Z</time>
      </trkpt>
      <trkpt lat="48.79908" lon="5.16248">
        <ele>256.7</ele>
        <time>2023-01-30T15:28:57.000Z</time>
      </trkpt>
      <trkpt lat="48.79908" lon="5.16247">
        <ele>256.3</ele>
        <time>2023-01-30T15:28:58.000Z</time>
      </trkpt>
      <trkpt lat="48.79908" lon="5.16245">
        <ele>256</ele>
        <time>2023-01-30T15:28:59.000Z</time>
      </trkpt>
      <trkpt lat="48.79908" lon="5.16242">
        <ele>256</ele>
        <time>2023-01-30T15:29:00.000Z</time>
      </trkpt>
      <trkpt lat="48.79908" lon="5.1624">
        <ele>256</ele>
        <time>2023-01-30T15:29:01.000Z</time>
      </trkpt>
      <trkpt lat="48.79908" lon="5.16238">
        <ele>256</ele>
        <time>2023-01-30T15:29:02.000Z</time>
      </trkpt>
      <trkpt lat="48.79908" lon="5.16236">
        <ele>256</ele>
        <time>2023-01-30T15:29:03.000Z</time>
      </trkpt>
      <trkpt lat="48.79908" lon="5.16235">
        <ele>256</ele>
        <time>2023-01-30T15:29:04.000Z</time>
      </trkpt>
      <trkpt lat="48.79908" lon="5.16233">
        <ele>256</ele>
        <time>2023-01-30T15:29:05.000Z</time>
      </trkpt>
      <trkpt lat="48.79908" lon="5.16231">
        <ele>256</ele>
        <time>2023-01-30T15:29:06.000Z</time>
      </trkpt>
      <trkpt lat="48.79908" lon="5.16229">
        <ele>256</ele>
        <time>2023-01-30T15:29:07.000Z</time>
      </trkpt>
      <trkpt lat="48.79908" lon="5.16227">
        <ele>256</ele>
        <time>2023-01-30T15:29:08.000Z</time>
      </trkpt>
      <trkpt lat="48.79908" lon="5.16225">
        <ele>256</ele>
        <time>2023-01-30T15:29:09.000Z</time>
      </trkpt>
      <trkpt lat="48.79907" lon="5.16223">
        <ele>256</ele>
        <time>2023-01-30T15:29:10.000Z</time>
      </trkpt>
      <trkpt lat="48.79907" lon="5.1622">
        <ele>256</ele>
        <time>2023-01-30T15:29:11.000Z</time>
      </trkpt>
      <trkpt lat="48.79906" lon="5.16217">
        <ele>256</ele>
        <time>2023-01-30T15:29:12.000Z</time>
      </trkpt>
      <trkpt lat="48.79906" lon="5.16215">
        <ele>256</ele>
        <time>2023-01-30T15:29:13.000Z</time>
      </trkpt>
      <trkpt lat="48.79906" lon="5.16212">
        <ele>256</ele>
        <time>2023-01-30T15:29:14.000Z</time>
      </trkpt>
      <trkpt lat="48.79905" lon="5.1621">
        <ele>256</ele>
        <time>2023-01-30T15:29:15.000Z</time>
      </trkpt>
      <trkpt lat="48.79905" lon="5.16208">
        <ele>256</ele>
        <time>2023-01-30T15:29:16.000Z</time>
      </trkpt>
      <trkpt lat="48.79905" lon="5.16206">
        <ele>256</ele>
        <time>2023-01-30T15:29:17.000Z</time>
      </trkpt>
      <trkpt lat="48.79905" lon="5.16203">
        <ele>256</ele>
        <time>2023-01-30T15:29:18.000Z</time>
      </trkpt>
      <trkpt lat="48.79904" lon="5.162">
        <ele>255.5</ele>
        <time>2023-01-30T15:29:19.000Z</time>
      </trkpt>
      <trkpt lat="48.79904" lon="5.16199">
        <ele>255</ele>
        <time>2023-01-30T15:29:20.000Z</time>
      </trkpt>
      <trkpt lat="48.79904" lon="5.16197">
        <ele>255</ele>
        <time>2023-01-30T15:29:21.000Z</time>
      </trkpt>
      <trkpt lat="48.79904" lon="5.16196">
        <ele>255</ele>
        <time>2023-01-30T15:29:22.000Z</time>
      </trkpt>
      <trkpt lat="48.79904" lon="5.16194">
        <ele>255</ele>
        <time>2023-01-30T15:29:23.000Z</time>
      </trkpt>
      <trkpt lat="48.79904" lon="5.16193">
        <ele>255</ele>
        <time>2023-01-30T15:29:24.000Z</time>
      </trkpt>
      <trkpt lat="48.79903" lon="5.16191">
        <ele>255</ele>
        <time>2023-01-30T15:29:25.000Z</time>
      </trkpt>
      <trkpt lat="48.79903" lon="5.16189">
        <ele>255</ele>
        <time>2023-01-30T15:29:26.000Z</time>
      </trkpt>
      <trkpt lat="48.79903" lon="5.16187">
        <ele>255</ele>
        <time>2023-01-30T15:29:27.000Z</time>
      </trkpt>
      <trkpt lat="48.79902" lon="5.16185">
        <ele>255</ele>
        <time>2023-01-30T15:29:28.000Z</time>
      </trkpt>
      <trkpt lat="48.79902" lon="5.16184">
        <ele>255</ele>
        <time>2023-01-30T15:29:29.000Z</time>
      </trkpt>
      <trkpt lat="48.79902" lon="5.16182">
        <ele>255</ele>
        <time>2023-01-30T15:29:30.000Z</time>
      </trkpt>
      <trkpt lat="48.79901" lon="5.16181">
        <ele>255</ele>
        <time>2023-01-30T15:29:31.000Z</time>
      </trkpt>
      <trkpt lat="48.79901" lon="5.16179">
        <ele>255</ele>
        <time>2023-01-30T15:29:32.000Z</time>
      </trkpt>
      <trkpt lat="48.799" lon="5.16177">
        <ele>255</ele>
        <time>2023-01-30T15:29:33.000Z</time>
      </trkpt>
      <trkpt lat="48.799" lon="5.16175">
        <ele>255</ele>
        <time>2023-01-30T15:29:34.000Z</time>
      </trkpt>
      <trkpt lat="48.79899" lon="5.16173">
        <ele>255</ele>
        <time>2023-01-30T15:29:35.000Z</time>
      </trkpt>
      <trkpt lat="48.79899" lon="5.16171">
        <ele>255</ele>
        <time>2023-01-30T15:29:36.000Z</time>
      </trkpt>
      <trkpt lat="48.79898" lon="5.16169">
        <ele>255</ele>
        <time>2023-01-30T15:29:37.000Z</time>
      </trkpt>
      <trkpt lat="48.79898" lon="5.16167">
        <ele>255</ele>
        <time>2023-01-30T15:29:38.000Z</time>
      </trkpt>
      <trkpt lat="48.79897" lon="5.16165">
        <ele>255</ele>
        <time>2023-01-30T15:29:39.000Z</time>
      </trkpt>
      <trkpt lat="48.79897" lon="5.16164">
        <ele>255</ele>
        <time>2023-01-30T15:29:40.000Z</time>
      </trkpt>
      <trkpt lat="48.79896" lon="5.16162">
        <ele>255</ele>
        <time>2023-01-30T15:29:41.000Z</time>
      </trkpt>
      <trkpt lat="48.79896" lon="5.16159">
        <ele>254.5</ele>
        <time>2023-01-30T15:29:42.000Z</time>
      </trkpt>
      <trkpt lat="48.79895" lon="5.16157">
        <ele>254</ele>
        <time>2023-01-30T15:29:43.000Z</time>
      </trkpt>
      <trkpt lat="48.79895" lon="5.16155">
        <ele>254</ele>
        <time>2023-01-30T15:29:44.000Z</time>
      </trkpt>
      <trkpt lat="48.79894" lon="5.16153">
        <ele>254</ele>
        <time>2023-01-30T15:29:45.000Z</time>
      </trkpt>
      <trkpt lat="48.79894" lon="5.16151">
        <ele>254</ele>
        <time>2023-01-30T15:29:46.000Z</time>
      </trkpt>
      <trkpt lat="48.79893" lon="5.16149">
        <ele>254</ele>
        <time>2023-01-30T15:29:47.000Z</time>
      </trkpt>
      <trkpt lat="48.79893" lon="5.16148">
        <ele>254</ele>
        <time>2023-01-30T15:29:48.000Z</time>
      </trkpt>
      <trkpt lat="48.79893" lon="5.16147">
        <ele>254</ele>
        <time>2023-01-30T15:29:49.000Z</time>
      </trkpt>
      <trkpt lat="48.79892" lon="5.16145">
        <ele>254</ele>
        <time>2023-01-30T15:29:50.000Z</time>
      </trkpt>
      <trkpt lat="48.79892" lon="5.16144">
        <ele>254</ele>
        <time>2023-01-30T15:29:51.000Z</time>
      </trkpt>
      <trkpt lat="48.79892" lon="5.16143">
        <ele>254</ele>
        <time>2023-01-30T15:29:52.000Z</time>
      </trkpt>
      <trkpt lat="48.79892" lon="5.16141">
        <ele>254</ele>
        <time>2023-01-30T15:29:53.000Z</time>
      </trkpt>
      <trkpt lat="48.79892" lon="5.1614">
        <ele>254</ele>
        <time>2023-01-30T15:29:54.000Z</time>
      </trkpt>
      <trkpt lat="48.79892" lon="5.16138">
        <ele>254</ele>
        <time>2023-01-30T15:29:55.000Z</time>
      </trkpt>
      <trkpt lat="48.79891" lon="5.16137">
        <ele>254</ele>
        <time>2023-01-30T15:29:56.000Z</time>
      </trkpt>
      <trkpt lat="48.79891" lon="5.16135">
        <ele>254</ele>
        <time>2023-01-30T15:29:57.000Z</time>
      </trkpt>
      <trkpt lat="48.79891" lon="5.16133">
        <ele>254</ele>
        <time>2023-01-30T15:29:58.000Z</time>
      </trkpt>
      <trkpt lat="48.7989" lon="5.16132">
        <ele>253.7</ele>
        <time>2023-01-30T15:29:59.000Z</time>
      </trkpt>
      <trkpt lat="48.7989" lon="5.1613">
        <ele>253.3</ele>
        <time>2023-01-30T15:30:00.000Z</time>
      </trkpt>
      <trkpt lat="48.79889" lon="5.16129">
        <ele>253</ele>
        <time>2023-01-30T15:30:01.000Z</time>
      </trkpt>
      <trkpt lat="48.79888" lon="5.16127">
        <ele>253</ele>
        <time>2023-01-30T15:30:02.000Z</time>
      </trkpt>
      <trkpt lat="48.79887" lon="5.16125">
        <ele>253</ele>
        <time>2023-01-30T15:30:03.000Z</time>
      </trkpt>
      <trkpt lat="48.79886" lon="5.16123">
        <ele>253</ele>
        <time>2023-01-30T15:30:04.000Z</time>
      </trkpt>
      <trkpt lat="48.79886" lon="5.16121">
        <ele>253</ele>
        <time>2023-01-30T15:30:05.000Z</time>
      </trkpt>
      <trkpt lat="48.79885" lon="5.16119">
        <ele>253</ele>
        <time>2023-01-30T15:30:06.000Z</time>
      </trkpt>
      <trkpt lat="48.79884" lon="5.16117">
        <ele>253</ele>
        <time>2023-01-30T15:30:07.000Z</time>
      </trkpt>
      <trkpt lat="48.79883" lon="5.16115">
        <ele>253</ele>
        <time>2023-01-30T15:30:08.000Z</time>
      </trkpt>
      <trkpt lat="48.79882" lon="5.16113">
        <ele>253</ele>
        <time>2023-01-30T15:30:09.000Z</time>
      </trkpt>
      <trkpt lat="48.79882" lon="5.16111">
        <ele>253</ele>
        <time>2023-01-30T15:30:10.000Z</time>
      </trkpt>
      <trkpt lat="48.79881" lon="5.1611">
        <ele>253</ele>
        <time>2023-01-30T15:30:11.000Z</time>
      </trkpt>
      <trkpt lat="48.79881" lon="5.16108">
        <ele>253</ele>
        <time>2023-01-30T15:30:12.000Z</time>
      </trkpt>
      <trkpt lat="48.7988" lon="5.16107">
        <ele>253</ele>
        <time>2023-01-30T15:30:13.000Z</time>
      </trkpt>
      <trkpt lat="48.7988" lon="5.16105">
        <ele>253</ele>
        <time>2023-01-30T15:30:14.000Z</time>
      </trkpt>
      <trkpt lat="48.79879" lon="5.16103">
        <ele>253</ele>
        <time>2023-01-30T15:30:15.000Z</time>
      </trkpt>
      <trkpt lat="48.79879" lon="5.16101">
        <ele>253</ele>
        <time>2023-01-30T15:30:16.000Z</time>
      </trkpt>
      <trkpt lat="48.79878" lon="5.16099">
        <ele>253</ele>
        <time>2023-01-30T15:30:17.000Z</time>
      </trkpt>
      <trkpt lat="48.79878" lon="5.16097">
        <ele>253</ele>
        <time>2023-01-30T15:30:18.000Z</time>
      </trkpt>
      <trkpt lat="48.79877" lon="5.16095">
        <ele>253</ele>
        <time>2023-01-30T15:30:19.000Z</time>
      </trkpt>
      <trkpt lat="48.79876" lon="5.16093">
        <ele>253</ele>
        <time>2023-01-30T15:30:20.000Z</time>
      </trkpt>
      <trkpt lat="48.79876" lon="5.16092">
        <ele>253</ele>
        <time>2023-01-30T15:30:21.000Z</time>
      </trkpt>
      <trkpt lat="48.79875" lon="5.1609">
        <ele>253</ele>
        <time>2023-01-30T15:30:22.000Z</time>
      </trkpt>
      <trkpt lat="48.79875" lon="5.16088">
        <ele>253</ele>
        <time>2023-01-30T15:30:23.000Z</time>
      </trkpt>
      <trkpt lat="48.79874" lon="5.16087">
        <ele>253</ele>
        <time>2023-01-30T15:30:24.000Z</time>
      </trkpt>
      <trkpt lat="48.79874" lon="5.16085">
        <ele>253</ele>
        <time>2023-01-30T15:30:25.000Z</time>
      </trkpt>
      <trkpt lat="48.79873" lon="5.16083">
        <ele>253</ele>
        <time>2023-01-30T15:30:26.000Z</time>
      </trkpt>
      <trkpt lat="48.79873" lon="5.1608">
        <ele>253</ele>
        <time>2023-01-30T15:30:27.000Z</time>
      </trkpt>
      <trkpt lat="48.79872" lon="5.16078">
        <ele>252</ele>
        <time>2023-01-30T15:30:28.000Z</time>
      </trkpt>
      <trkpt lat="48.79872" lon="5.16075">
        <ele>252</ele>
        <time>2023-01-30T15:30:29.000Z</time>
      </trkpt>
      <trkpt lat="48.79872" lon="5.16072">
        <ele>252</ele>
        <time>2023-01-30T15:30:30.000Z</time>
      </trkpt>
      <trkpt lat="48.79871" lon="5.1607">
        <ele>252</ele>
        <time>2023-01-30T15:30:31.000Z</time>
      </trkpt>
      <trkpt lat="48.79871" lon="5.16067">
        <ele>252</ele>
        <time>2023-01-30T15:30:32.000Z</time>
      </trkpt>
      <trkpt lat="48.79871" lon="5.16065">
        <ele>252</ele>
        <time>2023-01-30T15:30:33.000Z</time>
      </trkpt>
      <trkpt lat="48.7987" lon="5.16063">
        <ele>252</ele>
        <time>2023-01-30T15:30:34.000Z</time>
      </trkpt>
      <trkpt lat="48.7987" lon="5.16061">
        <ele>252</ele>
        <time>2023-01-30T15:30:35.000Z</time>
      </trkpt>
      <trkpt lat="48.7987" lon="5.16059">
        <ele>252</ele>
        <time>2023-01-30T15:30:36.000Z</time>
      </trkpt>
      <trkpt lat="48.79869" lon="5.16057">
        <ele>252</ele>
        <time>2023-01-30T15:30:37.000Z</time>
      </trkpt>
      <trkpt lat="48.79869" lon="5.16054">
        <ele>252</ele>
        <time>2023-01-30T15:30:38.000Z</time>
      </trkpt>
      <trkpt lat="48.79869" lon="5.16052">
        <ele>252</ele>
        <time>2023-01-30T15:30:39.000Z</time>
      </trkpt>
      <trkpt lat="48.79868" lon="5.16049">
        <ele>252</ele>
        <time>2023-01-30T15:30:40.000Z</time>
      </trkpt>
      <trkpt lat="48.79868" lon="5.16047">
        <ele>251.7</ele>
        <time>2023-01-30T15:30:41.000Z</time>
      </trkpt>
      <trkpt lat="48.79867" lon="5.16044">
        <ele>251.3</ele>
        <time>2023-01-30T15:30:42.000Z</time>
      </trkpt>
      <trkpt lat="48.79867" lon="5.16041">
        <ele>251</ele>
        <time>2023-01-30T15:30:43.000Z</time>
      </trkpt>
      <trkpt lat="48.79867" lon="5.16039">
        <ele>251</ele>
        <time>2023-01-30T15:30:44.000Z</time>
      </trkpt>
      <trkpt lat="48.79866" lon="5.16037">
        <ele>251</ele>
        <time>2023-01-30T15:30:45.000Z</time>
      </trkpt>
      <trkpt lat="48.79866" lon="5.16035">
        <ele>251</ele>
        <time>2023-01-30T15:30:46.000Z</time>
      </trkpt>
      <trkpt lat="48.79866" lon="5.16033">
        <ele>251</ele>
        <time>2023-01-30T15:30:47.000Z</time>
      </trkpt>
      <trkpt lat="48.79866" lon="5.16029">
        <ele>251</ele>
        <time>2023-01-30T15:30:48.000Z</time>
      </trkpt>
      <trkpt lat="48.79864" lon="5.16024">
        <ele>251</ele>
        <time>2023-01-30T15:30:49.000Z</time>
      </trkpt>
      <trkpt lat="48.79863" lon="5.16021">
        <ele>251</ele>
        <time>2023-01-30T15:30:50.000Z</time>
      </trkpt>
      <trkpt lat="48.79862" lon="5.16018">
        <ele>251</ele>
        <time>2023-01-30T15:30:51.000Z</time>
      </trkpt>
      <trkpt lat="48.79862" lon="5.16016">
        <ele>251</ele>
        <time>2023-01-30T15:30:52.000Z</time>
      </trkpt>
      <trkpt lat="48.79861" lon="5.16013">
        <ele>251</ele>
        <time>2023-01-30T15:30:53.000Z</time>
      </trkpt>
      <trkpt lat="48.7986" lon="5.16011">
        <ele>251</ele>
        <time>2023-01-30T15:30:54.000Z</time>
      </trkpt>
      <trkpt lat="48.79859" lon="5.16009">
        <ele>251</ele>
        <time>2023-01-30T15:30:55.000Z</time>
      </trkpt>
      <trkpt lat="48.79859" lon="5.16006">
        <ele>251</ele>
        <time>2023-01-30T15:30:56.000Z</time>
      </trkpt>
      <trkpt lat="48.79858" lon="5.16004">
        <ele>251</ele>
        <time>2023-01-30T15:30:57.000Z</time>
      </trkpt>
      <trkpt lat="48.79858" lon="5.16001">
        <ele>251</ele>
        <time>2023-01-30T15:30:58.000Z</time>
      </trkpt>
      <trkpt lat="48.79857" lon="5.15999">
        <ele>251</ele>
        <time>2023-01-30T15:30:59.000Z</time>
      </trkpt>
      <trkpt lat="48.79857" lon="5.15996">
        <ele>251</ele>
        <time>2023-01-30T15:31:00.000Z</time>
      </trkpt>
      <trkpt lat="48.79857" lon="5.15993">
        <ele>251</ele>
        <time>2023-01-30T15:31:01.000Z</time>
      </trkpt>
      <trkpt lat="48.79857" lon="5.1599">
        <ele>250</ele>
        <time>2023-01-30T15:31:02.000Z</time>
      </trkpt>
      <trkpt lat="48.79857" lon="5.15987">
        <ele>250</ele>
        <time>2023-01-30T15:31:03.000Z</time>
      </trkpt>
      <trkpt lat="48.79857" lon="5.15984">
        <ele>250</ele>
        <time>2023-01-30T15:31:04.000Z</time>
      </trkpt>
      <trkpt lat="48.79856" lon="5.15981">
        <ele>250</ele>
        <time>2023-01-30T15:31:05.000Z</time>
      </trkpt>
      <trkpt lat="48.79855" lon="5.15978">
        <ele>250</ele>
        <time>2023-01-30T15:31:06.000Z</time>
      </trkpt>
      <trkpt lat="48.79854" lon="5.15976">
        <ele>250</ele>
        <time>2023-01-30T15:31:07.000Z</time>
      </trkpt>
      <trkpt lat="48.79854" lon="5.15973">
        <ele>250</ele>
        <time>2023-01-30T15:31:08.000Z</time>
      </trkpt>
      <trkpt lat="48.79854" lon="5.15971">
        <ele>250</ele>
        <time>2023-01-30T15:31:09.000Z</time>
      </trkpt>
      <trkpt lat="48.79853" lon="5.15969">
        <ele>250</ele>
        <time>2023-01-30T15:31:10.000Z</time>
      </trkpt>
      <trkpt lat="48.79853" lon="5.15967">
        <ele>250</ele>
        <time>2023-01-30T15:31:11.000Z</time>
      </trkpt>
      <trkpt lat="48.79853" lon="5.15965">
        <ele>250</ele>
        <time>2023-01-30T15:31:12.000Z</time>
      </trkpt>
      <trkpt lat="48.79854" lon="5.15963">
        <ele>250</ele>
        <time>2023-01-30T15:31:13.000Z</time>
      </trkpt>
      <trkpt lat="48.79854" lon="5.15962">
        <ele>250</ele>
        <time>2023-01-30T15:31:14.000Z</time>
      </trkpt>
      <trkpt lat="48.79854" lon="5.1596">
        <ele>250</ele>
        <time>2023-01-30T15:31:15.000Z</time>
      </trkpt>
      <trkpt lat="48.79854" lon="5.15958">
        <ele>250</ele>
        <time>2023-01-30T15:31:16.000Z</time>
      </trkpt>
      <trkpt lat="48.79854" lon="5.15956">
        <ele>250</ele>
        <time>2023-01-30T15:31:17.000Z</time>
      </trkpt>
      <trkpt lat="48.79854" lon="5.15955">
        <ele>249.5</ele>
        <time>2023-01-30T15:31:18.000Z</time>
      </trkpt>
      <trkpt lat="48.79854" lon="5.15953">
        <ele>249</ele>
        <time>2023-01-30T15:31:19.000Z</time>
      </trkpt>
      <trkpt lat="48.79854" lon="5.15951">
        <ele>249</ele>
        <time>2023-01-30T15:31:20.000Z</time>
      </trkpt>
      <trkpt lat="48.79853" lon="5.1595">
        <ele>249</ele>
        <time>2023-01-30T15:31:21.000Z</time>
      </trkpt>
      <trkpt lat="48.79853" lon="5.15948">
        <ele>249</ele>
        <time>2023-01-30T15:31:22.000Z</time>
      </trkpt>
      <trkpt lat="48.79853" lon="5.15947">
        <ele>249</ele>
        <time>2023-01-30T15:31:23.000Z</time>
      </trkpt>
      <trkpt lat="48.79852" lon="5.15945">
        <ele>249</ele>
        <time>2023-01-30T15:31:24.000Z</time>
      </trkpt>
      <trkpt lat="48.79852" lon="5.15944">
        <ele>249</ele>
        <time>2023-01-30T15:31:25.000Z</time>
      </trkpt>
      <trkpt lat="48.79852" lon="5.15942">
        <ele>249</ele>
        <time>2023-01-30T15:31:26.000Z</time>
      </trkpt>
      <trkpt lat="48.79852" lon="5.1594">
        <ele>249</ele>
        <time>2023-01-30T15:31:27.000Z</time>
      </trkpt>
      <trkpt lat="48.79852" lon="5.15938">
        <ele>249</ele>
        <time>2023-01-30T15:31:28.000Z</time>
      </trkpt>
      <trkpt lat="48.79851" lon="5.15936">
        <ele>249</ele>
        <time>2023-01-30T15:31:29.000Z</time>
      </trkpt>
      <trkpt lat="48.79851" lon="5.15932">
        <ele>249</ele>
        <time>2023-01-30T15:31:30.000Z</time>
      </trkpt>
      <trkpt lat="48.7985" lon="5.15929">
        <ele>249</ele>
        <time>2023-01-30T15:31:31.000Z</time>
      </trkpt>
      <trkpt lat="48.7985" lon="5.15927">
        <ele>249</ele>
        <time>2023-01-30T15:31:32.000Z</time>
      </trkpt>
      <trkpt lat="48.7985" lon="5.15926">
        <ele>249</ele>
        <time>2023-01-30T15:31:33.000Z</time>
      </trkpt>
      <trkpt lat="48.7985" lon="5.15923">
        <ele>249</ele>
        <time>2023-01-30T15:31:34.000Z</time>
      </trkpt>
      <trkpt lat="48.7985" lon="5.15921">
        <ele>249</ele>
        <time>2023-01-30T15:31:35.000Z</time>
      </trkpt>
      <trkpt lat="48.7985" lon="5.15917">
        <ele>248.5</ele>
        <time>2023-01-30T15:31:36.000Z</time>
      </trkpt>
      <trkpt lat="48.79849" lon="5.15914">
        <ele>248</ele>
        <time>2023-01-30T15:31:37.000Z</time>
      </trkpt>
      <trkpt lat="48.79851" lon="5.15911">
        <ele>248</ele>
        <time>2023-01-30T15:31:38.000Z</time>
      </trkpt>
      <trkpt lat="48.79852" lon="5.15908">
        <ele>248</ele>
        <time>2023-01-30T15:31:39.000Z</time>
      </trkpt>
      <trkpt lat="48.79852" lon="5.15905">
        <ele>248</ele>
        <time>2023-01-30T15:31:40.000Z</time>
      </trkpt>
      <trkpt lat="48.79852" lon="5.15902">
        <ele>248</ele>
        <time>2023-01-30T15:31:41.000Z</time>
      </trkpt>
      <trkpt lat="48.79851" lon="5.15899">
        <ele>248</ele>
        <time>2023-01-30T15:31:42.000Z</time>
      </trkpt>
      <trkpt lat="48.79851" lon="5.15897">
        <ele>248</ele>
        <time>2023-01-30T15:31:43.000Z</time>
      </trkpt>
      <trkpt lat="48.79849" lon="5.15894">
        <ele>248</ele>
        <time>2023-01-30T15:31:44.000Z</time>
      </trkpt>
      <trkpt lat="48.79848" lon="5.15892">
        <ele>248</ele>
        <time>2023-01-30T15:31:45.000Z</time>
      </trkpt>
      <trkpt lat="48.79847" lon="5.1589">
        <ele>248</ele>
        <time>2023-01-30T15:31:46.000Z</time>
      </trkpt>
      <trkpt lat="48.79846" lon="5.15889">
        <ele>248</ele>
        <time>2023-01-30T15:31:47.000Z</time>
      </trkpt>
      <trkpt lat="48.79845" lon="5.15888">
        <ele>248</ele>
        <time>2023-01-30T15:31:48.000Z</time>
      </trkpt>
      <trkpt lat="48.79845" lon="5.15887">
        <ele>248</ele>
        <time>2023-01-30T15:31:49.000Z</time>
      </trkpt>
      <trkpt lat="48.79844" lon="5.15885">
        <ele>247</ele>
        <time>2023-01-30T15:31:50.000Z</time>
      </trkpt>
      <trkpt lat="48.79842" lon="5.15884">
        <ele>247</ele>
        <time>2023-01-30T15:31:51.000Z</time>
      </trkpt>
      <trkpt lat="48.79841" lon="5.15882">
        <ele>247</ele>
        <time>2023-01-30T15:31:52.000Z</time>
      </trkpt>
      <trkpt lat="48.79841" lon="5.15881">
        <ele>247</ele>
        <time>2023-01-30T15:31:53.000Z</time>
      </trkpt>
      <trkpt lat="48.79841" lon="5.15879">
        <ele>247</ele>
        <time>2023-01-30T15:31:54.000Z</time>
      </trkpt>
      <trkpt lat="48.79841" lon="5.15877">
        <ele>247</ele>
        <time>2023-01-30T15:31:55.000Z</time>
      </trkpt>
      <trkpt lat="48.79841" lon="5.15875">
        <ele>247</ele>
        <time>2023-01-30T15:31:56.000Z</time>
      </trkpt>
      <trkpt lat="48.79841" lon="5.15873">
        <ele>247</ele>
        <time>2023-01-30T15:31:57.000Z</time>
      </trkpt>
      <trkpt lat="48.79841" lon="5.15871">
        <ele>247</ele>
        <time>2023-01-30T15:31:58.000Z</time>
      </trkpt>
      <trkpt lat="48.79841" lon="5.1587">
        <ele>247</ele>
        <time>2023-01-30T15:31:59.000Z</time>
      </trkpt>
      <trkpt lat="48.79841" lon="5.15868">
        <ele>247</ele>
        <time>2023-01-30T15:32:00.000Z</time>
      </trkpt>
      <trkpt lat="48.79841" lon="5.15866">
        <ele>247</ele>
        <time>2023-01-30T15:32:01.000Z</time>
      </trkpt>
      <trkpt lat="48.79841" lon="5.15864">
        <ele>247</ele>
        <time>2023-01-30T15:32:02.000Z</time>
      </trkpt>
      <trkpt lat="48.79841" lon="5.15862">
        <ele>247</ele>
        <time>2023-01-30T15:32:03.000Z</time>
      </trkpt>
      <trkpt lat="48.79841" lon="5.1586">
        <ele>247</ele>
        <time>2023-01-30T15:32:04.000Z</time>
      </trkpt>
      <trkpt lat="48.79841" lon="5.15857">
        <ele>247</ele>
        <time>2023-01-30T15:32:05.000Z</time>
      </trkpt>
      <trkpt lat="48.79841" lon="5.15855">
        <ele>247</ele>
        <time>2023-01-30T15:32:06.000Z</time>
      </trkpt>
      <trkpt lat="48.79842" lon="5.15852">
        <ele>247</ele>
        <time>2023-01-30T15:32:07.000Z</time>
      </trkpt>
      <trkpt lat="48.79842" lon="5.15849">
        <ele>246</ele>
        <time>2023-01-30T15:32:08.000Z</time>
      </trkpt>
      <trkpt lat="48.79842" lon="5.15846">
        <ele>246</ele>
        <time>2023-01-30T15:32:09.000Z</time>
      </trkpt>
      <trkpt lat="48.79843" lon="5.15844">
        <ele>246</ele>
        <time>2023-01-30T15:32:10.000Z</time>
      </trkpt>
      <trkpt lat="48.79844" lon="5.15842">
        <ele>246</ele>
        <time>2023-01-30T15:32:11.000Z</time>
      </trkpt>
      <trkpt lat="48.79844" lon="5.15839">
        <ele>246</ele>
        <time>2023-01-30T15:32:12.000Z</time>
      </trkpt>
      <trkpt lat="48.79844" lon="5.15836">
        <ele>246</ele>
        <time>2023-01-30T15:32:13.000Z</time>
      </trkpt>
      <trkpt lat="48.79843" lon="5.15833">
        <ele>246</ele>
        <time>2023-01-30T15:32:14.000Z</time>
      </trkpt>
      <trkpt lat="48.79843" lon="5.1583">
        <ele>246</ele>
        <time>2023-01-30T15:32:15.000Z</time>
      </trkpt>
      <trkpt lat="48.79843" lon="5.15828">
        <ele>246</ele>
        <time>2023-01-30T15:32:16.000Z</time>
      </trkpt>
      <trkpt lat="48.79842" lon="5.15826">
        <ele>246</ele>
        <time>2023-01-30T15:32:17.000Z</time>
      </trkpt>
      <trkpt lat="48.79841" lon="5.15823">
        <ele>246</ele>
        <time>2023-01-30T15:32:18.000Z</time>
      </trkpt>
      <trkpt lat="48.79841" lon="5.15821">
        <ele>246</ele>
        <time>2023-01-30T15:32:19.000Z</time>
      </trkpt>
      <trkpt lat="48.79841" lon="5.15819">
        <ele>245</ele>
        <time>2023-01-30T15:32:20.000Z</time>
      </trkpt>
      <trkpt lat="48.79841" lon="5.15818">
        <ele>245</ele>
        <time>2023-01-30T15:32:21.000Z</time>
      </trkpt>
      <trkpt lat="48.79841" lon="5.15816">
        <ele>245</ele>
        <time>2023-01-30T15:32:22.000Z</time>
      </trkpt>
      <trkpt lat="48.79841" lon="5.15815">
        <ele>245</ele>
        <time>2023-01-30T15:32:23.000Z</time>
      </trkpt>
      <trkpt lat="48.79842" lon="5.15814">
        <ele>245</ele>
        <time>2023-01-30T15:32:24.000Z</time>
      </trkpt>
      <trkpt lat="48.79842" lon="5.15812">
        <ele>245</ele>
        <time>2023-01-30T15:32:25.000Z</time>
      </trkpt>
      <trkpt lat="48.79842" lon="5.1581">
        <ele>245</ele>
        <time>2023-01-30T15:32:26.000Z</time>
      </trkpt>
      <trkpt lat="48.79842" lon="5.15809">
        <ele>245</ele>
        <time>2023-01-30T15:32:27.000Z</time>
      </trkpt>
      <trkpt lat="48.79842" lon="5.15807">
        <ele>245</ele>
        <time>2023-01-30T15:32:28.000Z</time>
      </trkpt>
      <trkpt lat="48.79842" lon="5.15806">
        <ele>245</ele>
        <time>2023-01-30T15:32:29.000Z</time>
      </trkpt>
      <trkpt lat="48.79842" lon="5.15805">
        <ele>245</ele>
        <time>2023-01-30T15:32:30.000Z</time>
      </trkpt>
      <trkpt lat="48.79843" lon="5.15804">
        <ele>245</ele>
        <time>2023-01-30T15:32:31.000Z</time>
      </trkpt>
      <trkpt lat="48.79843" lon="5.15802">
        <ele>245</ele>
        <time>2023-01-30T15:32:32.000Z</time>
      </trkpt>
      <trkpt lat="48.79842" lon="5.15801">
        <ele>245</ele>
        <time>2023-01-30T15:32:33.000Z</time>
      </trkpt>
      <trkpt lat="48.79842" lon="5.15799">
        <ele>244</ele>
        <time>2023-01-30T15:32:34.000Z</time>
      </trkpt>
      <trkpt lat="48.79842" lon="5.15796">
        <ele>244</ele>
        <time>2023-01-30T15:32:35.000Z</time>
      </trkpt>
      <trkpt lat="48.79841" lon="5.15793">
        <ele>244</ele>
        <time>2023-01-30T15:32:36.000Z</time>
      </trkpt>
      <trkpt lat="48.7984" lon="5.15791">
        <ele>244</ele>
        <time>2023-01-30T15:32:37.000Z</time>
      </trkpt>
      <trkpt lat="48.7984" lon="5.15789">
        <ele>244</ele>
        <time>2023-01-30T15:32:38.000Z</time>
      </trkpt>
      <trkpt lat="48.7984" lon="5.15788">
        <ele>244</ele>
        <time>2023-01-30T15:32:39.000Z</time>
      </trkpt>
      <trkpt lat="48.79839" lon="5.15786">
        <ele>244</ele>
        <time>2023-01-30T15:32:40.000Z</time>
      </trkpt>
      <trkpt lat="48.79838" lon="5.15783">
        <ele>244</ele>
        <time>2023-01-30T15:32:41.000Z</time>
      </trkpt>
      <trkpt lat="48.79838" lon="5.1578">
        <ele>244</ele>
        <time>2023-01-30T15:32:42.000Z</time>
      </trkpt>
      <trkpt lat="48.79837" lon="5.15777">
        <ele>244</ele>
        <time>2023-01-30T15:32:43.000Z</time>
      </trkpt>
      <trkpt lat="48.79837" lon="5.15775">
        <ele>244</ele>
        <time>2023-01-30T15:32:44.000Z</time>
      </trkpt>
      <trkpt lat="48.79837" lon="5.15773">
        <ele>244</ele>
        <time>2023-01-30T15:32:45.000Z</time>
      </trkpt>
      <trkpt lat="48.79837" lon="5.15771">
        <ele>244</ele>
        <time>2023-01-30T15:32:46.000Z</time>
      </trkpt>
      <trkpt lat="48.79837" lon="5.1577">
        <ele>243.7</ele>
        <time>2023-01-30T15:32:47.000Z</time>
      </trkpt>
      <trkpt lat="48.79836" lon="5.15768">
        <ele>243.3</ele>
        <time>2023-01-30T15:32:48.000Z</time>
      </trkpt>
      <trkpt lat="48.79836" lon="5.15766">
        <ele>243</ele>
        <time>2023-01-30T15:32:49.000Z</time>
      </trkpt>
      <trkpt lat="48.79836" lon="5.15765">
        <ele>243</ele>
        <time>2023-01-30T15:32:50.000Z</time>
      </trkpt>
      <trkpt lat="48.79836" lon="5.15763">
        <ele>243</ele>
        <time>2023-01-30T15:32:51.000Z</time>
      </trkpt>
      <trkpt lat="48.79836" lon="5.15762">
        <ele>243</ele>
        <time>2023-01-30T15:32:52.000Z</time>
      </trkpt>
      <trkpt lat="48.79835" lon="5.1576">
        <ele>243</ele>
        <time>2023-01-30T15:32:53.000Z</time>
      </trkpt>
      <trkpt lat="48.79835" lon="5.15758">
        <ele>243</ele>
        <time>2023-01-30T15:32:54.000Z</time>
      </trkpt>
      <trkpt lat="48.79834" lon="5.15756">
        <ele>243</ele>
        <time>2023-01-30T15:32:55.000Z</time>
      </trkpt>
      <trkpt lat="48.79833" lon="5.15754">
        <ele>243</ele>
        <time>2023-01-30T15:32:56.000Z</time>
      </trkpt>
      <trkpt lat="48.79832" lon="5.15752">
        <ele>243</ele>
        <time>2023-01-30T15:32:57.000Z</time>
      </trkpt>
      <trkpt lat="48.79831" lon="5.15749">
        <ele>243</ele>
        <time>2023-01-30T15:32:58.000Z</time>
      </trkpt>
      <trkpt lat="48.7983" lon="5.15747">
        <ele>243</ele>
        <time>2023-01-30T15:32:59.000Z</time>
      </trkpt>
      <trkpt lat="48.7983" lon="5.15745">
        <ele>243</ele>
        <time>2023-01-30T15:33:00.000Z</time>
      </trkpt>
      <trkpt lat="48.79829" lon="5.15744">
        <ele>243</ele>
        <time>2023-01-30T15:33:01.000Z</time>
      </trkpt>
      <trkpt lat="48.79827" lon="5.15739">
        <ele>242</ele>
        <time>2023-01-30T15:33:02.000Z</time>
      </trkpt>
      <trkpt lat="48.79826" lon="5.15735">
        <ele>242</ele>
        <time>2023-01-30T15:33:03.000Z</time>
      </trkpt>
      <trkpt lat="48.79824" lon="5.15732">
        <ele>242</ele>
        <time>2023-01-30T15:33:04.000Z</time>
      </trkpt>
      <trkpt lat="48.79822" lon="5.15728">
        <ele>242</ele>
        <time>2023-01-30T15:33:05.000Z</time>
      </trkpt>
      <trkpt lat="48.7982" lon="5.15725">
        <ele>242</ele>
        <time>2023-01-30T15:33:06.000Z</time>
      </trkpt>
      <trkpt lat="48.79818" lon="5.15722">
        <ele>242</ele>
        <time>2023-01-30T15:33:07.000Z</time>
      </trkpt>
      <trkpt lat="48.79816" lon="5.1572">
        <ele>242</ele>
        <time>2023-01-30T15:33:08.000Z</time>
      </trkpt>
      <trkpt lat="48.79815" lon="5.15717">
        <ele>242</ele>
        <time>2023-01-30T15:33:09.000Z</time>
      </trkpt>
      <trkpt lat="48.79815" lon="5.15715">
        <ele>242</ele>
        <time>2023-01-30T15:33:10.000Z</time>
      </trkpt>
      <trkpt lat="48.79814" lon="5.15713">
        <ele>242</ele>
        <time>2023-01-30T15:33:11.000Z</time>
      </trkpt>
      <trkpt lat="48.79813" lon="5.15712">
        <ele>242</ele>
        <time>2023-01-30T15:33:12.000Z</time>
      </trkpt>
      <trkpt lat="48.79813" lon="5.1571">
        <ele>241.7</ele>
        <time>2023-01-30T15:33:13.000Z</time>
      </trkpt>
      <trkpt lat="48.79813" lon="5.15709">
        <ele>241.3</ele>
        <time>2023-01-30T15:33:14.000Z</time>
      </trkpt>
      <trkpt lat="48.79813" lon="5.15707">
        <ele>241</ele>
        <time>2023-01-30T15:33:15.000Z</time>
      </trkpt>
      <trkpt lat="48.79812" lon="5.15706">
        <ele>241</ele>
        <time>2023-01-30T15:33:16.000Z</time>
      </trkpt>
      <trkpt lat="48.79812" lon="5.15704">
        <ele>241</ele>
        <time>2023-01-30T15:33:17.000Z</time>
      </trkpt>
      <trkpt lat="48.79812" lon="5.15702">
        <ele>241</ele>
        <time>2023-01-30T15:33:18.000Z</time>
      </trkpt>
      <trkpt lat="48.79812" lon="5.157">
        <ele>241</ele>
        <time>2023-01-30T15:33:19.000Z</time>
      </trkpt>
      <trkpt lat="48.79812" lon="5.15698">
        <ele>241</ele>
        <time>2023-01-30T15:33:20.000Z</time>
      </trkpt>
      <trkpt lat="48.79812" lon="5.15695">
        <ele>241</ele>
        <time>2023-01-30T15:33:21.000Z</time>
      </trkpt>
      <trkpt lat="48.79812" lon="5.15693">
        <ele>241</ele>
        <time>2023-01-30T15:33:22.000Z</time>
      </trkpt>
      <trkpt lat="48.79812" lon="5.15692">
        <ele>241</ele>
        <time>2023-01-30T15:33:23.000Z</time>
      </trkpt>
      <trkpt lat="48.79812" lon="5.1569">
        <ele>241</ele>
        <time>2023-01-30T15:33:24.000Z</time>
      </trkpt>
      <trkpt lat="48.79813" lon="5.15689">
        <ele>241</ele>
        <time>2023-01-30T15:33:25.000Z</time>
      </trkpt>
      <trkpt lat="48.79813" lon="5.15687">
        <ele>240</ele>
        <time>2023-01-30T15:33:26.000Z</time>
      </trkpt>
      <trkpt lat="48.79813" lon="5.15685">
        <ele>240</ele>
        <time>2023-01-30T15:33:27.000Z</time>
      </trkpt>
      <trkpt lat="48.79813" lon="5.15683">
        <ele>240</ele>
        <time>2023-01-30T15:33:28.000Z</time>
      </trkpt>
      <trkpt lat="48.79813" lon="5.15682">
        <ele>240</ele>
        <time>2023-01-30T15:33:29.000Z</time>
      </trkpt>
      <trkpt lat="48.79813" lon="5.1568">
        <ele>240</ele>
        <time>2023-01-30T15:33:30.000Z</time>
      </trkpt>
      <trkpt lat="48.79813" lon="5.15678">
        <ele>240</ele>
        <time>2023-01-30T15:33:31.000Z</time>
      </trkpt>
      <trkpt lat="48.79813" lon="5.15677">
        <ele>240</ele>
        <time>2023-01-30T15:33:32.000Z</time>
      </trkpt>
      <trkpt lat="48.79813" lon="5.15675">
        <ele>240</ele>
        <time>2023-01-30T15:33:33.000Z</time>
      </trkpt>
      <trkpt lat="48.79813" lon="5.15674">
        <ele>240</ele>
        <time>2023-01-30T15:33:34.000Z</time>
      </trkpt>
      <trkpt lat="48.79813" lon="5.15673">
        <ele>240</ele>
        <time>2023-01-30T15:33:35.000Z</time>
      </trkpt>
      <trkpt lat="48.79812" lon="5.15672">
        <ele>240</ele>
        <time>2023-01-30T15:33:36.000Z</time>
      </trkpt>
      <trkpt lat="48.79812" lon="5.15671">
        <ele>240</ele>
        <time>2023-01-30T15:33:37.000Z</time>
      </trkpt>
      <trkpt lat="48.79812" lon="5.15669">
        <ele>240</ele>
        <time>2023-01-30T15:33:38.000Z</time>
      </trkpt>
      <trkpt lat="48.79812" lon="5.15668">
        <ele>240</ele>
        <time>2023-01-30T15:33:39.000Z</time>
      </trkpt>
      <trkpt lat="48.79811" lon="5.15666">
        <ele>239.5</ele>
        <time>2023-01-30T15:33:40.000Z</time>
      </trkpt>
      <trkpt lat="48.79811" lon="5.15665">
        <ele>239</ele>
        <time>2023-01-30T15:33:41.000Z</time>
      </trkpt>
      <trkpt lat="48.7981" lon="5.15663">
        <ele>239</ele>
        <time>2023-01-30T15:33:42.000Z</time>
      </trkpt>
      <trkpt lat="48.7981" lon="5.15661">
        <ele>239</ele>
        <time>2023-01-30T15:33:43.000Z</time>
      </trkpt>
      <trkpt lat="48.7981" lon="5.1566">
        <ele>239</ele>
        <time>2023-01-30T15:33:44.000Z</time>
      </trkpt>
      <trkpt lat="48.79809" lon="5.15658">
        <ele>239</ele>
        <time>2023-01-30T15:33:45.000Z</time>
      </trkpt>
      <trkpt lat="48.79809" lon="5.15656">
        <ele>239</ele>
        <time>2023-01-30T15:33:46.000Z</time>
      </trkpt>
      <trkpt lat="48.79809" lon="5.15654">
        <ele>239</ele>
        <time>2023-01-30T15:33:47.000Z</time>
      </trkpt>
      <trkpt lat="48.79809" lon="5.15652">
        <ele>239</ele>
        <time>2023-01-30T15:33:48.000Z</time>
      </trkpt>
      <trkpt lat="48.79809" lon="5.15651">
        <ele>239</ele>
        <time>2023-01-30T15:33:49.000Z</time>
      </trkpt>
      <trkpt lat="48.7981" lon="5.15649">
        <ele>239</ele>
        <time>2023-01-30T15:33:50.000Z</time>
      </trkpt>
      <trkpt lat="48.7981" lon="5.15647">
        <ele>239</ele>
        <time>2023-01-30T15:33:51.000Z</time>
      </trkpt>
      <trkpt lat="48.7981" lon="5.15645">
        <ele>239</ele>
        <time>2023-01-30T15:33:52.000Z</time>
      </trkpt>
      <trkpt lat="48.7981" lon="5.15643">
        <ele>239</ele>
        <time>2023-01-30T15:33:53.000Z</time>
      </trkpt>
      <trkpt lat="48.7981" lon="5.1564">
        <ele>239</ele>
        <time>2023-01-30T15:33:54.000Z</time>
      </trkpt>
      <trkpt lat="48.79809" lon="5.15638">
        <ele>238.7</ele>
        <time>2023-01-30T15:33:55.000Z</time>
      </trkpt>
      <trkpt lat="48.79809" lon="5.15636">
        <ele>238.3</ele>
        <time>2023-01-30T15:33:56.000Z</time>
      </trkpt>
      <trkpt lat="48.79808" lon="5.15634">
        <ele>238</ele>
        <time>2023-01-30T15:33:57.000Z</time>
      </trkpt>
      <trkpt lat="48.79808" lon="5.15631">
        <ele>238</ele>
        <time>2023-01-30T15:33:58.000Z</time>
      </trkpt>
      <trkpt lat="48.79807" lon="5.15629">
        <ele>238</ele>
        <time>2023-01-30T15:33:59.000Z</time>
      </trkpt>
      <trkpt lat="48.79806" lon="5.15627">
        <ele>238</ele>
        <time>2023-01-30T15:34:00.000Z</time>
      </trkpt>
      <trkpt lat="48.79805" lon="5.15625">
        <ele>238</ele>
        <time>2023-01-30T15:34:01.000Z</time>
      </trkpt>
      <trkpt lat="48.79804" lon="5.15623">
        <ele>238</ele>
        <time>2023-01-30T15:34:02.000Z</time>
      </trkpt>
      <trkpt lat="48.79804" lon="5.15621">
        <ele>238</ele>
        <time>2023-01-30T15:34:03.000Z</time>
      </trkpt>
      <trkpt lat="48.79803" lon="5.1562">
        <ele>238</ele>
        <time>2023-01-30T15:34:04.000Z</time>
      </trkpt>
      <trkpt lat="48.79803" lon="5.15619">
        <ele>238</ele>
        <time>2023-01-30T15:34:05.000Z</time>
      </trkpt>
      <trkpt lat="48.79802" lon="5.15618">
        <ele>238</ele>
        <time>2023-01-30T15:34:06.000Z</time>
      </trkpt>
      <trkpt lat="48.79802" lon="5.15617">
        <ele>238</ele>
        <time>2023-01-30T15:34:07.000Z</time>
      </trkpt>
      <trkpt lat="48.79802" lon="5.15616">
        <ele>238</ele>
        <time>2023-01-30T15:34:08.000Z</time>
      </trkpt>
      <trkpt lat="48.79801" lon="5.15615">
        <ele>238</ele>
        <time>2023-01-30T15:34:09.000Z</time>
      </trkpt>
      <trkpt lat="48.79801" lon="5.15613">
        <ele>238</ele>
        <time>2023-01-30T15:34:10.000Z</time>
      </trkpt>
      <trkpt lat="48.798" lon="5.15612">
        <ele>238</ele>
        <time>2023-01-30T15:34:11.000Z</time>
      </trkpt>
      <trkpt lat="48.79799" lon="5.1561">
        <ele>237</ele>
        <time>2023-01-30T15:34:12.000Z</time>
      </trkpt>
      <trkpt lat="48.79799" lon="5.15608">
        <ele>237</ele>
        <time>2023-01-30T15:34:13.000Z</time>
      </trkpt>
      <trkpt lat="48.79798" lon="5.15606">
        <ele>237</ele>
        <time>2023-01-30T15:34:14.000Z</time>
      </trkpt>
      <trkpt lat="48.79797" lon="5.15604">
        <ele>237</ele>
        <time>2023-01-30T15:34:15.000Z</time>
      </trkpt>
      <trkpt lat="48.79797" lon="5.15603">
        <ele>237</ele>
        <time>2023-01-30T15:34:16.000Z</time>
      </trkpt>
      <trkpt lat="48.79796" lon="5.15601">
        <ele>237</ele>
        <time>2023-01-30T15:34:17.000Z</time>
      </trkpt>
      <trkpt lat="48.79796" lon="5.15599">
        <ele>237</ele>
        <time>2023-01-30T15:34:18.000Z</time>
      </trkpt>
      <trkpt lat="48.79795" lon="5.15596">
        <ele>237</ele>
        <time>2023-01-30T15:34:19.000Z</time>
      </trkpt>
      <trkpt lat="48.79794" lon="5.15594">
        <ele>237</ele>
        <time>2023-01-30T15:34:20.000Z</time>
      </trkpt>
      <trkpt lat="48.79793" lon="5.15591">
        <ele>237</ele>
        <time>2023-01-30T15:34:21.000Z</time>
      </trkpt>
      <trkpt lat="48.79792" lon="5.15588">
        <ele>237</ele>
        <time>2023-01-30T15:34:22.000Z</time>
      </trkpt>
      <trkpt lat="48.79791" lon="5.15586">
        <ele>236.7</ele>
        <time>2023-01-30T15:34:23.000Z</time>
      </trkpt>
      <trkpt lat="48.7979" lon="5.15585">
        <ele>236.3</ele>
        <time>2023-01-30T15:34:24.000Z</time>
      </trkpt>
      <trkpt lat="48.7979" lon="5.15584">
        <ele>236</ele>
        <time>2023-01-30T15:34:25.000Z</time>
      </trkpt>
      <trkpt lat="48.79789" lon="5.15582">
        <ele>236</ele>
        <time>2023-01-30T15:34:26.000Z</time>
      </trkpt>
      <trkpt lat="48.79787" lon="5.1558">
        <ele>236</ele>
        <time>2023-01-30T15:34:27.000Z</time>
      </trkpt>
      <trkpt lat="48.79786" lon="5.15578">
        <ele>236</ele>
        <time>2023-01-30T15:34:28.000Z</time>
      </trkpt>
      <trkpt lat="48.79785" lon="5.15576">
        <ele>236</ele>
        <time>2023-01-30T15:34:29.000Z</time>
      </trkpt>
      <trkpt lat="48.79784" lon="5.15575">
        <ele>236</ele>
        <time>2023-01-30T15:34:30.000Z</time>
      </trkpt>
      <trkpt lat="48.79784" lon="5.15574">
        <ele>236</ele>
        <time>2023-01-30T15:34:31.000Z</time>
      </trkpt>
      <trkpt lat="48.79783" lon="5.15573">
        <ele>236</ele>
        <time>2023-01-30T15:34:32.000Z</time>
      </trkpt>
      <trkpt lat="48.79783" lon="5.15571">
        <ele>236</ele>
        <time>2023-01-30T15:34:33.000Z</time>
      </trkpt>
      <trkpt lat="48.79782" lon="5.1557">
        <ele>236</ele>
        <time>2023-01-30T15:34:34.000Z</time>
      </trkpt>
      <trkpt lat="48.79781" lon="5.15568">
        <ele>236</ele>
        <time>2023-01-30T15:34:35.000Z</time>
      </trkpt>
      <trkpt lat="48.7978" lon="5.15566">
        <ele>235</ele>
        <time>2023-01-30T15:34:36.000Z</time>
      </trkpt>
      <trkpt lat="48.79779" lon="5.15564">
        <ele>235</ele>
        <time>2023-01-30T15:34:37.000Z</time>
      </trkpt>
      <trkpt lat="48.79779" lon="5.15563">
        <ele>235</ele>
        <time>2023-01-30T15:34:38.000Z</time>
      </trkpt>
      <trkpt lat="48.79778" lon="5.15561">
        <ele>235</ele>
        <time>2023-01-30T15:34:39.000Z</time>
      </trkpt>
      <trkpt lat="48.79777" lon="5.1556">
        <ele>235</ele>
        <time>2023-01-30T15:34:40.000Z</time>
      </trkpt>
      <trkpt lat="48.79776" lon="5.15558">
        <ele>235</ele>
        <time>2023-01-30T15:34:41.000Z</time>
      </trkpt>
      <trkpt lat="48.79775" lon="5.15555">
        <ele>235</ele>
        <time>2023-01-30T15:34:42.000Z</time>
      </trkpt>
      <trkpt lat="48.79774" lon="5.15553">
        <ele>235</ele>
        <time>2023-01-30T15:34:43.000Z</time>
      </trkpt>
      <trkpt lat="48.79774" lon="5.15552">
        <ele>235</ele>
        <time>2023-01-30T15:34:44.000Z</time>
      </trkpt>
      <trkpt lat="48.79774" lon="5.1555">
        <ele>235</ele>
        <time>2023-01-30T15:34:45.000Z</time>
      </trkpt>
      <trkpt lat="48.79773" lon="5.15548">
        <ele>234.5</ele>
        <time>2023-01-30T15:34:46.000Z</time>
      </trkpt>
      <trkpt lat="48.79773" lon="5.15546">
        <ele>234</ele>
        <time>2023-01-30T15:34:47.000Z</time>
      </trkpt>
      <trkpt lat="48.79772" lon="5.15543">
        <ele>234</ele>
        <time>2023-01-30T15:34:48.000Z</time>
      </trkpt>
      <trkpt lat="48.79772" lon="5.15541">
        <ele>234</ele>
        <time>2023-01-30T15:34:49.000Z</time>
      </trkpt>
      <trkpt lat="48.79771" lon="5.1554">
        <ele>234</ele>
        <time>2023-01-30T15:34:50.000Z</time>
      </trkpt>
      <trkpt lat="48.79771" lon="5.15538">
        <ele>234</ele>
        <time>2023-01-30T15:34:51.000Z</time>
      </trkpt>
      <trkpt lat="48.7977" lon="5.15537">
        <ele>234</ele>
        <time>2023-01-30T15:34:52.000Z</time>
      </trkpt>
      <trkpt lat="48.7977" lon="5.15535">
        <ele>234</ele>
        <time>2023-01-30T15:34:53.000Z</time>
      </trkpt>
      <trkpt lat="48.79769" lon="5.15533">
        <ele>234</ele>
        <time>2023-01-30T15:34:54.000Z</time>
      </trkpt>
      <trkpt lat="48.79768" lon="5.15531">
        <ele>234</ele>
        <time>2023-01-30T15:34:55.000Z</time>
      </trkpt>
      <trkpt lat="48.79768" lon="5.15529">
        <ele>234</ele>
        <time>2023-01-30T15:34:56.000Z</time>
      </trkpt>
      <trkpt lat="48.79767" lon="5.15527">
        <ele>234</ele>
        <time>2023-01-30T15:34:57.000Z</time>
      </trkpt>
      <trkpt lat="48.79767" lon="5.15526">
        <ele>233</ele>
        <time>2023-01-30T15:34:58.000Z</time>
      </trkpt>
      <trkpt lat="48.79766" lon="5.15524">
        <ele>233</ele>
        <time>2023-01-30T15:34:59.000Z</time>
      </trkpt>
      <trkpt lat="48.79766" lon="5.15522">
        <ele>233</ele>
        <time>2023-01-30T15:35:00.000Z</time>
      </trkpt>
      <trkpt lat="48.79765" lon="5.15521">
        <ele>233</ele>
        <time>2023-01-30T15:35:01.000Z</time>
      </trkpt>
      <trkpt lat="48.79764" lon="5.15519">
        <ele>233</ele>
        <time>2023-01-30T15:35:02.000Z</time>
      </trkpt>
      <trkpt lat="48.79764" lon="5.15517">
        <ele>233</ele>
        <time>2023-01-30T15:35:03.000Z</time>
      </trkpt>
      <trkpt lat="48.79763" lon="5.15514">
        <ele>233</ele>
        <time>2023-01-30T15:35:04.000Z</time>
      </trkpt>
      <trkpt lat="48.79763" lon="5.15512">
        <ele>233</ele>
        <time>2023-01-30T15:35:05.000Z</time>
      </trkpt>
      <trkpt lat="48.79762" lon="5.15509">
        <ele>233</ele>
        <time>2023-01-30T15:35:06.000Z</time>
      </trkpt>
      <trkpt lat="48.79761" lon="5.15507">
        <ele>233</ele>
        <time>2023-01-30T15:35:07.000Z</time>
      </trkpt>
      <trkpt lat="48.7976" lon="5.15505">
        <ele>233</ele>
        <time>2023-01-30T15:35:08.000Z</time>
      </trkpt>
      <trkpt lat="48.79759" lon="5.15502">
        <ele>233</ele>
        <time>2023-01-30T15:35:09.000Z</time>
      </trkpt>
      <trkpt lat="48.79758" lon="5.15501">
        <ele>232</ele>
        <time>2023-01-30T15:35:10.000Z</time>
      </trkpt>
      <trkpt lat="48.79757" lon="5.155">
        <ele>232</ele>
        <time>2023-01-30T15:35:11.000Z</time>
      </trkpt>
      <trkpt lat="48.79757" lon="5.155">
        <ele>232</ele>
        <time>2023-01-30T15:35:12.000Z</time>
      </trkpt>
      <trkpt lat="48.79757" lon="5.155">
        <ele>232</ele>
        <time>2023-01-30T15:35:13.000Z</time>
      </trkpt>
      <trkpt lat="48.79757" lon="5.15499">
        <ele>232</ele>
        <time>2023-01-30T15:35:14.000Z</time>
      </trkpt>
      <trkpt lat="48.79756" lon="5.15497">
        <ele>232</ele>
        <time>2023-01-30T15:35:15.000Z</time>
      </trkpt>
      <trkpt lat="48.79754" lon="5.15494">
        <ele>232</ele>
        <time>2023-01-30T15:35:16.000Z</time>
      </trkpt>
      <trkpt lat="48.79753" lon="5.15493">
        <ele>232</ele>
        <time>2023-01-30T15:35:17.000Z</time>
      </trkpt>
      <trkpt lat="48.79751" lon="5.1549">
        <ele>232</ele>
        <time>2023-01-30T15:35:18.000Z</time>
      </trkpt>
      <trkpt lat="48.7975" lon="5.15487">
        <ele>232</ele>
        <time>2023-01-30T15:35:19.000Z</time>
      </trkpt>
      <trkpt lat="48.79748" lon="5.15484">
        <ele>232</ele>
        <time>2023-01-30T15:35:20.000Z</time>
      </trkpt>
      <trkpt lat="48.79747" lon="5.15481">
        <ele>232</ele>
        <time>2023-01-30T15:35:21.000Z</time>
      </trkpt>
      <trkpt lat="48.79746" lon="5.15478">
        <ele>231.5</ele>
        <time>2023-01-30T15:35:22.000Z</time>
      </trkpt>
      <trkpt lat="48.79746" lon="5.15476">
        <ele>231</ele>
        <time>2023-01-30T15:35:23.000Z</time>
      </trkpt>
      <trkpt lat="48.79745" lon="5.15474">
        <ele>231</ele>
        <time>2023-01-30T15:35:24.000Z</time>
      </trkpt>
      <trkpt lat="48.79745" lon="5.15471">
        <ele>231</ele>
        <time>2023-01-30T15:35:25.000Z</time>
      </trkpt>
      <trkpt lat="48.79744" lon="5.15468">
        <ele>231</ele>
        <time>2023-01-30T15:35:26.000Z</time>
      </trkpt>
      <trkpt lat="48.79744" lon="5.15466">
        <ele>231</ele>
        <time>2023-01-30T15:35:27.000Z</time>
      </trkpt>
      <trkpt lat="48.79744" lon="5.15464">
        <ele>231</ele>
        <time>2023-01-30T15:35:28.000Z</time>
      </trkpt>
      <trkpt lat="48.79744" lon="5.15461">
        <ele>231</ele>
        <time>2023-01-30T15:35:29.000Z</time>
      </trkpt>
      <trkpt lat="48.79743" lon="5.15459">
        <ele>231</ele>
        <time>2023-01-30T15:35:30.000Z</time>
      </trkpt>
      <trkpt lat="48.79742" lon="5.15456">
        <ele>231</ele>
        <time>2023-01-30T15:35:31.000Z</time>
      </trkpt>
      <trkpt lat="48.79742" lon="5.15453">
        <ele>230</ele>
        <time>2023-01-30T15:35:32.000Z</time>
      </trkpt>
      <trkpt lat="48.79742" lon="5.1545">
        <ele>230</ele>
        <time>2023-01-30T15:35:33.000Z</time>
      </trkpt>
      <trkpt lat="48.79741" lon="5.15448">
        <ele>230</ele>
        <time>2023-01-30T15:35:34.000Z</time>
      </trkpt>
      <trkpt lat="48.79741" lon="5.15446">
        <ele>230</ele>
        <time>2023-01-30T15:35:35.000Z</time>
      </trkpt>
      <trkpt lat="48.79741" lon="5.15444">
        <ele>230</ele>
        <time>2023-01-30T15:35:36.000Z</time>
      </trkpt>
      <trkpt lat="48.79741" lon="5.15441">
        <ele>230</ele>
        <time>2023-01-30T15:35:37.000Z</time>
      </trkpt>
      <trkpt lat="48.79741" lon="5.15438">
        <ele>230</ele>
        <time>2023-01-30T15:35:38.000Z</time>
      </trkpt>
      <trkpt lat="48.79741" lon="5.15436">
        <ele>230</ele>
        <time>2023-01-30T15:35:39.000Z</time>
      </trkpt>
      <trkpt lat="48.7974" lon="5.15433">
        <ele>230</ele>
        <time>2023-01-30T15:35:40.000Z</time>
      </trkpt>
      <trkpt lat="48.7974" lon="5.1543">
        <ele>230</ele>
        <time>2023-01-30T15:35:41.000Z</time>
      </trkpt>
      <trkpt lat="48.79739" lon="5.15428">
        <ele>229.5</ele>
        <time>2023-01-30T15:35:42.000Z</time>
      </trkpt>
      <trkpt lat="48.79739" lon="5.15426">
        <ele>229</ele>
        <time>2023-01-30T15:35:43.000Z</time>
      </trkpt>
      <trkpt lat="48.79738" lon="5.15424">
        <ele>229</ele>
        <time>2023-01-30T15:35:44.000Z</time>
      </trkpt>
      <trkpt lat="48.79738" lon="5.15422">
        <ele>229</ele>
        <time>2023-01-30T15:35:45.000Z</time>
      </trkpt>
      <trkpt lat="48.79738" lon="5.15421">
        <ele>229</ele>
        <time>2023-01-30T15:35:46.000Z</time>
      </trkpt>
      <trkpt lat="48.79737" lon="5.15419">
        <ele>229</ele>
        <time>2023-01-30T15:35:47.000Z</time>
      </trkpt>
      <trkpt lat="48.79737" lon="5.15417">
        <ele>229</ele>
        <time>2023-01-30T15:35:48.000Z</time>
      </trkpt>
      <trkpt lat="48.79736" lon="5.15415">
        <ele>229</ele>
        <time>2023-01-30T15:35:49.000Z</time>
      </trkpt>
      <trkpt lat="48.79736" lon="5.15413">
        <ele>229</ele>
        <time>2023-01-30T15:35:50.000Z</time>
      </trkpt>
      <trkpt lat="48.79736" lon="5.15411">
        <ele>229</ele>
        <time>2023-01-30T15:35:51.000Z</time>
      </trkpt>
      <trkpt lat="48.79736" lon="5.15409">
        <ele>229</ele>
        <time>2023-01-30T15:35:52.000Z</time>
      </trkpt>
      <trkpt lat="48.79735" lon="5.15407">
        <ele>228.7</ele>
        <time>2023-01-30T15:35:53.000Z</time>
      </trkpt>
      <trkpt lat="48.79735" lon="5.15405">
        <ele>228.3</ele>
        <time>2023-01-30T15:35:54.000Z</time>
      </trkpt>
      <trkpt lat="48.79735" lon="5.15404">
        <ele>228</ele>
        <time>2023-01-30T15:35:55.000Z</time>
      </trkpt>
      <trkpt lat="48.79735" lon="5.15402">
        <ele>228</ele>
        <time>2023-01-30T15:35:56.000Z</time>
      </trkpt>
      <trkpt lat="48.79735" lon="5.154">
        <ele>228</ele>
        <time>2023-01-30T15:35:57.000Z</time>
      </trkpt>
      <trkpt lat="48.79734" lon="5.15398">
        <ele>228</ele>
        <time>2023-01-30T15:35:58.000Z</time>
      </trkpt>
      <trkpt lat="48.79734" lon="5.15395">
        <ele>228</ele>
        <time>2023-01-30T15:35:59.000Z</time>
      </trkpt>
      <trkpt lat="48.79733" lon="5.15393">
        <ele>228</ele>
        <time>2023-01-30T15:36:00.000Z</time>
      </trkpt>
      <trkpt lat="48.79733" lon="5.15391">
        <ele>228</ele>
        <time>2023-01-30T15:36:01.000Z</time>
      </trkpt>
      <trkpt lat="48.79733" lon="5.15389">
        <ele>228</ele>
        <time>2023-01-30T15:36:02.000Z</time>
      </trkpt>
      <trkpt lat="48.79733" lon="5.15387">
        <ele>228</ele>
        <time>2023-01-30T15:36:03.000Z</time>
      </trkpt>
      <trkpt lat="48.79733" lon="5.15385">
        <ele>227</ele>
        <time>2023-01-30T15:36:04.000Z</time>
      </trkpt>
      <trkpt lat="48.79733" lon="5.15382">
        <ele>227</ele>
        <time>2023-01-30T15:36:05.000Z</time>
      </trkpt>
      <trkpt lat="48.79733" lon="5.15379">
        <ele>227</ele>
        <time>2023-01-30T15:36:06.000Z</time>
      </trkpt>
      <trkpt lat="48.79733" lon="5.15377">
        <ele>227</ele>
        <time>2023-01-30T15:36:07.000Z</time>
      </trkpt>
      <trkpt lat="48.79733" lon="5.15375">
        <ele>227</ele>
        <time>2023-01-30T15:36:08.000Z</time>
      </trkpt>
      <trkpt lat="48.79733" lon="5.15372">
        <ele>227</ele>
        <time>2023-01-30T15:36:09.000Z</time>
      </trkpt>
      <trkpt lat="48.79732" lon="5.15369">
        <ele>227</ele>
        <time>2023-01-30T15:36:10.000Z</time>
      </trkpt>
      <trkpt lat="48.79732" lon="5.15367">
        <ele>227</ele>
        <time>2023-01-30T15:36:11.000Z</time>
      </trkpt>
      <trkpt lat="48.79733" lon="5.15364">
        <ele>227</ele>
        <time>2023-01-30T15:36:12.000Z</time>
      </trkpt>
      <trkpt lat="48.79733" lon="5.15362">
        <ele>227</ele>
        <time>2023-01-30T15:36:13.000Z</time>
      </trkpt>
      <trkpt lat="48.79733" lon="5.1536">
        <ele>227</ele>
        <time>2023-01-30T15:36:14.000Z</time>
      </trkpt>
      <trkpt lat="48.79733" lon="5.15357">
        <ele>227</ele>
        <time>2023-01-30T15:36:15.000Z</time>
      </trkpt>
      <trkpt lat="48.79732" lon="5.15355">
        <ele>226</ele>
        <time>2023-01-30T15:36:16.000Z</time>
      </trkpt>
      <trkpt lat="48.79732" lon="5.15352">
        <ele>226</ele>
        <time>2023-01-30T15:36:17.000Z</time>
      </trkpt>
      <trkpt lat="48.79732" lon="5.1535">
        <ele>226</ele>
        <time>2023-01-30T15:36:18.000Z</time>
      </trkpt>
      <trkpt lat="48.79731" lon="5.15348">
        <ele>226</ele>
        <time>2023-01-30T15:36:19.000Z</time>
      </trkpt>
      <trkpt lat="48.79731" lon="5.15346">
        <ele>226</ele>
        <time>2023-01-30T15:36:20.000Z</time>
      </trkpt>
      <trkpt lat="48.79731" lon="5.15344">
        <ele>226</ele>
        <time>2023-01-30T15:36:21.000Z</time>
      </trkpt>
      <trkpt lat="48.79732" lon="5.15343">
        <ele>226</ele>
        <time>2023-01-30T15:36:22.000Z</time>
      </trkpt>
      <trkpt lat="48.79732" lon="5.15341">
        <ele>226</ele>
        <time>2023-01-30T15:36:23.000Z</time>
      </trkpt>
      <trkpt lat="48.79732" lon="5.15339">
        <ele>226</ele>
        <time>2023-01-30T15:36:24.000Z</time>
      </trkpt>
      <trkpt lat="48.79732" lon="5.15337">
        <ele>225.7</ele>
        <time>2023-01-30T15:36:25.000Z</time>
      </trkpt>
      <trkpt lat="48.79732" lon="5.15335">
        <ele>225.3</ele>
        <time>2023-01-30T15:36:26.000Z</time>
      </trkpt>
      <trkpt lat="48.79733" lon="5.15333">
        <ele>225</ele>
        <time>2023-01-30T15:36:27.000Z</time>
      </trkpt>
      <trkpt lat="48.79733" lon="5.15331">
        <ele>225</ele>
        <time>2023-01-30T15:36:28.000Z</time>
      </trkpt>
      <trkpt lat="48.79733" lon="5.1533">
        <ele>225</ele>
        <time>2023-01-30T15:36:29.000Z</time>
      </trkpt>
      <trkpt lat="48.79733" lon="5.15328">
        <ele>225</ele>
        <time>2023-01-30T15:36:30.000Z</time>
      </trkpt>
      <trkpt lat="48.79733" lon="5.15327">
        <ele>225</ele>
        <time>2023-01-30T15:36:31.000Z</time>
      </trkpt>
      <trkpt lat="48.79734" lon="5.15326">
        <ele>225</ele>
        <time>2023-01-30T15:36:32.000Z</time>
      </trkpt>
      <trkpt lat="48.79734" lon="5.15325">
        <ele>225</ele>
        <time>2023-01-30T15:36:33.000Z</time>
      </trkpt>
      <trkpt lat="48.79734" lon="5.15324">
        <ele>225</ele>
        <time>2023-01-30T15:36:34.000Z</time>
      </trkpt>
      <trkpt lat="48.79734" lon="5.15323">
        <ele>225</ele>
        <time>2023-01-30T15:36:35.000Z</time>
      </trkpt>
      <trkpt lat="48.79735" lon="5.15322">
        <ele>225</ele>
        <time>2023-01-30T15:36:36.000Z</time>
      </trkpt>
      <trkpt lat="48.79735" lon="5.15321">
        <ele>225</ele>
        <time>2023-01-30T15:36:37.000Z</time>
      </trkpt>
      <trkpt lat="48.79736" lon="5.15319">
        <ele>225</ele>
        <time>2023-01-30T15:36:38.000Z</time>
      </trkpt>
      <trkpt lat="48.79736" lon="5.15317">
        <ele>225</ele>
        <time>2023-01-30T15:36:39.000Z</time>
      </trkpt>
      <trkpt lat="48.79737" lon="5.15316">
        <ele>224</ele>
        <time>2023-01-30T15:36:40.000Z</time>
      </trkpt>
      <trkpt lat="48.79737" lon="5.15314">
        <ele>224</ele>
        <time>2023-01-30T15:36:41.000Z</time>
      </trkpt>
      <trkpt lat="48.79737" lon="5.15313">
        <ele>224</ele>
        <time>2023-01-30T15:36:42.000Z</time>
      </trkpt>
      <trkpt lat="48.79737" lon="5.15312">
        <ele>224</ele>
        <time>2023-01-30T15:36:43.000Z</time>
      </trkpt>
      <trkpt lat="48.79737" lon="5.15311">
        <ele>224</ele>
        <time>2023-01-30T15:36:44.000Z</time>
      </trkpt>
      <trkpt lat="48.79737" lon="5.15311">
        <ele>224</ele>
        <time>2023-01-30T15:36:45.000Z</time>
      </trkpt>
      <trkpt lat="48.79737" lon="5.1531">
        <ele>224</ele>
        <time>2023-01-30T15:36:46.000Z</time>
      </trkpt>
      <trkpt lat="48.79737" lon="5.15309">
        <ele>224</ele>
        <time>2023-01-30T15:36:47.000Z</time>
      </trkpt>
      <trkpt lat="48.79738" lon="5.15307">
        <ele>224</ele>
        <time>2023-01-30T15:36:48.000Z</time>
      </trkpt>
      <trkpt lat="48.79738" lon="5.15305">
        <ele>223.7</ele>
        <time>2023-01-30T15:36:49.000Z</time>
      </trkpt>
      <trkpt lat="48.79738" lon="5.15303">
        <ele>223.3</ele>
        <time>2023-01-30T15:36:50.000Z</time>
      </trkpt>
      <trkpt lat="48.79738" lon="5.153">
        <ele>223</ele>
        <time>2023-01-30T15:36:51.000Z</time>
      </trkpt>
      <trkpt lat="48.79738" lon="5.15297">
        <ele>223</ele>
        <time>2023-01-30T15:36:52.000Z</time>
      </trkpt>
      <trkpt lat="48.79738" lon="5.15294">
        <ele>223</ele>
        <time>2023-01-30T15:36:53.000Z</time>
      </trkpt>
      <trkpt lat="48.79738" lon="5.15291">
        <ele>223</ele>
        <time>2023-01-30T15:36:54.000Z</time>
      </trkpt>
      <trkpt lat="48.79738" lon="5.15289">
        <ele>223</ele>
        <time>2023-01-30T15:36:55.000Z</time>
      </trkpt>
      <trkpt lat="48.79738" lon="5.15286">
        <ele>223</ele>
        <time>2023-01-30T15:36:56.000Z</time>
      </trkpt>
      <trkpt lat="48.79738" lon="5.15284">
        <ele>222.7</ele>
        <time>2023-01-30T15:36:57.000Z</time>
      </trkpt>
      <trkpt lat="48.79738" lon="5.15282">
        <ele>222.3</ele>
        <time>2023-01-30T15:36:58.000Z</time>
      </trkpt>
      <trkpt lat="48.79738" lon="5.1528">
        <ele>222</ele>
        <time>2023-01-30T15:36:59.000Z</time>
      </trkpt>
      <trkpt lat="48.79738" lon="5.15277">
        <ele>222</ele>
        <time>2023-01-30T15:37:00.000Z</time>
      </trkpt>
      <trkpt lat="48.79739" lon="5.15275">
        <ele>222</ele>
        <time>2023-01-30T15:37:01.000Z</time>
      </trkpt>
      <trkpt lat="48.79739" lon="5.15274">
        <ele>222</ele>
        <time>2023-01-30T15:37:02.000Z</time>
      </trkpt>
      <trkpt lat="48.7974" lon="5.15273">
        <ele>222</ele>
        <time>2023-01-30T15:37:03.000Z</time>
      </trkpt>
      <trkpt lat="48.79741" lon="5.15271">
        <ele>222</ele>
        <time>2023-01-30T15:37:04.000Z</time>
      </trkpt>
      <trkpt lat="48.79742" lon="5.15269">
        <ele>221.7</ele>
        <time>2023-01-30T15:37:05.000Z</time>
      </trkpt>
      <trkpt lat="48.79742" lon="5.15266">
        <ele>221.3</ele>
        <time>2023-01-30T15:37:06.000Z</time>
      </trkpt>
      <trkpt lat="48.79742" lon="5.15264">
        <ele>221</ele>
        <time>2023-01-30T15:37:07.000Z</time>
      </trkpt>
      <trkpt lat="48.79743" lon="5.15262">
        <ele>221</ele>
        <time>2023-01-30T15:37:08.000Z</time>
      </trkpt>
      <trkpt lat="48.79744" lon="5.15259">
        <ele>221</ele>
        <time>2023-01-30T15:37:09.000Z</time>
      </trkpt>
      <trkpt lat="48.79745" lon="5.15255">
        <ele>221</ele>
        <time>2023-01-30T15:37:10.000Z</time>
      </trkpt>
      <trkpt lat="48.79745" lon="5.15252">
        <ele>221</ele>
        <time>2023-01-30T15:37:11.000Z</time>
      </trkpt>
      <trkpt lat="48.79745" lon="5.1525">
        <ele>221</ele>
        <time>2023-01-30T15:37:12.000Z</time>
      </trkpt>
      <trkpt lat="48.79745" lon="5.15247">
        <ele>221</ele>
        <time>2023-01-30T15:37:13.000Z</time>
      </trkpt>
      <trkpt lat="48.79745" lon="5.15244">
        <ele>221</ele>
        <time>2023-01-30T15:37:14.000Z</time>
      </trkpt>
      <trkpt lat="48.79746" lon="5.15242">
        <ele>221</ele>
        <time>2023-01-30T15:37:15.000Z</time>
      </trkpt>
      <trkpt lat="48.79746" lon="5.15239">
        <ele>220.5</ele>
        <time>2023-01-30T15:37:16.000Z</time>
      </trkpt>
      <trkpt lat="48.79746" lon="5.15236">
        <ele>220</ele>
        <time>2023-01-30T15:37:17.000Z</time>
      </trkpt>
      <trkpt lat="48.79747" lon="5.15234">
        <ele>220</ele>
        <time>2023-01-30T15:37:18.000Z</time>
      </trkpt>
      <trkpt lat="48.79747" lon="5.15231">
        <ele>220</ele>
        <time>2023-01-30T15:37:19.000Z</time>
      </trkpt>
      <trkpt lat="48.79748" lon="5.15228">
        <ele>220</ele>
        <time>2023-01-30T15:37:20.000Z</time>
      </trkpt>
      <trkpt lat="48.79748" lon="5.15226">
        <ele>220</ele>
        <time>2023-01-30T15:37:21.000Z</time>
      </trkpt>
      <trkpt lat="48.79748" lon="5.15224">
        <ele>220</ele>
        <time>2023-01-30T15:37:22.000Z</time>
      </trkpt>
      <trkpt lat="48.79749" lon="5.15222">
        <ele>219.7</ele>
        <time>2023-01-30T15:37:23.000Z</time>
      </trkpt>
      <trkpt lat="48.79749" lon="5.1522">
        <ele>219.3</ele>
        <time>2023-01-30T15:37:24.000Z</time>
      </trkpt>
      <trkpt lat="48.79749" lon="5.15217">
        <ele>219</ele>
        <time>2023-01-30T15:37:25.000Z</time>
      </trkpt>
      <trkpt lat="48.79749" lon="5.15214">
        <ele>219</ele>
        <time>2023-01-30T15:37:26.000Z</time>
      </trkpt>
      <trkpt lat="48.7975" lon="5.15212">
        <ele>219</ele>
        <time>2023-01-30T15:37:27.000Z</time>
      </trkpt>
      <trkpt lat="48.7975" lon="5.1521">
        <ele>219</ele>
        <time>2023-01-30T15:37:28.000Z</time>
      </trkpt>
      <trkpt lat="48.7975" lon="5.15208">
        <ele>219</ele>
        <time>2023-01-30T15:37:29.000Z</time>
      </trkpt>
      <trkpt lat="48.79751" lon="5.15206">
        <ele>219</ele>
        <time>2023-01-30T15:37:30.000Z</time>
      </trkpt>
      <trkpt lat="48.79751" lon="5.15205">
        <ele>218.7</ele>
        <time>2023-01-30T15:37:31.000Z</time>
      </trkpt>
      <trkpt lat="48.79751" lon="5.15204">
        <ele>218.3</ele>
        <time>2023-01-30T15:37:32.000Z</time>
      </trkpt>
      <trkpt lat="48.79752" lon="5.15202">
        <ele>218</ele>
        <time>2023-01-30T15:37:33.000Z</time>
      </trkpt>
      <trkpt lat="48.79752" lon="5.152">
        <ele>218</ele>
        <time>2023-01-30T15:37:34.000Z</time>
      </trkpt>
      <trkpt lat="48.79752" lon="5.15198">
        <ele>218</ele>
        <time>2023-01-30T15:37:35.000Z</time>
      </trkpt>
      <trkpt lat="48.79752" lon="5.15196">
        <ele>218</ele>
        <time>2023-01-30T15:37:36.000Z</time>
      </trkpt>
      <trkpt lat="48.79752" lon="5.15194">
        <ele>217.7</ele>
        <time>2023-01-30T15:37:37.000Z</time>
      </trkpt>
      <trkpt lat="48.79752" lon="5.15193">
        <ele>217.3</ele>
        <time>2023-01-30T15:37:38.000Z</time>
      </trkpt>
      <trkpt lat="48.79752" lon="5.15191">
        <ele>217</ele>
        <time>2023-01-30T15:37:39.000Z</time>
      </trkpt>
      <trkpt lat="48.79752" lon="5.1519">
        <ele>217</ele>
        <time>2023-01-30T15:37:40.000Z</time>
      </trkpt>
      <trkpt lat="48.79752" lon="5.15188">
        <ele>217</ele>
        <time>2023-01-30T15:37:41.000Z</time>
      </trkpt>
      <trkpt lat="48.79752" lon="5.15186">
        <ele>217</ele>
        <time>2023-01-30T15:37:42.000Z</time>
      </trkpt>
      <trkpt lat="48.79752" lon="5.15184">
        <ele>217</ele>
        <time>2023-01-30T15:37:43.000Z</time>
      </trkpt>
      <trkpt lat="48.79752" lon="5.15183">
        <ele>216</ele>
        <time>2023-01-30T15:37:44.000Z</time>
      </trkpt>
      <trkpt lat="48.79752" lon="5.15181">
        <ele>216</ele>
        <time>2023-01-30T15:37:45.000Z</time>
      </trkpt>
      <trkpt lat="48.79752" lon="5.15179">
        <ele>216</ele>
        <time>2023-01-30T15:37:46.000Z</time>
      </trkpt>
      <trkpt lat="48.79752" lon="5.15177">
        <ele>216</ele>
        <time>2023-01-30T15:37:47.000Z</time>
      </trkpt>
      <trkpt lat="48.79752" lon="5.15175">
        <ele>216</ele>
        <time>2023-01-30T15:37:48.000Z</time>
      </trkpt>
      <trkpt lat="48.79752" lon="5.15172">
        <ele>216</ele>
        <time>2023-01-30T15:37:49.000Z</time>
      </trkpt>
      <trkpt lat="48.79752" lon="5.1517">
        <ele>216</ele>
        <time>2023-01-30T15:37:50.000Z</time>
      </trkpt>
      <trkpt lat="48.79752" lon="5.15167">
        <ele>215.5</ele>
        <time>2023-01-30T15:37:51.000Z</time>
      </trkpt>
      <trkpt lat="48.79752" lon="5.15164">
        <ele>215</ele>
        <time>2023-01-30T15:37:52.000Z</time>
      </trkpt>
      <trkpt lat="48.79752" lon="5.15161">
        <ele>215</ele>
        <time>2023-01-30T15:37:53.000Z</time>
      </trkpt>
      <trkpt lat="48.79752" lon="5.15159">
        <ele>215</ele>
        <time>2023-01-30T15:37:54.000Z</time>
      </trkpt>
      <trkpt lat="48.79752" lon="5.15158">
        <ele>215</ele>
        <time>2023-01-30T15:37:55.000Z</time>
      </trkpt>
      <trkpt lat="48.79752" lon="5.15156">
        <ele>215</ele>
        <time>2023-01-30T15:37:56.000Z</time>
      </trkpt>
      <trkpt lat="48.79752" lon="5.15155">
        <ele>215</ele>
        <time>2023-01-30T15:37:57.000Z</time>
      </trkpt>
      <trkpt lat="48.79752" lon="5.15154">
        <ele>215</ele>
        <time>2023-01-30T15:37:58.000Z</time>
      </trkpt>
      <trkpt lat="48.79752" lon="5.15152">
        <ele>215</ele>
        <time>2023-01-30T15:37:59.000Z</time>
      </trkpt>
      <trkpt lat="48.79752" lon="5.1515">
        <ele>214.5</ele>
        <time>2023-01-30T15:38:00.000Z</time>
      </trkpt>
      <trkpt lat="48.79752" lon="5.15147">
        <ele>214</ele>
        <time>2023-01-30T15:38:01.000Z</time>
      </trkpt>
      <trkpt lat="48.79751" lon="5.15144">
        <ele>214</ele>
        <time>2023-01-30T15:38:02.000Z</time>
      </trkpt>
      <trkpt lat="48.79751" lon="5.15143">
        <ele>214</ele>
        <time>2023-01-30T15:38:03.000Z</time>
      </trkpt>
      <trkpt lat="48.7975" lon="5.15141">
        <ele>214</ele>
        <time>2023-01-30T15:38:04.000Z</time>
      </trkpt>
      <trkpt lat="48.7975" lon="5.15139">
        <ele>214</ele>
        <time>2023-01-30T15:38:05.000Z</time>
      </trkpt>
      <trkpt lat="48.79749" lon="5.15137">
        <ele>214</ele>
        <time>2023-01-30T15:38:06.000Z</time>
      </trkpt>
      <trkpt lat="48.79749" lon="5.15134">
        <ele>214</ele>
        <time>2023-01-30T15:38:07.000Z</time>
      </trkpt>
      <trkpt lat="48.79748" lon="5.15132">
        <ele>213.5</ele>
        <time>2023-01-30T15:38:08.000Z</time>
      </trkpt>
      <trkpt lat="48.79748" lon="5.15131">
        <ele>213</ele>
        <time>2023-01-30T15:38:09.000Z</time>
      </trkpt>
      <trkpt lat="48.79748" lon="5.15129">
        <ele>213</ele>
        <time>2023-01-30T15:38:10.000Z</time>
      </trkpt>
      <trkpt lat="48.79747" lon="5.15127">
        <ele>213</ele>
        <time>2023-01-30T15:38:11.000Z</time>
      </trkpt>
      <trkpt lat="48.79746" lon="5.15125">
        <ele>213</ele>
        <time>2023-01-30T15:38:12.000Z</time>
      </trkpt>
      <trkpt lat="48.79746" lon="5.15123">
        <ele>212.7</ele>
        <time>2023-01-30T15:38:13.000Z</time>
      </trkpt>
      <trkpt lat="48.79745" lon="5.15121">
        <ele>212.3</ele>
        <time>2023-01-30T15:38:14.000Z</time>
      </trkpt>
      <trkpt lat="48.79744" lon="5.1512">
        <ele>212</ele>
        <time>2023-01-30T15:38:15.000Z</time>
      </trkpt>
      <trkpt lat="48.79744" lon="5.15118">
        <ele>212</ele>
        <time>2023-01-30T15:38:16.000Z</time>
      </trkpt>
      <trkpt lat="48.79743" lon="5.15117">
        <ele>211.7</ele>
        <time>2023-01-30T15:38:17.000Z</time>
      </trkpt>
      <trkpt lat="48.79742" lon="5.15116">
        <ele>211.3</ele>
        <time>2023-01-30T15:38:18.000Z</time>
      </trkpt>
      <trkpt lat="48.79742" lon="5.15115">
        <ele>211</ele>
        <time>2023-01-30T15:38:19.000Z</time>
      </trkpt>
      <trkpt lat="48.79741" lon="5.15114">
        <ele>211</ele>
        <time>2023-01-30T15:38:20.000Z</time>
      </trkpt>
      <trkpt lat="48.7974" lon="5.15113">
        <ele>211</ele>
        <time>2023-01-30T15:38:21.000Z</time>
      </trkpt>
      <trkpt lat="48.79739" lon="5.15112">
        <ele>211</ele>
        <time>2023-01-30T15:38:22.000Z</time>
      </trkpt>
      <trkpt lat="48.79737" lon="5.1511">
        <ele>210.7</ele>
        <time>2023-01-30T15:38:23.000Z</time>
      </trkpt>
      <trkpt lat="48.79736" lon="5.15108">
        <ele>210.3</ele>
        <time>2023-01-30T15:38:24.000Z</time>
      </trkpt>
      <trkpt lat="48.79734" lon="5.15107">
        <ele>210</ele>
        <time>2023-01-30T15:38:25.000Z</time>
      </trkpt>
      <trkpt lat="48.79733" lon="5.15106">
        <ele>210</ele>
        <time>2023-01-30T15:38:26.000Z</time>
      </trkpt>
      <trkpt lat="48.79731" lon="5.15104">
        <ele>210</ele>
        <time>2023-01-30T15:38:27.000Z</time>
      </trkpt>
      <trkpt lat="48.7973" lon="5.15103">
        <ele>210</ele>
        <time>2023-01-30T15:38:28.000Z</time>
      </trkpt>
      <trkpt lat="48.79729" lon="5.15102">
        <ele>210</ele>
        <time>2023-01-30T15:38:29.000Z</time>
      </trkpt>
      <trkpt lat="48.79727" lon="5.15101">
        <ele>209.5</ele>
        <time>2023-01-30T15:38:30.000Z</time>
      </trkpt>
      <trkpt lat="48.79725" lon="5.151">
        <ele>209</ele>
        <time>2023-01-30T15:38:31.000Z</time>
      </trkpt>
      <trkpt lat="48.79723" lon="5.15099">
        <ele>209</ele>
        <time>2023-01-30T15:38:32.000Z</time>
      </trkpt>
      <trkpt lat="48.79721" lon="5.15098">
        <ele>209</ele>
        <time>2023-01-30T15:38:33.000Z</time>
      </trkpt>
      <trkpt lat="48.7972" lon="5.15097">
        <ele>208.5</ele>
        <time>2023-01-30T15:38:34.000Z</time>
      </trkpt>
      <trkpt lat="48.79718" lon="5.15096">
        <ele>208</ele>
        <time>2023-01-30T15:38:35.000Z</time>
      </trkpt>
      <trkpt lat="48.79716" lon="5.15095">
        <ele>208</ele>
        <time>2023-01-30T15:38:36.000Z</time>
      </trkpt>
      <trkpt lat="48.79715" lon="5.15094">
        <ele>208</ele>
        <time>2023-01-30T15:38:37.000Z</time>
      </trkpt>
      <trkpt lat="48.79714" lon="5.15093">
        <ele>208</ele>
        <time>2023-01-30T15:38:38.000Z</time>
      </trkpt>
      <trkpt lat="48.79713" lon="5.15092">
        <ele>208</ele>
        <time>2023-01-30T15:38:39.000Z</time>
      </trkpt>
      <trkpt lat="48.79712" lon="5.15091">
        <ele>207</ele>
        <time>2023-01-30T15:38:40.000Z</time>
      </trkpt>
      <trkpt lat="48.79712" lon="5.1509">
        <ele>207</ele>
        <time>2023-01-30T15:38:41.000Z</time>
      </trkpt>
      <trkpt lat="48.79711" lon="5.15089">
        <ele>207</ele>
        <time>2023-01-30T15:38:42.000Z</time>
      </trkpt>
      <trkpt lat="48.79711" lon="5.15088">
        <ele>207</ele>
        <time>2023-01-30T15:38:43.000Z</time>
      </trkpt>
      <trkpt lat="48.7971" lon="5.15085">
        <ele>206.5</ele>
        <time>2023-01-30T15:38:44.000Z</time>
      </trkpt>
      <trkpt lat="48.79709" lon="5.15082">
        <ele>206</ele>
        <time>2023-01-30T15:38:45.000Z</time>
      </trkpt>
      <trkpt lat="48.79708" lon="5.15078">
        <ele>206</ele>
        <time>2023-01-30T15:38:46.000Z</time>
      </trkpt>
      <trkpt lat="48.79706" lon="5.15074">
        <ele>206</ele>
        <time>2023-01-30T15:38:47.000Z</time>
      </trkpt>
      <trkpt lat="48.79705" lon="5.1507">
        <ele>206</ele>
        <time>2023-01-30T15:38:48.000Z</time>
      </trkpt>
      <trkpt lat="48.79704" lon="5.15068">
        <ele>205</ele>
        <time>2023-01-30T15:38:49.000Z</time>
      </trkpt>
      <trkpt lat="48.79703" lon="5.15065">
        <ele>205</ele>
        <time>2023-01-30T15:38:50.000Z</time>
      </trkpt>
      <trkpt lat="48.79702" lon="5.15063">
        <ele>205</ele>
        <time>2023-01-30T15:38:51.000Z</time>
      </trkpt>
      <trkpt lat="48.79701" lon="5.1506">
        <ele>205</ele>
        <time>2023-01-30T15:38:52.000Z</time>
      </trkpt>
      <trkpt lat="48.797" lon="5.15057">
        <ele>205</ele>
        <time>2023-01-30T15:38:53.000Z</time>
      </trkpt>
      <trkpt lat="48.79699" lon="5.15055">
        <ele>204</ele>
        <time>2023-01-30T15:38:54.000Z</time>
      </trkpt>
      <trkpt lat="48.79698" lon="5.15053">
        <ele>204</ele>
        <time>2023-01-30T15:38:55.000Z</time>
      </trkpt>
      <trkpt lat="48.79698" lon="5.15051">
        <ele>204</ele>
        <time>2023-01-30T15:38:56.000Z</time>
      </trkpt>
      <trkpt lat="48.79697" lon="5.15048">
        <ele>204</ele>
        <time>2023-01-30T15:38:57.000Z</time>
      </trkpt>
      <trkpt lat="48.79697" lon="5.15047">
        <ele>203</ele>
        <time>2023-01-30T15:38:58.000Z</time>
      </trkpt>
      <trkpt lat="48.79697" lon="5.15045">
        <ele>203</ele>
        <time>2023-01-30T15:38:59.000Z</time>
      </trkpt>
      <trkpt lat="48.79696" lon="5.15045">
        <ele>203</ele>
        <time>2023-01-30T15:39:00.000Z</time>
      </trkpt>
      <trkpt lat="48.79696" lon="5.15044">
        <ele>203</ele>
        <time>2023-01-30T15:39:01.000Z</time>
      </trkpt>
      <trkpt lat="48.79696" lon="5.15042">
        <ele>202.5</ele>
        <time>2023-01-30T15:39:02.000Z</time>
      </trkpt>
      <trkpt lat="48.79695" lon="5.15039">
        <ele>202</ele>
        <time>2023-01-30T15:39:03.000Z</time>
      </trkpt>
      <trkpt lat="48.79695" lon="5.15037">
        <ele>202</ele>
        <time>2023-01-30T15:39:04.000Z</time>
      </trkpt>
      <trkpt lat="48.79694" lon="5.15035">
        <ele>202</ele>
        <time>2023-01-30T15:39:05.000Z</time>
      </trkpt>
      <trkpt lat="48.79694" lon="5.15033">
        <ele>202</ele>
        <time>2023-01-30T15:39:06.000Z</time>
      </trkpt>
      <trkpt lat="48.79694" lon="5.15033">
        <ele>202</ele>
        <time>2023-01-30T15:39:07.000Z</time>
      </trkpt>
      <trkpt lat="48.79694" lon="5.15032">
        <ele>201.5</ele>
        <time>2023-01-30T15:39:08.000Z</time>
      </trkpt>
      <trkpt lat="48.79693" lon="5.15031">
        <ele>201</ele>
        <time>2023-01-30T15:39:09.000Z</time>
      </trkpt>
      <trkpt lat="48.79693" lon="5.1503">
        <ele>201</ele>
        <time>2023-01-30T15:39:10.000Z</time>
      </trkpt>
      <trkpt lat="48.79693" lon="5.15029">
        <ele>201</ele>
        <time>2023-01-30T15:39:11.000Z</time>
      </trkpt>
      <trkpt lat="48.79692" lon="5.15027">
        <ele>200.5</ele>
        <time>2023-01-30T15:39:12.000Z</time>
      </trkpt>
      <trkpt lat="48.79691" lon="5.15024">
        <ele>200</ele>
        <time>2023-01-30T15:39:13.000Z</time>
      </trkpt>
      <trkpt lat="48.7969" lon="5.15022">
        <ele>200</ele>
        <time>2023-01-30T15:39:14.000Z</time>
      </trkpt>
      <trkpt lat="48.79689" lon="5.15019">
        <ele>200</ele>
        <time>2023-01-30T15:39:15.000Z</time>
      </trkpt>
      <trkpt lat="48.79688" lon="5.15016">
        <ele>199</ele>
        <time>2023-01-30T15:39:16.000Z</time>
      </trkpt>
      <trkpt lat="48.79687" lon="5.15014">
        <ele>199</ele>
        <time>2023-01-30T15:39:17.000Z</time>
      </trkpt>
      <trkpt lat="48.79687" lon="5.15013">
        <ele>199</ele>
        <time>2023-01-30T15:39:18.000Z</time>
      </trkpt>
      <trkpt lat="48.79686" lon="5.15012">
        <ele>199</ele>
        <time>2023-01-30T15:39:19.000Z</time>
      </trkpt>
      <trkpt lat="48.79686" lon="5.1501">
        <ele>198.5</ele>
        <time>2023-01-30T15:39:20.000Z</time>
      </trkpt>
      <trkpt lat="48.79684" lon="5.15008">
        <ele>198</ele>
        <time>2023-01-30T15:39:21.000Z</time>
      </trkpt>
      <trkpt lat="48.79683" lon="5.15005">
        <ele>198</ele>
        <time>2023-01-30T15:39:22.000Z</time>
      </trkpt>
      <trkpt lat="48.79681" lon="5.15003">
        <ele>197.7</ele>
        <time>2023-01-30T15:39:23.000Z</time>
      </trkpt>
      <trkpt lat="48.7968" lon="5.15001">
        <ele>197.3</ele>
        <time>2023-01-30T15:39:24.000Z</time>
      </trkpt>
      <trkpt lat="48.79679" lon="5.14999">
        <ele>197</ele>
        <time>2023-01-30T15:39:25.000Z</time>
      </trkpt>
      <trkpt lat="48.79678" lon="5.14998">
        <ele>197</ele>
        <time>2023-01-30T15:39:26.000Z</time>
      </trkpt>
      <trkpt lat="48.79678" lon="5.14997">
        <ele>197</ele>
        <time>2023-01-30T15:39:27.000Z</time>
      </trkpt>
      <trkpt lat="48.79677" lon="5.14996">
        <ele>196.5</ele>
        <time>2023-01-30T15:39:28.000Z</time>
      </trkpt>
      <trkpt lat="48.79677" lon="5.14995">
        <ele>196</ele>
        <time>2023-01-30T15:39:29.000Z</time>
      </trkpt>
      <trkpt lat="48.79677" lon="5.14994">
        <ele>196</ele>
        <time>2023-01-30T15:39:30.000Z</time>
      </trkpt>
      <trkpt lat="48.79676" lon="5.14992">
        <ele>196</ele>
        <time>2023-01-30T15:39:31.000Z</time>
      </trkpt>
      <trkpt lat="48.79674" lon="5.14989">
        <ele>196</ele>
        <time>2023-01-30T15:39:32.000Z</time>
      </trkpt>
      <trkpt lat="48.79672" lon="5.14984">
        <ele>196</ele>
        <time>2023-01-30T15:39:33.000Z</time>
      </trkpt>
      <trkpt lat="48.79669" lon="5.14978">
        <ele>195</ele>
        <time>2023-01-30T15:39:34.000Z</time>
      </trkpt>
      <trkpt lat="48.79666" lon="5.14972">
        <ele>195</ele>
        <time>2023-01-30T15:39:35.000Z</time>
      </trkpt>
      <trkpt lat="48.79663" lon="5.14967">
        <ele>195</ele>
        <time>2023-01-30T15:39:36.000Z</time>
      </trkpt>
      <trkpt lat="48.79661" lon="5.14962">
        <ele>194</ele>
        <time>2023-01-30T15:39:37.000Z</time>
      </trkpt>
      <trkpt lat="48.79659" lon="5.14958">
        <ele>194</ele>
        <time>2023-01-30T15:39:38.000Z</time>
      </trkpt>
      <trkpt lat="48.79658" lon="5.14954">
        <ele>194</ele>
        <time>2023-01-30T15:39:39.000Z</time>
      </trkpt>
      <trkpt lat="48.79656" lon="5.14951">
        <ele>194</ele>
        <time>2023-01-30T15:39:40.000Z</time>
      </trkpt>
      <trkpt lat="48.79655" lon="5.14948">
        <ele>194</ele>
        <time>2023-01-30T15:39:41.000Z</time>
      </trkpt>
      <trkpt lat="48.79654" lon="5.14946">
        <ele>193</ele>
        <time>2023-01-30T15:39:42.000Z</time>
      </trkpt>
      <trkpt lat="48.79654" lon="5.14944">
        <ele>193</ele>
        <time>2023-01-30T15:39:43.000Z</time>
      </trkpt>
      <trkpt lat="48.79653" lon="5.14942">
        <ele>193</ele>
        <time>2023-01-30T15:39:44.000Z</time>
      </trkpt>
      <trkpt lat="48.79653" lon="5.14941">
        <ele>193</ele>
        <time>2023-01-30T15:39:45.000Z</time>
      </trkpt>
      <trkpt lat="48.79652" lon="5.14941">
        <ele>192.5</ele>
        <time>2023-01-30T15:39:46.000Z</time>
      </trkpt>
      <trkpt lat="48.79652" lon="5.1494">
        <ele>192</ele>
        <time>2023-01-30T15:39:47.000Z</time>
      </trkpt>
      <trkpt lat="48.79652" lon="5.14939">
        <ele>192</ele>
        <time>2023-01-30T15:39:48.000Z</time>
      </trkpt>
      <trkpt lat="48.79652" lon="5.14939">
        <ele>191.7</ele>
        <time>2023-01-30T15:39:49.000Z</time>
      </trkpt>
      <trkpt lat="48.79652" lon="5.14938">
        <ele>191.3</ele>
        <time>2023-01-30T15:39:50.000Z</time>
      </trkpt>
      <trkpt lat="48.79652" lon="5.14936">
        <ele>191</ele>
        <time>2023-01-30T15:39:51.000Z</time>
      </trkpt>
      <trkpt lat="48.79652" lon="5.14934">
        <ele>191</ele>
        <time>2023-01-30T15:39:52.000Z</time>
      </trkpt>
      <trkpt lat="48.79652" lon="5.14932">
        <ele>191</ele>
        <time>2023-01-30T15:39:53.000Z</time>
      </trkpt>
      <trkpt lat="48.79652" lon="5.1493">
        <ele>191</ele>
        <time>2023-01-30T15:39:54.000Z</time>
      </trkpt>
      <trkpt lat="48.79652" lon="5.14929">
        <ele>191</ele>
        <time>2023-01-30T15:39:55.000Z</time>
      </trkpt>
      <trkpt lat="48.79653" lon="5.14927">
        <ele>191</ele>
        <time>2023-01-30T15:39:56.000Z</time>
      </trkpt>
      <trkpt lat="48.79653" lon="5.14926">
        <ele>191</ele>
        <time>2023-01-30T15:39:57.000Z</time>
      </trkpt>
      <trkpt lat="48.79654" lon="5.14925">
        <ele>191</ele>
        <time>2023-01-30T15:39:58.000Z</time>
      </trkpt>
      <trkpt lat="48.79654" lon="5.14924">
        <ele>191</ele>
        <time>2023-01-30T15:39:59.000Z</time>
      </trkpt>
      <trkpt lat="48.79654" lon="5.14922">
        <ele>191</ele>
        <time>2023-01-30T15:40:00.000Z</time>
      </trkpt>
      <trkpt lat="48.79654" lon="5.14921">
        <ele>191</ele>
        <time>2023-01-30T15:40:01.000Z</time>
      </trkpt>
      <trkpt lat="48.79654" lon="5.14919">
        <ele>191</ele>
        <time>2023-01-30T15:40:02.000Z</time>
      </trkpt>
      <trkpt lat="48.79653" lon="5.14917">
        <ele>190.7</ele>
        <time>2023-01-30T15:40:03.000Z</time>
      </trkpt>
      <trkpt lat="48.79653" lon="5.14916">
        <ele>190.3</ele>
        <time>2023-01-30T15:40:04.000Z</time>
      </trkpt>
      <trkpt lat="48.79652" lon="5.14915">
        <ele>190</ele>
        <time>2023-01-30T15:40:05.000Z</time>
      </trkpt>
      <trkpt lat="48.7965" lon="5.14914">
        <ele>190</ele>
        <time>2023-01-30T15:40:06.000Z</time>
      </trkpt>
      <trkpt lat="48.79649" lon="5.14914">
        <ele>190</ele>
        <time>2023-01-30T15:40:07.000Z</time>
      </trkpt>
      <trkpt lat="48.79648" lon="5.14914">
        <ele>190</ele>
        <time>2023-01-30T15:40:08.000Z</time>
      </trkpt>
      <trkpt lat="48.79646" lon="5.14913">
        <ele>190</ele>
        <time>2023-01-30T15:40:09.000Z</time>
      </trkpt>
      <trkpt lat="48.79645" lon="5.14912">
        <ele>190</ele>
        <time>2023-01-30T15:40:10.000Z</time>
      </trkpt>
      <trkpt lat="48.79644" lon="5.14911">
        <ele>190</ele>
        <time>2023-01-30T15:40:11.000Z</time>
      </trkpt>
      <trkpt lat="48.79642" lon="5.1491">
        <ele>190</ele>
        <time>2023-01-30T15:40:12.000Z</time>
      </trkpt>
      <trkpt lat="48.79641" lon="5.14909">
        <ele>190</ele>
        <time>2023-01-30T15:40:13.000Z</time>
      </trkpt>
      <trkpt lat="48.7964" lon="5.14908">
        <ele>190</ele>
        <time>2023-01-30T15:40:14.000Z</time>
      </trkpt>
      <trkpt lat="48.79639" lon="5.14907">
        <ele>190</ele>
        <time>2023-01-30T15:40:15.000Z</time>
      </trkpt>
      <trkpt lat="48.79638" lon="5.14905">
        <ele>190</ele>
        <time>2023-01-30T15:40:16.000Z</time>
      </trkpt>
      <trkpt lat="48.79637" lon="5.14903">
        <ele>190</ele>
        <time>2023-01-30T15:40:17.000Z</time>
      </trkpt>
      <trkpt lat="48.79636" lon="5.14902">
        <ele>189.5</ele>
        <time>2023-01-30T15:40:18.000Z</time>
      </trkpt>
      <trkpt lat="48.79635" lon="5.149">
        <ele>189</ele>
        <time>2023-01-30T15:40:19.000Z</time>
      </trkpt>
      <trkpt lat="48.79634" lon="5.14899">
        <ele>189</ele>
        <time>2023-01-30T15:40:20.000Z</time>
      </trkpt>
      <trkpt lat="48.79633" lon="5.14897">
        <ele>189</ele>
        <time>2023-01-30T15:40:21.000Z</time>
      </trkpt>
      <trkpt lat="48.79632" lon="5.14896">
        <ele>189</ele>
        <time>2023-01-30T15:40:22.000Z</time>
      </trkpt>
      <trkpt lat="48.79631" lon="5.14895">
        <ele>189</ele>
        <time>2023-01-30T15:40:23.000Z</time>
      </trkpt>
      <trkpt lat="48.7963" lon="5.14894">
        <ele>189</ele>
        <time>2023-01-30T15:40:24.000Z</time>
      </trkpt>
      <trkpt lat="48.79629" lon="5.14894">
        <ele>189</ele>
        <time>2023-01-30T15:40:25.000Z</time>
      </trkpt>
      <trkpt lat="48.79628" lon="5.14893">
        <ele>189</ele>
        <time>2023-01-30T15:40:26.000Z</time>
      </trkpt>
      <trkpt lat="48.79627" lon="5.14892">
        <ele>189</ele>
        <time>2023-01-30T15:40:27.000Z</time>
      </trkpt>
      <trkpt lat="48.79626" lon="5.14891">
        <ele>189</ele>
        <time>2023-01-30T15:40:28.000Z</time>
      </trkpt>
      <trkpt lat="48.79626" lon="5.1489">
        <ele>189</ele>
        <time>2023-01-30T15:40:29.000Z</time>
      </trkpt>
      <trkpt lat="48.79625" lon="5.14889">
        <ele>189</ele>
        <time>2023-01-30T15:40:30.000Z</time>
      </trkpt>
      <trkpt lat="48.79624" lon="5.14888">
        <ele>189</ele>
        <time>2023-01-30T15:40:31.000Z</time>
      </trkpt>
      <trkpt lat="48.79623" lon="5.14886">
        <ele>189</ele>
        <time>2023-01-30T15:40:32.000Z</time>
      </trkpt>
      <trkpt lat="48.79622" lon="5.14885">
        <ele>189</ele>
        <time>2023-01-30T15:40:33.000Z</time>
      </trkpt>
      <trkpt lat="48.79621" lon="5.14883">
        <ele>189</ele>
        <time>2023-01-30T15:40:34.000Z</time>
      </trkpt>
      <trkpt lat="48.7962" lon="5.14881">
        <ele>189</ele>
        <time>2023-01-30T15:40:35.000Z</time>
      </trkpt>
      <trkpt lat="48.79619" lon="5.1488">
        <ele>189</ele>
        <time>2023-01-30T15:40:36.000Z</time>
      </trkpt>
      <trkpt lat="48.79617" lon="5.14878">
        <ele>189</ele>
        <time>2023-01-30T15:40:37.000Z</time>
      </trkpt>
      <trkpt lat="48.79616" lon="5.14877">
        <ele>189</ele>
        <time>2023-01-30T15:40:38.000Z</time>
      </trkpt>
      <trkpt lat="48.79614" lon="5.14876">
        <ele>189</ele>
        <time>2023-01-30T15:40:39.000Z</time>
      </trkpt>
      <trkpt lat="48.79613" lon="5.14875">
        <ele>189</ele>
        <time>2023-01-30T15:40:40.000Z</time>
      </trkpt>
      <trkpt lat="48.79612" lon="5.14874">
        <ele>189</ele>
        <time>2023-01-30T15:40:41.000Z</time>
      </trkpt>
      <trkpt lat="48.79611" lon="5.14873">
        <ele>189</ele>
        <time>2023-01-30T15:40:42.000Z</time>
      </trkpt>
      <trkpt lat="48.7961" lon="5.14873">
        <ele>189</ele>
        <time>2023-01-30T15:40:43.000Z</time>
      </trkpt>
      <trkpt lat="48.79609" lon="5.14872">
        <ele>189</ele>
        <time>2023-01-30T15:40:44.000Z</time>
      </trkpt>
      <trkpt lat="48.79608" lon="5.14871">
        <ele>189</ele>
        <time>2023-01-30T15:40:45.000Z</time>
      </trkpt>
      <trkpt lat="48.79608" lon="5.1487">
        <ele>188.5</ele>
        <time>2023-01-30T15:40:46.000Z</time>
      </trkpt>
      <trkpt lat="48.79607" lon="5.14869">
        <ele>188</ele>
        <time>2023-01-30T15:40:47.000Z</time>
      </trkpt>
      <trkpt lat="48.79606" lon="5.14869">
        <ele>188</ele>
        <time>2023-01-30T15:40:48.000Z</time>
      </trkpt>
      <trkpt lat="48.79605" lon="5.14867">
        <ele>188</ele>
        <time>2023-01-30T15:40:49.000Z</time>
      </trkpt>
      <trkpt lat="48.79605" lon="5.14866">
        <ele>188</ele>
        <time>2023-01-30T15:40:50.000Z</time>
      </trkpt>
      <trkpt lat="48.79604" lon="5.14865">
        <ele>188</ele>
        <time>2023-01-30T15:40:51.000Z</time>
      </trkpt>
      <trkpt lat="48.79602" lon="5.14863">
        <ele>188</ele>
        <time>2023-01-30T15:40:52.000Z</time>
      </trkpt>
      <trkpt lat="48.79601" lon="5.14862">
        <ele>188</ele>
        <time>2023-01-30T15:40:53.000Z</time>
      </trkpt>
      <trkpt lat="48.796" lon="5.14861">
        <ele>188</ele>
        <time>2023-01-30T15:40:54.000Z</time>
      </trkpt>
      <trkpt lat="48.79599" lon="5.1486">
        <ele>188</ele>
        <time>2023-01-30T15:40:55.000Z</time>
      </trkpt>
      <trkpt lat="48.79598" lon="5.14859">
        <ele>188</ele>
        <time>2023-01-30T15:40:56.000Z</time>
      </trkpt>
      <trkpt lat="48.79597" lon="5.14858">
        <ele>188</ele>
        <time>2023-01-30T15:40:57.000Z</time>
      </trkpt>
      <trkpt lat="48.79595" lon="5.14857">
        <ele>188</ele>
        <time>2023-01-30T15:40:58.000Z</time>
      </trkpt>
      <trkpt lat="48.79594" lon="5.14856">
        <ele>188</ele>
        <time>2023-01-30T15:40:59.000Z</time>
      </trkpt>
      <trkpt lat="48.79593" lon="5.14856">
        <ele>188</ele>
        <time>2023-01-30T15:41:00.000Z</time>
      </trkpt>
      <trkpt lat="48.79592" lon="5.14855">
        <ele>188</ele>
        <time>2023-01-30T15:41:01.000Z</time>
      </trkpt>
      <trkpt lat="48.7959" lon="5.14854">
        <ele>188</ele>
        <time>2023-01-30T15:41:02.000Z</time>
      </trkpt>
      <trkpt lat="48.79589" lon="5.14853">
        <ele>188</ele>
        <time>2023-01-30T15:41:03.000Z</time>
      </trkpt>
      <trkpt lat="48.79588" lon="5.14853">
        <ele>188</ele>
        <time>2023-01-30T15:41:04.000Z</time>
      </trkpt>
      <trkpt lat="48.79587" lon="5.14852">
        <ele>188</ele>
        <time>2023-01-30T15:41:05.000Z</time>
      </trkpt>
      <trkpt lat="48.79585" lon="5.14851">
        <ele>188</ele>
        <time>2023-01-30T15:41:06.000Z</time>
      </trkpt>
      <trkpt lat="48.79584" lon="5.14851">
        <ele>188</ele>
        <time>2023-01-30T15:41:07.000Z</time>
      </trkpt>
      <trkpt lat="48.79583" lon="5.1485">
        <ele>188</ele>
        <time>2023-01-30T15:41:08.000Z</time>
      </trkpt>
      <trkpt lat="48.79582" lon="5.14849">
        <ele>188</ele>
        <time>2023-01-30T15:41:09.000Z</time>
      </trkpt>
      <trkpt lat="48.79581" lon="5.14849">
        <ele>188</ele>
        <time>2023-01-30T15:41:10.000Z</time>
      </trkpt>
      <trkpt lat="48.79579" lon="5.14848">
        <ele>188</ele>
        <time>2023-01-30T15:41:11.000Z</time>
      </trkpt>
      <trkpt lat="48.79578" lon="5.14847">
        <ele>188</ele>
        <time>2023-01-30T15:41:12.000Z</time>
      </trkpt>
      <trkpt lat="48.79577" lon="5.14846">
        <ele>188</ele>
        <time>2023-01-30T15:41:13.000Z</time>
      </trkpt>
      <trkpt lat="48.79576" lon="5.14845">
        <ele>187.5</ele>
        <time>2023-01-30T15:41:14.000Z</time>
      </trkpt>
      <trkpt lat="48.79575" lon="5.14844">
        <ele>187</ele>
        <time>2023-01-30T15:41:15.000Z</time>
      </trkpt>
      <trkpt lat="48.79574" lon="5.14844">
        <ele>187.5</ele>
        <time>2023-01-30T15:41:16.000Z</time>
      </trkpt>
      <trkpt lat="48.79573" lon="5.14843">
        <ele>188</ele>
        <time>2023-01-30T15:41:17.000Z</time>
      </trkpt>
      <trkpt lat="48.79572" lon="5.14842">
        <ele>187.5</ele>
        <time>2023-01-30T15:41:18.000Z</time>
      </trkpt>
      <trkpt lat="48.79571" lon="5.14841">
        <ele>187</ele>
        <time>2023-01-30T15:41:19.000Z</time>
      </trkpt>
      <trkpt lat="48.7957" lon="5.1484">
        <ele>187</ele>
        <time>2023-01-30T15:41:20.000Z</time>
      </trkpt>
      <trkpt lat="48.79569" lon="5.14839">
        <ele>187</ele>
        <time>2023-01-30T15:41:21.000Z</time>
      </trkpt>
      <trkpt lat="48.79568" lon="5.14838">
        <ele>187</ele>
        <time>2023-01-30T15:41:22.000Z</time>
      </trkpt>
      <trkpt lat="48.79567" lon="5.14837">
        <ele>187</ele>
        <time>2023-01-30T15:41:23.000Z</time>
      </trkpt>
      <trkpt lat="48.79566" lon="5.14836">
        <ele>187</ele>
        <time>2023-01-30T15:41:24.000Z</time>
      </trkpt>
      <trkpt lat="48.79565" lon="5.14835">
        <ele>187</ele>
        <time>2023-01-30T15:41:25.000Z</time>
      </trkpt>
      <trkpt lat="48.79562" lon="5.14833">
        <ele>187</ele>
        <time>2023-01-30T15:41:26.000Z</time>
      </trkpt>
      <trkpt lat="48.79561" lon="5.14832">
        <ele>187</ele>
        <time>2023-01-30T15:41:27.000Z</time>
      </trkpt>
      <trkpt lat="48.79559" lon="5.14831">
        <ele>187</ele>
        <time>2023-01-30T15:41:28.000Z</time>
      </trkpt>
      <trkpt lat="48.79558" lon="5.1483">
        <ele>187</ele>
        <time>2023-01-30T15:41:29.000Z</time>
      </trkpt>
      <trkpt lat="48.79556" lon="5.14828">
        <ele>187</ele>
        <time>2023-01-30T15:41:30.000Z</time>
      </trkpt>
      <trkpt lat="48.79554" lon="5.14827">
        <ele>187</ele>
        <time>2023-01-30T15:41:31.000Z</time>
      </trkpt>
      <trkpt lat="48.79552" lon="5.14825">
        <ele>187</ele>
        <time>2023-01-30T15:41:32.000Z</time>
      </trkpt>
      <trkpt lat="48.79551" lon="5.14824">
        <ele>187</ele>
        <time>2023-01-30T15:41:33.000Z</time>
      </trkpt>
      <trkpt lat="48.79549" lon="5.14822">
        <ele>187</ele>
        <time>2023-01-30T15:41:34.000Z</time>
      </trkpt>
      <trkpt lat="48.79547" lon="5.1482">
        <ele>187</ele>
        <time>2023-01-30T15:41:35.000Z</time>
      </trkpt>
      <trkpt lat="48.79546" lon="5.14819">
        <ele>187</ele>
        <time>2023-01-30T15:41:36.000Z</time>
      </trkpt>
      <trkpt lat="48.79545" lon="5.14818">
        <ele>187</ele>
        <time>2023-01-30T15:41:37.000Z</time>
      </trkpt>
      <trkpt lat="48.79544" lon="5.14816">
        <ele>187</ele>
        <time>2023-01-30T15:41:38.000Z</time>
      </trkpt>
      <trkpt lat="48.79543" lon="5.14815">
        <ele>187</ele>
        <time>2023-01-30T15:41:39.000Z</time>
      </trkpt>
      <trkpt lat="48.79541" lon="5.14814">
        <ele>187</ele>
        <time>2023-01-30T15:41:40.000Z</time>
      </trkpt>
      <trkpt lat="48.7954" lon="5.14812">
        <ele>187</ele>
        <time>2023-01-30T15:41:41.000Z</time>
      </trkpt>
      <trkpt lat="48.79538" lon="5.1481">
        <ele>187</ele>
        <time>2023-01-30T15:41:42.000Z</time>
      </trkpt>
      <trkpt lat="48.79536" lon="5.14809">
        <ele>187</ele>
        <time>2023-01-30T15:41:43.000Z</time>
      </trkpt>
      <trkpt lat="48.79535" lon="5.14808">
        <ele>187</ele>
        <time>2023-01-30T15:41:44.000Z</time>
      </trkpt>
      <trkpt lat="48.79533" lon="5.14806">
        <ele>187</ele>
        <time>2023-01-30T15:41:45.000Z</time>
      </trkpt>
      <trkpt lat="48.79531" lon="5.14804">
        <ele>187</ele>
        <time>2023-01-30T15:41:46.000Z</time>
      </trkpt>
      <trkpt lat="48.79529" lon="5.14802">
        <ele>187</ele>
        <time>2023-01-30T15:41:47.000Z</time>
      </trkpt>
      <trkpt lat="48.79528" lon="5.14801">
        <ele>187</ele>
        <time>2023-01-30T15:41:48.000Z</time>
      </trkpt>
      <trkpt lat="48.79527" lon="5.148">
        <ele>187</ele>
        <time>2023-01-30T15:41:49.000Z</time>
      </trkpt>
      <trkpt lat="48.79526" lon="5.14799">
        <ele>187</ele>
        <time>2023-01-30T15:41:50.000Z</time>
      </trkpt>
      <trkpt lat="48.79525" lon="5.14797">
        <ele>187</ele>
        <time>2023-01-30T15:41:51.000Z</time>
      </trkpt>
      <trkpt lat="48.79523" lon="5.14796">
        <ele>187</ele>
        <time>2023-01-30T15:41:52.000Z</time>
      </trkpt>
      <trkpt lat="48.79522" lon="5.14794">
        <ele>187</ele>
        <time>2023-01-30T15:41:53.000Z</time>
      </trkpt>
      <trkpt lat="48.79521" lon="5.14793">
        <ele>187</ele>
        <time>2023-01-30T15:41:54.000Z</time>
      </trkpt>
      <trkpt lat="48.79521" lon="5.14792">
        <ele>187</ele>
        <time>2023-01-30T15:41:55.000Z</time>
      </trkpt>
      <trkpt lat="48.7952" lon="5.14791">
        <ele>187</ele>
        <time>2023-01-30T15:41:56.000Z</time>
      </trkpt>
      <trkpt lat="48.79519" lon="5.1479">
        <ele>187</ele>
        <time>2023-01-30T15:41:57.000Z</time>
      </trkpt>
      <trkpt lat="48.79518" lon="5.14789">
        <ele>187</ele>
        <time>2023-01-30T15:41:58.000Z</time>
      </trkpt>
      <trkpt lat="48.79518" lon="5.14788">
        <ele>187</ele>
        <time>2023-01-30T15:41:59.000Z</time>
      </trkpt>
      <trkpt lat="48.79517" lon="5.14786">
        <ele>187</ele>
        <time>2023-01-30T15:42:00.000Z</time>
      </trkpt>
      <trkpt lat="48.79516" lon="5.14784">
        <ele>187</ele>
        <time>2023-01-30T15:42:01.000Z</time>
      </trkpt>
      <trkpt lat="48.79515" lon="5.14782">
        <ele>187</ele>
        <time>2023-01-30T15:42:02.000Z</time>
      </trkpt>
      <trkpt lat="48.79514" lon="5.14779">
        <ele>187</ele>
        <time>2023-01-30T15:42:03.000Z</time>
      </trkpt>
      <trkpt lat="48.79512" lon="5.14777">
        <ele>187</ele>
        <time>2023-01-30T15:42:04.000Z</time>
      </trkpt>
      <trkpt lat="48.79511" lon="5.14774">
        <ele>187</ele>
        <time>2023-01-30T15:42:05.000Z</time>
      </trkpt>
      <trkpt lat="48.79509" lon="5.14773">
        <ele>186.5</ele>
        <time>2023-01-30T15:42:06.000Z</time>
      </trkpt>
      <trkpt lat="48.79508" lon="5.14771">
        <ele>186</ele>
        <time>2023-01-30T15:42:07.000Z</time>
      </trkpt>
      <trkpt lat="48.79507" lon="5.1477">
        <ele>186</ele>
        <time>2023-01-30T15:42:08.000Z</time>
      </trkpt>
      <trkpt lat="48.79506" lon="5.14768">
        <ele>186</ele>
        <time>2023-01-30T15:42:09.000Z</time>
      </trkpt>
      <trkpt lat="48.79505" lon="5.14767">
        <ele>187</ele>
        <time>2023-01-30T15:42:10.000Z</time>
      </trkpt>
      <trkpt lat="48.79504" lon="5.14766">
        <ele>186.7</ele>
        <time>2023-01-30T15:42:11.000Z</time>
      </trkpt>
      <trkpt lat="48.79503" lon="5.14765">
        <ele>186.3</ele>
        <time>2023-01-30T15:42:12.000Z</time>
      </trkpt>
      <trkpt lat="48.79503" lon="5.14764">
        <ele>186</ele>
        <time>2023-01-30T15:42:13.000Z</time>
      </trkpt>
      <trkpt lat="48.79502" lon="5.14763">
        <ele>186</ele>
        <time>2023-01-30T15:42:14.000Z</time>
      </trkpt>
      <trkpt lat="48.79501" lon="5.14762">
        <ele>186</ele>
        <time>2023-01-30T15:42:15.000Z</time>
      </trkpt>
      <trkpt lat="48.795" lon="5.14761">
        <ele>186</ele>
        <time>2023-01-30T15:42:16.000Z</time>
      </trkpt>
      <trkpt lat="48.79499" lon="5.14759">
        <ele>186</ele>
        <time>2023-01-30T15:42:17.000Z</time>
      </trkpt>
      <trkpt lat="48.79498" lon="5.14757">
        <ele>186</ele>
        <time>2023-01-30T15:42:18.000Z</time>
      </trkpt>
      <trkpt lat="48.79497" lon="5.14756">
        <ele>186</ele>
        <time>2023-01-30T15:42:19.000Z</time>
      </trkpt>
      <trkpt lat="48.79496" lon="5.14754">
        <ele>186</ele>
        <time>2023-01-30T15:42:20.000Z</time>
      </trkpt>
      <trkpt lat="48.79495" lon="5.14753">
        <ele>186</ele>
        <time>2023-01-30T15:42:21.000Z</time>
      </trkpt>
      <trkpt lat="48.79494" lon="5.14752">
        <ele>186</ele>
        <time>2023-01-30T15:42:22.000Z</time>
      </trkpt>
      <trkpt lat="48.79494" lon="5.14751">
        <ele>186</ele>
        <time>2023-01-30T15:42:23.000Z</time>
      </trkpt>
      <trkpt lat="48.79493" lon="5.1475">
        <ele>186</ele>
        <time>2023-01-30T15:42:24.000Z</time>
      </trkpt>
      <trkpt lat="48.79492" lon="5.14749">
        <ele>186</ele>
        <time>2023-01-30T15:42:25.000Z</time>
      </trkpt>
      <trkpt lat="48.79491" lon="5.14748">
        <ele>186</ele>
        <time>2023-01-30T15:42:26.000Z</time>
      </trkpt>
      <trkpt lat="48.7949" lon="5.14746">
        <ele>186</ele>
        <time>2023-01-30T15:42:27.000Z</time>
      </trkpt>
      <trkpt lat="48.79489" lon="5.14745">
        <ele>186</ele>
        <time>2023-01-30T15:42:28.000Z</time>
      </trkpt>
      <trkpt lat="48.79488" lon="5.14744">
        <ele>186</ele>
        <time>2023-01-30T15:42:29.000Z</time>
      </trkpt>
      <trkpt lat="48.79487" lon="5.14742">
        <ele>186</ele>
        <time>2023-01-30T15:42:30.000Z</time>
      </trkpt>
      <trkpt lat="48.79487" lon="5.14741">
        <ele>186</ele>
        <time>2023-01-30T15:42:31.000Z</time>
      </trkpt>
      <trkpt lat="48.79486" lon="5.1474">
        <ele>186</ele>
        <time>2023-01-30T15:42:32.000Z</time>
      </trkpt>
      <trkpt lat="48.79484" lon="5.14739">
        <ele>186</ele>
        <time>2023-01-30T15:42:33.000Z</time>
      </trkpt>
      <trkpt lat="48.79483" lon="5.14737">
        <ele>186</ele>
        <time>2023-01-30T15:42:34.000Z</time>
      </trkpt>
      <trkpt lat="48.79482" lon="5.14736">
        <ele>186</ele>
        <time>2023-01-30T15:42:35.000Z</time>
      </trkpt>
      <trkpt lat="48.7948" lon="5.14734">
        <ele>186</ele>
        <time>2023-01-30T15:42:36.000Z</time>
      </trkpt>
      <trkpt lat="48.79479" lon="5.14732">
        <ele>186</ele>
        <time>2023-01-30T15:42:37.000Z</time>
      </trkpt>
      <trkpt lat="48.79478" lon="5.1473">
        <ele>186</ele>
        <time>2023-01-30T15:42:38.000Z</time>
      </trkpt>
      <trkpt lat="48.79477" lon="5.14728">
        <ele>186</ele>
        <time>2023-01-30T15:42:39.000Z</time>
      </trkpt>
      <trkpt lat="48.79476" lon="5.14727">
        <ele>186</ele>
        <time>2023-01-30T15:42:40.000Z</time>
      </trkpt>
      <trkpt lat="48.79475" lon="5.14725">
        <ele>186</ele>
        <time>2023-01-30T15:42:41.000Z</time>
      </trkpt>
      <trkpt lat="48.79474" lon="5.14724">
        <ele>186</ele>
        <time>2023-01-30T15:42:42.000Z</time>
      </trkpt>
      <trkpt lat="48.79473" lon="5.14723">
        <ele>186</ele>
        <time>2023-01-30T15:42:43.000Z</time>
      </trkpt>
      <trkpt lat="48.79472" lon="5.14721">
        <ele>186</ele>
        <time>2023-01-30T15:42:44.000Z</time>
      </trkpt>
      <trkpt lat="48.79471" lon="5.1472">
        <ele>186</ele>
        <time>2023-01-30T15:42:45.000Z</time>
      </trkpt>
      <trkpt lat="48.79469" lon="5.14719">
        <ele>186</ele>
        <time>2023-01-30T15:42:46.000Z</time>
      </trkpt>
      <trkpt lat="48.79468" lon="5.14717">
        <ele>186</ele>
        <time>2023-01-30T15:42:47.000Z</time>
      </trkpt>
      <trkpt lat="48.79467" lon="5.14716">
        <ele>186</ele>
        <time>2023-01-30T15:42:48.000Z</time>
      </trkpt>
      <trkpt lat="48.79465" lon="5.14714">
        <ele>186</ele>
        <time>2023-01-30T15:42:49.000Z</time>
      </trkpt>
      <trkpt lat="48.79464" lon="5.14712">
        <ele>186</ele>
        <time>2023-01-30T15:42:50.000Z</time>
      </trkpt>
      <trkpt lat="48.79462" lon="5.14711">
        <ele>186</ele>
        <time>2023-01-30T15:42:51.000Z</time>
      </trkpt>
      <trkpt lat="48.7946" lon="5.14709">
        <ele>186</ele>
        <time>2023-01-30T15:42:52.000Z</time>
      </trkpt>
      <trkpt lat="48.79458" lon="5.14708">
        <ele>186</ele>
        <time>2023-01-30T15:42:53.000Z</time>
      </trkpt>
      <trkpt lat="48.79457" lon="5.14706">
        <ele>186</ele>
        <time>2023-01-30T15:42:54.000Z</time>
      </trkpt>
      <trkpt lat="48.79455" lon="5.14705">
        <ele>186</ele>
        <time>2023-01-30T15:42:55.000Z</time>
      </trkpt>
      <trkpt lat="48.79453" lon="5.14703">
        <ele>186</ele>
        <time>2023-01-30T15:42:56.000Z</time>
      </trkpt>
      <trkpt lat="48.79452" lon="5.14702">
        <ele>186</ele>
        <time>2023-01-30T15:42:57.000Z</time>
      </trkpt>
      <trkpt lat="48.7945" lon="5.14701">
        <ele>186</ele>
        <time>2023-01-30T15:42:58.000Z</time>
      </trkpt>
      <trkpt lat="48.79449" lon="5.14701">
        <ele>186</ele>
        <time>2023-01-30T15:42:59.000Z</time>
      </trkpt>
      <trkpt lat="48.79448" lon="5.147">
        <ele>186</ele>
        <time>2023-01-30T15:43:00.000Z</time>
      </trkpt>
      <trkpt lat="48.79447" lon="5.147">
        <ele>186</ele>
        <time>2023-01-30T15:43:01.000Z</time>
      </trkpt>
      <trkpt lat="48.79446" lon="5.147">
        <ele>186</ele>
        <time>2023-01-30T15:43:02.000Z</time>
      </trkpt>
      <trkpt lat="48.79446" lon="5.147">
        <ele>186</ele>
        <time>2023-01-30T15:43:03.000Z</time>
      </trkpt>
      <trkpt lat="48.79445" lon="5.147">
        <ele>186</ele>
        <time>2023-01-30T15:43:04.000Z</time>
      </trkpt>
      <trkpt lat="48.79445" lon="5.147">
        <ele>186</ele>
        <time>2023-01-30T15:43:05.000Z</time>
      </trkpt>
      <trkpt lat="48.79445" lon="5.147">
        <ele>186</ele>
        <time>2023-01-30T15:43:06.000Z</time>
      </trkpt>
      <trkpt lat="48.79444" lon="5.147">
        <ele>186</ele>
        <time>2023-01-30T15:43:07.000Z</time>
      </trkpt>
      <trkpt lat="48.79444" lon="5.147">
        <ele>186</ele>
        <time>2023-01-30T15:43:08.000Z</time>
      </trkpt>
      <trkpt lat="48.79444" lon="5.147">
        <ele>186</ele>
        <time>2023-01-30T15:43:09.000Z</time>
      </trkpt>
      <trkpt lat="48.79443" lon="5.147">
        <ele>186</ele>
        <time>2023-01-30T15:43:10.000Z</time>
      </trkpt>
      <trkpt lat="48.79443" lon="5.147">
        <ele>186</ele>
        <time>2023-01-30T15:43:11.000Z</time>
      </trkpt>
      <trkpt lat="48.79442" lon="5.147">
        <ele>186</ele>
        <time>2023-01-30T15:43:12.000Z</time>
      </trkpt>
      <trkpt lat="48.79442" lon="5.147">
        <ele>186</ele>
        <time>2023-01-30T15:43:13.000Z</time>
      </trkpt>
      <trkpt lat="48.79442" lon="5.147">
        <ele>186.5</ele>
        <time>2023-01-30T15:43:14.000Z</time>
      </trkpt>
      <trkpt lat="48.79441" lon="5.147">
        <ele>187</ele>
        <time>2023-01-30T15:43:15.000Z</time>
      </trkpt>
      <trkpt lat="48.79441" lon="5.147">
        <ele>187</ele>
        <time>2023-01-30T15:43:16.000Z</time>
      </trkpt>
      <trkpt lat="48.7944" lon="5.147">
        <ele>187</ele>
        <time>2023-01-30T15:43:17.000Z</time>
      </trkpt>
      <trkpt lat="48.79439" lon="5.147">
        <ele>187</ele>
        <time>2023-01-30T15:43:18.000Z</time>
      </trkpt>
      <trkpt lat="48.79439" lon="5.14701">
        <ele>187</ele>
        <time>2023-01-30T15:43:19.000Z</time>
      </trkpt>
      <trkpt lat="48.79438" lon="5.14701">
        <ele>187.5</ele>
        <time>2023-01-30T15:43:20.000Z</time>
      </trkpt>
      <trkpt lat="48.79437" lon="5.14701">
        <ele>188</ele>
        <time>2023-01-30T15:43:21.000Z</time>
      </trkpt>
      <trkpt lat="48.79437" lon="5.14701">
        <ele>188</ele>
        <time>2023-01-30T15:43:22.000Z</time>
      </trkpt>
      <trkpt lat="48.79436" lon="5.14701">
        <ele>188.3</ele>
        <time>2023-01-30T15:43:23.000Z</time>
      </trkpt>
      <trkpt lat="48.79435" lon="5.14701">
        <ele>188.7</ele>
        <time>2023-01-30T15:43:24.000Z</time>
      </trkpt>
      <trkpt lat="48.79435" lon="5.14701">
        <ele>189</ele>
        <time>2023-01-30T15:43:25.000Z</time>
      </trkpt>
      <trkpt lat="48.79434" lon="5.14701">
        <ele>189</ele>
        <time>2023-01-30T15:43:26.000Z</time>
      </trkpt>
      <trkpt lat="48.79433" lon="5.14701">
        <ele>189</ele>
        <time>2023-01-30T15:43:27.000Z</time>
      </trkpt>
      <trkpt lat="48.79433" lon="5.14701">
        <ele>189.5</ele>
        <time>2023-01-30T15:43:28.000Z</time>
      </trkpt>
      <trkpt lat="48.79433" lon="5.14701">
        <ele>190</ele>
        <time>2023-01-30T15:43:29.000Z</time>
      </trkpt>
      <trkpt lat="48.79432" lon="5.14701">
        <ele>190</ele>
        <time>2023-01-30T15:43:30.000Z</time>
      </trkpt>
      <trkpt lat="48.79432" lon="5.14701">
        <ele>190.3</ele>
        <time>2023-01-30T15:43:31.000Z</time>
      </trkpt>
      <trkpt lat="48.79432" lon="5.14701">
        <ele>190.7</ele>
        <time>2023-01-30T15:43:32.000Z</time>
      </trkpt>
      <trkpt lat="48.79432" lon="5.147">
        <ele>191</ele>
        <time>2023-01-30T15:43:33.000Z</time>
      </trkpt>
      <trkpt lat="48.7943" lon="5.147">
        <ele>191</ele>
        <time>2023-01-30T15:43:34.000Z</time>
      </trkpt>
      <trkpt lat="48.79429" lon="5.14699">
        <ele>191.3</ele>
        <time>2023-01-30T15:43:35.000Z</time>
      </trkpt>
      <trkpt lat="48.79427" lon="5.14699">
        <ele>191.7</ele>
        <time>2023-01-30T15:43:36.000Z</time>
      </trkpt>
      <trkpt lat="48.79426" lon="5.14698">
        <ele>192</ele>
        <time>2023-01-30T15:43:37.000Z</time>
      </trkpt>
      <trkpt lat="48.79425" lon="5.14698">
        <ele>192</ele>
        <time>2023-01-30T15:43:38.000Z</time>
      </trkpt>
      <trkpt lat="48.79425" lon="5.14698">
        <ele>192</ele>
        <time>2023-01-30T15:43:39.000Z</time>
      </trkpt>
      <trkpt lat="48.79424" lon="5.14697">
        <ele>192</ele>
        <time>2023-01-30T15:43:40.000Z</time>
      </trkpt>
      <trkpt lat="48.79423" lon="5.14697">
        <ele>192</ele>
        <time>2023-01-30T15:43:41.000Z</time>
      </trkpt>
      <trkpt lat="48.79422" lon="5.14696">
        <ele>192.5</ele>
        <time>2023-01-30T15:43:42.000Z</time>
      </trkpt>
      <trkpt lat="48.7942" lon="5.14696">
        <ele>193</ele>
        <time>2023-01-30T15:43:43.000Z</time>
      </trkpt>
      <trkpt lat="48.79419" lon="5.14695">
        <ele>193</ele>
        <time>2023-01-30T15:43:44.000Z</time>
      </trkpt>
      <trkpt lat="48.79418" lon="5.14695">
        <ele>193</ele>
        <time>2023-01-30T15:43:45.000Z</time>
      </trkpt>
      <trkpt lat="48.79417" lon="5.14694">
        <ele>194</ele>
        <time>2023-01-30T15:43:46.000Z</time>
      </trkpt>
      <trkpt lat="48.79416" lon="5.14694">
        <ele>194</ele>
        <time>2023-01-30T15:43:47.000Z</time>
      </trkpt>
      <trkpt lat="48.79415" lon="5.14694">
        <ele>194</ele>
        <time>2023-01-30T15:43:48.000Z</time>
      </trkpt>
      <trkpt lat="48.79415" lon="5.14694">
        <ele>194</ele>
        <time>2023-01-30T15:43:49.000Z</time>
      </trkpt>
      <trkpt lat="48.79414" lon="5.14694">
        <ele>194</ele>
        <time>2023-01-30T15:43:50.000Z</time>
      </trkpt>
      <trkpt lat="48.79412" lon="5.14694">
        <ele>194</ele>
        <time>2023-01-30T15:43:51.000Z</time>
      </trkpt>
      <trkpt lat="48.79411" lon="5.14694">
        <ele>194.5</ele>
        <time>2023-01-30T15:43:52.000Z</time>
      </trkpt>
      <trkpt lat="48.7941" lon="5.14694">
        <ele>195</ele>
        <time>2023-01-30T15:43:53.000Z</time>
      </trkpt>
      <trkpt lat="48.79409" lon="5.14694">
        <ele>195</ele>
        <time>2023-01-30T15:43:54.000Z</time>
      </trkpt>
      <trkpt lat="48.79408" lon="5.14694">
        <ele>195</ele>
        <time>2023-01-30T15:43:55.000Z</time>
      </trkpt>
      <trkpt lat="48.79406" lon="5.14693">
        <ele>195.5</ele>
        <time>2023-01-30T15:43:56.000Z</time>
      </trkpt>
      <trkpt lat="48.79405" lon="5.14693">
        <ele>196</ele>
        <time>2023-01-30T15:43:57.000Z</time>
      </trkpt>
      <trkpt lat="48.79404" lon="5.14693">
        <ele>196</ele>
        <time>2023-01-30T15:43:58.000Z</time>
      </trkpt>
      <trkpt lat="48.79403" lon="5.14693">
        <ele>196</ele>
        <time>2023-01-30T15:43:59.000Z</time>
      </trkpt>
      <trkpt lat="48.79401" lon="5.14693">
        <ele>196</ele>
        <time>2023-01-30T15:44:00.000Z</time>
      </trkpt>
      <trkpt lat="48.794" lon="5.14693">
        <ele>196</ele>
        <time>2023-01-30T15:44:01.000Z</time>
      </trkpt>
      <trkpt lat="48.79399" lon="5.14693">
        <ele>196.5</ele>
        <time>2023-01-30T15:44:02.000Z</time>
      </trkpt>
      <trkpt lat="48.79398" lon="5.14692">
        <ele>197</ele>
        <time>2023-01-30T15:44:03.000Z</time>
      </trkpt>
      <trkpt lat="48.79397" lon="5.14692">
        <ele>197</ele>
        <time>2023-01-30T15:44:04.000Z</time>
      </trkpt>
      <trkpt lat="48.79396" lon="5.14692">
        <ele>197</ele>
        <time>2023-01-30T15:44:05.000Z</time>
      </trkpt>
      <trkpt lat="48.79395" lon="5.14692">
        <ele>197</ele>
        <time>2023-01-30T15:44:06.000Z</time>
      </trkpt>
      <trkpt lat="48.79394" lon="5.14692">
        <ele>197</ele>
        <time>2023-01-30T15:44:07.000Z</time>
      </trkpt>
      <trkpt lat="48.79393" lon="5.14692">
        <ele>197</ele>
        <time>2023-01-30T15:44:08.000Z</time>
      </trkpt>
      <trkpt lat="48.79392" lon="5.14692">
        <ele>197</ele>
        <time>2023-01-30T15:44:09.000Z</time>
      </trkpt>
      <trkpt lat="48.79391" lon="5.14693">
        <ele>197</ele>
        <time>2023-01-30T15:44:10.000Z</time>
      </trkpt>
      <trkpt lat="48.7939" lon="5.14693">
        <ele>197</ele>
        <time>2023-01-30T15:44:11.000Z</time>
      </trkpt>
      <trkpt lat="48.79389" lon="5.14693">
        <ele>197</ele>
        <time>2023-01-30T15:44:12.000Z</time>
      </trkpt>
      <trkpt lat="48.79388" lon="5.14694">
        <ele>197</ele>
        <time>2023-01-30T15:44:13.000Z</time>
      </trkpt>
      <trkpt lat="48.79387" lon="5.14694">
        <ele>197.5</ele>
        <time>2023-01-30T15:44:14.000Z</time>
      </trkpt>
      <trkpt lat="48.79386" lon="5.14694">
        <ele>198</ele>
        <time>2023-01-30T15:44:15.000Z</time>
      </trkpt>
      <trkpt lat="48.79385" lon="5.14695">
        <ele>198</ele>
        <time>2023-01-30T15:44:16.000Z</time>
      </trkpt>
      <trkpt lat="48.79384" lon="5.14695">
        <ele>198</ele>
        <time>2023-01-30T15:44:17.000Z</time>
      </trkpt>
      <trkpt lat="48.79383" lon="5.14696">
        <ele>198</ele>
        <time>2023-01-30T15:44:18.000Z</time>
      </trkpt>
      <trkpt lat="48.79383" lon="5.14696">
        <ele>198</ele>
        <time>2023-01-30T15:44:19.000Z</time>
      </trkpt>
      <trkpt lat="48.79383" lon="5.14698">
        <ele>198</ele>
        <time>2023-01-30T15:44:20.000Z</time>
      </trkpt>
      <trkpt lat="48.79382" lon="5.14699">
        <ele>198.3</ele>
        <time>2023-01-30T15:44:21.000Z</time>
      </trkpt>
      <trkpt lat="48.79382" lon="5.147">
        <ele>198.7</ele>
        <time>2023-01-30T15:44:22.000Z</time>
      </trkpt>
      <trkpt lat="48.79382" lon="5.14702">
        <ele>199</ele>
        <time>2023-01-30T15:44:23.000Z</time>
      </trkpt>
      <trkpt lat="48.79383" lon="5.14704">
        <ele>199</ele>
        <time>2023-01-30T15:44:24.000Z</time>
      </trkpt>
      <trkpt lat="48.79383" lon="5.14705">
        <ele>199</ele>
        <time>2023-01-30T15:44:25.000Z</time>
      </trkpt>
      <trkpt lat="48.79383" lon="5.14707">
        <ele>199</ele>
        <time>2023-01-30T15:44:26.000Z</time>
      </trkpt>
      <trkpt lat="48.79384" lon="5.14709">
        <ele>199</ele>
        <time>2023-01-30T15:44:27.000Z</time>
      </trkpt>
      <trkpt lat="48.79385" lon="5.1471">
        <ele>199</ele>
        <time>2023-01-30T15:44:28.000Z</time>
      </trkpt>
      <trkpt lat="48.79385" lon="5.14711">
        <ele>199</ele>
        <time>2023-01-30T15:44:29.000Z</time>
      </trkpt>
      <trkpt lat="48.79385" lon="5.14713">
        <ele>199.5</ele>
        <time>2023-01-30T15:44:30.000Z</time>
      </trkpt>
      <trkpt lat="48.79386" lon="5.14714">
        <ele>200</ele>
        <time>2023-01-30T15:44:31.000Z</time>
      </trkpt>
      <trkpt lat="48.79386" lon="5.14715">
        <ele>200</ele>
        <time>2023-01-30T15:44:32.000Z</time>
      </trkpt>
      <trkpt lat="48.79387" lon="5.14716">
        <ele>200</ele>
        <time>2023-01-30T15:44:33.000Z</time>
      </trkpt>
      <trkpt lat="48.79387" lon="5.14718">
        <ele>200</ele>
        <time>2023-01-30T15:44:34.000Z</time>
      </trkpt>
      <trkpt lat="48.79387" lon="5.14719">
        <ele>200</ele>
        <time>2023-01-30T15:44:35.000Z</time>
      </trkpt>
      <trkpt lat="48.79387" lon="5.14721">
        <ele>200</ele>
        <time>2023-01-30T15:44:36.000Z</time>
      </trkpt>
      <trkpt lat="48.79387" lon="5.14722">
        <ele>200</ele>
        <time>2023-01-30T15:44:37.000Z</time>
      </trkpt>
      <trkpt lat="48.79388" lon="5.14724">
        <ele>200</ele>
        <time>2023-01-30T15:44:38.000Z</time>
      </trkpt>
      <trkpt lat="48.79388" lon="5.14725">
        <ele>200</ele>
        <time>2023-01-30T15:44:39.000Z</time>
      </trkpt>
      <trkpt lat="48.79388" lon="5.14727">
        <ele>200</ele>
        <time>2023-01-30T15:44:40.000Z</time>
      </trkpt>
      <trkpt lat="48.79389" lon="5.14728">
        <ele>200</ele>
        <time>2023-01-30T15:44:41.000Z</time>
      </trkpt>
      <trkpt lat="48.7939" lon="5.1473">
        <ele>200.5</ele>
        <time>2023-01-30T15:44:42.000Z</time>
      </trkpt>
      <trkpt lat="48.7939" lon="5.14731">
        <ele>201</ele>
        <time>2023-01-30T15:44:43.000Z</time>
      </trkpt>
      <trkpt lat="48.79391" lon="5.14733">
        <ele>201</ele>
        <time>2023-01-30T15:44:44.000Z</time>
      </trkpt>
      <trkpt lat="48.79392" lon="5.14735">
        <ele>201</ele>
        <time>2023-01-30T15:44:45.000Z</time>
      </trkpt>
      <trkpt lat="48.79393" lon="5.14738">
        <ele>201</ele>
        <time>2023-01-30T15:44:46.000Z</time>
      </trkpt>
      <trkpt lat="48.79393" lon="5.14741">
        <ele>201</ele>
        <time>2023-01-30T15:44:47.000Z</time>
      </trkpt>
      <trkpt lat="48.79393" lon="5.14744">
        <ele>201</ele>
        <time>2023-01-30T15:44:48.000Z</time>
      </trkpt>
      <trkpt lat="48.79393" lon="5.14747">
        <ele>201</ele>
        <time>2023-01-30T15:44:49.000Z</time>
      </trkpt>
      <trkpt lat="48.79393" lon="5.14749">
        <ele>201</ele>
        <time>2023-01-30T15:44:50.000Z</time>
      </trkpt>
      <trkpt lat="48.79393" lon="5.14751">
        <ele>201</ele>
        <time>2023-01-30T15:44:51.000Z</time>
      </trkpt>
      <trkpt lat="48.79394" lon="5.14753">
        <ele>201</ele>
        <time>2023-01-30T15:44:52.000Z</time>
      </trkpt>
      <trkpt lat="48.79394" lon="5.14755">
        <ele>201</ele>
        <time>2023-01-30T15:44:53.000Z</time>
      </trkpt>
      <trkpt lat="48.79394" lon="5.14757">
        <ele>202</ele>
        <time>2023-01-30T15:44:54.000Z</time>
      </trkpt>
      <trkpt lat="48.79395" lon="5.14759">
        <ele>202</ele>
        <time>2023-01-30T15:44:55.000Z</time>
      </trkpt>
      <trkpt lat="48.79396" lon="5.1476">
        <ele>202</ele>
        <time>2023-01-30T15:44:56.000Z</time>
      </trkpt>
      <trkpt lat="48.79396" lon="5.14761">
        <ele>202</ele>
        <time>2023-01-30T15:44:57.000Z</time>
      </trkpt>
      <trkpt lat="48.79396" lon="5.14762">
        <ele>202</ele>
        <time>2023-01-30T15:44:58.000Z</time>
      </trkpt>
      <trkpt lat="48.79397" lon="5.14763">
        <ele>202</ele>
        <time>2023-01-30T15:44:59.000Z</time>
      </trkpt>
      <trkpt lat="48.79397" lon="5.14764">
        <ele>202</ele>
        <time>2023-01-30T15:45:00.000Z</time>
      </trkpt>
      <trkpt lat="48.79398" lon="5.14765">
        <ele>202</ele>
        <time>2023-01-30T15:45:01.000Z</time>
      </trkpt>
      <trkpt lat="48.79399" lon="5.14766">
        <ele>202</ele>
        <time>2023-01-30T15:45:02.000Z</time>
      </trkpt>
      <trkpt lat="48.79399" lon="5.14767">
        <ele>202</ele>
        <time>2023-01-30T15:45:03.000Z</time>
      </trkpt>
      <trkpt lat="48.794" lon="5.14768">
        <ele>202</ele>
        <time>2023-01-30T15:45:04.000Z</time>
      </trkpt>
      <trkpt lat="48.794" lon="5.14769">
        <ele>202</ele>
        <time>2023-01-30T15:45:05.000Z</time>
      </trkpt>
      <trkpt lat="48.79401" lon="5.1477">
        <ele>202</ele>
        <time>2023-01-30T15:45:06.000Z</time>
      </trkpt>
      <trkpt lat="48.79401" lon="5.14771">
        <ele>202</ele>
        <time>2023-01-30T15:45:07.000Z</time>
      </trkpt>
      <trkpt lat="48.79402" lon="5.14772">
        <ele>202</ele>
        <time>2023-01-30T15:45:08.000Z</time>
      </trkpt>
      <trkpt lat="48.79402" lon="5.14774">
        <ele>202</ele>
        <time>2023-01-30T15:45:09.000Z</time>
      </trkpt>
      <trkpt lat="48.79402" lon="5.14775">
        <ele>202</ele>
        <time>2023-01-30T15:45:10.000Z</time>
      </trkpt>
      <trkpt lat="48.79403" lon="5.14777">
        <ele>202</ele>
        <time>2023-01-30T15:45:11.000Z</time>
      </trkpt>
      <trkpt lat="48.79403" lon="5.14778">
        <ele>202</ele>
        <time>2023-01-30T15:45:12.000Z</time>
      </trkpt>
      <trkpt lat="48.79403" lon="5.1478">
        <ele>202</ele>
        <time>2023-01-30T15:45:13.000Z</time>
      </trkpt>
      <trkpt lat="48.79404" lon="5.14782">
        <ele>202</ele>
        <time>2023-01-30T15:45:14.000Z</time>
      </trkpt>
      <trkpt lat="48.79404" lon="5.14784">
        <ele>202</ele>
        <time>2023-01-30T15:45:15.000Z</time>
      </trkpt>
      <trkpt lat="48.79405" lon="5.14787">
        <ele>202.5</ele>
        <time>2023-01-30T15:45:16.000Z</time>
      </trkpt>
      <trkpt lat="48.79405" lon="5.14789">
        <ele>203</ele>
        <time>2023-01-30T15:45:17.000Z</time>
      </trkpt>
      <trkpt lat="48.79406" lon="5.14791">
        <ele>203</ele>
        <time>2023-01-30T15:45:18.000Z</time>
      </trkpt>
      <trkpt lat="48.79407" lon="5.14794">
        <ele>203</ele>
        <time>2023-01-30T15:45:19.000Z</time>
      </trkpt>
      <trkpt lat="48.79407" lon="5.14796">
        <ele>203</ele>
        <time>2023-01-30T15:45:20.000Z</time>
      </trkpt>
      <trkpt lat="48.79408" lon="5.14797">
        <ele>203</ele>
        <time>2023-01-30T15:45:21.000Z</time>
      </trkpt>
      <trkpt lat="48.79408" lon="5.14798">
        <ele>203</ele>
        <time>2023-01-30T15:45:22.000Z</time>
      </trkpt>
      <trkpt lat="48.79408" lon="5.148">
        <ele>203</ele>
        <time>2023-01-30T15:45:23.000Z</time>
      </trkpt>
      <trkpt lat="48.79409" lon="5.14801">
        <ele>203</ele>
        <time>2023-01-30T15:45:24.000Z</time>
      </trkpt>
      <trkpt lat="48.79409" lon="5.14802">
        <ele>203</ele>
        <time>2023-01-30T15:45:25.000Z</time>
      </trkpt>
      <trkpt lat="48.79409" lon="5.14803">
        <ele>203.5</ele>
        <time>2023-01-30T15:45:26.000Z</time>
      </trkpt>
      <trkpt lat="48.79409" lon="5.14804">
        <ele>204</ele>
        <time>2023-01-30T15:45:27.000Z</time>
      </trkpt>
      <trkpt lat="48.79409" lon="5.14805">
        <ele>204</ele>
        <time>2023-01-30T15:45:28.000Z</time>
      </trkpt>
      <trkpt lat="48.79408" lon="5.14807">
        <ele>204</ele>
        <time>2023-01-30T15:45:29.000Z</time>
      </trkpt>
      <trkpt lat="48.79408" lon="5.14809">
        <ele>204</ele>
        <time>2023-01-30T15:45:30.000Z</time>
      </trkpt>
      <trkpt lat="48.79407" lon="5.1481">
        <ele>204</ele>
        <time>2023-01-30T15:45:31.000Z</time>
      </trkpt>
      <trkpt lat="48.79407" lon="5.14812">
        <ele>204.5</ele>
        <time>2023-01-30T15:45:32.000Z</time>
      </trkpt>
      <trkpt lat="48.79406" lon="5.14814">
        <ele>205</ele>
        <time>2023-01-30T15:45:33.000Z</time>
      </trkpt>
      <trkpt lat="48.79404" lon="5.14816">
        <ele>205</ele>
        <time>2023-01-30T15:45:34.000Z</time>
      </trkpt>
      <trkpt lat="48.79403" lon="5.14818">
        <ele>205</ele>
        <time>2023-01-30T15:45:35.000Z</time>
      </trkpt>
      <trkpt lat="48.79402" lon="5.14821">
        <ele>205</ele>
        <time>2023-01-30T15:45:36.000Z</time>
      </trkpt>
      <trkpt lat="48.794" lon="5.14823">
        <ele>205</ele>
        <time>2023-01-30T15:45:37.000Z</time>
      </trkpt>
      <trkpt lat="48.79399" lon="5.14825">
        <ele>205</ele>
        <time>2023-01-30T15:45:38.000Z</time>
      </trkpt>
      <trkpt lat="48.79398" lon="5.14827">
        <ele>205</ele>
        <time>2023-01-30T15:45:39.000Z</time>
      </trkpt>
      <trkpt lat="48.79398" lon="5.14829">
        <ele>205</ele>
        <time>2023-01-30T15:45:40.000Z</time>
      </trkpt>
      <trkpt lat="48.79397" lon="5.14832">
        <ele>205</ele>
        <time>2023-01-30T15:45:41.000Z</time>
      </trkpt>
      <trkpt lat="48.79397" lon="5.14834">
        <ele>205</ele>
        <time>2023-01-30T15:45:42.000Z</time>
      </trkpt>
      <trkpt lat="48.79396" lon="5.14837">
        <ele>205</ele>
        <time>2023-01-30T15:45:43.000Z</time>
      </trkpt>
      <trkpt lat="48.79396" lon="5.14839">
        <ele>205</ele>
        <time>2023-01-30T15:45:44.000Z</time>
      </trkpt>
      <trkpt lat="48.79396" lon="5.14842">
        <ele>205</ele>
        <time>2023-01-30T15:45:45.000Z</time>
      </trkpt>
      <trkpt lat="48.79395" lon="5.14844">
        <ele>206</ele>
        <time>2023-01-30T15:45:46.000Z</time>
      </trkpt>
      <trkpt lat="48.79395" lon="5.14846">
        <ele>206</ele>
        <time>2023-01-30T15:45:47.000Z</time>
      </trkpt>
      <trkpt lat="48.79395" lon="5.14848">
        <ele>206</ele>
        <time>2023-01-30T15:45:48.000Z</time>
      </trkpt>
      <trkpt lat="48.79395" lon="5.1485">
        <ele>206</ele>
        <time>2023-01-30T15:45:49.000Z</time>
      </trkpt>
      <trkpt lat="48.79395" lon="5.14852">
        <ele>206</ele>
        <time>2023-01-30T15:45:50.000Z</time>
      </trkpt>
      <trkpt lat="48.79395" lon="5.14854">
        <ele>206</ele>
        <time>2023-01-30T15:45:51.000Z</time>
      </trkpt>
      <trkpt lat="48.79395" lon="5.14857">
        <ele>206</ele>
        <time>2023-01-30T15:45:52.000Z</time>
      </trkpt>
      <trkpt lat="48.79395" lon="5.1486">
        <ele>206</ele>
        <time>2023-01-30T15:45:53.000Z</time>
      </trkpt>
      <trkpt lat="48.79395" lon="5.14862">
        <ele>206</ele>
        <time>2023-01-30T15:45:54.000Z</time>
      </trkpt>
      <trkpt lat="48.79395" lon="5.14865">
        <ele>206</ele>
        <time>2023-01-30T15:45:55.000Z</time>
      </trkpt>
      <trkpt lat="48.79394" lon="5.14868">
        <ele>206</ele>
        <time>2023-01-30T15:45:56.000Z</time>
      </trkpt>
      <trkpt lat="48.79394" lon="5.14871">
        <ele>206</ele>
        <time>2023-01-30T15:45:57.000Z</time>
      </trkpt>
      <trkpt lat="48.79393" lon="5.14874">
        <ele>206</ele>
        <time>2023-01-30T15:45:58.000Z</time>
      </trkpt>
      <trkpt lat="48.79393" lon="5.14876">
        <ele>206</ele>
        <time>2023-01-30T15:45:59.000Z</time>
      </trkpt>
      <trkpt lat="48.79393" lon="5.14878">
        <ele>206</ele>
        <time>2023-01-30T15:46:00.000Z</time>
      </trkpt>
      <trkpt lat="48.79392" lon="5.1488">
        <ele>206</ele>
        <time>2023-01-30T15:46:01.000Z</time>
      </trkpt>
      <trkpt lat="48.79392" lon="5.14881">
        <ele>206</ele>
        <time>2023-01-30T15:46:02.000Z</time>
      </trkpt>
      <trkpt lat="48.79392" lon="5.14883">
        <ele>206</ele>
        <time>2023-01-30T15:46:03.000Z</time>
      </trkpt>
      <trkpt lat="48.79391" lon="5.14884">
        <ele>206</ele>
        <time>2023-01-30T15:46:04.000Z</time>
      </trkpt>
      <trkpt lat="48.79391" lon="5.14885">
        <ele>206</ele>
        <time>2023-01-30T15:46:05.000Z</time>
      </trkpt>
      <trkpt lat="48.7939" lon="5.14886">
        <ele>206</ele>
        <time>2023-01-30T15:46:06.000Z</time>
      </trkpt>
      <trkpt lat="48.79389" lon="5.14887">
        <ele>206</ele>
        <time>2023-01-30T15:46:07.000Z</time>
      </trkpt>
      <trkpt lat="48.79389" lon="5.14888">
        <ele>206.5</ele>
        <time>2023-01-30T15:46:08.000Z</time>
      </trkpt>
      <trkpt lat="48.79388" lon="5.14889">
        <ele>207</ele>
        <time>2023-01-30T15:46:09.000Z</time>
      </trkpt>
      <trkpt lat="48.79387" lon="5.14891">
        <ele>207</ele>
        <time>2023-01-30T15:46:10.000Z</time>
      </trkpt>
      <trkpt lat="48.79386" lon="5.14892">
        <ele>207</ele>
        <time>2023-01-30T15:46:11.000Z</time>
      </trkpt>
      <trkpt lat="48.79386" lon="5.14893">
        <ele>207</ele>
        <time>2023-01-30T15:46:12.000Z</time>
      </trkpt>
      <trkpt lat="48.79385" lon="5.14894">
        <ele>207</ele>
        <time>2023-01-30T15:46:13.000Z</time>
      </trkpt>
      <trkpt lat="48.79384" lon="5.14895">
        <ele>207</ele>
        <time>2023-01-30T15:46:14.000Z</time>
      </trkpt>
      <trkpt lat="48.79384" lon="5.14897">
        <ele>207</ele>
        <time>2023-01-30T15:46:15.000Z</time>
      </trkpt>
      <trkpt lat="48.79383" lon="5.14898">
        <ele>207</ele>
        <time>2023-01-30T15:46:16.000Z</time>
      </trkpt>
      <trkpt lat="48.79382" lon="5.14899">
        <ele>207</ele>
        <time>2023-01-30T15:46:17.000Z</time>
      </trkpt>
      <trkpt lat="48.79381" lon="5.149">
        <ele>207.5</ele>
        <time>2023-01-30T15:46:18.000Z</time>
      </trkpt>
      <trkpt lat="48.7938" lon="5.14902">
        <ele>208</ele>
        <time>2023-01-30T15:46:19.000Z</time>
      </trkpt>
      <trkpt lat="48.79378" lon="5.14903">
        <ele>208</ele>
        <time>2023-01-30T15:46:20.000Z</time>
      </trkpt>
      <trkpt lat="48.79377" lon="5.14905">
        <ele>208</ele>
        <time>2023-01-30T15:46:21.000Z</time>
      </trkpt>
      <trkpt lat="48.79376" lon="5.14906">
        <ele>208</ele>
        <time>2023-01-30T15:46:22.000Z</time>
      </trkpt>
      <trkpt lat="48.79375" lon="5.14907">
        <ele>208</ele>
        <time>2023-01-30T15:46:23.000Z</time>
      </trkpt>
      <trkpt lat="48.79374" lon="5.14907">
        <ele>208</ele>
        <time>2023-01-30T15:46:24.000Z</time>
      </trkpt>
      <trkpt lat="48.79373" lon="5.14908">
        <ele>208</ele>
        <time>2023-01-30T15:46:25.000Z</time>
      </trkpt>
      <trkpt lat="48.79373" lon="5.14908">
        <ele>208</ele>
        <time>2023-01-30T15:46:26.000Z</time>
      </trkpt>
      <trkpt lat="48.79372" lon="5.14909">
        <ele>208</ele>
        <time>2023-01-30T15:46:27.000Z</time>
      </trkpt>
      <trkpt lat="48.79371" lon="5.1491">
        <ele>208</ele>
        <time>2023-01-30T15:46:28.000Z</time>
      </trkpt>
      <trkpt lat="48.7937" lon="5.14911">
        <ele>208</ele>
        <time>2023-01-30T15:46:29.000Z</time>
      </trkpt>
      <trkpt lat="48.79369" lon="5.14913">
        <ele>208</ele>
        <time>2023-01-30T15:46:30.000Z</time>
      </trkpt>
      <trkpt lat="48.79369" lon="5.14914">
        <ele>208</ele>
        <time>2023-01-30T15:46:31.000Z</time>
      </trkpt>
      <trkpt lat="48.79368" lon="5.14915">
        <ele>208</ele>
        <time>2023-01-30T15:46:32.000Z</time>
      </trkpt>
      <trkpt lat="48.79368" lon="5.14916">
        <ele>208</ele>
        <time>2023-01-30T15:46:33.000Z</time>
      </trkpt>
      <trkpt lat="48.79367" lon="5.14918">
        <ele>208</ele>
        <time>2023-01-30T15:46:34.000Z</time>
      </trkpt>
      <trkpt lat="48.79366" lon="5.14919">
        <ele>208</ele>
        <time>2023-01-30T15:46:35.000Z</time>
      </trkpt>
      <trkpt lat="48.79365" lon="5.1492">
        <ele>208</ele>
        <time>2023-01-30T15:46:36.000Z</time>
      </trkpt>
      <trkpt lat="48.79364" lon="5.14921">
        <ele>208</ele>
        <time>2023-01-30T15:46:37.000Z</time>
      </trkpt>
      <trkpt lat="48.79362" lon="5.14922">
        <ele>208</ele>
        <time>2023-01-30T15:46:38.000Z</time>
      </trkpt>
      <trkpt lat="48.79361" lon="5.14923">
        <ele>208</ele>
        <time>2023-01-30T15:46:39.000Z</time>
      </trkpt>
      <trkpt lat="48.7936" lon="5.14924">
        <ele>208</ele>
        <time>2023-01-30T15:46:40.000Z</time>
      </trkpt>
      <trkpt lat="48.7936" lon="5.14925">
        <ele>208</ele>
        <time>2023-01-30T15:46:41.000Z</time>
      </trkpt>
      <trkpt lat="48.79359" lon="5.14926">
        <ele>208</ele>
        <time>2023-01-30T15:46:42.000Z</time>
      </trkpt>
      <trkpt lat="48.79358" lon="5.14928">
        <ele>208</ele>
        <time>2023-01-30T15:46:43.000Z</time>
      </trkpt>
      <trkpt lat="48.79357" lon="5.1493">
        <ele>208</ele>
        <time>2023-01-30T15:46:44.000Z</time>
      </trkpt>
      <trkpt lat="48.79356" lon="5.14932">
        <ele>208</ele>
        <time>2023-01-30T15:46:45.000Z</time>
      </trkpt>
      <trkpt lat="48.79356" lon="5.14934">
        <ele>208</ele>
        <time>2023-01-30T15:46:46.000Z</time>
      </trkpt>
      <trkpt lat="48.79355" lon="5.14936">
        <ele>208</ele>
        <time>2023-01-30T15:46:47.000Z</time>
      </trkpt>
      <trkpt lat="48.79355" lon="5.14937">
        <ele>208</ele>
        <time>2023-01-30T15:46:48.000Z</time>
      </trkpt>
      <trkpt lat="48.79355" lon="5.14939">
        <ele>208</ele>
        <time>2023-01-30T15:46:49.000Z</time>
      </trkpt>
      <trkpt lat="48.79354" lon="5.1494">
        <ele>208</ele>
        <time>2023-01-30T15:46:50.000Z</time>
      </trkpt>
      <trkpt lat="48.79353" lon="5.14942">
        <ele>208</ele>
        <time>2023-01-30T15:46:51.000Z</time>
      </trkpt>
      <trkpt lat="48.79353" lon="5.14944">
        <ele>208</ele>
        <time>2023-01-30T15:46:52.000Z</time>
      </trkpt>
      <trkpt lat="48.79352" lon="5.14945">
        <ele>208</ele>
        <time>2023-01-30T15:46:53.000Z</time>
      </trkpt>
      <trkpt lat="48.79351" lon="5.14946">
        <ele>208</ele>
        <time>2023-01-30T15:46:54.000Z</time>
      </trkpt>
      <trkpt lat="48.7935" lon="5.14947">
        <ele>208</ele>
        <time>2023-01-30T15:46:55.000Z</time>
      </trkpt>
      <trkpt lat="48.7935" lon="5.14948">
        <ele>208</ele>
        <time>2023-01-30T15:46:56.000Z</time>
      </trkpt>
      <trkpt lat="48.79349" lon="5.14949">
        <ele>208</ele>
        <time>2023-01-30T15:46:57.000Z</time>
      </trkpt>
      <trkpt lat="48.79348" lon="5.14951">
        <ele>208</ele>
        <time>2023-01-30T15:46:58.000Z</time>
      </trkpt>
      <trkpt lat="48.79347" lon="5.14952">
        <ele>208</ele>
        <time>2023-01-30T15:46:59.000Z</time>
      </trkpt>
      <trkpt lat="48.79347" lon="5.14954">
        <ele>208</ele>
        <time>2023-01-30T15:47:00.000Z</time>
      </trkpt>
      <trkpt lat="48.79346" lon="5.14956">
        <ele>208</ele>
        <time>2023-01-30T15:47:01.000Z</time>
      </trkpt>
      <trkpt lat="48.79345" lon="5.14958">
        <ele>208</ele>
        <time>2023-01-30T15:47:02.000Z</time>
      </trkpt>
      <trkpt lat="48.79344" lon="5.1496">
        <ele>208</ele>
        <time>2023-01-30T15:47:03.000Z</time>
      </trkpt>
      <trkpt lat="48.79343" lon="5.14962">
        <ele>208</ele>
        <time>2023-01-30T15:47:04.000Z</time>
      </trkpt>
      <trkpt lat="48.79341" lon="5.14964">
        <ele>208</ele>
        <time>2023-01-30T15:47:05.000Z</time>
      </trkpt>
      <trkpt lat="48.7934" lon="5.14966">
        <ele>208</ele>
        <time>2023-01-30T15:47:06.000Z</time>
      </trkpt>
      <trkpt lat="48.79339" lon="5.14968">
        <ele>208</ele>
        <time>2023-01-30T15:47:07.000Z</time>
      </trkpt>
      <trkpt lat="48.79338" lon="5.1497">
        <ele>208</ele>
        <time>2023-01-30T15:47:08.000Z</time>
      </trkpt>
      <trkpt lat="48.79337" lon="5.14972">
        <ele>208</ele>
        <time>2023-01-30T15:47:09.000Z</time>
      </trkpt>
      <trkpt lat="48.79336" lon="5.14976">
        <ele>208</ele>
        <time>2023-01-30T15:47:10.000Z</time>
      </trkpt>
      <trkpt lat="48.79334" lon="5.14979">
        <ele>208</ele>
        <time>2023-01-30T15:47:11.000Z</time>
      </trkpt>
      <trkpt lat="48.79333" lon="5.14982">
        <ele>208</ele>
        <time>2023-01-30T15:47:12.000Z</time>
      </trkpt>
      <trkpt lat="48.79332" lon="5.14984">
        <ele>208</ele>
        <time>2023-01-30T15:47:13.000Z</time>
      </trkpt>
      <trkpt lat="48.79331" lon="5.14987">
        <ele>207.5</ele>
        <time>2023-01-30T15:47:14.000Z</time>
      </trkpt>
      <trkpt lat="48.7933" lon="5.14989">
        <ele>207</ele>
        <time>2023-01-30T15:47:15.000Z</time>
      </trkpt>
      <trkpt lat="48.79329" lon="5.14991">
        <ele>207.5</ele>
        <time>2023-01-30T15:47:16.000Z</time>
      </trkpt>
      <trkpt lat="48.79329" lon="5.14993">
        <ele>208</ele>
        <time>2023-01-30T15:47:17.000Z</time>
      </trkpt>
      <trkpt lat="48.79328" lon="5.14996">
        <ele>208</ele>
        <time>2023-01-30T15:47:18.000Z</time>
      </trkpt>
      <trkpt lat="48.79327" lon="5.14998">
        <ele>208</ele>
        <time>2023-01-30T15:47:19.000Z</time>
      </trkpt>
      <trkpt lat="48.79327" lon="5.15">
        <ele>208</ele>
        <time>2023-01-30T15:47:20.000Z</time>
      </trkpt>
      <trkpt lat="48.79326" lon="5.15002">
        <ele>208</ele>
        <time>2023-01-30T15:47:21.000Z</time>
      </trkpt>
      <trkpt lat="48.79326" lon="5.15004">
        <ele>208</ele>
        <time>2023-01-30T15:47:22.000Z</time>
      </trkpt>
      <trkpt lat="48.79325" lon="5.15005">
        <ele>208</ele>
        <time>2023-01-30T15:47:23.000Z</time>
      </trkpt>
      <trkpt lat="48.79325" lon="5.15007">
        <ele>208</ele>
        <time>2023-01-30T15:47:24.000Z</time>
      </trkpt>
      <trkpt lat="48.79324" lon="5.15008">
        <ele>208</ele>
        <time>2023-01-30T15:47:25.000Z</time>
      </trkpt>
      <trkpt lat="48.79324" lon="5.1501">
        <ele>207.5</ele>
        <time>2023-01-30T15:47:26.000Z</time>
      </trkpt>
      <trkpt lat="48.79324" lon="5.15011">
        <ele>207</ele>
        <time>2023-01-30T15:47:27.000Z</time>
      </trkpt>
      <trkpt lat="48.79323" lon="5.15013">
        <ele>207.5</ele>
        <time>2023-01-30T15:47:28.000Z</time>
      </trkpt>
      <trkpt lat="48.79323" lon="5.15015">
        <ele>208</ele>
        <time>2023-01-30T15:47:29.000Z</time>
      </trkpt>
      <trkpt lat="48.79322" lon="5.15017">
        <ele>208</ele>
        <time>2023-01-30T15:47:30.000Z</time>
      </trkpt>
      <trkpt lat="48.79322" lon="5.15018">
        <ele>208</ele>
        <time>2023-01-30T15:47:31.000Z</time>
      </trkpt>
      <trkpt lat="48.79321" lon="5.15021">
        <ele>208</ele>
        <time>2023-01-30T15:47:32.000Z</time>
      </trkpt>
      <trkpt lat="48.79321" lon="5.15023">
        <ele>208</ele>
        <time>2023-01-30T15:47:33.000Z</time>
      </trkpt>
      <trkpt lat="48.79321" lon="5.15025">
        <ele>208</ele>
        <time>2023-01-30T15:47:34.000Z</time>
      </trkpt>
      <trkpt lat="48.79321" lon="5.15028">
        <ele>208</ele>
        <time>2023-01-30T15:47:35.000Z</time>
      </trkpt>
      <trkpt lat="48.79322" lon="5.15031">
        <ele>208</ele>
        <time>2023-01-30T15:47:36.000Z</time>
      </trkpt>
      <trkpt lat="48.79322" lon="5.15034">
        <ele>208</ele>
        <time>2023-01-30T15:47:37.000Z</time>
      </trkpt>
      <trkpt lat="48.79322" lon="5.15036">
        <ele>208</ele>
        <time>2023-01-30T15:47:38.000Z</time>
      </trkpt>
      <trkpt lat="48.79322" lon="5.15039">
        <ele>208</ele>
        <time>2023-01-30T15:47:39.000Z</time>
      </trkpt>
      <trkpt lat="48.79322" lon="5.15041">
        <ele>208</ele>
        <time>2023-01-30T15:47:40.000Z</time>
      </trkpt>
      <trkpt lat="48.79322" lon="5.15043">
        <ele>208</ele>
        <time>2023-01-30T15:47:41.000Z</time>
      </trkpt>
      <trkpt lat="48.79322" lon="5.15044">
        <ele>208</ele>
        <time>2023-01-30T15:47:42.000Z</time>
      </trkpt>
      <trkpt lat="48.79322" lon="5.15046">
        <ele>208</ele>
        <time>2023-01-30T15:47:43.000Z</time>
      </trkpt>
      <trkpt lat="48.79322" lon="5.15047">
        <ele>208</ele>
        <time>2023-01-30T15:47:44.000Z</time>
      </trkpt>
      <trkpt lat="48.79322" lon="5.15049">
        <ele>208</ele>
        <time>2023-01-30T15:47:45.000Z</time>
      </trkpt>
      <trkpt lat="48.79322" lon="5.15051">
        <ele>208</ele>
        <time>2023-01-30T15:47:46.000Z</time>
      </trkpt>
      <trkpt lat="48.79322" lon="5.15053">
        <ele>208</ele>
        <time>2023-01-30T15:47:47.000Z</time>
      </trkpt>
      <trkpt lat="48.79322" lon="5.15056">
        <ele>208.5</ele>
        <time>2023-01-30T15:47:48.000Z</time>
      </trkpt>
      <trkpt lat="48.79322" lon="5.15058">
        <ele>209</ele>
        <time>2023-01-30T15:47:49.000Z</time>
      </trkpt>
      <trkpt lat="48.79322" lon="5.1506">
        <ele>208.5</ele>
        <time>2023-01-30T15:47:50.000Z</time>
      </trkpt>
      <trkpt lat="48.79321" lon="5.15062">
        <ele>208</ele>
        <time>2023-01-30T15:47:51.000Z</time>
      </trkpt>
      <trkpt lat="48.79321" lon="5.15064">
        <ele>208.5</ele>
        <time>2023-01-30T15:47:52.000Z</time>
      </trkpt>
      <trkpt lat="48.79321" lon="5.15066">
        <ele>209</ele>
        <time>2023-01-30T15:47:53.000Z</time>
      </trkpt>
      <trkpt lat="48.7932" lon="5.15067">
        <ele>209</ele>
        <time>2023-01-30T15:47:54.000Z</time>
      </trkpt>
      <trkpt lat="48.7932" lon="5.15069">
        <ele>209</ele>
        <time>2023-01-30T15:47:55.000Z</time>
      </trkpt>
      <trkpt lat="48.7932" lon="5.15071">
        <ele>208.5</ele>
        <time>2023-01-30T15:47:56.000Z</time>
      </trkpt>
      <trkpt lat="48.79319" lon="5.15072">
        <ele>208</ele>
        <time>2023-01-30T15:47:57.000Z</time>
      </trkpt>
      <trkpt lat="48.79319" lon="5.15074">
        <ele>208</ele>
        <time>2023-01-30T15:47:58.000Z</time>
      </trkpt>
      <trkpt lat="48.79319" lon="5.15075">
        <ele>208</ele>
        <time>2023-01-30T15:47:59.000Z</time>
      </trkpt>
      <trkpt lat="48.79318" lon="5.15077">
        <ele>208</ele>
        <time>2023-01-30T15:48:00.000Z</time>
      </trkpt>
      <trkpt lat="48.79318" lon="5.15078">
        <ele>208</ele>
        <time>2023-01-30T15:48:01.000Z</time>
      </trkpt>
      <trkpt lat="48.79318" lon="5.15081">
        <ele>208</ele>
        <time>2023-01-30T15:48:02.000Z</time>
      </trkpt>
      <trkpt lat="48.79317" lon="5.15083">
        <ele>208</ele>
        <time>2023-01-30T15:48:03.000Z</time>
      </trkpt>
      <trkpt lat="48.79316" lon="5.15087">
        <ele>208</ele>
        <time>2023-01-30T15:48:04.000Z</time>
      </trkpt>
      <trkpt lat="48.79315" lon="5.15089">
        <ele>208</ele>
        <time>2023-01-30T15:48:05.000Z</time>
      </trkpt>
      <trkpt lat="48.79314" lon="5.15092">
        <ele>208</ele>
        <time>2023-01-30T15:48:06.000Z</time>
      </trkpt>
      <trkpt lat="48.79313" lon="5.15094">
        <ele>208</ele>
        <time>2023-01-30T15:48:07.000Z</time>
      </trkpt>
      <trkpt lat="48.79313" lon="5.15097">
        <ele>208</ele>
        <time>2023-01-30T15:48:08.000Z</time>
      </trkpt>
      <trkpt lat="48.79312" lon="5.15099">
        <ele>208</ele>
        <time>2023-01-30T15:48:09.000Z</time>
      </trkpt>
      <trkpt lat="48.79311" lon="5.15101">
        <ele>208</ele>
        <time>2023-01-30T15:48:10.000Z</time>
      </trkpt>
      <trkpt lat="48.79311" lon="5.15104">
        <ele>208</ele>
        <time>2023-01-30T15:48:11.000Z</time>
      </trkpt>
      <trkpt lat="48.79311" lon="5.15105">
        <ele>208</ele>
        <time>2023-01-30T15:48:12.000Z</time>
      </trkpt>
      <trkpt lat="48.79311" lon="5.15106">
        <ele>208</ele>
        <time>2023-01-30T15:48:13.000Z</time>
      </trkpt>
      <trkpt lat="48.7931" lon="5.15108">
        <ele>208</ele>
        <time>2023-01-30T15:48:14.000Z</time>
      </trkpt>
      <trkpt lat="48.7931" lon="5.15109">
        <ele>208</ele>
        <time>2023-01-30T15:48:15.000Z</time>
      </trkpt>
      <trkpt lat="48.7931" lon="5.15111">
        <ele>209</ele>
        <time>2023-01-30T15:48:16.000Z</time>
      </trkpt>
      <trkpt lat="48.7931" lon="5.15112">
        <ele>209</ele>
        <time>2023-01-30T15:48:17.000Z</time>
      </trkpt>
      <trkpt lat="48.79309" lon="5.15113">
        <ele>209</ele>
        <time>2023-01-30T15:48:18.000Z</time>
      </trkpt>
      <trkpt lat="48.79309" lon="5.15114">
        <ele>209</ele>
        <time>2023-01-30T15:48:19.000Z</time>
      </trkpt>
      <trkpt lat="48.79309" lon="5.15116">
        <ele>209</ele>
        <time>2023-01-30T15:48:20.000Z</time>
      </trkpt>
      <trkpt lat="48.79309" lon="5.15118">
        <ele>209</ele>
        <time>2023-01-30T15:48:21.000Z</time>
      </trkpt>
      <trkpt lat="48.79308" lon="5.15121">
        <ele>209</ele>
        <time>2023-01-30T15:48:22.000Z</time>
      </trkpt>
      <trkpt lat="48.79307" lon="5.15124">
        <ele>209</ele>
        <time>2023-01-30T15:48:23.000Z</time>
      </trkpt>
      <trkpt lat="48.79306" lon="5.15127">
        <ele>209</ele>
        <time>2023-01-30T15:48:24.000Z</time>
      </trkpt>
      <trkpt lat="48.79305" lon="5.1513">
        <ele>209</ele>
        <time>2023-01-30T15:48:25.000Z</time>
      </trkpt>
      <trkpt lat="48.79305" lon="5.15132">
        <ele>209</ele>
        <time>2023-01-30T15:48:26.000Z</time>
      </trkpt>
      <trkpt lat="48.79304" lon="5.15135">
        <ele>209</ele>
        <time>2023-01-30T15:48:27.000Z</time>
      </trkpt>
      <trkpt lat="48.79304" lon="5.15137">
        <ele>209</ele>
        <time>2023-01-30T15:48:28.000Z</time>
      </trkpt>
      <trkpt lat="48.79303" lon="5.15139">
        <ele>209</ele>
        <time>2023-01-30T15:48:29.000Z</time>
      </trkpt>
      <trkpt lat="48.79303" lon="5.15141">
        <ele>208.5</ele>
        <time>2023-01-30T15:48:30.000Z</time>
      </trkpt>
      <trkpt lat="48.79303" lon="5.15143">
        <ele>208</ele>
        <time>2023-01-30T15:48:31.000Z</time>
      </trkpt>
      <trkpt lat="48.79303" lon="5.15145">
        <ele>208</ele>
        <time>2023-01-30T15:48:32.000Z</time>
      </trkpt>
      <trkpt lat="48.79303" lon="5.15146">
        <ele>208</ele>
        <time>2023-01-30T15:48:33.000Z</time>
      </trkpt>
      <trkpt lat="48.79303" lon="5.15148">
        <ele>208</ele>
        <time>2023-01-30T15:48:34.000Z</time>
      </trkpt>
      <trkpt lat="48.79302" lon="5.1515">
        <ele>208</ele>
        <time>2023-01-30T15:48:35.000Z</time>
      </trkpt>
      <trkpt lat="48.79302" lon="5.15151">
        <ele>208</ele>
        <time>2023-01-30T15:48:36.000Z</time>
      </trkpt>
      <trkpt lat="48.79302" lon="5.15153">
        <ele>208</ele>
        <time>2023-01-30T15:48:37.000Z</time>
      </trkpt>
      <trkpt lat="48.79301" lon="5.15155">
        <ele>208</ele>
        <time>2023-01-30T15:48:38.000Z</time>
      </trkpt>
      <trkpt lat="48.793" lon="5.15157">
        <ele>208</ele>
        <time>2023-01-30T15:48:39.000Z</time>
      </trkpt>
      <trkpt lat="48.793" lon="5.1516">
        <ele>208</ele>
        <time>2023-01-30T15:48:40.000Z</time>
      </trkpt>
      <trkpt lat="48.79299" lon="5.15162">
        <ele>208</ele>
        <time>2023-01-30T15:48:41.000Z</time>
      </trkpt>
      <trkpt lat="48.79299" lon="5.15163">
        <ele>208</ele>
        <time>2023-01-30T15:48:42.000Z</time>
      </trkpt>
      <trkpt lat="48.79299" lon="5.15164">
        <ele>208</ele>
        <time>2023-01-30T15:48:43.000Z</time>
      </trkpt>
      <trkpt lat="48.79298" lon="5.15165">
        <ele>208</ele>
        <time>2023-01-30T15:48:44.000Z</time>
      </trkpt>
      <trkpt lat="48.79298" lon="5.15166">
        <ele>208</ele>
        <time>2023-01-30T15:48:45.000Z</time>
      </trkpt>
      <trkpt lat="48.79296" lon="5.15166">
        <ele>226.7</ele>
      </trkpt>
      <trkpt lat="48.79288" lon="5.15182">
        <ele>226.5</ele>
      </trkpt>
      <trkpt lat="48.79279" lon="5.15201">
        <ele>226.9</ele>
      </trkpt>
      <trkpt lat="48.79272" lon="5.15222">
        <ele>227</ele>
      </trkpt>
      <trkpt lat="48.79261" lon="5.1525">
        <ele>227</ele>
        <extensions>
          <visugpx:TrkExtension xmlns:visugpx="https://www.visugpx.com/editgpx/">
            <visugpx:node>5</visugpx:node>
            </visugpx:TrkExtension>
        </extensions>
      </trkpt>
    </trkseg>
  </trk>
</gpx>